<?xml version="1.0" encoding="UTF-8"?>
<gpx version="1.1" creator="https://www.youtrack.es" xsi:schemaLocation="http://www.topografix.com/GPX/1/1 http://www.topografix.com/GPX/1/1/gpx.xsd http://www.garmin.com/xmlschemas/GpxExtensions/v3 http://www.garmin.com/xmlschemas/GpxExtensionsv3.xsd http://www.garmin.com/xmlschemas/TrackPointExtension/v1 http://www.garmin.com/xmlschemas/TrackPointExtensionv1.xsd" xmlns:gpxtpx="http://www.garmin.com/xmlschemas/TrackPointExtension/v1" xmlns:gpxx="http://www.garmin.com/xmlschemas/GpxExtensions/v3" xmlns:xsi="http://www.w3.org/2001/XMLSchema-instance">
  <metadata>
    <link href="https://www.youtrack.es">
      <text>YouTrack.es</text>
    </link>
    <time>2026-05-09T00:57:40Z</time>
  </metadata>
  <trk>
    <src>https://www.youtrack.es</src>
    <link href="https://www.youtrack.es/ruta/1707-beceite">
      <text>YouTrack.es</text>
    </link>
    <trkseg>
      <trkpt lat="40.8241460" lon="0.1865410">
        <ele>586.2</ele>
        <time>2013-05-12T08:16:15Z</time>
      </trkpt>
      <trkpt lat="40.8238880" lon="0.1866510">
        <ele>586.3</ele>
        <time>2013-05-12T08:16:22Z</time>
      </trkpt>
      <trkpt lat="40.8237320" lon="0.1867680">
        <ele>587.0</ele>
        <time>2013-05-12T08:16:27Z</time>
      </trkpt>
      <trkpt lat="40.8235570" lon="0.1869310">
        <ele>588.5</ele>
        <time>2013-05-12T08:16:33Z</time>
      </trkpt>
      <trkpt lat="40.8233980" lon="0.1871400">
        <ele>589.8</ele>
        <time>2013-05-12T08:16:39Z</time>
      </trkpt>
      <trkpt lat="40.8232760" lon="0.1874610">
        <ele>590.7</ele>
        <time>2013-05-12T08:16:46Z</time>
      </trkpt>
      <trkpt lat="40.8231570" lon="0.1876640">
        <ele>591.8</ele>
        <time>2013-05-12T08:16:51Z</time>
      </trkpt>
      <trkpt lat="40.8229820" lon="0.1877880">
        <ele>591.9</ele>
        <time>2013-05-12T08:16:55Z</time>
      </trkpt>
      <trkpt lat="40.8228640" lon="0.1878440">
        <ele>591.3</ele>
        <time>2013-05-12T08:16:57Z</time>
      </trkpt>
      <trkpt lat="40.8224780" lon="0.1878670">
        <ele>590.0</ele>
        <time>2013-05-12T08:17:03Z</time>
      </trkpt>
      <trkpt lat="40.8223540" lon="0.1878470">
        <ele>589.6</ele>
        <time>2013-05-12T08:17:05Z</time>
      </trkpt>
      <trkpt lat="40.8221750" lon="0.1877970">
        <ele>589.0</ele>
        <time>2013-05-12T08:17:08Z</time>
      </trkpt>
      <trkpt lat="40.8217400" lon="0.1877880">
        <ele>590.5</ele>
        <time>2013-05-12T08:17:16Z</time>
      </trkpt>
      <trkpt lat="40.8214790" lon="0.1878230">
        <ele>591.9</ele>
        <time>2013-05-12T08:17:22Z</time>
      </trkpt>
      <trkpt lat="40.8213510" lon="0.1878430">
        <ele>592.5</ele>
        <time>2013-05-12T08:17:25Z</time>
      </trkpt>
      <trkpt lat="40.8211250" lon="0.1878170">
        <ele>594.4</ele>
        <time>2013-05-12T08:17:31Z</time>
      </trkpt>
      <trkpt lat="40.8210880" lon="0.1878020">
        <ele>594.7</ele>
        <time>2013-05-12T08:17:32Z</time>
      </trkpt>
      <trkpt lat="40.8209170" lon="0.1876080">
        <ele>594.4</ele>
        <time>2013-05-12T08:17:37Z</time>
      </trkpt>
      <trkpt lat="40.8206870" lon="0.1872420">
        <ele>594.4</ele>
        <time>2013-05-12T08:17:44Z</time>
      </trkpt>
      <trkpt lat="40.8206510" lon="0.1871920">
        <ele>594.2</ele>
        <time>2013-05-12T08:17:45Z</time>
      </trkpt>
      <trkpt lat="40.8204480" lon="0.1870580">
        <ele>593.3</ele>
        <time>2013-05-12T08:17:49Z</time>
      </trkpt>
      <trkpt lat="40.8203900" lon="0.1870480">
        <ele>593.2</ele>
        <time>2013-05-12T08:17:50Z</time>
      </trkpt>
      <trkpt lat="40.8202760" lon="0.1870310">
        <ele>593.2</ele>
        <time>2013-05-12T08:17:52Z</time>
      </trkpt>
      <trkpt lat="40.8200580" lon="0.1868490">
        <ele>593.0</ele>
        <time>2013-05-12T08:17:57Z</time>
      </trkpt>
      <trkpt lat="40.8200280" lon="0.1866980">
        <ele>592.8</ele>
        <time>2013-05-12T08:17:59Z</time>
      </trkpt>
      <trkpt lat="40.8199740" lon="0.1863550">
        <ele>592.2</ele>
        <time>2013-05-12T08:18:03Z</time>
      </trkpt>
      <trkpt lat="40.8199440" lon="0.1861890">
        <ele>591.8</ele>
        <time>2013-05-12T08:18:05Z</time>
      </trkpt>
      <trkpt lat="40.8199230" lon="0.1860230">
        <ele>591.8</ele>
        <time>2013-05-12T08:18:07Z</time>
      </trkpt>
      <trkpt lat="40.8198450" lon="0.1857430">
        <ele>593.4</ele>
        <time>2013-05-12T08:18:11Z</time>
      </trkpt>
      <trkpt lat="40.8197460" lon="0.1854270">
        <ele>595.3</ele>
        <time>2013-05-12T08:18:17Z</time>
      </trkpt>
      <trkpt lat="40.8196810" lon="0.1852450">
        <ele>597.7</ele>
        <time>2013-05-12T08:18:22Z</time>
      </trkpt>
      <trkpt lat="40.8196430" lon="0.1851580">
        <ele>599.3</ele>
        <time>2013-05-12T08:18:25Z</time>
      </trkpt>
      <trkpt lat="40.8196010" lon="0.1851050">
        <ele>600.7</ele>
        <time>2013-05-12T08:18:28Z</time>
      </trkpt>
      <trkpt lat="40.8195700" lon="0.1850810">
        <ele>601.6</ele>
        <time>2013-05-12T08:18:30Z</time>
      </trkpt>
      <trkpt lat="40.8195180" lon="0.1851010">
        <ele>602.5</ele>
        <time>2013-05-12T08:18:33Z</time>
      </trkpt>
      <trkpt lat="40.8195030" lon="0.1851270">
        <ele>602.9</ele>
        <time>2013-05-12T08:18:34Z</time>
      </trkpt>
      <trkpt lat="40.8194930" lon="0.1852350">
        <ele>604.3</ele>
        <time>2013-05-12T08:18:37Z</time>
      </trkpt>
      <trkpt lat="40.8195090" lon="0.1855600">
        <ele>605.7</ele>
        <time>2013-05-12T08:18:45Z</time>
      </trkpt>
      <trkpt lat="40.8194570" lon="0.1858200">
        <ele>606.6</ele>
        <time>2013-05-12T08:18:51Z</time>
      </trkpt>
      <trkpt lat="40.8193490" lon="0.1860130">
        <ele>606.9</ele>
        <time>2013-05-12T08:18:56Z</time>
      </trkpt>
      <trkpt lat="40.8191690" lon="0.1862580">
        <ele>608.1</ele>
        <time>2013-05-12T08:19:03Z</time>
      </trkpt>
      <trkpt lat="40.8189200" lon="0.1864750">
        <ele>607.7</ele>
        <time>2013-05-12T08:19:11Z</time>
      </trkpt>
      <trkpt lat="40.8187650" lon="0.1865820">
        <ele>608.5</ele>
        <time>2013-05-12T08:19:16Z</time>
      </trkpt>
      <trkpt lat="40.8185740" lon="0.1866160">
        <ele>609.1</ele>
        <time>2013-05-12T08:19:21Z</time>
      </trkpt>
      <trkpt lat="40.8183410" lon="0.1865880">
        <ele>609.8</ele>
        <time>2013-05-12T08:19:27Z</time>
      </trkpt>
      <trkpt lat="40.8181220" lon="0.1865460">
        <ele>610.2</ele>
        <time>2013-05-12T08:19:33Z</time>
      </trkpt>
      <trkpt lat="40.8178770" lon="0.1865540">
        <ele>609.6</ele>
        <time>2013-05-12T08:19:38Z</time>
      </trkpt>
      <trkpt lat="40.8178200" lon="0.1865520">
        <ele>609.4</ele>
        <time>2013-05-12T08:19:39Z</time>
      </trkpt>
      <trkpt lat="40.8176420" lon="0.1865200">
        <ele>608.8</ele>
        <time>2013-05-12T08:19:42Z</time>
      </trkpt>
      <trkpt lat="40.8174040" lon="0.1865090">
        <ele>608.3</ele>
        <time>2013-05-12T08:19:46Z</time>
      </trkpt>
      <trkpt lat="40.8172200" lon="0.1866250">
        <ele>608.2</ele>
        <time>2013-05-12T08:19:50Z</time>
      </trkpt>
      <trkpt lat="40.8170700" lon="0.1867530">
        <ele>608.1</ele>
        <time>2013-05-12T08:19:53Z</time>
      </trkpt>
      <trkpt lat="40.8169550" lon="0.1868120">
        <ele>607.2</ele>
        <time>2013-05-12T08:19:55Z</time>
      </trkpt>
      <trkpt lat="40.8167870" lon="0.1868630">
        <ele>606.8</ele>
        <time>2013-05-12T08:19:58Z</time>
      </trkpt>
      <trkpt lat="40.8166220" lon="0.1868440">
        <ele>606.9</ele>
        <time>2013-05-12T08:20:01Z</time>
      </trkpt>
      <trkpt lat="40.8164050" lon="0.1868140">
        <ele>606.3</ele>
        <time>2013-05-12T08:20:05Z</time>
      </trkpt>
      <trkpt lat="40.8162780" lon="0.1868250">
        <ele>605.8</ele>
        <time>2013-05-12T08:20:07Z</time>
      </trkpt>
      <trkpt lat="40.8160890" lon="0.1867190">
        <ele>603.9</ele>
        <time>2013-05-12T08:20:10Z</time>
      </trkpt>
      <trkpt lat="40.8160670" lon="0.1865350">
        <ele>603.4</ele>
        <time>2013-05-12T08:20:12Z</time>
      </trkpt>
      <trkpt lat="40.8160930" lon="0.1861560">
        <ele>601.3</ele>
        <time>2013-05-12T08:20:16Z</time>
      </trkpt>
      <trkpt lat="40.8160600" lon="0.1859340">
        <ele>601.1</ele>
        <time>2013-05-12T08:20:19Z</time>
      </trkpt>
      <trkpt lat="40.8160410" lon="0.1858700">
        <ele>601.4</ele>
        <time>2013-05-12T08:20:20Z</time>
      </trkpt>
      <trkpt lat="40.8159980" lon="0.1857410">
        <ele>602.1</ele>
        <time>2013-05-12T08:20:22Z</time>
      </trkpt>
      <trkpt lat="40.8159750" lon="0.1853910">
        <ele>602.0</ele>
        <time>2013-05-12T08:20:27Z</time>
      </trkpt>
      <trkpt lat="40.8160410" lon="0.1848920">
        <ele>603.3</ele>
        <time>2013-05-12T08:20:35Z</time>
      </trkpt>
      <trkpt lat="40.8160490" lon="0.1847710">
        <ele>603.7</ele>
        <time>2013-05-12T08:20:37Z</time>
      </trkpt>
      <trkpt lat="40.8159950" lon="0.1845020">
        <ele>604.4</ele>
        <time>2013-05-12T08:20:42Z</time>
      </trkpt>
      <trkpt lat="40.8159680" lon="0.1844670">
        <ele>604.4</ele>
        <time>2013-05-12T08:20:43Z</time>
      </trkpt>
      <trkpt lat="40.8157900" lon="0.1843290">
        <ele>605.8</ele>
        <time>2013-05-12T08:20:49Z</time>
      </trkpt>
      <trkpt lat="40.8156850" lon="0.1842290">
        <ele>607.8</ele>
        <time>2013-05-12T08:20:53Z</time>
      </trkpt>
      <trkpt lat="40.8156600" lon="0.1841960">
        <ele>608.0</ele>
        <time>2013-05-12T08:20:54Z</time>
      </trkpt>
      <trkpt lat="40.8155960" lon="0.1840770">
        <ele>608.6</ele>
        <time>2013-05-12T08:20:57Z</time>
      </trkpt>
      <trkpt lat="40.8155440" lon="0.1840130">
        <ele>608.7</ele>
        <time>2013-05-12T08:20:59Z</time>
      </trkpt>
      <trkpt lat="40.8154110" lon="0.1839640">
        <ele>609.0</ele>
        <time>2013-05-12T08:21:03Z</time>
      </trkpt>
      <trkpt lat="40.8152350" lon="0.1838780">
        <ele>609.7</ele>
        <time>2013-05-12T08:21:08Z</time>
      </trkpt>
      <trkpt lat="40.8149090" lon="0.1836600">
        <ele>609.7</ele>
        <time>2013-05-12T08:21:17Z</time>
      </trkpt>
      <trkpt lat="40.8147740" lon="0.1835200">
        <ele>610.0</ele>
        <time>2013-05-12T08:21:21Z</time>
      </trkpt>
      <trkpt lat="40.8145590" lon="0.1831160">
        <ele>610.8</ele>
        <time>2013-05-12T08:21:29Z</time>
      </trkpt>
      <trkpt lat="40.8144220" lon="0.1828370">
        <ele>610.4</ele>
        <time>2013-05-12T08:21:34Z</time>
      </trkpt>
      <trkpt lat="40.8142950" lon="0.1826480">
        <ele>610.7</ele>
        <time>2013-05-12T08:21:38Z</time>
      </trkpt>
      <trkpt lat="40.8140860" lon="0.1825420">
        <ele>610.7</ele>
        <time>2013-05-12T08:21:43Z</time>
      </trkpt>
      <trkpt lat="40.8139820" lon="0.1826170">
        <ele>610.7</ele>
        <time>2013-05-12T08:21:46Z</time>
      </trkpt>
      <trkpt lat="40.8139220" lon="0.1826980">
        <ele>610.9</ele>
        <time>2013-05-12T08:21:48Z</time>
      </trkpt>
      <trkpt lat="40.8137690" lon="0.1828310">
        <ele>611.5</ele>
        <time>2013-05-12T08:21:52Z</time>
      </trkpt>
      <trkpt lat="40.8136810" lon="0.1828720">
        <ele>611.7</ele>
        <time>2013-05-12T08:21:54Z</time>
      </trkpt>
      <trkpt lat="40.8135360" lon="0.1829930">
        <ele>612.2</ele>
        <time>2013-05-12T08:21:58Z</time>
      </trkpt>
      <trkpt lat="40.8133760" lon="0.1831960">
        <ele>611.9</ele>
        <time>2013-05-12T08:22:03Z</time>
      </trkpt>
      <trkpt lat="40.8133040" lon="0.1832780">
        <ele>611.8</ele>
        <time>2013-05-12T08:22:05Z</time>
      </trkpt>
      <trkpt lat="40.8130340" lon="0.1834850">
        <ele>611.4</ele>
        <time>2013-05-12T08:22:12Z</time>
      </trkpt>
      <trkpt lat="40.8128200" lon="0.1835920">
        <ele>611.4</ele>
        <time>2013-05-12T08:22:17Z</time>
      </trkpt>
      <trkpt lat="40.8127770" lon="0.1836110">
        <ele>611.4</ele>
        <time>2013-05-12T08:22:18Z</time>
      </trkpt>
      <trkpt lat="40.8125560" lon="0.1836870">
        <ele>612.2</ele>
        <time>2013-05-12T08:22:23Z</time>
      </trkpt>
      <trkpt lat="40.8123740" lon="0.1838430">
        <ele>612.3</ele>
        <time>2013-05-12T08:22:28Z</time>
      </trkpt>
      <trkpt lat="40.8121010" lon="0.1842440">
        <ele>612.6</ele>
        <time>2013-05-12T08:22:38Z</time>
      </trkpt>
      <trkpt lat="40.8119750" lon="0.1843950">
        <ele>613.4</ele>
        <time>2013-05-12T08:22:42Z</time>
      </trkpt>
      <trkpt lat="40.8119170" lon="0.1844770">
        <ele>613.5</ele>
        <time>2013-05-12T08:22:44Z</time>
      </trkpt>
      <trkpt lat="40.8118420" lon="0.1846970">
        <ele>613.4</ele>
        <time>2013-05-12T08:22:48Z</time>
      </trkpt>
      <trkpt lat="40.8118080" lon="0.1852050">
        <ele>613.9</ele>
        <time>2013-05-12T08:22:56Z</time>
      </trkpt>
      <trkpt lat="40.8118010" lon="0.1852690">
        <ele>614.0</ele>
        <time>2013-05-12T08:22:57Z</time>
      </trkpt>
      <trkpt lat="40.8116510" lon="0.1856340">
        <ele>612.6</ele>
        <time>2013-05-12T08:23:03Z</time>
      </trkpt>
      <trkpt lat="40.8115580" lon="0.1858060">
        <ele>612.4</ele>
        <time>2013-05-12T08:23:06Z</time>
      </trkpt>
      <trkpt lat="40.8114530" lon="0.1859310">
        <ele>612.5</ele>
        <time>2013-05-12T08:23:09Z</time>
      </trkpt>
      <trkpt lat="40.8113410" lon="0.1859480">
        <ele>611.5</ele>
        <time>2013-05-12T08:23:13Z</time>
      </trkpt>
      <trkpt lat="40.8113140" lon="0.1859290">
        <ele>611.2</ele>
        <time>2013-05-12T08:23:14Z</time>
      </trkpt>
      <trkpt lat="40.8112950" lon="0.1858900">
        <ele>610.9</ele>
        <time>2013-05-12T08:23:15Z</time>
      </trkpt>
      <trkpt lat="40.8113040" lon="0.1857330">
        <ele>610.6</ele>
        <time>2013-05-12T08:23:18Z</time>
      </trkpt>
      <trkpt lat="40.8113240" lon="0.1856860">
        <ele>610.6</ele>
        <time>2013-05-12T08:23:19Z</time>
      </trkpt>
      <trkpt lat="40.8114310" lon="0.1854110">
        <ele>610.2</ele>
        <time>2013-05-12T08:23:25Z</time>
      </trkpt>
      <trkpt lat="40.8114220" lon="0.1852420">
        <ele>608.5</ele>
        <time>2013-05-12T08:23:30Z</time>
      </trkpt>
      <trkpt lat="40.8114120" lon="0.1851920">
        <ele>608.4</ele>
        <time>2013-05-12T08:23:32Z</time>
      </trkpt>
      <trkpt lat="40.8114220" lon="0.1850750">
        <ele>609.2</ele>
        <time>2013-05-12T08:23:37Z</time>
      </trkpt>
      <trkpt lat="40.8114640" lon="0.1848610">
        <ele>609.2</ele>
        <time>2013-05-12T08:23:43Z</time>
      </trkpt>
      <trkpt lat="40.8115470" lon="0.1845320">
        <ele>609.4</ele>
        <time>2013-05-12T08:23:49Z</time>
      </trkpt>
      <trkpt lat="40.8115950" lon="0.1843470">
        <ele>609.9</ele>
        <time>2013-05-12T08:23:53Z</time>
      </trkpt>
      <trkpt lat="40.8116220" lon="0.1842560">
        <ele>610.5</ele>
        <time>2013-05-12T08:23:55Z</time>
      </trkpt>
      <trkpt lat="40.8116600" lon="0.1841700">
        <ele>611.0</ele>
        <time>2013-05-12T08:23:57Z</time>
      </trkpt>
      <trkpt lat="40.8117340" lon="0.1840180">
        <ele>611.0</ele>
        <time>2013-05-12T08:24:00Z</time>
      </trkpt>
      <trkpt lat="40.8117630" lon="0.1839640">
        <ele>610.8</ele>
        <time>2013-05-12T08:24:01Z</time>
      </trkpt>
      <trkpt lat="40.8119310" lon="0.1834830">
        <ele>610.5</ele>
        <time>2013-05-12T08:24:09Z</time>
      </trkpt>
      <trkpt lat="40.8120700" lon="0.1830680">
        <ele>610.2</ele>
        <time>2013-05-12T08:24:16Z</time>
      </trkpt>
      <trkpt lat="40.8121060" lon="0.1829540">
        <ele>610.2</ele>
        <time>2013-05-12T08:24:18Z</time>
      </trkpt>
      <trkpt lat="40.8121880" lon="0.1825200">
        <ele>609.6</ele>
        <time>2013-05-12T08:24:25Z</time>
      </trkpt>
      <trkpt lat="40.8122040" lon="0.1824500">
        <ele>609.5</ele>
        <time>2013-05-12T08:24:26Z</time>
      </trkpt>
      <trkpt lat="40.8122470" lon="0.1821350">
        <ele>610.1</ele>
        <time>2013-05-12T08:24:31Z</time>
      </trkpt>
      <trkpt lat="40.8123710" lon="0.1817680">
        <ele>610.3</ele>
        <time>2013-05-12T08:24:37Z</time>
      </trkpt>
      <trkpt lat="40.8124330" lon="0.1816470">
        <ele>610.0</ele>
        <time>2013-05-12T08:24:39Z</time>
      </trkpt>
      <trkpt lat="40.8126670" lon="0.1814200">
        <ele>609.6</ele>
        <time>2013-05-12T08:24:44Z</time>
      </trkpt>
      <trkpt lat="40.8129010" lon="0.1813770">
        <ele>609.4</ele>
        <time>2013-05-12T08:24:48Z</time>
      </trkpt>
      <trkpt lat="40.8131500" lon="0.1812910">
        <ele>609.4</ele>
        <time>2013-05-12T08:24:53Z</time>
      </trkpt>
      <trkpt lat="40.8132040" lon="0.1811170">
        <ele>609.7</ele>
        <time>2013-05-12T08:24:56Z</time>
      </trkpt>
      <trkpt lat="40.8131910" lon="0.1809980">
        <ele>610.0</ele>
        <time>2013-05-12T08:24:58Z</time>
      </trkpt>
      <trkpt lat="40.8131340" lon="0.1807670">
        <ele>610.6</ele>
        <time>2013-05-12T08:25:02Z</time>
      </trkpt>
      <trkpt lat="40.8130940" lon="0.1806520">
        <ele>610.9</ele>
        <time>2013-05-12T08:25:04Z</time>
      </trkpt>
      <trkpt lat="40.8129970" lon="0.1803610">
        <ele>611.5</ele>
        <time>2013-05-12T08:25:09Z</time>
      </trkpt>
      <trkpt lat="40.8128600" lon="0.1800500">
        <ele>612.2</ele>
        <time>2013-05-12T08:25:15Z</time>
      </trkpt>
      <trkpt lat="40.8126970" lon="0.1795800">
        <ele>613.8</ele>
        <time>2013-05-12T08:25:24Z</time>
      </trkpt>
      <trkpt lat="40.8126000" lon="0.1792480">
        <ele>614.6</ele>
        <time>2013-05-12T08:25:30Z</time>
      </trkpt>
      <trkpt lat="40.8124490" lon="0.1787520">
        <ele>614.5</ele>
        <time>2013-05-12T08:25:39Z</time>
      </trkpt>
      <trkpt lat="40.8124020" lon="0.1785510">
        <ele>615.2</ele>
        <time>2013-05-12T08:25:43Z</time>
      </trkpt>
      <trkpt lat="40.8122640" lon="0.1782410">
        <ele>614.9</ele>
        <time>2013-05-12T08:25:49Z</time>
      </trkpt>
      <trkpt lat="40.8121060" lon="0.1778420">
        <ele>615.3</ele>
        <time>2013-05-12T08:25:56Z</time>
      </trkpt>
      <trkpt lat="40.8120140" lon="0.1775650">
        <ele>615.2</ele>
        <time>2013-05-12T08:26:01Z</time>
      </trkpt>
      <trkpt lat="40.8119270" lon="0.1771820">
        <ele>615.7</ele>
        <time>2013-05-12T08:26:08Z</time>
      </trkpt>
      <trkpt lat="40.8118800" lon="0.1769730">
        <ele>616.7</ele>
        <time>2013-05-12T08:26:12Z</time>
      </trkpt>
      <trkpt lat="40.8118710" lon="0.1769220">
        <ele>617.2</ele>
        <time>2013-05-12T08:26:13Z</time>
      </trkpt>
      <trkpt lat="40.8117760" lon="0.1765070">
        <ele>618.8</ele>
        <time>2013-05-12T08:26:21Z</time>
      </trkpt>
      <trkpt lat="40.8116530" lon="0.1759990">
        <ele>618.0</ele>
        <time>2013-05-12T08:26:30Z</time>
      </trkpt>
      <trkpt lat="40.8115920" lon="0.1756370">
        <ele>618.3</ele>
        <time>2013-05-12T08:26:36Z</time>
      </trkpt>
      <trkpt lat="40.8115730" lon="0.1755200">
        <ele>618.2</ele>
        <time>2013-05-12T08:26:38Z</time>
      </trkpt>
      <trkpt lat="40.8115450" lon="0.1749730">
        <ele>618.4</ele>
        <time>2013-05-12T08:26:47Z</time>
      </trkpt>
      <trkpt lat="40.8115430" lon="0.1745110">
        <ele>618.4</ele>
        <time>2013-05-12T08:26:54Z</time>
      </trkpt>
      <trkpt lat="40.8115350" lon="0.1741400">
        <ele>619.6</ele>
        <time>2013-05-12T08:27:00Z</time>
      </trkpt>
      <trkpt lat="40.8114930" lon="0.1736910">
        <ele>620.5</ele>
        <time>2013-05-12T08:27:08Z</time>
      </trkpt>
      <trkpt lat="40.8114360" lon="0.1731550">
        <ele>620.6</ele>
        <time>2013-05-12T08:27:17Z</time>
      </trkpt>
      <trkpt lat="40.8113880" lon="0.1727690">
        <ele>620.9</ele>
        <time>2013-05-12T08:27:24Z</time>
      </trkpt>
      <trkpt lat="40.8113310" lon="0.1724990">
        <ele>622.0</ele>
        <time>2013-05-12T08:27:30Z</time>
      </trkpt>
      <trkpt lat="40.8112880" lon="0.1723040">
        <ele>623.9</ele>
        <time>2013-05-12T08:27:35Z</time>
      </trkpt>
      <trkpt lat="40.8112660" lon="0.1721870">
        <ele>624.9</ele>
        <time>2013-05-12T08:27:38Z</time>
      </trkpt>
      <trkpt lat="40.8112470" lon="0.1721070">
        <ele>625.7</ele>
        <time>2013-05-12T08:27:40Z</time>
      </trkpt>
      <trkpt lat="40.8111860" lon="0.1718480">
        <ele>628.3</ele>
        <time>2013-05-12T08:27:47Z</time>
      </trkpt>
      <trkpt lat="40.8111440" lon="0.1716680">
        <ele>630.6</ele>
        <time>2013-05-12T08:27:52Z</time>
      </trkpt>
      <trkpt lat="40.8111250" lon="0.1716020">
        <ele>631.4</ele>
        <time>2013-05-12T08:27:54Z</time>
      </trkpt>
      <trkpt lat="40.8110950" lon="0.1714630">
        <ele>632.8</ele>
        <time>2013-05-12T08:27:58Z</time>
      </trkpt>
      <trkpt lat="40.8110560" lon="0.1712960">
        <ele>634.2</ele>
        <time>2013-05-12T08:28:03Z</time>
      </trkpt>
      <trkpt lat="40.8110080" lon="0.1711200">
        <ele>635.7</ele>
        <time>2013-05-12T08:28:09Z</time>
      </trkpt>
      <trkpt lat="40.8108960" lon="0.1709110">
        <ele>638.2</ele>
        <time>2013-05-12T08:28:17Z</time>
      </trkpt>
      <trkpt lat="40.8108200" lon="0.1707810">
        <ele>640.3</ele>
        <time>2013-05-12T08:28:23Z</time>
      </trkpt>
      <trkpt lat="40.8107680" lon="0.1705880">
        <ele>642.5</ele>
        <time>2013-05-12T08:28:30Z</time>
      </trkpt>
      <trkpt lat="40.8107790" lon="0.1705260">
        <ele>643.1</ele>
        <time>2013-05-12T08:28:32Z</time>
      </trkpt>
      <trkpt lat="40.8109000" lon="0.1705090">
        <ele>644.7</ele>
        <time>2013-05-12T08:28:37Z</time>
      </trkpt>
      <trkpt lat="40.8110110" lon="0.1705980">
        <ele>646.0</ele>
        <time>2013-05-12T08:28:42Z</time>
      </trkpt>
      <trkpt lat="40.8111220" lon="0.1707220">
        <ele>647.7</ele>
        <time>2013-05-12T08:28:48Z</time>
      </trkpt>
      <trkpt lat="40.8112180" lon="0.1708310">
        <ele>649.6</ele>
        <time>2013-05-12T08:28:54Z</time>
      </trkpt>
      <trkpt lat="40.8112450" lon="0.1708730">
        <ele>650.4</ele>
        <time>2013-05-12T08:28:56Z</time>
      </trkpt>
      <trkpt lat="40.8113510" lon="0.1708490">
        <ele>652.5</ele>
        <time>2013-05-12T08:29:02Z</time>
      </trkpt>
      <trkpt lat="40.8113360" lon="0.1707310">
        <ele>653.4</ele>
        <time>2013-05-12T08:29:06Z</time>
      </trkpt>
      <trkpt lat="40.8113080" lon="0.1706490">
        <ele>654.1</ele>
        <time>2013-05-12T08:29:09Z</time>
      </trkpt>
      <trkpt lat="40.8112040" lon="0.1704780">
        <ele>656.0</ele>
        <time>2013-05-12T08:29:16Z</time>
      </trkpt>
      <trkpt lat="40.8110950" lon="0.1703710">
        <ele>657.7</ele>
        <time>2013-05-12T08:29:22Z</time>
      </trkpt>
      <trkpt lat="40.8109950" lon="0.1702380">
        <ele>659.0</ele>
        <time>2013-05-12T08:29:28Z</time>
      </trkpt>
      <trkpt lat="40.8108740" lon="0.1701040">
        <ele>660.6</ele>
        <time>2013-05-12T08:29:35Z</time>
      </trkpt>
      <trkpt lat="40.8107870" lon="0.1699950">
        <ele>661.8</ele>
        <time>2013-05-12T08:29:40Z</time>
      </trkpt>
      <trkpt lat="40.8106730" lon="0.1698120">
        <ele>663.2</ele>
        <time>2013-05-12T08:29:47Z</time>
      </trkpt>
      <trkpt lat="40.8105820" lon="0.1695990">
        <ele>664.5</ele>
        <time>2013-05-12T08:29:55Z</time>
      </trkpt>
      <trkpt lat="40.8104760" lon="0.1693370">
        <ele>667.8</ele>
        <time>2013-05-12T08:30:04Z</time>
      </trkpt>
      <trkpt lat="40.8104130" lon="0.1691070">
        <ele>669.9</ele>
        <time>2013-05-12T08:30:12Z</time>
      </trkpt>
      <trkpt lat="40.8103500" lon="0.1689190">
        <ele>671.5</ele>
        <time>2013-05-12T08:30:19Z</time>
      </trkpt>
      <trkpt lat="40.8102870" lon="0.1687510">
        <ele>672.9</ele>
        <time>2013-05-12T08:30:26Z</time>
      </trkpt>
      <trkpt lat="40.8102310" lon="0.1685270">
        <ele>676.0</ele>
        <time>2013-05-12T08:30:34Z</time>
      </trkpt>
      <trkpt lat="40.8101770" lon="0.1683440">
        <ele>678.1</ele>
        <time>2013-05-12T08:30:41Z</time>
      </trkpt>
      <trkpt lat="40.8101300" lon="0.1681720">
        <ele>680.2</ele>
        <time>2013-05-12T08:30:48Z</time>
      </trkpt>
      <trkpt lat="40.8100910" lon="0.1679790">
        <ele>682.6</ele>
        <time>2013-05-12T08:30:55Z</time>
      </trkpt>
      <trkpt lat="40.8100410" lon="0.1677950">
        <ele>684.5</ele>
        <time>2013-05-12T08:31:02Z</time>
      </trkpt>
      <trkpt lat="40.8099920" lon="0.1676360">
        <ele>686.2</ele>
        <time>2013-05-12T08:31:09Z</time>
      </trkpt>
      <trkpt lat="40.8099430" lon="0.1674360">
        <ele>688.9</ele>
        <time>2013-05-12T08:31:17Z</time>
      </trkpt>
      <trkpt lat="40.8099030" lon="0.1672040">
        <ele>691.7</ele>
        <time>2013-05-12T08:31:26Z</time>
      </trkpt>
      <trkpt lat="40.8098840" lon="0.1670010">
        <ele>693.9</ele>
        <time>2013-05-12T08:31:34Z</time>
      </trkpt>
      <trkpt lat="40.8098720" lon="0.1668550">
        <ele>695.7</ele>
        <time>2013-05-12T08:31:40Z</time>
      </trkpt>
      <trkpt lat="40.8098520" lon="0.1666610">
        <ele>698.0</ele>
        <time>2013-05-12T08:31:48Z</time>
      </trkpt>
      <trkpt lat="40.8098350" lon="0.1664930">
        <ele>700.0</ele>
        <time>2013-05-12T08:31:56Z</time>
      </trkpt>
      <trkpt lat="40.8098120" lon="0.1663680">
        <ele>701.4</ele>
        <time>2013-05-12T08:32:02Z</time>
      </trkpt>
      <trkpt lat="40.8097930" lon="0.1662040">
        <ele>703.4</ele>
        <time>2013-05-12T08:32:09Z</time>
      </trkpt>
      <trkpt lat="40.8097590" lon="0.1660090">
        <ele>705.6</ele>
        <time>2013-05-12T08:32:18Z</time>
      </trkpt>
      <trkpt lat="40.8097310" lon="0.1659080">
        <ele>706.9</ele>
        <time>2013-05-12T08:32:23Z</time>
      </trkpt>
      <trkpt lat="40.8096900" lon="0.1657490">
        <ele>709.1</ele>
        <time>2013-05-12T08:32:30Z</time>
      </trkpt>
      <trkpt lat="40.8096580" lon="0.1656130">
        <ele>711.0</ele>
        <time>2013-05-12T08:32:36Z</time>
      </trkpt>
      <trkpt lat="40.8095990" lon="0.1654440">
        <ele>712.9</ele>
        <time>2013-05-12T08:32:43Z</time>
      </trkpt>
      <trkpt lat="40.8095340" lon="0.1652980">
        <ele>714.7</ele>
        <time>2013-05-12T08:32:50Z</time>
      </trkpt>
      <trkpt lat="40.8094840" lon="0.1651250">
        <ele>717.1</ele>
        <time>2013-05-12T08:32:58Z</time>
      </trkpt>
      <trkpt lat="40.8094580" lon="0.1649780">
        <ele>719.3</ele>
        <time>2013-05-12T08:33:05Z</time>
      </trkpt>
      <trkpt lat="40.8094340" lon="0.1648390">
        <ele>720.9</ele>
        <time>2013-05-12T08:33:11Z</time>
      </trkpt>
      <trkpt lat="40.8094000" lon="0.1646770">
        <ele>722.5</ele>
        <time>2013-05-12T08:33:18Z</time>
      </trkpt>
      <trkpt lat="40.8093520" lon="0.1644880">
        <ele>724.0</ele>
        <time>2013-05-12T08:33:25Z</time>
      </trkpt>
      <trkpt lat="40.8092430" lon="0.1642790">
        <ele>724.4</ele>
        <time>2013-05-12T08:33:33Z</time>
      </trkpt>
      <trkpt lat="40.8091330" lon="0.1641510">
        <ele>724.1</ele>
        <time>2013-05-12T08:33:38Z</time>
      </trkpt>
      <trkpt lat="40.8090120" lon="0.1640650">
        <ele>723.9</ele>
        <time>2013-05-12T08:33:42Z</time>
      </trkpt>
      <trkpt lat="40.8089480" lon="0.1640240">
        <ele>723.7</ele>
        <time>2013-05-12T08:33:44Z</time>
      </trkpt>
      <trkpt lat="40.8087700" lon="0.1639360">
        <ele>724.1</ele>
        <time>2013-05-12T08:33:49Z</time>
      </trkpt>
      <trkpt lat="40.8086580" lon="0.1638800">
        <ele>724.1</ele>
        <time>2013-05-12T08:33:52Z</time>
      </trkpt>
      <trkpt lat="40.8084160" lon="0.1637860">
        <ele>724.3</ele>
        <time>2013-05-12T08:33:58Z</time>
      </trkpt>
      <trkpt lat="40.8081150" lon="0.1636340">
        <ele>725.5</ele>
        <time>2013-05-12T08:34:06Z</time>
      </trkpt>
      <trkpt lat="40.8078490" lon="0.1634950">
        <ele>727.9</ele>
        <time>2013-05-12T08:34:14Z</time>
      </trkpt>
      <trkpt lat="40.8076390" lon="0.1635040">
        <ele>729.8</ele>
        <time>2013-05-12T08:34:20Z</time>
      </trkpt>
      <trkpt lat="40.8073960" lon="0.1635880">
        <ele>732.5</ele>
        <time>2013-05-12T08:34:28Z</time>
      </trkpt>
      <trkpt lat="40.8072600" lon="0.1637090">
        <ele>734.1</ele>
        <time>2013-05-12T08:34:33Z</time>
      </trkpt>
      <trkpt lat="40.8071630" lon="0.1638050">
        <ele>735.2</ele>
        <time>2013-05-12T08:34:37Z</time>
      </trkpt>
      <trkpt lat="40.8070150" lon="0.1639390">
        <ele>737.1</ele>
        <time>2013-05-12T08:34:43Z</time>
      </trkpt>
      <trkpt lat="40.8068950" lon="0.1640700">
        <ele>739.4</ele>
        <time>2013-05-12T08:34:48Z</time>
      </trkpt>
      <trkpt lat="40.8067590" lon="0.1641210">
        <ele>740.6</ele>
        <time>2013-05-12T08:34:53Z</time>
      </trkpt>
      <trkpt lat="40.8066160" lon="0.1641080">
        <ele>741.6</ele>
        <time>2013-05-12T08:34:58Z</time>
      </trkpt>
      <trkpt lat="40.8064710" lon="0.1641020">
        <ele>742.3</ele>
        <time>2013-05-12T08:35:03Z</time>
      </trkpt>
      <trkpt lat="40.8062520" lon="0.1641750">
        <ele>743.7</ele>
        <time>2013-05-12T08:35:11Z</time>
      </trkpt>
      <trkpt lat="40.8061020" lon="0.1642460">
        <ele>745.0</ele>
        <time>2013-05-12T08:35:17Z</time>
      </trkpt>
      <trkpt lat="40.8059500" lon="0.1643280">
        <ele>746.7</ele>
        <time>2013-05-12T08:35:24Z</time>
      </trkpt>
      <trkpt lat="40.8058160" lon="0.1643960">
        <ele>748.8</ele>
        <time>2013-05-12T08:35:30Z</time>
      </trkpt>
      <trkpt lat="40.8056470" lon="0.1645120">
        <ele>751.7</ele>
        <time>2013-05-12T08:35:38Z</time>
      </trkpt>
      <trkpt lat="40.8055030" lon="0.1645830">
        <ele>754.7</ele>
        <time>2013-05-12T08:35:45Z</time>
      </trkpt>
      <trkpt lat="40.8053910" lon="0.1646360">
        <ele>756.6</ele>
        <time>2013-05-12T08:35:50Z</time>
      </trkpt>
      <trkpt lat="40.8053040" lon="0.1647170">
        <ele>757.1</ele>
        <time>2013-05-12T08:35:54Z</time>
      </trkpt>
      <trkpt lat="40.8051540" lon="0.1647910">
        <ele>757.6</ele>
        <time>2013-05-12T08:36:00Z</time>
      </trkpt>
      <trkpt lat="40.8050110" lon="0.1648230">
        <ele>758.8</ele>
        <time>2013-05-12T08:36:06Z</time>
      </trkpt>
      <trkpt lat="40.8048380" lon="0.1648790">
        <ele>760.9</ele>
        <time>2013-05-12T08:36:14Z</time>
      </trkpt>
      <trkpt lat="40.8047360" lon="0.1649190">
        <ele>762.5</ele>
        <time>2013-05-12T08:36:19Z</time>
      </trkpt>
      <trkpt lat="40.8046050" lon="0.1649490">
        <ele>764.5</ele>
        <time>2013-05-12T08:36:26Z</time>
      </trkpt>
      <trkpt lat="40.8044770" lon="0.1648950">
        <ele>766.6</ele>
        <time>2013-05-12T08:36:33Z</time>
      </trkpt>
      <trkpt lat="40.8043240" lon="0.1647920">
        <ele>769.0</ele>
        <time>2013-05-12T08:36:41Z</time>
      </trkpt>
      <trkpt lat="40.8042230" lon="0.1646780">
        <ele>770.9</ele>
        <time>2013-05-12T08:36:47Z</time>
      </trkpt>
      <trkpt lat="40.8041470" lon="0.1645370">
        <ele>773.2</ele>
        <time>2013-05-12T08:36:53Z</time>
      </trkpt>
      <trkpt lat="40.8041160" lon="0.1644970">
        <ele>774.0</ele>
        <time>2013-05-12T08:36:55Z</time>
      </trkpt>
      <trkpt lat="40.8040120" lon="0.1644300">
        <ele>776.1</ele>
        <time>2013-05-12T08:37:01Z</time>
      </trkpt>
      <trkpt lat="40.8039250" lon="0.1644660">
        <ele>777.7</ele>
        <time>2013-05-12T08:37:06Z</time>
      </trkpt>
      <trkpt lat="40.8038190" lon="0.1644840">
        <ele>778.9</ele>
        <time>2013-05-12T08:37:11Z</time>
      </trkpt>
      <trkpt lat="40.8036620" lon="0.1645700">
        <ele>780.4</ele>
        <time>2013-05-12T08:37:17Z</time>
      </trkpt>
      <trkpt lat="40.8035050" lon="0.1646780">
        <ele>781.3</ele>
        <time>2013-05-12T08:37:22Z</time>
      </trkpt>
      <trkpt lat="40.8033630" lon="0.1648010">
        <ele>782.1</ele>
        <time>2013-05-12T08:37:28Z</time>
      </trkpt>
      <trkpt lat="40.8031990" lon="0.1649830">
        <ele>782.6</ele>
        <time>2013-05-12T08:37:35Z</time>
      </trkpt>
      <trkpt lat="40.8031130" lon="0.1651370">
        <ele>783.7</ele>
        <time>2013-05-12T08:37:40Z</time>
      </trkpt>
      <trkpt lat="40.8029990" lon="0.1653000">
        <ele>784.5</ele>
        <time>2013-05-12T08:37:45Z</time>
      </trkpt>
      <trkpt lat="40.8028430" lon="0.1653600">
        <ele>785.5</ele>
        <time>2013-05-12T08:37:50Z</time>
      </trkpt>
      <trkpt lat="40.8026310" lon="0.1653300">
        <ele>787.4</ele>
        <time>2013-05-12T08:37:57Z</time>
      </trkpt>
      <trkpt lat="40.8024310" lon="0.1652550">
        <ele>789.0</ele>
        <time>2013-05-12T08:38:04Z</time>
      </trkpt>
      <trkpt lat="40.8022670" lon="0.1652870">
        <ele>790.4</ele>
        <time>2013-05-12T08:38:11Z</time>
      </trkpt>
      <trkpt lat="40.8021490" lon="0.1653190">
        <ele>791.8</ele>
        <time>2013-05-12T08:38:16Z</time>
      </trkpt>
      <trkpt lat="40.8020040" lon="0.1653290">
        <ele>793.5</ele>
        <time>2013-05-12T08:38:22Z</time>
      </trkpt>
      <trkpt lat="40.8018350" lon="0.1653260">
        <ele>795.5</ele>
        <time>2013-05-12T08:38:29Z</time>
      </trkpt>
      <trkpt lat="40.8016760" lon="0.1652960">
        <ele>797.3</ele>
        <time>2013-05-12T08:38:36Z</time>
      </trkpt>
      <trkpt lat="40.8015280" lon="0.1652580">
        <ele>799.3</ele>
        <time>2013-05-12T08:38:43Z</time>
      </trkpt>
      <trkpt lat="40.8013870" lon="0.1652170">
        <ele>801.1</ele>
        <time>2013-05-12T08:38:49Z</time>
      </trkpt>
      <trkpt lat="40.8012510" lon="0.1651880">
        <ele>803.1</ele>
        <time>2013-05-12T08:38:55Z</time>
      </trkpt>
      <trkpt lat="40.8010870" lon="0.1651740">
        <ele>804.3</ele>
        <time>2013-05-12T08:39:01Z</time>
      </trkpt>
      <trkpt lat="40.8009410" lon="0.1651550">
        <ele>806.0</ele>
        <time>2013-05-12T08:39:07Z</time>
      </trkpt>
      <trkpt lat="40.8007760" lon="0.1652200">
        <ele>808.0</ele>
        <time>2013-05-12T08:39:14Z</time>
      </trkpt>
      <trkpt lat="40.8005960" lon="0.1653040">
        <ele>808.7</ele>
        <time>2013-05-12T08:39:21Z</time>
      </trkpt>
      <trkpt lat="40.8003820" lon="0.1653900">
        <ele>809.8</ele>
        <time>2013-05-12T08:39:29Z</time>
      </trkpt>
      <trkpt lat="40.8001670" lon="0.1654750">
        <ele>811.3</ele>
        <time>2013-05-12T08:39:37Z</time>
      </trkpt>
      <trkpt lat="40.8000340" lon="0.1655160">
        <ele>812.3</ele>
        <time>2013-05-12T08:39:42Z</time>
      </trkpt>
      <trkpt lat="40.7998810" lon="0.1655750">
        <ele>813.8</ele>
        <time>2013-05-12T08:39:48Z</time>
      </trkpt>
      <trkpt lat="40.7997060" lon="0.1656370">
        <ele>815.8</ele>
        <time>2013-05-12T08:39:55Z</time>
      </trkpt>
      <trkpt lat="40.7995150" lon="0.1657030">
        <ele>817.1</ele>
        <time>2013-05-12T08:40:02Z</time>
      </trkpt>
      <trkpt lat="40.7994020" lon="0.1657620">
        <ele>817.5</ele>
        <time>2013-05-12T08:40:06Z</time>
      </trkpt>
      <trkpt lat="40.7992540" lon="0.1658140">
        <ele>818.9</ele>
        <time>2013-05-12T08:40:12Z</time>
      </trkpt>
      <trkpt lat="40.7991020" lon="0.1658600">
        <ele>820.2</ele>
        <time>2013-05-12T08:40:18Z</time>
      </trkpt>
      <trkpt lat="40.7988980" lon="0.1659170">
        <ele>822.3</ele>
        <time>2013-05-12T08:40:26Z</time>
      </trkpt>
      <trkpt lat="40.7987400" lon="0.1659860">
        <ele>823.8</ele>
        <time>2013-05-12T08:40:32Z</time>
      </trkpt>
      <trkpt lat="40.7985410" lon="0.1661100">
        <ele>825.4</ele>
        <time>2013-05-12T08:40:40Z</time>
      </trkpt>
      <trkpt lat="40.7983750" lon="0.1662270">
        <ele>826.5</ele>
        <time>2013-05-12T08:40:47Z</time>
      </trkpt>
      <trkpt lat="40.7982260" lon="0.1663420">
        <ele>828.3</ele>
        <time>2013-05-12T08:40:54Z</time>
      </trkpt>
      <trkpt lat="40.7980900" lon="0.1664520">
        <ele>830.4</ele>
        <time>2013-05-12T08:41:00Z</time>
      </trkpt>
      <trkpt lat="40.7979790" lon="0.1665480">
        <ele>832.2</ele>
        <time>2013-05-12T08:41:05Z</time>
      </trkpt>
      <trkpt lat="40.7978840" lon="0.1666930">
        <ele>834.0</ele>
        <time>2013-05-12T08:41:11Z</time>
      </trkpt>
      <trkpt lat="40.7978010" lon="0.1668280">
        <ele>836.0</ele>
        <time>2013-05-12T08:41:17Z</time>
      </trkpt>
      <trkpt lat="40.7977240" lon="0.1669270">
        <ele>837.7</ele>
        <time>2013-05-12T08:41:23Z</time>
      </trkpt>
      <trkpt lat="40.7975970" lon="0.1670330">
        <ele>840.2</ele>
        <time>2013-05-12T08:41:30Z</time>
      </trkpt>
      <trkpt lat="40.7974880" lon="0.1671030">
        <ele>841.9</ele>
        <time>2013-05-12T08:41:36Z</time>
      </trkpt>
      <trkpt lat="40.7973650" lon="0.1671630">
        <ele>843.9</ele>
        <time>2013-05-12T08:41:43Z</time>
      </trkpt>
      <trkpt lat="40.7972640" lon="0.1672060">
        <ele>845.3</ele>
        <time>2013-05-12T08:41:49Z</time>
      </trkpt>
      <trkpt lat="40.7971680" lon="0.1672380">
        <ele>847.2</ele>
        <time>2013-05-12T08:41:55Z</time>
      </trkpt>
      <trkpt lat="40.7970770" lon="0.1672750">
        <ele>848.5</ele>
        <time>2013-05-12T08:42:01Z</time>
      </trkpt>
      <trkpt lat="40.7969520" lon="0.1672720">
        <ele>850.5</ele>
        <time>2013-05-12T08:42:06Z</time>
      </trkpt>
      <trkpt lat="40.7968280" lon="0.1672750">
        <ele>852.9</ele>
        <time>2013-05-12T08:42:12Z</time>
      </trkpt>
      <trkpt lat="40.7966910" lon="0.1672510">
        <ele>854.7</ele>
        <time>2013-05-12T08:42:18Z</time>
      </trkpt>
      <trkpt lat="40.7965310" lon="0.1672180">
        <ele>856.7</ele>
        <time>2013-05-12T08:42:25Z</time>
      </trkpt>
      <trkpt lat="40.7963160" lon="0.1671640">
        <ele>857.8</ele>
        <time>2013-05-12T08:42:34Z</time>
      </trkpt>
      <trkpt lat="40.7960360" lon="0.1671900">
        <ele>858.4</ele>
        <time>2013-05-12T08:42:43Z</time>
      </trkpt>
      <trkpt lat="40.7958720" lon="0.1671910">
        <ele>858.7</ele>
        <time>2013-05-12T08:42:48Z</time>
      </trkpt>
      <trkpt lat="40.7956230" lon="0.1670720">
        <ele>860.4</ele>
        <time>2013-05-12T08:42:56Z</time>
      </trkpt>
      <trkpt lat="40.7954920" lon="0.1669010">
        <ele>860.6</ele>
        <time>2013-05-12T08:43:01Z</time>
      </trkpt>
      <trkpt lat="40.7952990" lon="0.1665640">
        <ele>860.5</ele>
        <time>2013-05-12T08:43:08Z</time>
      </trkpt>
      <trkpt lat="40.7951270" lon="0.1664360">
        <ele>861.4</ele>
        <time>2013-05-12T08:43:13Z</time>
      </trkpt>
      <trkpt lat="40.7950160" lon="0.1665230">
        <ele>861.5</ele>
        <time>2013-05-12T08:43:16Z</time>
      </trkpt>
      <trkpt lat="40.7949830" lon="0.1665750">
        <ele>861.2</ele>
        <time>2013-05-12T08:43:17Z</time>
      </trkpt>
      <trkpt lat="40.7948300" lon="0.1668490">
        <ele>859.8</ele>
        <time>2013-05-12T08:43:21Z</time>
      </trkpt>
      <trkpt lat="40.7945630" lon="0.1670030">
        <ele>857.4</ele>
        <time>2013-05-12T08:43:25Z</time>
      </trkpt>
      <trkpt lat="40.7943890" lon="0.1669970">
        <ele>856.1</ele>
        <time>2013-05-12T08:43:27Z</time>
      </trkpt>
      <trkpt lat="40.7943020" lon="0.1669810">
        <ele>855.6</ele>
        <time>2013-05-12T08:43:28Z</time>
      </trkpt>
      <trkpt lat="40.7941200" lon="0.1669360">
        <ele>854.5</ele>
        <time>2013-05-12T08:43:30Z</time>
      </trkpt>
      <trkpt lat="40.7938320" lon="0.1670000">
        <ele>850.9</ele>
        <time>2013-05-12T08:43:34Z</time>
      </trkpt>
      <trkpt lat="40.7937070" lon="0.1671680">
        <ele>849.4</ele>
        <time>2013-05-12T08:43:37Z</time>
      </trkpt>
      <trkpt lat="40.7934950" lon="0.1672620">
        <ele>848.9</ele>
        <time>2013-05-12T08:43:40Z</time>
      </trkpt>
      <trkpt lat="40.7930260" lon="0.1673440">
        <ele>845.1</ele>
        <time>2013-05-12T08:43:45Z</time>
      </trkpt>
      <trkpt lat="40.7929410" lon="0.1673530">
        <ele>844.3</ele>
        <time>2013-05-12T08:43:46Z</time>
      </trkpt>
      <trkpt lat="40.7926630" lon="0.1672220">
        <ele>840.2</ele>
        <time>2013-05-12T08:43:50Z</time>
      </trkpt>
      <trkpt lat="40.7925340" lon="0.1670970">
        <ele>839.5</ele>
        <time>2013-05-12T08:43:52Z</time>
      </trkpt>
      <trkpt lat="40.7923410" lon="0.1670300">
        <ele>837.9</ele>
        <time>2013-05-12T08:43:55Z</time>
      </trkpt>
      <trkpt lat="40.7922610" lon="0.1671330">
        <ele>836.5</ele>
        <time>2013-05-12T08:43:57Z</time>
      </trkpt>
      <trkpt lat="40.7922450" lon="0.1672190">
        <ele>835.9</ele>
        <time>2013-05-12T08:43:58Z</time>
      </trkpt>
      <trkpt lat="40.7921090" lon="0.1676610">
        <ele>836.3</ele>
        <time>2013-05-12T08:44:03Z</time>
      </trkpt>
      <trkpt lat="40.7920380" lon="0.1677900">
        <ele>836.3</ele>
        <time>2013-05-12T08:44:05Z</time>
      </trkpt>
      <trkpt lat="40.7918810" lon="0.1679730">
        <ele>835.9</ele>
        <time>2013-05-12T08:44:09Z</time>
      </trkpt>
      <trkpt lat="40.7916960" lon="0.1680870">
        <ele>835.5</ele>
        <time>2013-05-12T08:44:13Z</time>
      </trkpt>
      <trkpt lat="40.7913100" lon="0.1681810">
        <ele>832.9</ele>
        <time>2013-05-12T08:44:19Z</time>
      </trkpt>
      <trkpt lat="40.7910740" lon="0.1681810">
        <ele>830.7</ele>
        <time>2013-05-12T08:44:22Z</time>
      </trkpt>
      <trkpt lat="40.7909960" lon="0.1681760">
        <ele>830.1</ele>
        <time>2013-05-12T08:44:23Z</time>
      </trkpt>
      <trkpt lat="40.7906390" lon="0.1682770">
        <ele>829.2</ele>
        <time>2013-05-12T08:44:28Z</time>
      </trkpt>
      <trkpt lat="40.7905300" lon="0.1683410">
        <ele>829.4</ele>
        <time>2013-05-12T08:44:30Z</time>
      </trkpt>
      <trkpt lat="40.7903290" lon="0.1683780">
        <ele>829.9</ele>
        <time>2013-05-12T08:44:34Z</time>
      </trkpt>
      <trkpt lat="40.7901850" lon="0.1684450">
        <ele>830.4</ele>
        <time>2013-05-12T08:44:38Z</time>
      </trkpt>
      <trkpt lat="40.7901580" lon="0.1684820">
        <ele>830.6</ele>
        <time>2013-05-12T08:44:39Z</time>
      </trkpt>
      <trkpt lat="40.7900170" lon="0.1687160">
        <ele>831.6</ele>
        <time>2013-05-12T08:44:45Z</time>
      </trkpt>
      <trkpt lat="40.7900360" lon="0.1689820">
        <ele>830.8</ele>
        <time>2013-05-12T08:44:49Z</time>
      </trkpt>
      <trkpt lat="40.7899820" lon="0.1692480">
        <ele>829.7</ele>
        <time>2013-05-12T08:44:53Z</time>
      </trkpt>
      <trkpt lat="40.7898830" lon="0.1694910">
        <ele>829.6</ele>
        <time>2013-05-12T08:44:57Z</time>
      </trkpt>
      <trkpt lat="40.7899070" lon="0.1697890">
        <ele>828.1</ele>
        <time>2013-05-12T08:45:01Z</time>
      </trkpt>
      <trkpt lat="40.7899470" lon="0.1698760">
        <ele>827.3</ele>
        <time>2013-05-12T08:45:02Z</time>
      </trkpt>
      <trkpt lat="40.7901790" lon="0.1703290">
        <ele>823.2</ele>
        <time>2013-05-12T08:45:07Z</time>
      </trkpt>
      <trkpt lat="40.7903240" lon="0.1708700">
        <ele>818.5</ele>
        <time>2013-05-12T08:45:12Z</time>
      </trkpt>
      <trkpt lat="40.7903640" lon="0.1711100">
        <ele>817.8</ele>
        <time>2013-05-12T08:45:14Z</time>
      </trkpt>
      <trkpt lat="40.7903070" lon="0.1714740">
        <ele>815.5</ele>
        <time>2013-05-12T08:45:18Z</time>
      </trkpt>
      <trkpt lat="40.7901370" lon="0.1716520">
        <ele>811.7</ele>
        <time>2013-05-12T08:45:21Z</time>
      </trkpt>
      <trkpt lat="40.7900850" lon="0.1717250">
        <ele>810.2</ele>
        <time>2013-05-12T08:45:22Z</time>
      </trkpt>
      <trkpt lat="40.7898030" lon="0.1721600">
        <ele>806.6</ele>
        <time>2013-05-12T08:45:27Z</time>
      </trkpt>
      <trkpt lat="40.7895780" lon="0.1723620">
        <ele>806.8</ele>
        <time>2013-05-12T08:45:31Z</time>
      </trkpt>
      <trkpt lat="40.7894490" lon="0.1723730">
        <ele>808.1</ele>
        <time>2013-05-12T08:45:35Z</time>
      </trkpt>
      <trkpt lat="40.7892890" lon="0.1723460">
        <ele>809.6</ele>
        <time>2013-05-12T08:45:40Z</time>
      </trkpt>
      <trkpt lat="40.7891110" lon="0.1723270">
        <ele>809.6</ele>
        <time>2013-05-12T08:45:43Z</time>
      </trkpt>
      <trkpt lat="40.7888560" lon="0.1721410">
        <ele>807.7</ele>
        <time>2013-05-12T08:45:47Z</time>
      </trkpt>
      <trkpt lat="40.7887960" lon="0.1720760">
        <ele>807.2</ele>
        <time>2013-05-12T08:45:48Z</time>
      </trkpt>
      <trkpt lat="40.7886260" lon="0.1718760">
        <ele>806.3</ele>
        <time>2013-05-12T08:45:51Z</time>
      </trkpt>
      <trkpt lat="40.7883920" lon="0.1717040">
        <ele>805.7</ele>
        <time>2013-05-12T08:45:55Z</time>
      </trkpt>
      <trkpt lat="40.7882450" lon="0.1715770">
        <ele>805.8</ele>
        <time>2013-05-12T08:45:58Z</time>
      </trkpt>
      <trkpt lat="40.7880500" lon="0.1715820">
        <ele>805.3</ele>
        <time>2013-05-12T08:46:02Z</time>
      </trkpt>
      <trkpt lat="40.7879980" lon="0.1716270">
        <ele>804.4</ele>
        <time>2013-05-12T08:46:03Z</time>
      </trkpt>
      <trkpt lat="40.7877230" lon="0.1717550">
        <ele>799.9</ele>
        <time>2013-05-12T08:46:08Z</time>
      </trkpt>
      <trkpt lat="40.7872850" lon="0.1717280">
        <ele>792.3</ele>
        <time>2013-05-12T08:46:15Z</time>
      </trkpt>
      <trkpt lat="40.7869610" lon="0.1716490">
        <ele>789.2</ele>
        <time>2013-05-12T08:46:19Z</time>
      </trkpt>
      <trkpt lat="40.7867970" lon="0.1716350">
        <ele>788.4</ele>
        <time>2013-05-12T08:46:21Z</time>
      </trkpt>
      <trkpt lat="40.7866530" lon="0.1716700">
        <ele>788.4</ele>
        <time>2013-05-12T08:46:23Z</time>
      </trkpt>
      <trkpt lat="40.7865980" lon="0.1717160">
        <ele>788.8</ele>
        <time>2013-05-12T08:46:24Z</time>
      </trkpt>
      <trkpt lat="40.7863030" lon="0.1718820">
        <ele>789.0</ele>
        <time>2013-05-12T08:46:29Z</time>
      </trkpt>
      <trkpt lat="40.7861060" lon="0.1718990">
        <ele>788.9</ele>
        <time>2013-05-12T08:46:33Z</time>
      </trkpt>
      <trkpt lat="40.7858760" lon="0.1718450">
        <ele>790.2</ele>
        <time>2013-05-12T08:46:39Z</time>
      </trkpt>
      <trkpt lat="40.7858310" lon="0.1718810">
        <ele>790.9</ele>
        <time>2013-05-12T08:46:41Z</time>
      </trkpt>
      <trkpt lat="40.7858500" lon="0.1720160">
        <ele>792.4</ele>
        <time>2013-05-12T08:46:45Z</time>
      </trkpt>
      <trkpt lat="40.7859050" lon="0.1720610">
        <ele>793.3</ele>
        <time>2013-05-12T08:46:47Z</time>
      </trkpt>
      <trkpt lat="40.7860200" lon="0.1721410">
        <ele>794.2</ele>
        <time>2013-05-12T08:46:51Z</time>
      </trkpt>
      <trkpt lat="40.7860700" lon="0.1722150">
        <ele>794.5</ele>
        <time>2013-05-12T08:46:53Z</time>
      </trkpt>
      <trkpt lat="40.7861790" lon="0.1724890">
        <ele>795.3</ele>
        <time>2013-05-12T08:46:59Z</time>
      </trkpt>
      <trkpt lat="40.7861900" lon="0.1725500">
        <ele>795.1</ele>
        <time>2013-05-12T08:47:00Z</time>
      </trkpt>
      <trkpt lat="40.7861140" lon="0.1728840">
        <ele>794.0</ele>
        <time>2013-05-12T08:47:05Z</time>
      </trkpt>
      <trkpt lat="40.7860300" lon="0.1729680">
        <ele>793.9</ele>
        <time>2013-05-12T08:47:07Z</time>
      </trkpt>
      <trkpt lat="40.7858890" lon="0.1730700">
        <ele>794.3</ele>
        <time>2013-05-12T08:47:10Z</time>
      </trkpt>
      <trkpt lat="40.7856870" lon="0.1731630">
        <ele>794.5</ele>
        <time>2013-05-12T08:47:14Z</time>
      </trkpt>
      <trkpt lat="40.7854280" lon="0.1733200">
        <ele>793.9</ele>
        <time>2013-05-12T08:47:20Z</time>
      </trkpt>
      <trkpt lat="40.7851740" lon="0.1733440">
        <ele>793.5</ele>
        <time>2013-05-12T08:47:26Z</time>
      </trkpt>
      <trkpt lat="40.7850230" lon="0.1732490">
        <ele>793.8</ele>
        <time>2013-05-12T08:47:30Z</time>
      </trkpt>
      <trkpt lat="40.7847340" lon="0.1731560">
        <ele>794.4</ele>
        <time>2013-05-12T08:47:37Z</time>
      </trkpt>
      <trkpt lat="40.7845950" lon="0.1732770">
        <ele>794.8</ele>
        <time>2013-05-12T08:47:41Z</time>
      </trkpt>
      <trkpt lat="40.7845680" lon="0.1733200">
        <ele>795.2</ele>
        <time>2013-05-12T08:47:42Z</time>
      </trkpt>
      <trkpt lat="40.7843360" lon="0.1737900">
        <ele>796.2</ele>
        <time>2013-05-12T08:47:52Z</time>
      </trkpt>
      <trkpt lat="40.7842460" lon="0.1738920">
        <ele>796.6</ele>
        <time>2013-05-12T08:47:55Z</time>
      </trkpt>
      <trkpt lat="40.7839280" lon="0.1741450">
        <ele>797.1</ele>
        <time>2013-05-12T08:48:03Z</time>
      </trkpt>
      <trkpt lat="40.7838870" lon="0.1741720">
        <ele>797.2</ele>
        <time>2013-05-12T08:48:04Z</time>
      </trkpt>
      <trkpt lat="40.7837200" lon="0.1742600">
        <ele>797.6</ele>
        <time>2013-05-12T08:48:08Z</time>
      </trkpt>
      <trkpt lat="40.7834710" lon="0.1742710">
        <ele>798.4</ele>
        <time>2013-05-12T08:48:14Z</time>
      </trkpt>
      <trkpt lat="40.7833850" lon="0.1742670">
        <ele>798.2</ele>
        <time>2013-05-12T08:48:16Z</time>
      </trkpt>
      <trkpt lat="40.7830830" lon="0.1742750">
        <ele>798.9</ele>
        <time>2013-05-12T08:48:24Z</time>
      </trkpt>
      <trkpt lat="40.7828230" lon="0.1743450">
        <ele>799.0</ele>
        <time>2013-05-12T08:48:31Z</time>
      </trkpt>
      <trkpt lat="40.7826770" lon="0.1744100">
        <ele>799.1</ele>
        <time>2013-05-12T08:48:36Z</time>
      </trkpt>
      <trkpt lat="40.7825860" lon="0.1743750">
        <ele>798.7</ele>
        <time>2013-05-12T08:48:41Z</time>
      </trkpt>
      <trkpt lat="40.7825130" lon="0.1743500">
        <ele>798.8</ele>
        <time>2013-05-12T08:48:44Z</time>
      </trkpt>
      <trkpt lat="40.7822950" lon="0.1742620">
        <ele>799.6</ele>
        <time>2013-05-12T08:48:51Z</time>
      </trkpt>
      <trkpt lat="40.7821010" lon="0.1742480">
        <ele>800.6</ele>
        <time>2013-05-12T08:48:57Z</time>
      </trkpt>
      <trkpt lat="40.7819100" lon="0.1741350">
        <ele>802.0</ele>
        <time>2013-05-12T08:49:03Z</time>
      </trkpt>
      <trkpt lat="40.7816110" lon="0.1739770">
        <ele>803.1</ele>
        <time>2013-05-12T08:49:12Z</time>
      </trkpt>
      <trkpt lat="40.7812970" lon="0.1738220">
        <ele>803.8</ele>
        <time>2013-05-12T08:49:21Z</time>
      </trkpt>
      <trkpt lat="40.7809420" lon="0.1736100">
        <ele>805.9</ele>
        <time>2013-05-12T08:49:31Z</time>
      </trkpt>
      <trkpt lat="40.7808400" lon="0.1735300">
        <ele>806.4</ele>
        <time>2013-05-12T08:49:34Z</time>
      </trkpt>
      <trkpt lat="40.7806900" lon="0.1734780">
        <ele>807.1</ele>
        <time>2013-05-12T08:49:38Z</time>
      </trkpt>
      <trkpt lat="40.7805050" lon="0.1734860">
        <ele>807.4</ele>
        <time>2013-05-12T08:49:43Z</time>
      </trkpt>
      <trkpt lat="40.7803720" lon="0.1734870">
        <ele>807.7</ele>
        <time>2013-05-12T08:49:47Z</time>
      </trkpt>
      <trkpt lat="40.7801580" lon="0.1734280">
        <ele>809.8</ele>
        <time>2013-05-12T08:49:54Z</time>
      </trkpt>
      <trkpt lat="40.7799980" lon="0.1733250">
        <ele>811.9</ele>
        <time>2013-05-12T08:50:00Z</time>
      </trkpt>
      <trkpt lat="40.7798750" lon="0.1731640">
        <ele>813.6</ele>
        <time>2013-05-12T08:50:06Z</time>
      </trkpt>
      <trkpt lat="40.7797400" lon="0.1730250">
        <ele>815.4</ele>
        <time>2013-05-12T08:50:12Z</time>
      </trkpt>
      <trkpt lat="40.7795620" lon="0.1728520">
        <ele>817.4</ele>
        <time>2013-05-12T08:50:20Z</time>
      </trkpt>
      <trkpt lat="40.7793890" lon="0.1727070">
        <ele>818.3</ele>
        <time>2013-05-12T08:50:27Z</time>
      </trkpt>
      <trkpt lat="40.7792100" lon="0.1725970">
        <ele>818.9</ele>
        <time>2013-05-12T08:50:34Z</time>
      </trkpt>
      <trkpt lat="40.7789820" lon="0.1725150">
        <ele>821.2</ele>
        <time>2013-05-12T08:50:43Z</time>
      </trkpt>
      <trkpt lat="40.7787960" lon="0.1724380">
        <ele>823.0</ele>
        <time>2013-05-12T08:50:50Z</time>
      </trkpt>
      <trkpt lat="40.7785970" lon="0.1723310">
        <ele>824.1</ele>
        <time>2013-05-12T08:50:57Z</time>
      </trkpt>
      <trkpt lat="40.7783670" lon="0.1721940">
        <ele>824.3</ele>
        <time>2013-05-12T08:51:04Z</time>
      </trkpt>
      <trkpt lat="40.7781960" lon="0.1721020">
        <ele>824.7</ele>
        <time>2013-05-12T08:51:09Z</time>
      </trkpt>
      <trkpt lat="40.7780370" lon="0.1720500">
        <ele>825.5</ele>
        <time>2013-05-12T08:51:14Z</time>
      </trkpt>
      <trkpt lat="40.7779190" lon="0.1720660">
        <ele>826.1</ele>
        <time>2013-05-12T08:51:18Z</time>
      </trkpt>
      <trkpt lat="40.7778190" lon="0.1722680">
        <ele>828.5</ele>
        <time>2013-05-12T08:51:24Z</time>
      </trkpt>
      <trkpt lat="40.7778080" lon="0.1723110">
        <ele>828.6</ele>
        <time>2013-05-12T08:51:25Z</time>
      </trkpt>
      <trkpt lat="40.7777430" lon="0.1725620">
        <ele>827.3</ele>
        <time>2013-05-12T08:51:31Z</time>
      </trkpt>
      <trkpt lat="40.7775940" lon="0.1727360">
        <ele>827.8</ele>
        <time>2013-05-12T08:51:36Z</time>
      </trkpt>
      <trkpt lat="40.7774660" lon="0.1728190">
        <ele>829.5</ele>
        <time>2013-05-12T08:51:41Z</time>
      </trkpt>
      <trkpt lat="40.7773090" lon="0.1727990">
        <ele>831.1</ele>
        <time>2013-05-12T08:51:46Z</time>
      </trkpt>
      <trkpt lat="40.7770850" lon="0.1727310">
        <ele>832.2</ele>
        <time>2013-05-12T08:51:53Z</time>
      </trkpt>
      <trkpt lat="40.7768750" lon="0.1727040">
        <ele>832.9</ele>
        <time>2013-05-12T08:51:59Z</time>
      </trkpt>
      <trkpt lat="40.7766860" lon="0.1727950">
        <ele>833.4</ele>
        <time>2013-05-12T08:52:04Z</time>
      </trkpt>
      <trkpt lat="40.7765370" lon="0.1729920">
        <ele>833.8</ele>
        <time>2013-05-12T08:52:09Z</time>
      </trkpt>
      <trkpt lat="40.7763900" lon="0.1732680">
        <ele>834.2</ele>
        <time>2013-05-12T08:52:15Z</time>
      </trkpt>
      <trkpt lat="40.7763070" lon="0.1735470">
        <ele>835.2</ele>
        <time>2013-05-12T08:52:21Z</time>
      </trkpt>
      <trkpt lat="40.7762870" lon="0.1737610">
        <ele>835.7</ele>
        <time>2013-05-12T08:52:25Z</time>
      </trkpt>
      <trkpt lat="40.7762860" lon="0.1740850">
        <ele>836.7</ele>
        <time>2013-05-12T08:52:31Z</time>
      </trkpt>
      <trkpt lat="40.7762640" lon="0.1743670">
        <ele>838.0</ele>
        <time>2013-05-12T08:52:37Z</time>
      </trkpt>
      <trkpt lat="40.7761810" lon="0.1745450">
        <ele>839.5</ele>
        <time>2013-05-12T08:52:42Z</time>
      </trkpt>
      <trkpt lat="40.7761160" lon="0.1746970">
        <ele>841.3</ele>
        <time>2013-05-12T08:52:47Z</time>
      </trkpt>
      <trkpt lat="40.7760860" lon="0.1748440">
        <ele>843.3</ele>
        <time>2013-05-12T08:52:52Z</time>
      </trkpt>
      <trkpt lat="40.7760580" lon="0.1749440">
        <ele>844.5</ele>
        <time>2013-05-12T08:52:55Z</time>
      </trkpt>
      <trkpt lat="40.7759700" lon="0.1750900">
        <ele>845.9</ele>
        <time>2013-05-12T08:53:00Z</time>
      </trkpt>
      <trkpt lat="40.7759170" lon="0.1751870">
        <ele>846.0</ele>
        <time>2013-05-12T08:53:03Z</time>
      </trkpt>
      <trkpt lat="40.7759540" lon="0.1754050">
        <ele>845.9</ele>
        <time>2013-05-12T08:53:07Z</time>
      </trkpt>
      <trkpt lat="40.7760470" lon="0.1754600">
        <ele>846.5</ele>
        <time>2013-05-12T08:53:11Z</time>
      </trkpt>
      <trkpt lat="40.7761720" lon="0.1754510">
        <ele>848.2</ele>
        <time>2013-05-12T08:53:16Z</time>
      </trkpt>
      <trkpt lat="40.7763690" lon="0.1753430">
        <ele>850.4</ele>
        <time>2013-05-12T08:53:24Z</time>
      </trkpt>
      <trkpt lat="40.7765350" lon="0.1753570">
        <ele>852.7</ele>
        <time>2013-05-12T08:53:31Z</time>
      </trkpt>
      <trkpt lat="40.7766650" lon="0.1754260">
        <ele>854.5</ele>
        <time>2013-05-12T08:53:37Z</time>
      </trkpt>
      <trkpt lat="40.7767710" lon="0.1755130">
        <ele>856.4</ele>
        <time>2013-05-12T08:53:42Z</time>
      </trkpt>
      <trkpt lat="40.7768080" lon="0.1755880">
        <ele>857.6</ele>
        <time>2013-05-12T08:53:45Z</time>
      </trkpt>
      <trkpt lat="40.7767660" lon="0.1757000">
        <ele>859.2</ele>
        <time>2013-05-12T08:53:50Z</time>
      </trkpt>
      <trkpt lat="40.7766740" lon="0.1757180">
        <ele>860.1</ele>
        <time>2013-05-12T08:53:54Z</time>
      </trkpt>
      <trkpt lat="40.7764910" lon="0.1756440">
        <ele>862.4</ele>
        <time>2013-05-12T08:54:02Z</time>
      </trkpt>
      <trkpt lat="40.7763780" lon="0.1756950">
        <ele>863.9</ele>
        <time>2013-05-12T08:54:06Z</time>
      </trkpt>
      <trkpt lat="40.7762860" lon="0.1758110">
        <ele>865.9</ele>
        <time>2013-05-12T08:54:13Z</time>
      </trkpt>
      <trkpt lat="40.7761730" lon="0.1759710">
        <ele>867.9</ele>
        <time>2013-05-12T08:54:22Z</time>
      </trkpt>
      <trkpt lat="40.7760940" lon="0.1761120">
        <ele>869.6</ele>
        <time>2013-05-12T08:54:28Z</time>
      </trkpt>
      <trkpt lat="40.7760200" lon="0.1763270">
        <ele>871.9</ele>
        <time>2013-05-12T08:54:35Z</time>
      </trkpt>
      <trkpt lat="40.7759570" lon="0.1764160">
        <ele>873.3</ele>
        <time>2013-05-12T08:54:39Z</time>
      </trkpt>
      <trkpt lat="40.7758620" lon="0.1763720">
        <ele>874.4</ele>
        <time>2013-05-12T08:54:44Z</time>
      </trkpt>
      <trkpt lat="40.7757600" lon="0.1762020">
        <ele>876.4</ele>
        <time>2013-05-12T08:54:52Z</time>
      </trkpt>
      <trkpt lat="40.7756570" lon="0.1760890">
        <ele>878.3</ele>
        <time>2013-05-12T08:54:58Z</time>
      </trkpt>
      <trkpt lat="40.7755080" lon="0.1759950">
        <ele>880.5</ele>
        <time>2013-05-12T08:55:05Z</time>
      </trkpt>
      <trkpt lat="40.7753580" lon="0.1759380">
        <ele>882.3</ele>
        <time>2013-05-12T08:55:11Z</time>
      </trkpt>
      <trkpt lat="40.7752060" lon="0.1759710">
        <ele>882.6</ele>
        <time>2013-05-12T08:55:16Z</time>
      </trkpt>
      <trkpt lat="40.7751740" lon="0.1760000">
        <ele>882.5</ele>
        <time>2013-05-12T08:55:17Z</time>
      </trkpt>
      <trkpt lat="40.7750880" lon="0.1762140">
        <ele>881.8</ele>
        <time>2013-05-12T08:55:21Z</time>
      </trkpt>
      <trkpt lat="40.7750870" lon="0.1762910">
        <ele>881.8</ele>
        <time>2013-05-12T08:55:22Z</time>
      </trkpt>
      <trkpt lat="40.7749670" lon="0.1766100">
        <ele>880.1</ele>
        <time>2013-05-12T08:55:27Z</time>
      </trkpt>
      <trkpt lat="40.7747310" lon="0.1766350">
        <ele>877.9</ele>
        <time>2013-05-12T08:55:31Z</time>
      </trkpt>
      <trkpt lat="40.7746180" lon="0.1765660">
        <ele>877.1</ele>
        <time>2013-05-12T08:55:33Z</time>
      </trkpt>
      <trkpt lat="40.7745680" lon="0.1765170">
        <ele>876.8</ele>
        <time>2013-05-12T08:55:34Z</time>
      </trkpt>
      <trkpt lat="40.7743740" lon="0.1763540">
        <ele>876.8</ele>
        <time>2013-05-12T08:55:38Z</time>
      </trkpt>
      <trkpt lat="40.7743180" lon="0.1763390">
        <ele>876.7</ele>
        <time>2013-05-12T08:55:39Z</time>
      </trkpt>
      <trkpt lat="40.7742590" lon="0.1763220">
        <ele>876.5</ele>
        <time>2013-05-12T08:55:40Z</time>
      </trkpt>
      <trkpt lat="40.7740900" lon="0.1762660">
        <ele>875.5</ele>
        <time>2013-05-12T08:55:43Z</time>
      </trkpt>
      <trkpt lat="40.7739040" lon="0.1761210">
        <ele>875.8</ele>
        <time>2013-05-12T08:55:47Z</time>
      </trkpt>
      <trkpt lat="40.7736060" lon="0.1757170">
        <ele>877.2</ele>
        <time>2013-05-12T08:55:55Z</time>
      </trkpt>
      <trkpt lat="40.7733050" lon="0.1753460">
        <ele>878.2</ele>
        <time>2013-05-12T08:56:03Z</time>
      </trkpt>
      <trkpt lat="40.7730860" lon="0.1751820">
        <ele>878.8</ele>
        <time>2013-05-12T08:56:08Z</time>
      </trkpt>
      <trkpt lat="40.7728900" lon="0.1749530">
        <ele>878.7</ele>
        <time>2013-05-12T08:56:13Z</time>
      </trkpt>
      <trkpt lat="40.7726860" lon="0.1747980">
        <ele>879.5</ele>
        <time>2013-05-12T08:56:18Z</time>
      </trkpt>
      <trkpt lat="40.7725900" lon="0.1747810">
        <ele>879.9</ele>
        <time>2013-05-12T08:56:20Z</time>
      </trkpt>
      <trkpt lat="40.7722010" lon="0.1747640">
        <ele>880.8</ele>
        <time>2013-05-12T08:56:28Z</time>
      </trkpt>
      <trkpt lat="40.7720470" lon="0.1747350">
        <ele>881.1</ele>
        <time>2013-05-12T08:56:31Z</time>
      </trkpt>
      <trkpt lat="40.7718590" lon="0.1745910">
        <ele>880.6</ele>
        <time>2013-05-12T08:56:35Z</time>
      </trkpt>
      <trkpt lat="40.7717990" lon="0.1744780">
        <ele>880.8</ele>
        <time>2013-05-12T08:56:37Z</time>
      </trkpt>
      <trkpt lat="40.7716710" lon="0.1742050">
        <ele>882.5</ele>
        <time>2013-05-12T08:56:43Z</time>
      </trkpt>
      <trkpt lat="40.7715320" lon="0.1739820">
        <ele>884.4</ele>
        <time>2013-05-12T08:56:49Z</time>
      </trkpt>
      <trkpt lat="40.7713570" lon="0.1738260">
        <ele>886.0</ele>
        <time>2013-05-12T08:56:55Z</time>
      </trkpt>
      <trkpt lat="40.7711940" lon="0.1737530">
        <ele>887.8</ele>
        <time>2013-05-12T08:57:01Z</time>
      </trkpt>
      <trkpt lat="40.7710550" lon="0.1737120">
        <ele>889.2</ele>
        <time>2013-05-12T08:57:06Z</time>
      </trkpt>
      <trkpt lat="40.7709400" lon="0.1737020">
        <ele>890.7</ele>
        <time>2013-05-12T08:57:10Z</time>
      </trkpt>
      <trkpt lat="40.7708200" lon="0.1736990">
        <ele>892.1</ele>
        <time>2013-05-12T08:57:14Z</time>
      </trkpt>
      <trkpt lat="40.7707030" lon="0.1737180">
        <ele>893.4</ele>
        <time>2013-05-12T08:57:18Z</time>
      </trkpt>
      <trkpt lat="40.7705870" lon="0.1737470">
        <ele>895.4</ele>
        <time>2013-05-12T08:57:23Z</time>
      </trkpt>
      <trkpt lat="40.7704630" lon="0.1738020">
        <ele>897.7</ele>
        <time>2013-05-12T08:57:29Z</time>
      </trkpt>
      <trkpt lat="40.7703210" lon="0.1738520">
        <ele>899.4</ele>
        <time>2013-05-12T08:57:35Z</time>
      </trkpt>
      <trkpt lat="40.7702550" lon="0.1738590">
        <ele>900.7</ele>
        <time>2013-05-12T08:57:38Z</time>
      </trkpt>
      <trkpt lat="40.7700870" lon="0.1738110">
        <ele>903.2</ele>
        <time>2013-05-12T08:57:46Z</time>
      </trkpt>
      <trkpt lat="40.7699400" lon="0.1736740">
        <ele>905.1</ele>
        <time>2013-05-12T08:57:54Z</time>
      </trkpt>
      <trkpt lat="40.7698370" lon="0.1735920">
        <ele>906.4</ele>
        <time>2013-05-12T08:58:00Z</time>
      </trkpt>
      <trkpt lat="40.7696880" lon="0.1734650">
        <ele>908.5</ele>
        <time>2013-05-12T08:58:08Z</time>
      </trkpt>
      <trkpt lat="40.7695790" lon="0.1733350">
        <ele>909.7</ele>
        <time>2013-05-12T08:58:15Z</time>
      </trkpt>
      <trkpt lat="40.7694820" lon="0.1732170">
        <ele>911.6</ele>
        <time>2013-05-12T08:58:22Z</time>
      </trkpt>
      <trkpt lat="40.7693910" lon="0.1731030">
        <ele>913.6</ele>
        <time>2013-05-12T08:58:29Z</time>
      </trkpt>
      <trkpt lat="40.7693130" lon="0.1730090">
        <ele>915.0</ele>
        <time>2013-05-12T08:58:35Z</time>
      </trkpt>
      <trkpt lat="40.7692260" lon="0.1728780">
        <ele>916.6</ele>
        <time>2013-05-12T08:58:42Z</time>
      </trkpt>
      <trkpt lat="40.7691260" lon="0.1727530">
        <ele>918.2</ele>
        <time>2013-05-12T08:58:49Z</time>
      </trkpt>
      <trkpt lat="40.7690890" lon="0.1727330">
        <ele>918.8</ele>
        <time>2013-05-12T08:58:51Z</time>
      </trkpt>
      <trkpt lat="40.7690480" lon="0.1727970">
        <ele>919.8</ele>
        <time>2013-05-12T08:58:55Z</time>
      </trkpt>
      <trkpt lat="40.7690920" lon="0.1729390">
        <ele>920.8</ele>
        <time>2013-05-12T08:59:01Z</time>
      </trkpt>
      <trkpt lat="40.7692060" lon="0.1731240">
        <ele>922.5</ele>
        <time>2013-05-12T08:59:09Z</time>
      </trkpt>
      <trkpt lat="40.7692860" lon="0.1732960">
        <ele>923.6</ele>
        <time>2013-05-12T08:59:16Z</time>
      </trkpt>
      <trkpt lat="40.7693380" lon="0.1734240">
        <ele>925.4</ele>
        <time>2013-05-12T08:59:22Z</time>
      </trkpt>
      <trkpt lat="40.7693990" lon="0.1735840">
        <ele>926.7</ele>
        <time>2013-05-12T08:59:28Z</time>
      </trkpt>
      <trkpt lat="40.7694790" lon="0.1737800">
        <ele>927.8</ele>
        <time>2013-05-12T08:59:35Z</time>
      </trkpt>
      <trkpt lat="40.7695610" lon="0.1739230">
        <ele>929.6</ele>
        <time>2013-05-12T08:59:41Z</time>
      </trkpt>
      <trkpt lat="40.7696210" lon="0.1740940">
        <ele>930.9</ele>
        <time>2013-05-12T08:59:47Z</time>
      </trkpt>
      <trkpt lat="40.7695160" lon="0.1741600">
        <ele>932.6</ele>
        <time>2013-05-12T08:59:52Z</time>
      </trkpt>
      <trkpt lat="40.7694950" lon="0.1741440">
        <ele>932.9</ele>
        <time>2013-05-12T08:59:53Z</time>
      </trkpt>
      <trkpt lat="40.7693690" lon="0.1739890">
        <ele>934.6</ele>
        <time>2013-05-12T09:00:00Z</time>
      </trkpt>
      <trkpt lat="40.7692190" lon="0.1737410">
        <ele>935.9</ele>
        <time>2013-05-12T09:00:10Z</time>
      </trkpt>
      <trkpt lat="40.7691160" lon="0.1735800">
        <ele>938.1</ele>
        <time>2013-05-12T09:00:17Z</time>
      </trkpt>
      <trkpt lat="40.7690120" lon="0.1734080">
        <ele>940.4</ele>
        <time>2013-05-12T09:00:25Z</time>
      </trkpt>
      <trkpt lat="40.7689240" lon="0.1732600">
        <ele>942.2</ele>
        <time>2013-05-12T09:00:31Z</time>
      </trkpt>
      <trkpt lat="40.7688020" lon="0.1731910">
        <ele>944.1</ele>
        <time>2013-05-12T09:00:38Z</time>
      </trkpt>
      <trkpt lat="40.7687460" lon="0.1731790">
        <ele>945.4</ele>
        <time>2013-05-12T09:00:41Z</time>
      </trkpt>
      <trkpt lat="40.7685860" lon="0.1731490">
        <ele>946.8</ele>
        <time>2013-05-12T09:00:49Z</time>
      </trkpt>
      <trkpt lat="40.7684360" lon="0.1730840">
        <ele>948.3</ele>
        <time>2013-05-12T09:00:56Z</time>
      </trkpt>
      <trkpt lat="40.7683890" lon="0.1729590">
        <ele>950.7</ele>
        <time>2013-05-12T09:01:00Z</time>
      </trkpt>
      <trkpt lat="40.7683890" lon="0.1729280">
        <ele>951.0</ele>
        <time>2013-05-12T09:01:01Z</time>
      </trkpt>
      <trkpt lat="40.7684140" lon="0.1727520">
        <ele>952.3</ele>
        <time>2013-05-12T09:01:07Z</time>
      </trkpt>
      <trkpt lat="40.7684250" lon="0.1725260">
        <ele>954.5</ele>
        <time>2013-05-12T09:01:15Z</time>
      </trkpt>
      <trkpt lat="40.7683950" lon="0.1722960">
        <ele>957.0</ele>
        <time>2013-05-12T09:01:23Z</time>
      </trkpt>
      <trkpt lat="40.7682940" lon="0.1721010">
        <ele>959.0</ele>
        <time>2013-05-12T09:01:31Z</time>
      </trkpt>
      <trkpt lat="40.7681780" lon="0.1719770">
        <ele>961.2</ele>
        <time>2013-05-12T09:01:38Z</time>
      </trkpt>
      <trkpt lat="40.7680990" lon="0.1718920">
        <ele>962.9</ele>
        <time>2013-05-12T09:01:43Z</time>
      </trkpt>
      <trkpt lat="40.7675480" lon="0.1717040">
        <ele>964.6</ele>
        <time>2013-05-12T09:02:15Z</time>
      </trkpt>
      <trkpt lat="40.7675290" lon="0.1716950">
        <ele>966.1</ele>
        <time>2013-05-12T09:02:16Z</time>
      </trkpt>
      <trkpt lat="40.7674190" lon="0.1716470">
        <ele>970.8</ele>
        <time>2013-05-12T09:02:21Z</time>
      </trkpt>
      <trkpt lat="40.7672750" lon="0.1715280">
        <ele>970.8</ele>
        <time>2013-05-12T09:02:30Z</time>
      </trkpt>
      <trkpt lat="40.7671710" lon="0.1714330">
        <ele>973.2</ele>
        <time>2013-05-12T09:02:36Z</time>
      </trkpt>
      <trkpt lat="40.7671420" lon="0.1713970">
        <ele>973.9</ele>
        <time>2013-05-12T09:02:38Z</time>
      </trkpt>
      <trkpt lat="40.7670440" lon="0.1713150">
        <ele>976.3</ele>
        <time>2013-05-12T09:02:43Z</time>
      </trkpt>
      <trkpt lat="40.7669050" lon="0.1712690">
        <ele>978.7</ele>
        <time>2013-05-12T09:02:50Z</time>
      </trkpt>
      <trkpt lat="40.7668400" lon="0.1712670">
        <ele>979.3</ele>
        <time>2013-05-12T09:02:54Z</time>
      </trkpt>
      <trkpt lat="40.7667110" lon="0.1712750">
        <ele>979.3</ele>
        <time>2013-05-12T09:03:02Z</time>
      </trkpt>
      <trkpt lat="40.7665600" lon="0.1712780">
        <ele>982.3</ele>
        <time>2013-05-12T09:03:10Z</time>
      </trkpt>
      <trkpt lat="40.7664150" lon="0.1712660">
        <ele>983.9</ele>
        <time>2013-05-12T09:03:17Z</time>
      </trkpt>
      <trkpt lat="40.7662430" lon="0.1712440">
        <ele>985.5</ele>
        <time>2013-05-12T09:03:25Z</time>
      </trkpt>
      <trkpt lat="40.7660950" lon="0.1712460">
        <ele>987.1</ele>
        <time>2013-05-12T09:03:32Z</time>
      </trkpt>
      <trkpt lat="40.7659370" lon="0.1712680">
        <ele>989.1</ele>
        <time>2013-05-12T09:03:39Z</time>
      </trkpt>
      <trkpt lat="40.7657660" lon="0.1713210">
        <ele>989.9</ele>
        <time>2013-05-12T09:03:46Z</time>
      </trkpt>
      <trkpt lat="40.7655740" lon="0.1713260">
        <ele>990.7</ele>
        <time>2013-05-12T09:03:53Z</time>
      </trkpt>
      <trkpt lat="40.7654060" lon="0.1713230">
        <ele>991.1</ele>
        <time>2013-05-12T09:03:59Z</time>
      </trkpt>
      <trkpt lat="40.7652550" lon="0.1713850">
        <ele>992.0</ele>
        <time>2013-05-12T09:04:05Z</time>
      </trkpt>
      <trkpt lat="40.7650930" lon="0.1714750">
        <ele>992.6</ele>
        <time>2013-05-12T09:04:12Z</time>
      </trkpt>
      <trkpt lat="40.7649190" lon="0.1715810">
        <ele>992.7</ele>
        <time>2013-05-12T09:04:19Z</time>
      </trkpt>
      <trkpt lat="40.7647750" lon="0.1716550">
        <ele>996.4</ele>
        <time>2013-05-12T09:04:24Z</time>
      </trkpt>
      <trkpt lat="40.7647460" lon="0.1716670">
        <ele>996.6</ele>
        <time>2013-05-12T09:04:25Z</time>
      </trkpt>
      <trkpt lat="40.7646090" lon="0.1717440">
        <ele>997.3</ele>
        <time>2013-05-12T09:04:30Z</time>
      </trkpt>
      <trkpt lat="40.7643970" lon="0.1719020">
        <ele>998.6</ele>
        <time>2013-05-12T09:04:38Z</time>
      </trkpt>
      <trkpt lat="40.7642040" lon="0.1720790">
        <ele>999.9</ele>
        <time>2013-05-12T09:04:46Z</time>
      </trkpt>
      <trkpt lat="40.7640490" lon="0.1722040">
        <ele>1001.2</ele>
        <time>2013-05-12T09:04:53Z</time>
      </trkpt>
      <trkpt lat="40.7639110" lon="0.1722840">
        <ele>1002.6</ele>
        <time>2013-05-12T09:04:59Z</time>
      </trkpt>
      <trkpt lat="40.7637490" lon="0.1723710">
        <ele>1003.6</ele>
        <time>2013-05-12T09:05:07Z</time>
      </trkpt>
      <trkpt lat="40.7635980" lon="0.1724510">
        <ele>1005.1</ele>
        <time>2013-05-12T09:05:15Z</time>
      </trkpt>
      <trkpt lat="40.7634520" lon="0.1725170">
        <ele>1008.3</ele>
        <time>2013-05-12T09:05:21Z</time>
      </trkpt>
      <trkpt lat="40.7632580" lon="0.1725650">
        <ele>1010.3</ele>
        <time>2013-05-12T09:05:29Z</time>
      </trkpt>
      <trkpt lat="40.7630870" lon="0.1725940">
        <ele>1011.8</ele>
        <time>2013-05-12T09:05:36Z</time>
      </trkpt>
      <trkpt lat="40.7629110" lon="0.1726180">
        <ele>1012.9</ele>
        <time>2013-05-12T09:05:43Z</time>
      </trkpt>
      <trkpt lat="40.7627430" lon="0.1726630">
        <ele>1014.4</ele>
        <time>2013-05-12T09:05:50Z</time>
      </trkpt>
      <trkpt lat="40.7625860" lon="0.1727100">
        <ele>1015.9</ele>
        <time>2013-05-12T09:05:57Z</time>
      </trkpt>
      <trkpt lat="40.7624730" lon="0.1727490">
        <ele>1017.1</ele>
        <time>2013-05-12T09:06:02Z</time>
      </trkpt>
      <trkpt lat="40.7623020" lon="0.1728650">
        <ele>1018.3</ele>
        <time>2013-05-12T09:06:09Z</time>
      </trkpt>
      <trkpt lat="40.7622050" lon="0.1730030">
        <ele>1019.8</ele>
        <time>2013-05-12T09:06:15Z</time>
      </trkpt>
      <trkpt lat="40.7621150" lon="0.1731320">
        <ele>1021.2</ele>
        <time>2013-05-12T09:06:21Z</time>
      </trkpt>
      <trkpt lat="40.7619790" lon="0.1732390">
        <ele>1022.7</ele>
        <time>2013-05-12T09:06:28Z</time>
      </trkpt>
      <trkpt lat="40.7617930" lon="0.1733280">
        <ele>1024.8</ele>
        <time>2013-05-12T09:06:36Z</time>
      </trkpt>
      <trkpt lat="40.7616310" lon="0.1733890">
        <ele>1026.2</ele>
        <time>2013-05-12T09:06:43Z</time>
      </trkpt>
      <trkpt lat="40.7614290" lon="0.1734630">
        <ele>1028.7</ele>
        <time>2013-05-12T09:06:52Z</time>
      </trkpt>
      <trkpt lat="40.7612870" lon="0.1734970">
        <ele>1029.8</ele>
        <time>2013-05-12T09:06:58Z</time>
      </trkpt>
      <trkpt lat="40.7610820" lon="0.1735410">
        <ele>1031.9</ele>
        <time>2013-05-12T09:07:07Z</time>
      </trkpt>
      <trkpt lat="40.7609400" lon="0.1735560">
        <ele>1033.3</ele>
        <time>2013-05-12T09:07:13Z</time>
      </trkpt>
      <trkpt lat="40.7607720" lon="0.1735410">
        <ele>1035.3</ele>
        <time>2013-05-12T09:07:20Z</time>
      </trkpt>
      <trkpt lat="40.7605950" lon="0.1734870">
        <ele>1037.1</ele>
        <time>2013-05-12T09:07:28Z</time>
      </trkpt>
      <trkpt lat="40.7604710" lon="0.1734220">
        <ele>1038.6</ele>
        <time>2013-05-12T09:07:34Z</time>
      </trkpt>
      <trkpt lat="40.7603330" lon="0.1733170">
        <ele>1040.7</ele>
        <time>2013-05-12T09:07:41Z</time>
      </trkpt>
      <trkpt lat="40.7602100" lon="0.1732170">
        <ele>1042.3</ele>
        <time>2013-05-12T09:07:47Z</time>
      </trkpt>
      <trkpt lat="40.7600850" lon="0.1731890">
        <ele>1043.8</ele>
        <time>2013-05-12T09:07:53Z</time>
      </trkpt>
      <trkpt lat="40.7599900" lon="0.1732640">
        <ele>1045.1</ele>
        <time>2013-05-12T09:07:59Z</time>
      </trkpt>
      <trkpt lat="40.7598630" lon="0.1733350">
        <ele>1046.8</ele>
        <time>2013-05-12T09:08:05Z</time>
      </trkpt>
      <trkpt lat="40.7597040" lon="0.1733030">
        <ele>1048.3</ele>
        <time>2013-05-12T09:08:12Z</time>
      </trkpt>
      <trkpt lat="40.7595860" lon="0.1731970">
        <ele>1049.8</ele>
        <time>2013-05-12T09:08:18Z</time>
      </trkpt>
      <trkpt lat="40.7594590" lon="0.1730570">
        <ele>1052.4</ele>
        <time>2013-05-12T09:08:25Z</time>
      </trkpt>
      <trkpt lat="40.7593080" lon="0.1729270">
        <ele>1054.5</ele>
        <time>2013-05-12T09:08:33Z</time>
      </trkpt>
      <trkpt lat="40.7591600" lon="0.1728340">
        <ele>1056.3</ele>
        <time>2013-05-12T09:08:40Z</time>
      </trkpt>
      <trkpt lat="40.7590250" lon="0.1728050">
        <ele>1057.4</ele>
        <time>2013-05-12T09:08:46Z</time>
      </trkpt>
      <trkpt lat="40.7588950" lon="0.1728450">
        <ele>1058.8</ele>
        <time>2013-05-12T09:08:52Z</time>
      </trkpt>
      <trkpt lat="40.7587150" lon="0.1728640">
        <ele>1060.7</ele>
        <time>2013-05-12T09:09:00Z</time>
      </trkpt>
      <trkpt lat="40.7585630" lon="0.1728470">
        <ele>1062.5</ele>
        <time>2013-05-12T09:09:07Z</time>
      </trkpt>
      <trkpt lat="40.7584040" lon="0.1728180">
        <ele>1064.2</ele>
        <time>2013-05-12T09:09:14Z</time>
      </trkpt>
      <trkpt lat="40.7582490" lon="0.1727370">
        <ele>1065.7</ele>
        <time>2013-05-12T09:09:21Z</time>
      </trkpt>
      <trkpt lat="40.7580710" lon="0.1725990">
        <ele>1068.1</ele>
        <time>2013-05-12T09:09:30Z</time>
      </trkpt>
      <trkpt lat="40.7579240" lon="0.1725060">
        <ele>1070.1</ele>
        <time>2013-05-12T09:09:37Z</time>
      </trkpt>
      <trkpt lat="40.7577710" lon="0.1724520">
        <ele>1072.4</ele>
        <time>2013-05-12T09:09:44Z</time>
      </trkpt>
      <trkpt lat="40.7576540" lon="0.1725010">
        <ele>1074.0</ele>
        <time>2013-05-12T09:09:50Z</time>
      </trkpt>
      <trkpt lat="40.7575380" lon="0.1725610">
        <ele>1076.1</ele>
        <time>2013-05-12T09:09:56Z</time>
      </trkpt>
      <trkpt lat="40.7573690" lon="0.1725430">
        <ele>1078.9</ele>
        <time>2013-05-12T09:10:04Z</time>
      </trkpt>
      <trkpt lat="40.7571820" lon="0.1724760">
        <ele>1081.1</ele>
        <time>2013-05-12T09:10:13Z</time>
      </trkpt>
      <trkpt lat="40.7570200" lon="0.1724100">
        <ele>1082.7</ele>
        <time>2013-05-12T09:10:21Z</time>
      </trkpt>
      <trkpt lat="40.7568720" lon="0.1723730">
        <ele>1084.9</ele>
        <time>2013-05-12T09:10:29Z</time>
      </trkpt>
      <trkpt lat="40.7567160" lon="0.1723500">
        <ele>1086.9</ele>
        <time>2013-05-12T09:10:38Z</time>
      </trkpt>
      <trkpt lat="40.7566000" lon="0.1723240">
        <ele>1089.2</ele>
        <time>2013-05-12T09:10:46Z</time>
      </trkpt>
      <trkpt lat="40.7564390" lon="0.1723180">
        <ele>1091.5</ele>
        <time>2013-05-12T09:10:56Z</time>
      </trkpt>
      <trkpt lat="40.7563180" lon="0.1723080">
        <ele>1092.9</ele>
        <time>2013-05-12T09:11:03Z</time>
      </trkpt>
      <trkpt lat="40.7561860" lon="0.1723020">
        <ele>1094.7</ele>
        <time>2013-05-12T09:11:10Z</time>
      </trkpt>
      <trkpt lat="40.7560290" lon="0.1723160">
        <ele>1096.4</ele>
        <time>2013-05-12T09:11:18Z</time>
      </trkpt>
      <trkpt lat="40.7558150" lon="0.1723560">
        <ele>1097.5</ele>
        <time>2013-05-12T09:11:27Z</time>
      </trkpt>
      <trkpt lat="40.7556550" lon="0.1724240">
        <ele>1098.6</ele>
        <time>2013-05-12T09:11:34Z</time>
      </trkpt>
      <trkpt lat="40.7554760" lon="0.1725400">
        <ele>1100.3</ele>
        <time>2013-05-12T09:11:43Z</time>
      </trkpt>
      <trkpt lat="40.7553420" lon="0.1726650">
        <ele>1101.7</ele>
        <time>2013-05-12T09:11:50Z</time>
      </trkpt>
      <trkpt lat="40.7552030" lon="0.1728030">
        <ele>1103.6</ele>
        <time>2013-05-12T09:11:58Z</time>
      </trkpt>
      <trkpt lat="40.7550420" lon="0.1729960">
        <ele>1106.7</ele>
        <time>2013-05-12T09:12:08Z</time>
      </trkpt>
      <trkpt lat="40.7549800" lon="0.1731040">
        <ele>1108.4</ele>
        <time>2013-05-12T09:12:13Z</time>
      </trkpt>
      <trkpt lat="40.7550220" lon="0.1731640">
        <ele>1109.4</ele>
        <time>2013-05-12T09:12:17Z</time>
      </trkpt>
      <trkpt lat="40.7551650" lon="0.1731460">
        <ele>1112.3</ele>
        <time>2013-05-12T09:12:25Z</time>
      </trkpt>
      <trkpt lat="40.7552530" lon="0.1731290">
        <ele>1113.4</ele>
        <time>2013-05-12T09:12:30Z</time>
      </trkpt>
      <trkpt lat="40.7553600" lon="0.1731830">
        <ele>1114.5</ele>
        <time>2013-05-12T09:12:36Z</time>
      </trkpt>
      <trkpt lat="40.7554710" lon="0.1733200">
        <ele>1116.0</ele>
        <time>2013-05-12T09:12:44Z</time>
      </trkpt>
      <trkpt lat="40.7555230" lon="0.1734630">
        <ele>1116.8</ele>
        <time>2013-05-12T09:12:50Z</time>
      </trkpt>
      <trkpt lat="40.7555600" lon="0.1737080">
        <ele>1118.2</ele>
        <time>2013-05-12T09:12:59Z</time>
      </trkpt>
      <trkpt lat="40.7555910" lon="0.1739090">
        <ele>1119.4</ele>
        <time>2013-05-12T09:13:07Z</time>
      </trkpt>
      <trkpt lat="40.7556360" lon="0.1741500">
        <ele>1121.0</ele>
        <time>2013-05-12T09:13:16Z</time>
      </trkpt>
      <trkpt lat="40.7556610" lon="0.1742890">
        <ele>1122.3</ele>
        <time>2013-05-12T09:13:22Z</time>
      </trkpt>
      <trkpt lat="40.7557030" lon="0.1744560">
        <ele>1124.2</ele>
        <time>2013-05-12T09:13:29Z</time>
      </trkpt>
      <trkpt lat="40.7557410" lon="0.1746110">
        <ele>1126.2</ele>
        <time>2013-05-12T09:13:35Z</time>
      </trkpt>
      <trkpt lat="40.7557670" lon="0.1747340">
        <ele>1127.5</ele>
        <time>2013-05-12T09:13:40Z</time>
      </trkpt>
      <trkpt lat="40.7557960" lon="0.1748390">
        <ele>1128.6</ele>
        <time>2013-05-12T09:13:44Z</time>
      </trkpt>
      <trkpt lat="40.7558300" lon="0.1749910">
        <ele>1129.6</ele>
        <time>2013-05-12T09:13:50Z</time>
      </trkpt>
      <trkpt lat="40.7558350" lon="0.1750140">
        <ele>1129.8</ele>
        <time>2013-05-12T09:13:51Z</time>
      </trkpt>
      <trkpt lat="40.7558350" lon="0.1750840">
        <ele>1131.1</ele>
        <time>2013-05-12T09:13:54Z</time>
      </trkpt>
      <trkpt lat="40.7558640" lon="0.1752490">
        <ele>1132.7</ele>
        <time>2013-05-12T09:14:00Z</time>
      </trkpt>
      <trkpt lat="40.7558770" lon="0.1754230">
        <ele>1134.6</ele>
        <time>2013-05-12T09:14:06Z</time>
      </trkpt>
      <trkpt lat="40.7558600" lon="0.1756630">
        <ele>1137.1</ele>
        <time>2013-05-12T09:14:14Z</time>
      </trkpt>
      <trkpt lat="40.7558540" lon="0.1758360">
        <ele>1138.2</ele>
        <time>2013-05-12T09:14:20Z</time>
      </trkpt>
      <trkpt lat="40.7558300" lon="0.1760340">
        <ele>1139.6</ele>
        <time>2013-05-12T09:14:27Z</time>
      </trkpt>
      <trkpt lat="40.7557840" lon="0.1762680">
        <ele>1141.2</ele>
        <time>2013-05-12T09:14:35Z</time>
      </trkpt>
      <trkpt lat="40.7557460" lon="0.1764620">
        <ele>1142.7</ele>
        <time>2013-05-12T09:14:42Z</time>
      </trkpt>
      <trkpt lat="40.7557100" lon="0.1766220">
        <ele>1143.7</ele>
        <time>2013-05-12T09:14:48Z</time>
      </trkpt>
      <trkpt lat="40.7556850" lon="0.1768080">
        <ele>1144.6</ele>
        <time>2013-05-12T09:14:54Z</time>
      </trkpt>
      <trkpt lat="40.7556240" lon="0.1770430">
        <ele>1145.9</ele>
        <time>2013-05-12T09:15:02Z</time>
      </trkpt>
      <trkpt lat="40.7555720" lon="0.1772520">
        <ele>1146.9</ele>
        <time>2013-05-12T09:15:09Z</time>
      </trkpt>
      <trkpt lat="40.7555340" lon="0.1774600">
        <ele>1149.4</ele>
        <time>2013-05-12T09:15:17Z</time>
      </trkpt>
      <trkpt lat="40.7554820" lon="0.1776140">
        <ele>1151.1</ele>
        <time>2013-05-12T09:15:23Z</time>
      </trkpt>
      <trkpt lat="40.7554270" lon="0.1777580">
        <ele>1153.1</ele>
        <time>2013-05-12T09:15:29Z</time>
      </trkpt>
      <trkpt lat="40.7553390" lon="0.1779010">
        <ele>1155.2</ele>
        <time>2013-05-12T09:15:36Z</time>
      </trkpt>
      <trkpt lat="40.7552420" lon="0.1780540">
        <ele>1157.3</ele>
        <time>2013-05-12T09:15:43Z</time>
      </trkpt>
      <trkpt lat="40.7551480" lon="0.1781970">
        <ele>1159.1</ele>
        <time>2013-05-12T09:15:50Z</time>
      </trkpt>
      <trkpt lat="40.7551220" lon="0.1782330">
        <ele>1159.6</ele>
        <time>2013-05-12T09:15:52Z</time>
      </trkpt>
      <trkpt lat="40.7550560" lon="0.1783520">
        <ele>1160.8</ele>
        <time>2013-05-12T09:15:57Z</time>
      </trkpt>
      <trkpt lat="40.7549250" lon="0.1785220">
        <ele>1162.1</ele>
        <time>2013-05-12T09:16:05Z</time>
      </trkpt>
      <trkpt lat="40.7548570" lon="0.1786470">
        <ele>1163.0</ele>
        <time>2013-05-12T09:16:10Z</time>
      </trkpt>
      <trkpt lat="40.7548020" lon="0.1787550">
        <ele>1163.1</ele>
        <time>2013-05-12T09:16:14Z</time>
      </trkpt>
      <trkpt lat="40.7546810" lon="0.1789730">
        <ele>1164.1</ele>
        <time>2013-05-12T09:16:22Z</time>
      </trkpt>
      <trkpt lat="40.7545970" lon="0.1791150">
        <ele>1165.4</ele>
        <time>2013-05-12T09:16:29Z</time>
      </trkpt>
      <trkpt lat="40.7545160" lon="0.1792430">
        <ele>1167.0</ele>
        <time>2013-05-12T09:16:35Z</time>
      </trkpt>
      <trkpt lat="40.7544270" lon="0.1793900">
        <ele>1169.1</ele>
        <time>2013-05-12T09:16:42Z</time>
      </trkpt>
      <trkpt lat="40.7543430" lon="0.1795710">
        <ele>1171.0</ele>
        <time>2013-05-12T09:16:49Z</time>
      </trkpt>
      <trkpt lat="40.7542840" lon="0.1796990">
        <ele>1172.5</ele>
        <time>2013-05-12T09:16:55Z</time>
      </trkpt>
      <trkpt lat="40.7542150" lon="0.1798320">
        <ele>1174.7</ele>
        <time>2013-05-12T09:17:02Z</time>
      </trkpt>
      <trkpt lat="40.7541270" lon="0.1799760">
        <ele>1177.2</ele>
        <time>2013-05-12T09:17:09Z</time>
      </trkpt>
      <trkpt lat="40.7540570" lon="0.1800970">
        <ele>1179.2</ele>
        <time>2013-05-12T09:17:15Z</time>
      </trkpt>
      <trkpt lat="40.7539900" lon="0.1802350">
        <ele>1180.9</ele>
        <time>2013-05-12T09:17:21Z</time>
      </trkpt>
      <trkpt lat="40.7539160" lon="0.1804360">
        <ele>1182.8</ele>
        <time>2013-05-12T09:17:29Z</time>
      </trkpt>
      <trkpt lat="40.7538330" lon="0.1806280">
        <ele>1184.2</ele>
        <time>2013-05-12T09:17:37Z</time>
      </trkpt>
      <trkpt lat="40.7537720" lon="0.1807720">
        <ele>1185.5</ele>
        <time>2013-05-12T09:17:43Z</time>
      </trkpt>
      <trkpt lat="40.7537070" lon="0.1809210">
        <ele>1186.7</ele>
        <time>2013-05-12T09:17:49Z</time>
      </trkpt>
      <trkpt lat="40.7535880" lon="0.1810820">
        <ele>1188.0</ele>
        <time>2013-05-12T09:17:56Z</time>
      </trkpt>
      <trkpt lat="40.7534310" lon="0.1811700">
        <ele>1188.6</ele>
        <time>2013-05-12T09:18:03Z</time>
      </trkpt>
      <trkpt lat="40.7532870" lon="0.1811620">
        <ele>1190.5</ele>
        <time>2013-05-12T09:18:10Z</time>
      </trkpt>
      <trkpt lat="40.7531610" lon="0.1810370">
        <ele>1192.1</ele>
        <time>2013-05-12T09:18:17Z</time>
      </trkpt>
      <trkpt lat="40.7531090" lon="0.1808670">
        <ele>1193.3</ele>
        <time>2013-05-12T09:18:23Z</time>
      </trkpt>
      <trkpt lat="40.7531360" lon="0.1806600">
        <ele>1195.1</ele>
        <time>2013-05-12T09:18:30Z</time>
      </trkpt>
      <trkpt lat="40.7531960" lon="0.1804700">
        <ele>1195.9</ele>
        <time>2013-05-12T09:18:37Z</time>
      </trkpt>
      <trkpt lat="40.7532160" lon="0.1803110">
        <ele>1197.1</ele>
        <time>2013-05-12T09:18:43Z</time>
      </trkpt>
      <trkpt lat="40.7531740" lon="0.1801490">
        <ele>1197.5</ele>
        <time>2013-05-12T09:18:49Z</time>
      </trkpt>
      <trkpt lat="40.7530400" lon="0.1800660">
        <ele>1198.0</ele>
        <time>2013-05-12T09:18:56Z</time>
      </trkpt>
      <trkpt lat="40.7528970" lon="0.1800380">
        <ele>1200.1</ele>
        <time>2013-05-12T09:19:03Z</time>
      </trkpt>
      <trkpt lat="40.7527930" lon="0.1800110">
        <ele>1201.3</ele>
        <time>2013-05-12T09:19:08Z</time>
      </trkpt>
      <trkpt lat="40.7527170" lon="0.1799940">
        <ele>1202.4</ele>
        <time>2013-05-12T09:19:12Z</time>
      </trkpt>
      <trkpt lat="40.7525750" lon="0.1800140">
        <ele>1204.0</ele>
        <time>2013-05-12T09:19:18Z</time>
      </trkpt>
      <trkpt lat="40.7523800" lon="0.1800830">
        <ele>1205.4</ele>
        <time>2013-05-12T09:19:26Z</time>
      </trkpt>
      <trkpt lat="40.7522580" lon="0.1801150">
        <ele>1206.1</ele>
        <time>2013-05-12T09:19:32Z</time>
      </trkpt>
      <trkpt lat="40.7520790" lon="0.1802020">
        <ele>1207.0</ele>
        <time>2013-05-12T09:19:39Z</time>
      </trkpt>
      <trkpt lat="40.7519440" lon="0.1803080">
        <ele>1207.5</ele>
        <time>2013-05-12T09:19:44Z</time>
      </trkpt>
      <trkpt lat="40.7518160" lon="0.1804720">
        <ele>1208.1</ele>
        <time>2013-05-12T09:19:50Z</time>
      </trkpt>
      <trkpt lat="40.7517160" lon="0.1806060">
        <ele>1209.4</ele>
        <time>2013-05-12T09:19:56Z</time>
      </trkpt>
      <trkpt lat="40.7516250" lon="0.1807150">
        <ele>1210.9</ele>
        <time>2013-05-12T09:20:02Z</time>
      </trkpt>
      <trkpt lat="40.7515220" lon="0.1808330">
        <ele>1212.7</ele>
        <time>2013-05-12T09:20:08Z</time>
      </trkpt>
      <trkpt lat="40.7513970" lon="0.1810000">
        <ele>1214.8</ele>
        <time>2013-05-12T09:20:15Z</time>
      </trkpt>
      <trkpt lat="40.7512490" lon="0.1810780">
        <ele>1215.6</ele>
        <time>2013-05-12T09:20:20Z</time>
      </trkpt>
      <trkpt lat="40.7510740" lon="0.1811130">
        <ele>1216.5</ele>
        <time>2013-05-12T09:20:26Z</time>
      </trkpt>
      <trkpt lat="40.7509230" lon="0.1811510">
        <ele>1217.1</ele>
        <time>2013-05-12T09:20:31Z</time>
      </trkpt>
      <trkpt lat="40.7508060" lon="0.1812150">
        <ele>1218.5</ele>
        <time>2013-05-12T09:20:36Z</time>
      </trkpt>
      <trkpt lat="40.7507000" lon="0.1813220">
        <ele>1220.5</ele>
        <time>2013-05-12T09:20:42Z</time>
      </trkpt>
      <trkpt lat="40.7505920" lon="0.1814700">
        <ele>1221.9</ele>
        <time>2013-05-12T09:20:48Z</time>
      </trkpt>
      <trkpt lat="40.7504630" lon="0.1816000">
        <ele>1223.8</ele>
        <time>2013-05-12T09:20:55Z</time>
      </trkpt>
      <trkpt lat="40.7503480" lon="0.1816970">
        <ele>1225.4</ele>
        <time>2013-05-12T09:21:01Z</time>
      </trkpt>
      <trkpt lat="40.7502320" lon="0.1818120">
        <ele>1227.0</ele>
        <time>2013-05-12T09:21:07Z</time>
      </trkpt>
      <trkpt lat="40.7501180" lon="0.1819190">
        <ele>1228.7</ele>
        <time>2013-05-12T09:21:14Z</time>
      </trkpt>
      <trkpt lat="40.7499830" lon="0.1819510">
        <ele>1230.9</ele>
        <time>2013-05-12T09:21:21Z</time>
      </trkpt>
      <trkpt lat="40.7499310" lon="0.1819380">
        <ele>1231.5</ele>
        <time>2013-05-12T09:21:23Z</time>
      </trkpt>
      <trkpt lat="40.7497760" lon="0.1818160">
        <ele>1233.1</ele>
        <time>2013-05-12T09:21:30Z</time>
      </trkpt>
      <trkpt lat="40.7496140" lon="0.1817150">
        <ele>1233.9</ele>
        <time>2013-05-12T09:21:37Z</time>
      </trkpt>
      <trkpt lat="40.7494780" lon="0.1816270">
        <ele>1234.0</ele>
        <time>2013-05-12T09:21:42Z</time>
      </trkpt>
      <trkpt lat="40.7493790" lon="0.1815580">
        <ele>1233.8</ele>
        <time>2013-05-12T09:21:45Z</time>
      </trkpt>
      <trkpt lat="40.7492970" lon="0.1815090">
        <ele>1233.6</ele>
        <time>2013-05-12T09:21:47Z</time>
      </trkpt>
      <trkpt lat="40.7490190" lon="0.1814420">
        <ele>1233.2</ele>
        <time>2013-05-12T09:21:53Z</time>
      </trkpt>
      <trkpt lat="40.7488350" lon="0.1814110">
        <ele>1234.5</ele>
        <time>2013-05-12T09:21:58Z</time>
      </trkpt>
      <trkpt lat="40.7486460" lon="0.1813870">
        <ele>1236.3</ele>
        <time>2013-05-12T09:22:04Z</time>
      </trkpt>
      <trkpt lat="40.7485400" lon="0.1813650">
        <ele>1236.6</ele>
        <time>2013-05-12T09:22:07Z</time>
      </trkpt>
      <trkpt lat="40.7482140" lon="0.1813300">
        <ele>1237.1</ele>
        <time>2013-05-12T09:22:15Z</time>
      </trkpt>
      <trkpt lat="40.7479340" lon="0.1813630">
        <ele>1236.7</ele>
        <time>2013-05-12T09:22:21Z</time>
      </trkpt>
      <trkpt lat="40.7475660" lon="0.1813690">
        <ele>1236.3</ele>
        <time>2013-05-12T09:22:28Z</time>
      </trkpt>
      <trkpt lat="40.7473600" lon="0.1813760">
        <ele>1235.7</ele>
        <time>2013-05-12T09:22:32Z</time>
      </trkpt>
      <trkpt lat="40.7473060" lon="0.1813860">
        <ele>1235.5</ele>
        <time>2013-05-12T09:22:33Z</time>
      </trkpt>
      <trkpt lat="40.7472060" lon="0.1813980">
        <ele>1235.3</ele>
        <time>2013-05-12T09:22:35Z</time>
      </trkpt>
      <trkpt lat="40.7470170" lon="0.1814300">
        <ele>1236.1</ele>
        <time>2013-05-12T09:22:39Z</time>
      </trkpt>
      <trkpt lat="40.7468410" lon="0.1815060">
        <ele>1236.1</ele>
        <time>2013-05-12T09:22:43Z</time>
      </trkpt>
      <trkpt lat="40.7465830" lon="0.1817610">
        <ele>1234.2</ele>
        <time>2013-05-12T09:22:49Z</time>
      </trkpt>
      <trkpt lat="40.7462840" lon="0.1821270">
        <ele>1231.5</ele>
        <time>2013-05-12T09:22:55Z</time>
      </trkpt>
      <trkpt lat="40.7458860" lon="0.1826050">
        <ele>1229.1</ele>
        <time>2013-05-12T09:23:02Z</time>
      </trkpt>
      <trkpt lat="40.7455860" lon="0.1829680">
        <ele>1225.3</ele>
        <time>2013-05-12T09:23:07Z</time>
      </trkpt>
      <trkpt lat="40.7452220" lon="0.1834200">
        <ele>1220.8</ele>
        <time>2013-05-12T09:23:13Z</time>
      </trkpt>
      <trkpt lat="40.7450260" lon="0.1835770">
        <ele>1219.2</ele>
        <time>2013-05-12T09:23:16Z</time>
      </trkpt>
      <trkpt lat="40.7447680" lon="0.1837450">
        <ele>1219.6</ele>
        <time>2013-05-12T09:23:21Z</time>
      </trkpt>
      <trkpt lat="40.7446100" lon="0.1838290">
        <ele>1220.4</ele>
        <time>2013-05-12T09:23:25Z</time>
      </trkpt>
      <trkpt lat="40.7444350" lon="0.1839230">
        <ele>1221.6</ele>
        <time>2013-05-12T09:23:31Z</time>
      </trkpt>
      <trkpt lat="40.7443050" lon="0.1839930">
        <ele>1224.2</ele>
        <time>2013-05-12T09:23:37Z</time>
      </trkpt>
      <trkpt lat="40.7442350" lon="0.1840540">
        <ele>1225.8</ele>
        <time>2013-05-12T09:23:41Z</time>
      </trkpt>
      <trkpt lat="40.7442040" lon="0.1840990">
        <ele>1226.5</ele>
        <time>2013-05-12T09:23:43Z</time>
      </trkpt>
      <trkpt lat="40.7441340" lon="0.1842430">
        <ele>1228.3</ele>
        <time>2013-05-12T09:23:49Z</time>
      </trkpt>
      <trkpt lat="40.7440840" lon="0.1843400">
        <ele>1229.5</ele>
        <time>2013-05-12T09:23:53Z</time>
      </trkpt>
      <trkpt lat="40.7440340" lon="0.1844360">
        <ele>1230.5</ele>
        <time>2013-05-12T09:23:57Z</time>
      </trkpt>
      <trkpt lat="40.7439690" lon="0.1845090">
        <ele>1231.5</ele>
        <time>2013-05-12T09:24:01Z</time>
      </trkpt>
      <trkpt lat="40.7438730" lon="0.1845790">
        <ele>1232.6</ele>
        <time>2013-05-12T09:24:06Z</time>
      </trkpt>
      <trkpt lat="40.7437420" lon="0.1846290">
        <ele>1233.6</ele>
        <time>2013-05-12T09:24:12Z</time>
      </trkpt>
      <trkpt lat="40.7436000" lon="0.1847390">
        <ele>1234.8</ele>
        <time>2013-05-12T09:24:19Z</time>
      </trkpt>
      <trkpt lat="40.7434860" lon="0.1849700">
        <ele>1235.9</ele>
        <time>2013-05-12T09:24:27Z</time>
      </trkpt>
      <trkpt lat="40.7433950" lon="0.1851840">
        <ele>1237.4</ele>
        <time>2013-05-12T09:24:34Z</time>
      </trkpt>
      <trkpt lat="40.7432940" lon="0.1854020">
        <ele>1238.6</ele>
        <time>2013-05-12T09:24:41Z</time>
      </trkpt>
      <trkpt lat="40.7432320" lon="0.1855500">
        <ele>1239.1</ele>
        <time>2013-05-12T09:24:47Z</time>
      </trkpt>
      <trkpt lat="40.7431660" lon="0.1857360">
        <ele>1240.0</ele>
        <time>2013-05-12T09:24:53Z</time>
      </trkpt>
      <trkpt lat="40.7431030" lon="0.1858860">
        <ele>1241.2</ele>
        <time>2013-05-12T09:24:58Z</time>
      </trkpt>
      <trkpt lat="40.7429750" lon="0.1860270">
        <ele>1242.7</ele>
        <time>2013-05-12T09:25:04Z</time>
      </trkpt>
      <trkpt lat="40.7428080" lon="0.1860940">
        <ele>1244.3</ele>
        <time>2013-05-12T09:25:10Z</time>
      </trkpt>
      <trkpt lat="40.7426060" lon="0.1861230">
        <ele>1243.9</ele>
        <time>2013-05-12T09:25:15Z</time>
      </trkpt>
      <trkpt lat="40.7423790" lon="0.1861480">
        <ele>1242.5</ele>
        <time>2013-05-12T09:25:19Z</time>
      </trkpt>
      <trkpt lat="40.7422700" lon="0.1861710">
        <ele>1241.9</ele>
        <time>2013-05-12T09:25:21Z</time>
      </trkpt>
      <trkpt lat="40.7420160" lon="0.1861380">
        <ele>1240.4</ele>
        <time>2013-05-12T09:25:26Z</time>
      </trkpt>
      <trkpt lat="40.7418830" lon="0.1860740">
        <ele>1239.5</ele>
        <time>2013-05-12T09:25:29Z</time>
      </trkpt>
      <trkpt lat="40.7416840" lon="0.1861030">
        <ele>1238.5</ele>
        <time>2013-05-12T09:25:33Z</time>
      </trkpt>
      <trkpt lat="40.7415360" lon="0.1862530">
        <ele>1238.4</ele>
        <time>2013-05-12T09:25:37Z</time>
      </trkpt>
      <trkpt lat="40.7413370" lon="0.1865710">
        <ele>1238.0</ele>
        <time>2013-05-12T09:25:43Z</time>
      </trkpt>
      <trkpt lat="40.7412730" lon="0.1866740">
        <ele>1237.9</ele>
        <time>2013-05-12T09:25:45Z</time>
      </trkpt>
      <trkpt lat="40.7412130" lon="0.1867600">
        <ele>1238.0</ele>
        <time>2013-05-12T09:25:47Z</time>
      </trkpt>
      <trkpt lat="40.7411010" lon="0.1869320">
        <ele>1238.1</ele>
        <time>2013-05-12T09:25:51Z</time>
      </trkpt>
      <trkpt lat="40.7409790" lon="0.1870760">
        <ele>1238.4</ele>
        <time>2013-05-12T09:25:55Z</time>
      </trkpt>
      <trkpt lat="40.7408710" lon="0.1873150">
        <ele>1237.6</ele>
        <time>2013-05-12T09:25:59Z</time>
      </trkpt>
      <trkpt lat="40.7408230" lon="0.1876280">
        <ele>1236.7</ele>
        <time>2013-05-12T09:26:03Z</time>
      </trkpt>
      <trkpt lat="40.7408390" lon="0.1877950">
        <ele>1236.0</ele>
        <time>2013-05-12T09:26:05Z</time>
      </trkpt>
      <trkpt lat="40.7408700" lon="0.1879750">
        <ele>1235.4</ele>
        <time>2013-05-12T09:26:07Z</time>
      </trkpt>
      <trkpt lat="40.7408380" lon="0.1883070">
        <ele>1233.3</ele>
        <time>2013-05-12T09:26:11Z</time>
      </trkpt>
      <trkpt lat="40.7407030" lon="0.1885160">
        <ele>1231.0</ele>
        <time>2013-05-12T09:26:15Z</time>
      </trkpt>
      <trkpt lat="40.7406100" lon="0.1886140">
        <ele>1230.3</ele>
        <time>2013-05-12T09:26:17Z</time>
      </trkpt>
      <trkpt lat="40.7403170" lon="0.1889510">
        <ele>1228.6</ele>
        <time>2013-05-12T09:26:23Z</time>
      </trkpt>
      <trkpt lat="40.7401850" lon="0.1893190">
        <ele>1228.0</ele>
        <time>2013-05-12T09:26:28Z</time>
      </trkpt>
      <trkpt lat="40.7401780" lon="0.1896050">
        <ele>1228.5</ele>
        <time>2013-05-12T09:26:33Z</time>
      </trkpt>
      <trkpt lat="40.7402070" lon="0.1896680">
        <ele>1229.0</ele>
        <time>2013-05-12T09:26:38Z</time>
      </trkpt>
      <trkpt lat="40.7402380" lon="0.1896960">
        <ele>1228.4</ele>
        <time>2013-05-12T09:27:34Z</time>
      </trkpt>
      <trkpt lat="40.7402390" lon="0.1896970">
        <ele>1228.4</ele>
        <time>2013-05-12T09:27:35Z</time>
      </trkpt>
      <trkpt lat="40.7402570" lon="0.1897060">
        <ele>1228.6</ele>
        <time>2013-05-12T09:27:51Z</time>
      </trkpt>
      <trkpt lat="40.7403020" lon="0.1896750">
        <ele>1228.5</ele>
        <time>2013-05-12T09:28:10Z</time>
      </trkpt>
      <trkpt lat="40.7403790" lon="0.1896420">
        <ele>1228.8</ele>
        <time>2013-05-12T09:28:14Z</time>
      </trkpt>
      <trkpt lat="40.7404300" lon="0.1896040">
        <ele>1228.9</ele>
        <time>2013-05-12T09:28:17Z</time>
      </trkpt>
      <trkpt lat="40.7405380" lon="0.1894760">
        <ele>1229.0</ele>
        <time>2013-05-12T09:28:23Z</time>
      </trkpt>
      <trkpt lat="40.7406440" lon="0.1892770">
        <ele>1229.1</ele>
        <time>2013-05-12T09:28:29Z</time>
      </trkpt>
      <trkpt lat="40.7408180" lon="0.1889830">
        <ele>1229.5</ele>
        <time>2013-05-12T09:28:36Z</time>
      </trkpt>
      <trkpt lat="40.7409630" lon="0.1887330">
        <ele>1230.0</ele>
        <time>2013-05-12T09:28:42Z</time>
      </trkpt>
      <trkpt lat="40.7411400" lon="0.1884140">
        <ele>1229.5</ele>
        <time>2013-05-12T09:28:49Z</time>
      </trkpt>
      <trkpt lat="40.7412850" lon="0.1881570">
        <ele>1229.1</ele>
        <time>2013-05-12T09:28:55Z</time>
      </trkpt>
      <trkpt lat="40.7414940" lon="0.1878020">
        <ele>1229.8</ele>
        <time>2013-05-12T09:29:03Z</time>
      </trkpt>
      <trkpt lat="40.7416740" lon="0.1874890">
        <ele>1230.7</ele>
        <time>2013-05-12T09:29:10Z</time>
      </trkpt>
      <trkpt lat="40.7418330" lon="0.1872170">
        <ele>1230.4</ele>
        <time>2013-05-12T09:29:16Z</time>
      </trkpt>
      <trkpt lat="40.7419060" lon="0.1871350">
        <ele>1230.5</ele>
        <time>2013-05-12T09:29:18Z</time>
      </trkpt>
      <trkpt lat="40.7421060" lon="0.1871030">
        <ele>1229.8</ele>
        <time>2013-05-12T09:29:22Z</time>
      </trkpt>
      <trkpt lat="40.7422090" lon="0.1872500">
        <ele>1230.2</ele>
        <time>2013-05-12T09:29:25Z</time>
      </trkpt>
      <trkpt lat="40.7422910" lon="0.1874170">
        <ele>1230.8</ele>
        <time>2013-05-12T09:29:28Z</time>
      </trkpt>
      <trkpt lat="40.7424190" lon="0.1876910">
        <ele>1230.9</ele>
        <time>2013-05-12T09:29:33Z</time>
      </trkpt>
      <trkpt lat="40.7426300" lon="0.1880940">
        <ele>1230.8</ele>
        <time>2013-05-12T09:29:40Z</time>
      </trkpt>
      <trkpt lat="40.7428650" lon="0.1885250">
        <ele>1230.3</ele>
        <time>2013-05-12T09:29:47Z</time>
      </trkpt>
      <trkpt lat="40.7431080" lon="0.1888470">
        <ele>1229.3</ele>
        <time>2013-05-12T09:29:52Z</time>
      </trkpt>
      <trkpt lat="40.7434850" lon="0.1893140">
        <ele>1226.6</ele>
        <time>2013-05-12T09:29:59Z</time>
      </trkpt>
      <trkpt lat="40.7435960" lon="0.1894260">
        <ele>1226.2</ele>
        <time>2013-05-12T09:30:01Z</time>
      </trkpt>
      <trkpt lat="40.7437190" lon="0.1895170">
        <ele>1225.7</ele>
        <time>2013-05-12T09:30:03Z</time>
      </trkpt>
      <trkpt lat="40.7441060" lon="0.1896980">
        <ele>1223.0</ele>
        <time>2013-05-12T09:30:09Z</time>
      </trkpt>
      <trkpt lat="40.7444260" lon="0.1898240">
        <ele>1221.1</ele>
        <time>2013-05-12T09:30:13Z</time>
      </trkpt>
      <trkpt lat="40.7446720" lon="0.1898990">
        <ele>1218.9</ele>
        <time>2013-05-12T09:30:16Z</time>
      </trkpt>
      <trkpt lat="40.7448970" lon="0.1901450">
        <ele>1216.3</ele>
        <time>2013-05-12T09:30:20Z</time>
      </trkpt>
      <trkpt lat="40.7449620" lon="0.1904400">
        <ele>1214.1</ele>
        <time>2013-05-12T09:30:24Z</time>
      </trkpt>
      <trkpt lat="40.7448610" lon="0.1905880">
        <ele>1212.2</ele>
        <time>2013-05-12T09:30:27Z</time>
      </trkpt>
      <trkpt lat="40.7446830" lon="0.1905960">
        <ele>1211.5</ele>
        <time>2013-05-12T09:30:30Z</time>
      </trkpt>
      <trkpt lat="40.7442340" lon="0.1906270">
        <ele>1210.3</ele>
        <time>2013-05-12T09:30:37Z</time>
      </trkpt>
      <trkpt lat="40.7441750" lon="0.1906440">
        <ele>1210.3</ele>
        <time>2013-05-12T09:30:38Z</time>
      </trkpt>
      <trkpt lat="40.7437360" lon="0.1908780">
        <ele>1209.1</ele>
        <time>2013-05-12T09:30:45Z</time>
      </trkpt>
      <trkpt lat="40.7436110" lon="0.1909600">
        <ele>1208.7</ele>
        <time>2013-05-12T09:30:47Z</time>
      </trkpt>
      <trkpt lat="40.7434140" lon="0.1910250">
        <ele>1207.5</ele>
        <time>2013-05-12T09:30:50Z</time>
      </trkpt>
      <trkpt lat="40.7432000" lon="0.1909580">
        <ele>1206.1</ele>
        <time>2013-05-12T09:30:53Z</time>
      </trkpt>
      <trkpt lat="40.7431330" lon="0.1909040">
        <ele>1205.5</ele>
        <time>2013-05-12T09:30:54Z</time>
      </trkpt>
      <trkpt lat="40.7429280" lon="0.1907070">
        <ele>1203.9</ele>
        <time>2013-05-12T09:30:57Z</time>
      </trkpt>
      <trkpt lat="40.7426220" lon="0.1904650">
        <ele>1203.2</ele>
        <time>2013-05-12T09:31:02Z</time>
      </trkpt>
      <trkpt lat="40.7424950" lon="0.1902250">
        <ele>1201.6</ele>
        <time>2013-05-12T09:31:05Z</time>
      </trkpt>
      <trkpt lat="40.7423850" lon="0.1898450">
        <ele>1198.6</ele>
        <time>2013-05-12T09:31:09Z</time>
      </trkpt>
      <trkpt lat="40.7422870" lon="0.1897650">
        <ele>1196.3</ele>
        <time>2013-05-12T09:31:12Z</time>
      </trkpt>
      <trkpt lat="40.7422230" lon="0.1899170">
        <ele>1195.0</ele>
        <time>2013-05-12T09:31:15Z</time>
      </trkpt>
      <trkpt lat="40.7422210" lon="0.1900070">
        <ele>1194.9</ele>
        <time>2013-05-12T09:31:16Z</time>
      </trkpt>
      <trkpt lat="40.7422300" lon="0.1902080">
        <ele>1194.1</ele>
        <time>2013-05-12T09:31:18Z</time>
      </trkpt>
      <trkpt lat="40.7422450" lon="0.1906100">
        <ele>1191.3</ele>
        <time>2013-05-12T09:31:22Z</time>
      </trkpt>
      <trkpt lat="40.7422650" lon="0.1912090">
        <ele>1188.2</ele>
        <time>2013-05-12T09:31:27Z</time>
      </trkpt>
      <trkpt lat="40.7422690" lon="0.1917060">
        <ele>1183.9</ele>
        <time>2013-05-12T09:31:31Z</time>
      </trkpt>
      <trkpt lat="40.7421830" lon="0.1922410">
        <ele>1178.4</ele>
        <time>2013-05-12T09:31:36Z</time>
      </trkpt>
      <trkpt lat="40.7421020" lon="0.1925510">
        <ele>1177.4</ele>
        <time>2013-05-12T09:31:39Z</time>
      </trkpt>
      <trkpt lat="40.7420970" lon="0.1929210">
        <ele>1176.2</ele>
        <time>2013-05-12T09:31:42Z</time>
      </trkpt>
      <trkpt lat="40.7421620" lon="0.1933680">
        <ele>1173.2</ele>
        <time>2013-05-12T09:31:45Z</time>
      </trkpt>
      <trkpt lat="40.7421790" lon="0.1937270">
        <ele>1170.7</ele>
        <time>2013-05-12T09:31:48Z</time>
      </trkpt>
      <trkpt lat="40.7422550" lon="0.1940720">
        <ele>1166.7</ele>
        <time>2013-05-12T09:31:52Z</time>
      </trkpt>
      <trkpt lat="40.7424180" lon="0.1941930">
        <ele>1164.6</ele>
        <time>2013-05-12T09:31:55Z</time>
      </trkpt>
      <trkpt lat="40.7425930" lon="0.1941980">
        <ele>1162.6</ele>
        <time>2013-05-12T09:31:58Z</time>
      </trkpt>
      <trkpt lat="40.7426760" lon="0.1943160">
        <ele>1161.3</ele>
        <time>2013-05-12T09:32:00Z</time>
      </trkpt>
      <trkpt lat="40.7427010" lon="0.1943990">
        <ele>1160.9</ele>
        <time>2013-05-12T09:32:01Z</time>
      </trkpt>
      <trkpt lat="40.7428480" lon="0.1948680">
        <ele>1158.2</ele>
        <time>2013-05-12T09:32:06Z</time>
      </trkpt>
      <trkpt lat="40.7428270" lon="0.1950670">
        <ele>1154.9</ele>
        <time>2013-05-12T09:32:10Z</time>
      </trkpt>
      <trkpt lat="40.7427290" lon="0.1950680">
        <ele>1154.1</ele>
        <time>2013-05-12T09:32:12Z</time>
      </trkpt>
      <trkpt lat="40.7425230" lon="0.1949950">
        <ele>1153.5</ele>
        <time>2013-05-12T09:32:16Z</time>
      </trkpt>
      <trkpt lat="40.7423290" lon="0.1950560">
        <ele>1152.2</ele>
        <time>2013-05-12T09:32:20Z</time>
      </trkpt>
      <trkpt lat="40.7423160" lon="0.1952380">
        <ele>1150.6</ele>
        <time>2013-05-12T09:32:23Z</time>
      </trkpt>
      <trkpt lat="40.7423440" lon="0.1952830">
        <ele>1150.4</ele>
        <time>2013-05-12T09:32:24Z</time>
      </trkpt>
      <trkpt lat="40.7424880" lon="0.1953560">
        <ele>1149.2</ele>
        <time>2013-05-12T09:32:27Z</time>
      </trkpt>
      <trkpt lat="40.7427910" lon="0.1955880">
        <ele>1147.1</ele>
        <time>2013-05-12T09:32:33Z</time>
      </trkpt>
      <trkpt lat="40.7428550" lon="0.1957380">
        <ele>1146.2</ele>
        <time>2013-05-12T09:32:35Z</time>
      </trkpt>
      <trkpt lat="40.7429600" lon="0.1961570">
        <ele>1142.4</ele>
        <time>2013-05-12T09:32:40Z</time>
      </trkpt>
      <trkpt lat="40.7430860" lon="0.1965190">
        <ele>1139.5</ele>
        <time>2013-05-12T09:32:44Z</time>
      </trkpt>
      <trkpt lat="40.7431250" lon="0.1965980">
        <ele>1138.9</ele>
        <time>2013-05-12T09:32:45Z</time>
      </trkpt>
      <trkpt lat="40.7431380" lon="0.1967750">
        <ele>1137.4</ele>
        <time>2013-05-12T09:32:48Z</time>
      </trkpt>
      <trkpt lat="40.7430080" lon="0.1968380">
        <ele>1136.5</ele>
        <time>2013-05-12T09:32:51Z</time>
      </trkpt>
      <trkpt lat="40.7428180" lon="0.1968490">
        <ele>1135.0</ele>
        <time>2013-05-12T09:32:54Z</time>
      </trkpt>
      <trkpt lat="40.7425160" lon="0.1967950">
        <ele>1132.7</ele>
        <time>2013-05-12T09:32:59Z</time>
      </trkpt>
      <trkpt lat="40.7422310" lon="0.1964420">
        <ele>1129.1</ele>
        <time>2013-05-12T09:33:05Z</time>
      </trkpt>
      <trkpt lat="40.7420480" lon="0.1963480">
        <ele>1127.1</ele>
        <time>2013-05-12T09:33:08Z</time>
      </trkpt>
      <trkpt lat="40.7417940" lon="0.1962460">
        <ele>1126.0</ele>
        <time>2013-05-12T09:33:12Z</time>
      </trkpt>
      <trkpt lat="40.7416650" lon="0.1961710">
        <ele>1125.4</ele>
        <time>2013-05-12T09:33:14Z</time>
      </trkpt>
      <trkpt lat="40.7415020" lon="0.1960230">
        <ele>1124.4</ele>
        <time>2013-05-12T09:33:17Z</time>
      </trkpt>
      <trkpt lat="40.7413000" lon="0.1959350">
        <ele>1122.1</ele>
        <time>2013-05-12T09:33:21Z</time>
      </trkpt>
      <trkpt lat="40.7412450" lon="0.1959700">
        <ele>1121.5</ele>
        <time>2013-05-12T09:33:22Z</time>
      </trkpt>
      <trkpt lat="40.7410200" lon="0.1961370">
        <ele>1119.9</ele>
        <time>2013-05-12T09:33:26Z</time>
      </trkpt>
      <trkpt lat="40.7409680" lon="0.1961770">
        <ele>1119.7</ele>
        <time>2013-05-12T09:33:27Z</time>
      </trkpt>
      <trkpt lat="40.7407590" lon="0.1962470">
        <ele>1119.8</ele>
        <time>2013-05-12T09:33:31Z</time>
      </trkpt>
      <trkpt lat="40.7404390" lon="0.1962780">
        <ele>1117.8</ele>
        <time>2013-05-12T09:33:36Z</time>
      </trkpt>
      <trkpt lat="40.7403510" lon="0.1963120">
        <ele>1116.1</ele>
        <time>2013-05-12T09:33:38Z</time>
      </trkpt>
      <trkpt lat="40.7403180" lon="0.1963260">
        <ele>1115.7</ele>
        <time>2013-05-12T09:33:39Z</time>
      </trkpt>
      <trkpt lat="40.7402630" lon="0.1963670">
        <ele>1114.9</ele>
        <time>2013-05-12T09:33:41Z</time>
      </trkpt>
      <trkpt lat="40.7402160" lon="0.1964380">
        <ele>1113.5</ele>
        <time>2013-05-12T09:33:43Z</time>
      </trkpt>
      <trkpt lat="40.7402340" lon="0.1966730">
        <ele>1113.2</ele>
        <time>2013-05-12T09:33:47Z</time>
      </trkpt>
      <trkpt lat="40.7402990" lon="0.1967610">
        <ele>1113.6</ele>
        <time>2013-05-12T09:33:49Z</time>
      </trkpt>
      <trkpt lat="40.7403830" lon="0.1968220">
        <ele>1114.0</ele>
        <time>2013-05-12T09:33:51Z</time>
      </trkpt>
      <trkpt lat="40.7406550" lon="0.1969170">
        <ele>1114.7</ele>
        <time>2013-05-12T09:33:57Z</time>
      </trkpt>
      <trkpt lat="40.7407890" lon="0.1969560">
        <ele>1115.3</ele>
        <time>2013-05-12T09:34:00Z</time>
      </trkpt>
      <trkpt lat="40.7409560" lon="0.1970630">
        <ele>1115.2</ele>
        <time>2013-05-12T09:34:04Z</time>
      </trkpt>
      <trkpt lat="40.7412460" lon="0.1974970">
        <ele>1115.7</ele>
        <time>2013-05-12T09:34:12Z</time>
      </trkpt>
      <trkpt lat="40.7412840" lon="0.1975570">
        <ele>1115.4</ele>
        <time>2013-05-12T09:34:13Z</time>
      </trkpt>
      <trkpt lat="40.7414310" lon="0.1978060">
        <ele>1113.3</ele>
        <time>2013-05-12T09:34:17Z</time>
      </trkpt>
      <trkpt lat="40.7415550" lon="0.1982420">
        <ele>1110.0</ele>
        <time>2013-05-12T09:34:22Z</time>
      </trkpt>
      <trkpt lat="40.7415480" lon="0.1986280">
        <ele>1106.9</ele>
        <time>2013-05-12T09:34:26Z</time>
      </trkpt>
      <trkpt lat="40.7415270" lon="0.1987400">
        <ele>1105.8</ele>
        <time>2013-05-12T09:34:27Z</time>
      </trkpt>
      <trkpt lat="40.7413950" lon="0.1994200">
        <ele>1099.8</ele>
        <time>2013-05-12T09:34:33Z</time>
      </trkpt>
      <trkpt lat="40.7413170" lon="0.1998000">
        <ele>1097.0</ele>
        <time>2013-05-12T09:34:36Z</time>
      </trkpt>
      <trkpt lat="40.7412380" lon="0.2001770">
        <ele>1092.8</ele>
        <time>2013-05-12T09:34:39Z</time>
      </trkpt>
      <trkpt lat="40.7411540" lon="0.2003470">
        <ele>1090.3</ele>
        <time>2013-05-12T09:34:41Z</time>
      </trkpt>
      <trkpt lat="40.7409510" lon="0.2005140">
        <ele>1088.7</ele>
        <time>2013-05-12T09:34:44Z</time>
      </trkpt>
      <trkpt lat="40.7407800" lon="0.2005590">
        <ele>1087.6</ele>
        <time>2013-05-12T09:34:47Z</time>
      </trkpt>
      <trkpt lat="40.7406970" lon="0.2004900">
        <ele>1086.5</ele>
        <time>2013-05-12T09:34:49Z</time>
      </trkpt>
      <trkpt lat="40.7406220" lon="0.2003990">
        <ele>1085.1</ele>
        <time>2013-05-12T09:34:52Z</time>
      </trkpt>
      <trkpt lat="40.7405310" lon="0.2002000">
        <ele>1084.4</ele>
        <time>2013-05-12T09:34:58Z</time>
      </trkpt>
      <trkpt lat="40.7404840" lon="0.2000370">
        <ele>1084.4</ele>
        <time>2013-05-12T09:35:03Z</time>
      </trkpt>
      <trkpt lat="40.7404770" lon="0.1999790">
        <ele>1084.6</ele>
        <time>2013-05-12T09:35:05Z</time>
      </trkpt>
      <trkpt lat="40.7404730" lon="0.1999460">
        <ele>1084.6</ele>
        <time>2013-05-12T09:35:06Z</time>
      </trkpt>
      <trkpt lat="40.7404650" lon="0.1999120">
        <ele>1084.8</ele>
        <time>2013-05-12T09:35:07Z</time>
      </trkpt>
      <trkpt lat="40.7403940" lon="0.1996120">
        <ele>1085.0</ele>
        <time>2013-05-12T09:35:14Z</time>
      </trkpt>
      <trkpt lat="40.7402680" lon="0.1994230">
        <ele>1085.7</ele>
        <time>2013-05-12T09:35:19Z</time>
      </trkpt>
      <trkpt lat="40.7401690" lon="0.1993590">
        <ele>1086.1</ele>
        <time>2013-05-12T09:35:22Z</time>
      </trkpt>
      <trkpt lat="40.7401090" lon="0.1993240">
        <ele>1086.4</ele>
        <time>2013-05-12T09:35:24Z</time>
      </trkpt>
      <trkpt lat="40.7400770" lon="0.1993050">
        <ele>1086.5</ele>
        <time>2013-05-12T09:35:25Z</time>
      </trkpt>
      <trkpt lat="40.7398670" lon="0.1992430">
        <ele>1086.8</ele>
        <time>2013-05-12T09:35:31Z</time>
      </trkpt>
      <trkpt lat="40.7396970" lon="0.1992240">
        <ele>1087.1</ele>
        <time>2013-05-12T09:35:36Z</time>
      </trkpt>
      <trkpt lat="40.7395030" lon="0.1992490">
        <ele>1087.7</ele>
        <time>2013-05-12T09:35:41Z</time>
      </trkpt>
      <trkpt lat="40.7393390" lon="0.1993590">
        <ele>1088.2</ele>
        <time>2013-05-12T09:35:46Z</time>
      </trkpt>
      <trkpt lat="40.7392510" lon="0.1994390">
        <ele>1088.6</ele>
        <time>2013-05-12T09:35:49Z</time>
      </trkpt>
      <trkpt lat="40.7391000" lon="0.1995900">
        <ele>1089.3</ele>
        <time>2013-05-12T09:35:54Z</time>
      </trkpt>
      <trkpt lat="40.7390020" lon="0.1996900">
        <ele>1090.4</ele>
        <time>2013-05-12T09:35:59Z</time>
      </trkpt>
      <trkpt lat="40.7388390" lon="0.1997780">
        <ele>1092.1</ele>
        <time>2013-05-12T09:36:06Z</time>
      </trkpt>
      <trkpt lat="40.7386960" lon="0.1998290">
        <ele>1093.1</ele>
        <time>2013-05-12T09:36:11Z</time>
      </trkpt>
      <trkpt lat="40.7385840" lon="0.1998810">
        <ele>1094.1</ele>
        <time>2013-05-12T09:36:15Z</time>
      </trkpt>
      <trkpt lat="40.7384230" lon="0.2000030">
        <ele>1095.2</ele>
        <time>2013-05-12T09:36:21Z</time>
      </trkpt>
      <trkpt lat="40.7381800" lon="0.2001610">
        <ele>1095.2</ele>
        <time>2013-05-12T09:36:28Z</time>
      </trkpt>
      <trkpt lat="40.7380990" lon="0.2002020">
        <ele>1095.1</ele>
        <time>2013-05-12T09:36:30Z</time>
      </trkpt>
      <trkpt lat="40.7379750" lon="0.2002890">
        <ele>1094.9</ele>
        <time>2013-05-12T09:36:33Z</time>
      </trkpt>
      <trkpt lat="40.7378580" lon="0.2004370">
        <ele>1095.7</ele>
        <time>2013-05-12T09:36:37Z</time>
      </trkpt>
      <trkpt lat="40.7377760" lon="0.2005960">
        <ele>1095.7</ele>
        <time>2013-05-12T09:36:40Z</time>
      </trkpt>
      <trkpt lat="40.7375990" lon="0.2010460">
        <ele>1094.9</ele>
        <time>2013-05-12T09:36:47Z</time>
      </trkpt>
      <trkpt lat="40.7375610" lon="0.2011630">
        <ele>1095.2</ele>
        <time>2013-05-12T09:36:49Z</time>
      </trkpt>
      <trkpt lat="40.7374780" lon="0.2014350">
        <ele>1095.1</ele>
        <time>2013-05-12T09:36:53Z</time>
      </trkpt>
      <trkpt lat="40.7374180" lon="0.2016580">
        <ele>1094.9</ele>
        <time>2013-05-12T09:36:56Z</time>
      </trkpt>
      <trkpt lat="40.7373430" lon="0.2019550">
        <ele>1095.1</ele>
        <time>2013-05-12T09:37:00Z</time>
      </trkpt>
      <trkpt lat="40.7371670" lon="0.2022210">
        <ele>1095.1</ele>
        <time>2013-05-12T09:37:05Z</time>
      </trkpt>
      <trkpt lat="40.7366910" lon="0.2025500">
        <ele>1095.5</ele>
        <time>2013-05-12T09:37:15Z</time>
      </trkpt>
      <trkpt lat="40.7363760" lon="0.2028140">
        <ele>1096.1</ele>
        <time>2013-05-12T09:37:22Z</time>
      </trkpt>
      <trkpt lat="40.7361940" lon="0.2029460">
        <ele>1096.7</ele>
        <time>2013-05-12T09:37:26Z</time>
      </trkpt>
      <trkpt lat="40.7359640" lon="0.2030690">
        <ele>1097.8</ele>
        <time>2013-05-12T09:37:31Z</time>
      </trkpt>
      <trkpt lat="40.7357740" lon="0.2031430">
        <ele>1098.0</ele>
        <time>2013-05-12T09:37:35Z</time>
      </trkpt>
      <trkpt lat="40.7354460" lon="0.2031730">
        <ele>1098.8</ele>
        <time>2013-05-12T09:37:42Z</time>
      </trkpt>
      <trkpt lat="40.7351090" lon="0.2031670">
        <ele>1099.7</ele>
        <time>2013-05-12T09:37:49Z</time>
      </trkpt>
      <trkpt lat="40.7349140" lon="0.2031200">
        <ele>1100.1</ele>
        <time>2013-05-12T09:37:53Z</time>
      </trkpt>
      <trkpt lat="40.7345490" lon="0.2029040">
        <ele>1101.1</ele>
        <time>2013-05-12T09:38:01Z</time>
      </trkpt>
      <trkpt lat="40.7344070" lon="0.2028510">
        <ele>1101.7</ele>
        <time>2013-05-12T09:38:04Z</time>
      </trkpt>
      <trkpt lat="40.7341430" lon="0.2028750">
        <ele>1102.0</ele>
        <time>2013-05-12T09:38:09Z</time>
      </trkpt>
      <trkpt lat="40.7338820" lon="0.2029720">
        <ele>1102.8</ele>
        <time>2013-05-12T09:38:15Z</time>
      </trkpt>
      <trkpt lat="40.7336940" lon="0.2030110">
        <ele>1104.2</ele>
        <time>2013-05-12T09:38:21Z</time>
      </trkpt>
      <trkpt lat="40.7335260" lon="0.2029530">
        <ele>1104.2</ele>
        <time>2013-05-12T09:38:26Z</time>
      </trkpt>
      <trkpt lat="40.7332920" lon="0.2028380">
        <ele>1104.9</ele>
        <time>2013-05-12T09:38:33Z</time>
      </trkpt>
      <trkpt lat="40.7330590" lon="0.2027220">
        <ele>1105.9</ele>
        <time>2013-05-12T09:38:40Z</time>
      </trkpt>
      <trkpt lat="40.7328020" lon="0.2026790">
        <ele>1106.7</ele>
        <time>2013-05-12T09:38:47Z</time>
      </trkpt>
      <trkpt lat="40.7326350" lon="0.2027780">
        <ele>1107.1</ele>
        <time>2013-05-12T09:38:52Z</time>
      </trkpt>
      <trkpt lat="40.7324120" lon="0.2029890">
        <ele>1108.0</ele>
        <time>2013-05-12T09:38:59Z</time>
      </trkpt>
      <trkpt lat="40.7322820" lon="0.2032380">
        <ele>1109.0</ele>
        <time>2013-05-12T09:39:05Z</time>
      </trkpt>
      <trkpt lat="40.7321780" lon="0.2034680">
        <ele>1110.2</ele>
        <time>2013-05-12T09:39:11Z</time>
      </trkpt>
      <trkpt lat="40.7320980" lon="0.2036150">
        <ele>1111.0</ele>
        <time>2013-05-12T09:39:15Z</time>
      </trkpt>
      <trkpt lat="40.7319210" lon="0.2037820">
        <ele>1111.8</ele>
        <time>2013-05-12T09:39:21Z</time>
      </trkpt>
      <trkpt lat="40.7317380" lon="0.2038800">
        <ele>1112.6</ele>
        <time>2013-05-12T09:39:27Z</time>
      </trkpt>
      <trkpt lat="40.7316000" lon="0.2039600">
        <ele>1113.6</ele>
        <time>2013-05-12T09:39:32Z</time>
      </trkpt>
      <trkpt lat="40.7314350" lon="0.2040530">
        <ele>1114.8</ele>
        <time>2013-05-12T09:39:38Z</time>
      </trkpt>
      <trkpt lat="40.7313360" lon="0.2041210">
        <ele>1115.8</ele>
        <time>2013-05-12T09:39:44Z</time>
      </trkpt>
      <trkpt lat="40.7312570" lon="0.2041800">
        <ele>1116.8</ele>
        <time>2013-05-12T09:39:50Z</time>
      </trkpt>
      <trkpt lat="40.7312560" lon="0.2041870">
        <ele>1116.8</ele>
        <time>2013-05-12T09:39:51Z</time>
      </trkpt>
      <trkpt lat="40.7313260" lon="0.2041430">
        <ele>1116.8</ele>
        <time>2013-05-12T09:39:56Z</time>
      </trkpt>
      <trkpt lat="40.7315000" lon="0.2039930">
        <ele>1116.6</ele>
        <time>2013-05-12T09:40:01Z</time>
      </trkpt>
      <trkpt lat="40.7315480" lon="0.2039630">
        <ele>1116.5</ele>
        <time>2013-05-12T09:40:02Z</time>
      </trkpt>
      <trkpt lat="40.7317660" lon="0.2038560">
        <ele>1115.1</ele>
        <time>2013-05-12T09:40:06Z</time>
      </trkpt>
      <trkpt lat="40.7318620" lon="0.2038100">
        <ele>1114.3</ele>
        <time>2013-05-12T09:40:08Z</time>
      </trkpt>
      <trkpt lat="40.7320410" lon="0.2036910">
        <ele>1112.8</ele>
        <time>2013-05-12T09:40:13Z</time>
      </trkpt>
      <trkpt lat="40.7321150" lon="0.2036000">
        <ele>1112.5</ele>
        <time>2013-05-12T09:40:16Z</time>
      </trkpt>
      <trkpt lat="40.7321560" lon="0.2035360">
        <ele>1112.4</ele>
        <time>2013-05-12T09:40:18Z</time>
      </trkpt>
      <trkpt lat="40.7322380" lon="0.2033620">
        <ele>1111.5</ele>
        <time>2013-05-12T09:40:23Z</time>
      </trkpt>
      <trkpt lat="40.7322610" lon="0.2033130">
        <ele>1110.6</ele>
        <time>2013-05-12T09:40:26Z</time>
      </trkpt>
      <trkpt lat="40.7322680" lon="0.2033360">
        <ele>1110.2</ele>
        <time>2013-05-12T09:40:30Z</time>
      </trkpt>
      <trkpt lat="40.7322370" lon="0.2034060">
        <ele>1110.4</ele>
        <time>2013-05-12T09:40:36Z</time>
      </trkpt>
      <trkpt lat="40.7321860" lon="0.2035030">
        <ele>1110.9</ele>
        <time>2013-05-12T09:40:41Z</time>
      </trkpt>
      <trkpt lat="40.7321390" lon="0.2035900">
        <ele>1111.4</ele>
        <time>2013-05-12T09:40:44Z</time>
      </trkpt>
      <trkpt lat="40.7320170" lon="0.2037380">
        <ele>1111.9</ele>
        <time>2013-05-12T09:40:50Z</time>
      </trkpt>
      <trkpt lat="40.7319600" lon="0.2037740">
        <ele>1112.2</ele>
        <time>2013-05-12T09:40:52Z</time>
      </trkpt>
      <trkpt lat="40.7318130" lon="0.2038570">
        <ele>1112.7</ele>
        <time>2013-05-12T09:40:57Z</time>
      </trkpt>
      <trkpt lat="40.7316740" lon="0.2039320">
        <ele>1114.0</ele>
        <time>2013-05-12T09:41:02Z</time>
      </trkpt>
      <trkpt lat="40.7315310" lon="0.2040030">
        <ele>1114.7</ele>
        <time>2013-05-12T09:41:07Z</time>
      </trkpt>
      <trkpt lat="40.7312920" lon="0.2041730">
        <ele>1116.8</ele>
        <time>2013-05-12T09:41:16Z</time>
      </trkpt>
      <trkpt lat="40.7311730" lon="0.2042870">
        <ele>1117.4</ele>
        <time>2013-05-12T09:41:21Z</time>
      </trkpt>
      <trkpt lat="40.7310500" lon="0.2044100">
        <ele>1119.6</ele>
        <time>2013-05-12T09:41:27Z</time>
      </trkpt>
      <trkpt lat="40.7309680" lon="0.2044750">
        <ele>1121.6</ele>
        <time>2013-05-12T09:41:31Z</time>
      </trkpt>
      <trkpt lat="40.7308840" lon="0.2045280">
        <ele>1122.8</ele>
        <time>2013-05-12T09:41:35Z</time>
      </trkpt>
      <trkpt lat="40.7308010" lon="0.2045640">
        <ele>1123.7</ele>
        <time>2013-05-12T09:41:39Z</time>
      </trkpt>
      <trkpt lat="40.7306990" lon="0.2046150">
        <ele>1125.4</ele>
        <time>2013-05-12T09:41:45Z</time>
      </trkpt>
      <trkpt lat="40.7306850" lon="0.2046240">
        <ele>1125.7</ele>
        <time>2013-05-12T09:41:46Z</time>
      </trkpt>
      <trkpt lat="40.7306010" lon="0.2047510">
        <ele>1127.6</ele>
        <time>2013-05-12T09:41:54Z</time>
      </trkpt>
      <trkpt lat="40.7305820" lon="0.2047800">
        <ele>1128.3</ele>
        <time>2013-05-12T09:41:56Z</time>
      </trkpt>
      <trkpt lat="40.7306070" lon="0.2048840">
        <ele>1130.6</ele>
        <time>2013-05-12T09:42:02Z</time>
      </trkpt>
      <trkpt lat="40.7305900" lon="0.2049160">
        <ele>1131.4</ele>
        <time>2013-05-12T09:42:04Z</time>
      </trkpt>
      <trkpt lat="40.7305590" lon="0.2050190">
        <ele>1132.9</ele>
        <time>2013-05-12T09:42:10Z</time>
      </trkpt>
      <trkpt lat="40.7305390" lon="0.2050610">
        <ele>1133.5</ele>
        <time>2013-05-12T09:42:13Z</time>
      </trkpt>
      <trkpt lat="40.7304390" lon="0.2051570">
        <ele>1135.1</ele>
        <time>2013-05-12T09:42:21Z</time>
      </trkpt>
      <trkpt lat="40.7303800" lon="0.2052470">
        <ele>1137.1</ele>
        <time>2013-05-12T09:42:28Z</time>
      </trkpt>
      <trkpt lat="40.7303800" lon="0.2052580">
        <ele>1137.1</ele>
        <time>2013-05-12T09:42:29Z</time>
      </trkpt>
      <trkpt lat="40.7303880" lon="0.2053360">
        <ele>1137.5</ele>
        <time>2013-05-12T09:42:36Z</time>
      </trkpt>
      <trkpt lat="40.7303930" lon="0.2053390">
        <ele>1137.8</ele>
        <time>2013-05-12T09:42:38Z</time>
      </trkpt>
      <trkpt lat="40.7304040" lon="0.2053810">
        <ele>1137.6</ele>
        <time>2013-05-12T09:42:49Z</time>
      </trkpt>
      <trkpt lat="40.7304250" lon="0.2054700">
        <ele>1138.3</ele>
        <time>2013-05-12T09:42:55Z</time>
      </trkpt>
      <trkpt lat="40.7304570" lon="0.2056110">
        <ele>1139.4</ele>
        <time>2013-05-12T09:43:01Z</time>
      </trkpt>
      <trkpt lat="40.7305140" lon="0.2057750">
        <ele>1140.3</ele>
        <time>2013-05-12T09:43:07Z</time>
      </trkpt>
      <trkpt lat="40.7305490" lon="0.2059250">
        <ele>1141.4</ele>
        <time>2013-05-12T09:43:12Z</time>
      </trkpt>
      <trkpt lat="40.7305880" lon="0.2061350">
        <ele>1143.5</ele>
        <time>2013-05-12T09:43:19Z</time>
      </trkpt>
      <trkpt lat="40.7306290" lon="0.2063150">
        <ele>1144.2</ele>
        <time>2013-05-12T09:43:25Z</time>
      </trkpt>
      <trkpt lat="40.7307000" lon="0.2065030">
        <ele>1145.5</ele>
        <time>2013-05-12T09:43:31Z</time>
      </trkpt>
      <trkpt lat="40.7306780" lon="0.2066080">
        <ele>1145.8</ele>
        <time>2013-05-12T09:43:37Z</time>
      </trkpt>
      <trkpt lat="40.7306000" lon="0.2066270">
        <ele>1146.1</ele>
        <time>2013-05-12T09:43:42Z</time>
      </trkpt>
      <trkpt lat="40.7305570" lon="0.2066200">
        <ele>1146.5</ele>
        <time>2013-05-12T09:43:44Z</time>
      </trkpt>
      <trkpt lat="40.7304250" lon="0.2065240">
        <ele>1148.4</ele>
        <time>2013-05-12T09:43:51Z</time>
      </trkpt>
      <trkpt lat="40.7303640" lon="0.2064630">
        <ele>1149.1</ele>
        <time>2013-05-12T09:43:54Z</time>
      </trkpt>
      <trkpt lat="40.7302400" lon="0.2063080">
        <ele>1150.2</ele>
        <time>2013-05-12T09:44:01Z</time>
      </trkpt>
      <trkpt lat="40.7301270" lon="0.2061840">
        <ele>1151.4</ele>
        <time>2013-05-12T09:44:07Z</time>
      </trkpt>
      <trkpt lat="40.7300910" lon="0.2060560">
        <ele>1152.1</ele>
        <time>2013-05-12T09:44:11Z</time>
      </trkpt>
      <trkpt lat="40.7300170" lon="0.2059660">
        <ele>1152.5</ele>
        <time>2013-05-12T09:44:15Z</time>
      </trkpt>
      <trkpt lat="40.7298390" lon="0.2056950">
        <ele>1152.7</ele>
        <time>2013-05-12T09:44:23Z</time>
      </trkpt>
      <trkpt lat="40.7297280" lon="0.2055550">
        <ele>1153.7</ele>
        <time>2013-05-12T09:44:27Z</time>
      </trkpt>
      <trkpt lat="40.7295560" lon="0.2053200">
        <ele>1153.9</ele>
        <time>2013-05-12T09:44:33Z</time>
      </trkpt>
      <trkpt lat="40.7294120" lon="0.2050710">
        <ele>1153.8</ele>
        <time>2013-05-12T09:44:39Z</time>
      </trkpt>
      <trkpt lat="40.7293350" lon="0.2048460">
        <ele>1154.9</ele>
        <time>2013-05-12T09:44:45Z</time>
      </trkpt>
      <trkpt lat="40.7292630" lon="0.2046520">
        <ele>1154.4</ele>
        <time>2013-05-12T09:44:49Z</time>
      </trkpt>
      <trkpt lat="40.7291110" lon="0.2043570">
        <ele>1153.5</ele>
        <time>2013-05-12T09:44:55Z</time>
      </trkpt>
      <trkpt lat="40.7290860" lon="0.2043150">
        <ele>1153.3</ele>
        <time>2013-05-12T09:44:56Z</time>
      </trkpt>
      <trkpt lat="40.7288570" lon="0.2039460">
        <ele>1153.4</ele>
        <time>2013-05-12T09:45:04Z</time>
      </trkpt>
      <trkpt lat="40.7286980" lon="0.2036650">
        <ele>1153.4</ele>
        <time>2013-05-12T09:45:10Z</time>
      </trkpt>
      <trkpt lat="40.7285540" lon="0.2035530">
        <ele>1154.5</ele>
        <time>2013-05-12T09:45:15Z</time>
      </trkpt>
      <trkpt lat="40.7284650" lon="0.2035140">
        <ele>1155.4</ele>
        <time>2013-05-12T09:45:18Z</time>
      </trkpt>
      <trkpt lat="40.7284070" lon="0.2035100">
        <ele>1155.7</ele>
        <time>2013-05-12T09:45:20Z</time>
      </trkpt>
      <trkpt lat="40.7283750" lon="0.2035050">
        <ele>1155.9</ele>
        <time>2013-05-12T09:45:21Z</time>
      </trkpt>
      <trkpt lat="40.7283170" lon="0.2034810">
        <ele>1156.4</ele>
        <time>2013-05-12T09:45:23Z</time>
      </trkpt>
      <trkpt lat="40.7282560" lon="0.2032770">
        <ele>1156.7</ele>
        <time>2013-05-12T09:45:28Z</time>
      </trkpt>
      <trkpt lat="40.7282400" lon="0.2031300">
        <ele>1157.0</ele>
        <time>2013-05-12T09:45:31Z</time>
      </trkpt>
      <trkpt lat="40.7281920" lon="0.2029520">
        <ele>1157.6</ele>
        <time>2013-05-12T09:45:36Z</time>
      </trkpt>
      <trkpt lat="40.7281900" lon="0.2027690">
        <ele>1158.7</ele>
        <time>2013-05-12T09:45:41Z</time>
      </trkpt>
      <trkpt lat="40.7281920" lon="0.2027320">
        <ele>1158.7</ele>
        <time>2013-05-12T09:45:42Z</time>
      </trkpt>
      <trkpt lat="40.7281590" lon="0.2025320">
        <ele>1160.7</ele>
        <time>2013-05-12T09:45:48Z</time>
      </trkpt>
      <trkpt lat="40.7281490" lon="0.2024720">
        <ele>1161.5</ele>
        <time>2013-05-12T09:45:50Z</time>
      </trkpt>
      <trkpt lat="40.7281180" lon="0.2023950">
        <ele>1162.2</ele>
        <time>2013-05-12T09:45:53Z</time>
      </trkpt>
      <trkpt lat="40.7280930" lon="0.2022780">
        <ele>1162.5</ele>
        <time>2013-05-12T09:45:57Z</time>
      </trkpt>
      <trkpt lat="40.7281560" lon="0.2021290">
        <ele>1163.7</ele>
        <time>2013-05-12T09:46:02Z</time>
      </trkpt>
      <trkpt lat="40.7281810" lon="0.2020920">
        <ele>1164.4</ele>
        <time>2013-05-12T09:46:05Z</time>
      </trkpt>
      <trkpt lat="40.7281780" lon="0.2020940">
        <ele>1164.6</ele>
        <time>2013-05-12T09:46:06Z</time>
      </trkpt>
      <trkpt lat="40.7282070" lon="0.2020600">
        <ele>1165.9</ele>
        <time>2013-05-12T09:46:14Z</time>
      </trkpt>
      <trkpt lat="40.7282200" lon="0.2020560">
        <ele>1166.8</ele>
        <time>2013-05-12T09:46:17Z</time>
      </trkpt>
      <trkpt lat="40.7282500" lon="0.2020640">
        <ele>1167.1</ele>
        <time>2013-05-12T09:46:22Z</time>
      </trkpt>
      <trkpt lat="40.7282980" lon="0.2020390">
        <ele>1167.9</ele>
        <time>2013-05-12T09:46:29Z</time>
      </trkpt>
      <trkpt lat="40.7283340" lon="0.2020150">
        <ele>1168.5</ele>
        <time>2013-05-12T09:46:34Z</time>
      </trkpt>
      <trkpt lat="40.7283710" lon="0.2019800">
        <ele>1169.5</ele>
        <time>2013-05-12T09:46:41Z</time>
      </trkpt>
      <trkpt lat="40.7283740" lon="0.2019820">
        <ele>1169.8</ele>
        <time>2013-05-12T09:46:43Z</time>
      </trkpt>
      <trkpt lat="40.7283870" lon="0.2019810">
        <ele>1170.1</ele>
        <time>2013-05-12T09:46:49Z</time>
      </trkpt>
      <trkpt lat="40.7283910" lon="0.2019790">
        <ele>1170.3</ele>
        <time>2013-05-12T09:46:50Z</time>
      </trkpt>
      <trkpt lat="40.7283950" lon="0.2019780">
        <ele>1170.6</ele>
        <time>2013-05-12T09:46:51Z</time>
      </trkpt>
      <trkpt lat="40.7284260" lon="0.2019600">
        <ele>1171.8</ele>
        <time>2013-05-12T09:46:59Z</time>
      </trkpt>
      <trkpt lat="40.7284340" lon="0.2019600">
        <ele>1171.7</ele>
        <time>2013-05-12T09:47:02Z</time>
      </trkpt>
      <trkpt lat="40.7284790" lon="0.2019440">
        <ele>1172.3</ele>
        <time>2013-05-12T09:47:15Z</time>
      </trkpt>
      <trkpt lat="40.7285040" lon="0.2018900">
        <ele>1172.6</ele>
        <time>2013-05-12T09:47:20Z</time>
      </trkpt>
      <trkpt lat="40.7284930" lon="0.2018590">
        <ele>1173.1</ele>
        <time>2013-05-12T09:47:23Z</time>
      </trkpt>
      <trkpt lat="40.7284560" lon="0.2018370">
        <ele>1174.6</ele>
        <time>2013-05-12T09:47:30Z</time>
      </trkpt>
      <trkpt lat="40.7284130" lon="0.2018470">
        <ele>1174.8</ele>
        <time>2013-05-12T09:47:36Z</time>
      </trkpt>
      <trkpt lat="40.7284050" lon="0.2018400">
        <ele>1175.1</ele>
        <time>2013-05-12T09:47:38Z</time>
      </trkpt>
      <trkpt lat="40.7283700" lon="0.2018190">
        <ele>1176.0</ele>
        <time>2013-05-12T09:47:43Z</time>
      </trkpt>
      <trkpt lat="40.7283300" lon="0.2017920">
        <ele>1176.9</ele>
        <time>2013-05-12T09:47:48Z</time>
      </trkpt>
      <trkpt lat="40.7282820" lon="0.2017750">
        <ele>1178.2</ele>
        <time>2013-05-12T09:47:55Z</time>
      </trkpt>
      <trkpt lat="40.7282520" lon="0.2017550">
        <ele>1179.0</ele>
        <time>2013-05-12T09:48:00Z</time>
      </trkpt>
      <trkpt lat="40.7282500" lon="0.2017100">
        <ele>1179.9</ele>
        <time>2013-05-12T09:48:05Z</time>
      </trkpt>
      <trkpt lat="40.7282650" lon="0.2016390">
        <ele>1181.8</ele>
        <time>2013-05-12T09:48:13Z</time>
      </trkpt>
      <trkpt lat="40.7282820" lon="0.2016250">
        <ele>1182.6</ele>
        <time>2013-05-12T09:48:16Z</time>
      </trkpt>
      <trkpt lat="40.7283130" lon="0.2016180">
        <ele>1183.3</ele>
        <time>2013-05-12T09:48:21Z</time>
      </trkpt>
      <trkpt lat="40.7283540" lon="0.2016200">
        <ele>1183.3</ele>
        <time>2013-05-12T09:48:32Z</time>
      </trkpt>
      <trkpt lat="40.7284120" lon="0.2016220">
        <ele>1184.9</ele>
        <time>2013-05-12T09:48:37Z</time>
      </trkpt>
      <trkpt lat="40.7284270" lon="0.2015950">
        <ele>1185.8</ele>
        <time>2013-05-12T09:48:44Z</time>
      </trkpt>
      <trkpt lat="40.7284560" lon="0.2015930">
        <ele>1186.4</ele>
        <time>2013-05-12T09:48:48Z</time>
      </trkpt>
      <trkpt lat="40.7284720" lon="0.2015910">
        <ele>1186.7</ele>
        <time>2013-05-12T09:48:50Z</time>
      </trkpt>
      <trkpt lat="40.7284860" lon="0.2015110">
        <ele>1188.3</ele>
        <time>2013-05-12T09:48:59Z</time>
      </trkpt>
      <trkpt lat="40.7284890" lon="0.2014740">
        <ele>1189.0</ele>
        <time>2013-05-12T09:49:04Z</time>
      </trkpt>
      <trkpt lat="40.7284830" lon="0.2014330">
        <ele>1189.7</ele>
        <time>2013-05-12T09:49:10Z</time>
      </trkpt>
      <trkpt lat="40.7284820" lon="0.2014130">
        <ele>1189.7</ele>
        <time>2013-05-12T09:49:12Z</time>
      </trkpt>
      <trkpt lat="40.7284610" lon="0.2013590">
        <ele>1190.4</ele>
        <time>2013-05-12T09:49:19Z</time>
      </trkpt>
      <trkpt lat="40.7284480" lon="0.2013190">
        <ele>1190.6</ele>
        <time>2013-05-12T09:49:23Z</time>
      </trkpt>
      <trkpt lat="40.7284470" lon="0.2012700">
        <ele>1190.9</ele>
        <time>2013-05-12T09:49:29Z</time>
      </trkpt>
      <trkpt lat="40.7284500" lon="0.2012170">
        <ele>1190.7</ele>
        <time>2013-05-12T09:49:49Z</time>
      </trkpt>
      <trkpt lat="40.7284890" lon="0.2010940">
        <ele>1191.9</ele>
        <time>2013-05-12T09:49:55Z</time>
      </trkpt>
      <trkpt lat="40.7285230" lon="0.2009750">
        <ele>1193.8</ele>
        <time>2013-05-12T09:50:01Z</time>
      </trkpt>
      <trkpt lat="40.7285470" lon="0.2008970">
        <ele>1195.3</ele>
        <time>2013-05-12T09:50:05Z</time>
      </trkpt>
      <trkpt lat="40.7285460" lon="0.2008620">
        <ele>1196.1</ele>
        <time>2013-05-12T09:50:07Z</time>
      </trkpt>
      <trkpt lat="40.7285410" lon="0.2008460">
        <ele>1196.6</ele>
        <time>2013-05-12T09:50:08Z</time>
      </trkpt>
      <trkpt lat="40.7285360" lon="0.2008290">
        <ele>1196.9</ele>
        <time>2013-05-12T09:50:09Z</time>
      </trkpt>
      <trkpt lat="40.7285290" lon="0.2008110">
        <ele>1197.4</ele>
        <time>2013-05-12T09:50:10Z</time>
      </trkpt>
      <trkpt lat="40.7284990" lon="0.2007860">
        <ele>1198.4</ele>
        <time>2013-05-12T09:50:13Z</time>
      </trkpt>
      <trkpt lat="40.7284880" lon="0.2007770">
        <ele>1198.4</ele>
        <time>2013-05-12T09:50:15Z</time>
      </trkpt>
      <trkpt lat="40.7284630" lon="0.2007620">
        <ele>1198.3</ele>
        <time>2013-05-12T09:50:17Z</time>
      </trkpt>
      <trkpt lat="40.7283530" lon="0.2006800">
        <ele>1197.9</ele>
        <time>2013-05-12T09:50:22Z</time>
      </trkpt>
      <trkpt lat="40.7282520" lon="0.2006670">
        <ele>1197.7</ele>
        <time>2013-05-12T09:50:26Z</time>
      </trkpt>
      <trkpt lat="40.7281710" lon="0.2006600">
        <ele>1198.5</ele>
        <time>2013-05-12T09:50:30Z</time>
      </trkpt>
      <trkpt lat="40.7280960" lon="0.2006690">
        <ele>1198.7</ele>
        <time>2013-05-12T09:50:35Z</time>
      </trkpt>
      <trkpt lat="40.7280910" lon="0.2006700">
        <ele>1198.9</ele>
        <time>2013-05-12T09:50:36Z</time>
      </trkpt>
      <trkpt lat="40.7280280" lon="0.2006610">
        <ele>1200.2</ele>
        <time>2013-05-12T09:50:43Z</time>
      </trkpt>
      <trkpt lat="40.7279930" lon="0.2006760">
        <ele>1201.3</ele>
        <time>2013-05-12T09:50:48Z</time>
      </trkpt>
      <trkpt lat="40.7279420" lon="0.2007430">
        <ele>1201.6</ele>
        <time>2013-05-12T09:50:55Z</time>
      </trkpt>
      <trkpt lat="40.7279250" lon="0.2008040">
        <ele>1202.5</ele>
        <time>2013-05-12T09:51:00Z</time>
      </trkpt>
      <trkpt lat="40.7279160" lon="0.2008490">
        <ele>1203.7</ele>
        <time>2013-05-12T09:51:05Z</time>
      </trkpt>
      <trkpt lat="40.7278870" lon="0.2008890">
        <ele>1204.7</ele>
        <time>2013-05-12T09:51:12Z</time>
      </trkpt>
      <trkpt lat="40.7278730" lon="0.2008990">
        <ele>1204.8</ele>
        <time>2013-05-12T09:51:19Z</time>
      </trkpt>
      <trkpt lat="40.7278470" lon="0.2009030">
        <ele>1205.7</ele>
        <time>2013-05-12T09:51:23Z</time>
      </trkpt>
      <trkpt lat="40.7278010" lon="0.2009280">
        <ele>1207.1</ele>
        <time>2013-05-12T09:51:29Z</time>
      </trkpt>
      <trkpt lat="40.7277350" lon="0.2008920">
        <ele>1208.0</ele>
        <time>2013-05-12T09:51:36Z</time>
      </trkpt>
      <trkpt lat="40.7277340" lon="0.2008920">
        <ele>1208.1</ele>
        <time>2013-05-12T09:51:37Z</time>
      </trkpt>
      <trkpt lat="40.7277160" lon="0.2008680">
        <ele>1208.0</ele>
        <time>2013-05-12T09:51:41Z</time>
      </trkpt>
      <trkpt lat="40.7277100" lon="0.2008520">
        <ele>1208.1</ele>
        <time>2013-05-12T09:51:42Z</time>
      </trkpt>
      <trkpt lat="40.7277080" lon="0.2007570">
        <ele>1208.4</ele>
        <time>2013-05-12T09:51:47Z</time>
      </trkpt>
      <trkpt lat="40.7276460" lon="0.2006070">
        <ele>1210.2</ele>
        <time>2013-05-12T09:51:54Z</time>
      </trkpt>
      <trkpt lat="40.7276100" lon="0.2005210">
        <ele>1212.4</ele>
        <time>2013-05-12T09:51:58Z</time>
      </trkpt>
      <trkpt lat="40.7275820" lon="0.2004630">
        <ele>1213.1</ele>
        <time>2013-05-12T09:52:01Z</time>
      </trkpt>
      <trkpt lat="40.7275520" lon="0.2003990">
        <ele>1214.3</ele>
        <time>2013-05-12T09:52:04Z</time>
      </trkpt>
      <trkpt lat="40.7275340" lon="0.2003540">
        <ele>1215.4</ele>
        <time>2013-05-12T09:52:06Z</time>
      </trkpt>
      <trkpt lat="40.7275080" lon="0.2003030">
        <ele>1216.2</ele>
        <time>2013-05-12T09:52:09Z</time>
      </trkpt>
      <trkpt lat="40.7274090" lon="0.2001160">
        <ele>1215.8</ele>
        <time>2013-05-12T09:52:16Z</time>
      </trkpt>
      <trkpt lat="40.7273290" lon="0.1999530">
        <ele>1215.8</ele>
        <time>2013-05-12T09:52:22Z</time>
      </trkpt>
      <trkpt lat="40.7272730" lon="0.1998220">
        <ele>1214.6</ele>
        <time>2013-05-12T09:52:26Z</time>
      </trkpt>
      <trkpt lat="40.7272720" lon="0.1998170">
        <ele>1214.3</ele>
        <time>2013-05-12T09:52:27Z</time>
      </trkpt>
      <trkpt lat="40.7272120" lon="0.1997580">
        <ele>1213.9</ele>
        <time>2013-05-12T09:52:42Z</time>
      </trkpt>
      <trkpt lat="40.7271430" lon="0.1996440">
        <ele>1213.8</ele>
        <time>2013-05-12T09:52:45Z</time>
      </trkpt>
      <trkpt lat="40.7270550" lon="0.1995640">
        <ele>1213.5</ele>
        <time>2013-05-12T09:52:48Z</time>
      </trkpt>
      <trkpt lat="40.7269800" lon="0.1994950">
        <ele>1212.9</ele>
        <time>2013-05-12T09:52:50Z</time>
      </trkpt>
      <trkpt lat="40.7268010" lon="0.1992930">
        <ele>1212.7</ele>
        <time>2013-05-12T09:52:55Z</time>
      </trkpt>
      <trkpt lat="40.7268050" lon="0.1991920">
        <ele>1213.0</ele>
        <time>2013-05-12T09:52:58Z</time>
      </trkpt>
      <trkpt lat="40.7268240" lon="0.1991620">
        <ele>1213.3</ele>
        <time>2013-05-12T09:52:59Z</time>
      </trkpt>
      <trkpt lat="40.7268610" lon="0.1989740">
        <ele>1215.6</ele>
        <time>2013-05-12T09:53:04Z</time>
      </trkpt>
      <trkpt lat="40.7268340" lon="0.1988920">
        <ele>1216.9</ele>
        <time>2013-05-12T09:53:07Z</time>
      </trkpt>
      <trkpt lat="40.7268280" lon="0.1988580">
        <ele>1218.4</ele>
        <time>2013-05-12T09:53:11Z</time>
      </trkpt>
      <trkpt lat="40.7268020" lon="0.1988030">
        <ele>1218.9</ele>
        <time>2013-05-12T09:53:15Z</time>
      </trkpt>
      <trkpt lat="40.7267950" lon="0.1987620">
        <ele>1219.4</ele>
        <time>2013-05-12T09:53:19Z</time>
      </trkpt>
      <trkpt lat="40.7267840" lon="0.1987400">
        <ele>1219.9</ele>
        <time>2013-05-12T09:53:23Z</time>
      </trkpt>
      <trkpt lat="40.7268010" lon="0.1986430">
        <ele>1222.0</ele>
        <time>2013-05-12T09:53:34Z</time>
      </trkpt>
      <trkpt lat="40.7267960" lon="0.1985990">
        <ele>1223.3</ele>
        <time>2013-05-12T09:53:39Z</time>
      </trkpt>
      <trkpt lat="40.7268090" lon="0.1985420">
        <ele>1224.9</ele>
        <time>2013-05-12T09:53:45Z</time>
      </trkpt>
      <trkpt lat="40.7268210" lon="0.1985220">
        <ele>1225.4</ele>
        <time>2013-05-12T09:53:47Z</time>
      </trkpt>
      <trkpt lat="40.7268200" lon="0.1984460">
        <ele>1226.1</ele>
        <time>2013-05-12T09:53:53Z</time>
      </trkpt>
      <trkpt lat="40.7268170" lon="0.1984290">
        <ele>1226.2</ele>
        <time>2013-05-12T09:53:57Z</time>
      </trkpt>
      <trkpt lat="40.7267610" lon="0.1982990">
        <ele>1226.0</ele>
        <time>2013-05-12T09:54:05Z</time>
      </trkpt>
      <trkpt lat="40.7267330" lon="0.1982190">
        <ele>1225.8</ele>
        <time>2013-05-12T09:54:07Z</time>
      </trkpt>
      <trkpt lat="40.7267000" lon="0.1980870">
        <ele>1226.5</ele>
        <time>2013-05-12T09:54:11Z</time>
      </trkpt>
      <trkpt lat="40.7267010" lon="0.1980600">
        <ele>1226.8</ele>
        <time>2013-05-12T09:54:12Z</time>
      </trkpt>
      <trkpt lat="40.7268110" lon="0.1980040">
        <ele>1228.4</ele>
        <time>2013-05-12T09:54:18Z</time>
      </trkpt>
      <trkpt lat="40.7268620" lon="0.1979990">
        <ele>1229.3</ele>
        <time>2013-05-12T09:54:21Z</time>
      </trkpt>
      <trkpt lat="40.7269500" lon="0.1979910">
        <ele>1231.4</ele>
        <time>2013-05-12T09:54:27Z</time>
      </trkpt>
      <trkpt lat="40.7270600" lon="0.1979470">
        <ele>1234.3</ele>
        <time>2013-05-12T09:54:35Z</time>
      </trkpt>
      <trkpt lat="40.7271530" lon="0.1979090">
        <ele>1236.8</ele>
        <time>2013-05-12T09:54:41Z</time>
      </trkpt>
      <trkpt lat="40.7271940" lon="0.1979040">
        <ele>1238.0</ele>
        <time>2013-05-12T09:54:45Z</time>
      </trkpt>
      <trkpt lat="40.7272060" lon="0.1979120">
        <ele>1238.4</ele>
        <time>2013-05-12T09:54:49Z</time>
      </trkpt>
      <trkpt lat="40.7272060" lon="0.1979120">
        <ele>1238.5</ele>
        <time>2013-05-12T09:54:50Z</time>
      </trkpt>
      <trkpt lat="40.7272520" lon="0.1979010">
        <ele>1239.9</ele>
        <time>2013-05-12T09:55:00Z</time>
      </trkpt>
      <trkpt lat="40.7272670" lon="0.1978980">
        <ele>1240.2</ele>
        <time>2013-05-12T09:55:03Z</time>
      </trkpt>
      <trkpt lat="40.7272930" lon="0.1978900">
        <ele>1240.4</ele>
        <time>2013-05-12T09:55:11Z</time>
      </trkpt>
      <trkpt lat="40.7273830" lon="0.1979230">
        <ele>1241.9</ele>
        <time>2013-05-12T09:55:16Z</time>
      </trkpt>
      <trkpt lat="40.7274630" lon="0.1980230">
        <ele>1243.1</ele>
        <time>2013-05-12T09:55:21Z</time>
      </trkpt>
      <trkpt lat="40.7275180" lon="0.1981530">
        <ele>1243.7</ele>
        <time>2013-05-12T09:55:26Z</time>
      </trkpt>
      <trkpt lat="40.7276580" lon="0.1982880">
        <ele>1244.3</ele>
        <time>2013-05-12T09:55:33Z</time>
      </trkpt>
      <trkpt lat="40.7277960" lon="0.1984100">
        <ele>1244.8</ele>
        <time>2013-05-12T09:55:39Z</time>
      </trkpt>
      <trkpt lat="40.7279010" lon="0.1984380">
        <ele>1245.2</ele>
        <time>2013-05-12T09:55:44Z</time>
      </trkpt>
      <trkpt lat="40.7280100" lon="0.1984640">
        <ele>1247.1</ele>
        <time>2013-05-12T09:55:49Z</time>
      </trkpt>
      <trkpt lat="40.7281030" lon="0.1984310">
        <ele>1249.0</ele>
        <time>2013-05-12T09:55:54Z</time>
      </trkpt>
      <trkpt lat="40.7281300" lon="0.1984070">
        <ele>1249.5</ele>
        <time>2013-05-12T09:55:57Z</time>
      </trkpt>
      <trkpt lat="40.7281530" lon="0.1983930">
        <ele>1250.0</ele>
        <time>2013-05-12T09:56:00Z</time>
      </trkpt>
      <trkpt lat="40.7281870" lon="0.1983790">
        <ele>1250.3</ele>
        <time>2013-05-12T09:56:05Z</time>
      </trkpt>
      <trkpt lat="40.7281880" lon="0.1983770">
        <ele>1250.2</ele>
        <time>2013-05-12T09:56:06Z</time>
      </trkpt>
      <trkpt lat="40.7282440" lon="0.1983400">
        <ele>1250.5</ele>
        <time>2013-05-12T09:56:12Z</time>
      </trkpt>
      <trkpt lat="40.7282810" lon="0.1982510">
        <ele>1252.0</ele>
        <time>2013-05-12T09:56:17Z</time>
      </trkpt>
      <trkpt lat="40.7283430" lon="0.1980910">
        <ele>1253.6</ele>
        <time>2013-05-12T09:56:24Z</time>
      </trkpt>
      <trkpt lat="40.7283530" lon="0.1979820">
        <ele>1254.7</ele>
        <time>2013-05-12T09:56:30Z</time>
      </trkpt>
      <trkpt lat="40.7283330" lon="0.1978770">
        <ele>1255.5</ele>
        <time>2013-05-12T09:56:35Z</time>
      </trkpt>
      <trkpt lat="40.7283260" lon="0.1978560">
        <ele>1255.8</ele>
        <time>2013-05-12T09:56:36Z</time>
      </trkpt>
      <trkpt lat="40.7283310" lon="0.1977460">
        <ele>1256.1</ele>
        <time>2013-05-12T09:56:40Z</time>
      </trkpt>
      <trkpt lat="40.7282010" lon="0.1975670">
        <ele>1255.4</ele>
        <time>2013-05-12T09:56:47Z</time>
      </trkpt>
      <trkpt lat="40.7281350" lon="0.1974410">
        <ele>1255.6</ele>
        <time>2013-05-12T09:56:52Z</time>
      </trkpt>
      <trkpt lat="40.7281150" lon="0.1973490">
        <ele>1255.4</ele>
        <time>2013-05-12T09:56:54Z</time>
      </trkpt>
      <trkpt lat="40.7281190" lon="0.1971260">
        <ele>1253.8</ele>
        <time>2013-05-12T09:56:58Z</time>
      </trkpt>
      <trkpt lat="40.7281300" lon="0.1970770">
        <ele>1253.5</ele>
        <time>2013-05-12T09:56:59Z</time>
      </trkpt>
      <trkpt lat="40.7281430" lon="0.1970230">
        <ele>1253.1</ele>
        <time>2013-05-12T09:57:00Z</time>
      </trkpt>
      <trkpt lat="40.7281780" lon="0.1969130">
        <ele>1252.7</ele>
        <time>2013-05-12T09:57:02Z</time>
      </trkpt>
      <trkpt lat="40.7282300" lon="0.1966450">
        <ele>1252.6</ele>
        <time>2013-05-12T09:57:06Z</time>
      </trkpt>
      <trkpt lat="40.7282220" lon="0.1965270">
        <ele>1252.5</ele>
        <time>2013-05-12T09:57:08Z</time>
      </trkpt>
      <trkpt lat="40.7281060" lon="0.1963350">
        <ele>1250.5</ele>
        <time>2013-05-12T09:57:12Z</time>
      </trkpt>
      <trkpt lat="40.7280290" lon="0.1962070">
        <ele>1248.1</ele>
        <time>2013-05-12T09:57:15Z</time>
      </trkpt>
      <trkpt lat="40.7280250" lon="0.1960940">
        <ele>1246.4</ele>
        <time>2013-05-12T09:57:17Z</time>
      </trkpt>
      <trkpt lat="40.7280060" lon="0.1959790">
        <ele>1245.5</ele>
        <time>2013-05-12T09:57:19Z</time>
      </trkpt>
      <trkpt lat="40.7280150" lon="0.1958130">
        <ele>1245.5</ele>
        <time>2013-05-12T09:57:22Z</time>
      </trkpt>
      <trkpt lat="40.7280420" lon="0.1956830">
        <ele>1245.1</ele>
        <time>2013-05-12T09:57:24Z</time>
      </trkpt>
      <trkpt lat="40.7280280" lon="0.1954730">
        <ele>1243.6</ele>
        <time>2013-05-12T09:57:27Z</time>
      </trkpt>
      <trkpt lat="40.7279960" lon="0.1953590">
        <ele>1241.8</ele>
        <time>2013-05-12T09:57:29Z</time>
      </trkpt>
      <trkpt lat="40.7280550" lon="0.1951430">
        <ele>1238.2</ele>
        <time>2013-05-12T09:57:33Z</time>
      </trkpt>
      <trkpt lat="40.7281410" lon="0.1950900">
        <ele>1237.0</ele>
        <time>2013-05-12T09:57:35Z</time>
      </trkpt>
      <trkpt lat="40.7282040" lon="0.1950700">
        <ele>1237.2</ele>
        <time>2013-05-12T09:57:39Z</time>
      </trkpt>
      <trkpt lat="40.7282160" lon="0.1950580">
        <ele>1237.5</ele>
        <time>2013-05-12T09:57:43Z</time>
      </trkpt>
      <trkpt lat="40.7282410" lon="0.1950450">
        <ele>1237.9</ele>
        <time>2013-05-12T09:57:51Z</time>
      </trkpt>
      <trkpt lat="40.7282430" lon="0.1950430">
        <ele>1238.0</ele>
        <time>2013-05-12T09:57:52Z</time>
      </trkpt>
      <trkpt lat="40.7283210" lon="0.1950400">
        <ele>1239.3</ele>
        <time>2013-05-12T09:58:10Z</time>
      </trkpt>
      <trkpt lat="40.7284190" lon="0.1950810">
        <ele>1240.3</ele>
        <time>2013-05-12T09:58:15Z</time>
      </trkpt>
      <trkpt lat="40.7284400" lon="0.1950880">
        <ele>1240.4</ele>
        <time>2013-05-12T09:58:16Z</time>
      </trkpt>
      <trkpt lat="40.7284850" lon="0.1949690">
        <ele>1241.8</ele>
        <time>2013-05-12T09:58:21Z</time>
      </trkpt>
      <trkpt lat="40.7285000" lon="0.1949040">
        <ele>1242.0</ele>
        <time>2013-05-12T09:58:23Z</time>
      </trkpt>
      <trkpt lat="40.7285190" lon="0.1947270">
        <ele>1241.6</ele>
        <time>2013-05-12T09:58:27Z</time>
      </trkpt>
      <trkpt lat="40.7286020" lon="0.1943560">
        <ele>1242.0</ele>
        <time>2013-05-12T09:58:34Z</time>
      </trkpt>
      <trkpt lat="40.7286020" lon="0.1941500">
        <ele>1243.3</ele>
        <time>2013-05-12T09:58:39Z</time>
      </trkpt>
      <trkpt lat="40.7285870" lon="0.1939760">
        <ele>1242.8</ele>
        <time>2013-05-12T09:58:44Z</time>
      </trkpt>
      <trkpt lat="40.7285390" lon="0.1938620">
        <ele>1241.6</ele>
        <time>2013-05-12T09:58:49Z</time>
      </trkpt>
      <trkpt lat="40.7284820" lon="0.1936850">
        <ele>1239.6</ele>
        <time>2013-05-12T09:58:53Z</time>
      </trkpt>
      <trkpt lat="40.7284630" lon="0.1936390">
        <ele>1239.0</ele>
        <time>2013-05-12T09:58:54Z</time>
      </trkpt>
      <trkpt lat="40.7283880" lon="0.1933110">
        <ele>1235.1</ele>
        <time>2013-05-12T09:59:00Z</time>
      </trkpt>
      <trkpt lat="40.7283670" lon="0.1931980">
        <ele>1232.8</ele>
        <time>2013-05-12T09:59:03Z</time>
      </trkpt>
      <trkpt lat="40.7283580" lon="0.1931650">
        <ele>1232.8</ele>
        <time>2013-05-12T09:59:04Z</time>
      </trkpt>
      <trkpt lat="40.7283020" lon="0.1929530">
        <ele>1229.4</ele>
        <time>2013-05-12T09:59:08Z</time>
      </trkpt>
      <trkpt lat="40.7282600" lon="0.1928200">
        <ele>1227.7</ele>
        <time>2013-05-12T09:59:11Z</time>
      </trkpt>
      <trkpt lat="40.7282510" lon="0.1926880">
        <ele>1225.9</ele>
        <time>2013-05-12T09:59:14Z</time>
      </trkpt>
      <trkpt lat="40.7281660" lon="0.1925510">
        <ele>1223.4</ele>
        <time>2013-05-12T09:59:18Z</time>
      </trkpt>
      <trkpt lat="40.7281360" lon="0.1924680">
        <ele>1221.5</ele>
        <time>2013-05-12T09:59:21Z</time>
      </trkpt>
      <trkpt lat="40.7281010" lon="0.1924130">
        <ele>1219.7</ele>
        <time>2013-05-12T09:59:24Z</time>
      </trkpt>
      <trkpt lat="40.7280840" lon="0.1923690">
        <ele>1218.9</ele>
        <time>2013-05-12T09:59:26Z</time>
      </trkpt>
      <trkpt lat="40.7280740" lon="0.1922630">
        <ele>1216.9</ele>
        <time>2013-05-12T09:59:29Z</time>
      </trkpt>
      <trkpt lat="40.7280300" lon="0.1921620">
        <ele>1214.5</ele>
        <time>2013-05-12T09:59:33Z</time>
      </trkpt>
      <trkpt lat="40.7280230" lon="0.1920960">
        <ele>1212.5</ele>
        <time>2013-05-12T09:59:36Z</time>
      </trkpt>
      <trkpt lat="40.7280180" lon="0.1920710">
        <ele>1212.2</ele>
        <time>2013-05-12T09:59:37Z</time>
      </trkpt>
      <trkpt lat="40.7279940" lon="0.1919550">
        <ele>1211.1</ele>
        <time>2013-05-12T09:59:41Z</time>
      </trkpt>
      <trkpt lat="40.7279630" lon="0.1919070">
        <ele>1210.8</ele>
        <time>2013-05-12T09:59:43Z</time>
      </trkpt>
      <trkpt lat="40.7278150" lon="0.1917420">
        <ele>1210.4</ele>
        <time>2013-05-12T09:59:49Z</time>
      </trkpt>
      <trkpt lat="40.7277830" lon="0.1916720">
        <ele>1210.2</ele>
        <time>2013-05-12T09:59:51Z</time>
      </trkpt>
      <trkpt lat="40.7277370" lon="0.1915170">
        <ele>1210.3</ele>
        <time>2013-05-12T09:59:55Z</time>
      </trkpt>
      <trkpt lat="40.7276690" lon="0.1913560">
        <ele>1209.8</ele>
        <time>2013-05-12T09:59:58Z</time>
      </trkpt>
      <trkpt lat="40.7274950" lon="0.1909930">
        <ele>1206.7</ele>
        <time>2013-05-12T10:00:04Z</time>
      </trkpt>
      <trkpt lat="40.7274340" lon="0.1908500">
        <ele>1204.5</ele>
        <time>2013-05-12T10:00:07Z</time>
      </trkpt>
      <trkpt lat="40.7272900" lon="0.1906890">
        <ele>1201.6</ele>
        <time>2013-05-12T10:00:11Z</time>
      </trkpt>
      <trkpt lat="40.7272330" lon="0.1906730">
        <ele>1200.6</ele>
        <time>2013-05-12T10:00:13Z</time>
      </trkpt>
      <trkpt lat="40.7271330" lon="0.1905200">
        <ele>1198.6</ele>
        <time>2013-05-12T10:00:17Z</time>
      </trkpt>
      <trkpt lat="40.7270330" lon="0.1902040">
        <ele>1196.7</ele>
        <time>2013-05-12T10:00:22Z</time>
      </trkpt>
      <trkpt lat="40.7269880" lon="0.1900160">
        <ele>1194.8</ele>
        <time>2013-05-12T10:00:25Z</time>
      </trkpt>
      <trkpt lat="40.7269840" lon="0.1897120">
        <ele>1192.1</ele>
        <time>2013-05-12T10:00:30Z</time>
      </trkpt>
      <trkpt lat="40.7269870" lon="0.1895450">
        <ele>1191.4</ele>
        <time>2013-05-12T10:00:33Z</time>
      </trkpt>
      <trkpt lat="40.7269830" lon="0.1894780">
        <ele>1191.1</ele>
        <time>2013-05-12T10:00:34Z</time>
      </trkpt>
      <trkpt lat="40.7269600" lon="0.1893450">
        <ele>1190.8</ele>
        <time>2013-05-12T10:00:36Z</time>
      </trkpt>
      <trkpt lat="40.7269450" lon="0.1892810">
        <ele>1190.5</ele>
        <time>2013-05-12T10:00:37Z</time>
      </trkpt>
      <trkpt lat="40.7268990" lon="0.1889740">
        <ele>1189.7</ele>
        <time>2013-05-12T10:00:42Z</time>
      </trkpt>
      <trkpt lat="40.7268580" lon="0.1886460">
        <ele>1189.0</ele>
        <time>2013-05-12T10:00:47Z</time>
      </trkpt>
      <trkpt lat="40.7267780" lon="0.1882800">
        <ele>1188.6</ele>
        <time>2013-05-12T10:00:53Z</time>
      </trkpt>
      <trkpt lat="40.7267670" lon="0.1882200">
        <ele>1188.5</ele>
        <time>2013-05-12T10:00:54Z</time>
      </trkpt>
      <trkpt lat="40.7267110" lon="0.1880140">
        <ele>1188.3</ele>
        <time>2013-05-12T10:00:58Z</time>
      </trkpt>
      <trkpt lat="40.7266710" lon="0.1877000">
        <ele>1187.2</ele>
        <time>2013-05-12T10:01:03Z</time>
      </trkpt>
      <trkpt lat="40.7266850" lon="0.1875670">
        <ele>1186.5</ele>
        <time>2013-05-12T10:01:05Z</time>
      </trkpt>
      <trkpt lat="40.7266760" lon="0.1873290">
        <ele>1186.0</ele>
        <time>2013-05-12T10:01:08Z</time>
      </trkpt>
      <trkpt lat="40.7266560" lon="0.1869840">
        <ele>1185.4</ele>
        <time>2013-05-12T10:01:13Z</time>
      </trkpt>
      <trkpt lat="40.7266620" lon="0.1868550">
        <ele>1185.6</ele>
        <time>2013-05-12T10:01:15Z</time>
      </trkpt>
      <trkpt lat="40.7266520" lon="0.1865110">
        <ele>1186.4</ele>
        <time>2013-05-12T10:01:21Z</time>
      </trkpt>
      <trkpt lat="40.7266530" lon="0.1864580">
        <ele>1186.3</ele>
        <time>2013-05-12T10:01:22Z</time>
      </trkpt>
      <trkpt lat="40.7266120" lon="0.1861380">
        <ele>1185.1</ele>
        <time>2013-05-12T10:01:27Z</time>
      </trkpt>
      <trkpt lat="40.7265260" lon="0.1855850">
        <ele>1181.6</ele>
        <time>2013-05-12T10:01:33Z</time>
      </trkpt>
      <trkpt lat="40.7263680" lon="0.1849330">
        <ele>1178.0</ele>
        <time>2013-05-12T10:01:38Z</time>
      </trkpt>
      <trkpt lat="40.7263260" lon="0.1848340">
        <ele>1177.3</ele>
        <time>2013-05-12T10:01:39Z</time>
      </trkpt>
      <trkpt lat="40.7261790" lon="0.1845600">
        <ele>1175.5</ele>
        <time>2013-05-12T10:01:42Z</time>
      </trkpt>
      <trkpt lat="40.7258830" lon="0.1842470">
        <ele>1172.7</ele>
        <time>2013-05-12T10:01:47Z</time>
      </trkpt>
      <trkpt lat="40.7256910" lon="0.1841700">
        <ele>1169.3</ele>
        <time>2013-05-12T10:01:51Z</time>
      </trkpt>
      <trkpt lat="40.7255930" lon="0.1841620">
        <ele>1168.5</ele>
        <time>2013-05-12T10:01:53Z</time>
      </trkpt>
      <trkpt lat="40.7254970" lon="0.1841230">
        <ele>1168.6</ele>
        <time>2013-05-12T10:01:55Z</time>
      </trkpt>
      <trkpt lat="40.7253270" lon="0.1839790">
        <ele>1168.9</ele>
        <time>2013-05-12T10:02:00Z</time>
      </trkpt>
      <trkpt lat="40.7252590" lon="0.1838990">
        <ele>1168.7</ele>
        <time>2013-05-12T10:02:05Z</time>
      </trkpt>
      <trkpt lat="40.7251470" lon="0.1837040">
        <ele>1170.7</ele>
        <time>2013-05-12T10:02:11Z</time>
      </trkpt>
      <trkpt lat="40.7250940" lon="0.1835610">
        <ele>1171.1</ele>
        <time>2013-05-12T10:02:14Z</time>
      </trkpt>
      <trkpt lat="40.7250710" lon="0.1835190">
        <ele>1171.1</ele>
        <time>2013-05-12T10:02:15Z</time>
      </trkpt>
      <trkpt lat="40.7250300" lon="0.1834190">
        <ele>1170.9</ele>
        <time>2013-05-12T10:02:17Z</time>
      </trkpt>
      <trkpt lat="40.7249070" lon="0.1831160">
        <ele>1170.9</ele>
        <time>2013-05-12T10:02:22Z</time>
      </trkpt>
      <trkpt lat="40.7248880" lon="0.1830540">
        <ele>1171.4</ele>
        <time>2013-05-12T10:02:23Z</time>
      </trkpt>
      <trkpt lat="40.7248570" lon="0.1829450">
        <ele>1171.5</ele>
        <time>2013-05-12T10:02:25Z</time>
      </trkpt>
      <trkpt lat="40.7247490" lon="0.1827760">
        <ele>1171.8</ele>
        <time>2013-05-12T10:02:29Z</time>
      </trkpt>
      <trkpt lat="40.7246150" lon="0.1826060">
        <ele>1173.5</ele>
        <time>2013-05-12T10:02:34Z</time>
      </trkpt>
      <trkpt lat="40.7245650" lon="0.1825280">
        <ele>1174.5</ele>
        <time>2013-05-12T10:02:37Z</time>
      </trkpt>
      <trkpt lat="40.7244630" lon="0.1824550">
        <ele>1175.0</ele>
        <time>2013-05-12T10:02:41Z</time>
      </trkpt>
      <trkpt lat="40.7243430" lon="0.1824030">
        <ele>1175.0</ele>
        <time>2013-05-12T10:02:46Z</time>
      </trkpt>
      <trkpt lat="40.7241990" lon="0.1824010">
        <ele>1175.3</ele>
        <time>2013-05-12T10:02:51Z</time>
      </trkpt>
      <trkpt lat="40.7240550" lon="0.1824420">
        <ele>1176.2</ele>
        <time>2013-05-12T10:02:57Z</time>
      </trkpt>
      <trkpt lat="40.7239160" lon="0.1825610">
        <ele>1177.3</ele>
        <time>2013-05-12T10:03:04Z</time>
      </trkpt>
      <trkpt lat="40.7237800" lon="0.1826820">
        <ele>1178.1</ele>
        <time>2013-05-12T10:03:11Z</time>
      </trkpt>
      <trkpt lat="40.7236940" lon="0.1827310">
        <ele>1179.4</ele>
        <time>2013-05-12T10:03:16Z</time>
      </trkpt>
      <trkpt lat="40.7235530" lon="0.1827420">
        <ele>1181.0</ele>
        <time>2013-05-12T10:03:24Z</time>
      </trkpt>
      <trkpt lat="40.7234490" lon="0.1827590">
        <ele>1182.3</ele>
        <time>2013-05-12T10:03:30Z</time>
      </trkpt>
      <trkpt lat="40.7233500" lon="0.1828330">
        <ele>1183.9</ele>
        <time>2013-05-12T10:03:36Z</time>
      </trkpt>
      <trkpt lat="40.7232260" lon="0.1828890">
        <ele>1184.7</ele>
        <time>2013-05-12T10:03:42Z</time>
      </trkpt>
      <trkpt lat="40.7231780" lon="0.1828770">
        <ele>1184.9</ele>
        <time>2013-05-12T10:03:44Z</time>
      </trkpt>
      <trkpt lat="40.7230560" lon="0.1828430">
        <ele>1185.9</ele>
        <time>2013-05-12T10:03:50Z</time>
      </trkpt>
      <trkpt lat="40.7229020" lon="0.1828270">
        <ele>1187.1</ele>
        <time>2013-05-12T10:03:57Z</time>
      </trkpt>
      <trkpt lat="40.7227770" lon="0.1828140">
        <ele>1188.5</ele>
        <time>2013-05-12T10:04:03Z</time>
      </trkpt>
      <trkpt lat="40.7227000" lon="0.1827910">
        <ele>1189.0</ele>
        <time>2013-05-12T10:04:07Z</time>
      </trkpt>
      <trkpt lat="40.7225700" lon="0.1827670">
        <ele>1190.3</ele>
        <time>2013-05-12T10:04:14Z</time>
      </trkpt>
      <trkpt lat="40.7224220" lon="0.1827470">
        <ele>1190.7</ele>
        <time>2013-05-12T10:04:21Z</time>
      </trkpt>
      <trkpt lat="40.7222440" lon="0.1827890">
        <ele>1191.1</ele>
        <time>2013-05-12T10:04:26Z</time>
      </trkpt>
      <trkpt lat="40.7220440" lon="0.1827840">
        <ele>1190.1</ele>
        <time>2013-05-12T10:04:30Z</time>
      </trkpt>
      <trkpt lat="40.7219330" lon="0.1826370">
        <ele>1190.4</ele>
        <time>2013-05-12T10:04:34Z</time>
      </trkpt>
      <trkpt lat="40.7218360" lon="0.1824780">
        <ele>1191.7</ele>
        <time>2013-05-12T10:04:40Z</time>
      </trkpt>
      <trkpt lat="40.7217180" lon="0.1824470">
        <ele>1193.5</ele>
        <time>2013-05-12T10:04:45Z</time>
      </trkpt>
      <trkpt lat="40.7216040" lon="0.1824880">
        <ele>1195.0</ele>
        <time>2013-05-12T10:04:50Z</time>
      </trkpt>
      <trkpt lat="40.7215130" lon="0.1825710">
        <ele>1197.5</ele>
        <time>2013-05-12T10:04:55Z</time>
      </trkpt>
      <trkpt lat="40.7214520" lon="0.1826400">
        <ele>1198.9</ele>
        <time>2013-05-12T10:04:59Z</time>
      </trkpt>
      <trkpt lat="40.7214340" lon="0.1826530">
        <ele>1199.2</ele>
        <time>2013-05-12T10:05:00Z</time>
      </trkpt>
      <trkpt lat="40.7213610" lon="0.1827010">
        <ele>1200.3</ele>
        <time>2013-05-12T10:05:04Z</time>
      </trkpt>
      <trkpt lat="40.7213110" lon="0.1827550">
        <ele>1201.5</ele>
        <time>2013-05-12T10:05:07Z</time>
      </trkpt>
      <trkpt lat="40.7212020" lon="0.1828720">
        <ele>1203.6</ele>
        <time>2013-05-12T10:05:14Z</time>
      </trkpt>
      <trkpt lat="40.7210380" lon="0.1830450">
        <ele>1207.4</ele>
        <time>2013-05-12T10:05:23Z</time>
      </trkpt>
      <trkpt lat="40.7209800" lon="0.1831560">
        <ele>1207.6</ele>
        <time>2013-05-12T10:05:26Z</time>
      </trkpt>
      <trkpt lat="40.7208120" lon="0.1832230">
        <ele>1205.1</ele>
        <time>2013-05-12T10:05:30Z</time>
      </trkpt>
      <trkpt lat="40.7207550" lon="0.1832290">
        <ele>1204.5</ele>
        <time>2013-05-12T10:05:31Z</time>
      </trkpt>
      <trkpt lat="40.7205800" lon="0.1832000">
        <ele>1202.6</ele>
        <time>2013-05-12T10:05:34Z</time>
      </trkpt>
      <trkpt lat="40.7202530" lon="0.1831390">
        <ele>1198.6</ele>
        <time>2013-05-12T10:05:40Z</time>
      </trkpt>
      <trkpt lat="40.7200960" lon="0.1831080">
        <ele>1195.2</ele>
        <time>2013-05-12T10:05:44Z</time>
      </trkpt>
      <trkpt lat="40.7199940" lon="0.1830430">
        <ele>1192.8</ele>
        <time>2013-05-12T10:05:48Z</time>
      </trkpt>
      <trkpt lat="40.7198690" lon="0.1829510">
        <ele>1190.0</ele>
        <time>2013-05-12T10:05:52Z</time>
      </trkpt>
      <trkpt lat="40.7197570" lon="0.1828460">
        <ele>1187.4</ele>
        <time>2013-05-12T10:05:56Z</time>
      </trkpt>
      <trkpt lat="40.7196300" lon="0.1827510">
        <ele>1185.4</ele>
        <time>2013-05-12T10:06:00Z</time>
      </trkpt>
      <trkpt lat="40.7195720" lon="0.1827120">
        <ele>1184.7</ele>
        <time>2013-05-12T10:06:02Z</time>
      </trkpt>
      <trkpt lat="40.7194490" lon="0.1826800">
        <ele>1182.7</ele>
        <time>2013-05-12T10:06:06Z</time>
      </trkpt>
      <trkpt lat="40.7194220" lon="0.1826780">
        <ele>1180.8</ele>
        <time>2013-05-12T10:06:09Z</time>
      </trkpt>
      <trkpt lat="40.7194100" lon="0.1826930">
        <ele>1180.4</ele>
        <time>2013-05-12T10:06:14Z</time>
      </trkpt>
      <trkpt lat="40.7193070" lon="0.1826590">
        <ele>1179.3</ele>
        <time>2013-05-12T10:06:19Z</time>
      </trkpt>
      <trkpt lat="40.7191740" lon="0.1826320">
        <ele>1177.6</ele>
        <time>2013-05-12T10:06:23Z</time>
      </trkpt>
      <trkpt lat="40.7191070" lon="0.1827320">
        <ele>1175.8</ele>
        <time>2013-05-12T10:06:27Z</time>
      </trkpt>
      <trkpt lat="40.7191480" lon="0.1830880">
        <ele>1175.4</ele>
        <time>2013-05-12T10:06:33Z</time>
      </trkpt>
      <trkpt lat="40.7191070" lon="0.1832370">
        <ele>1175.3</ele>
        <time>2013-05-12T10:06:36Z</time>
      </trkpt>
      <trkpt lat="40.7190930" lon="0.1833430">
        <ele>1175.1</ele>
        <time>2013-05-12T10:06:38Z</time>
      </trkpt>
      <trkpt lat="40.7191210" lon="0.1834750">
        <ele>1175.2</ele>
        <time>2013-05-12T10:06:41Z</time>
      </trkpt>
      <trkpt lat="40.7191320" lon="0.1836440">
        <ele>1175.8</ele>
        <time>2013-05-12T10:06:46Z</time>
      </trkpt>
      <trkpt lat="40.7191260" lon="0.1836780">
        <ele>1176.0</ele>
        <time>2013-05-12T10:06:47Z</time>
      </trkpt>
      <trkpt lat="40.7191010" lon="0.1838350">
        <ele>1178.3</ele>
        <time>2013-05-12T10:06:52Z</time>
      </trkpt>
      <trkpt lat="40.7190920" lon="0.1838700">
        <ele>1178.6</ele>
        <time>2013-05-12T10:06:53Z</time>
      </trkpt>
      <trkpt lat="40.7190450" lon="0.1840160">
        <ele>1180.5</ele>
        <time>2013-05-12T10:06:58Z</time>
      </trkpt>
      <trkpt lat="40.7189900" lon="0.1841390">
        <ele>1182.5</ele>
        <time>2013-05-12T10:07:03Z</time>
      </trkpt>
      <trkpt lat="40.7189210" lon="0.1841790">
        <ele>1184.0</ele>
        <time>2013-05-12T10:07:07Z</time>
      </trkpt>
      <trkpt lat="40.7188570" lon="0.1842350">
        <ele>1186.2</ele>
        <time>2013-05-12T10:07:12Z</time>
      </trkpt>
      <trkpt lat="40.7188210" lon="0.1842710">
        <ele>1186.9</ele>
        <time>2013-05-12T10:07:14Z</time>
      </trkpt>
      <trkpt lat="40.7186650" lon="0.1843040">
        <ele>1187.0</ele>
        <time>2013-05-12T10:07:20Z</time>
      </trkpt>
      <trkpt lat="40.7185390" lon="0.1844470">
        <ele>1185.9</ele>
        <time>2013-05-12T10:07:26Z</time>
      </trkpt>
      <trkpt lat="40.7184330" lon="0.1845450">
        <ele>1184.0</ele>
        <time>2013-05-12T10:07:30Z</time>
      </trkpt>
      <trkpt lat="40.7182960" lon="0.1845980">
        <ele>1182.1</ele>
        <time>2013-05-12T10:07:34Z</time>
      </trkpt>
      <trkpt lat="40.7181190" lon="0.1847450">
        <ele>1180.0</ele>
        <time>2013-05-12T10:07:39Z</time>
      </trkpt>
      <trkpt lat="40.7180440" lon="0.1849090">
        <ele>1178.1</ele>
        <time>2013-05-12T10:07:44Z</time>
      </trkpt>
      <trkpt lat="40.7179520" lon="0.1850250">
        <ele>1177.2</ele>
        <time>2013-05-12T10:07:47Z</time>
      </trkpt>
      <trkpt lat="40.7179170" lon="0.1850530">
        <ele>1177.1</ele>
        <time>2013-05-12T10:07:48Z</time>
      </trkpt>
      <trkpt lat="40.7177710" lon="0.1851410">
        <ele>1177.0</ele>
        <time>2013-05-12T10:07:52Z</time>
      </trkpt>
      <trkpt lat="40.7176740" lon="0.1851930">
        <ele>1176.0</ele>
        <time>2013-05-12T10:07:55Z</time>
      </trkpt>
      <trkpt lat="40.7176190" lon="0.1851860">
        <ele>1175.3</ele>
        <time>2013-05-12T10:07:57Z</time>
      </trkpt>
      <trkpt lat="40.7175160" lon="0.1851950">
        <ele>1174.2</ele>
        <time>2013-05-12T10:08:00Z</time>
      </trkpt>
      <trkpt lat="40.7174080" lon="0.1852300">
        <ele>1172.3</ele>
        <time>2013-05-12T10:08:04Z</time>
      </trkpt>
      <trkpt lat="40.7173580" lon="0.1852760">
        <ele>1170.7</ele>
        <time>2013-05-12T10:08:08Z</time>
      </trkpt>
      <trkpt lat="40.7173420" lon="0.1852130">
        <ele>1169.7</ele>
        <time>2013-05-12T10:08:12Z</time>
      </trkpt>
      <trkpt lat="40.7173350" lon="0.1851850">
        <ele>1169.6</ele>
        <time>2013-05-12T10:08:13Z</time>
      </trkpt>
      <trkpt lat="40.7172520" lon="0.1849950">
        <ele>1166.0</ele>
        <time>2013-05-12T10:08:19Z</time>
      </trkpt>
      <trkpt lat="40.7172240" lon="0.1849020">
        <ele>1164.2</ele>
        <time>2013-05-12T10:08:21Z</time>
      </trkpt>
      <trkpt lat="40.7170640" lon="0.1847270">
        <ele>1161.4</ele>
        <time>2013-05-12T10:08:26Z</time>
      </trkpt>
      <trkpt lat="40.7169950" lon="0.1846690">
        <ele>1160.5</ele>
        <time>2013-05-12T10:08:28Z</time>
      </trkpt>
      <trkpt lat="40.7169570" lon="0.1846510">
        <ele>1160.1</ele>
        <time>2013-05-12T10:08:29Z</time>
      </trkpt>
      <trkpt lat="40.7167880" lon="0.1845910">
        <ele>1160.0</ele>
        <time>2013-05-12T10:08:34Z</time>
      </trkpt>
      <trkpt lat="40.7167030" lon="0.1846030">
        <ele>1161.3</ele>
        <time>2013-05-12T10:08:38Z</time>
      </trkpt>
      <trkpt lat="40.7166510" lon="0.1846440">
        <ele>1162.5</ele>
        <time>2013-05-12T10:08:41Z</time>
      </trkpt>
      <trkpt lat="40.7165960" lon="0.1846770">
        <ele>1163.4</ele>
        <time>2013-05-12T10:08:44Z</time>
      </trkpt>
      <trkpt lat="40.7165920" lon="0.1846790">
        <ele>1163.6</ele>
        <time>2013-05-12T10:08:46Z</time>
      </trkpt>
      <trkpt lat="40.7165790" lon="0.1847220">
        <ele>1163.8</ele>
        <time>2013-05-12T10:08:57Z</time>
      </trkpt>
      <trkpt lat="40.7164960" lon="0.1848170">
        <ele>1163.4</ele>
        <time>2013-05-12T10:09:02Z</time>
      </trkpt>
      <trkpt lat="40.7164590" lon="0.1849080">
        <ele>1162.5</ele>
        <time>2013-05-12T10:09:05Z</time>
      </trkpt>
      <trkpt lat="40.7163490" lon="0.1849400">
        <ele>1160.1</ele>
        <time>2013-05-12T10:09:10Z</time>
      </trkpt>
      <trkpt lat="40.7163120" lon="0.1849180">
        <ele>1158.4</ele>
        <time>2013-05-12T10:09:13Z</time>
      </trkpt>
      <trkpt lat="40.7162900" lon="0.1849050">
        <ele>1157.6</ele>
        <time>2013-05-12T10:09:15Z</time>
      </trkpt>
      <trkpt lat="40.7162390" lon="0.1848320">
        <ele>1156.4</ele>
        <time>2013-05-12T10:09:19Z</time>
      </trkpt>
      <trkpt lat="40.7161400" lon="0.1847350">
        <ele>1156.0</ele>
        <time>2013-05-12T10:09:23Z</time>
      </trkpt>
      <trkpt lat="40.7160310" lon="0.1846450">
        <ele>1155.3</ele>
        <time>2013-05-12T10:09:26Z</time>
      </trkpt>
      <trkpt lat="40.7158690" lon="0.1845980">
        <ele>1153.9</ele>
        <time>2013-05-12T10:09:30Z</time>
      </trkpt>
      <trkpt lat="40.7158020" lon="0.1845490">
        <ele>1153.0</ele>
        <time>2013-05-12T10:09:32Z</time>
      </trkpt>
      <trkpt lat="40.7157570" lon="0.1845190">
        <ele>1151.8</ele>
        <time>2013-05-12T10:09:34Z</time>
      </trkpt>
      <trkpt lat="40.7157380" lon="0.1845010">
        <ele>1151.1</ele>
        <time>2013-05-12T10:09:36Z</time>
      </trkpt>
      <trkpt lat="40.7157350" lon="0.1844970">
        <ele>1150.7</ele>
        <time>2013-05-12T10:09:37Z</time>
      </trkpt>
      <trkpt lat="40.7156650" lon="0.1844830">
        <ele>1149.2</ele>
        <time>2013-05-12T10:09:50Z</time>
      </trkpt>
      <trkpt lat="40.7155800" lon="0.1845030">
        <ele>1148.3</ele>
        <time>2013-05-12T10:09:55Z</time>
      </trkpt>
      <trkpt lat="40.7155420" lon="0.1844890">
        <ele>1147.3</ele>
        <time>2013-05-12T10:09:59Z</time>
      </trkpt>
      <trkpt lat="40.7155270" lon="0.1844720">
        <ele>1146.6</ele>
        <time>2013-05-12T10:10:01Z</time>
      </trkpt>
      <trkpt lat="40.7155200" lon="0.1844420">
        <ele>1145.7</ele>
        <time>2013-05-12T10:10:04Z</time>
      </trkpt>
      <trkpt lat="40.7154620" lon="0.1843720">
        <ele>1143.9</ele>
        <time>2013-05-12T10:10:11Z</time>
      </trkpt>
      <trkpt lat="40.7154620" lon="0.1843700">
        <ele>1143.8</ele>
        <time>2013-05-12T10:10:12Z</time>
      </trkpt>
      <trkpt lat="40.7153900" lon="0.1843030">
        <ele>1142.4</ele>
        <time>2013-05-12T10:10:19Z</time>
      </trkpt>
      <trkpt lat="40.7153080" lon="0.1842820">
        <ele>1139.8</ele>
        <time>2013-05-12T10:10:23Z</time>
      </trkpt>
      <trkpt lat="40.7152180" lon="0.1841760">
        <ele>1137.6</ele>
        <time>2013-05-12T10:10:27Z</time>
      </trkpt>
      <trkpt lat="40.7151550" lon="0.1840930">
        <ele>1136.7</ele>
        <time>2013-05-12T10:10:29Z</time>
      </trkpt>
      <trkpt lat="40.7151220" lon="0.1840520">
        <ele>1136.3</ele>
        <time>2013-05-12T10:10:30Z</time>
      </trkpt>
      <trkpt lat="40.7150390" lon="0.1839180">
        <ele>1135.2</ele>
        <time>2013-05-12T10:10:34Z</time>
      </trkpt>
      <trkpt lat="40.7149740" lon="0.1838650">
        <ele>1133.5</ele>
        <time>2013-05-12T10:10:38Z</time>
      </trkpt>
      <trkpt lat="40.7149730" lon="0.1838660">
        <ele>1133.2</ele>
        <time>2013-05-12T10:10:39Z</time>
      </trkpt>
      <trkpt lat="40.7149230" lon="0.1838220">
        <ele>1131.7</ele>
        <time>2013-05-12T10:10:47Z</time>
      </trkpt>
      <trkpt lat="40.7148820" lon="0.1837930">
        <ele>1131.2</ele>
        <time>2013-05-12T10:11:00Z</time>
      </trkpt>
      <trkpt lat="40.7147780" lon="0.1837560">
        <ele>1129.2</ele>
        <time>2013-05-12T10:11:06Z</time>
      </trkpt>
      <trkpt lat="40.7147000" lon="0.1837460">
        <ele>1127.1</ele>
        <time>2013-05-12T10:11:13Z</time>
      </trkpt>
      <trkpt lat="40.7146560" lon="0.1837300">
        <ele>1126.0</ele>
        <time>2013-05-12T10:11:34Z</time>
      </trkpt>
      <trkpt lat="40.7146520" lon="0.1837290">
        <ele>1125.8</ele>
        <time>2013-05-12T10:11:35Z</time>
      </trkpt>
      <trkpt lat="40.7146520" lon="0.1837310">
        <ele>1125.7</ele>
        <time>2013-05-12T10:11:36Z</time>
      </trkpt>
      <trkpt lat="40.7146270" lon="0.1837380">
        <ele>1125.2</ele>
        <time>2013-05-12T10:11:42Z</time>
      </trkpt>
      <trkpt lat="40.7146080" lon="0.1837420">
        <ele>1124.8</ele>
        <time>2013-05-12T10:11:47Z</time>
      </trkpt>
      <trkpt lat="40.7145990" lon="0.1837430">
        <ele>1124.5</ele>
        <time>2013-05-12T10:11:48Z</time>
      </trkpt>
      <trkpt lat="40.7145240" lon="0.1837370">
        <ele>1122.7</ele>
        <time>2013-05-12T10:11:54Z</time>
      </trkpt>
      <trkpt lat="40.7145140" lon="0.1837330">
        <ele>1122.4</ele>
        <time>2013-05-12T10:11:55Z</time>
      </trkpt>
      <trkpt lat="40.7144310" lon="0.1837250">
        <ele>1120.5</ele>
        <time>2013-05-12T10:12:01Z</time>
      </trkpt>
      <trkpt lat="40.7143990" lon="0.1836890">
        <ele>1120.0</ele>
        <time>2013-05-12T10:12:05Z</time>
      </trkpt>
      <trkpt lat="40.7143680" lon="0.1836340">
        <ele>1120.5</ele>
        <time>2013-05-12T10:12:10Z</time>
      </trkpt>
      <trkpt lat="40.7143660" lon="0.1836270">
        <ele>1120.9</ele>
        <time>2013-05-12T10:12:12Z</time>
      </trkpt>
      <trkpt lat="40.7143590" lon="0.1835850">
        <ele>1120.4</ele>
        <time>2013-05-12T10:12:21Z</time>
      </trkpt>
      <trkpt lat="40.7143040" lon="0.1835370">
        <ele>1118.8</ele>
        <time>2013-05-12T10:12:34Z</time>
      </trkpt>
      <trkpt lat="40.7142280" lon="0.1834910">
        <ele>1117.1</ele>
        <time>2013-05-12T10:12:39Z</time>
      </trkpt>
      <trkpt lat="40.7141930" lon="0.1834360">
        <ele>1115.4</ele>
        <time>2013-05-12T10:12:44Z</time>
      </trkpt>
      <trkpt lat="40.7142000" lon="0.1834800">
        <ele>1115.3</ele>
        <time>2013-05-12T10:12:51Z</time>
      </trkpt>
      <trkpt lat="40.7141930" lon="0.1834920">
        <ele>1115.4</ele>
        <time>2013-05-12T10:12:55Z</time>
      </trkpt>
      <trkpt lat="40.7141880" lon="0.1834980">
        <ele>1115.2</ele>
        <time>2013-05-12T10:12:58Z</time>
      </trkpt>
      <trkpt lat="40.7141710" lon="0.1834840">
        <ele>1114.1</ele>
        <time>2013-05-12T10:13:03Z</time>
      </trkpt>
      <trkpt lat="40.7141690" lon="0.1834840">
        <ele>1113.6</ele>
        <time>2013-05-12T10:13:05Z</time>
      </trkpt>
      <trkpt lat="40.7141410" lon="0.1834620">
        <ele>1113.2</ele>
        <time>2013-05-12T10:13:14Z</time>
      </trkpt>
      <trkpt lat="40.7141320" lon="0.1834510">
        <ele>1112.6</ele>
        <time>2013-05-12T10:13:17Z</time>
      </trkpt>
      <trkpt lat="40.7141240" lon="0.1834290">
        <ele>1112.3</ele>
        <time>2013-05-12T10:13:34Z</time>
      </trkpt>
      <trkpt lat="40.7141220" lon="0.1834240">
        <ele>1112.1</ele>
        <time>2013-05-12T10:13:36Z</time>
      </trkpt>
      <trkpt lat="40.7141180" lon="0.1833700">
        <ele>1111.0</ele>
        <time>2013-05-12T10:13:46Z</time>
      </trkpt>
      <trkpt lat="40.7140690" lon="0.1832450">
        <ele>1109.8</ele>
        <time>2013-05-12T10:13:51Z</time>
      </trkpt>
      <trkpt lat="40.7139870" lon="0.1830770">
        <ele>1108.9</ele>
        <time>2013-05-12T10:13:55Z</time>
      </trkpt>
      <trkpt lat="40.7139700" lon="0.1830120">
        <ele>1108.3</ele>
        <time>2013-05-12T10:13:57Z</time>
      </trkpt>
      <trkpt lat="40.7139460" lon="0.1829700">
        <ele>1106.8</ele>
        <time>2013-05-12T10:14:01Z</time>
      </trkpt>
      <trkpt lat="40.7139500" lon="0.1829330">
        <ele>1105.7</ele>
        <time>2013-05-12T10:14:05Z</time>
      </trkpt>
      <trkpt lat="40.7139580" lon="0.1829310">
        <ele>1105.5</ele>
        <time>2013-05-12T10:14:06Z</time>
      </trkpt>
      <trkpt lat="40.7139870" lon="0.1828740">
        <ele>1104.6</ele>
        <time>2013-05-12T10:14:10Z</time>
      </trkpt>
      <trkpt lat="40.7139210" lon="0.1827980">
        <ele>1103.2</ele>
        <time>2013-05-12T10:14:13Z</time>
      </trkpt>
      <trkpt lat="40.7138040" lon="0.1827260">
        <ele>1101.0</ele>
        <time>2013-05-12T10:14:17Z</time>
      </trkpt>
      <trkpt lat="40.7136400" lon="0.1827550">
        <ele>1099.0</ele>
        <time>2013-05-12T10:14:22Z</time>
      </trkpt>
      <trkpt lat="40.7135960" lon="0.1827780">
        <ele>1098.5</ele>
        <time>2013-05-12T10:14:23Z</time>
      </trkpt>
      <trkpt lat="40.7134700" lon="0.1828210">
        <ele>1096.9</ele>
        <time>2013-05-12T10:14:26Z</time>
      </trkpt>
      <trkpt lat="40.7133470" lon="0.1829200">
        <ele>1093.3</ele>
        <time>2013-05-12T10:14:32Z</time>
      </trkpt>
      <trkpt lat="40.7132120" lon="0.1829120">
        <ele>1092.3</ele>
        <time>2013-05-12T10:14:36Z</time>
      </trkpt>
      <trkpt lat="40.7131010" lon="0.1829610">
        <ele>1091.7</ele>
        <time>2013-05-12T10:14:40Z</time>
      </trkpt>
      <trkpt lat="40.7129950" lon="0.1829180">
        <ele>1090.6</ele>
        <time>2013-05-12T10:14:45Z</time>
      </trkpt>
      <trkpt lat="40.7129520" lon="0.1828680">
        <ele>1089.9</ele>
        <time>2013-05-12T10:14:49Z</time>
      </trkpt>
      <trkpt lat="40.7129480" lon="0.1828650">
        <ele>1089.7</ele>
        <time>2013-05-12T10:14:50Z</time>
      </trkpt>
      <trkpt lat="40.7129230" lon="0.1828710">
        <ele>1089.4</ele>
        <time>2013-05-12T10:14:54Z</time>
      </trkpt>
      <trkpt lat="40.7128920" lon="0.1828440">
        <ele>1088.6</ele>
        <time>2013-05-12T10:14:59Z</time>
      </trkpt>
      <trkpt lat="40.7128650" lon="0.1828480">
        <ele>1088.3</ele>
        <time>2013-05-12T10:15:01Z</time>
      </trkpt>
      <trkpt lat="40.7127610" lon="0.1828980">
        <ele>1087.7</ele>
        <time>2013-05-12T10:15:07Z</time>
      </trkpt>
      <trkpt lat="40.7126350" lon="0.1829230">
        <ele>1086.1</ele>
        <time>2013-05-12T10:15:12Z</time>
      </trkpt>
      <trkpt lat="40.7125540" lon="0.1828910">
        <ele>1084.2</ele>
        <time>2013-05-12T10:15:15Z</time>
      </trkpt>
      <trkpt lat="40.7124180" lon="0.1828370">
        <ele>1081.3</ele>
        <time>2013-05-12T10:15:19Z</time>
      </trkpt>
      <trkpt lat="40.7124090" lon="0.1828360">
        <ele>1080.7</ele>
        <time>2013-05-12T10:15:20Z</time>
      </trkpt>
      <trkpt lat="40.7124070" lon="0.1828380">
        <ele>1080.4</ele>
        <time>2013-05-12T10:15:21Z</time>
      </trkpt>
      <trkpt lat="40.7123710" lon="0.1828250">
        <ele>1079.5</ele>
        <time>2013-05-12T10:15:32Z</time>
      </trkpt>
      <trkpt lat="40.7123610" lon="0.1828210">
        <ele>1079.3</ele>
        <time>2013-05-12T10:15:33Z</time>
      </trkpt>
      <trkpt lat="40.7122790" lon="0.1827870">
        <ele>1077.5</ele>
        <time>2013-05-12T10:15:38Z</time>
      </trkpt>
      <trkpt lat="40.7121560" lon="0.1827470">
        <ele>1075.2</ele>
        <time>2013-05-12T10:15:42Z</time>
      </trkpt>
      <trkpt lat="40.7119970" lon="0.1827100">
        <ele>1071.9</ele>
        <time>2013-05-12T10:15:47Z</time>
      </trkpt>
      <trkpt lat="40.7119670" lon="0.1826850">
        <ele>1071.7</ele>
        <time>2013-05-12T10:15:48Z</time>
      </trkpt>
      <trkpt lat="40.7118320" lon="0.1825840">
        <ele>1070.0</ele>
        <time>2013-05-12T10:15:52Z</time>
      </trkpt>
      <trkpt lat="40.7116920" lon="0.1825680">
        <ele>1068.1</ele>
        <time>2013-05-12T10:15:56Z</time>
      </trkpt>
      <trkpt lat="40.7116420" lon="0.1824460">
        <ele>1067.2</ele>
        <time>2013-05-12T10:15:59Z</time>
      </trkpt>
      <trkpt lat="40.7116370" lon="0.1823950">
        <ele>1067.1</ele>
        <time>2013-05-12T10:16:00Z</time>
      </trkpt>
      <trkpt lat="40.7115850" lon="0.1822600">
        <ele>1067.7</ele>
        <time>2013-05-12T10:16:04Z</time>
      </trkpt>
      <trkpt lat="40.7115690" lon="0.1821790">
        <ele>1068.3</ele>
        <time>2013-05-12T10:16:07Z</time>
      </trkpt>
      <trkpt lat="40.7114970" lon="0.1820430">
        <ele>1068.9</ele>
        <time>2013-05-12T10:16:11Z</time>
      </trkpt>
      <trkpt lat="40.7114760" lon="0.1820140">
        <ele>1069.1</ele>
        <time>2013-05-12T10:16:12Z</time>
      </trkpt>
      <trkpt lat="40.7114060" lon="0.1818950">
        <ele>1069.8</ele>
        <time>2013-05-12T10:16:16Z</time>
      </trkpt>
      <trkpt lat="40.7113890" lon="0.1818660">
        <ele>1070.0</ele>
        <time>2013-05-12T10:16:17Z</time>
      </trkpt>
      <trkpt lat="40.7112940" lon="0.1817810">
        <ele>1069.6</ele>
        <time>2013-05-12T10:16:20Z</time>
      </trkpt>
      <trkpt lat="40.7111730" lon="0.1815970">
        <ele>1068.1</ele>
        <time>2013-05-12T10:16:24Z</time>
      </trkpt>
      <trkpt lat="40.7111010" lon="0.1813920">
        <ele>1070.1</ele>
        <time>2013-05-12T10:16:29Z</time>
      </trkpt>
      <trkpt lat="40.7110300" lon="0.1812530">
        <ele>1072.0</ele>
        <time>2013-05-12T10:16:33Z</time>
      </trkpt>
      <trkpt lat="40.7110000" lon="0.1811250">
        <ele>1073.4</ele>
        <time>2013-05-12T10:16:37Z</time>
      </trkpt>
      <trkpt lat="40.7109980" lon="0.1810730">
        <ele>1074.2</ele>
        <time>2013-05-12T10:16:39Z</time>
      </trkpt>
      <trkpt lat="40.7109580" lon="0.1809600">
        <ele>1074.8</ele>
        <time>2013-05-12T10:16:43Z</time>
      </trkpt>
      <trkpt lat="40.7109030" lon="0.1808220">
        <ele>1075.0</ele>
        <time>2013-05-12T10:16:47Z</time>
      </trkpt>
      <trkpt lat="40.7108530" lon="0.1806890">
        <ele>1076.3</ele>
        <time>2013-05-12T10:16:52Z</time>
      </trkpt>
      <trkpt lat="40.7108290" lon="0.1806110">
        <ele>1077.5</ele>
        <time>2013-05-12T10:16:55Z</time>
      </trkpt>
      <trkpt lat="40.7108030" lon="0.1804730">
        <ele>1080.0</ele>
        <time>2013-05-12T10:17:00Z</time>
      </trkpt>
      <trkpt lat="40.7108050" lon="0.1804350">
        <ele>1081.6</ele>
        <time>2013-05-12T10:17:03Z</time>
      </trkpt>
      <trkpt lat="40.7108050" lon="0.1803970">
        <ele>1082.1</ele>
        <time>2013-05-12T10:17:08Z</time>
      </trkpt>
      <trkpt lat="40.7108000" lon="0.1803610">
        <ele>1082.3</ele>
        <time>2013-05-12T10:17:12Z</time>
      </trkpt>
      <trkpt lat="40.7107880" lon="0.1803040">
        <ele>1082.5</ele>
        <time>2013-05-12T10:17:30Z</time>
      </trkpt>
      <trkpt lat="40.7107700" lon="0.1801460">
        <ele>1082.4</ele>
        <time>2013-05-12T10:17:34Z</time>
      </trkpt>
      <trkpt lat="40.7108180" lon="0.1799880">
        <ele>1082.3</ele>
        <time>2013-05-12T10:17:37Z</time>
      </trkpt>
      <trkpt lat="40.7108650" lon="0.1797750">
        <ele>1083.9</ele>
        <time>2013-05-12T10:17:42Z</time>
      </trkpt>
      <trkpt lat="40.7108860" lon="0.1795770">
        <ele>1084.1</ele>
        <time>2013-05-12T10:17:46Z</time>
      </trkpt>
      <trkpt lat="40.7109440" lon="0.1793940">
        <ele>1085.2</ele>
        <time>2013-05-12T10:17:51Z</time>
      </trkpt>
      <trkpt lat="40.7110080" lon="0.1792480">
        <ele>1086.2</ele>
        <time>2013-05-12T10:17:55Z</time>
      </trkpt>
      <trkpt lat="40.7111910" lon="0.1790850">
        <ele>1084.8</ele>
        <time>2013-05-12T10:18:01Z</time>
      </trkpt>
      <trkpt lat="40.7112340" lon="0.1790270">
        <ele>1084.0</ele>
        <time>2013-05-12T10:18:03Z</time>
      </trkpt>
      <trkpt lat="40.7113850" lon="0.1790190">
        <ele>1081.7</ele>
        <time>2013-05-12T10:18:08Z</time>
      </trkpt>
      <trkpt lat="40.7114360" lon="0.1789700">
        <ele>1080.4</ele>
        <time>2013-05-12T10:18:11Z</time>
      </trkpt>
      <trkpt lat="40.7114700" lon="0.1788400">
        <ele>1078.8</ele>
        <time>2013-05-12T10:18:15Z</time>
      </trkpt>
      <trkpt lat="40.7114980" lon="0.1787490">
        <ele>1077.6</ele>
        <time>2013-05-12T10:18:17Z</time>
      </trkpt>
      <trkpt lat="40.7115310" lon="0.1786440">
        <ele>1076.8</ele>
        <time>2013-05-12T10:18:19Z</time>
      </trkpt>
      <trkpt lat="40.7115690" lon="0.1784000">
        <ele>1074.0</ele>
        <time>2013-05-12T10:18:23Z</time>
      </trkpt>
      <trkpt lat="40.7115570" lon="0.1783400">
        <ele>1073.7</ele>
        <time>2013-05-12T10:18:24Z</time>
      </trkpt>
      <trkpt lat="40.7114610" lon="0.1781360">
        <ele>1073.4</ele>
        <time>2013-05-12T10:18:28Z</time>
      </trkpt>
      <trkpt lat="40.7113810" lon="0.1780630">
        <ele>1073.5</ele>
        <time>2013-05-12T10:18:30Z</time>
      </trkpt>
      <trkpt lat="40.7112130" lon="0.1778690">
        <ele>1072.2</ele>
        <time>2013-05-12T10:18:35Z</time>
      </trkpt>
      <trkpt lat="40.7111390" lon="0.1777430">
        <ele>1071.2</ele>
        <time>2013-05-12T10:18:38Z</time>
      </trkpt>
      <trkpt lat="40.7110480" lon="0.1775850">
        <ele>1070.7</ele>
        <time>2013-05-12T10:18:42Z</time>
      </trkpt>
      <trkpt lat="40.7110450" lon="0.1775750">
        <ele>1070.2</ele>
        <time>2013-05-12T10:18:44Z</time>
      </trkpt>
      <trkpt lat="40.7110370" lon="0.1775660">
        <ele>1069.8</ele>
        <time>2013-05-12T10:18:47Z</time>
      </trkpt>
      <trkpt lat="40.7110340" lon="0.1775620">
        <ele>1069.6</ele>
        <time>2013-05-12T10:18:48Z</time>
      </trkpt>
      <trkpt lat="40.7109690" lon="0.1774380">
        <ele>1068.8</ele>
        <time>2013-05-12T10:18:53Z</time>
      </trkpt>
      <trkpt lat="40.7109460" lon="0.1773900">
        <ele>1068.7</ele>
        <time>2013-05-12T10:18:54Z</time>
      </trkpt>
      <trkpt lat="40.7107860" lon="0.1771240">
        <ele>1066.0</ele>
        <time>2013-05-12T10:18:59Z</time>
      </trkpt>
      <trkpt lat="40.7107700" lon="0.1770710">
        <ele>1065.7</ele>
        <time>2013-05-12T10:19:00Z</time>
      </trkpt>
      <trkpt lat="40.7107110" lon="0.1768600">
        <ele>1064.4</ele>
        <time>2013-05-12T10:19:04Z</time>
      </trkpt>
      <trkpt lat="40.7106440" lon="0.1766890">
        <ele>1062.3</ele>
        <time>2013-05-12T10:19:08Z</time>
      </trkpt>
      <trkpt lat="40.7105750" lon="0.1765560">
        <ele>1060.0</ele>
        <time>2013-05-12T10:19:13Z</time>
      </trkpt>
      <trkpt lat="40.7105390" lon="0.1764810">
        <ele>1059.3</ele>
        <time>2013-05-12T10:19:15Z</time>
      </trkpt>
      <trkpt lat="40.7104300" lon="0.1764000">
        <ele>1060.1</ele>
        <time>2013-05-12T10:19:19Z</time>
      </trkpt>
      <trkpt lat="40.7103250" lon="0.1763830">
        <ele>1060.8</ele>
        <time>2013-05-12T10:19:23Z</time>
      </trkpt>
      <trkpt lat="40.7102620" lon="0.1764510">
        <ele>1062.0</ele>
        <time>2013-05-12T10:19:28Z</time>
      </trkpt>
      <trkpt lat="40.7101670" lon="0.1765100">
        <ele>1063.8</ele>
        <time>2013-05-12T10:19:33Z</time>
      </trkpt>
      <trkpt lat="40.7100990" lon="0.1765600">
        <ele>1065.2</ele>
        <time>2013-05-12T10:19:37Z</time>
      </trkpt>
      <trkpt lat="40.7100480" lon="0.1765850">
        <ele>1066.3</ele>
        <time>2013-05-12T10:19:40Z</time>
      </trkpt>
      <trkpt lat="40.7099250" lon="0.1766270">
        <ele>1068.0</ele>
        <time>2013-05-12T10:19:47Z</time>
      </trkpt>
      <trkpt lat="40.7098180" lon="0.1766720">
        <ele>1069.8</ele>
        <time>2013-05-12T10:19:53Z</time>
      </trkpt>
      <trkpt lat="40.7097200" lon="0.1767150">
        <ele>1070.8</ele>
        <time>2013-05-12T10:19:59Z</time>
      </trkpt>
      <trkpt lat="40.7096980" lon="0.1767340">
        <ele>1071.2</ele>
        <time>2013-05-12T10:20:01Z</time>
      </trkpt>
      <trkpt lat="40.7096170" lon="0.1767460">
        <ele>1072.3</ele>
        <time>2013-05-12T10:20:06Z</time>
      </trkpt>
      <trkpt lat="40.7094290" lon="0.1767560">
        <ele>1074.3</ele>
        <time>2013-05-12T10:20:14Z</time>
      </trkpt>
      <trkpt lat="40.7092880" lon="0.1767330">
        <ele>1075.6</ele>
        <time>2013-05-12T10:20:20Z</time>
      </trkpt>
      <trkpt lat="40.7090880" lon="0.1766930">
        <ele>1075.1</ele>
        <time>2013-05-12T10:20:26Z</time>
      </trkpt>
      <trkpt lat="40.7088710" lon="0.1766460">
        <ele>1073.7</ele>
        <time>2013-05-12T10:20:30Z</time>
      </trkpt>
      <trkpt lat="40.7085610" lon="0.1765200">
        <ele>1073.0</ele>
        <time>2013-05-12T10:20:36Z</time>
      </trkpt>
      <trkpt lat="40.7084890" lon="0.1764870">
        <ele>1072.3</ele>
        <time>2013-05-12T10:20:38Z</time>
      </trkpt>
      <trkpt lat="40.7083750" lon="0.1764240">
        <ele>1073.9</ele>
        <time>2013-05-12T10:20:42Z</time>
      </trkpt>
      <trkpt lat="40.7082890" lon="0.1763520">
        <ele>1074.6</ele>
        <time>2013-05-12T10:20:45Z</time>
      </trkpt>
      <trkpt lat="40.7080880" lon="0.1762460">
        <ele>1074.8</ele>
        <time>2013-05-12T10:20:50Z</time>
      </trkpt>
      <trkpt lat="40.7079060" lon="0.1761470">
        <ele>1076.1</ele>
        <time>2013-05-12T10:20:55Z</time>
      </trkpt>
      <trkpt lat="40.7077630" lon="0.1760480">
        <ele>1078.4</ele>
        <time>2013-05-12T10:20:59Z</time>
      </trkpt>
      <trkpt lat="40.7075680" lon="0.1759630">
        <ele>1080.3</ele>
        <time>2013-05-12T10:21:04Z</time>
      </trkpt>
      <trkpt lat="40.7074590" lon="0.1758410">
        <ele>1080.9</ele>
        <time>2013-05-12T10:21:09Z</time>
      </trkpt>
      <trkpt lat="40.7073440" lon="0.1756410">
        <ele>1081.5</ele>
        <time>2013-05-12T10:21:15Z</time>
      </trkpt>
      <trkpt lat="40.7072440" lon="0.1754360">
        <ele>1081.0</ele>
        <time>2013-05-12T10:21:20Z</time>
      </trkpt>
      <trkpt lat="40.7071110" lon="0.1753630">
        <ele>1081.4</ele>
        <time>2013-05-12T10:21:25Z</time>
      </trkpt>
      <trkpt lat="40.7069210" lon="0.1752370">
        <ele>1082.8</ele>
        <time>2013-05-12T10:21:32Z</time>
      </trkpt>
      <trkpt lat="40.7067940" lon="0.1750430">
        <ele>1083.4</ele>
        <time>2013-05-12T10:21:38Z</time>
      </trkpt>
      <trkpt lat="40.7066260" lon="0.1747670">
        <ele>1083.2</ele>
        <time>2013-05-12T10:21:45Z</time>
      </trkpt>
      <trkpt lat="40.7064820" lon="0.1745320">
        <ele>1085.2</ele>
        <time>2013-05-12T10:21:53Z</time>
      </trkpt>
      <trkpt lat="40.7064030" lon="0.1743470">
        <ele>1085.8</ele>
        <time>2013-05-12T10:21:58Z</time>
      </trkpt>
      <trkpt lat="40.7064790" lon="0.1741340">
        <ele>1085.8</ele>
        <time>2013-05-12T10:22:03Z</time>
      </trkpt>
      <trkpt lat="40.7065690" lon="0.1740820">
        <ele>1085.3</ele>
        <time>2013-05-12T10:22:05Z</time>
      </trkpt>
      <trkpt lat="40.7068150" lon="0.1739120">
        <ele>1083.7</ele>
        <time>2013-05-12T10:22:10Z</time>
      </trkpt>
      <trkpt lat="40.7068650" lon="0.1737610">
        <ele>1083.0</ele>
        <time>2013-05-12T10:22:12Z</time>
      </trkpt>
      <trkpt lat="40.7069010" lon="0.1735970">
        <ele>1082.4</ele>
        <time>2013-05-12T10:22:14Z</time>
      </trkpt>
      <trkpt lat="40.7068350" lon="0.1732460">
        <ele>1080.0</ele>
        <time>2013-05-12T10:22:18Z</time>
      </trkpt>
      <trkpt lat="40.7066810" lon="0.1730480">
        <ele>1078.3</ele>
        <time>2013-05-12T10:22:21Z</time>
      </trkpt>
      <trkpt lat="40.7066220" lon="0.1730370">
        <ele>1077.7</ele>
        <time>2013-05-12T10:22:22Z</time>
      </trkpt>
      <trkpt lat="40.7063590" lon="0.1729160">
        <ele>1075.9</ele>
        <time>2013-05-12T10:22:27Z</time>
      </trkpt>
      <trkpt lat="40.7063100" lon="0.1728640">
        <ele>1075.6</ele>
        <time>2013-05-12T10:22:28Z</time>
      </trkpt>
      <trkpt lat="40.7060870" lon="0.1727810">
        <ele>1074.6</ele>
        <time>2013-05-12T10:22:32Z</time>
      </trkpt>
      <trkpt lat="40.7059260" lon="0.1727650">
        <ele>1073.5</ele>
        <time>2013-05-12T10:22:36Z</time>
      </trkpt>
      <trkpt lat="40.7058730" lon="0.1727820">
        <ele>1072.2</ele>
        <time>2013-05-12T10:22:39Z</time>
      </trkpt>
      <trkpt lat="40.7058600" lon="0.1727740">
        <ele>1072.1</ele>
        <time>2013-05-12T10:22:41Z</time>
      </trkpt>
      <trkpt lat="40.7058440" lon="0.1727180">
        <ele>1072.0</ele>
        <time>2013-05-12T10:22:45Z</time>
      </trkpt>
      <trkpt lat="40.7057470" lon="0.1725360">
        <ele>1072.2</ele>
        <time>2013-05-12T10:22:53Z</time>
      </trkpt>
      <trkpt lat="40.7056800" lon="0.1723780">
        <ele>1073.1</ele>
        <time>2013-05-12T10:22:59Z</time>
      </trkpt>
      <trkpt lat="40.7056190" lon="0.1722850">
        <ele>1074.5</ele>
        <time>2013-05-12T10:23:04Z</time>
      </trkpt>
      <trkpt lat="40.7055540" lon="0.1721940">
        <ele>1075.7</ele>
        <time>2013-05-12T10:23:08Z</time>
      </trkpt>
      <trkpt lat="40.7054850" lon="0.1720910">
        <ele>1076.8</ele>
        <time>2013-05-12T10:23:12Z</time>
      </trkpt>
      <trkpt lat="40.7054270" lon="0.1720200">
        <ele>1077.7</ele>
        <time>2013-05-12T10:23:15Z</time>
      </trkpt>
      <trkpt lat="40.7053840" lon="0.1719710">
        <ele>1078.1</ele>
        <time>2013-05-12T10:23:17Z</time>
      </trkpt>
      <trkpt lat="40.7052890" lon="0.1718270">
        <ele>1079.2</ele>
        <time>2013-05-12T10:23:22Z</time>
      </trkpt>
      <trkpt lat="40.7051560" lon="0.1715370">
        <ele>1080.2</ele>
        <time>2013-05-12T10:23:30Z</time>
      </trkpt>
      <trkpt lat="40.7050700" lon="0.1713600">
        <ele>1081.1</ele>
        <time>2013-05-12T10:23:35Z</time>
      </trkpt>
      <trkpt lat="40.7050860" lon="0.1712130">
        <ele>1081.4</ele>
        <time>2013-05-12T10:23:39Z</time>
      </trkpt>
      <trkpt lat="40.7051420" lon="0.1711910">
        <ele>1082.3</ele>
        <time>2013-05-12T10:23:42Z</time>
      </trkpt>
      <trkpt lat="40.7052530" lon="0.1711230">
        <ele>1084.6</ele>
        <time>2013-05-12T10:23:47Z</time>
      </trkpt>
      <trkpt lat="40.7053210" lon="0.1712050">
        <ele>1085.1</ele>
        <time>2013-05-12T10:23:51Z</time>
      </trkpt>
      <trkpt lat="40.7053630" lon="0.1713300">
        <ele>1085.7</ele>
        <time>2013-05-12T10:23:56Z</time>
      </trkpt>
      <trkpt lat="40.7053700" lon="0.1713580">
        <ele>1085.8</ele>
        <time>2013-05-12T10:23:59Z</time>
      </trkpt>
      <trkpt lat="40.7053310" lon="0.1713100">
        <ele>1102.5</ele>
        <time>2013-05-12T10:53:44Z</time>
      </trkpt>
      <trkpt lat="40.7053300" lon="0.1713150">
        <ele>1102.6</ele>
        <time>2013-05-12T10:53:45Z</time>
      </trkpt>
      <trkpt lat="40.7053320" lon="0.1712790">
        <ele>1102.8</ele>
        <time>2013-05-12T10:54:25Z</time>
      </trkpt>
      <trkpt lat="40.7053120" lon="0.1712370">
        <ele>1103.0</ele>
        <time>2013-05-12T10:54:27Z</time>
      </trkpt>
      <trkpt lat="40.7052990" lon="0.1712170">
        <ele>1103.0</ele>
        <time>2013-05-12T10:54:28Z</time>
      </trkpt>
      <trkpt lat="40.7052750" lon="0.1711170">
        <ele>1102.5</ele>
        <time>2013-05-12T10:54:31Z</time>
      </trkpt>
      <trkpt lat="40.7052650" lon="0.1710460">
        <ele>1102.4</ele>
        <time>2013-05-12T10:54:33Z</time>
      </trkpt>
      <trkpt lat="40.7052600" lon="0.1710040">
        <ele>1102.5</ele>
        <time>2013-05-12T10:54:34Z</time>
      </trkpt>
      <trkpt lat="40.7052700" lon="0.1708670">
        <ele>1102.6</ele>
        <time>2013-05-12T10:54:37Z</time>
      </trkpt>
      <trkpt lat="40.7053200" lon="0.1706610">
        <ele>1102.2</ele>
        <time>2013-05-12T10:54:41Z</time>
      </trkpt>
      <trkpt lat="40.7053400" lon="0.1706110">
        <ele>1102.2</ele>
        <time>2013-05-12T10:54:42Z</time>
      </trkpt>
      <trkpt lat="40.7054630" lon="0.1704860">
        <ele>1102.0</ele>
        <time>2013-05-12T10:54:46Z</time>
      </trkpt>
      <trkpt lat="40.7055610" lon="0.1703450">
        <ele>1103.2</ele>
        <time>2013-05-12T10:54:51Z</time>
      </trkpt>
      <trkpt lat="40.7056040" lon="0.1702460">
        <ele>1103.6</ele>
        <time>2013-05-12T10:54:55Z</time>
      </trkpt>
      <trkpt lat="40.7056350" lon="0.1701740">
        <ele>1104.7</ele>
        <time>2013-05-12T10:54:58Z</time>
      </trkpt>
      <trkpt lat="40.7056590" lon="0.1701290">
        <ele>1105.8</ele>
        <time>2013-05-12T10:55:01Z</time>
      </trkpt>
      <trkpt lat="40.7056610" lon="0.1701220">
        <ele>1105.2</ele>
        <time>2013-05-12T10:55:03Z</time>
      </trkpt>
      <trkpt lat="40.7056730" lon="0.1700680">
        <ele>1105.5</ele>
        <time>2013-05-12T10:55:26Z</time>
      </trkpt>
      <trkpt lat="40.7056470" lon="0.1698790">
        <ele>1104.3</ele>
        <time>2013-05-12T10:55:31Z</time>
      </trkpt>
      <trkpt lat="40.7055830" lon="0.1696390">
        <ele>1102.8</ele>
        <time>2013-05-12T10:55:35Z</time>
      </trkpt>
      <trkpt lat="40.7054810" lon="0.1694440">
        <ele>1101.1</ele>
        <time>2013-05-12T10:55:38Z</time>
      </trkpt>
      <trkpt lat="40.7054410" lon="0.1693750">
        <ele>1100.9</ele>
        <time>2013-05-12T10:55:39Z</time>
      </trkpt>
      <trkpt lat="40.7053640" lon="0.1692420">
        <ele>1100.8</ele>
        <time>2013-05-12T10:55:41Z</time>
      </trkpt>
      <trkpt lat="40.7053250" lon="0.1691810">
        <ele>1100.8</ele>
        <time>2013-05-12T10:55:42Z</time>
      </trkpt>
      <trkpt lat="40.7051980" lon="0.1690170">
        <ele>1100.5</ele>
        <time>2013-05-12T10:55:45Z</time>
      </trkpt>
      <trkpt lat="40.7049970" lon="0.1687470">
        <ele>1102.3</ele>
        <time>2013-05-12T10:55:50Z</time>
      </trkpt>
      <trkpt lat="40.7048870" lon="0.1686070">
        <ele>1102.0</ele>
        <time>2013-05-12T10:55:53Z</time>
      </trkpt>
      <trkpt lat="40.7048530" lon="0.1685620">
        <ele>1101.5</ele>
        <time>2013-05-12T10:55:54Z</time>
      </trkpt>
      <trkpt lat="40.7048180" lon="0.1685180">
        <ele>1101.1</ele>
        <time>2013-05-12T10:55:55Z</time>
      </trkpt>
      <trkpt lat="40.7045980" lon="0.1682390">
        <ele>1099.7</ele>
        <time>2013-05-12T10:56:02Z</time>
      </trkpt>
      <trkpt lat="40.7044570" lon="0.1680600">
        <ele>1100.0</ele>
        <time>2013-05-12T10:56:07Z</time>
      </trkpt>
      <trkpt lat="40.7043450" lon="0.1679200">
        <ele>1101.1</ele>
        <time>2013-05-12T10:56:11Z</time>
      </trkpt>
      <trkpt lat="40.7042890" lon="0.1678510">
        <ele>1101.6</ele>
        <time>2013-05-12T10:56:13Z</time>
      </trkpt>
      <trkpt lat="40.7042620" lon="0.1678150">
        <ele>1101.8</ele>
        <time>2013-05-12T10:56:14Z</time>
      </trkpt>
      <trkpt lat="40.7041160" lon="0.1676260">
        <ele>1102.7</ele>
        <time>2013-05-12T10:56:19Z</time>
      </trkpt>
      <trkpt lat="40.7039770" lon="0.1674470">
        <ele>1103.7</ele>
        <time>2013-05-12T10:56:24Z</time>
      </trkpt>
      <trkpt lat="40.7038150" lon="0.1672290">
        <ele>1105.2</ele>
        <time>2013-05-12T10:56:30Z</time>
      </trkpt>
      <trkpt lat="40.7037010" lon="0.1670890">
        <ele>1106.0</ele>
        <time>2013-05-12T10:56:34Z</time>
      </trkpt>
      <trkpt lat="40.7034760" lon="0.1668640">
        <ele>1107.7</ele>
        <time>2013-05-12T10:56:41Z</time>
      </trkpt>
      <trkpt lat="40.7032690" lon="0.1666880">
        <ele>1108.9</ele>
        <time>2013-05-12T10:56:47Z</time>
      </trkpt>
      <trkpt lat="40.7029640" lon="0.1664240">
        <ele>1110.3</ele>
        <time>2013-05-12T10:56:56Z</time>
      </trkpt>
      <trkpt lat="40.7027050" lon="0.1661970">
        <ele>1112.0</ele>
        <time>2013-05-12T10:57:04Z</time>
      </trkpt>
      <trkpt lat="40.7024810" lon="0.1659840">
        <ele>1111.7</ele>
        <time>2013-05-12T10:57:11Z</time>
      </trkpt>
      <trkpt lat="40.7024640" lon="0.1659410">
        <ele>1111.8</ele>
        <time>2013-05-12T10:57:12Z</time>
      </trkpt>
      <trkpt lat="40.7023520" lon="0.1655590">
        <ele>1111.0</ele>
        <time>2013-05-12T10:57:18Z</time>
      </trkpt>
      <trkpt lat="40.7022540" lon="0.1653520">
        <ele>1111.1</ele>
        <time>2013-05-12T10:57:23Z</time>
      </trkpt>
      <trkpt lat="40.7021470" lon="0.1652080">
        <ele>1112.3</ele>
        <time>2013-05-12T10:57:29Z</time>
      </trkpt>
      <trkpt lat="40.7020450" lon="0.1650340">
        <ele>1114.1</ele>
        <time>2013-05-12T10:57:36Z</time>
      </trkpt>
      <trkpt lat="40.7018940" lon="0.1648130">
        <ele>1115.1</ele>
        <time>2013-05-12T10:57:45Z</time>
      </trkpt>
      <trkpt lat="40.7017640" lon="0.1646590">
        <ele>1116.2</ele>
        <time>2013-05-12T10:57:52Z</time>
      </trkpt>
      <trkpt lat="40.7016300" lon="0.1644860">
        <ele>1117.2</ele>
        <time>2013-05-12T10:57:59Z</time>
      </trkpt>
      <trkpt lat="40.7015000" lon="0.1643230">
        <ele>1118.1</ele>
        <time>2013-05-12T10:58:05Z</time>
      </trkpt>
      <trkpt lat="40.7012880" lon="0.1640520">
        <ele>1119.4</ele>
        <time>2013-05-12T10:58:14Z</time>
      </trkpt>
      <trkpt lat="40.7011420" lon="0.1638590">
        <ele>1120.1</ele>
        <time>2013-05-12T10:58:21Z</time>
      </trkpt>
      <trkpt lat="40.7010050" lon="0.1636730">
        <ele>1121.0</ele>
        <time>2013-05-12T10:58:27Z</time>
      </trkpt>
      <trkpt lat="40.7009340" lon="0.1634640">
        <ele>1122.4</ele>
        <time>2013-05-12T10:58:33Z</time>
      </trkpt>
      <trkpt lat="40.7008000" lon="0.1632630">
        <ele>1123.9</ele>
        <time>2013-05-12T10:58:40Z</time>
      </trkpt>
      <trkpt lat="40.7006410" lon="0.1632220">
        <ele>1124.0</ele>
        <time>2013-05-12T10:58:45Z</time>
      </trkpt>
      <trkpt lat="40.7005230" lon="0.1632270">
        <ele>1124.0</ele>
        <time>2013-05-12T10:58:48Z</time>
      </trkpt>
      <trkpt lat="40.7003810" lon="0.1631190">
        <ele>1123.6</ele>
        <time>2013-05-12T10:58:52Z</time>
      </trkpt>
      <trkpt lat="40.7003560" lon="0.1630310">
        <ele>1123.7</ele>
        <time>2013-05-12T10:58:54Z</time>
      </trkpt>
      <trkpt lat="40.7003160" lon="0.1627800">
        <ele>1125.1</ele>
        <time>2013-05-12T10:59:01Z</time>
      </trkpt>
      <trkpt lat="40.7002740" lon="0.1625130">
        <ele>1127.3</ele>
        <time>2013-05-12T10:59:08Z</time>
      </trkpt>
      <trkpt lat="40.7002220" lon="0.1623490">
        <ele>1128.8</ele>
        <time>2013-05-12T10:59:13Z</time>
      </trkpt>
      <trkpt lat="40.7001070" lon="0.1621120">
        <ele>1130.7</ele>
        <time>2013-05-12T10:59:20Z</time>
      </trkpt>
      <trkpt lat="40.7000020" lon="0.1618770">
        <ele>1132.4</ele>
        <time>2013-05-12T10:59:26Z</time>
      </trkpt>
      <trkpt lat="40.6999890" lon="0.1616620">
        <ele>1133.1</ele>
        <time>2013-05-12T10:59:31Z</time>
      </trkpt>
      <trkpt lat="40.6999260" lon="0.1614530">
        <ele>1134.8</ele>
        <time>2013-05-12T10:59:38Z</time>
      </trkpt>
      <trkpt lat="40.6998010" lon="0.1611720">
        <ele>1138.0</ele>
        <time>2013-05-12T10:59:48Z</time>
      </trkpt>
      <trkpt lat="40.6996840" lon="0.1609350">
        <ele>1140.3</ele>
        <time>2013-05-12T10:59:57Z</time>
      </trkpt>
      <trkpt lat="40.6995800" lon="0.1607100">
        <ele>1142.3</ele>
        <time>2013-05-12T11:00:05Z</time>
      </trkpt>
      <trkpt lat="40.6994960" lon="0.1604390">
        <ele>1143.8</ele>
        <time>2013-05-12T11:00:13Z</time>
      </trkpt>
      <trkpt lat="40.6994060" lon="0.1601990">
        <ele>1144.7</ele>
        <time>2013-05-12T11:00:20Z</time>
      </trkpt>
      <trkpt lat="40.6994080" lon="0.1600200">
        <ele>1145.8</ele>
        <time>2013-05-12T11:00:25Z</time>
      </trkpt>
      <trkpt lat="40.6994240" lon="0.1599210">
        <ele>1146.3</ele>
        <time>2013-05-12T11:00:30Z</time>
      </trkpt>
      <trkpt lat="40.6994240" lon="0.1599120">
        <ele>1146.3</ele>
        <time>2013-05-12T11:00:32Z</time>
      </trkpt>
      <trkpt lat="40.6993590" lon="0.1597790">
        <ele>1146.6</ele>
        <time>2013-05-12T11:00:38Z</time>
      </trkpt>
      <trkpt lat="40.6992670" lon="0.1597020">
        <ele>1148.6</ele>
        <time>2013-05-12T11:00:43Z</time>
      </trkpt>
      <trkpt lat="40.6991610" lon="0.1596950">
        <ele>1151.0</ele>
        <time>2013-05-12T11:00:49Z</time>
      </trkpt>
      <trkpt lat="40.6990750" lon="0.1596710">
        <ele>1152.8</ele>
        <time>2013-05-12T11:00:54Z</time>
      </trkpt>
      <trkpt lat="40.6990550" lon="0.1596450">
        <ele>1153.4</ele>
        <time>2013-05-12T11:00:56Z</time>
      </trkpt>
      <trkpt lat="40.6989670" lon="0.1595920">
        <ele>1155.6</ele>
        <time>2013-05-12T11:01:03Z</time>
      </trkpt>
      <trkpt lat="40.6989550" lon="0.1595830">
        <ele>1156.0</ele>
        <time>2013-05-12T11:01:04Z</time>
      </trkpt>
      <trkpt lat="40.6988740" lon="0.1595170">
        <ele>1157.9</ele>
        <time>2013-05-12T11:01:11Z</time>
      </trkpt>
      <trkpt lat="40.6988000" lon="0.1594830">
        <ele>1159.3</ele>
        <time>2013-05-12T11:01:17Z</time>
      </trkpt>
      <trkpt lat="40.6987170" lon="0.1594450">
        <ele>1160.8</ele>
        <time>2013-05-12T11:01:24Z</time>
      </trkpt>
      <trkpt lat="40.6986320" lon="0.1594020">
        <ele>1161.9</ele>
        <time>2013-05-12T11:01:32Z</time>
      </trkpt>
      <trkpt lat="40.6985560" lon="0.1593620">
        <ele>1163.0</ele>
        <time>2013-05-12T11:01:39Z</time>
      </trkpt>
      <trkpt lat="40.6984760" lon="0.1593230">
        <ele>1163.9</ele>
        <time>2013-05-12T11:01:47Z</time>
      </trkpt>
      <trkpt lat="40.6983970" lon="0.1592910">
        <ele>1165.2</ele>
        <time>2013-05-12T11:01:54Z</time>
      </trkpt>
      <trkpt lat="40.6982800" lon="0.1592070">
        <ele>1166.8</ele>
        <time>2013-05-12T11:02:04Z</time>
      </trkpt>
      <trkpt lat="40.6982540" lon="0.1592030">
        <ele>1167.1</ele>
        <time>2013-05-12T11:02:06Z</time>
      </trkpt>
      <trkpt lat="40.6982040" lon="0.1591810">
        <ele>1167.5</ele>
        <time>2013-05-12T11:02:10Z</time>
      </trkpt>
      <trkpt lat="40.6980860" lon="0.1591170">
        <ele>1168.3</ele>
        <time>2013-05-12T11:02:19Z</time>
      </trkpt>
      <trkpt lat="40.6979860" lon="0.1590920">
        <ele>1168.6</ele>
        <time>2013-05-12T11:02:25Z</time>
      </trkpt>
      <trkpt lat="40.6978940" lon="0.1590670">
        <ele>1168.7</ele>
        <time>2013-05-12T11:02:29Z</time>
      </trkpt>
      <trkpt lat="40.6976680" lon="0.1589970">
        <ele>1168.9</ele>
        <time>2013-05-12T11:02:36Z</time>
      </trkpt>
      <trkpt lat="40.6975280" lon="0.1588930">
        <ele>1169.0</ele>
        <time>2013-05-12T11:02:40Z</time>
      </trkpt>
      <trkpt lat="40.6973000" lon="0.1587910">
        <ele>1168.9</ele>
        <time>2013-05-12T11:02:46Z</time>
      </trkpt>
      <trkpt lat="40.6972080" lon="0.1587960">
        <ele>1169.2</ele>
        <time>2013-05-12T11:02:49Z</time>
      </trkpt>
      <trkpt lat="40.6971490" lon="0.1587930">
        <ele>1169.7</ele>
        <time>2013-05-12T11:02:51Z</time>
      </trkpt>
      <trkpt lat="40.6970560" lon="0.1587390">
        <ele>1170.7</ele>
        <time>2013-05-12T11:02:55Z</time>
      </trkpt>
      <trkpt lat="40.6969560" lon="0.1586560">
        <ele>1170.5</ele>
        <time>2013-05-12T11:02:59Z</time>
      </trkpt>
      <trkpt lat="40.6968460" lon="0.1585410">
        <ele>1171.1</ele>
        <time>2013-05-12T11:03:04Z</time>
      </trkpt>
      <trkpt lat="40.6967870" lon="0.1584120">
        <ele>1171.9</ele>
        <time>2013-05-12T11:03:09Z</time>
      </trkpt>
      <trkpt lat="40.6967420" lon="0.1582560">
        <ele>1173.7</ele>
        <time>2013-05-12T11:03:15Z</time>
      </trkpt>
      <trkpt lat="40.6966820" lon="0.1581510">
        <ele>1175.3</ele>
        <time>2013-05-12T11:03:20Z</time>
      </trkpt>
      <trkpt lat="40.6965930" lon="0.1580030">
        <ele>1177.5</ele>
        <time>2013-05-12T11:03:29Z</time>
      </trkpt>
      <trkpt lat="40.6965650" lon="0.1579320">
        <ele>1177.9</ele>
        <time>2013-05-12T11:03:32Z</time>
      </trkpt>
      <trkpt lat="40.6965160" lon="0.1577750">
        <ele>1178.5</ele>
        <time>2013-05-12T11:03:37Z</time>
      </trkpt>
      <trkpt lat="40.6963920" lon="0.1576220">
        <ele>1177.5</ele>
        <time>2013-05-12T11:03:41Z</time>
      </trkpt>
      <trkpt lat="40.6963550" lon="0.1575900">
        <ele>1177.3</ele>
        <time>2013-05-12T11:03:42Z</time>
      </trkpt>
      <trkpt lat="40.6961310" lon="0.1573330">
        <ele>1176.0</ele>
        <time>2013-05-12T11:03:48Z</time>
      </trkpt>
      <trkpt lat="40.6960480" lon="0.1572020">
        <ele>1174.3</ele>
        <time>2013-05-12T11:03:52Z</time>
      </trkpt>
      <trkpt lat="40.6958460" lon="0.1571940">
        <ele>1172.9</ele>
        <time>2013-05-12T11:03:59Z</time>
      </trkpt>
      <trkpt lat="40.6957760" lon="0.1571530">
        <ele>1171.7</ele>
        <time>2013-05-12T11:04:02Z</time>
      </trkpt>
      <trkpt lat="40.6957400" lon="0.1571290">
        <ele>1170.7</ele>
        <time>2013-05-12T11:04:04Z</time>
      </trkpt>
      <trkpt lat="40.6955830" lon="0.1571550">
        <ele>1169.3</ele>
        <time>2013-05-12T11:04:08Z</time>
      </trkpt>
      <trkpt lat="40.6952740" lon="0.1572250">
        <ele>1167.5</ele>
        <time>2013-05-12T11:04:15Z</time>
      </trkpt>
      <trkpt lat="40.6951220" lon="0.1571610">
        <ele>1167.2</ele>
        <time>2013-05-12T11:04:19Z</time>
      </trkpt>
      <trkpt lat="40.6951030" lon="0.1571200">
        <ele>1167.0</ele>
        <time>2013-05-12T11:04:20Z</time>
      </trkpt>
      <trkpt lat="40.6950230" lon="0.1568320">
        <ele>1166.1</ele>
        <time>2013-05-12T11:04:26Z</time>
      </trkpt>
      <trkpt lat="40.6950200" lon="0.1567790">
        <ele>1165.7</ele>
        <time>2013-05-12T11:04:27Z</time>
      </trkpt>
      <trkpt lat="40.6949740" lon="0.1565890">
        <ele>1165.1</ele>
        <time>2013-05-12T11:04:31Z</time>
      </trkpt>
      <trkpt lat="40.6949290" lon="0.1563310">
        <ele>1164.6</ele>
        <time>2013-05-12T11:04:37Z</time>
      </trkpt>
      <trkpt lat="40.6949290" lon="0.1559150">
        <ele>1164.1</ele>
        <time>2013-05-12T11:04:45Z</time>
      </trkpt>
      <trkpt lat="40.6949350" lon="0.1556620">
        <ele>1163.8</ele>
        <time>2013-05-12T11:04:50Z</time>
      </trkpt>
      <trkpt lat="40.6949780" lon="0.1555770">
        <ele>1163.5</ele>
        <time>2013-05-12T11:04:52Z</time>
      </trkpt>
      <trkpt lat="40.6949890" lon="0.1553520">
        <ele>1162.1</ele>
        <time>2013-05-12T11:04:56Z</time>
      </trkpt>
      <trkpt lat="40.6949720" lon="0.1552450">
        <ele>1161.9</ele>
        <time>2013-05-12T11:04:58Z</time>
      </trkpt>
      <trkpt lat="40.6950060" lon="0.1550390">
        <ele>1161.4</ele>
        <time>2013-05-12T11:05:02Z</time>
      </trkpt>
      <trkpt lat="40.6950200" lon="0.1548890">
        <ele>1161.0</ele>
        <time>2013-05-12T11:05:05Z</time>
      </trkpt>
      <trkpt lat="40.6950670" lon="0.1546150">
        <ele>1160.6</ele>
        <time>2013-05-12T11:05:11Z</time>
      </trkpt>
      <trkpt lat="40.6950660" lon="0.1544630">
        <ele>1160.4</ele>
        <time>2013-05-12T11:05:16Z</time>
      </trkpt>
      <trkpt lat="40.6950700" lon="0.1544450">
        <ele>1160.3</ele>
        <time>2013-05-12T11:05:19Z</time>
      </trkpt>
      <trkpt lat="40.6951040" lon="0.1543670">
        <ele>1159.5</ele>
        <time>2013-05-12T11:05:33Z</time>
      </trkpt>
      <trkpt lat="40.6951040" lon="0.1543610">
        <ele>1159.3</ele>
        <time>2013-05-12T11:05:34Z</time>
      </trkpt>
      <trkpt lat="40.6951100" lon="0.1543080">
        <ele>1158.9</ele>
        <time>2013-05-12T11:05:42Z</time>
      </trkpt>
      <trkpt lat="40.6951090" lon="0.1541750">
        <ele>1158.3</ele>
        <time>2013-05-12T11:05:48Z</time>
      </trkpt>
      <trkpt lat="40.6951160" lon="0.1540160">
        <ele>1157.4</ele>
        <time>2013-05-12T11:05:53Z</time>
      </trkpt>
      <trkpt lat="40.6951570" lon="0.1539330">
        <ele>1157.4</ele>
        <time>2013-05-12T11:06:00Z</time>
      </trkpt>
      <trkpt lat="40.6951510" lon="0.1538770">
        <ele>1156.8</ele>
        <time>2013-05-12T11:06:04Z</time>
      </trkpt>
      <trkpt lat="40.6951700" lon="0.1536590">
        <ele>1156.5</ele>
        <time>2013-05-12T11:06:12Z</time>
      </trkpt>
      <trkpt lat="40.6951940" lon="0.1535020">
        <ele>1157.0</ele>
        <time>2013-05-12T11:06:17Z</time>
      </trkpt>
      <trkpt lat="40.6952330" lon="0.1532930">
        <ele>1157.1</ele>
        <time>2013-05-12T11:06:23Z</time>
      </trkpt>
      <trkpt lat="40.6952230" lon="0.1531020">
        <ele>1156.6</ele>
        <time>2013-05-12T11:06:28Z</time>
      </trkpt>
      <trkpt lat="40.6952130" lon="0.1530410">
        <ele>1156.5</ele>
        <time>2013-05-12T11:06:30Z</time>
      </trkpt>
      <trkpt lat="40.6951190" lon="0.1530010">
        <ele>1155.7</ele>
        <time>2013-05-12T11:06:36Z</time>
      </trkpt>
      <trkpt lat="40.6950170" lon="0.1529880">
        <ele>1154.2</ele>
        <time>2013-05-12T11:06:41Z</time>
      </trkpt>
      <trkpt lat="40.6949570" lon="0.1529140">
        <ele>1153.6</ele>
        <time>2013-05-12T11:06:45Z</time>
      </trkpt>
      <trkpt lat="40.6949470" lon="0.1528920">
        <ele>1153.4</ele>
        <time>2013-05-12T11:06:46Z</time>
      </trkpt>
      <trkpt lat="40.6949090" lon="0.1528420">
        <ele>1153.1</ele>
        <time>2013-05-12T11:06:49Z</time>
      </trkpt>
      <trkpt lat="40.6948370" lon="0.1527440">
        <ele>1153.1</ele>
        <time>2013-05-12T11:06:55Z</time>
      </trkpt>
      <trkpt lat="40.6948060" lon="0.1526650">
        <ele>1153.4</ele>
        <time>2013-05-12T11:06:59Z</time>
      </trkpt>
      <trkpt lat="40.6948040" lon="0.1526380">
        <ele>1153.5</ele>
        <time>2013-05-12T11:07:00Z</time>
      </trkpt>
      <trkpt lat="40.6947970" lon="0.1525320">
        <ele>1153.2</ele>
        <time>2013-05-12T11:07:04Z</time>
      </trkpt>
      <trkpt lat="40.6947930" lon="0.1524740">
        <ele>1153.1</ele>
        <time>2013-05-12T11:07:06Z</time>
      </trkpt>
      <trkpt lat="40.6947910" lon="0.1524430">
        <ele>1153.1</ele>
        <time>2013-05-12T11:07:07Z</time>
      </trkpt>
      <trkpt lat="40.6947680" lon="0.1522630">
        <ele>1153.2</ele>
        <time>2013-05-12T11:07:13Z</time>
      </trkpt>
      <trkpt lat="40.6947490" lon="0.1520880">
        <ele>1152.9</ele>
        <time>2013-05-12T11:07:19Z</time>
      </trkpt>
      <trkpt lat="40.6947340" lon="0.1518740">
        <ele>1152.5</ele>
        <time>2013-05-12T11:07:26Z</time>
      </trkpt>
      <trkpt lat="40.6947220" lon="0.1517200">
        <ele>1152.3</ele>
        <time>2013-05-12T11:07:31Z</time>
      </trkpt>
      <trkpt lat="40.6947330" lon="0.1515570">
        <ele>1151.2</ele>
        <time>2013-05-12T11:07:36Z</time>
      </trkpt>
      <trkpt lat="40.6947490" lon="0.1514550">
        <ele>1149.6</ele>
        <time>2013-05-12T11:07:40Z</time>
      </trkpt>
      <trkpt lat="40.6947110" lon="0.1513540">
        <ele>1148.9</ele>
        <time>2013-05-12T11:07:45Z</time>
      </trkpt>
      <trkpt lat="40.6947020" lon="0.1513140">
        <ele>1148.6</ele>
        <time>2013-05-12T11:07:49Z</time>
      </trkpt>
      <trkpt lat="40.6946190" lon="0.1513290">
        <ele>1150.2</ele>
        <time>2013-05-12T11:08:02Z</time>
      </trkpt>
      <trkpt lat="40.6945840" lon="0.1513480">
        <ele>1150.6</ele>
        <time>2013-05-12T11:08:06Z</time>
      </trkpt>
      <trkpt lat="40.6945350" lon="0.1513160">
        <ele>1151.1</ele>
        <time>2013-05-12T11:08:11Z</time>
      </trkpt>
      <trkpt lat="40.6944640" lon="0.1512230">
        <ele>1150.2</ele>
        <time>2013-05-12T11:08:17Z</time>
      </trkpt>
      <trkpt lat="40.6944380" lon="0.1510920">
        <ele>1149.6</ele>
        <time>2013-05-12T11:08:23Z</time>
      </trkpt>
      <trkpt lat="40.6944390" lon="0.1509430">
        <ele>1148.5</ele>
        <time>2013-05-12T11:08:27Z</time>
      </trkpt>
      <trkpt lat="40.6944420" lon="0.1507690">
        <ele>1147.9</ele>
        <time>2013-05-12T11:08:31Z</time>
      </trkpt>
      <trkpt lat="40.6944340" lon="0.1505640">
        <ele>1147.2</ele>
        <time>2013-05-12T11:08:35Z</time>
      </trkpt>
      <trkpt lat="40.6944240" lon="0.1503440">
        <ele>1146.3</ele>
        <time>2013-05-12T11:08:39Z</time>
      </trkpt>
      <trkpt lat="40.6944430" lon="0.1500780">
        <ele>1146.2</ele>
        <time>2013-05-12T11:08:45Z</time>
      </trkpt>
      <trkpt lat="40.6944690" lon="0.1497630">
        <ele>1145.8</ele>
        <time>2013-05-12T11:08:52Z</time>
      </trkpt>
      <trkpt lat="40.6944730" lon="0.1497110">
        <ele>1145.5</ele>
        <time>2013-05-12T11:08:53Z</time>
      </trkpt>
      <trkpt lat="40.6944920" lon="0.1496040">
        <ele>1145.0</ele>
        <time>2013-05-12T11:08:55Z</time>
      </trkpt>
      <trkpt lat="40.6945080" lon="0.1493660">
        <ele>1144.1</ele>
        <time>2013-05-12T11:08:59Z</time>
      </trkpt>
      <trkpt lat="40.6945390" lon="0.1491810">
        <ele>1143.4</ele>
        <time>2013-05-12T11:09:02Z</time>
      </trkpt>
      <trkpt lat="40.6946030" lon="0.1488990">
        <ele>1142.1</ele>
        <time>2013-05-12T11:09:07Z</time>
      </trkpt>
      <trkpt lat="40.6946800" lon="0.1485430">
        <ele>1141.3</ele>
        <time>2013-05-12T11:09:14Z</time>
      </trkpt>
      <trkpt lat="40.6946930" lon="0.1484860">
        <ele>1140.9</ele>
        <time>2013-05-12T11:09:15Z</time>
      </trkpt>
      <trkpt lat="40.6947600" lon="0.1482610">
        <ele>1139.9</ele>
        <time>2013-05-12T11:09:19Z</time>
      </trkpt>
      <trkpt lat="40.6948580" lon="0.1480610">
        <ele>1138.6</ele>
        <time>2013-05-12T11:09:24Z</time>
      </trkpt>
      <trkpt lat="40.6948510" lon="0.1480400">
        <ele>1138.3</ele>
        <time>2013-05-12T11:09:25Z</time>
      </trkpt>
      <trkpt lat="40.6947810" lon="0.1478850">
        <ele>1138.8</ele>
        <time>2013-05-12T11:09:31Z</time>
      </trkpt>
      <trkpt lat="40.6947480" lon="0.1478040">
        <ele>1139.3</ele>
        <time>2013-05-12T11:09:34Z</time>
      </trkpt>
      <trkpt lat="40.6946160" lon="0.1474980">
        <ele>1140.7</ele>
        <time>2013-05-12T11:09:44Z</time>
      </trkpt>
      <trkpt lat="40.6945490" lon="0.1472760">
        <ele>1141.2</ele>
        <time>2013-05-12T11:09:50Z</time>
      </trkpt>
      <trkpt lat="40.6945300" lon="0.1470650">
        <ele>1141.1</ele>
        <time>2013-05-12T11:09:55Z</time>
      </trkpt>
      <trkpt lat="40.6944920" lon="0.1469390">
        <ele>1141.0</ele>
        <time>2013-05-12T11:09:59Z</time>
      </trkpt>
      <trkpt lat="40.6944770" lon="0.1468980">
        <ele>1142.3</ele>
        <time>2013-05-12T11:10:04Z</time>
      </trkpt>
      <trkpt lat="40.6944680" lon="0.1468650">
        <ele>1142.5</ele>
        <time>2013-05-12T11:10:08Z</time>
      </trkpt>
      <trkpt lat="40.6944810" lon="0.1467330">
        <ele>1143.5</ele>
        <time>2013-05-12T11:10:15Z</time>
      </trkpt>
      <trkpt lat="40.6944800" lon="0.1467120">
        <ele>1143.6</ele>
        <time>2013-05-12T11:10:16Z</time>
      </trkpt>
      <trkpt lat="40.6944560" lon="0.1465010">
        <ele>1143.2</ele>
        <time>2013-05-12T11:10:22Z</time>
      </trkpt>
      <trkpt lat="40.6944720" lon="0.1463200">
        <ele>1143.0</ele>
        <time>2013-05-12T11:10:26Z</time>
      </trkpt>
      <trkpt lat="40.6945670" lon="0.1462160">
        <ele>1142.9</ele>
        <time>2013-05-12T11:10:29Z</time>
      </trkpt>
      <trkpt lat="40.6946720" lon="0.1459950">
        <ele>1141.9</ele>
        <time>2013-05-12T11:10:33Z</time>
      </trkpt>
      <trkpt lat="40.6946960" lon="0.1459300">
        <ele>1141.6</ele>
        <time>2013-05-12T11:10:34Z</time>
      </trkpt>
      <trkpt lat="40.6947560" lon="0.1457380">
        <ele>1140.7</ele>
        <time>2013-05-12T11:10:37Z</time>
      </trkpt>
      <trkpt lat="40.6947880" lon="0.1456220">
        <ele>1140.1</ele>
        <time>2013-05-12T11:10:39Z</time>
      </trkpt>
      <trkpt lat="40.6948480" lon="0.1453320">
        <ele>1138.5</ele>
        <time>2013-05-12T11:10:44Z</time>
      </trkpt>
      <trkpt lat="40.6949010" lon="0.1452610">
        <ele>1137.8</ele>
        <time>2013-05-12T11:10:46Z</time>
      </trkpt>
      <trkpt lat="40.6950360" lon="0.1450190">
        <ele>1135.9</ele>
        <time>2013-05-12T11:10:51Z</time>
      </trkpt>
      <trkpt lat="40.6950770" lon="0.1448110">
        <ele>1133.5</ele>
        <time>2013-05-12T11:10:55Z</time>
      </trkpt>
      <trkpt lat="40.6951340" lon="0.1448110">
        <ele>1131.3</ele>
        <time>2013-05-12T11:10:59Z</time>
      </trkpt>
      <trkpt lat="40.6951640" lon="0.1448310">
        <ele>1130.2</ele>
        <time>2013-05-12T11:11:01Z</time>
      </trkpt>
      <trkpt lat="40.6952000" lon="0.1448540">
        <ele>1129.3</ele>
        <time>2013-05-12T11:11:03Z</time>
      </trkpt>
      <trkpt lat="40.6953390" lon="0.1449010">
        <ele>1126.4</ele>
        <time>2013-05-12T11:11:09Z</time>
      </trkpt>
      <trkpt lat="40.6954350" lon="0.1448870">
        <ele>1124.3</ele>
        <time>2013-05-12T11:11:13Z</time>
      </trkpt>
      <trkpt lat="40.6954610" lon="0.1447880">
        <ele>1123.7</ele>
        <time>2013-05-12T11:11:17Z</time>
      </trkpt>
      <trkpt lat="40.6954820" lon="0.1447070">
        <ele>1122.9</ele>
        <time>2013-05-12T11:11:21Z</time>
      </trkpt>
      <trkpt lat="40.6954850" lon="0.1446900">
        <ele>1122.3</ele>
        <time>2013-05-12T11:11:23Z</time>
      </trkpt>
      <trkpt lat="40.6955170" lon="0.1445550">
        <ele>1121.2</ele>
        <time>2013-05-12T11:11:29Z</time>
      </trkpt>
      <trkpt lat="40.6955410" lon="0.1444910">
        <ele>1120.9</ele>
        <time>2013-05-12T11:11:31Z</time>
      </trkpt>
      <trkpt lat="40.6955910" lon="0.1443070">
        <ele>1119.7</ele>
        <time>2013-05-12T11:11:36Z</time>
      </trkpt>
      <trkpt lat="40.6956090" lon="0.1441750">
        <ele>1117.1</ele>
        <time>2013-05-12T11:11:40Z</time>
      </trkpt>
      <trkpt lat="40.6956040" lon="0.1440150">
        <ele>1114.6</ele>
        <time>2013-05-12T11:11:44Z</time>
      </trkpt>
      <trkpt lat="40.6955840" lon="0.1438490">
        <ele>1111.2</ele>
        <time>2013-05-12T11:11:49Z</time>
      </trkpt>
      <trkpt lat="40.6955500" lon="0.1436760">
        <ele>1107.7</ele>
        <time>2013-05-12T11:11:54Z</time>
      </trkpt>
      <trkpt lat="40.6955270" lon="0.1435730">
        <ele>1105.1</ele>
        <time>2013-05-12T11:11:58Z</time>
      </trkpt>
      <trkpt lat="40.6955170" lon="0.1434910">
        <ele>1103.9</ele>
        <time>2013-05-12T11:12:01Z</time>
      </trkpt>
      <trkpt lat="40.6955340" lon="0.1433830">
        <ele>1101.5</ele>
        <time>2013-05-12T11:12:06Z</time>
      </trkpt>
      <trkpt lat="40.6955300" lon="0.1432540">
        <ele>1099.5</ele>
        <time>2013-05-12T11:12:10Z</time>
      </trkpt>
      <trkpt lat="40.6955150" lon="0.1430100">
        <ele>1095.4</ele>
        <time>2013-05-12T11:12:17Z</time>
      </trkpt>
      <trkpt lat="40.6955240" lon="0.1428760">
        <ele>1093.5</ele>
        <time>2013-05-12T11:12:20Z</time>
      </trkpt>
      <trkpt lat="40.6955710" lon="0.1426390">
        <ele>1091.6</ele>
        <time>2013-05-12T11:12:26Z</time>
      </trkpt>
      <trkpt lat="40.6956420" lon="0.1424990">
        <ele>1089.7</ele>
        <time>2013-05-12T11:12:30Z</time>
      </trkpt>
      <trkpt lat="40.6957270" lon="0.1423190">
        <ele>1089.2</ele>
        <time>2013-05-12T11:12:35Z</time>
      </trkpt>
      <trkpt lat="40.6958240" lon="0.1421490">
        <ele>1088.6</ele>
        <time>2013-05-12T11:12:39Z</time>
      </trkpt>
      <trkpt lat="40.6959150" lon="0.1419090">
        <ele>1087.5</ele>
        <time>2013-05-12T11:12:44Z</time>
      </trkpt>
      <trkpt lat="40.6959570" lon="0.1417200">
        <ele>1085.9</ele>
        <time>2013-05-12T11:12:48Z</time>
      </trkpt>
      <trkpt lat="40.6959640" lon="0.1415050">
        <ele>1082.3</ele>
        <time>2013-05-12T11:12:52Z</time>
      </trkpt>
      <trkpt lat="40.6960390" lon="0.1412590">
        <ele>1078.7</ele>
        <time>2013-05-12T11:12:57Z</time>
      </trkpt>
      <trkpt lat="40.6960640" lon="0.1412350">
        <ele>1078.5</ele>
        <time>2013-05-12T11:12:58Z</time>
      </trkpt>
      <trkpt lat="40.6960890" lon="0.1411750">
        <ele>1077.7</ele>
        <time>2013-05-12T11:13:01Z</time>
      </trkpt>
      <trkpt lat="40.6961480" lon="0.1410120">
        <ele>1077.1</ele>
        <time>2013-05-12T11:13:08Z</time>
      </trkpt>
      <trkpt lat="40.6961610" lon="0.1408790">
        <ele>1077.5</ele>
        <time>2013-05-12T11:13:14Z</time>
      </trkpt>
      <trkpt lat="40.6961320" lon="0.1407440">
        <ele>1079.2</ele>
        <time>2013-05-12T11:13:20Z</time>
      </trkpt>
      <trkpt lat="40.6961080" lon="0.1405740">
        <ele>1078.8</ele>
        <time>2013-05-12T11:13:25Z</time>
      </trkpt>
      <trkpt lat="40.6961110" lon="0.1404550">
        <ele>1077.9</ele>
        <time>2013-05-12T11:13:29Z</time>
      </trkpt>
      <trkpt lat="40.6960940" lon="0.1402990">
        <ele>1075.9</ele>
        <time>2013-05-12T11:13:35Z</time>
      </trkpt>
      <trkpt lat="40.6960910" lon="0.1401050">
        <ele>1076.1</ele>
        <time>2013-05-12T11:13:42Z</time>
      </trkpt>
      <trkpt lat="40.6960810" lon="0.1399620">
        <ele>1075.6</ele>
        <time>2013-05-12T11:13:46Z</time>
      </trkpt>
      <trkpt lat="40.6960760" lon="0.1399030">
        <ele>1075.2</ele>
        <time>2013-05-12T11:13:50Z</time>
      </trkpt>
      <trkpt lat="40.6960680" lon="0.1398550">
        <ele>1075.1</ele>
        <time>2013-05-12T11:13:55Z</time>
      </trkpt>
      <trkpt lat="40.6960560" lon="0.1397660">
        <ele>1075.0</ele>
        <time>2013-05-12T11:13:59Z</time>
      </trkpt>
      <trkpt lat="40.6960420" lon="0.1396370">
        <ele>1074.7</ele>
        <time>2013-05-12T11:14:03Z</time>
      </trkpt>
      <trkpt lat="40.6960140" lon="0.1394620">
        <ele>1073.5</ele>
        <time>2013-05-12T11:14:09Z</time>
      </trkpt>
      <trkpt lat="40.6960080" lon="0.1394490">
        <ele>1073.3</ele>
        <time>2013-05-12T11:14:10Z</time>
      </trkpt>
      <trkpt lat="40.6959910" lon="0.1392390">
        <ele>1071.3</ele>
        <time>2013-05-12T11:14:17Z</time>
      </trkpt>
      <trkpt lat="40.6959800" lon="0.1391290">
        <ele>1070.5</ele>
        <time>2013-05-12T11:14:21Z</time>
      </trkpt>
      <trkpt lat="40.6959770" lon="0.1390930">
        <ele>1070.3</ele>
        <time>2013-05-12T11:14:22Z</time>
      </trkpt>
      <trkpt lat="40.6959600" lon="0.1389160">
        <ele>1068.8</ele>
        <time>2013-05-12T11:14:27Z</time>
      </trkpt>
      <trkpt lat="40.6959410" lon="0.1387730">
        <ele>1065.7</ele>
        <time>2013-05-12T11:14:32Z</time>
      </trkpt>
      <trkpt lat="40.6959270" lon="0.1386150">
        <ele>1063.2</ele>
        <time>2013-05-12T11:14:37Z</time>
      </trkpt>
      <trkpt lat="40.6958760" lon="0.1383670">
        <ele>1059.5</ele>
        <time>2013-05-12T11:14:42Z</time>
      </trkpt>
      <trkpt lat="40.6958000" lon="0.1381160">
        <ele>1056.5</ele>
        <time>2013-05-12T11:14:47Z</time>
      </trkpt>
      <trkpt lat="40.6957070" lon="0.1379780">
        <ele>1053.6</ele>
        <time>2013-05-12T11:14:52Z</time>
      </trkpt>
      <trkpt lat="40.6956940" lon="0.1379470">
        <ele>1053.1</ele>
        <time>2013-05-12T11:14:53Z</time>
      </trkpt>
      <trkpt lat="40.6956620" lon="0.1379240">
        <ele>1051.2</ele>
        <time>2013-05-12T11:14:58Z</time>
      </trkpt>
      <trkpt lat="40.6956700" lon="0.1379780">
        <ele>1050.6</ele>
        <time>2013-05-12T11:15:01Z</time>
      </trkpt>
      <trkpt lat="40.6956530" lon="0.1380220">
        <ele>1049.4</ele>
        <time>2013-05-12T11:15:05Z</time>
      </trkpt>
      <trkpt lat="40.6955740" lon="0.1379770">
        <ele>1047.7</ele>
        <time>2013-05-12T11:15:10Z</time>
      </trkpt>
      <trkpt lat="40.6954820" lon="0.1379000">
        <ele>1045.6</ele>
        <time>2013-05-12T11:15:14Z</time>
      </trkpt>
      <trkpt lat="40.6954070" lon="0.1378640">
        <ele>1042.8</ele>
        <time>2013-05-12T11:15:18Z</time>
      </trkpt>
      <trkpt lat="40.6953880" lon="0.1378490">
        <ele>1042.2</ele>
        <time>2013-05-12T11:15:19Z</time>
      </trkpt>
      <trkpt lat="40.6952490" lon="0.1377370">
        <ele>1038.5</ele>
        <time>2013-05-12T11:15:24Z</time>
      </trkpt>
      <trkpt lat="40.6950760" lon="0.1375840">
        <ele>1032.3</ele>
        <time>2013-05-12T11:15:30Z</time>
      </trkpt>
      <trkpt lat="40.6949530" lon="0.1375210">
        <ele>1028.0</ele>
        <time>2013-05-12T11:15:34Z</time>
      </trkpt>
      <trkpt lat="40.6948220" lon="0.1374690">
        <ele>1023.3</ele>
        <time>2013-05-12T11:15:38Z</time>
      </trkpt>
      <trkpt lat="40.6947200" lon="0.1372230">
        <ele>1019.6</ele>
        <time>2013-05-12T11:15:43Z</time>
      </trkpt>
      <trkpt lat="40.6947020" lon="0.1371750">
        <ele>1019.2</ele>
        <time>2013-05-12T11:15:44Z</time>
      </trkpt>
      <trkpt lat="40.6945860" lon="0.1368710">
        <ele>1014.4</ele>
        <time>2013-05-12T11:15:51Z</time>
      </trkpt>
      <trkpt lat="40.6945660" lon="0.1368360">
        <ele>1013.8</ele>
        <time>2013-05-12T11:15:52Z</time>
      </trkpt>
      <trkpt lat="40.6945270" lon="0.1367090">
        <ele>1012.2</ele>
        <time>2013-05-12T11:15:55Z</time>
      </trkpt>
      <trkpt lat="40.6944510" lon="0.1364930">
        <ele>1008.7</ele>
        <time>2013-05-12T11:16:00Z</time>
      </trkpt>
      <trkpt lat="40.6944400" lon="0.1363850">
        <ele>1007.0</ele>
        <time>2013-05-12T11:16:03Z</time>
      </trkpt>
      <trkpt lat="40.6944620" lon="0.1362270">
        <ele>1007.6</ele>
        <time>2013-05-12T11:16:08Z</time>
      </trkpt>
      <trkpt lat="40.6944650" lon="0.1361330">
        <ele>1007.6</ele>
        <time>2013-05-12T11:16:10Z</time>
      </trkpt>
      <trkpt lat="40.6944060" lon="0.1360080">
        <ele>1005.5</ele>
        <time>2013-05-12T11:16:15Z</time>
      </trkpt>
      <trkpt lat="40.6943850" lon="0.1359940">
        <ele>1004.7</ele>
        <time>2013-05-12T11:16:17Z</time>
      </trkpt>
      <trkpt lat="40.6943600" lon="0.1358370">
        <ele>1004.7</ele>
        <time>2013-05-12T11:16:23Z</time>
      </trkpt>
      <trkpt lat="40.6943760" lon="0.1356620">
        <ele>1004.3</ele>
        <time>2013-05-12T11:16:27Z</time>
      </trkpt>
      <trkpt lat="40.6944140" lon="0.1354310">
        <ele>1003.8</ele>
        <time>2013-05-12T11:16:31Z</time>
      </trkpt>
      <trkpt lat="40.6943550" lon="0.1351940">
        <ele>1003.0</ele>
        <time>2013-05-12T11:16:35Z</time>
      </trkpt>
      <trkpt lat="40.6942540" lon="0.1349880">
        <ele>1002.7</ele>
        <time>2013-05-12T11:16:40Z</time>
      </trkpt>
      <trkpt lat="40.6942210" lon="0.1348250">
        <ele>1002.9</ele>
        <time>2013-05-12T11:16:44Z</time>
      </trkpt>
      <trkpt lat="40.6941880" lon="0.1346660">
        <ele>1002.8</ele>
        <time>2013-05-12T11:16:48Z</time>
      </trkpt>
      <trkpt lat="40.6941870" lon="0.1346190">
        <ele>1002.5</ele>
        <time>2013-05-12T11:16:49Z</time>
      </trkpt>
      <trkpt lat="40.6941430" lon="0.1342530">
        <ele>1001.3</ele>
        <time>2013-05-12T11:16:55Z</time>
      </trkpt>
      <trkpt lat="40.6940710" lon="0.1340130">
        <ele>1000.5</ele>
        <time>2013-05-12T11:16:59Z</time>
      </trkpt>
      <trkpt lat="40.6940110" lon="0.1335890">
        <ele>999.1</ele>
        <time>2013-05-12T11:17:05Z</time>
      </trkpt>
      <trkpt lat="40.6939820" lon="0.1333020">
        <ele>998.2</ele>
        <time>2013-05-12T11:17:09Z</time>
      </trkpt>
      <trkpt lat="40.6939520" lon="0.1330790">
        <ele>997.5</ele>
        <time>2013-05-12T11:17:12Z</time>
      </trkpt>
      <trkpt lat="40.6938560" lon="0.1326680">
        <ele>996.4</ele>
        <time>2013-05-12T11:17:18Z</time>
      </trkpt>
      <trkpt lat="40.6938450" lon="0.1323310">
        <ele>995.0</ele>
        <time>2013-05-12T11:17:23Z</time>
      </trkpt>
      <trkpt lat="40.6938500" lon="0.1322570">
        <ele>994.7</ele>
        <time>2013-05-12T11:17:24Z</time>
      </trkpt>
      <trkpt lat="40.6939520" lon="0.1317250">
        <ele>993.2</ele>
        <time>2013-05-12T11:17:31Z</time>
      </trkpt>
      <trkpt lat="40.6939740" lon="0.1316060">
        <ele>992.2</ele>
        <time>2013-05-12T11:17:34Z</time>
      </trkpt>
      <trkpt lat="40.6940630" lon="0.1314920">
        <ele>991.2</ele>
        <time>2013-05-12T11:17:38Z</time>
      </trkpt>
      <trkpt lat="40.6940940" lon="0.1314570">
        <ele>990.9</ele>
        <time>2013-05-12T11:17:39Z</time>
      </trkpt>
      <trkpt lat="40.6940540" lon="0.1313250">
        <ele>989.9</ele>
        <time>2013-05-12T11:17:43Z</time>
      </trkpt>
      <trkpt lat="40.6937910" lon="0.1312940">
        <ele>990.0</ele>
        <time>2013-05-12T11:17:49Z</time>
      </trkpt>
      <trkpt lat="40.6936760" lon="0.1312820">
        <ele>990.0</ele>
        <time>2013-05-12T11:17:52Z</time>
      </trkpt>
      <trkpt lat="40.6933420" lon="0.1312810">
        <ele>990.6</ele>
        <time>2013-05-12T11:18:00Z</time>
      </trkpt>
      <trkpt lat="40.6932560" lon="0.1312880">
        <ele>990.7</ele>
        <time>2013-05-12T11:18:02Z</time>
      </trkpt>
      <trkpt lat="40.6931260" lon="0.1313230">
        <ele>990.7</ele>
        <time>2013-05-12T11:18:05Z</time>
      </trkpt>
      <trkpt lat="40.6927720" lon="0.1315350">
        <ele>990.4</ele>
        <time>2013-05-12T11:18:13Z</time>
      </trkpt>
      <trkpt lat="40.6926920" lon="0.1315930">
        <ele>990.1</ele>
        <time>2013-05-12T11:18:15Z</time>
      </trkpt>
      <trkpt lat="40.6925140" lon="0.1316100">
        <ele>988.9</ele>
        <time>2013-05-12T11:18:19Z</time>
      </trkpt>
      <trkpt lat="40.6923720" lon="0.1315530">
        <ele>989.3</ele>
        <time>2013-05-12T11:18:23Z</time>
      </trkpt>
      <trkpt lat="40.6922130" lon="0.1315530">
        <ele>990.1</ele>
        <time>2013-05-12T11:18:27Z</time>
      </trkpt>
      <trkpt lat="40.6918790" lon="0.1314990">
        <ele>990.4</ele>
        <time>2013-05-12T11:18:35Z</time>
      </trkpt>
      <trkpt lat="40.6917120" lon="0.1314860">
        <ele>990.2</ele>
        <time>2013-05-12T11:18:39Z</time>
      </trkpt>
      <trkpt lat="40.6916330" lon="0.1314720">
        <ele>990.4</ele>
        <time>2013-05-12T11:18:41Z</time>
      </trkpt>
      <trkpt lat="40.6912840" lon="0.1313060">
        <ele>990.5</ele>
        <time>2013-05-12T11:18:49Z</time>
      </trkpt>
      <trkpt lat="40.6911480" lon="0.1312340">
        <ele>990.4</ele>
        <time>2013-05-12T11:18:52Z</time>
      </trkpt>
      <trkpt lat="40.6909450" lon="0.1310680">
        <ele>990.8</ele>
        <time>2013-05-12T11:18:57Z</time>
      </trkpt>
      <trkpt lat="40.6907980" lon="0.1309390">
        <ele>990.7</ele>
        <time>2013-05-12T11:19:01Z</time>
      </trkpt>
      <trkpt lat="40.6907330" lon="0.1308660">
        <ele>990.6</ele>
        <time>2013-05-12T11:19:03Z</time>
      </trkpt>
      <trkpt lat="40.6905830" lon="0.1307380">
        <ele>990.8</ele>
        <time>2013-05-12T11:19:07Z</time>
      </trkpt>
      <trkpt lat="40.6904770" lon="0.1306230">
        <ele>991.1</ele>
        <time>2013-05-12T11:19:10Z</time>
      </trkpt>
      <trkpt lat="40.6902350" lon="0.1303060">
        <ele>991.5</ele>
        <time>2013-05-12T11:19:17Z</time>
      </trkpt>
      <trkpt lat="40.6899360" lon="0.1300040">
        <ele>992.9</ele>
        <time>2013-05-12T11:19:25Z</time>
      </trkpt>
      <trkpt lat="40.6897250" lon="0.1297460">
        <ele>993.1</ele>
        <time>2013-05-12T11:19:31Z</time>
      </trkpt>
      <trkpt lat="40.6896230" lon="0.1295820">
        <ele>993.1</ele>
        <time>2013-05-12T11:19:36Z</time>
      </trkpt>
      <trkpt lat="40.6895300" lon="0.1294510">
        <ele>993.8</ele>
        <time>2013-05-12T11:19:41Z</time>
      </trkpt>
      <trkpt lat="40.6893420" lon="0.1292790">
        <ele>994.7</ele>
        <time>2013-05-12T11:19:48Z</time>
      </trkpt>
      <trkpt lat="40.6891950" lon="0.1292260">
        <ele>995.1</ele>
        <time>2013-05-12T11:19:52Z</time>
      </trkpt>
      <trkpt lat="40.6890050" lon="0.1292760">
        <ele>995.1</ele>
        <time>2013-05-12T11:19:57Z</time>
      </trkpt>
      <trkpt lat="40.6889200" lon="0.1292520">
        <ele>995.3</ele>
        <time>2013-05-12T11:20:00Z</time>
      </trkpt>
      <trkpt lat="40.6886060" lon="0.1291170">
        <ele>996.8</ele>
        <time>2013-05-12T11:20:08Z</time>
      </trkpt>
      <trkpt lat="40.6884790" lon="0.1290180">
        <ele>997.8</ele>
        <time>2013-05-12T11:20:12Z</time>
      </trkpt>
      <trkpt lat="40.6882960" lon="0.1288630">
        <ele>998.8</ele>
        <time>2013-05-12T11:20:18Z</time>
      </trkpt>
      <trkpt lat="40.6879600" lon="0.1286650">
        <ele>999.6</ele>
        <time>2013-05-12T11:20:27Z</time>
      </trkpt>
      <trkpt lat="40.6876610" lon="0.1285050">
        <ele>1000.9</ele>
        <time>2013-05-12T11:20:35Z</time>
      </trkpt>
      <trkpt lat="40.6873370" lon="0.1282820">
        <ele>1001.3</ele>
        <time>2013-05-12T11:20:44Z</time>
      </trkpt>
      <trkpt lat="40.6871170" lon="0.1281250">
        <ele>1001.9</ele>
        <time>2013-05-12T11:20:50Z</time>
      </trkpt>
      <trkpt lat="40.6869380" lon="0.1281320">
        <ele>1002.0</ele>
        <time>2013-05-12T11:20:54Z</time>
      </trkpt>
      <trkpt lat="40.6868470" lon="0.1281270">
        <ele>1001.8</ele>
        <time>2013-05-12T11:20:56Z</time>
      </trkpt>
      <trkpt lat="40.6866520" lon="0.1280240">
        <ele>1002.7</ele>
        <time>2013-05-12T11:21:02Z</time>
      </trkpt>
      <trkpt lat="40.6864510" lon="0.1278520">
        <ele>1004.9</ele>
        <time>2013-05-12T11:21:09Z</time>
      </trkpt>
      <trkpt lat="40.6862430" lon="0.1276960">
        <ele>1006.0</ele>
        <time>2013-05-12T11:21:16Z</time>
      </trkpt>
      <trkpt lat="40.6860100" lon="0.1275170">
        <ele>1007.2</ele>
        <time>2013-05-12T11:21:24Z</time>
      </trkpt>
      <trkpt lat="40.6858150" lon="0.1273590">
        <ele>1008.3</ele>
        <time>2013-05-12T11:21:31Z</time>
      </trkpt>
      <trkpt lat="40.6856330" lon="0.1272160">
        <ele>1010.0</ele>
        <time>2013-05-12T11:21:38Z</time>
      </trkpt>
      <trkpt lat="40.6855410" lon="0.1270460">
        <ele>1012.0</ele>
        <time>2013-05-12T11:21:43Z</time>
      </trkpt>
      <trkpt lat="40.6854950" lon="0.1269890">
        <ele>1012.8</ele>
        <time>2013-05-12T11:21:45Z</time>
      </trkpt>
      <trkpt lat="40.6853710" lon="0.1267930">
        <ele>1014.1</ele>
        <time>2013-05-12T11:21:51Z</time>
      </trkpt>
      <trkpt lat="40.6852590" lon="0.1265220">
        <ele>1014.5</ele>
        <time>2013-05-12T11:21:57Z</time>
      </trkpt>
      <trkpt lat="40.6850990" lon="0.1262050">
        <ele>1015.0</ele>
        <time>2013-05-12T11:22:04Z</time>
      </trkpt>
      <trkpt lat="40.6849120" lon="0.1258490">
        <ele>1016.4</ele>
        <time>2013-05-12T11:22:12Z</time>
      </trkpt>
      <trkpt lat="40.6846700" lon="0.1254650">
        <ele>1016.5</ele>
        <time>2013-05-12T11:22:20Z</time>
      </trkpt>
      <trkpt lat="40.6844820" lon="0.1252440">
        <ele>1016.4</ele>
        <time>2013-05-12T11:22:25Z</time>
      </trkpt>
      <trkpt lat="40.6844340" lon="0.1251990">
        <ele>1016.1</ele>
        <time>2013-05-12T11:22:26Z</time>
      </trkpt>
      <trkpt lat="40.6842670" lon="0.1249860">
        <ele>1015.0</ele>
        <time>2013-05-12T11:22:30Z</time>
      </trkpt>
      <trkpt lat="40.6842000" lon="0.1248780">
        <ele>1014.9</ele>
        <time>2013-05-12T11:22:32Z</time>
      </trkpt>
      <trkpt lat="40.6840590" lon="0.1246090">
        <ele>1016.0</ele>
        <time>2013-05-12T11:22:37Z</time>
      </trkpt>
      <trkpt lat="40.6838950" lon="0.1244390">
        <ele>1016.0</ele>
        <time>2013-05-12T11:22:41Z</time>
      </trkpt>
      <trkpt lat="40.6837740" lon="0.1243730">
        <ele>1015.5</ele>
        <time>2013-05-12T11:22:46Z</time>
      </trkpt>
      <trkpt lat="40.6836680" lon="0.1243230">
        <ele>1014.5</ele>
        <time>2013-05-12T11:22:51Z</time>
      </trkpt>
      <trkpt lat="40.6835120" lon="0.1243520">
        <ele>1015.5</ele>
        <time>2013-05-12T11:22:56Z</time>
      </trkpt>
      <trkpt lat="40.6833650" lon="0.1243910">
        <ele>1016.7</ele>
        <time>2013-05-12T11:22:59Z</time>
      </trkpt>
      <trkpt lat="40.6831960" lon="0.1244110">
        <ele>1018.7</ele>
        <time>2013-05-12T11:23:03Z</time>
      </trkpt>
      <trkpt lat="40.6831040" lon="0.1244240">
        <ele>1019.6</ele>
        <time>2013-05-12T11:23:06Z</time>
      </trkpt>
      <trkpt lat="40.6829780" lon="0.1244370">
        <ele>1020.4</ele>
        <time>2013-05-12T11:23:10Z</time>
      </trkpt>
      <trkpt lat="40.6828300" lon="0.1244080">
        <ele>1022.7</ele>
        <time>2013-05-12T11:23:16Z</time>
      </trkpt>
      <trkpt lat="40.6827410" lon="0.1243980">
        <ele>1024.4</ele>
        <time>2013-05-12T11:23:20Z</time>
      </trkpt>
      <trkpt lat="40.6826220" lon="0.1244150">
        <ele>1026.1</ele>
        <time>2013-05-12T11:23:25Z</time>
      </trkpt>
      <trkpt lat="40.6824440" lon="0.1244990">
        <ele>1026.3</ele>
        <time>2013-05-12T11:23:31Z</time>
      </trkpt>
      <trkpt lat="40.6822110" lon="0.1246410">
        <ele>1027.8</ele>
        <time>2013-05-12T11:23:39Z</time>
      </trkpt>
      <trkpt lat="40.6819540" lon="0.1246490">
        <ele>1028.1</ele>
        <time>2013-05-12T11:23:46Z</time>
      </trkpt>
      <trkpt lat="40.6816930" lon="0.1246350">
        <ele>1028.3</ele>
        <time>2013-05-12T11:23:53Z</time>
      </trkpt>
      <trkpt lat="40.6815360" lon="0.1246670">
        <ele>1028.3</ele>
        <time>2013-05-12T11:23:57Z</time>
      </trkpt>
      <trkpt lat="40.6813640" lon="0.1246060">
        <ele>1027.8</ele>
        <time>2013-05-12T11:24:01Z</time>
      </trkpt>
      <trkpt lat="40.6813250" lon="0.1245580">
        <ele>1027.6</ele>
        <time>2013-05-12T11:24:02Z</time>
      </trkpt>
      <trkpt lat="40.6812020" lon="0.1243870">
        <ele>1026.2</ele>
        <time>2013-05-12T11:24:05Z</time>
      </trkpt>
      <trkpt lat="40.6810710" lon="0.1242590">
        <ele>1025.8</ele>
        <time>2013-05-12T11:24:08Z</time>
      </trkpt>
      <trkpt lat="40.6808940" lon="0.1241420">
        <ele>1027.3</ele>
        <time>2013-05-12T11:24:13Z</time>
      </trkpt>
      <trkpt lat="40.6807490" lon="0.1240560">
        <ele>1029.4</ele>
        <time>2013-05-12T11:24:18Z</time>
      </trkpt>
      <trkpt lat="40.6806640" lon="0.1239890">
        <ele>1031.6</ele>
        <time>2013-05-12T11:24:22Z</time>
      </trkpt>
      <trkpt lat="40.6806440" lon="0.1239700">
        <ele>1031.8</ele>
        <time>2013-05-12T11:24:23Z</time>
      </trkpt>
      <trkpt lat="40.6805100" lon="0.1238800">
        <ele>1033.0</ele>
        <time>2013-05-12T11:24:29Z</time>
      </trkpt>
      <trkpt lat="40.6803770" lon="0.1238680">
        <ele>1032.7</ele>
        <time>2013-05-12T11:24:33Z</time>
      </trkpt>
      <trkpt lat="40.6802520" lon="0.1239640">
        <ele>1032.9</ele>
        <time>2013-05-12T11:24:37Z</time>
      </trkpt>
      <trkpt lat="40.6800970" lon="0.1241030">
        <ele>1033.7</ele>
        <time>2013-05-12T11:24:43Z</time>
      </trkpt>
      <trkpt lat="40.6799480" lon="0.1241210">
        <ele>1035.0</ele>
        <time>2013-05-12T11:24:49Z</time>
      </trkpt>
      <trkpt lat="40.6797840" lon="0.1241170">
        <ele>1036.1</ele>
        <time>2013-05-12T11:24:55Z</time>
      </trkpt>
      <trkpt lat="40.6796140" lon="0.1241000">
        <ele>1037.7</ele>
        <time>2013-05-12T11:25:01Z</time>
      </trkpt>
      <trkpt lat="40.6794490" lon="0.1240320">
        <ele>1039.4</ele>
        <time>2013-05-12T11:25:07Z</time>
      </trkpt>
      <trkpt lat="40.6793140" lon="0.1238330">
        <ele>1040.9</ele>
        <time>2013-05-12T11:25:14Z</time>
      </trkpt>
      <trkpt lat="40.6792060" lon="0.1236850">
        <ele>1042.1</ele>
        <time>2013-05-12T11:25:19Z</time>
      </trkpt>
      <trkpt lat="40.6789900" lon="0.1234110">
        <ele>1043.4</ele>
        <time>2013-05-12T11:25:28Z</time>
      </trkpt>
      <trkpt lat="40.6788440" lon="0.1233040">
        <ele>1045.0</ele>
        <time>2013-05-12T11:25:34Z</time>
      </trkpt>
      <trkpt lat="40.6786280" lon="0.1232200">
        <ele>1047.2</ele>
        <time>2013-05-12T11:25:42Z</time>
      </trkpt>
      <trkpt lat="40.6785060" lon="0.1231440">
        <ele>1049.5</ele>
        <time>2013-05-12T11:25:48Z</time>
      </trkpt>
      <trkpt lat="40.6783900" lon="0.1230690">
        <ele>1051.6</ele>
        <time>2013-05-12T11:25:54Z</time>
      </trkpt>
      <trkpt lat="40.6782570" lon="0.1229570">
        <ele>1053.4</ele>
        <time>2013-05-12T11:26:01Z</time>
      </trkpt>
      <trkpt lat="40.6780930" lon="0.1227540">
        <ele>1054.8</ele>
        <time>2013-05-12T11:26:10Z</time>
      </trkpt>
      <trkpt lat="40.6779670" lon="0.1226050">
        <ele>1056.1</ele>
        <time>2013-05-12T11:26:17Z</time>
      </trkpt>
      <trkpt lat="40.6778430" lon="0.1225030">
        <ele>1057.5</ele>
        <time>2013-05-12T11:26:23Z</time>
      </trkpt>
      <trkpt lat="40.6777200" lon="0.1223620">
        <ele>1058.9</ele>
        <time>2013-05-12T11:26:29Z</time>
      </trkpt>
      <trkpt lat="40.6775600" lon="0.1221770">
        <ele>1060.7</ele>
        <time>2013-05-12T11:26:38Z</time>
      </trkpt>
      <trkpt lat="40.6774310" lon="0.1220280">
        <ele>1062.6</ele>
        <time>2013-05-12T11:26:45Z</time>
      </trkpt>
      <trkpt lat="40.6772960" lon="0.1218250">
        <ele>1064.1</ele>
        <time>2013-05-12T11:26:53Z</time>
      </trkpt>
      <trkpt lat="40.6771590" lon="0.1216260">
        <ele>1065.2</ele>
        <time>2013-05-12T11:27:01Z</time>
      </trkpt>
      <trkpt lat="40.6770510" lon="0.1214890">
        <ele>1066.8</ele>
        <time>2013-05-12T11:27:07Z</time>
      </trkpt>
      <trkpt lat="40.6769220" lon="0.1212660">
        <ele>1068.2</ele>
        <time>2013-05-12T11:27:15Z</time>
      </trkpt>
      <trkpt lat="40.6768490" lon="0.1210610">
        <ele>1067.9</ele>
        <time>2013-05-12T11:27:20Z</time>
      </trkpt>
      <trkpt lat="40.6767650" lon="0.1208790">
        <ele>1067.1</ele>
        <time>2013-05-12T11:27:24Z</time>
      </trkpt>
      <trkpt lat="40.6767850" lon="0.1207580">
        <ele>1066.0</ele>
        <time>2013-05-12T11:27:28Z</time>
      </trkpt>
      <trkpt lat="40.6768050" lon="0.1207410">
        <ele>1066.0</ele>
        <time>2013-05-12T11:27:29Z</time>
      </trkpt>
      <trkpt lat="40.6770440" lon="0.1205290">
        <ele>1068.3</ele>
        <time>2013-05-12T11:27:39Z</time>
      </trkpt>
      <trkpt lat="40.6771450" lon="0.1204580">
        <ele>1069.4</ele>
        <time>2013-05-12T11:27:44Z</time>
      </trkpt>
      <trkpt lat="40.6771550" lon="0.1204510">
        <ele>1069.4</ele>
        <time>2013-05-12T11:27:45Z</time>
      </trkpt>
      <trkpt lat="40.6771410" lon="0.1204320">
        <ele>1069.7</ele>
        <time>2013-05-12T11:27:50Z</time>
      </trkpt>
      <trkpt lat="40.6770480" lon="0.1205260">
        <ele>1068.8</ele>
        <time>2013-05-12T11:27:57Z</time>
      </trkpt>
      <trkpt lat="40.6770960" lon="0.1205630">
        <ele>1067.5</ele>
        <time>2013-05-12T11:28:02Z</time>
      </trkpt>
      <trkpt lat="40.6771850" lon="0.1205590">
        <ele>1066.5</ele>
        <time>2013-05-12T11:28:06Z</time>
      </trkpt>
      <trkpt lat="40.6772520" lon="0.1205760">
        <ele>1066.2</ele>
        <time>2013-05-12T11:28:08Z</time>
      </trkpt>
      <trkpt lat="40.6773630" lon="0.1206290">
        <ele>1065.5</ele>
        <time>2013-05-12T11:28:11Z</time>
      </trkpt>
      <trkpt lat="40.6774940" lon="0.1207120">
        <ele>1064.6</ele>
        <time>2013-05-12T11:28:16Z</time>
      </trkpt>
      <trkpt lat="40.6775850" lon="0.1207450">
        <ele>1063.9</ele>
        <time>2013-05-12T11:28:20Z</time>
      </trkpt>
      <trkpt lat="40.6778150" lon="0.1207610">
        <ele>1062.8</ele>
        <time>2013-05-12T11:28:25Z</time>
      </trkpt>
      <trkpt lat="40.6780910" lon="0.1208440">
        <ele>1060.3</ele>
        <time>2013-05-12T11:28:30Z</time>
      </trkpt>
      <trkpt lat="40.6781560" lon="0.1208640">
        <ele>1060.0</ele>
        <time>2013-05-12T11:28:31Z</time>
      </trkpt>
      <trkpt lat="40.6783760" lon="0.1208910">
        <ele>1058.6</ele>
        <time>2013-05-12T11:28:34Z</time>
      </trkpt>
      <trkpt lat="40.6787980" lon="0.1208700">
        <ele>1054.8</ele>
        <time>2013-05-12T11:28:40Z</time>
      </trkpt>
      <trkpt lat="40.6789990" lon="0.1208690">
        <ele>1051.9</ele>
        <time>2013-05-12T11:28:44Z</time>
      </trkpt>
      <trkpt lat="40.6790520" lon="0.1208520">
        <ele>1051.3</ele>
        <time>2013-05-12T11:28:46Z</time>
      </trkpt>
      <trkpt lat="40.6790840" lon="0.1208300">
        <ele>1051.2</ele>
        <time>2013-05-12T11:28:48Z</time>
      </trkpt>
      <trkpt lat="40.6791150" lon="0.1207560">
        <ele>1050.9</ele>
        <time>2013-05-12T11:28:52Z</time>
      </trkpt>
      <trkpt lat="40.6791710" lon="0.1206180">
        <ele>1051.6</ele>
        <time>2013-05-12T11:28:59Z</time>
      </trkpt>
      <trkpt lat="40.6792020" lon="0.1205100">
        <ele>1052.1</ele>
        <time>2013-05-12T11:29:04Z</time>
      </trkpt>
      <trkpt lat="40.6792360" lon="0.1204340">
        <ele>1053.4</ele>
        <time>2013-05-12T11:29:08Z</time>
      </trkpt>
      <trkpt lat="40.6792950" lon="0.1204400">
        <ele>1055.3</ele>
        <time>2013-05-12T11:29:12Z</time>
      </trkpt>
      <trkpt lat="40.6793550" lon="0.1204970">
        <ele>1057.1</ele>
        <time>2013-05-12T11:29:16Z</time>
      </trkpt>
      <trkpt lat="40.6793850" lon="0.1205230">
        <ele>1057.7</ele>
        <time>2013-05-12T11:29:18Z</time>
      </trkpt>
      <trkpt lat="40.6794190" lon="0.1205760">
        <ele>1058.8</ele>
        <time>2013-05-12T11:29:21Z</time>
      </trkpt>
      <trkpt lat="40.6794540" lon="0.1206310">
        <ele>1059.9</ele>
        <time>2013-05-12T11:29:24Z</time>
      </trkpt>
      <trkpt lat="40.6794800" lon="0.1207190">
        <ele>1061.6</ele>
        <time>2013-05-12T11:29:28Z</time>
      </trkpt>
      <trkpt lat="40.6795100" lon="0.1207780">
        <ele>1062.5</ele>
        <time>2013-05-12T11:29:33Z</time>
      </trkpt>
      <trkpt lat="40.6795210" lon="0.1207880">
        <ele>1062.5</ele>
        <time>2013-05-12T11:29:35Z</time>
      </trkpt>
      <trkpt lat="40.6795130" lon="0.1208300">
        <ele>1062.8</ele>
        <time>2013-05-12T11:29:41Z</time>
      </trkpt>
      <trkpt lat="40.6795270" lon="0.1207560">
        <ele>1062.6</ele>
        <time>2013-05-12T11:29:45Z</time>
      </trkpt>
      <trkpt lat="40.6795870" lon="0.1206330">
        <ele>1063.8</ele>
        <time>2013-05-12T11:29:50Z</time>
      </trkpt>
      <trkpt lat="40.6795910" lon="0.1205210">
        <ele>1065.8</ele>
        <time>2013-05-12T11:29:54Z</time>
      </trkpt>
      <trkpt lat="40.6795860" lon="0.1202780">
        <ele>1068.1</ele>
        <time>2013-05-12T11:30:03Z</time>
      </trkpt>
      <trkpt lat="40.6796000" lon="0.1201410">
        <ele>1069.7</ele>
        <time>2013-05-12T11:30:09Z</time>
      </trkpt>
      <trkpt lat="40.6796070" lon="0.1200420">
        <ele>1070.7</ele>
        <time>2013-05-12T11:30:14Z</time>
      </trkpt>
      <trkpt lat="40.6795930" lon="0.1198420">
        <ele>1071.1</ele>
        <time>2013-05-12T11:30:22Z</time>
      </trkpt>
      <trkpt lat="40.6795710" lon="0.1196360">
        <ele>1071.6</ele>
        <time>2013-05-12T11:30:28Z</time>
      </trkpt>
      <trkpt lat="40.6795690" lon="0.1193740">
        <ele>1072.8</ele>
        <time>2013-05-12T11:30:35Z</time>
      </trkpt>
      <trkpt lat="40.6795580" lon="0.1191400">
        <ele>1074.1</ele>
        <time>2013-05-12T11:30:42Z</time>
      </trkpt>
      <trkpt lat="40.6795370" lon="0.1189670">
        <ele>1073.9</ele>
        <time>2013-05-12T11:30:48Z</time>
      </trkpt>
      <trkpt lat="40.6795110" lon="0.1189060">
        <ele>1074.0</ele>
        <time>2013-05-12T11:30:50Z</time>
      </trkpt>
      <trkpt lat="40.6794530" lon="0.1187540">
        <ele>1074.1</ele>
        <time>2013-05-12T11:30:54Z</time>
      </trkpt>
      <trkpt lat="40.6794980" lon="0.1187070">
        <ele>1074.6</ele>
        <time>2013-05-12T11:30:58Z</time>
      </trkpt>
      <trkpt lat="40.6795170" lon="0.1187480">
        <ele>1075.2</ele>
        <time>2013-05-12T11:31:00Z</time>
      </trkpt>
      <trkpt lat="40.6796070" lon="0.1189450">
        <ele>1076.6</ele>
        <time>2013-05-12T11:31:07Z</time>
      </trkpt>
      <trkpt lat="40.6797080" lon="0.1191770">
        <ele>1078.8</ele>
        <time>2013-05-12T11:31:16Z</time>
      </trkpt>
      <trkpt lat="40.6797330" lon="0.1191910">
        <ele>1079.3</ele>
        <time>2013-05-12T11:31:19Z</time>
      </trkpt>
      <trkpt lat="40.6797510" lon="0.1191010">
        <ele>1079.9</ele>
        <time>2013-05-12T11:31:24Z</time>
      </trkpt>
      <trkpt lat="40.6797660" lon="0.1189640">
        <ele>1081.9</ele>
        <time>2013-05-12T11:31:30Z</time>
      </trkpt>
      <trkpt lat="40.6797670" lon="0.1188750">
        <ele>1083.3</ele>
        <time>2013-05-12T11:31:34Z</time>
      </trkpt>
      <trkpt lat="40.6797840" lon="0.1188090">
        <ele>1084.6</ele>
        <time>2013-05-12T11:31:37Z</time>
      </trkpt>
      <trkpt lat="40.6798230" lon="0.1188460">
        <ele>1086.6</ele>
        <time>2013-05-12T11:31:41Z</time>
      </trkpt>
      <trkpt lat="40.6798530" lon="0.1189150">
        <ele>1087.2</ele>
        <time>2013-05-12T11:31:45Z</time>
      </trkpt>
      <trkpt lat="40.6798560" lon="0.1189680">
        <ele>1087.3</ele>
        <time>2013-05-12T11:31:47Z</time>
      </trkpt>
      <trkpt lat="40.6799050" lon="0.1191360">
        <ele>1087.0</ele>
        <time>2013-05-12T11:31:53Z</time>
      </trkpt>
      <trkpt lat="40.6799610" lon="0.1192340">
        <ele>1088.5</ele>
        <time>2013-05-12T11:31:58Z</time>
      </trkpt>
      <trkpt lat="40.6800640" lon="0.1192320">
        <ele>1090.4</ele>
        <time>2013-05-12T11:32:04Z</time>
      </trkpt>
      <trkpt lat="40.6801600" lon="0.1191880">
        <ele>1092.5</ele>
        <time>2013-05-12T11:32:09Z</time>
      </trkpt>
      <trkpt lat="40.6801950" lon="0.1191360">
        <ele>1094.3</ele>
        <time>2013-05-12T11:32:15Z</time>
      </trkpt>
      <trkpt lat="40.6802000" lon="0.1189660">
        <ele>1095.7</ele>
        <time>2013-05-12T11:32:32Z</time>
      </trkpt>
      <trkpt lat="40.6801990" lon="0.1189150">
        <ele>1096.2</ele>
        <time>2013-05-12T11:32:34Z</time>
      </trkpt>
      <trkpt lat="40.6801480" lon="0.1187060">
        <ele>1097.2</ele>
        <time>2013-05-12T11:32:42Z</time>
      </trkpt>
      <trkpt lat="40.6800630" lon="0.1185190">
        <ele>1097.5</ele>
        <time>2013-05-12T11:32:49Z</time>
      </trkpt>
      <trkpt lat="40.6800580" lon="0.1184910">
        <ele>1097.7</ele>
        <time>2013-05-12T11:32:50Z</time>
      </trkpt>
      <trkpt lat="40.6801280" lon="0.1183790">
        <ele>1099.7</ele>
        <time>2013-05-12T11:32:55Z</time>
      </trkpt>
      <trkpt lat="40.6801750" lon="0.1182900">
        <ele>1100.4</ele>
        <time>2013-05-12T11:32:58Z</time>
      </trkpt>
      <trkpt lat="40.6802150" lon="0.1180670">
        <ele>1100.1</ele>
        <time>2013-05-12T11:33:05Z</time>
      </trkpt>
      <trkpt lat="40.6802240" lon="0.1179170">
        <ele>1101.1</ele>
        <time>2013-05-12T11:33:11Z</time>
      </trkpt>
      <trkpt lat="40.6802240" lon="0.1178670">
        <ele>1101.6</ele>
        <time>2013-05-12T11:33:13Z</time>
      </trkpt>
      <trkpt lat="40.6803270" lon="0.1176720">
        <ele>1102.2</ele>
        <time>2013-05-12T11:33:21Z</time>
      </trkpt>
      <trkpt lat="40.6803520" lon="0.1175940">
        <ele>1100.3</ele>
        <time>2013-05-12T11:33:27Z</time>
      </trkpt>
      <trkpt lat="40.6803550" lon="0.1175900">
        <ele>1099.7</ele>
        <time>2013-05-12T11:33:28Z</time>
      </trkpt>
      <trkpt lat="40.6804160" lon="0.1175780">
        <ele>1097.1</ele>
        <time>2013-05-12T11:33:35Z</time>
      </trkpt>
      <trkpt lat="40.6804430" lon="0.1175670">
        <ele>1094.4</ele>
        <time>2013-05-12T11:33:40Z</time>
      </trkpt>
      <trkpt lat="40.6804880" lon="0.1175710">
        <ele>1093.5</ele>
        <time>2013-05-12T11:33:52Z</time>
      </trkpt>
      <trkpt lat="40.6805270" lon="0.1175320">
        <ele>1093.1</ele>
        <time>2013-05-12T11:33:58Z</time>
      </trkpt>
      <trkpt lat="40.6805510" lon="0.1174870">
        <ele>1092.8</ele>
        <time>2013-05-12T11:34:03Z</time>
      </trkpt>
      <trkpt lat="40.6805520" lon="0.1173820">
        <ele>1091.8</ele>
        <time>2013-05-12T11:34:17Z</time>
      </trkpt>
      <trkpt lat="40.6805850" lon="0.1172760">
        <ele>1089.9</ele>
        <time>2013-05-12T11:34:22Z</time>
      </trkpt>
      <trkpt lat="40.6806250" lon="0.1171470">
        <ele>1089.1</ele>
        <time>2013-05-12T11:34:27Z</time>
      </trkpt>
      <trkpt lat="40.6806720" lon="0.1170430">
        <ele>1089.9</ele>
        <time>2013-05-12T11:34:32Z</time>
      </trkpt>
      <trkpt lat="40.6806990" lon="0.1170290">
        <ele>1089.7</ele>
        <time>2013-05-12T11:34:35Z</time>
      </trkpt>
      <trkpt lat="40.6807040" lon="0.1169150">
        <ele>1089.7</ele>
        <time>2013-05-12T11:34:41Z</time>
      </trkpt>
      <trkpt lat="40.6807090" lon="0.1169110">
        <ele>1089.7</ele>
        <time>2013-05-12T11:34:42Z</time>
      </trkpt>
      <trkpt lat="40.6807510" lon="0.1167840">
        <ele>1089.9</ele>
        <time>2013-05-12T11:34:52Z</time>
      </trkpt>
      <trkpt lat="40.6807410" lon="0.1165990">
        <ele>1089.4</ele>
        <time>2013-05-12T11:34:58Z</time>
      </trkpt>
      <trkpt lat="40.6807420" lon="0.1163750">
        <ele>1086.9</ele>
        <time>2013-05-12T11:35:04Z</time>
      </trkpt>
      <trkpt lat="40.6807150" lon="0.1162560">
        <ele>1085.6</ele>
        <time>2013-05-12T11:35:09Z</time>
      </trkpt>
      <trkpt lat="40.6806760" lon="0.1161630">
        <ele>1084.9</ele>
        <time>2013-05-12T11:35:13Z</time>
      </trkpt>
      <trkpt lat="40.6806640" lon="0.1161400">
        <ele>1084.9</ele>
        <time>2013-05-12T11:35:14Z</time>
      </trkpt>
      <trkpt lat="40.6806170" lon="0.1159830">
        <ele>1083.9</ele>
        <time>2013-05-12T11:35:20Z</time>
      </trkpt>
      <trkpt lat="40.6806020" lon="0.1159560">
        <ele>1083.6</ele>
        <time>2013-05-12T11:35:21Z</time>
      </trkpt>
      <trkpt lat="40.6805880" lon="0.1159230">
        <ele>1083.3</ele>
        <time>2013-05-12T11:35:24Z</time>
      </trkpt>
      <trkpt lat="40.6805650" lon="0.1158670">
        <ele>1084.3</ele>
        <time>2013-05-12T11:35:39Z</time>
      </trkpt>
      <trkpt lat="40.6805640" lon="0.1158650">
        <ele>1084.2</ele>
        <time>2013-05-12T11:35:40Z</time>
      </trkpt>
      <trkpt lat="40.6805500" lon="0.1158240">
        <ele>1084.1</ele>
        <time>2013-05-12T11:35:55Z</time>
      </trkpt>
      <trkpt lat="40.6805350" lon="0.1157890">
        <ele>1084.0</ele>
        <time>2013-05-12T11:35:59Z</time>
      </trkpt>
      <trkpt lat="40.6805240" lon="0.1157050">
        <ele>1082.7</ele>
        <time>2013-05-12T11:36:05Z</time>
      </trkpt>
      <trkpt lat="40.6805100" lon="0.1156430">
        <ele>1082.5</ele>
        <time>2013-05-12T11:36:10Z</time>
      </trkpt>
      <trkpt lat="40.6805070" lon="0.1156400">
        <ele>1082.4</ele>
        <time>2013-05-12T11:36:11Z</time>
      </trkpt>
      <trkpt lat="40.6804910" lon="0.1154900">
        <ele>1081.7</ele>
        <time>2013-05-12T11:36:18Z</time>
      </trkpt>
      <trkpt lat="40.6804750" lon="0.1154030">
        <ele>1080.7</ele>
        <time>2013-05-12T11:36:21Z</time>
      </trkpt>
      <trkpt lat="40.6803960" lon="0.1152140">
        <ele>1079.5</ele>
        <time>2013-05-12T11:36:27Z</time>
      </trkpt>
      <trkpt lat="40.6803390" lon="0.1150220">
        <ele>1078.9</ele>
        <time>2013-05-12T11:36:32Z</time>
      </trkpt>
      <trkpt lat="40.6802770" lon="0.1147790">
        <ele>1078.7</ele>
        <time>2013-05-12T11:36:38Z</time>
      </trkpt>
      <trkpt lat="40.6802230" lon="0.1145550">
        <ele>1078.7</ele>
        <time>2013-05-12T11:36:45Z</time>
      </trkpt>
      <trkpt lat="40.6801930" lon="0.1143790">
        <ele>1078.9</ele>
        <time>2013-05-12T11:36:50Z</time>
      </trkpt>
      <trkpt lat="40.6801590" lon="0.1142020">
        <ele>1078.6</ele>
        <time>2013-05-12T11:36:55Z</time>
      </trkpt>
      <trkpt lat="40.6801710" lon="0.1140510">
        <ele>1078.0</ele>
        <time>2013-05-12T11:36:59Z</time>
      </trkpt>
      <trkpt lat="40.6801550" lon="0.1138850">
        <ele>1077.1</ele>
        <time>2013-05-12T11:37:04Z</time>
      </trkpt>
      <trkpt lat="40.6801670" lon="0.1138130">
        <ele>1075.8</ele>
        <time>2013-05-12T11:37:07Z</time>
      </trkpt>
      <trkpt lat="40.6801680" lon="0.1137510">
        <ele>1074.9</ele>
        <time>2013-05-12T11:37:09Z</time>
      </trkpt>
      <trkpt lat="40.6801360" lon="0.1135900">
        <ele>1074.0</ele>
        <time>2013-05-12T11:37:14Z</time>
      </trkpt>
      <trkpt lat="40.6801320" lon="0.1134060">
        <ele>1074.2</ele>
        <time>2013-05-12T11:37:19Z</time>
      </trkpt>
      <trkpt lat="40.6801370" lon="0.1132000">
        <ele>1074.1</ele>
        <time>2013-05-12T11:37:24Z</time>
      </trkpt>
      <trkpt lat="40.6801370" lon="0.1129960">
        <ele>1073.3</ele>
        <time>2013-05-12T11:37:29Z</time>
      </trkpt>
      <trkpt lat="40.6801040" lon="0.1127650">
        <ele>1072.0</ele>
        <time>2013-05-12T11:37:35Z</time>
      </trkpt>
      <trkpt lat="40.6801000" lon="0.1127160">
        <ele>1071.5</ele>
        <time>2013-05-12T11:37:39Z</time>
      </trkpt>
      <trkpt lat="40.6800830" lon="0.1126160">
        <ele>1071.2</ele>
        <time>2013-05-12T11:37:44Z</time>
      </trkpt>
      <trkpt lat="40.6800590" lon="0.1124940">
        <ele>1070.0</ele>
        <time>2013-05-12T11:37:49Z</time>
      </trkpt>
      <trkpt lat="40.6800350" lon="0.1124330">
        <ele>1069.2</ele>
        <time>2013-05-12T11:37:51Z</time>
      </trkpt>
      <trkpt lat="40.6800080" lon="0.1123620">
        <ele>1068.0</ele>
        <time>2013-05-12T11:37:54Z</time>
      </trkpt>
      <trkpt lat="40.6799990" lon="0.1122720">
        <ele>1066.3</ele>
        <time>2013-05-12T11:37:58Z</time>
      </trkpt>
      <trkpt lat="40.6800110" lon="0.1122490">
        <ele>1065.7</ele>
        <time>2013-05-12T11:38:00Z</time>
      </trkpt>
      <trkpt lat="40.6800100" lon="0.1122070">
        <ele>1065.1</ele>
        <time>2013-05-12T11:38:11Z</time>
      </trkpt>
      <trkpt lat="40.6800040" lon="0.1122030">
        <ele>1065.1</ele>
        <time>2013-05-12T11:38:12Z</time>
      </trkpt>
      <trkpt lat="40.6799830" lon="0.1121290">
        <ele>1064.1</ele>
        <time>2013-05-12T11:38:25Z</time>
      </trkpt>
      <trkpt lat="40.6799780" lon="0.1121260">
        <ele>1064.0</ele>
        <time>2013-05-12T11:38:26Z</time>
      </trkpt>
      <trkpt lat="40.6799780" lon="0.1121270">
        <ele>1063.4</ele>
        <time>2013-05-12T11:38:28Z</time>
      </trkpt>
      <trkpt lat="40.6799520" lon="0.1121010">
        <ele>1063.1</ele>
        <time>2013-05-12T11:38:31Z</time>
      </trkpt>
      <trkpt lat="40.6799380" lon="0.1120530">
        <ele>1062.0</ele>
        <time>2013-05-12T11:38:36Z</time>
      </trkpt>
      <trkpt lat="40.6798870" lon="0.1119960">
        <ele>1061.6</ele>
        <time>2013-05-12T11:38:45Z</time>
      </trkpt>
      <trkpt lat="40.6798400" lon="0.1119210">
        <ele>1061.4</ele>
        <time>2013-05-12T11:38:48Z</time>
      </trkpt>
      <trkpt lat="40.6796550" lon="0.1116580">
        <ele>1060.3</ele>
        <time>2013-05-12T11:38:55Z</time>
      </trkpt>
      <trkpt lat="40.6796020" lon="0.1115130">
        <ele>1060.0</ele>
        <time>2013-05-12T11:38:58Z</time>
      </trkpt>
      <trkpt lat="40.6795550" lon="0.1111030">
        <ele>1060.0</ele>
        <time>2013-05-12T11:39:06Z</time>
      </trkpt>
      <trkpt lat="40.6795550" lon="0.1108360">
        <ele>1061.0</ele>
        <time>2013-05-12T11:39:12Z</time>
      </trkpt>
      <trkpt lat="40.6796320" lon="0.1106400">
        <ele>1062.5</ele>
        <time>2013-05-12T11:39:18Z</time>
      </trkpt>
      <trkpt lat="40.6797590" lon="0.1105360">
        <ele>1063.4</ele>
        <time>2013-05-12T11:39:24Z</time>
      </trkpt>
      <trkpt lat="40.6798730" lon="0.1104000">
        <ele>1064.3</ele>
        <time>2013-05-12T11:39:30Z</time>
      </trkpt>
      <trkpt lat="40.6799430" lon="0.1102020">
        <ele>1065.2</ele>
        <time>2013-05-12T11:39:37Z</time>
      </trkpt>
      <trkpt lat="40.6799490" lon="0.1101220">
        <ele>1065.7</ele>
        <time>2013-05-12T11:39:40Z</time>
      </trkpt>
      <trkpt lat="40.6798990" lon="0.1099760">
        <ele>1067.1</ele>
        <time>2013-05-12T11:39:46Z</time>
      </trkpt>
      <trkpt lat="40.6797940" lon="0.1098510">
        <ele>1068.9</ele>
        <time>2013-05-12T11:39:53Z</time>
      </trkpt>
      <trkpt lat="40.6797110" lon="0.1097560">
        <ele>1070.6</ele>
        <time>2013-05-12T11:39:59Z</time>
      </trkpt>
      <trkpt lat="40.6796200" lon="0.1096150">
        <ele>1072.3</ele>
        <time>2013-05-12T11:40:06Z</time>
      </trkpt>
      <trkpt lat="40.6796060" lon="0.1094630">
        <ele>1073.7</ele>
        <time>2013-05-12T11:40:12Z</time>
      </trkpt>
      <trkpt lat="40.6796810" lon="0.1093540">
        <ele>1075.1</ele>
        <time>2013-05-12T11:40:18Z</time>
      </trkpt>
      <trkpt lat="40.6796980" lon="0.1093390">
        <ele>1075.4</ele>
        <time>2013-05-12T11:40:19Z</time>
      </trkpt>
      <trkpt lat="40.6798060" lon="0.1094110">
        <ele>1077.3</ele>
        <time>2013-05-12T11:40:25Z</time>
      </trkpt>
      <trkpt lat="40.6798710" lon="0.1095050">
        <ele>1077.6</ele>
        <time>2013-05-12T11:40:29Z</time>
      </trkpt>
      <trkpt lat="40.6800430" lon="0.1097190">
        <ele>1078.5</ele>
        <time>2013-05-12T11:40:38Z</time>
      </trkpt>
      <trkpt lat="40.6801470" lon="0.1098500">
        <ele>1079.2</ele>
        <time>2013-05-12T11:40:44Z</time>
      </trkpt>
      <trkpt lat="40.6802830" lon="0.1099510">
        <ele>1080.0</ele>
        <time>2013-05-12T11:40:50Z</time>
      </trkpt>
      <trkpt lat="40.6803960" lon="0.1098830">
        <ele>1080.8</ele>
        <time>2013-05-12T11:40:55Z</time>
      </trkpt>
      <trkpt lat="40.6804300" lon="0.1097190">
        <ele>1081.9</ele>
        <time>2013-05-12T11:41:00Z</time>
      </trkpt>
      <trkpt lat="40.6803210" lon="0.1095200">
        <ele>1083.0</ele>
        <time>2013-05-12T11:41:06Z</time>
      </trkpt>
      <trkpt lat="40.6800840" lon="0.1092010">
        <ele>1083.9</ele>
        <time>2013-05-12T11:41:16Z</time>
      </trkpt>
      <trkpt lat="40.6800250" lon="0.1090120">
        <ele>1084.6</ele>
        <time>2013-05-12T11:41:21Z</time>
      </trkpt>
      <trkpt lat="40.6800900" lon="0.1089140">
        <ele>1085.6</ele>
        <time>2013-05-12T11:41:25Z</time>
      </trkpt>
      <trkpt lat="40.6801380" lon="0.1088970">
        <ele>1086.3</ele>
        <time>2013-05-12T11:41:27Z</time>
      </trkpt>
      <trkpt lat="40.6802730" lon="0.1090040">
        <ele>1087.5</ele>
        <time>2013-05-12T11:41:32Z</time>
      </trkpt>
      <trkpt lat="40.6805210" lon="0.1093380">
        <ele>1088.7</ele>
        <time>2013-05-12T11:41:42Z</time>
      </trkpt>
      <trkpt lat="40.6807470" lon="0.1096600">
        <ele>1090.0</ele>
        <time>2013-05-12T11:41:52Z</time>
      </trkpt>
      <trkpt lat="40.6809540" lon="0.1099560">
        <ele>1091.2</ele>
        <time>2013-05-12T11:42:01Z</time>
      </trkpt>
      <trkpt lat="40.6811190" lon="0.1101770">
        <ele>1092.5</ele>
        <time>2013-05-12T11:42:08Z</time>
      </trkpt>
      <trkpt lat="40.6813250" lon="0.1105180">
        <ele>1094.5</ele>
        <time>2013-05-12T11:42:18Z</time>
      </trkpt>
      <trkpt lat="40.6814650" lon="0.1107030">
        <ele>1095.5</ele>
        <time>2013-05-12T11:42:24Z</time>
      </trkpt>
      <trkpt lat="40.6815540" lon="0.1107160">
        <ele>1096.1</ele>
        <time>2013-05-12T11:42:27Z</time>
      </trkpt>
      <trkpt lat="40.6816540" lon="0.1105780">
        <ele>1097.7</ele>
        <time>2013-05-12T11:42:32Z</time>
      </trkpt>
      <trkpt lat="40.6816280" lon="0.1104220">
        <ele>1098.9</ele>
        <time>2013-05-12T11:42:36Z</time>
      </trkpt>
      <trkpt lat="40.6815290" lon="0.1102090">
        <ele>1100.3</ele>
        <time>2013-05-12T11:42:42Z</time>
      </trkpt>
      <trkpt lat="40.6814000" lon="0.1099210">
        <ele>1101.6</ele>
        <time>2013-05-12T11:42:50Z</time>
      </trkpt>
      <trkpt lat="40.6813040" lon="0.1097050">
        <ele>1102.8</ele>
        <time>2013-05-12T11:42:56Z</time>
      </trkpt>
      <trkpt lat="40.6811630" lon="0.1093770">
        <ele>1104.5</ele>
        <time>2013-05-12T11:43:05Z</time>
      </trkpt>
      <trkpt lat="40.6810410" lon="0.1090860">
        <ele>1105.6</ele>
        <time>2013-05-12T11:43:13Z</time>
      </trkpt>
      <trkpt lat="40.6809140" lon="0.1087440">
        <ele>1107.1</ele>
        <time>2013-05-12T11:43:22Z</time>
      </trkpt>
      <trkpt lat="40.6809140" lon="0.1087040">
        <ele>1107.2</ele>
        <time>2013-05-12T11:43:23Z</time>
      </trkpt>
      <trkpt lat="40.6809810" lon="0.1086350">
        <ele>1108.4</ele>
        <time>2013-05-12T11:43:27Z</time>
      </trkpt>
      <trkpt lat="40.6810460" lon="0.1086990">
        <ele>1109.2</ele>
        <time>2013-05-12T11:43:30Z</time>
      </trkpt>
      <trkpt lat="40.6811570" lon="0.1090210">
        <ele>1111.0</ele>
        <time>2013-05-12T11:43:38Z</time>
      </trkpt>
      <trkpt lat="40.6813070" lon="0.1092610">
        <ele>1112.1</ele>
        <time>2013-05-12T11:43:45Z</time>
      </trkpt>
      <trkpt lat="40.6814530" lon="0.1094430">
        <ele>1113.4</ele>
        <time>2013-05-12T11:43:51Z</time>
      </trkpt>
      <trkpt lat="40.6816800" lon="0.1096980">
        <ele>1115.3</ele>
        <time>2013-05-12T11:44:00Z</time>
      </trkpt>
      <trkpt lat="40.6818360" lon="0.1098630">
        <ele>1116.4</ele>
        <time>2013-05-12T11:44:06Z</time>
      </trkpt>
      <trkpt lat="40.6819900" lon="0.1099580">
        <ele>1117.4</ele>
        <time>2013-05-12T11:44:11Z</time>
      </trkpt>
      <trkpt lat="40.6821560" lon="0.1098210">
        <ele>1118.6</ele>
        <time>2013-05-12T11:44:17Z</time>
      </trkpt>
      <trkpt lat="40.6823410" lon="0.1096540">
        <ele>1119.8</ele>
        <time>2013-05-12T11:44:24Z</time>
      </trkpt>
      <trkpt lat="40.6824990" lon="0.1096660">
        <ele>1121.2</ele>
        <time>2013-05-12T11:44:29Z</time>
      </trkpt>
      <trkpt lat="40.6827520" lon="0.1096250">
        <ele>1123.3</ele>
        <time>2013-05-12T11:44:37Z</time>
      </trkpt>
      <trkpt lat="40.6828710" lon="0.1094260">
        <ele>1124.3</ele>
        <time>2013-05-12T11:44:43Z</time>
      </trkpt>
      <trkpt lat="40.6830050" lon="0.1091810">
        <ele>1125.6</ele>
        <time>2013-05-12T11:44:50Z</time>
      </trkpt>
      <trkpt lat="40.6831540" lon="0.1088930">
        <ele>1126.6</ele>
        <time>2013-05-12T11:44:58Z</time>
      </trkpt>
      <trkpt lat="40.6832690" lon="0.1086700">
        <ele>1126.1</ele>
        <time>2013-05-12T11:45:04Z</time>
      </trkpt>
      <trkpt lat="40.6833620" lon="0.1084910">
        <ele>1129.0</ele>
        <time>2013-05-12T11:45:09Z</time>
      </trkpt>
      <trkpt lat="40.6834840" lon="0.1081710">
        <ele>1131.2</ele>
        <time>2013-05-12T11:45:17Z</time>
      </trkpt>
      <trkpt lat="40.6835340" lon="0.1078660">
        <ele>1132.9</ele>
        <time>2013-05-12T11:45:24Z</time>
      </trkpt>
      <trkpt lat="40.6835450" lon="0.1077860">
        <ele>1133.7</ele>
        <time>2013-05-12T11:45:26Z</time>
      </trkpt>
      <trkpt lat="40.6835850" lon="0.1074770">
        <ele>1135.2</ele>
        <time>2013-05-12T11:45:33Z</time>
      </trkpt>
      <trkpt lat="40.6836360" lon="0.1071280">
        <ele>1136.5</ele>
        <time>2013-05-12T11:45:41Z</time>
      </trkpt>
      <trkpt lat="40.6836970" lon="0.1068310">
        <ele>1138.9</ele>
        <time>2013-05-12T11:45:48Z</time>
      </trkpt>
      <trkpt lat="40.6837460" lon="0.1065840">
        <ele>1140.8</ele>
        <time>2013-05-12T11:45:54Z</time>
      </trkpt>
      <trkpt lat="40.6837540" lon="0.1063120">
        <ele>1142.4</ele>
        <time>2013-05-12T11:46:00Z</time>
      </trkpt>
      <trkpt lat="40.6837190" lon="0.1060260">
        <ele>1143.9</ele>
        <time>2013-05-12T11:46:06Z</time>
      </trkpt>
      <trkpt lat="40.6836720" lon="0.1057030">
        <ele>1144.8</ele>
        <time>2013-05-12T11:46:13Z</time>
      </trkpt>
      <trkpt lat="40.6836550" lon="0.1054180">
        <ele>1146.0</ele>
        <time>2013-05-12T11:46:19Z</time>
      </trkpt>
      <trkpt lat="40.6837000" lon="0.1052180">
        <ele>1147.0</ele>
        <time>2013-05-12T11:46:24Z</time>
      </trkpt>
      <trkpt lat="40.6839450" lon="0.1051680">
        <ele>1148.0</ele>
        <time>2013-05-12T11:46:31Z</time>
      </trkpt>
      <trkpt lat="40.6840670" lon="0.1051680">
        <ele>1148.9</ele>
        <time>2013-05-12T11:46:35Z</time>
      </trkpt>
      <trkpt lat="40.6841050" lon="0.1050740">
        <ele>1149.0</ele>
        <time>2013-05-12T11:46:39Z</time>
      </trkpt>
      <trkpt lat="40.6840770" lon="0.1049860">
        <ele>1149.7</ele>
        <time>2013-05-12T11:46:42Z</time>
      </trkpt>
      <trkpt lat="40.6840030" lon="0.1047770">
        <ele>1152.5</ele>
        <time>2013-05-12T11:46:50Z</time>
      </trkpt>
      <trkpt lat="40.6839710" lon="0.1046540">
        <ele>1154.8</ele>
        <time>2013-05-12T11:46:55Z</time>
      </trkpt>
      <trkpt lat="40.6839310" lon="0.1045140">
        <ele>1156.7</ele>
        <time>2013-05-12T11:47:01Z</time>
      </trkpt>
      <trkpt lat="40.6839000" lon="0.1043760">
        <ele>1158.3</ele>
        <time>2013-05-12T11:47:07Z</time>
      </trkpt>
      <trkpt lat="40.6839520" lon="0.1043640">
        <ele>1159.4</ele>
        <time>2013-05-12T11:47:11Z</time>
      </trkpt>
      <trkpt lat="40.6840960" lon="0.1044940">
        <ele>1159.6</ele>
        <time>2013-05-12T11:47:18Z</time>
      </trkpt>
      <trkpt lat="40.6842190" lon="0.1045200">
        <ele>1160.6</ele>
        <time>2013-05-12T11:47:24Z</time>
      </trkpt>
      <trkpt lat="40.6843460" lon="0.1045730">
        <ele>1161.7</ele>
        <time>2013-05-12T11:47:29Z</time>
      </trkpt>
      <trkpt lat="40.6843170" lon="0.1044970">
        <ele>1161.5</ele>
        <time>2013-05-12T11:47:34Z</time>
      </trkpt>
      <trkpt lat="40.6841910" lon="0.1043700">
        <ele>1160.5</ele>
        <time>2013-05-12T11:47:38Z</time>
      </trkpt>
      <trkpt lat="40.6840540" lon="0.1041560">
        <ele>1158.3</ele>
        <time>2013-05-12T11:47:42Z</time>
      </trkpt>
      <trkpt lat="40.6840510" lon="0.1040190">
        <ele>1155.2</ele>
        <time>2013-05-12T11:47:46Z</time>
      </trkpt>
      <trkpt lat="40.6840570" lon="0.1040080">
        <ele>1155.0</ele>
        <time>2013-05-12T11:47:47Z</time>
      </trkpt>
      <trkpt lat="40.6840620" lon="0.1039990">
        <ele>1154.6</ele>
        <time>2013-05-12T11:47:48Z</time>
      </trkpt>
      <trkpt lat="40.6840730" lon="0.1039870">
        <ele>1154.1</ele>
        <time>2013-05-12T11:47:50Z</time>
      </trkpt>
      <trkpt lat="40.6840800" lon="0.1039860">
        <ele>1154.0</ele>
        <time>2013-05-12T11:47:51Z</time>
      </trkpt>
      <trkpt lat="40.6840810" lon="0.1040060">
        <ele>1154.0</ele>
        <time>2013-05-12T11:47:55Z</time>
      </trkpt>
      <trkpt lat="40.6840760" lon="0.1040230">
        <ele>1154.1</ele>
        <time>2013-05-12T11:48:00Z</time>
      </trkpt>
      <trkpt lat="40.6840490" lon="0.1040610">
        <ele>1154.0</ele>
        <time>2013-05-12T11:48:03Z</time>
      </trkpt>
      <trkpt lat="40.6840780" lon="0.1041980">
        <ele>1155.3</ele>
        <time>2013-05-12T11:48:10Z</time>
      </trkpt>
      <trkpt lat="40.6841110" lon="0.1042520">
        <ele>1155.9</ele>
        <time>2013-05-12T11:48:14Z</time>
      </trkpt>
      <trkpt lat="40.6841820" lon="0.1042300">
        <ele>1156.8</ele>
        <time>2013-05-12T11:48:20Z</time>
      </trkpt>
      <trkpt lat="40.6841920" lon="0.1042090">
        <ele>1157.1</ele>
        <time>2013-05-12T11:48:23Z</time>
      </trkpt>
      <trkpt lat="40.6841450" lon="0.1043050">
        <ele>1157.5</ele>
        <time>2013-05-12T11:48:36Z</time>
      </trkpt>
      <trkpt lat="40.6841510" lon="0.1043270">
        <ele>1157.5</ele>
        <time>2013-05-12T11:48:39Z</time>
      </trkpt>
      <trkpt lat="40.6841670" lon="0.1043500">
        <ele>1157.7</ele>
        <time>2013-05-12T11:48:44Z</time>
      </trkpt>
      <trkpt lat="40.6842450" lon="0.1044550">
        <ele>1158.9</ele>
        <time>2013-05-12T11:48:50Z</time>
      </trkpt>
      <trkpt lat="40.6842630" lon="0.1044750">
        <ele>1160.0</ele>
        <time>2013-05-12T11:48:54Z</time>
      </trkpt>
      <trkpt lat="40.6842850" lon="0.1045030">
        <ele>1159.8</ele>
        <time>2013-05-12T11:49:01Z</time>
      </trkpt>
      <trkpt lat="40.6843240" lon="0.1045460">
        <ele>1160.4</ele>
        <time>2013-05-12T11:49:04Z</time>
      </trkpt>
      <trkpt lat="40.6843820" lon="0.1044870">
        <ele>1161.2</ele>
        <time>2013-05-12T11:49:09Z</time>
      </trkpt>
      <trkpt lat="40.6844310" lon="0.1043950">
        <ele>1160.7</ele>
        <time>2013-05-12T11:49:15Z</time>
      </trkpt>
      <trkpt lat="40.6844310" lon="0.1043960">
        <ele>1160.6</ele>
        <time>2013-05-12T11:49:16Z</time>
      </trkpt>
      <trkpt lat="40.6844280" lon="0.1043540">
        <ele>1160.5</ele>
        <time>2013-05-12T11:49:25Z</time>
      </trkpt>
      <trkpt lat="40.6844270" lon="0.1043520">
        <ele>1160.6</ele>
        <time>2013-05-12T11:49:26Z</time>
      </trkpt>
      <trkpt lat="40.6844680" lon="0.1043880">
        <ele>1161.2</ele>
        <time>2013-05-12T11:49:36Z</time>
      </trkpt>
      <trkpt lat="40.6844800" lon="0.1043920">
        <ele>1161.6</ele>
        <time>2013-05-12T11:49:39Z</time>
      </trkpt>
      <trkpt lat="40.6845250" lon="0.1044120">
        <ele>1162.9</ele>
        <time>2013-05-12T11:49:45Z</time>
      </trkpt>
      <trkpt lat="40.6845280" lon="0.1044120">
        <ele>1163.4</ele>
        <time>2013-05-12T11:49:47Z</time>
      </trkpt>
      <trkpt lat="40.6845580" lon="0.1044010">
        <ele>1164.0</ele>
        <time>2013-05-12T11:49:52Z</time>
      </trkpt>
      <trkpt lat="40.6845600" lon="0.1044040">
        <ele>1164.2</ele>
        <time>2013-05-12T11:49:53Z</time>
      </trkpt>
      <trkpt lat="40.6845870" lon="0.1044300">
        <ele>1164.5</ele>
        <time>2013-05-12T11:49:58Z</time>
      </trkpt>
      <trkpt lat="40.6845810" lon="0.1044400">
        <ele>1164.8</ele>
        <time>2013-05-12T11:50:01Z</time>
      </trkpt>
      <trkpt lat="40.6846400" lon="0.1044120">
        <ele>1165.6</ele>
        <time>2013-05-12T11:50:11Z</time>
      </trkpt>
      <trkpt lat="40.6847000" lon="0.1043140">
        <ele>1166.6</ele>
        <time>2013-05-12T11:50:16Z</time>
      </trkpt>
      <trkpt lat="40.6847280" lon="0.1042920">
        <ele>1167.4</ele>
        <time>2013-05-12T11:50:18Z</time>
      </trkpt>
      <trkpt lat="40.6847770" lon="0.1042260">
        <ele>1169.3</ele>
        <time>2013-05-12T11:50:22Z</time>
      </trkpt>
      <trkpt lat="40.6848240" lon="0.1042100">
        <ele>1170.0</ele>
        <time>2013-05-12T11:50:25Z</time>
      </trkpt>
      <trkpt lat="40.6848560" lon="0.1042080">
        <ele>1170.8</ele>
        <time>2013-05-12T11:50:27Z</time>
      </trkpt>
      <trkpt lat="40.6849210" lon="0.1041780">
        <ele>1171.8</ele>
        <time>2013-05-12T11:50:31Z</time>
      </trkpt>
      <trkpt lat="40.6849960" lon="0.1041080">
        <ele>1173.0</ele>
        <time>2013-05-12T11:50:36Z</time>
      </trkpt>
      <trkpt lat="40.6850860" lon="0.1040760">
        <ele>1174.4</ele>
        <time>2013-05-12T11:50:42Z</time>
      </trkpt>
      <trkpt lat="40.6851490" lon="0.1040400">
        <ele>1175.8</ele>
        <time>2013-05-12T11:50:47Z</time>
      </trkpt>
      <trkpt lat="40.6852430" lon="0.1039660">
        <ele>1177.5</ele>
        <time>2013-05-12T11:50:55Z</time>
      </trkpt>
      <trkpt lat="40.6853340" lon="0.1038800">
        <ele>1178.8</ele>
        <time>2013-05-12T11:51:02Z</time>
      </trkpt>
      <trkpt lat="40.6854490" lon="0.1037980">
        <ele>1180.2</ele>
        <time>2013-05-12T11:51:10Z</time>
      </trkpt>
      <trkpt lat="40.6854990" lon="0.1037430">
        <ele>1181.0</ele>
        <time>2013-05-12T11:51:14Z</time>
      </trkpt>
      <trkpt lat="40.6855660" lon="0.1036590">
        <ele>1181.7</ele>
        <time>2013-05-12T11:51:20Z</time>
      </trkpt>
      <trkpt lat="40.6855930" lon="0.1036350">
        <ele>1182.1</ele>
        <time>2013-05-12T11:51:22Z</time>
      </trkpt>
      <trkpt lat="40.6856620" lon="0.1035410">
        <ele>1183.3</ele>
        <time>2013-05-12T11:51:28Z</time>
      </trkpt>
      <trkpt lat="40.6856980" lon="0.1034370">
        <ele>1184.5</ele>
        <time>2013-05-12T11:51:33Z</time>
      </trkpt>
      <trkpt lat="40.6857300" lon="0.1032870">
        <ele>1185.0</ele>
        <time>2013-05-12T11:51:39Z</time>
      </trkpt>
      <trkpt lat="40.6857780" lon="0.1031120">
        <ele>1185.2</ele>
        <time>2013-05-12T11:51:47Z</time>
      </trkpt>
      <trkpt lat="40.6858020" lon="0.1029360">
        <ele>1186.0</ele>
        <time>2013-05-12T11:51:54Z</time>
      </trkpt>
      <trkpt lat="40.6858290" lon="0.1027440">
        <ele>1186.7</ele>
        <time>2013-05-12T11:52:00Z</time>
      </trkpt>
      <trkpt lat="40.6858660" lon="0.1025360">
        <ele>1187.7</ele>
        <time>2013-05-12T11:52:07Z</time>
      </trkpt>
      <trkpt lat="40.6858270" lon="0.1023520">
        <ele>1188.2</ele>
        <time>2013-05-12T11:52:13Z</time>
      </trkpt>
      <trkpt lat="40.6857530" lon="0.1021620">
        <ele>1191.3</ele>
        <time>2013-05-12T11:52:21Z</time>
      </trkpt>
      <trkpt lat="40.6857130" lon="0.1019990">
        <ele>1192.0</ele>
        <time>2013-05-12T11:52:28Z</time>
      </trkpt>
      <trkpt lat="40.6856870" lon="0.1018580">
        <ele>1192.6</ele>
        <time>2013-05-12T11:52:34Z</time>
      </trkpt>
      <trkpt lat="40.6856630" lon="0.1017460">
        <ele>1193.5</ele>
        <time>2013-05-12T11:52:40Z</time>
      </trkpt>
      <trkpt lat="40.6856440" lon="0.1016210">
        <ele>1194.8</ele>
        <time>2013-05-12T11:52:46Z</time>
      </trkpt>
      <trkpt lat="40.6856280" lon="0.1014620">
        <ele>1196.1</ele>
        <time>2013-05-12T11:52:52Z</time>
      </trkpt>
      <trkpt lat="40.6856080" lon="0.1012860">
        <ele>1196.7</ele>
        <time>2013-05-12T11:52:58Z</time>
      </trkpt>
      <trkpt lat="40.6856080" lon="0.1010030">
        <ele>1197.2</ele>
        <time>2013-05-12T11:53:06Z</time>
      </trkpt>
      <trkpt lat="40.6856040" lon="0.1008140">
        <ele>1197.6</ele>
        <time>2013-05-12T11:53:12Z</time>
      </trkpt>
      <trkpt lat="40.6855940" lon="0.1007410">
        <ele>1197.5</ele>
        <time>2013-05-12T11:53:15Z</time>
      </trkpt>
      <trkpt lat="40.6855720" lon="0.1006490">
        <ele>1197.2</ele>
        <time>2013-05-12T11:53:18Z</time>
      </trkpt>
      <trkpt lat="40.6855250" lon="0.1004330">
        <ele>1197.1</ele>
        <time>2013-05-12T11:53:23Z</time>
      </trkpt>
      <trkpt lat="40.6854550" lon="0.1001060">
        <ele>1196.8</ele>
        <time>2013-05-12T11:53:29Z</time>
      </trkpt>
      <trkpt lat="40.6853820" lon="0.0996360">
        <ele>1197.0</ele>
        <time>2013-05-12T11:53:37Z</time>
      </trkpt>
      <trkpt lat="40.6853030" lon="0.0991700">
        <ele>1197.1</ele>
        <time>2013-05-12T11:53:45Z</time>
      </trkpt>
      <trkpt lat="40.6852580" lon="0.0987710">
        <ele>1197.6</ele>
        <time>2013-05-12T11:53:52Z</time>
      </trkpt>
      <trkpt lat="40.6852250" lon="0.0985520">
        <ele>1198.7</ele>
        <time>2013-05-12T11:53:57Z</time>
      </trkpt>
      <trkpt lat="40.6851870" lon="0.0983620">
        <ele>1199.9</ele>
        <time>2013-05-12T11:54:02Z</time>
      </trkpt>
      <trkpt lat="40.6851600" lon="0.0982320">
        <ele>1201.2</ele>
        <time>2013-05-12T11:54:06Z</time>
      </trkpt>
      <trkpt lat="40.6851310" lon="0.0980700">
        <ele>1202.6</ele>
        <time>2013-05-12T11:54:11Z</time>
      </trkpt>
      <trkpt lat="40.6850870" lon="0.0978450">
        <ele>1204.9</ele>
        <time>2013-05-12T11:54:18Z</time>
      </trkpt>
      <trkpt lat="40.6850560" lon="0.0976730">
        <ele>1206.2</ele>
        <time>2013-05-12T11:54:23Z</time>
      </trkpt>
      <trkpt lat="40.6850250" lon="0.0974980">
        <ele>1207.2</ele>
        <time>2013-05-12T11:54:28Z</time>
      </trkpt>
      <trkpt lat="40.6849670" lon="0.0972430">
        <ele>1208.7</ele>
        <time>2013-05-12T11:54:35Z</time>
      </trkpt>
      <trkpt lat="40.6849320" lon="0.0970570">
        <ele>1209.9</ele>
        <time>2013-05-12T11:54:40Z</time>
      </trkpt>
      <trkpt lat="40.6848530" lon="0.0967000">
        <ele>1209.9</ele>
        <time>2013-05-12T11:54:48Z</time>
      </trkpt>
      <trkpt lat="40.6847880" lon="0.0965060">
        <ele>1210.2</ele>
        <time>2013-05-12T11:54:53Z</time>
      </trkpt>
      <trkpt lat="40.6847020" lon="0.0963370">
        <ele>1210.5</ele>
        <time>2013-05-12T11:54:58Z</time>
      </trkpt>
      <trkpt lat="40.6846240" lon="0.0961870">
        <ele>1211.3</ele>
        <time>2013-05-12T11:55:03Z</time>
      </trkpt>
      <trkpt lat="40.6845430" lon="0.0960380">
        <ele>1212.8</ele>
        <time>2013-05-12T11:55:08Z</time>
      </trkpt>
      <trkpt lat="40.6844680" lon="0.0958840">
        <ele>1214.6</ele>
        <time>2013-05-12T11:55:13Z</time>
      </trkpt>
      <trkpt lat="40.6843850" lon="0.0957490">
        <ele>1216.7</ele>
        <time>2013-05-12T11:55:18Z</time>
      </trkpt>
      <trkpt lat="40.6842850" lon="0.0956150">
        <ele>1219.3</ele>
        <time>2013-05-12T11:55:25Z</time>
      </trkpt>
      <trkpt lat="40.6841910" lon="0.0955070">
        <ele>1221.3</ele>
        <time>2013-05-12T11:55:31Z</time>
      </trkpt>
      <trkpt lat="40.6841480" lon="0.0954020">
        <ele>1222.4</ele>
        <time>2013-05-12T11:55:36Z</time>
      </trkpt>
      <trkpt lat="40.6840920" lon="0.0952590">
        <ele>1223.4</ele>
        <time>2013-05-12T11:55:42Z</time>
      </trkpt>
      <trkpt lat="40.6839930" lon="0.0950870">
        <ele>1224.5</ele>
        <time>2013-05-12T11:55:49Z</time>
      </trkpt>
      <trkpt lat="40.6839620" lon="0.0950650">
        <ele>1225.0</ele>
        <time>2013-05-12T11:55:51Z</time>
      </trkpt>
      <trkpt lat="40.6839230" lon="0.0950480">
        <ele>1225.7</ele>
        <time>2013-05-12T11:55:56Z</time>
      </trkpt>
      <trkpt lat="40.6839350" lon="0.0950500">
        <ele>1225.8</ele>
        <time>2013-05-12T11:55:59Z</time>
      </trkpt>
      <trkpt lat="40.6840070" lon="0.0950860">
        <ele>1225.4</ele>
        <time>2013-05-12T11:56:03Z</time>
      </trkpt>
      <trkpt lat="40.6841650" lon="0.0954360">
        <ele>1223.9</ele>
        <time>2013-05-12T11:56:10Z</time>
      </trkpt>
      <trkpt lat="40.6841880" lon="0.0954930">
        <ele>1223.6</ele>
        <time>2013-05-12T11:56:11Z</time>
      </trkpt>
      <trkpt lat="40.6842720" lon="0.0956040">
        <ele>1222.0</ele>
        <time>2013-05-12T11:56:14Z</time>
      </trkpt>
      <trkpt lat="40.6843020" lon="0.0956330">
        <ele>1221.7</ele>
        <time>2013-05-12T11:56:15Z</time>
      </trkpt>
      <trkpt lat="40.6843320" lon="0.0956690">
        <ele>1221.0</ele>
        <time>2013-05-12T11:56:16Z</time>
      </trkpt>
      <trkpt lat="40.6844560" lon="0.0958410">
        <ele>1218.0</ele>
        <time>2013-05-12T11:56:20Z</time>
      </trkpt>
      <trkpt lat="40.6844770" lon="0.0958690">
        <ele>1217.3</ele>
        <time>2013-05-12T11:56:21Z</time>
      </trkpt>
      <trkpt lat="40.6845200" lon="0.0959410">
        <ele>1216.1</ele>
        <time>2013-05-12T11:56:23Z</time>
      </trkpt>
      <trkpt lat="40.6845740" lon="0.0960460">
        <ele>1215.3</ele>
        <time>2013-05-12T11:56:25Z</time>
      </trkpt>
      <trkpt lat="40.6846310" lon="0.0961370">
        <ele>1213.0</ele>
        <time>2013-05-12T11:56:28Z</time>
      </trkpt>
      <trkpt lat="40.6846700" lon="0.0962060">
        <ele>1212.3</ele>
        <time>2013-05-12T11:56:30Z</time>
      </trkpt>
      <trkpt lat="40.6847960" lon="0.0964550">
        <ele>1210.6</ele>
        <time>2013-05-12T11:56:36Z</time>
      </trkpt>
      <trkpt lat="40.6848460" lon="0.0965530">
        <ele>1209.7</ele>
        <time>2013-05-12T11:56:39Z</time>
      </trkpt>
      <trkpt lat="40.6849080" lon="0.0965430">
        <ele>1209.1</ele>
        <time>2013-05-12T11:56:44Z</time>
      </trkpt>
      <trkpt lat="40.6849100" lon="0.0964930">
        <ele>1208.8</ele>
        <time>2013-05-12T11:56:46Z</time>
      </trkpt>
      <trkpt lat="40.6848850" lon="0.0962630">
        <ele>1208.3</ele>
        <time>2013-05-12T11:56:53Z</time>
      </trkpt>
      <trkpt lat="40.6848790" lon="0.0961060">
        <ele>1208.1</ele>
        <time>2013-05-12T11:56:56Z</time>
      </trkpt>
      <trkpt lat="40.6848890" lon="0.0957160">
        <ele>1208.2</ele>
        <time>2013-05-12T11:57:03Z</time>
      </trkpt>
      <trkpt lat="40.6848650" lon="0.0955630">
        <ele>1208.7</ele>
        <time>2013-05-12T11:57:07Z</time>
      </trkpt>
      <trkpt lat="40.6848660" lon="0.0954470">
        <ele>1208.7</ele>
        <time>2013-05-12T11:57:11Z</time>
      </trkpt>
      <trkpt lat="40.6848620" lon="0.0952930">
        <ele>1207.9</ele>
        <time>2013-05-12T11:57:14Z</time>
      </trkpt>
      <trkpt lat="40.6848470" lon="0.0952410">
        <ele>1207.7</ele>
        <time>2013-05-12T11:57:15Z</time>
      </trkpt>
      <trkpt lat="40.6848250" lon="0.0949930">
        <ele>1206.9</ele>
        <time>2013-05-12T11:57:19Z</time>
      </trkpt>
      <trkpt lat="40.6848120" lon="0.0945940">
        <ele>1206.5</ele>
        <time>2013-05-12T11:57:24Z</time>
      </trkpt>
      <trkpt lat="40.6848520" lon="0.0942820">
        <ele>1206.2</ele>
        <time>2013-05-12T11:57:28Z</time>
      </trkpt>
      <trkpt lat="40.6849320" lon="0.0940770">
        <ele>1205.7</ele>
        <time>2013-05-12T11:57:31Z</time>
      </trkpt>
      <trkpt lat="40.6850170" lon="0.0939590">
        <ele>1205.6</ele>
        <time>2013-05-12T11:57:35Z</time>
      </trkpt>
      <trkpt lat="40.6850260" lon="0.0939370">
        <ele>1205.3</ele>
        <time>2013-05-12T11:57:39Z</time>
      </trkpt>
      <trkpt lat="40.6851000" lon="0.0939060">
        <ele>1205.0</ele>
        <time>2013-05-12T11:57:46Z</time>
      </trkpt>
      <trkpt lat="40.6851010" lon="0.0939060">
        <ele>1205.0</ele>
        <time>2013-05-12T11:57:47Z</time>
      </trkpt>
      <trkpt lat="40.6851120" lon="0.0938860">
        <ele>1204.7</ele>
        <time>2013-05-12T11:57:52Z</time>
      </trkpt>
      <trkpt lat="40.6851900" lon="0.0938960">
        <ele>1204.8</ele>
        <time>2013-05-12T11:58:01Z</time>
      </trkpt>
      <trkpt lat="40.6852110" lon="0.0938490">
        <ele>1204.6</ele>
        <time>2013-05-12T11:58:04Z</time>
      </trkpt>
      <trkpt lat="40.6851990" lon="0.0937870">
        <ele>1203.5</ele>
        <time>2013-05-12T11:58:10Z</time>
      </trkpt>
      <trkpt lat="40.6852050" lon="0.0936580">
        <ele>1201.0</ele>
        <time>2013-05-12T11:58:19Z</time>
      </trkpt>
      <trkpt lat="40.6851870" lon="0.0935470">
        <ele>1198.3</ele>
        <time>2013-05-12T11:58:24Z</time>
      </trkpt>
      <trkpt lat="40.6851800" lon="0.0935240">
        <ele>1197.8</ele>
        <time>2013-05-12T11:58:25Z</time>
      </trkpt>
      <trkpt lat="40.6851900" lon="0.0934340">
        <ele>1194.9</ele>
        <time>2013-05-12T11:58:30Z</time>
      </trkpt>
      <trkpt lat="40.6851450" lon="0.0934030">
        <ele>1193.2</ele>
        <time>2013-05-12T11:58:36Z</time>
      </trkpt>
      <trkpt lat="40.6851440" lon="0.0933620">
        <ele>1192.1</ele>
        <time>2013-05-12T11:58:45Z</time>
      </trkpt>
      <trkpt lat="40.6851420" lon="0.0933550">
        <ele>1191.9</ele>
        <time>2013-05-12T11:58:46Z</time>
      </trkpt>
      <trkpt lat="40.6851400" lon="0.0933510">
        <ele>1191.7</ele>
        <time>2013-05-12T11:58:47Z</time>
      </trkpt>
      <trkpt lat="40.6851450" lon="0.0933050">
        <ele>1190.7</ele>
        <time>2013-05-12T11:58:52Z</time>
      </trkpt>
      <trkpt lat="40.6851020" lon="0.0931950">
        <ele>1189.0</ele>
        <time>2013-05-12T11:58:58Z</time>
      </trkpt>
      <trkpt lat="40.6850960" lon="0.0931740">
        <ele>1188.5</ele>
        <time>2013-05-12T11:58:59Z</time>
      </trkpt>
      <trkpt lat="40.6850810" lon="0.0931170">
        <ele>1187.3</ele>
        <time>2013-05-12T11:59:02Z</time>
      </trkpt>
      <trkpt lat="40.6850730" lon="0.0930230">
        <ele>1185.4</ele>
        <time>2013-05-12T11:59:06Z</time>
      </trkpt>
      <trkpt lat="40.6850940" lon="0.0929550">
        <ele>1183.3</ele>
        <time>2013-05-12T11:59:10Z</time>
      </trkpt>
      <trkpt lat="40.6851080" lon="0.0929540">
        <ele>1183.1</ele>
        <time>2013-05-12T11:59:11Z</time>
      </trkpt>
      <trkpt lat="40.6851760" lon="0.0929460">
        <ele>1181.0</ele>
        <time>2013-05-12T11:59:16Z</time>
      </trkpt>
      <trkpt lat="40.6851770" lon="0.0929380">
        <ele>1180.5</ele>
        <time>2013-05-12T11:59:17Z</time>
      </trkpt>
      <trkpt lat="40.6851680" lon="0.0928130">
        <ele>1179.3</ele>
        <time>2013-05-12T11:59:22Z</time>
      </trkpt>
      <trkpt lat="40.6851840" lon="0.0927970">
        <ele>1178.8</ele>
        <time>2013-05-12T11:59:23Z</time>
      </trkpt>
      <trkpt lat="40.6852590" lon="0.0927200">
        <ele>1176.4</ele>
        <time>2013-05-12T11:59:27Z</time>
      </trkpt>
      <trkpt lat="40.6853300" lon="0.0925260">
        <ele>1173.9</ele>
        <time>2013-05-12T11:59:32Z</time>
      </trkpt>
      <trkpt lat="40.6853540" lon="0.0924560">
        <ele>1172.8</ele>
        <time>2013-05-12T11:59:34Z</time>
      </trkpt>
      <trkpt lat="40.6853820" lon="0.0923900">
        <ele>1172.0</ele>
        <time>2013-05-12T11:59:36Z</time>
      </trkpt>
      <trkpt lat="40.6854210" lon="0.0923540">
        <ele>1171.2</ele>
        <time>2013-05-12T11:59:38Z</time>
      </trkpt>
      <trkpt lat="40.6854480" lon="0.0922630">
        <ele>1169.4</ele>
        <time>2013-05-12T11:59:42Z</time>
      </trkpt>
      <trkpt lat="40.6854700" lon="0.0922100">
        <ele>1168.4</ele>
        <time>2013-05-12T11:59:44Z</time>
      </trkpt>
      <trkpt lat="40.6856060" lon="0.0919330">
        <ele>1162.4</ele>
        <time>2013-05-12T11:59:51Z</time>
      </trkpt>
      <trkpt lat="40.6856230" lon="0.0919070">
        <ele>1162.1</ele>
        <time>2013-05-12T11:59:52Z</time>
      </trkpt>
      <trkpt lat="40.6857390" lon="0.0917930">
        <ele>1160.8</ele>
        <time>2013-05-12T11:59:57Z</time>
      </trkpt>
      <trkpt lat="40.6858490" lon="0.0917410">
        <ele>1160.0</ele>
        <time>2013-05-12T12:00:01Z</time>
      </trkpt>
      <trkpt lat="40.6859080" lon="0.0916980">
        <ele>1159.7</ele>
        <time>2013-05-12T12:00:03Z</time>
      </trkpt>
      <trkpt lat="40.6861260" lon="0.0913590">
        <ele>1158.1</ele>
        <time>2013-05-12T12:00:10Z</time>
      </trkpt>
      <trkpt lat="40.6862060" lon="0.0912650">
        <ele>1155.9</ele>
        <time>2013-05-12T12:00:14Z</time>
      </trkpt>
      <trkpt lat="40.6862820" lon="0.0911560">
        <ele>1154.1</ele>
        <time>2013-05-12T12:00:19Z</time>
      </trkpt>
      <trkpt lat="40.6862820" lon="0.0911550">
        <ele>1153.6</ele>
        <time>2013-05-12T12:00:20Z</time>
      </trkpt>
      <trkpt lat="40.6862870" lon="0.0911200">
        <ele>1153.1</ele>
        <time>2013-05-12T12:00:28Z</time>
      </trkpt>
      <trkpt lat="40.6862910" lon="0.0910860">
        <ele>1152.4</ele>
        <time>2013-05-12T12:00:32Z</time>
      </trkpt>
      <trkpt lat="40.6863260" lon="0.0910340">
        <ele>1152.3</ele>
        <time>2013-05-12T12:00:36Z</time>
      </trkpt>
      <trkpt lat="40.6863870" lon="0.0909800">
        <ele>1152.1</ele>
        <time>2013-05-12T12:00:41Z</time>
      </trkpt>
      <trkpt lat="40.6863890" lon="0.0909800">
        <ele>1152.3</ele>
        <time>2013-05-12T12:00:42Z</time>
      </trkpt>
      <trkpt lat="40.6864520" lon="0.0908850">
        <ele>1152.3</ele>
        <time>2013-05-12T12:00:53Z</time>
      </trkpt>
      <trkpt lat="40.6864530" lon="0.0908860">
        <ele>1152.2</ele>
        <time>2013-05-12T12:00:54Z</time>
      </trkpt>
      <trkpt lat="40.6864610" lon="0.0908640">
        <ele>1152.0</ele>
        <time>2013-05-12T12:01:03Z</time>
      </trkpt>
      <trkpt lat="40.6864950" lon="0.0908210">
        <ele>1152.1</ele>
        <time>2013-05-12T12:01:15Z</time>
      </trkpt>
      <trkpt lat="40.6865290" lon="0.0908020">
        <ele>1151.7</ele>
        <time>2013-05-12T12:01:19Z</time>
      </trkpt>
      <trkpt lat="40.6866140" lon="0.0905640">
        <ele>1151.7</ele>
        <time>2013-05-12T12:01:31Z</time>
      </trkpt>
      <trkpt lat="40.6866900" lon="0.0904900">
        <ele>1152.9</ele>
        <time>2013-05-12T12:01:35Z</time>
      </trkpt>
      <trkpt lat="40.6867310" lon="0.0904260">
        <ele>1153.8</ele>
        <time>2013-05-12T12:01:38Z</time>
      </trkpt>
      <trkpt lat="40.6867640" lon="0.0903910">
        <ele>1154.5</ele>
        <time>2013-05-12T12:01:41Z</time>
      </trkpt>
      <trkpt lat="40.6867750" lon="0.0903620">
        <ele>1154.8</ele>
        <time>2013-05-12T12:01:43Z</time>
      </trkpt>
      <trkpt lat="40.6868170" lon="0.0903180">
        <ele>1154.9</ele>
        <time>2013-05-12T12:01:47Z</time>
      </trkpt>
      <trkpt lat="40.6868520" lon="0.0902670">
        <ele>1155.1</ele>
        <time>2013-05-12T12:01:51Z</time>
      </trkpt>
      <trkpt lat="40.6868760" lon="0.0902050">
        <ele>1155.4</ele>
        <time>2013-05-12T12:01:55Z</time>
      </trkpt>
      <trkpt lat="40.6869230" lon="0.0901710">
        <ele>1155.7</ele>
        <time>2013-05-12T12:02:01Z</time>
      </trkpt>
      <trkpt lat="40.6869470" lon="0.0901280">
        <ele>1155.7</ele>
        <time>2013-05-12T12:02:21Z</time>
      </trkpt>
      <trkpt lat="40.6870140" lon="0.0900360">
        <ele>1156.1</ele>
        <time>2013-05-12T12:02:26Z</time>
      </trkpt>
      <trkpt lat="40.6870990" lon="0.0899150">
        <ele>1156.6</ele>
        <time>2013-05-12T12:02:31Z</time>
      </trkpt>
      <trkpt lat="40.6872030" lon="0.0897580">
        <ele>1157.2</ele>
        <time>2013-05-12T12:02:37Z</time>
      </trkpt>
      <trkpt lat="40.6872320" lon="0.0895480">
        <ele>1157.3</ele>
        <time>2013-05-12T12:02:43Z</time>
      </trkpt>
      <trkpt lat="40.6871810" lon="0.0892440">
        <ele>1158.5</ele>
        <time>2013-05-12T12:02:51Z</time>
      </trkpt>
      <trkpt lat="40.6871010" lon="0.0889020">
        <ele>1159.2</ele>
        <time>2013-05-12T12:03:00Z</time>
      </trkpt>
      <trkpt lat="40.6869930" lon="0.0885410">
        <ele>1160.1</ele>
        <time>2013-05-12T12:03:09Z</time>
      </trkpt>
      <trkpt lat="40.6869050" lon="0.0882480">
        <ele>1160.3</ele>
        <time>2013-05-12T12:03:16Z</time>
      </trkpt>
      <trkpt lat="40.6867730" lon="0.0878570">
        <ele>1161.5</ele>
        <time>2013-05-12T12:03:25Z</time>
      </trkpt>
      <trkpt lat="40.6866470" lon="0.0875190">
        <ele>1161.9</ele>
        <time>2013-05-12T12:03:32Z</time>
      </trkpt>
      <trkpt lat="40.6864350" lon="0.0870370">
        <ele>1161.8</ele>
        <time>2013-05-12T12:03:42Z</time>
      </trkpt>
      <trkpt lat="40.6862330" lon="0.0865930">
        <ele>1161.5</ele>
        <time>2013-05-12T12:03:51Z</time>
      </trkpt>
      <trkpt lat="40.6860720" lon="0.0861770">
        <ele>1161.2</ele>
        <time>2013-05-12T12:03:59Z</time>
      </trkpt>
      <trkpt lat="40.6859680" lon="0.0856980">
        <ele>1160.8</ele>
        <time>2013-05-12T12:04:07Z</time>
      </trkpt>
      <trkpt lat="40.6858810" lon="0.0852380">
        <ele>1160.5</ele>
        <time>2013-05-12T12:04:14Z</time>
      </trkpt>
      <trkpt lat="40.6857680" lon="0.0846700">
        <ele>1160.4</ele>
        <time>2013-05-12T12:04:22Z</time>
      </trkpt>
      <trkpt lat="40.6856540" lon="0.0840680">
        <ele>1160.0</ele>
        <time>2013-05-12T12:04:30Z</time>
      </trkpt>
      <trkpt lat="40.6856230" lon="0.0838610">
        <ele>1159.3</ele>
        <time>2013-05-12T12:04:33Z</time>
      </trkpt>
      <trkpt lat="40.6856110" lon="0.0837270">
        <ele>1159.0</ele>
        <time>2013-05-12T12:04:35Z</time>
      </trkpt>
      <trkpt lat="40.6854750" lon="0.0832250">
        <ele>1158.7</ele>
        <time>2013-05-12T12:04:42Z</time>
      </trkpt>
      <trkpt lat="40.6854130" lon="0.0828690">
        <ele>1158.7</ele>
        <time>2013-05-12T12:04:47Z</time>
      </trkpt>
      <trkpt lat="40.6853990" lon="0.0827990">
        <ele>1158.8</ele>
        <time>2013-05-12T12:04:48Z</time>
      </trkpt>
      <trkpt lat="40.6853540" lon="0.0824390">
        <ele>1159.0</ele>
        <time>2013-05-12T12:04:53Z</time>
      </trkpt>
      <trkpt lat="40.6853410" lon="0.0822270">
        <ele>1159.2</ele>
        <time>2013-05-12T12:04:56Z</time>
      </trkpt>
      <trkpt lat="40.6852240" lon="0.0818560">
        <ele>1159.1</ele>
        <time>2013-05-12T12:05:01Z</time>
      </trkpt>
      <trkpt lat="40.6851960" lon="0.0817860">
        <ele>1159.1</ele>
        <time>2013-05-12T12:05:02Z</time>
      </trkpt>
      <trkpt lat="40.6850920" lon="0.0813490">
        <ele>1159.4</ele>
        <time>2013-05-12T12:05:08Z</time>
      </trkpt>
      <trkpt lat="40.6849480" lon="0.0808180">
        <ele>1159.9</ele>
        <time>2013-05-12T12:05:15Z</time>
      </trkpt>
      <trkpt lat="40.6847990" lon="0.0802810">
        <ele>1160.5</ele>
        <time>2013-05-12T12:05:22Z</time>
      </trkpt>
      <trkpt lat="40.6846740" lon="0.0796910">
        <ele>1160.6</ele>
        <time>2013-05-12T12:05:30Z</time>
      </trkpt>
      <trkpt lat="40.6846600" lon="0.0796160">
        <ele>1160.5</ele>
        <time>2013-05-12T12:05:31Z</time>
      </trkpt>
      <trkpt lat="40.6846330" lon="0.0790030">
        <ele>1159.9</ele>
        <time>2013-05-12T12:05:39Z</time>
      </trkpt>
      <trkpt lat="40.6846240" lon="0.0785750">
        <ele>1160.4</ele>
        <time>2013-05-12T12:05:45Z</time>
      </trkpt>
      <trkpt lat="40.6846110" lon="0.0784590">
        <ele>1160.7</ele>
        <time>2013-05-12T12:05:47Z</time>
      </trkpt>
      <trkpt lat="40.6845670" lon="0.0781550">
        <ele>1160.5</ele>
        <time>2013-05-12T12:05:52Z</time>
      </trkpt>
      <trkpt lat="40.6846270" lon="0.0780380">
        <ele>1159.7</ele>
        <time>2013-05-12T12:05:54Z</time>
      </trkpt>
      <trkpt lat="40.6846730" lon="0.0779760">
        <ele>1159.5</ele>
        <time>2013-05-12T12:05:55Z</time>
      </trkpt>
      <trkpt lat="40.6848640" lon="0.0777540">
        <ele>1159.2</ele>
        <time>2013-05-12T12:05:59Z</time>
      </trkpt>
      <trkpt lat="40.6850600" lon="0.0776500">
        <ele>1159.6</ele>
        <time>2013-05-12T12:06:03Z</time>
      </trkpt>
      <trkpt lat="40.6852180" lon="0.0777450">
        <ele>1160.9</ele>
        <time>2013-05-12T12:06:07Z</time>
      </trkpt>
      <trkpt lat="40.6853200" lon="0.0779130">
        <ele>1162.1</ele>
        <time>2013-05-12T12:06:11Z</time>
      </trkpt>
      <trkpt lat="40.6853910" lon="0.0780510">
        <ele>1163.3</ele>
        <time>2013-05-12T12:06:14Z</time>
      </trkpt>
      <trkpt lat="40.6854470" lon="0.0782560">
        <ele>1164.9</ele>
        <time>2013-05-12T12:06:18Z</time>
      </trkpt>
      <trkpt lat="40.6854600" lon="0.0783610">
        <ele>1165.3</ele>
        <time>2013-05-12T12:06:20Z</time>
      </trkpt>
      <trkpt lat="40.6854770" lon="0.0785800">
        <ele>1166.7</ele>
        <time>2013-05-12T12:06:24Z</time>
      </trkpt>
      <trkpt lat="40.6855070" lon="0.0788870">
        <ele>1168.5</ele>
        <time>2013-05-12T12:06:30Z</time>
      </trkpt>
      <trkpt lat="40.6855590" lon="0.0791800">
        <ele>1170.3</ele>
        <time>2013-05-12T12:06:37Z</time>
      </trkpt>
      <trkpt lat="40.6856580" lon="0.0794140">
        <ele>1171.7</ele>
        <time>2013-05-12T12:06:43Z</time>
      </trkpt>
      <trkpt lat="40.6857300" lon="0.0795250">
        <ele>1173.1</ele>
        <time>2013-05-12T12:06:46Z</time>
      </trkpt>
      <trkpt lat="40.6859090" lon="0.0797550">
        <ele>1175.2</ele>
        <time>2013-05-12T12:06:53Z</time>
      </trkpt>
      <trkpt lat="40.6860640" lon="0.0799590">
        <ele>1177.1</ele>
        <time>2013-05-12T12:06:59Z</time>
      </trkpt>
      <trkpt lat="40.6861980" lon="0.0801260">
        <ele>1178.6</ele>
        <time>2013-05-12T12:07:04Z</time>
      </trkpt>
      <trkpt lat="40.6863730" lon="0.0803290">
        <ele>1180.2</ele>
        <time>2013-05-12T12:07:11Z</time>
      </trkpt>
      <trkpt lat="40.6865170" lon="0.0804520">
        <ele>1181.6</ele>
        <time>2013-05-12T12:07:16Z</time>
      </trkpt>
      <trkpt lat="40.6867200" lon="0.0806180">
        <ele>1183.3</ele>
        <time>2013-05-12T12:07:23Z</time>
      </trkpt>
      <trkpt lat="40.6868990" lon="0.0807620">
        <ele>1184.7</ele>
        <time>2013-05-12T12:07:29Z</time>
      </trkpt>
      <trkpt lat="40.6870500" lon="0.0809650">
        <ele>1186.7</ele>
        <time>2013-05-12T12:07:35Z</time>
      </trkpt>
      <trkpt lat="40.6872420" lon="0.0811560">
        <ele>1189.0</ele>
        <time>2013-05-12T12:07:42Z</time>
      </trkpt>
      <trkpt lat="40.6874890" lon="0.0813230">
        <ele>1190.2</ele>
        <time>2013-05-12T12:07:50Z</time>
      </trkpt>
      <trkpt lat="40.6877730" lon="0.0815200">
        <ele>1190.9</ele>
        <time>2013-05-12T12:07:59Z</time>
      </trkpt>
      <trkpt lat="40.6878790" lon="0.0815910">
        <ele>1191.3</ele>
        <time>2013-05-12T12:08:02Z</time>
      </trkpt>
      <trkpt lat="40.6880060" lon="0.0817800">
        <ele>1192.1</ele>
        <time>2013-05-12T12:08:07Z</time>
      </trkpt>
      <trkpt lat="40.6880800" lon="0.0821600">
        <ele>1193.4</ele>
        <time>2013-05-12T12:08:15Z</time>
      </trkpt>
      <trkpt lat="40.6881170" lon="0.0825880">
        <ele>1196.2</ele>
        <time>2013-05-12T12:08:24Z</time>
      </trkpt>
      <trkpt lat="40.6881060" lon="0.0829680">
        <ele>1198.0</ele>
        <time>2013-05-12T12:08:32Z</time>
      </trkpt>
      <trkpt lat="40.6881520" lon="0.0832640">
        <ele>1200.1</ele>
        <time>2013-05-12T12:08:38Z</time>
      </trkpt>
      <trkpt lat="40.6883110" lon="0.0836840">
        <ele>1201.8</ele>
        <time>2013-05-12T12:08:47Z</time>
      </trkpt>
      <trkpt lat="40.6883460" lon="0.0840010">
        <ele>1202.6</ele>
        <time>2013-05-12T12:08:53Z</time>
      </trkpt>
      <trkpt lat="40.6883470" lon="0.0840550">
        <ele>1202.9</ele>
        <time>2013-05-12T12:08:54Z</time>
      </trkpt>
      <trkpt lat="40.6883630" lon="0.0842210">
        <ele>1203.4</ele>
        <time>2013-05-12T12:08:57Z</time>
      </trkpt>
      <trkpt lat="40.6884680" lon="0.0844740">
        <ele>1204.5</ele>
        <time>2013-05-12T12:09:02Z</time>
      </trkpt>
      <trkpt lat="40.6884990" lon="0.0845140">
        <ele>1204.7</ele>
        <time>2013-05-12T12:09:03Z</time>
      </trkpt>
      <trkpt lat="40.6887380" lon="0.0848270">
        <ele>1206.3</ele>
        <time>2013-05-12T12:09:11Z</time>
      </trkpt>
      <trkpt lat="40.6887950" lon="0.0849020">
        <ele>1207.0</ele>
        <time>2013-05-12T12:09:13Z</time>
      </trkpt>
      <trkpt lat="40.6888870" lon="0.0850080">
        <ele>1207.5</ele>
        <time>2013-05-12T12:09:16Z</time>
      </trkpt>
      <trkpt lat="40.6889960" lon="0.0850950">
        <ele>1208.1</ele>
        <time>2013-05-12T12:09:19Z</time>
      </trkpt>
      <trkpt lat="40.6893280" lon="0.0851870">
        <ele>1209.3</ele>
        <time>2013-05-12T12:09:27Z</time>
      </trkpt>
      <trkpt lat="40.6896140" lon="0.0851740">
        <ele>1210.0</ele>
        <time>2013-05-12T12:09:34Z</time>
      </trkpt>
      <trkpt lat="40.6897950" lon="0.0850320">
        <ele>1211.1</ele>
        <time>2013-05-12T12:09:39Z</time>
      </trkpt>
      <trkpt lat="40.6898550" lon="0.0849520">
        <ele>1211.3</ele>
        <time>2013-05-12T12:09:41Z</time>
      </trkpt>
      <trkpt lat="40.6900210" lon="0.0848250">
        <ele>1211.6</ele>
        <time>2013-05-12T12:09:46Z</time>
      </trkpt>
      <trkpt lat="40.6900570" lon="0.0848140">
        <ele>1211.6</ele>
        <time>2013-05-12T12:09:47Z</time>
      </trkpt>
      <trkpt lat="40.6901390" lon="0.0846010">
        <ele>1211.3</ele>
        <time>2013-05-12T12:09:53Z</time>
      </trkpt>
      <trkpt lat="40.6901150" lon="0.0844770">
        <ele>1211.4</ele>
        <time>2013-05-12T12:09:58Z</time>
      </trkpt>
      <trkpt lat="40.6900540" lon="0.0844550">
        <ele>1211.6</ele>
        <time>2013-05-12T12:10:02Z</time>
      </trkpt>
      <trkpt lat="40.6900240" lon="0.0844220">
        <ele>1212.1</ele>
        <time>2013-05-12T12:10:06Z</time>
      </trkpt>
      <trkpt lat="40.6900200" lon="0.0844230">
        <ele>1212.2</ele>
        <time>2013-05-12T12:10:07Z</time>
      </trkpt>
      <trkpt lat="40.6900580" lon="0.0844380">
        <ele>1212.0</ele>
        <time>2013-05-12T12:10:52Z</time>
      </trkpt>
      <trkpt lat="40.6900590" lon="0.0844350">
        <ele>1212.0</ele>
        <time>2013-05-12T12:10:53Z</time>
      </trkpt>
      <trkpt lat="40.6901200" lon="0.0844530">
        <ele>1211.9</ele>
        <time>2013-05-12T12:11:07Z</time>
      </trkpt>
      <trkpt lat="40.6901870" lon="0.0845930">
        <ele>1211.5</ele>
        <time>2013-05-12T12:11:12Z</time>
      </trkpt>
      <trkpt lat="40.6901900" lon="0.0846550">
        <ele>1211.6</ele>
        <time>2013-05-12T12:11:14Z</time>
      </trkpt>
      <trkpt lat="40.6901700" lon="0.0848380">
        <ele>1210.9</ele>
        <time>2013-05-12T12:11:19Z</time>
      </trkpt>
      <trkpt lat="40.6902500" lon="0.0849510">
        <ele>1210.1</ele>
        <time>2013-05-12T12:11:23Z</time>
      </trkpt>
      <trkpt lat="40.6903490" lon="0.0850990">
        <ele>1208.8</ele>
        <time>2013-05-12T12:11:28Z</time>
      </trkpt>
      <trkpt lat="40.6903810" lon="0.0851340">
        <ele>1207.7</ele>
        <time>2013-05-12T12:11:31Z</time>
      </trkpt>
      <trkpt lat="40.6903600" lon="0.0852330">
        <ele>1207.0</ele>
        <time>2013-05-12T12:11:37Z</time>
      </trkpt>
      <trkpt lat="40.6903530" lon="0.0852520">
        <ele>1207.1</ele>
        <time>2013-05-12T12:11:39Z</time>
      </trkpt>
      <trkpt lat="40.6903580" lon="0.0853010">
        <ele>1207.2</ele>
        <time>2013-05-12T12:11:44Z</time>
      </trkpt>
      <trkpt lat="40.6903700" lon="0.0852200">
        <ele>1207.3</ele>
        <time>2013-05-12T12:13:31Z</time>
      </trkpt>
      <trkpt lat="40.6903920" lon="0.0851110">
        <ele>1207.4</ele>
        <time>2013-05-12T12:13:38Z</time>
      </trkpt>
      <trkpt lat="40.6904260" lon="0.0850460">
        <ele>1207.0</ele>
        <time>2013-05-12T12:13:45Z</time>
      </trkpt>
      <trkpt lat="40.6904170" lon="0.0850370">
        <ele>1206.9</ele>
        <time>2013-05-12T12:13:47Z</time>
      </trkpt>
      <trkpt lat="40.6903450" lon="0.0850930">
        <ele>1206.9</ele>
        <time>2013-05-12T12:13:54Z</time>
      </trkpt>
      <trkpt lat="40.6902780" lon="0.0850120">
        <ele>1207.5</ele>
        <time>2013-05-12T12:13:59Z</time>
      </trkpt>
      <trkpt lat="40.6902600" lon="0.0849890">
        <ele>1207.8</ele>
        <time>2013-05-12T12:14:00Z</time>
      </trkpt>
      <trkpt lat="40.6901890" lon="0.0848880">
        <ele>1209.1</ele>
        <time>2013-05-12T12:14:05Z</time>
      </trkpt>
      <trkpt lat="40.6901620" lon="0.0848490">
        <ele>1209.5</ele>
        <time>2013-05-12T12:14:07Z</time>
      </trkpt>
      <trkpt lat="40.6901510" lon="0.0848240">
        <ele>1209.7</ele>
        <time>2013-05-12T12:14:08Z</time>
      </trkpt>
      <trkpt lat="40.6901400" lon="0.0847990">
        <ele>1210.1</ele>
        <time>2013-05-12T12:14:09Z</time>
      </trkpt>
      <trkpt lat="40.6901250" lon="0.0846630">
        <ele>1211.0</ele>
        <time>2013-05-12T12:14:14Z</time>
      </trkpt>
      <trkpt lat="40.6900880" lon="0.0844410">
        <ele>1211.7</ele>
        <time>2013-05-12T12:14:21Z</time>
      </trkpt>
      <trkpt lat="40.6900960" lon="0.0842540">
        <ele>1212.9</ele>
        <time>2013-05-12T12:14:27Z</time>
      </trkpt>
      <trkpt lat="40.6901030" lon="0.0842030">
        <ele>1213.1</ele>
        <time>2013-05-12T12:14:29Z</time>
      </trkpt>
      <trkpt lat="40.6900970" lon="0.0841700">
        <ele>1213.4</ele>
        <time>2013-05-12T12:14:31Z</time>
      </trkpt>
      <trkpt lat="40.6900770" lon="0.0842710">
        <ele>1213.1</ele>
        <time>2013-05-12T12:14:36Z</time>
      </trkpt>
      <trkpt lat="40.6899640" lon="0.0843540">
        <ele>1212.9</ele>
        <time>2013-05-12T12:14:40Z</time>
      </trkpt>
      <trkpt lat="40.6897360" lon="0.0844570">
        <ele>1213.6</ele>
        <time>2013-05-12T12:14:48Z</time>
      </trkpt>
      <trkpt lat="40.6897170" lon="0.0844670">
        <ele>1213.7</ele>
        <time>2013-05-12T12:14:49Z</time>
      </trkpt>
      <trkpt lat="40.6896690" lon="0.0844220">
        <ele>1214.7</ele>
        <time>2013-05-12T12:14:53Z</time>
      </trkpt>
      <trkpt lat="40.6896010" lon="0.0844240">
        <ele>1215.7</ele>
        <time>2013-05-12T12:14:59Z</time>
      </trkpt>
      <trkpt lat="40.6896110" lon="0.0844260">
        <ele>1215.8</ele>
        <time>2013-05-12T12:15:00Z</time>
      </trkpt>
      <trkpt lat="40.6896770" lon="0.0844150">
        <ele>1215.5</ele>
        <time>2013-05-12T12:15:04Z</time>
      </trkpt>
      <trkpt lat="40.6897130" lon="0.0844760">
        <ele>1214.7</ele>
        <time>2013-05-12T12:15:08Z</time>
      </trkpt>
      <trkpt lat="40.6896910" lon="0.0846310">
        <ele>1213.9</ele>
        <time>2013-05-12T12:15:15Z</time>
      </trkpt>
      <trkpt lat="40.6896590" lon="0.0847340">
        <ele>1213.9</ele>
        <time>2013-05-12T12:15:20Z</time>
      </trkpt>
      <trkpt lat="40.6895790" lon="0.0848630">
        <ele>1213.8</ele>
        <time>2013-05-12T12:15:27Z</time>
      </trkpt>
      <trkpt lat="40.6895720" lon="0.0849390">
        <ele>1213.4</ele>
        <time>2013-05-12T12:15:31Z</time>
      </trkpt>
      <trkpt lat="40.6896050" lon="0.0850100">
        <ele>1212.7</ele>
        <time>2013-05-12T12:15:35Z</time>
      </trkpt>
      <trkpt lat="40.6896330" lon="0.0850550">
        <ele>1212.0</ele>
        <time>2013-05-12T12:15:37Z</time>
      </trkpt>
      <trkpt lat="40.6897710" lon="0.0850250">
        <ele>1210.4</ele>
        <time>2013-05-12T12:15:43Z</time>
      </trkpt>
      <trkpt lat="40.6898990" lon="0.0848610">
        <ele>1210.9</ele>
        <time>2013-05-12T12:15:50Z</time>
      </trkpt>
      <trkpt lat="40.6899900" lon="0.0848170">
        <ele>1211.7</ele>
        <time>2013-05-12T12:15:55Z</time>
      </trkpt>
      <trkpt lat="40.6900600" lon="0.0847830">
        <ele>1211.6</ele>
        <time>2013-05-12T12:15:58Z</time>
      </trkpt>
      <trkpt lat="40.6900950" lon="0.0846470">
        <ele>1211.5</ele>
        <time>2013-05-12T12:16:03Z</time>
      </trkpt>
      <trkpt lat="40.6900790" lon="0.0844690">
        <ele>1212.0</ele>
        <time>2013-05-12T12:16:09Z</time>
      </trkpt>
      <trkpt lat="40.6900670" lon="0.0844150">
        <ele>1212.0</ele>
        <time>2013-05-12T12:16:11Z</time>
      </trkpt>
      <trkpt lat="40.6899540" lon="0.0843650">
        <ele>1212.8</ele>
        <time>2013-05-12T12:16:17Z</time>
      </trkpt>
      <trkpt lat="40.6897460" lon="0.0844350">
        <ele>1213.6</ele>
        <time>2013-05-12T12:16:26Z</time>
      </trkpt>
      <trkpt lat="40.6897200" lon="0.0844420">
        <ele>1213.6</ele>
        <time>2013-05-12T12:16:27Z</time>
      </trkpt>
      <trkpt lat="40.6896490" lon="0.0843250">
        <ele>1215.5</ele>
        <time>2013-05-12T12:16:33Z</time>
      </trkpt>
      <trkpt lat="40.6896430" lon="0.0842960">
        <ele>1215.6</ele>
        <time>2013-05-12T12:16:34Z</time>
      </trkpt>
      <trkpt lat="40.6896310" lon="0.0842360">
        <ele>1216.3</ele>
        <time>2013-05-12T12:16:36Z</time>
      </trkpt>
      <trkpt lat="40.6896860" lon="0.0841310">
        <ele>1217.1</ele>
        <time>2013-05-12T12:16:40Z</time>
      </trkpt>
      <trkpt lat="40.6898310" lon="0.0840180">
        <ele>1217.7</ele>
        <time>2013-05-12T12:16:46Z</time>
      </trkpt>
      <trkpt lat="40.6898940" lon="0.0839720">
        <ele>1217.6</ele>
        <time>2013-05-12T12:16:48Z</time>
      </trkpt>
      <trkpt lat="40.6900670" lon="0.0839170">
        <ele>1216.4</ele>
        <time>2013-05-12T12:16:52Z</time>
      </trkpt>
      <trkpt lat="40.6902240" lon="0.0839000">
        <ele>1216.6</ele>
        <time>2013-05-12T12:16:57Z</time>
      </trkpt>
      <trkpt lat="40.6902740" lon="0.0839370">
        <ele>1217.0</ele>
        <time>2013-05-12T12:16:59Z</time>
      </trkpt>
      <trkpt lat="40.6904990" lon="0.0840100">
        <ele>1218.2</ele>
        <time>2013-05-12T12:17:06Z</time>
      </trkpt>
      <trkpt lat="40.6906870" lon="0.0840210">
        <ele>1219.5</ele>
        <time>2013-05-12T12:17:11Z</time>
      </trkpt>
      <trkpt lat="40.6907920" lon="0.0839080">
        <ele>1220.6</ele>
        <time>2013-05-12T12:17:15Z</time>
      </trkpt>
      <trkpt lat="40.6908090" lon="0.0838430">
        <ele>1221.5</ele>
        <time>2013-05-12T12:17:17Z</time>
      </trkpt>
      <trkpt lat="40.6907270" lon="0.0837230">
        <ele>1221.9</ele>
        <time>2013-05-12T12:17:22Z</time>
      </trkpt>
      <trkpt lat="40.6905800" lon="0.0836900">
        <ele>1222.7</ele>
        <time>2013-05-12T12:17:27Z</time>
      </trkpt>
      <trkpt lat="40.6905500" lon="0.0836740">
        <ele>1222.9</ele>
        <time>2013-05-12T12:17:28Z</time>
      </trkpt>
      <trkpt lat="40.6902580" lon="0.0834740">
        <ele>1223.7</ele>
        <time>2013-05-12T12:17:38Z</time>
      </trkpt>
      <trkpt lat="40.6901080" lon="0.0833240">
        <ele>1224.9</ele>
        <time>2013-05-12T12:17:44Z</time>
      </trkpt>
      <trkpt lat="40.6900160" lon="0.0831830">
        <ele>1225.8</ele>
        <time>2013-05-12T12:17:49Z</time>
      </trkpt>
      <trkpt lat="40.6900080" lon="0.0830460">
        <ele>1225.5</ele>
        <time>2013-05-12T12:17:54Z</time>
      </trkpt>
      <trkpt lat="40.6899990" lon="0.0830370">
        <ele>1225.2</ele>
        <time>2013-05-12T12:17:56Z</time>
      </trkpt>
      <trkpt lat="40.6899720" lon="0.0830230">
        <ele>1225.1</ele>
        <time>2013-05-12T12:17:58Z</time>
      </trkpt>
      <trkpt lat="40.6898970" lon="0.0830550">
        <ele>1225.1</ele>
        <time>2013-05-12T12:18:02Z</time>
      </trkpt>
      <trkpt lat="40.6898850" lon="0.0830860">
        <ele>1225.2</ele>
        <time>2013-05-12T12:18:03Z</time>
      </trkpt>
      <trkpt lat="40.6898000" lon="0.0832760">
        <ele>1226.8</ele>
        <time>2013-05-12T12:18:10Z</time>
      </trkpt>
      <trkpt lat="40.6897340" lon="0.0833480">
        <ele>1227.2</ele>
        <time>2013-05-12T12:18:13Z</time>
      </trkpt>
      <trkpt lat="40.6896170" lon="0.0834180">
        <ele>1227.0</ele>
        <time>2013-05-12T12:18:17Z</time>
      </trkpt>
      <trkpt lat="40.6895220" lon="0.0833350">
        <ele>1227.3</ele>
        <time>2013-05-12T12:18:22Z</time>
      </trkpt>
      <trkpt lat="40.6895100" lon="0.0832510">
        <ele>1226.8</ele>
        <time>2013-05-12T12:18:25Z</time>
      </trkpt>
      <trkpt lat="40.6894570" lon="0.0830900">
        <ele>1225.4</ele>
        <time>2013-05-12T12:18:30Z</time>
      </trkpt>
      <trkpt lat="40.6894670" lon="0.0829780">
        <ele>1223.7</ele>
        <time>2013-05-12T12:18:33Z</time>
      </trkpt>
      <trkpt lat="40.6894790" lon="0.0828080">
        <ele>1222.1</ele>
        <time>2013-05-12T12:18:36Z</time>
      </trkpt>
      <trkpt lat="40.6894390" lon="0.0826690">
        <ele>1220.7</ele>
        <time>2013-05-12T12:18:38Z</time>
      </trkpt>
      <trkpt lat="40.6892960" lon="0.0822600">
        <ele>1215.1</ele>
        <time>2013-05-12T12:18:43Z</time>
      </trkpt>
      <trkpt lat="40.6892720" lon="0.0821910">
        <ele>1214.0</ele>
        <time>2013-05-12T12:18:44Z</time>
      </trkpt>
      <trkpt lat="40.6892370" lon="0.0820700">
        <ele>1212.9</ele>
        <time>2013-05-12T12:18:46Z</time>
      </trkpt>
      <trkpt lat="40.6892030" lon="0.0819530">
        <ele>1212.1</ele>
        <time>2013-05-12T12:18:48Z</time>
      </trkpt>
      <trkpt lat="40.6891100" lon="0.0817130">
        <ele>1211.6</ele>
        <time>2013-05-12T12:18:52Z</time>
      </trkpt>
      <trkpt lat="40.6888520" lon="0.0813820">
        <ele>1210.5</ele>
        <time>2013-05-12T12:18:58Z</time>
      </trkpt>
      <trkpt lat="40.6886960" lon="0.0812710">
        <ele>1209.6</ele>
        <time>2013-05-12T12:19:01Z</time>
      </trkpt>
      <trkpt lat="40.6885310" lon="0.0811410">
        <ele>1208.4</ele>
        <time>2013-05-12T12:19:06Z</time>
      </trkpt>
      <trkpt lat="40.6883650" lon="0.0810830">
        <ele>1206.9</ele>
        <time>2013-05-12T12:19:11Z</time>
      </trkpt>
      <trkpt lat="40.6883460" lon="0.0810790">
        <ele>1206.3</ele>
        <time>2013-05-12T12:19:12Z</time>
      </trkpt>
      <trkpt lat="40.6883160" lon="0.0810750">
        <ele>1204.2</ele>
        <time>2013-05-12T12:19:16Z</time>
      </trkpt>
      <trkpt lat="40.6883420" lon="0.0810770">
        <ele>1204.5</ele>
        <time>2013-05-12T12:19:32Z</time>
      </trkpt>
      <trkpt lat="40.6883490" lon="0.0810780">
        <ele>1204.6</ele>
        <time>2013-05-12T12:19:33Z</time>
      </trkpt>
      <trkpt lat="40.6883980" lon="0.0810960">
        <ele>1205.4</ele>
        <time>2013-05-12T12:19:37Z</time>
      </trkpt>
      <trkpt lat="40.6884950" lon="0.0811270">
        <ele>1206.8</ele>
        <time>2013-05-12T12:19:43Z</time>
      </trkpt>
      <trkpt lat="40.6885360" lon="0.0811440">
        <ele>1207.1</ele>
        <time>2013-05-12T12:19:45Z</time>
      </trkpt>
      <trkpt lat="40.6885670" lon="0.0811450">
        <ele>1207.7</ele>
        <time>2013-05-12T12:19:49Z</time>
      </trkpt>
      <trkpt lat="40.6885490" lon="0.0810870">
        <ele>1208.1</ele>
        <time>2013-05-12T12:20:03Z</time>
      </trkpt>
      <trkpt lat="40.6885060" lon="0.0809940">
        <ele>1208.5</ele>
        <time>2013-05-12T12:20:09Z</time>
      </trkpt>
      <trkpt lat="40.6885130" lon="0.0808910">
        <ele>1209.4</ele>
        <time>2013-05-12T12:20:14Z</time>
      </trkpt>
      <trkpt lat="40.6885900" lon="0.0807510">
        <ele>1210.2</ele>
        <time>2013-05-12T12:20:22Z</time>
      </trkpt>
      <trkpt lat="40.6886900" lon="0.0806340">
        <ele>1210.7</ele>
        <time>2013-05-12T12:20:27Z</time>
      </trkpt>
      <trkpt lat="40.6888490" lon="0.0804620">
        <ele>1210.2</ele>
        <time>2013-05-12T12:20:33Z</time>
      </trkpt>
      <trkpt lat="40.6889610" lon="0.0803300">
        <ele>1209.2</ele>
        <time>2013-05-12T12:20:37Z</time>
      </trkpt>
      <trkpt lat="40.6890610" lon="0.0801840">
        <ele>1206.3</ele>
        <time>2013-05-12T12:20:41Z</time>
      </trkpt>
      <trkpt lat="40.6891320" lon="0.0800870">
        <ele>1204.1</ele>
        <time>2013-05-12T12:20:45Z</time>
      </trkpt>
      <trkpt lat="40.6891400" lon="0.0800700">
        <ele>1203.9</ele>
        <time>2013-05-12T12:20:46Z</time>
      </trkpt>
      <trkpt lat="40.6891550" lon="0.0800490">
        <ele>1203.0</ele>
        <time>2013-05-12T12:20:48Z</time>
      </trkpt>
      <trkpt lat="40.6891820" lon="0.0800310">
        <ele>1202.5</ele>
        <time>2013-05-12T12:20:51Z</time>
      </trkpt>
      <trkpt lat="40.6891800" lon="0.0800100">
        <ele>1202.3</ele>
        <time>2013-05-12T12:20:54Z</time>
      </trkpt>
      <trkpt lat="40.6892540" lon="0.0799600">
        <ele>1202.4</ele>
        <time>2013-05-12T12:21:07Z</time>
      </trkpt>
      <trkpt lat="40.6893210" lon="0.0798740">
        <ele>1203.6</ele>
        <time>2013-05-12T12:21:14Z</time>
      </trkpt>
      <trkpt lat="40.6893750" lon="0.0798210">
        <ele>1204.1</ele>
        <time>2013-05-12T12:21:19Z</time>
      </trkpt>
      <trkpt lat="40.6894310" lon="0.0797770">
        <ele>1204.2</ele>
        <time>2013-05-12T12:21:25Z</time>
      </trkpt>
      <trkpt lat="40.6895290" lon="0.0796760">
        <ele>1204.0</ele>
        <time>2013-05-12T12:21:33Z</time>
      </trkpt>
      <trkpt lat="40.6896140" lon="0.0795530">
        <ele>1204.2</ele>
        <time>2013-05-12T12:21:39Z</time>
      </trkpt>
      <trkpt lat="40.6896860" lon="0.0793750">
        <ele>1203.8</ele>
        <time>2013-05-12T12:21:44Z</time>
      </trkpt>
      <trkpt lat="40.6897100" lon="0.0792330">
        <ele>1203.4</ele>
        <time>2013-05-12T12:21:48Z</time>
      </trkpt>
      <trkpt lat="40.6896960" lon="0.0790330">
        <ele>1202.7</ele>
        <time>2013-05-12T12:21:53Z</time>
      </trkpt>
      <trkpt lat="40.6895750" lon="0.0787400">
        <ele>1200.7</ele>
        <time>2013-05-12T12:21:58Z</time>
      </trkpt>
      <trkpt lat="40.6894960" lon="0.0785640">
        <ele>1200.1</ele>
        <time>2013-05-12T12:22:01Z</time>
      </trkpt>
      <trkpt lat="40.6893820" lon="0.0782900">
        <ele>1200.7</ele>
        <time>2013-05-12T12:22:06Z</time>
      </trkpt>
      <trkpt lat="40.6892710" lon="0.0780800">
        <ele>1201.0</ele>
        <time>2013-05-12T12:22:10Z</time>
      </trkpt>
      <trkpt lat="40.6891870" lon="0.0778770">
        <ele>1201.2</ele>
        <time>2013-05-12T12:22:14Z</time>
      </trkpt>
      <trkpt lat="40.6891320" lon="0.0774890">
        <ele>1202.0</ele>
        <time>2013-05-12T12:22:21Z</time>
      </trkpt>
      <trkpt lat="40.6890760" lon="0.0773380">
        <ele>1202.4</ele>
        <time>2013-05-12T12:22:24Z</time>
      </trkpt>
      <trkpt lat="40.6890270" lon="0.0772460">
        <ele>1202.4</ele>
        <time>2013-05-12T12:22:26Z</time>
      </trkpt>
      <trkpt lat="40.6889690" lon="0.0770440">
        <ele>1201.8</ele>
        <time>2013-05-12T12:22:30Z</time>
      </trkpt>
      <trkpt lat="40.6889520" lon="0.0768450">
        <ele>1200.4</ele>
        <time>2013-05-12T12:22:33Z</time>
      </trkpt>
      <trkpt lat="40.6889160" lon="0.0767220">
        <ele>1199.5</ele>
        <time>2013-05-12T12:22:35Z</time>
      </trkpt>
      <trkpt lat="40.6888330" lon="0.0765010">
        <ele>1198.3</ele>
        <time>2013-05-12T12:22:40Z</time>
      </trkpt>
      <trkpt lat="40.6888260" lon="0.0764730">
        <ele>1198.3</ele>
        <time>2013-05-12T12:22:41Z</time>
      </trkpt>
      <trkpt lat="40.6888900" lon="0.0763670">
        <ele>1197.0</ele>
        <time>2013-05-12T12:22:46Z</time>
      </trkpt>
      <trkpt lat="40.6889800" lon="0.0763570">
        <ele>1196.7</ele>
        <time>2013-05-12T12:22:49Z</time>
      </trkpt>
      <trkpt lat="40.6891590" lon="0.0763230">
        <ele>1196.5</ele>
        <time>2013-05-12T12:22:56Z</time>
      </trkpt>
      <trkpt lat="40.6891900" lon="0.0761980">
        <ele>1197.2</ele>
        <time>2013-05-12T12:23:01Z</time>
      </trkpt>
      <trkpt lat="40.6892230" lon="0.0760220">
        <ele>1198.1</ele>
        <time>2013-05-12T12:23:07Z</time>
      </trkpt>
      <trkpt lat="40.6892860" lon="0.0758940">
        <ele>1199.4</ele>
        <time>2013-05-12T12:23:12Z</time>
      </trkpt>
      <trkpt lat="40.6893250" lon="0.0758250">
        <ele>1200.3</ele>
        <time>2013-05-12T12:23:15Z</time>
      </trkpt>
      <trkpt lat="40.6893400" lon="0.0757430">
        <ele>1200.5</ele>
        <time>2013-05-12T12:23:18Z</time>
      </trkpt>
      <trkpt lat="40.6893380" lon="0.0757110">
        <ele>1200.5</ele>
        <time>2013-05-12T12:23:19Z</time>
      </trkpt>
      <trkpt lat="40.6893030" lon="0.0755100">
        <ele>1200.9</ele>
        <time>2013-05-12T12:23:26Z</time>
      </trkpt>
      <trkpt lat="40.6892480" lon="0.0753550">
        <ele>1201.9</ele>
        <time>2013-05-12T12:23:32Z</time>
      </trkpt>
      <trkpt lat="40.6892190" lon="0.0752120">
        <ele>1202.7</ele>
        <time>2013-05-12T12:23:37Z</time>
      </trkpt>
      <trkpt lat="40.6892190" lon="0.0750710">
        <ele>1203.3</ele>
        <time>2013-05-12T12:23:42Z</time>
      </trkpt>
      <trkpt lat="40.6892190" lon="0.0749290">
        <ele>1203.7</ele>
        <time>2013-05-12T12:23:46Z</time>
      </trkpt>
      <trkpt lat="40.6892230" lon="0.0747070">
        <ele>1204.1</ele>
        <time>2013-05-12T12:23:52Z</time>
      </trkpt>
      <trkpt lat="40.6892770" lon="0.0745410">
        <ele>1205.0</ele>
        <time>2013-05-12T12:23:57Z</time>
      </trkpt>
      <trkpt lat="40.6894400" lon="0.0742840">
        <ele>1207.4</ele>
        <time>2013-05-12T12:24:06Z</time>
      </trkpt>
      <trkpt lat="40.6895730" lon="0.0740920">
        <ele>1209.2</ele>
        <time>2013-05-12T12:24:13Z</time>
      </trkpt>
      <trkpt lat="40.6896850" lon="0.0738910">
        <ele>1210.3</ele>
        <time>2013-05-12T12:24:19Z</time>
      </trkpt>
      <trkpt lat="40.6898230" lon="0.0735680">
        <ele>1211.1</ele>
        <time>2013-05-12T12:24:27Z</time>
      </trkpt>
      <trkpt lat="40.6899210" lon="0.0732110">
        <ele>1212.4</ele>
        <time>2013-05-12T12:24:35Z</time>
      </trkpt>
      <trkpt lat="40.6898890" lon="0.0729830">
        <ele>1213.5</ele>
        <time>2013-05-12T12:24:40Z</time>
      </trkpt>
      <trkpt lat="40.6899130" lon="0.0727640">
        <ele>1213.7</ele>
        <time>2013-05-12T12:24:45Z</time>
      </trkpt>
      <trkpt lat="40.6900490" lon="0.0726280">
        <ele>1213.7</ele>
        <time>2013-05-12T12:24:50Z</time>
      </trkpt>
      <trkpt lat="40.6901980" lon="0.0724860">
        <ele>1214.5</ele>
        <time>2013-05-12T12:24:56Z</time>
      </trkpt>
      <trkpt lat="40.6903280" lon="0.0723440">
        <ele>1216.5</ele>
        <time>2013-05-12T12:25:03Z</time>
      </trkpt>
      <trkpt lat="40.6904790" lon="0.0721410">
        <ele>1219.1</ele>
        <time>2013-05-12T12:25:12Z</time>
      </trkpt>
      <trkpt lat="40.6905410" lon="0.0719510">
        <ele>1221.3</ele>
        <time>2013-05-12T12:25:19Z</time>
      </trkpt>
      <trkpt lat="40.6905920" lon="0.0717800">
        <ele>1223.4</ele>
        <time>2013-05-12T12:25:26Z</time>
      </trkpt>
      <trkpt lat="40.6906660" lon="0.0715990">
        <ele>1225.8</ele>
        <time>2013-05-12T12:25:34Z</time>
      </trkpt>
      <trkpt lat="40.6907440" lon="0.0714360">
        <ele>1227.6</ele>
        <time>2013-05-12T12:25:41Z</time>
      </trkpt>
      <trkpt lat="40.6907760" lon="0.0712790">
        <ele>1230.0</ele>
        <time>2013-05-12T12:25:46Z</time>
      </trkpt>
      <trkpt lat="40.6908100" lon="0.0710210">
        <ele>1230.8</ele>
        <time>2013-05-12T12:25:53Z</time>
      </trkpt>
      <trkpt lat="40.6909180" lon="0.0708370">
        <ele>1231.4</ele>
        <time>2013-05-12T12:25:59Z</time>
      </trkpt>
      <trkpt lat="40.6910270" lon="0.0706640">
        <ele>1232.3</ele>
        <time>2013-05-12T12:26:05Z</time>
      </trkpt>
      <trkpt lat="40.6910730" lon="0.0706040">
        <ele>1232.4</ele>
        <time>2013-05-12T12:26:09Z</time>
      </trkpt>
      <trkpt lat="40.6910730" lon="0.0706060">
        <ele>1232.3</ele>
        <time>2013-05-12T12:26:10Z</time>
      </trkpt>
      <trkpt lat="40.6910860" lon="0.0705730">
        <ele>1232.2</ele>
        <time>2013-05-12T12:27:04Z</time>
      </trkpt>
      <trkpt lat="40.6911060" lon="0.0705470">
        <ele>1232.3</ele>
        <time>2013-05-12T12:27:05Z</time>
      </trkpt>
      <trkpt lat="40.6911770" lon="0.0704470">
        <ele>1232.3</ele>
        <time>2013-05-12T12:27:08Z</time>
      </trkpt>
      <trkpt lat="40.6912340" lon="0.0703680">
        <ele>1232.6</ele>
        <time>2013-05-12T12:27:10Z</time>
      </trkpt>
      <trkpt lat="40.6913790" lon="0.0700700">
        <ele>1232.8</ele>
        <time>2013-05-12T12:27:16Z</time>
      </trkpt>
      <trkpt lat="40.6914740" lon="0.0698370">
        <ele>1233.0</ele>
        <time>2013-05-12T12:27:21Z</time>
      </trkpt>
      <trkpt lat="40.6915670" lon="0.0697170">
        <ele>1233.8</ele>
        <time>2013-05-12T12:27:25Z</time>
      </trkpt>
      <trkpt lat="40.6916300" lon="0.0696390">
        <ele>1235.2</ele>
        <time>2013-05-12T12:27:28Z</time>
      </trkpt>
      <trkpt lat="40.6917130" lon="0.0695650">
        <ele>1236.1</ele>
        <time>2013-05-12T12:27:31Z</time>
      </trkpt>
      <trkpt lat="40.6917940" lon="0.0694950">
        <ele>1237.5</ele>
        <time>2013-05-12T12:27:34Z</time>
      </trkpt>
      <trkpt lat="40.6918230" lon="0.0694710">
        <ele>1237.8</ele>
        <time>2013-05-12T12:27:35Z</time>
      </trkpt>
      <trkpt lat="40.6918530" lon="0.0694480">
        <ele>1238.3</ele>
        <time>2013-05-12T12:27:36Z</time>
      </trkpt>
      <trkpt lat="40.6919160" lon="0.0694090">
        <ele>1239.1</ele>
        <time>2013-05-12T12:27:38Z</time>
      </trkpt>
      <trkpt lat="40.6919840" lon="0.0693870">
        <ele>1239.6</ele>
        <time>2013-05-12T12:27:40Z</time>
      </trkpt>
      <trkpt lat="40.6920170" lon="0.0693810">
        <ele>1239.7</ele>
        <time>2013-05-12T12:27:41Z</time>
      </trkpt>
      <trkpt lat="40.6921700" lon="0.0693850">
        <ele>1240.3</ele>
        <time>2013-05-12T12:27:46Z</time>
      </trkpt>
      <trkpt lat="40.6923340" lon="0.0694270">
        <ele>1240.8</ele>
        <time>2013-05-12T12:27:52Z</time>
      </trkpt>
      <trkpt lat="40.6925210" lon="0.0695150">
        <ele>1241.8</ele>
        <time>2013-05-12T12:27:59Z</time>
      </trkpt>
      <trkpt lat="40.6926980" lon="0.0695770">
        <ele>1243.0</ele>
        <time>2013-05-12T12:28:06Z</time>
      </trkpt>
      <trkpt lat="40.6928330" lon="0.0696180">
        <ele>1245.1</ele>
        <time>2013-05-12T12:28:12Z</time>
      </trkpt>
      <trkpt lat="40.6929530" lon="0.0696950">
        <ele>1247.0</ele>
        <time>2013-05-12T12:28:18Z</time>
      </trkpt>
      <trkpt lat="40.6930630" lon="0.0697720">
        <ele>1248.8</ele>
        <time>2013-05-12T12:28:24Z</time>
      </trkpt>
      <trkpt lat="40.6931640" lon="0.0698450">
        <ele>1251.0</ele>
        <time>2013-05-12T12:28:30Z</time>
      </trkpt>
      <trkpt lat="40.6933040" lon="0.0699210">
        <ele>1253.6</ele>
        <time>2013-05-12T12:28:37Z</time>
      </trkpt>
      <trkpt lat="40.6934520" lon="0.0699810">
        <ele>1256.0</ele>
        <time>2013-05-12T12:28:45Z</time>
      </trkpt>
      <trkpt lat="40.6935670" lon="0.0700190">
        <ele>1258.4</ele>
        <time>2013-05-12T12:28:52Z</time>
      </trkpt>
      <trkpt lat="40.6936640" lon="0.0700360">
        <ele>1260.2</ele>
        <time>2013-05-12T12:28:58Z</time>
      </trkpt>
      <trkpt lat="40.6937640" lon="0.0700450">
        <ele>1261.6</ele>
        <time>2013-05-12T12:29:04Z</time>
      </trkpt>
      <trkpt lat="40.6938860" lon="0.0700540">
        <ele>1262.8</ele>
        <time>2013-05-12T12:29:11Z</time>
      </trkpt>
      <trkpt lat="40.6939800" lon="0.0700950">
        <ele>1264.2</ele>
        <time>2013-05-12T12:29:17Z</time>
      </trkpt>
      <trkpt lat="40.6940980" lon="0.0701300">
        <ele>1266.0</ele>
        <time>2013-05-12T12:29:24Z</time>
      </trkpt>
      <trkpt lat="40.6942210" lon="0.0701750">
        <ele>1268.7</ele>
        <time>2013-05-12T12:29:31Z</time>
      </trkpt>
      <trkpt lat="40.6943450" lon="0.0702350">
        <ele>1271.5</ele>
        <time>2013-05-12T12:29:38Z</time>
      </trkpt>
      <trkpt lat="40.6943600" lon="0.0702480">
        <ele>1271.7</ele>
        <time>2013-05-12T12:29:39Z</time>
      </trkpt>
      <trkpt lat="40.6944620" lon="0.0702910">
        <ele>1273.6</ele>
        <time>2013-05-12T12:29:45Z</time>
      </trkpt>
      <trkpt lat="40.6945310" lon="0.0703190">
        <ele>1274.6</ele>
        <time>2013-05-12T12:29:49Z</time>
      </trkpt>
      <trkpt lat="40.6946170" lon="0.0703500">
        <ele>1275.6</ele>
        <time>2013-05-12T12:29:54Z</time>
      </trkpt>
      <trkpt lat="40.6947490" lon="0.0703760">
        <ele>1277.1</ele>
        <time>2013-05-12T12:30:01Z</time>
      </trkpt>
      <trkpt lat="40.6948840" lon="0.0703700">
        <ele>1277.8</ele>
        <time>2013-05-12T12:30:07Z</time>
      </trkpt>
      <trkpt lat="40.6950070" lon="0.0703560">
        <ele>1278.8</ele>
        <time>2013-05-12T12:30:13Z</time>
      </trkpt>
      <trkpt lat="40.6952120" lon="0.0703740">
        <ele>1279.3</ele>
        <time>2013-05-12T12:30:20Z</time>
      </trkpt>
      <trkpt lat="40.6953960" lon="0.0703940">
        <ele>1280.1</ele>
        <time>2013-05-12T12:30:26Z</time>
      </trkpt>
      <trkpt lat="40.6956080" lon="0.0704360">
        <ele>1281.5</ele>
        <time>2013-05-12T12:30:33Z</time>
      </trkpt>
      <trkpt lat="40.6958570" lon="0.0704820">
        <ele>1282.7</ele>
        <time>2013-05-12T12:30:41Z</time>
      </trkpt>
      <trkpt lat="40.6960540" lon="0.0705460">
        <ele>1283.3</ele>
        <time>2013-05-12T12:30:47Z</time>
      </trkpt>
      <trkpt lat="40.6963320" lon="0.0707210">
        <ele>1284.5</ele>
        <time>2013-05-12T12:30:56Z</time>
      </trkpt>
      <trkpt lat="40.6965080" lon="0.0708660">
        <ele>1285.2</ele>
        <time>2013-05-12T12:31:02Z</time>
      </trkpt>
      <trkpt lat="40.6967880" lon="0.0711290">
        <ele>1285.3</ele>
        <time>2013-05-12T12:31:11Z</time>
      </trkpt>
      <trkpt lat="40.6970050" lon="0.0713310">
        <ele>1286.4</ele>
        <time>2013-05-12T12:31:18Z</time>
      </trkpt>
      <trkpt lat="40.6972700" lon="0.0715480">
        <ele>1288.4</ele>
        <time>2013-05-12T12:31:27Z</time>
      </trkpt>
      <trkpt lat="40.6975380" lon="0.0717780">
        <ele>1289.7</ele>
        <time>2013-05-12T12:31:36Z</time>
      </trkpt>
      <trkpt lat="40.6977690" lon="0.0719500">
        <ele>1290.6</ele>
        <time>2013-05-12T12:31:43Z</time>
      </trkpt>
      <trkpt lat="40.6980460" lon="0.0722380">
        <ele>1290.8</ele>
        <time>2013-05-12T12:31:52Z</time>
      </trkpt>
      <trkpt lat="40.6981960" lon="0.0724230">
        <ele>1292.3</ele>
        <time>2013-05-12T12:31:58Z</time>
      </trkpt>
      <trkpt lat="40.6984230" lon="0.0726070">
        <ele>1294.0</ele>
        <time>2013-05-12T12:32:06Z</time>
      </trkpt>
      <trkpt lat="40.6986450" lon="0.0727860">
        <ele>1295.3</ele>
        <time>2013-05-12T12:32:13Z</time>
      </trkpt>
      <trkpt lat="40.6988230" lon="0.0729990">
        <ele>1296.7</ele>
        <time>2013-05-12T12:32:18Z</time>
      </trkpt>
      <trkpt lat="40.6989390" lon="0.0731850">
        <ele>1297.3</ele>
        <time>2013-05-12T12:32:23Z</time>
      </trkpt>
      <trkpt lat="40.6990060" lon="0.0733420">
        <ele>1298.1</ele>
        <time>2013-05-12T12:32:27Z</time>
      </trkpt>
      <trkpt lat="40.6991830" lon="0.0736930">
        <ele>1300.2</ele>
        <time>2013-05-12T12:32:37Z</time>
      </trkpt>
      <trkpt lat="40.6993170" lon="0.0738050">
        <ele>1301.2</ele>
        <time>2013-05-12T12:32:42Z</time>
      </trkpt>
      <trkpt lat="40.6994510" lon="0.0737450">
        <ele>1302.1</ele>
        <time>2013-05-12T12:32:46Z</time>
      </trkpt>
      <trkpt lat="40.6996300" lon="0.0736040">
        <ele>1302.5</ele>
        <time>2013-05-12T12:32:51Z</time>
      </trkpt>
      <trkpt lat="40.6998100" lon="0.0735600">
        <ele>1302.1</ele>
        <time>2013-05-12T12:32:56Z</time>
      </trkpt>
      <trkpt lat="40.6998790" lon="0.0735880">
        <ele>1302.1</ele>
        <time>2013-05-12T12:32:58Z</time>
      </trkpt>
      <trkpt lat="40.6999490" lon="0.0736480">
        <ele>1301.8</ele>
        <time>2013-05-12T12:33:00Z</time>
      </trkpt>
      <trkpt lat="40.7001790" lon="0.0738010">
        <ele>1301.0</ele>
        <time>2013-05-12T12:33:05Z</time>
      </trkpt>
      <trkpt lat="40.7003350" lon="0.0739340">
        <ele>1300.2</ele>
        <time>2013-05-12T12:33:08Z</time>
      </trkpt>
      <trkpt lat="40.7006230" lon="0.0740420">
        <ele>1298.4</ele>
        <time>2013-05-12T12:33:13Z</time>
      </trkpt>
      <trkpt lat="40.7007000" lon="0.0740510">
        <ele>1297.0</ele>
        <time>2013-05-12T12:33:15Z</time>
      </trkpt>
      <trkpt lat="40.7007560" lon="0.0740640">
        <ele>1295.6</ele>
        <time>2013-05-12T12:33:17Z</time>
      </trkpt>
      <trkpt lat="40.7007840" lon="0.0740770">
        <ele>1295.5</ele>
        <time>2013-05-12T12:33:18Z</time>
      </trkpt>
      <trkpt lat="40.7008100" lon="0.0740930">
        <ele>1295.2</ele>
        <time>2013-05-12T12:33:19Z</time>
      </trkpt>
      <trkpt lat="40.7008370" lon="0.0741180">
        <ele>1295.1</ele>
        <time>2013-05-12T12:33:20Z</time>
      </trkpt>
      <trkpt lat="40.7009670" lon="0.0743620">
        <ele>1293.4</ele>
        <time>2013-05-12T12:33:24Z</time>
      </trkpt>
      <trkpt lat="40.7011380" lon="0.0746450">
        <ele>1291.2</ele>
        <time>2013-05-12T12:33:28Z</time>
      </trkpt>
      <trkpt lat="40.7012240" lon="0.0747860">
        <ele>1289.3</ele>
        <time>2013-05-12T12:33:32Z</time>
      </trkpt>
      <trkpt lat="40.7012880" lon="0.0748540">
        <ele>1289.3</ele>
        <time>2013-05-12T12:33:34Z</time>
      </trkpt>
      <trkpt lat="40.7014000" lon="0.0750170">
        <ele>1290.1</ele>
        <time>2013-05-12T12:33:37Z</time>
      </trkpt>
      <trkpt lat="40.7014790" lon="0.0751420">
        <ele>1290.1</ele>
        <time>2013-05-12T12:33:39Z</time>
      </trkpt>
      <trkpt lat="40.7015570" lon="0.0752750">
        <ele>1289.2</ele>
        <time>2013-05-12T12:33:41Z</time>
      </trkpt>
      <trkpt lat="40.7016250" lon="0.0754010">
        <ele>1288.3</ele>
        <time>2013-05-12T12:33:43Z</time>
      </trkpt>
      <trkpt lat="40.7018850" lon="0.0757030">
        <ele>1284.7</ele>
        <time>2013-05-12T12:33:48Z</time>
      </trkpt>
      <trkpt lat="40.7020010" lon="0.0758070">
        <ele>1283.1</ele>
        <time>2013-05-12T12:33:50Z</time>
      </trkpt>
      <trkpt lat="40.7021920" lon="0.0759360">
        <ele>1281.5</ele>
        <time>2013-05-12T12:33:53Z</time>
      </trkpt>
      <trkpt lat="40.7024320" lon="0.0762550">
        <ele>1280.1</ele>
        <time>2013-05-12T12:33:58Z</time>
      </trkpt>
      <trkpt lat="40.7026520" lon="0.0764900">
        <ele>1280.6</ele>
        <time>2013-05-12T12:34:03Z</time>
      </trkpt>
      <trkpt lat="40.7029040" lon="0.0766680">
        <ele>1278.3</ele>
        <time>2013-05-12T12:34:07Z</time>
      </trkpt>
      <trkpt lat="40.7029880" lon="0.0767180">
        <ele>1277.4</ele>
        <time>2013-05-12T12:34:08Z</time>
      </trkpt>
      <trkpt lat="40.7032960" lon="0.0770270">
        <ele>1274.0</ele>
        <time>2013-05-12T12:34:12Z</time>
      </trkpt>
      <trkpt lat="40.7035750" lon="0.0773800">
        <ele>1270.2</ele>
        <time>2013-05-12T12:34:16Z</time>
      </trkpt>
      <trkpt lat="40.7038710" lon="0.0776440">
        <ele>1269.1</ele>
        <time>2013-05-12T12:34:20Z</time>
      </trkpt>
      <trkpt lat="40.7044250" lon="0.0780950">
        <ele>1264.1</ele>
        <time>2013-05-12T12:34:27Z</time>
      </trkpt>
      <trkpt lat="40.7045050" lon="0.0781490">
        <ele>1263.2</ele>
        <time>2013-05-12T12:34:28Z</time>
      </trkpt>
      <trkpt lat="40.7046540" lon="0.0782710">
        <ele>1262.4</ele>
        <time>2013-05-12T12:34:30Z</time>
      </trkpt>
      <trkpt lat="40.7051460" lon="0.0786520">
        <ele>1259.2</ele>
        <time>2013-05-12T12:34:37Z</time>
      </trkpt>
      <trkpt lat="40.7053740" lon="0.0789050">
        <ele>1257.0</ele>
        <time>2013-05-12T12:34:41Z</time>
      </trkpt>
      <trkpt lat="40.7056390" lon="0.0789710">
        <ele>1253.1</ele>
        <time>2013-05-12T12:34:45Z</time>
      </trkpt>
      <trkpt lat="40.7057160" lon="0.0789560">
        <ele>1252.8</ele>
        <time>2013-05-12T12:34:46Z</time>
      </trkpt>
      <trkpt lat="40.7059480" lon="0.0788770">
        <ele>1251.3</ele>
        <time>2013-05-12T12:34:49Z</time>
      </trkpt>
      <trkpt lat="40.7062360" lon="0.0789390">
        <ele>1250.3</ele>
        <time>2013-05-12T12:34:53Z</time>
      </trkpt>
      <trkpt lat="40.7066700" lon="0.0791700">
        <ele>1248.2</ele>
        <time>2013-05-12T12:34:59Z</time>
      </trkpt>
      <trkpt lat="40.7070260" lon="0.0792890">
        <ele>1245.6</ele>
        <time>2013-05-12T12:35:03Z</time>
      </trkpt>
      <trkpt lat="40.7073500" lon="0.0794500">
        <ele>1243.6</ele>
        <time>2013-05-12T12:35:07Z</time>
      </trkpt>
      <trkpt lat="40.7075680" lon="0.0794790">
        <ele>1242.1</ele>
        <time>2013-05-12T12:35:10Z</time>
      </trkpt>
      <trkpt lat="40.7078300" lon="0.0796200">
        <ele>1240.9</ele>
        <time>2013-05-12T12:35:14Z</time>
      </trkpt>
      <trkpt lat="40.7080940" lon="0.0797410">
        <ele>1240.0</ele>
        <time>2013-05-12T12:35:19Z</time>
      </trkpt>
      <trkpt lat="40.7083490" lon="0.0796710">
        <ele>1236.9</ele>
        <time>2013-05-12T12:35:24Z</time>
      </trkpt>
      <trkpt lat="40.7083990" lon="0.0796300">
        <ele>1236.2</ele>
        <time>2013-05-12T12:35:25Z</time>
      </trkpt>
      <trkpt lat="40.7085610" lon="0.0795160">
        <ele>1234.3</ele>
        <time>2013-05-12T12:35:28Z</time>
      </trkpt>
      <trkpt lat="40.7087580" lon="0.0793610">
        <ele>1230.7</ele>
        <time>2013-05-12T12:35:32Z</time>
      </trkpt>
      <trkpt lat="40.7088580" lon="0.0792650">
        <ele>1229.2</ele>
        <time>2013-05-12T12:35:34Z</time>
      </trkpt>
      <trkpt lat="40.7090030" lon="0.0790190">
        <ele>1225.5</ele>
        <time>2013-05-12T12:35:38Z</time>
      </trkpt>
      <trkpt lat="40.7091100" lon="0.0788250">
        <ele>1222.0</ele>
        <time>2013-05-12T12:35:41Z</time>
      </trkpt>
      <trkpt lat="40.7092390" lon="0.0786270">
        <ele>1219.1</ele>
        <time>2013-05-12T12:35:44Z</time>
      </trkpt>
      <trkpt lat="40.7094070" lon="0.0781810">
        <ele>1214.4</ele>
        <time>2013-05-12T12:35:49Z</time>
      </trkpt>
      <trkpt lat="40.7095820" lon="0.0778130">
        <ele>1213.5</ele>
        <time>2013-05-12T12:35:54Z</time>
      </trkpt>
      <trkpt lat="40.7097800" lon="0.0775620">
        <ele>1211.5</ele>
        <time>2013-05-12T12:35:58Z</time>
      </trkpt>
      <trkpt lat="40.7099150" lon="0.0772910">
        <ele>1210.8</ele>
        <time>2013-05-12T12:36:02Z</time>
      </trkpt>
      <trkpt lat="40.7099550" lon="0.0771000">
        <ele>1211.1</ele>
        <time>2013-05-12T12:36:05Z</time>
      </trkpt>
      <trkpt lat="40.7099820" lon="0.0769230">
        <ele>1211.6</ele>
        <time>2013-05-12T12:36:08Z</time>
      </trkpt>
      <trkpt lat="40.7099950" lon="0.0767180">
        <ele>1211.6</ele>
        <time>2013-05-12T12:36:11Z</time>
      </trkpt>
      <trkpt lat="40.7099170" lon="0.0763900">
        <ele>1210.1</ele>
        <time>2013-05-12T12:36:16Z</time>
      </trkpt>
      <trkpt lat="40.7099170" lon="0.0761320">
        <ele>1210.9</ele>
        <time>2013-05-12T12:36:20Z</time>
      </trkpt>
      <trkpt lat="40.7099290" lon="0.0760190">
        <ele>1211.7</ele>
        <time>2013-05-12T12:36:24Z</time>
      </trkpt>
      <trkpt lat="40.7099290" lon="0.0759910">
        <ele>1211.7</ele>
        <time>2013-05-12T12:36:25Z</time>
      </trkpt>
      <trkpt lat="40.7099850" lon="0.0759520">
        <ele>1211.6</ele>
        <time>2013-05-12T12:36:30Z</time>
      </trkpt>
      <trkpt lat="40.7100220" lon="0.0758520">
        <ele>1210.0</ele>
        <time>2013-05-12T12:36:35Z</time>
      </trkpt>
      <trkpt lat="40.7100340" lon="0.0757580">
        <ele>1210.5</ele>
        <time>2013-05-12T12:36:38Z</time>
      </trkpt>
      <trkpt lat="40.7100620" lon="0.0755840">
        <ele>1210.7</ele>
        <time>2013-05-12T12:36:42Z</time>
      </trkpt>
      <trkpt lat="40.7101320" lon="0.0754130">
        <ele>1208.9</ele>
        <time>2013-05-12T12:36:46Z</time>
      </trkpt>
      <trkpt lat="40.7101460" lon="0.0753620">
        <ele>1208.1</ele>
        <time>2013-05-12T12:36:47Z</time>
      </trkpt>
      <trkpt lat="40.7102040" lon="0.0750620">
        <ele>1205.4</ele>
        <time>2013-05-12T12:36:53Z</time>
      </trkpt>
      <trkpt lat="40.7102630" lon="0.0749310">
        <ele>1203.6</ele>
        <time>2013-05-12T12:36:56Z</time>
      </trkpt>
      <trkpt lat="40.7103230" lon="0.0748960">
        <ele>1203.1</ele>
        <time>2013-05-12T12:36:58Z</time>
      </trkpt>
      <trkpt lat="40.7105830" lon="0.0746930">
        <ele>1202.3</ele>
        <time>2013-05-12T12:37:04Z</time>
      </trkpt>
      <trkpt lat="40.7108820" lon="0.0744410">
        <ele>1201.8</ele>
        <time>2013-05-12T12:37:10Z</time>
      </trkpt>
      <trkpt lat="40.7110520" lon="0.0742690">
        <ele>1202.1</ele>
        <time>2013-05-12T12:37:13Z</time>
      </trkpt>
      <trkpt lat="40.7112380" lon="0.0740230">
        <ele>1202.4</ele>
        <time>2013-05-12T12:37:17Z</time>
      </trkpt>
      <trkpt lat="40.7113040" lon="0.0739140">
        <ele>1203.4</ele>
        <time>2013-05-12T12:37:19Z</time>
      </trkpt>
      <trkpt lat="40.7114450" lon="0.0736880">
        <ele>1204.8</ele>
        <time>2013-05-12T12:37:24Z</time>
      </trkpt>
      <trkpt lat="40.7114990" lon="0.0736070">
        <ele>1205.2</ele>
        <time>2013-05-12T12:37:26Z</time>
      </trkpt>
      <trkpt lat="40.7115250" lon="0.0735700">
        <ele>1205.4</ele>
        <time>2013-05-12T12:37:27Z</time>
      </trkpt>
      <trkpt lat="40.7116130" lon="0.0734500">
        <ele>1206.7</ele>
        <time>2013-05-12T12:37:31Z</time>
      </trkpt>
      <trkpt lat="40.7117270" lon="0.0732870">
        <ele>1207.9</ele>
        <time>2013-05-12T12:37:38Z</time>
      </trkpt>
      <trkpt lat="40.7117390" lon="0.0732650">
        <ele>1208.0</ele>
        <time>2013-05-12T12:37:39Z</time>
      </trkpt>
      <trkpt lat="40.7118080" lon="0.0731780">
        <ele>1208.6</ele>
        <time>2013-05-12T12:37:44Z</time>
      </trkpt>
      <trkpt lat="40.7119150" lon="0.0730090">
        <ele>1209.7</ele>
        <time>2013-05-12T12:37:52Z</time>
      </trkpt>
      <trkpt lat="40.7120400" lon="0.0728140">
        <ele>1211.0</ele>
        <time>2013-05-12T12:38:00Z</time>
      </trkpt>
      <trkpt lat="40.7121650" lon="0.0726020">
        <ele>1212.9</ele>
        <time>2013-05-12T12:38:10Z</time>
      </trkpt>
      <trkpt lat="40.7122870" lon="0.0724910">
        <ele>1215.0</ele>
        <time>2013-05-12T12:38:18Z</time>
      </trkpt>
      <trkpt lat="40.7124230" lon="0.0724020">
        <ele>1216.7</ele>
        <time>2013-05-12T12:38:26Z</time>
      </trkpt>
      <trkpt lat="40.7125700" lon="0.0723890">
        <ele>1217.9</ele>
        <time>2013-05-12T12:38:34Z</time>
      </trkpt>
      <trkpt lat="40.7126810" lon="0.0723640">
        <ele>1219.1</ele>
        <time>2013-05-12T12:38:40Z</time>
      </trkpt>
      <trkpt lat="40.7127670" lon="0.0723030">
        <ele>1220.3</ele>
        <time>2013-05-12T12:38:45Z</time>
      </trkpt>
      <trkpt lat="40.7128100" lon="0.0721820">
        <ele>1221.8</ele>
        <time>2013-05-12T12:38:50Z</time>
      </trkpt>
      <trkpt lat="40.7128350" lon="0.0721440">
        <ele>1222.0</ele>
        <time>2013-05-12T12:38:52Z</time>
      </trkpt>
      <trkpt lat="40.7129570" lon="0.0719190">
        <ele>1222.8</ele>
        <time>2013-05-12T12:39:01Z</time>
      </trkpt>
      <trkpt lat="40.7130680" lon="0.0717430">
        <ele>1222.9</ele>
        <time>2013-05-12T12:39:08Z</time>
      </trkpt>
      <trkpt lat="40.7131430" lon="0.0716430">
        <ele>1222.8</ele>
        <time>2013-05-12T12:39:12Z</time>
      </trkpt>
      <trkpt lat="40.7132570" lon="0.0714670">
        <ele>1222.9</ele>
        <time>2013-05-12T12:39:18Z</time>
      </trkpt>
      <trkpt lat="40.7133610" lon="0.0714170">
        <ele>1222.3</ele>
        <time>2013-05-12T12:39:23Z</time>
      </trkpt>
      <trkpt lat="40.7133760" lon="0.0714210">
        <ele>1221.5</ele>
        <time>2013-05-12T12:39:26Z</time>
      </trkpt>
      <trkpt lat="40.7134330" lon="0.0715300">
        <ele>1221.1</ele>
        <time>2013-05-12T12:39:33Z</time>
      </trkpt>
      <trkpt lat="40.7134790" lon="0.0715580">
        <ele>1220.1</ele>
        <time>2013-05-12T12:39:36Z</time>
      </trkpt>
      <trkpt lat="40.7135460" lon="0.0715970">
        <ele>1218.6</ele>
        <time>2013-05-12T12:39:39Z</time>
      </trkpt>
      <trkpt lat="40.7135860" lon="0.0715740">
        <ele>1216.2</ele>
        <time>2013-05-12T12:39:43Z</time>
      </trkpt>
      <trkpt lat="40.7135500" lon="0.0715250">
        <ele>1215.4</ele>
        <time>2013-05-12T12:39:48Z</time>
      </trkpt>
      <trkpt lat="40.7135500" lon="0.0715240">
        <ele>1215.3</ele>
        <time>2013-05-12T12:39:49Z</time>
      </trkpt>
      <trkpt lat="40.7134750" lon="0.0714120">
        <ele>1214.7</ele>
        <time>2013-05-12T12:39:58Z</time>
      </trkpt>
      <trkpt lat="40.7134240" lon="0.0713490">
        <ele>1214.2</ele>
        <time>2013-05-12T12:40:01Z</time>
      </trkpt>
      <trkpt lat="40.7133010" lon="0.0712480">
        <ele>1212.0</ele>
        <time>2013-05-12T12:40:06Z</time>
      </trkpt>
      <trkpt lat="40.7131750" lon="0.0711990">
        <ele>1208.9</ele>
        <time>2013-05-12T12:40:11Z</time>
      </trkpt>
      <trkpt lat="40.7131010" lon="0.0711830">
        <ele>1206.7</ele>
        <time>2013-05-12T12:40:15Z</time>
      </trkpt>
      <trkpt lat="40.7129860" lon="0.0711950">
        <ele>1204.1</ele>
        <time>2013-05-12T12:40:19Z</time>
      </trkpt>
      <trkpt lat="40.7129040" lon="0.0711970">
        <ele>1201.2</ele>
        <time>2013-05-12T12:40:23Z</time>
      </trkpt>
      <trkpt lat="40.7128660" lon="0.0712060">
        <ele>1200.2</ele>
        <time>2013-05-12T12:40:25Z</time>
      </trkpt>
      <trkpt lat="40.7127670" lon="0.0712160">
        <ele>1197.0</ele>
        <time>2013-05-12T12:40:30Z</time>
      </trkpt>
      <trkpt lat="40.7127470" lon="0.0712240">
        <ele>1196.8</ele>
        <time>2013-05-12T12:40:31Z</time>
      </trkpt>
      <trkpt lat="40.7126080" lon="0.0711960">
        <ele>1194.7</ele>
        <time>2013-05-12T12:40:37Z</time>
      </trkpt>
      <trkpt lat="40.7125210" lon="0.0711670">
        <ele>1193.5</ele>
        <time>2013-05-12T12:40:41Z</time>
      </trkpt>
      <trkpt lat="40.7124900" lon="0.0711810">
        <ele>1192.2</ele>
        <time>2013-05-12T12:40:45Z</time>
      </trkpt>
      <trkpt lat="40.7125000" lon="0.0711940">
        <ele>1192.3</ele>
        <time>2013-05-12T12:40:48Z</time>
      </trkpt>
      <trkpt lat="40.7125470" lon="0.0712390">
        <ele>1192.6</ele>
        <time>2013-05-12T12:40:55Z</time>
      </trkpt>
      <trkpt lat="40.7126050" lon="0.0712740">
        <ele>1193.6</ele>
        <time>2013-05-12T12:41:02Z</time>
      </trkpt>
      <trkpt lat="40.7126170" lon="0.0712790">
        <ele>1193.7</ele>
        <time>2013-05-12T12:41:05Z</time>
      </trkpt>
      <trkpt lat="40.7126400" lon="0.0712820">
        <ele>1193.6</ele>
        <time>2013-05-12T12:41:33Z</time>
      </trkpt>
      <trkpt lat="40.7126560" lon="0.0712730">
        <ele>1193.3</ele>
        <time>2013-05-12T12:41:35Z</time>
      </trkpt>
      <trkpt lat="40.7126740" lon="0.0712640">
        <ele>1193.0</ele>
        <time>2013-05-12T12:41:36Z</time>
      </trkpt>
      <trkpt lat="40.7127400" lon="0.0712280">
        <ele>1192.1</ele>
        <time>2013-05-12T12:41:39Z</time>
      </trkpt>
      <trkpt lat="40.7128340" lon="0.0710920">
        <ele>1190.3</ele>
        <time>2013-05-12T12:41:45Z</time>
      </trkpt>
      <trkpt lat="40.7129030" lon="0.0710460">
        <ele>1188.2</ele>
        <time>2013-05-12T12:41:50Z</time>
      </trkpt>
      <trkpt lat="40.7129150" lon="0.0710300">
        <ele>1187.8</ele>
        <time>2013-05-12T12:41:51Z</time>
      </trkpt>
      <trkpt lat="40.7129100" lon="0.0709520">
        <ele>1185.9</ele>
        <time>2013-05-12T12:41:56Z</time>
      </trkpt>
      <trkpt lat="40.7129750" lon="0.0708910">
        <ele>1184.2</ele>
        <time>2013-05-12T12:42:01Z</time>
      </trkpt>
      <trkpt lat="40.7130090" lon="0.0708600">
        <ele>1183.2</ele>
        <time>2013-05-12T12:42:03Z</time>
      </trkpt>
      <trkpt lat="40.7131440" lon="0.0707440">
        <ele>1180.2</ele>
        <time>2013-05-12T12:42:10Z</time>
      </trkpt>
      <trkpt lat="40.7132110" lon="0.0706690">
        <ele>1178.0</ele>
        <time>2013-05-12T12:42:14Z</time>
      </trkpt>
      <trkpt lat="40.7132470" lon="0.0706100">
        <ele>1177.1</ele>
        <time>2013-05-12T12:42:16Z</time>
      </trkpt>
      <trkpt lat="40.7133470" lon="0.0705400">
        <ele>1175.2</ele>
        <time>2013-05-12T12:42:20Z</time>
      </trkpt>
      <trkpt lat="40.7133150" lon="0.0704880">
        <ele>1173.2</ele>
        <time>2013-05-12T12:42:24Z</time>
      </trkpt>
      <trkpt lat="40.7131770" lon="0.0705230">
        <ele>1170.8</ele>
        <time>2013-05-12T12:42:29Z</time>
      </trkpt>
      <trkpt lat="40.7131520" lon="0.0705410">
        <ele>1169.3</ele>
        <time>2013-05-12T12:42:34Z</time>
      </trkpt>
      <trkpt lat="40.7131830" lon="0.0704570">
        <ele>1167.9</ele>
        <time>2013-05-12T12:42:45Z</time>
      </trkpt>
      <trkpt lat="40.7132980" lon="0.0703700">
        <ele>1166.8</ele>
        <time>2013-05-12T12:42:50Z</time>
      </trkpt>
      <trkpt lat="40.7134290" lon="0.0703890">
        <ele>1166.5</ele>
        <time>2013-05-12T12:42:55Z</time>
      </trkpt>
      <trkpt lat="40.7135250" lon="0.0704800">
        <ele>1165.3</ele>
        <time>2013-05-12T12:42:59Z</time>
      </trkpt>
      <trkpt lat="40.7136010" lon="0.0705550">
        <ele>1162.5</ele>
        <time>2013-05-12T12:43:04Z</time>
      </trkpt>
      <trkpt lat="40.7136490" lon="0.0705890">
        <ele>1161.1</ele>
        <time>2013-05-12T12:43:07Z</time>
      </trkpt>
      <trkpt lat="40.7136950" lon="0.0706210">
        <ele>1159.9</ele>
        <time>2013-05-12T12:43:09Z</time>
      </trkpt>
      <trkpt lat="40.7137240" lon="0.0706420">
        <ele>1159.0</ele>
        <time>2013-05-12T12:43:11Z</time>
      </trkpt>
      <trkpt lat="40.7137270" lon="0.0706470">
        <ele>1158.1</ele>
        <time>2013-05-12T12:43:13Z</time>
      </trkpt>
      <trkpt lat="40.7137890" lon="0.0706590">
        <ele>1157.7</ele>
        <time>2013-05-12T12:43:51Z</time>
      </trkpt>
      <trkpt lat="40.7137950" lon="0.0706640">
        <ele>1157.5</ele>
        <time>2013-05-12T12:43:53Z</time>
      </trkpt>
      <trkpt lat="40.7139400" lon="0.0708240">
        <ele>1155.4</ele>
        <time>2013-05-12T12:44:04Z</time>
      </trkpt>
      <trkpt lat="40.7139890" lon="0.0708430">
        <ele>1155.1</ele>
        <time>2013-05-12T12:44:06Z</time>
      </trkpt>
      <trkpt lat="40.7140630" lon="0.0709330">
        <ele>1153.5</ele>
        <time>2013-05-12T12:44:11Z</time>
      </trkpt>
      <trkpt lat="40.7140990" lon="0.0709430">
        <ele>1152.2</ele>
        <time>2013-05-12T12:44:14Z</time>
      </trkpt>
      <trkpt lat="40.7142090" lon="0.0709700">
        <ele>1149.9</ele>
        <time>2013-05-12T12:44:19Z</time>
      </trkpt>
      <trkpt lat="40.7143840" lon="0.0709720">
        <ele>1146.3</ele>
        <time>2013-05-12T12:44:25Z</time>
      </trkpt>
      <trkpt lat="40.7146000" lon="0.0709960">
        <ele>1142.2</ele>
        <time>2013-05-12T12:44:31Z</time>
      </trkpt>
      <trkpt lat="40.7147560" lon="0.0710260">
        <ele>1140.1</ele>
        <time>2013-05-12T12:44:36Z</time>
      </trkpt>
      <trkpt lat="40.7148820" lon="0.0709790">
        <ele>1137.2</ele>
        <time>2013-05-12T12:44:41Z</time>
      </trkpt>
      <trkpt lat="40.7150080" lon="0.0709320">
        <ele>1133.3</ele>
        <time>2013-05-12T12:44:46Z</time>
      </trkpt>
      <trkpt lat="40.7151820" lon="0.0708740">
        <ele>1127.5</ele>
        <time>2013-05-12T12:44:52Z</time>
      </trkpt>
      <trkpt lat="40.7152100" lon="0.0708470">
        <ele>1125.2</ele>
        <time>2013-05-12T12:44:55Z</time>
      </trkpt>
      <trkpt lat="40.7152610" lon="0.0707980">
        <ele>1123.4</ele>
        <time>2013-05-12T12:44:59Z</time>
      </trkpt>
      <trkpt lat="40.7153180" lon="0.0707990">
        <ele>1122.6</ele>
        <time>2013-05-12T12:45:01Z</time>
      </trkpt>
      <trkpt lat="40.7153770" lon="0.0707820">
        <ele>1121.6</ele>
        <time>2013-05-12T12:45:05Z</time>
      </trkpt>
      <trkpt lat="40.7154560" lon="0.0707290">
        <ele>1120.5</ele>
        <time>2013-05-12T12:45:09Z</time>
      </trkpt>
      <trkpt lat="40.7155610" lon="0.0707250">
        <ele>1118.5</ele>
        <time>2013-05-12T12:45:14Z</time>
      </trkpt>
      <trkpt lat="40.7155850" lon="0.0707300">
        <ele>1117.9</ele>
        <time>2013-05-12T12:45:15Z</time>
      </trkpt>
      <trkpt lat="40.7156720" lon="0.0708210">
        <ele>1115.4</ele>
        <time>2013-05-12T12:45:19Z</time>
      </trkpt>
      <trkpt lat="40.7157320" lon="0.0707830">
        <ele>1113.7</ele>
        <time>2013-05-12T12:45:22Z</time>
      </trkpt>
      <trkpt lat="40.7158390" lon="0.0706760">
        <ele>1110.5</ele>
        <time>2013-05-12T12:45:26Z</time>
      </trkpt>
      <trkpt lat="40.7158730" lon="0.0705850">
        <ele>1108.2</ele>
        <time>2013-05-12T12:45:30Z</time>
      </trkpt>
      <trkpt lat="40.7158590" lon="0.0705270">
        <ele>1107.1</ele>
        <time>2013-05-12T12:45:33Z</time>
      </trkpt>
      <trkpt lat="40.7159460" lon="0.0704690">
        <ele>1105.5</ele>
        <time>2013-05-12T12:45:38Z</time>
      </trkpt>
      <trkpt lat="40.7159750" lon="0.0704550">
        <ele>1105.2</ele>
        <time>2013-05-12T12:45:39Z</time>
      </trkpt>
      <trkpt lat="40.7160780" lon="0.0704090">
        <ele>1104.1</ele>
        <time>2013-05-12T12:45:42Z</time>
      </trkpt>
      <trkpt lat="40.7161080" lon="0.0704130">
        <ele>1103.7</ele>
        <time>2013-05-12T12:45:43Z</time>
      </trkpt>
      <trkpt lat="40.7162050" lon="0.0703880">
        <ele>1102.7</ele>
        <time>2013-05-12T12:45:46Z</time>
      </trkpt>
      <trkpt lat="40.7163010" lon="0.0703120">
        <ele>1101.6</ele>
        <time>2013-05-12T12:45:50Z</time>
      </trkpt>
      <trkpt lat="40.7163750" lon="0.0703280">
        <ele>1101.1</ele>
        <time>2013-05-12T12:45:53Z</time>
      </trkpt>
      <trkpt lat="40.7164830" lon="0.0703140">
        <ele>1101.4</ele>
        <time>2013-05-12T12:45:56Z</time>
      </trkpt>
      <trkpt lat="40.7166970" lon="0.0704110">
        <ele>1101.7</ele>
        <time>2013-05-12T12:46:02Z</time>
      </trkpt>
      <trkpt lat="40.7167680" lon="0.0705000">
        <ele>1101.0</ele>
        <time>2013-05-12T12:46:06Z</time>
      </trkpt>
      <trkpt lat="40.7168070" lon="0.0705550">
        <ele>1099.9</ele>
        <time>2013-05-12T12:46:10Z</time>
      </trkpt>
      <trkpt lat="40.7168430" lon="0.0705780">
        <ele>1100.4</ele>
        <time>2013-05-12T12:46:16Z</time>
      </trkpt>
      <trkpt lat="40.7168620" lon="0.0705690">
        <ele>1100.6</ele>
        <time>2013-05-12T12:46:20Z</time>
      </trkpt>
      <trkpt lat="40.7169210" lon="0.0705620">
        <ele>1100.4</ele>
        <time>2013-05-12T12:46:26Z</time>
      </trkpt>
      <trkpt lat="40.7169340" lon="0.0705670">
        <ele>1100.3</ele>
        <time>2013-05-12T12:46:29Z</time>
      </trkpt>
      <trkpt lat="40.7169800" lon="0.0705740">
        <ele>1100.2</ele>
        <time>2013-05-12T12:46:40Z</time>
      </trkpt>
      <trkpt lat="40.7169940" lon="0.0705820">
        <ele>1100.1</ele>
        <time>2013-05-12T12:46:41Z</time>
      </trkpt>
      <trkpt lat="40.7170830" lon="0.0706190">
        <ele>1099.9</ele>
        <time>2013-05-12T12:46:45Z</time>
      </trkpt>
      <trkpt lat="40.7171510" lon="0.0705930">
        <ele>1100.4</ele>
        <time>2013-05-12T12:46:50Z</time>
      </trkpt>
      <trkpt lat="40.7172370" lon="0.0705590">
        <ele>1101.2</ele>
        <time>2013-05-12T12:46:54Z</time>
      </trkpt>
      <trkpt lat="40.7173710" lon="0.0705750">
        <ele>1102.2</ele>
        <time>2013-05-12T12:46:58Z</time>
      </trkpt>
      <trkpt lat="40.7174210" lon="0.0705230">
        <ele>1102.8</ele>
        <time>2013-05-12T12:47:02Z</time>
      </trkpt>
      <trkpt lat="40.7174710" lon="0.0704510">
        <ele>1104.0</ele>
        <time>2013-05-12T12:47:05Z</time>
      </trkpt>
      <trkpt lat="40.7175920" lon="0.0703330">
        <ele>1104.9</ele>
        <time>2013-05-12T12:47:10Z</time>
      </trkpt>
      <trkpt lat="40.7177560" lon="0.0702100">
        <ele>1104.4</ele>
        <time>2013-05-12T12:47:15Z</time>
      </trkpt>
      <trkpt lat="40.7178020" lon="0.0701760">
        <ele>1104.5</ele>
        <time>2013-05-12T12:47:17Z</time>
      </trkpt>
      <trkpt lat="40.7179690" lon="0.0700410">
        <ele>1105.0</ele>
        <time>2013-05-12T12:47:24Z</time>
      </trkpt>
      <trkpt lat="40.7179830" lon="0.0700430">
        <ele>1104.9</ele>
        <time>2013-05-12T12:47:26Z</time>
      </trkpt>
      <trkpt lat="40.7180170" lon="0.0700530">
        <ele>1104.5</ele>
        <time>2013-05-12T12:47:32Z</time>
      </trkpt>
      <trkpt lat="40.7180410" lon="0.0700340">
        <ele>1104.0</ele>
        <time>2013-05-12T12:47:38Z</time>
      </trkpt>
      <trkpt lat="40.7180470" lon="0.0700080">
        <ele>1104.3</ele>
        <time>2013-05-12T12:47:41Z</time>
      </trkpt>
      <trkpt lat="40.7180550" lon="0.0699780">
        <ele>1105.2</ele>
        <time>2013-05-12T12:47:45Z</time>
      </trkpt>
      <trkpt lat="40.7180770" lon="0.0699630">
        <ele>1105.5</ele>
        <time>2013-05-12T12:47:51Z</time>
      </trkpt>
      <trkpt lat="40.7180830" lon="0.0699600">
        <ele>1105.6</ele>
        <time>2013-05-12T12:47:52Z</time>
      </trkpt>
      <trkpt lat="40.7182100" lon="0.0699470">
        <ele>1105.7</ele>
        <time>2013-05-12T12:47:57Z</time>
      </trkpt>
      <trkpt lat="40.7183200" lon="0.0699870">
        <ele>1105.2</ele>
        <time>2013-05-12T12:48:00Z</time>
      </trkpt>
      <trkpt lat="40.7184380" lon="0.0699540">
        <ele>1104.6</ele>
        <time>2013-05-12T12:48:04Z</time>
      </trkpt>
      <trkpt lat="40.7184580" lon="0.0699410">
        <ele>1105.1</ele>
        <time>2013-05-12T12:48:07Z</time>
      </trkpt>
      <trkpt lat="40.7185340" lon="0.0699190">
        <ele>1105.6</ele>
        <time>2013-05-12T12:48:14Z</time>
      </trkpt>
      <trkpt lat="40.7186430" lon="0.0698990">
        <ele>1106.2</ele>
        <time>2013-05-12T12:48:19Z</time>
      </trkpt>
      <trkpt lat="40.7187810" lon="0.0698190">
        <ele>1107.3</ele>
        <time>2013-05-12T12:48:23Z</time>
      </trkpt>
      <trkpt lat="40.7188710" lon="0.0696670">
        <ele>1108.7</ele>
        <time>2013-05-12T12:48:28Z</time>
      </trkpt>
      <trkpt lat="40.7189700" lon="0.0695390">
        <ele>1109.9</ele>
        <time>2013-05-12T12:48:33Z</time>
      </trkpt>
      <trkpt lat="40.7190320" lon="0.0694380">
        <ele>1110.5</ele>
        <time>2013-05-12T12:48:37Z</time>
      </trkpt>
      <trkpt lat="40.7190850" lon="0.0693400">
        <ele>1110.0</ele>
        <time>2013-05-12T12:48:41Z</time>
      </trkpt>
      <trkpt lat="40.7191800" lon="0.0692190">
        <ele>1108.6</ele>
        <time>2013-05-12T12:48:46Z</time>
      </trkpt>
      <trkpt lat="40.7192220" lon="0.0691540">
        <ele>1107.4</ele>
        <time>2013-05-12T12:48:48Z</time>
      </trkpt>
      <trkpt lat="40.7193920" lon="0.0689510">
        <ele>1103.7</ele>
        <time>2013-05-12T12:48:53Z</time>
      </trkpt>
      <trkpt lat="40.7196040" lon="0.0687590">
        <ele>1102.4</ele>
        <time>2013-05-12T12:48:59Z</time>
      </trkpt>
      <trkpt lat="40.7196240" lon="0.0687290">
        <ele>1102.4</ele>
        <time>2013-05-12T12:49:00Z</time>
      </trkpt>
      <trkpt lat="40.7196650" lon="0.0686260">
        <ele>1102.2</ele>
        <time>2013-05-12T12:49:03Z</time>
      </trkpt>
      <trkpt lat="40.7196760" lon="0.0685850">
        <ele>1102.1</ele>
        <time>2013-05-12T12:49:04Z</time>
      </trkpt>
      <trkpt lat="40.7196780" lon="0.0685020">
        <ele>1101.7</ele>
        <time>2013-05-12T12:49:06Z</time>
      </trkpt>
      <trkpt lat="40.7196980" lon="0.0683220">
        <ele>1100.6</ele>
        <time>2013-05-12T12:49:10Z</time>
      </trkpt>
      <trkpt lat="40.7196580" lon="0.0681240">
        <ele>1099.9</ele>
        <time>2013-05-12T12:49:15Z</time>
      </trkpt>
      <trkpt lat="40.7196550" lon="0.0680860">
        <ele>1099.9</ele>
        <time>2013-05-12T12:49:16Z</time>
      </trkpt>
      <trkpt lat="40.7196190" lon="0.0678200">
        <ele>1099.5</ele>
        <time>2013-05-12T12:49:21Z</time>
      </trkpt>
      <trkpt lat="40.7196390" lon="0.0673760">
        <ele>1095.8</ele>
        <time>2013-05-12T12:49:27Z</time>
      </trkpt>
      <trkpt lat="40.7196550" lon="0.0670770">
        <ele>1093.6</ele>
        <time>2013-05-12T12:49:31Z</time>
      </trkpt>
      <trkpt lat="40.7196420" lon="0.0668860">
        <ele>1093.0</ele>
        <time>2013-05-12T12:49:34Z</time>
      </trkpt>
      <trkpt lat="40.7195720" lon="0.0665460">
        <ele>1092.4</ele>
        <time>2013-05-12T12:49:39Z</time>
      </trkpt>
      <trkpt lat="40.7195060" lon="0.0663230">
        <ele>1091.5</ele>
        <time>2013-05-12T12:49:42Z</time>
      </trkpt>
      <trkpt lat="40.7193860" lon="0.0660050">
        <ele>1090.8</ele>
        <time>2013-05-12T12:49:47Z</time>
      </trkpt>
      <trkpt lat="40.7192500" lon="0.0657310">
        <ele>1089.8</ele>
        <time>2013-05-12T12:49:51Z</time>
      </trkpt>
      <trkpt lat="40.7192380" lon="0.0656060">
        <ele>1089.6</ele>
        <time>2013-05-12T12:49:53Z</time>
      </trkpt>
      <trkpt lat="40.7192280" lon="0.0654280">
        <ele>1088.6</ele>
        <time>2013-05-12T12:49:57Z</time>
      </trkpt>
      <trkpt lat="40.7192160" lon="0.0653890">
        <ele>1088.4</ele>
        <time>2013-05-12T12:49:58Z</time>
      </trkpt>
      <trkpt lat="40.7190760" lon="0.0652510">
        <ele>1085.9</ele>
        <time>2013-05-12T12:50:02Z</time>
      </trkpt>
      <trkpt lat="40.7189620" lon="0.0653090">
        <ele>1084.6</ele>
        <time>2013-05-12T12:50:05Z</time>
      </trkpt>
      <trkpt lat="40.7188850" lon="0.0655310">
        <ele>1083.6</ele>
        <time>2013-05-12T12:50:10Z</time>
      </trkpt>
      <trkpt lat="40.7188590" lon="0.0658270">
        <ele>1081.7</ele>
        <time>2013-05-12T12:50:17Z</time>
      </trkpt>
      <trkpt lat="40.7188670" lon="0.0659590">
        <ele>1078.6</ele>
        <time>2013-05-12T12:50:22Z</time>
      </trkpt>
      <trkpt lat="40.7188670" lon="0.0659600">
        <ele>1078.4</ele>
        <time>2013-05-12T12:50:23Z</time>
      </trkpt>
      <trkpt lat="40.7188930" lon="0.0659730">
        <ele>1077.7</ele>
        <time>2013-05-12T12:51:10Z</time>
      </trkpt>
      <trkpt lat="40.7188820" lon="0.0658370">
        <ele>1079.2</ele>
        <time>2013-05-12T12:51:19Z</time>
      </trkpt>
      <trkpt lat="40.7188820" lon="0.0657550">
        <ele>1080.4</ele>
        <time>2013-05-12T12:51:22Z</time>
      </trkpt>
      <trkpt lat="40.7188810" lon="0.0656950">
        <ele>1081.4</ele>
        <time>2013-05-12T12:51:24Z</time>
      </trkpt>
      <trkpt lat="40.7188840" lon="0.0656660">
        <ele>1081.6</ele>
        <time>2013-05-12T12:51:25Z</time>
      </trkpt>
      <trkpt lat="40.7188920" lon="0.0656090">
        <ele>1082.5</ele>
        <time>2013-05-12T12:51:27Z</time>
      </trkpt>
      <trkpt lat="40.7188980" lon="0.0655530">
        <ele>1082.7</ele>
        <time>2013-05-12T12:51:29Z</time>
      </trkpt>
      <trkpt lat="40.7189030" lon="0.0655220">
        <ele>1082.7</ele>
        <time>2013-05-12T12:51:30Z</time>
      </trkpt>
      <trkpt lat="40.7189190" lon="0.0654610">
        <ele>1082.8</ele>
        <time>2013-05-12T12:51:32Z</time>
      </trkpt>
      <trkpt lat="40.7189940" lon="0.0653050">
        <ele>1083.6</ele>
        <time>2013-05-12T12:51:39Z</time>
      </trkpt>
      <trkpt lat="40.7191090" lon="0.0652740">
        <ele>1083.8</ele>
        <time>2013-05-12T12:51:45Z</time>
      </trkpt>
      <trkpt lat="40.7192150" lon="0.0653630">
        <ele>1085.3</ele>
        <time>2013-05-12T12:51:51Z</time>
      </trkpt>
      <trkpt lat="40.7192520" lon="0.0655590">
        <ele>1087.6</ele>
        <time>2013-05-12T12:51:58Z</time>
      </trkpt>
      <trkpt lat="40.7192460" lon="0.0656970">
        <ele>1088.0</ele>
        <time>2013-05-12T12:52:02Z</time>
      </trkpt>
      <trkpt lat="40.7192990" lon="0.0658780">
        <ele>1088.3</ele>
        <time>2013-05-12T12:52:07Z</time>
      </trkpt>
      <trkpt lat="40.7193920" lon="0.0660560">
        <ele>1088.7</ele>
        <time>2013-05-12T12:52:12Z</time>
      </trkpt>
      <trkpt lat="40.7194540" lon="0.0661830">
        <ele>1089.8</ele>
        <time>2013-05-12T12:52:17Z</time>
      </trkpt>
      <trkpt lat="40.7195350" lon="0.0664250">
        <ele>1090.9</ele>
        <time>2013-05-12T12:52:24Z</time>
      </trkpt>
      <trkpt lat="40.7195990" lon="0.0667030">
        <ele>1091.2</ele>
        <time>2013-05-12T12:52:30Z</time>
      </trkpt>
      <trkpt lat="40.7196490" lon="0.0669380">
        <ele>1091.4</ele>
        <time>2013-05-12T12:52:36Z</time>
      </trkpt>
      <trkpt lat="40.7196710" lon="0.0672590">
        <ele>1092.6</ele>
        <time>2013-05-12T12:52:43Z</time>
      </trkpt>
      <trkpt lat="40.7196640" lon="0.0673810">
        <ele>1092.8</ele>
        <time>2013-05-12T12:52:47Z</time>
      </trkpt>
      <trkpt lat="40.7196460" lon="0.0675820">
        <ele>1094.1</ele>
        <time>2013-05-12T12:52:54Z</time>
      </trkpt>
      <trkpt lat="40.7196230" lon="0.0677900">
        <ele>1097.0</ele>
        <time>2013-05-12T12:53:02Z</time>
      </trkpt>
      <trkpt lat="40.7196410" lon="0.0680010">
        <ele>1098.6</ele>
        <time>2013-05-12T12:53:09Z</time>
      </trkpt>
      <trkpt lat="40.7196790" lon="0.0682850">
        <ele>1099.8</ele>
        <time>2013-05-12T12:53:17Z</time>
      </trkpt>
      <trkpt lat="40.7197040" lon="0.0684110">
        <ele>1099.6</ele>
        <time>2013-05-12T12:53:21Z</time>
      </trkpt>
      <trkpt lat="40.7197120" lon="0.0683770">
        <ele>1099.8</ele>
        <time>2013-05-12T12:53:25Z</time>
      </trkpt>
      <trkpt lat="40.7196920" lon="0.0682650">
        <ele>1099.8</ele>
        <time>2013-05-12T12:53:29Z</time>
      </trkpt>
      <trkpt lat="40.7197680" lon="0.0680950">
        <ele>1101.0</ele>
        <time>2013-05-12T12:53:35Z</time>
      </trkpt>
      <trkpt lat="40.7198400" lon="0.0678540">
        <ele>1102.3</ele>
        <time>2013-05-12T12:53:43Z</time>
      </trkpt>
      <trkpt lat="40.7198880" lon="0.0676770">
        <ele>1103.5</ele>
        <time>2013-05-12T12:53:49Z</time>
      </trkpt>
      <trkpt lat="40.7199600" lon="0.0674520">
        <ele>1105.7</ele>
        <time>2013-05-12T12:53:56Z</time>
      </trkpt>
      <trkpt lat="40.7200080" lon="0.0673170">
        <ele>1107.7</ele>
        <time>2013-05-12T12:54:01Z</time>
      </trkpt>
      <trkpt lat="40.7200400" lon="0.0672030">
        <ele>1109.3</ele>
        <time>2013-05-12T12:54:06Z</time>
      </trkpt>
      <trkpt lat="40.7200970" lon="0.0669980">
        <ele>1110.8</ele>
        <time>2013-05-12T12:54:13Z</time>
      </trkpt>
      <trkpt lat="40.7201590" lon="0.0668220">
        <ele>1110.7</ele>
        <time>2013-05-12T12:54:18Z</time>
      </trkpt>
      <trkpt lat="40.7202150" lon="0.0667290">
        <ele>1111.9</ele>
        <time>2013-05-12T12:54:22Z</time>
      </trkpt>
      <trkpt lat="40.7202230" lon="0.0666530">
        <ele>1112.9</ele>
        <time>2013-05-12T12:54:25Z</time>
      </trkpt>
      <trkpt lat="40.7202670" lon="0.0665090">
        <ele>1114.6</ele>
        <time>2013-05-12T12:54:31Z</time>
      </trkpt>
      <trkpt lat="40.7202820" lon="0.0664420">
        <ele>1114.9</ele>
        <time>2013-05-12T12:54:34Z</time>
      </trkpt>
      <trkpt lat="40.7204050" lon="0.0662840">
        <ele>1115.1</ele>
        <time>2013-05-12T12:54:43Z</time>
      </trkpt>
      <trkpt lat="40.7205080" lon="0.0661970">
        <ele>1116.6</ele>
        <time>2013-05-12T12:54:49Z</time>
      </trkpt>
      <trkpt lat="40.7206500" lon="0.0661320">
        <ele>1116.4</ele>
        <time>2013-05-12T12:54:54Z</time>
      </trkpt>
      <trkpt lat="40.7207470" lon="0.0660310">
        <ele>1115.9</ele>
        <time>2013-05-12T12:54:58Z</time>
      </trkpt>
      <trkpt lat="40.7208590" lon="0.0659310">
        <ele>1115.5</ele>
        <time>2013-05-12T12:55:03Z</time>
      </trkpt>
      <trkpt lat="40.7209260" lon="0.0658900">
        <ele>1114.4</ele>
        <time>2013-05-12T12:55:07Z</time>
      </trkpt>
      <trkpt lat="40.7209940" lon="0.0658640">
        <ele>1113.7</ele>
        <time>2013-05-12T12:55:10Z</time>
      </trkpt>
      <trkpt lat="40.7211520" lon="0.0658170">
        <ele>1113.7</ele>
        <time>2013-05-12T12:55:16Z</time>
      </trkpt>
      <trkpt lat="40.7211790" lon="0.0658040">
        <ele>1113.8</ele>
        <time>2013-05-12T12:55:17Z</time>
      </trkpt>
      <trkpt lat="40.7212710" lon="0.0655890">
        <ele>1114.4</ele>
        <time>2013-05-12T12:55:24Z</time>
      </trkpt>
      <trkpt lat="40.7213420" lon="0.0654340">
        <ele>1115.8</ele>
        <time>2013-05-12T12:55:30Z</time>
      </trkpt>
      <trkpt lat="40.7213760" lon="0.0653480">
        <ele>1116.9</ele>
        <time>2013-05-12T12:55:34Z</time>
      </trkpt>
      <trkpt lat="40.7214180" lon="0.0652320">
        <ele>1117.7</ele>
        <time>2013-05-12T12:55:40Z</time>
      </trkpt>
      <trkpt lat="40.7214350" lon="0.0650960">
        <ele>1118.6</ele>
        <time>2013-05-12T12:55:45Z</time>
      </trkpt>
      <trkpt lat="40.7214550" lon="0.0649440">
        <ele>1119.6</ele>
        <time>2013-05-12T12:55:50Z</time>
      </trkpt>
      <trkpt lat="40.7214800" lon="0.0648150">
        <ele>1120.6</ele>
        <time>2013-05-12T12:55:55Z</time>
      </trkpt>
      <trkpt lat="40.7214960" lon="0.0646590">
        <ele>1122.4</ele>
        <time>2013-05-12T12:56:01Z</time>
      </trkpt>
      <trkpt lat="40.7215030" lon="0.0646450">
        <ele>1123.0</ele>
        <time>2013-05-12T12:56:03Z</time>
      </trkpt>
      <trkpt lat="40.7215490" lon="0.0645310">
        <ele>1123.8</ele>
        <time>2013-05-12T12:56:09Z</time>
      </trkpt>
      <trkpt lat="40.7215570" lon="0.0645070">
        <ele>1124.0</ele>
        <time>2013-05-12T12:56:10Z</time>
      </trkpt>
      <trkpt lat="40.7215840" lon="0.0644320">
        <ele>1124.8</ele>
        <time>2013-05-12T12:56:14Z</time>
      </trkpt>
      <trkpt lat="40.7216170" lon="0.0644110">
        <ele>1126.0</ele>
        <time>2013-05-12T12:56:19Z</time>
      </trkpt>
      <trkpt lat="40.7216060" lon="0.0643320">
        <ele>1127.0</ele>
        <time>2013-05-12T12:56:36Z</time>
      </trkpt>
      <trkpt lat="40.7216090" lon="0.0643300">
        <ele>1127.1</ele>
        <time>2013-05-12T12:56:37Z</time>
      </trkpt>
      <trkpt lat="40.7216090" lon="0.0643290">
        <ele>1127.0</ele>
        <time>2013-05-12T12:56:38Z</time>
      </trkpt>
      <trkpt lat="40.7216480" lon="0.0642700">
        <ele>1127.4</ele>
        <time>2013-05-12T12:56:46Z</time>
      </trkpt>
      <trkpt lat="40.7217290" lon="0.0641930">
        <ele>1128.2</ele>
        <time>2013-05-12T12:56:51Z</time>
      </trkpt>
      <trkpt lat="40.7218340" lon="0.0641310">
        <ele>1128.5</ele>
        <time>2013-05-12T12:56:57Z</time>
      </trkpt>
      <trkpt lat="40.7219580" lon="0.0640720">
        <ele>1129.6</ele>
        <time>2013-05-12T12:57:04Z</time>
      </trkpt>
      <trkpt lat="40.7221280" lon="0.0640620">
        <ele>1131.2</ele>
        <time>2013-05-12T12:57:11Z</time>
      </trkpt>
      <trkpt lat="40.7222410" lon="0.0640240">
        <ele>1132.4</ele>
        <time>2013-05-12T12:57:15Z</time>
      </trkpt>
      <trkpt lat="40.7222910" lon="0.0640030">
        <ele>1132.9</ele>
        <time>2013-05-12T12:57:17Z</time>
      </trkpt>
      <trkpt lat="40.7223740" lon="0.0640390">
        <ele>1133.6</ele>
        <time>2013-05-12T12:57:21Z</time>
      </trkpt>
      <trkpt lat="40.7225660" lon="0.0640390">
        <ele>1134.3</ele>
        <time>2013-05-12T12:57:28Z</time>
      </trkpt>
      <trkpt lat="40.7227330" lon="0.0639920">
        <ele>1135.1</ele>
        <time>2013-05-12T12:57:34Z</time>
      </trkpt>
      <trkpt lat="40.7227720" lon="0.0639980">
        <ele>1135.1</ele>
        <time>2013-05-12T12:57:35Z</time>
      </trkpt>
      <trkpt lat="40.7229840" lon="0.0640060">
        <ele>1134.2</ele>
        <time>2013-05-12T12:57:40Z</time>
      </trkpt>
      <trkpt lat="40.7231900" lon="0.0639830">
        <ele>1132.6</ele>
        <time>2013-05-12T12:57:45Z</time>
      </trkpt>
      <trkpt lat="40.7232690" lon="0.0639610">
        <ele>1131.7</ele>
        <time>2013-05-12T12:57:48Z</time>
      </trkpt>
      <trkpt lat="40.7234240" lon="0.0639370">
        <ele>1132.2</ele>
        <time>2013-05-12T12:57:54Z</time>
      </trkpt>
      <trkpt lat="40.7236100" lon="0.0639190">
        <ele>1132.6</ele>
        <time>2013-05-12T12:58:00Z</time>
      </trkpt>
      <trkpt lat="40.7237970" lon="0.0638590">
        <ele>1133.5</ele>
        <time>2013-05-12T12:58:06Z</time>
      </trkpt>
      <trkpt lat="40.7239680" lon="0.0637360">
        <ele>1134.0</ele>
        <time>2013-05-12T12:58:11Z</time>
      </trkpt>
      <trkpt lat="40.7240870" lon="0.0636280">
        <ele>1135.2</ele>
        <time>2013-05-12T12:58:15Z</time>
      </trkpt>
      <trkpt lat="40.7242400" lon="0.0635030">
        <ele>1135.4</ele>
        <time>2013-05-12T12:58:20Z</time>
      </trkpt>
      <trkpt lat="40.7243510" lon="0.0634250">
        <ele>1134.2</ele>
        <time>2013-05-12T12:58:23Z</time>
      </trkpt>
      <trkpt lat="40.7244200" lon="0.0633530">
        <ele>1133.4</ele>
        <time>2013-05-12T12:58:25Z</time>
      </trkpt>
      <trkpt lat="40.7244930" lon="0.0632890">
        <ele>1132.9</ele>
        <time>2013-05-12T12:58:27Z</time>
      </trkpt>
      <trkpt lat="40.7245870" lon="0.0632380">
        <ele>1132.8</ele>
        <time>2013-05-12T12:58:29Z</time>
      </trkpt>
      <trkpt lat="40.7248570" lon="0.0631170">
        <ele>1130.8</ele>
        <time>2013-05-12T12:58:35Z</time>
      </trkpt>
      <trkpt lat="40.7248930" lon="0.0631010">
        <ele>1130.6</ele>
        <time>2013-05-12T12:58:36Z</time>
      </trkpt>
      <trkpt lat="40.7249760" lon="0.0630440">
        <ele>1129.5</ele>
        <time>2013-05-12T12:58:38Z</time>
      </trkpt>
      <trkpt lat="40.7250600" lon="0.0629700">
        <ele>1128.5</ele>
        <time>2013-05-12T12:58:40Z</time>
      </trkpt>
      <trkpt lat="40.7252720" lon="0.0628500">
        <ele>1127.5</ele>
        <time>2013-05-12T12:58:44Z</time>
      </trkpt>
      <trkpt lat="40.7255970" lon="0.0627220">
        <ele>1126.6</ele>
        <time>2013-05-12T12:58:49Z</time>
      </trkpt>
      <trkpt lat="40.7258180" lon="0.0627410">
        <ele>1128.4</ele>
        <time>2013-05-12T12:58:54Z</time>
      </trkpt>
      <trkpt lat="40.7259640" lon="0.0628250">
        <ele>1129.5</ele>
        <time>2013-05-12T12:58:59Z</time>
      </trkpt>
      <trkpt lat="40.7260910" lon="0.0629560">
        <ele>1130.4</ele>
        <time>2013-05-12T12:59:04Z</time>
      </trkpt>
      <trkpt lat="40.7261790" lon="0.0631280">
        <ele>1131.6</ele>
        <time>2013-05-12T12:59:09Z</time>
      </trkpt>
      <trkpt lat="40.7262620" lon="0.0633670">
        <ele>1132.2</ele>
        <time>2013-05-12T12:59:16Z</time>
      </trkpt>
      <trkpt lat="40.7263050" lon="0.0636030">
        <ele>1132.3</ele>
        <time>2013-05-12T12:59:22Z</time>
      </trkpt>
      <trkpt lat="40.7263520" lon="0.0638540">
        <ele>1132.6</ele>
        <time>2013-05-12T12:59:28Z</time>
      </trkpt>
      <trkpt lat="40.7264160" lon="0.0641030">
        <ele>1132.1</ele>
        <time>2013-05-12T12:59:34Z</time>
      </trkpt>
      <trkpt lat="40.7265650" lon="0.0642850">
        <ele>1133.5</ele>
        <time>2013-05-12T12:59:40Z</time>
      </trkpt>
      <trkpt lat="40.7266970" lon="0.0644060">
        <ele>1135.0</ele>
        <time>2013-05-12T12:59:45Z</time>
      </trkpt>
      <trkpt lat="40.7268360" lon="0.0644710">
        <ele>1136.1</ele>
        <time>2013-05-12T12:59:50Z</time>
      </trkpt>
      <trkpt lat="40.7270020" lon="0.0645630">
        <ele>1136.9</ele>
        <time>2013-05-12T12:59:56Z</time>
      </trkpt>
      <trkpt lat="40.7271100" lon="0.0645730">
        <ele>1137.6</ele>
        <time>2013-05-12T13:00:01Z</time>
      </trkpt>
      <trkpt lat="40.7272410" lon="0.0646060">
        <ele>1138.4</ele>
        <time>2013-05-12T13:00:06Z</time>
      </trkpt>
      <trkpt lat="40.7273450" lon="0.0647410">
        <ele>1138.0</ele>
        <time>2013-05-12T13:00:10Z</time>
      </trkpt>
      <trkpt lat="40.7274620" lon="0.0648190">
        <ele>1137.2</ele>
        <time>2013-05-12T13:00:14Z</time>
      </trkpt>
      <trkpt lat="40.7276150" lon="0.0649000">
        <ele>1137.4</ele>
        <time>2013-05-12T13:00:19Z</time>
      </trkpt>
      <trkpt lat="40.7277500" lon="0.0650050">
        <ele>1137.2</ele>
        <time>2013-05-12T13:00:24Z</time>
      </trkpt>
      <trkpt lat="40.7278850" lon="0.0650700">
        <ele>1135.8</ele>
        <time>2013-05-12T13:00:28Z</time>
      </trkpt>
      <trkpt lat="40.7281140" lon="0.0650940">
        <ele>1135.2</ele>
        <time>2013-05-12T13:00:34Z</time>
      </trkpt>
      <trkpt lat="40.7283030" lon="0.0650590">
        <ele>1135.5</ele>
        <time>2013-05-12T13:00:39Z</time>
      </trkpt>
      <trkpt lat="40.7284540" lon="0.0650590">
        <ele>1136.1</ele>
        <time>2013-05-12T13:00:43Z</time>
      </trkpt>
      <trkpt lat="40.7286370" lon="0.0649790">
        <ele>1137.8</ele>
        <time>2013-05-12T13:00:49Z</time>
      </trkpt>
      <trkpt lat="40.7287660" lon="0.0649060">
        <ele>1139.8</ele>
        <time>2013-05-12T13:00:54Z</time>
      </trkpt>
      <trkpt lat="40.7288770" lon="0.0648640">
        <ele>1140.8</ele>
        <time>2013-05-12T13:00:58Z</time>
      </trkpt>
      <trkpt lat="40.7288880" lon="0.0648540">
        <ele>1141.0</ele>
        <time>2013-05-12T13:00:59Z</time>
      </trkpt>
      <trkpt lat="40.7289940" lon="0.0648030">
        <ele>1141.8</ele>
        <time>2013-05-12T13:01:04Z</time>
      </trkpt>
      <trkpt lat="40.7291120" lon="0.0646750">
        <ele>1142.7</ele>
        <time>2013-05-12T13:01:09Z</time>
      </trkpt>
      <trkpt lat="40.7291880" lon="0.0645100">
        <ele>1141.6</ele>
        <time>2013-05-12T13:01:13Z</time>
      </trkpt>
      <trkpt lat="40.7293550" lon="0.0641780">
        <ele>1138.3</ele>
        <time>2013-05-12T13:01:19Z</time>
      </trkpt>
      <trkpt lat="40.7294440" lon="0.0640230">
        <ele>1136.0</ele>
        <time>2013-05-12T13:01:22Z</time>
      </trkpt>
      <trkpt lat="40.7295180" lon="0.0637430">
        <ele>1132.4</ele>
        <time>2013-05-12T13:01:26Z</time>
      </trkpt>
      <trkpt lat="40.7295280" lon="0.0636730">
        <ele>1132.2</ele>
        <time>2013-05-12T13:01:27Z</time>
      </trkpt>
      <trkpt lat="40.7295630" lon="0.0635400">
        <ele>1131.6</ele>
        <time>2013-05-12T13:01:29Z</time>
      </trkpt>
      <trkpt lat="40.7295960" lon="0.0634190">
        <ele>1131.2</ele>
        <time>2013-05-12T13:01:31Z</time>
      </trkpt>
      <trkpt lat="40.7297360" lon="0.0631730">
        <ele>1129.6</ele>
        <time>2013-05-12T13:01:36Z</time>
      </trkpt>
      <trkpt lat="40.7298940" lon="0.0628820">
        <ele>1128.4</ele>
        <time>2013-05-12T13:01:42Z</time>
      </trkpt>
      <trkpt lat="40.7300880" lon="0.0629310">
        <ele>1128.0</ele>
        <time>2013-05-12T13:01:46Z</time>
      </trkpt>
      <trkpt lat="40.7302350" lon="0.0630500">
        <ele>1126.6</ele>
        <time>2013-05-12T13:01:50Z</time>
      </trkpt>
      <trkpt lat="40.7303260" lon="0.0630970">
        <ele>1125.9</ele>
        <time>2013-05-12T13:01:53Z</time>
      </trkpt>
      <trkpt lat="40.7305030" lon="0.0632770">
        <ele>1126.8</ele>
        <time>2013-05-12T13:02:00Z</time>
      </trkpt>
      <trkpt lat="40.7306370" lon="0.0634480">
        <ele>1125.8</ele>
        <time>2013-05-12T13:02:05Z</time>
      </trkpt>
      <trkpt lat="40.7307930" lon="0.0635880">
        <ele>1124.0</ele>
        <time>2013-05-12T13:02:11Z</time>
      </trkpt>
      <trkpt lat="40.7308940" lon="0.0636010">
        <ele>1124.5</ele>
        <time>2013-05-12T13:02:15Z</time>
      </trkpt>
      <trkpt lat="40.7309380" lon="0.0636080">
        <ele>1125.2</ele>
        <time>2013-05-12T13:02:19Z</time>
      </trkpt>
      <trkpt lat="40.7309420" lon="0.0636010">
        <ele>1125.2</ele>
        <time>2013-05-12T13:02:20Z</time>
      </trkpt>
      <trkpt lat="40.7310140" lon="0.0635400">
        <ele>1125.4</ele>
        <time>2013-05-12T13:02:25Z</time>
      </trkpt>
      <trkpt lat="40.7311430" lon="0.0633820">
        <ele>1124.3</ele>
        <time>2013-05-12T13:02:30Z</time>
      </trkpt>
      <trkpt lat="40.7312040" lon="0.0633300">
        <ele>1123.2</ele>
        <time>2013-05-12T13:02:33Z</time>
      </trkpt>
      <trkpt lat="40.7312660" lon="0.0632760">
        <ele>1122.3</ele>
        <time>2013-05-12T13:02:37Z</time>
      </trkpt>
      <trkpt lat="40.7314040" lon="0.0632520">
        <ele>1121.8</ele>
        <time>2013-05-12T13:02:42Z</time>
      </trkpt>
      <trkpt lat="40.7316840" lon="0.0632900">
        <ele>1121.4</ele>
        <time>2013-05-12T13:02:49Z</time>
      </trkpt>
      <trkpt lat="40.7318160" lon="0.0632970">
        <ele>1120.4</ele>
        <time>2013-05-12T13:02:52Z</time>
      </trkpt>
      <trkpt lat="40.7320570" lon="0.0633360">
        <ele>1119.0</ele>
        <time>2013-05-12T13:02:57Z</time>
      </trkpt>
      <trkpt lat="40.7321460" lon="0.0633550">
        <ele>1118.4</ele>
        <time>2013-05-12T13:02:59Z</time>
      </trkpt>
      <trkpt lat="40.7323080" lon="0.0633810">
        <ele>1119.4</ele>
        <time>2013-05-12T13:03:05Z</time>
      </trkpt>
      <trkpt lat="40.7324560" lon="0.0634580">
        <ele>1120.0</ele>
        <time>2013-05-12T13:03:09Z</time>
      </trkpt>
      <trkpt lat="40.7325960" lon="0.0635210">
        <ele>1119.2</ele>
        <time>2013-05-12T13:03:13Z</time>
      </trkpt>
      <trkpt lat="40.7327610" lon="0.0635770">
        <ele>1119.8</ele>
        <time>2013-05-12T13:03:19Z</time>
      </trkpt>
      <trkpt lat="40.7329650" lon="0.0637080">
        <ele>1120.6</ele>
        <time>2013-05-12T13:03:26Z</time>
      </trkpt>
      <trkpt lat="40.7331430" lon="0.0637720">
        <ele>1121.2</ele>
        <time>2013-05-12T13:03:32Z</time>
      </trkpt>
      <trkpt lat="40.7333810" lon="0.0638430">
        <ele>1120.2</ele>
        <time>2013-05-12T13:03:37Z</time>
      </trkpt>
      <trkpt lat="40.7335220" lon="0.0639220">
        <ele>1119.2</ele>
        <time>2013-05-12T13:03:40Z</time>
      </trkpt>
      <trkpt lat="40.7337030" lon="0.0641170">
        <ele>1118.3</ele>
        <time>2013-05-12T13:03:45Z</time>
      </trkpt>
      <trkpt lat="40.7337770" lon="0.0641330">
        <ele>1118.2</ele>
        <time>2013-05-12T13:03:47Z</time>
      </trkpt>
      <trkpt lat="40.7339560" lon="0.0642050">
        <ele>1118.3</ele>
        <time>2013-05-12T13:03:52Z</time>
      </trkpt>
      <trkpt lat="40.7341370" lon="0.0641970">
        <ele>1116.3</ele>
        <time>2013-05-12T13:03:56Z</time>
      </trkpt>
      <trkpt lat="40.7342340" lon="0.0641550">
        <ele>1115.6</ele>
        <time>2013-05-12T13:03:58Z</time>
      </trkpt>
      <trkpt lat="40.7344580" lon="0.0640440">
        <ele>1113.5</ele>
        <time>2013-05-12T13:04:02Z</time>
      </trkpt>
      <trkpt lat="40.7346630" lon="0.0640900">
        <ele>1111.2</ele>
        <time>2013-05-12T13:04:06Z</time>
      </trkpt>
      <trkpt lat="40.7347570" lon="0.0641040">
        <ele>1110.3</ele>
        <time>2013-05-12T13:04:08Z</time>
      </trkpt>
      <trkpt lat="40.7348020" lon="0.0640990">
        <ele>1109.8</ele>
        <time>2013-05-12T13:04:09Z</time>
      </trkpt>
      <trkpt lat="40.7350710" lon="0.0640230">
        <ele>1108.1</ele>
        <time>2013-05-12T13:04:15Z</time>
      </trkpt>
      <trkpt lat="40.7352010" lon="0.0640700">
        <ele>1108.4</ele>
        <time>2013-05-12T13:04:19Z</time>
      </trkpt>
      <trkpt lat="40.7352380" lon="0.0641220">
        <ele>1108.8</ele>
        <time>2013-05-12T13:04:21Z</time>
      </trkpt>
      <trkpt lat="40.7352980" lon="0.0642060">
        <ele>1109.3</ele>
        <time>2013-05-12T13:04:27Z</time>
      </trkpt>
      <trkpt lat="40.7353300" lon="0.0642190">
        <ele>1109.3</ele>
        <time>2013-05-12T13:04:36Z</time>
      </trkpt>
      <trkpt lat="40.7353480" lon="0.0642360">
        <ele>1109.3</ele>
        <time>2013-05-12T13:04:37Z</time>
      </trkpt>
      <trkpt lat="40.7353730" lon="0.0642580">
        <ele>1109.3</ele>
        <time>2013-05-12T13:04:38Z</time>
      </trkpt>
      <trkpt lat="40.7354390" lon="0.0644590">
        <ele>1107.7</ele>
        <time>2013-05-12T13:04:42Z</time>
      </trkpt>
      <trkpt lat="40.7354540" lon="0.0647420">
        <ele>1102.1</ele>
        <time>2013-05-12T13:04:48Z</time>
      </trkpt>
      <trkpt lat="40.7354560" lon="0.0647700">
        <ele>1101.7</ele>
        <time>2013-05-12T13:04:49Z</time>
      </trkpt>
      <trkpt lat="40.7354550" lon="0.0648270">
        <ele>1098.8</ele>
        <time>2013-05-12T13:04:54Z</time>
      </trkpt>
      <trkpt lat="40.7354610" lon="0.0648740">
        <ele>1098.6</ele>
        <time>2013-05-12T13:04:58Z</time>
      </trkpt>
      <trkpt lat="40.7354720" lon="0.0650660">
        <ele>1098.2</ele>
        <time>2013-05-12T13:05:02Z</time>
      </trkpt>
      <trkpt lat="40.7354730" lon="0.0651580">
        <ele>1097.5</ele>
        <time>2013-05-12T13:05:04Z</time>
      </trkpt>
      <trkpt lat="40.7354680" lon="0.0652900">
        <ele>1096.2</ele>
        <time>2013-05-12T13:05:09Z</time>
      </trkpt>
      <trkpt lat="40.7354810" lon="0.0653310">
        <ele>1096.1</ele>
        <time>2013-05-12T13:05:10Z</time>
      </trkpt>
      <trkpt lat="40.7355640" lon="0.0655280">
        <ele>1093.7</ele>
        <time>2013-05-12T13:05:15Z</time>
      </trkpt>
      <trkpt lat="40.7356700" lon="0.0656480">
        <ele>1091.4</ele>
        <time>2013-05-12T13:05:19Z</time>
      </trkpt>
      <trkpt lat="40.7357350" lon="0.0657040">
        <ele>1090.6</ele>
        <time>2013-05-12T13:05:21Z</time>
      </trkpt>
      <trkpt lat="40.7358630" lon="0.0657750">
        <ele>1088.5</ele>
        <time>2013-05-12T13:05:25Z</time>
      </trkpt>
      <trkpt lat="40.7359420" lon="0.0658230">
        <ele>1086.6</ele>
        <time>2013-05-12T13:05:29Z</time>
      </trkpt>
      <trkpt lat="40.7361420" lon="0.0658980">
        <ele>1085.7</ele>
        <time>2013-05-12T13:05:34Z</time>
      </trkpt>
      <trkpt lat="40.7362130" lon="0.0659210">
        <ele>1084.8</ele>
        <time>2013-05-12T13:05:37Z</time>
      </trkpt>
      <trkpt lat="40.7362680" lon="0.0660530">
        <ele>1082.6</ele>
        <time>2013-05-12T13:05:41Z</time>
      </trkpt>
      <trkpt lat="40.7362580" lon="0.0661780">
        <ele>1080.7</ele>
        <time>2013-05-12T13:05:44Z</time>
      </trkpt>
      <trkpt lat="40.7362690" lon="0.0662520">
        <ele>1079.7</ele>
        <time>2013-05-12T13:05:46Z</time>
      </trkpt>
      <trkpt lat="40.7363420" lon="0.0663700">
        <ele>1078.3</ele>
        <time>2013-05-12T13:05:49Z</time>
      </trkpt>
      <trkpt lat="40.7363740" lon="0.0663950">
        <ele>1078.0</ele>
        <time>2013-05-12T13:05:50Z</time>
      </trkpt>
      <trkpt lat="40.7365510" lon="0.0665800">
        <ele>1073.8</ele>
        <time>2013-05-12T13:05:56Z</time>
      </trkpt>
      <trkpt lat="40.7365870" lon="0.0666120">
        <ele>1073.4</ele>
        <time>2013-05-12T13:05:57Z</time>
      </trkpt>
      <trkpt lat="40.7367920" lon="0.0667220">
        <ele>1069.8</ele>
        <time>2013-05-12T13:06:02Z</time>
      </trkpt>
      <trkpt lat="40.7368390" lon="0.0667380">
        <ele>1069.3</ele>
        <time>2013-05-12T13:06:03Z</time>
      </trkpt>
      <trkpt lat="40.7370100" lon="0.0668490">
        <ele>1066.8</ele>
        <time>2013-05-12T13:06:07Z</time>
      </trkpt>
      <trkpt lat="40.7370400" lon="0.0668890">
        <ele>1066.6</ele>
        <time>2013-05-12T13:06:08Z</time>
      </trkpt>
      <trkpt lat="40.7371770" lon="0.0669750">
        <ele>1065.2</ele>
        <time>2013-05-12T13:06:12Z</time>
      </trkpt>
      <trkpt lat="40.7372470" lon="0.0670070">
        <ele>1065.0</ele>
        <time>2013-05-12T13:06:14Z</time>
      </trkpt>
      <trkpt lat="40.7375220" lon="0.0671970">
        <ele>1064.5</ele>
        <time>2013-05-12T13:06:21Z</time>
      </trkpt>
      <trkpt lat="40.7376580" lon="0.0673580">
        <ele>1062.6</ele>
        <time>2013-05-12T13:06:26Z</time>
      </trkpt>
      <trkpt lat="40.7376760" lon="0.0673810">
        <ele>1062.3</ele>
        <time>2013-05-12T13:06:27Z</time>
      </trkpt>
      <trkpt lat="40.7377350" lon="0.0674370">
        <ele>1062.3</ele>
        <time>2013-05-12T13:06:29Z</time>
      </trkpt>
      <trkpt lat="40.7378900" lon="0.0675450">
        <ele>1061.7</ele>
        <time>2013-05-12T13:06:33Z</time>
      </trkpt>
      <trkpt lat="40.7380770" lon="0.0676620">
        <ele>1062.3</ele>
        <time>2013-05-12T13:06:39Z</time>
      </trkpt>
      <trkpt lat="40.7382340" lon="0.0678030">
        <ele>1063.9</ele>
        <time>2013-05-12T13:06:46Z</time>
      </trkpt>
      <trkpt lat="40.7383070" lon="0.0678750">
        <ele>1063.3</ele>
        <time>2013-05-12T13:06:50Z</time>
      </trkpt>
      <trkpt lat="40.7383420" lon="0.0679060">
        <ele>1061.7</ele>
        <time>2013-05-12T13:06:54Z</time>
      </trkpt>
      <trkpt lat="40.7383640" lon="0.0679490">
        <ele>1061.2</ele>
        <time>2013-05-12T13:07:07Z</time>
      </trkpt>
      <trkpt lat="40.7383760" lon="0.0679680">
        <ele>1061.1</ele>
        <time>2013-05-12T13:07:08Z</time>
      </trkpt>
      <trkpt lat="40.7384260" lon="0.0680160">
        <ele>1060.4</ele>
        <time>2013-05-12T13:07:12Z</time>
      </trkpt>
      <trkpt lat="40.7384380" lon="0.0680290">
        <ele>1059.6</ele>
        <time>2013-05-12T13:07:15Z</time>
      </trkpt>
      <trkpt lat="40.7384720" lon="0.0680550">
        <ele>1059.5</ele>
        <time>2013-05-12T13:07:22Z</time>
      </trkpt>
      <trkpt lat="40.7384920" lon="0.0680760">
        <ele>1059.5</ele>
        <time>2013-05-12T13:07:23Z</time>
      </trkpt>
      <trkpt lat="40.7385310" lon="0.0681230">
        <ele>1058.5</ele>
        <time>2013-05-12T13:07:27Z</time>
      </trkpt>
      <trkpt lat="40.7385300" lon="0.0681240">
        <ele>1058.3</ele>
        <time>2013-05-12T13:07:28Z</time>
      </trkpt>
      <trkpt lat="40.7385480" lon="0.0681700">
        <ele>1057.3</ele>
        <time>2013-05-12T13:07:45Z</time>
      </trkpt>
      <trkpt lat="40.7385480" lon="0.0681720">
        <ele>1057.2</ele>
        <time>2013-05-12T13:07:46Z</time>
      </trkpt>
      <trkpt lat="40.7385690" lon="0.0683220">
        <ele>1054.8</ele>
        <time>2013-05-12T13:07:55Z</time>
      </trkpt>
      <trkpt lat="40.7386260" lon="0.0684410">
        <ele>1050.7</ele>
        <time>2013-05-12T13:08:01Z</time>
      </trkpt>
      <trkpt lat="40.7386340" lon="0.0684410">
        <ele>1050.4</ele>
        <time>2013-05-12T13:08:02Z</time>
      </trkpt>
      <trkpt lat="40.7386870" lon="0.0684080">
        <ele>1049.1</ele>
        <time>2013-05-12T13:08:08Z</time>
      </trkpt>
      <trkpt lat="40.7387600" lon="0.0683530">
        <ele>1048.2</ele>
        <time>2013-05-12T13:08:23Z</time>
      </trkpt>
      <trkpt lat="40.7388890" lon="0.0682970">
        <ele>1046.7</ele>
        <time>2013-05-12T13:08:28Z</time>
      </trkpt>
      <trkpt lat="40.7389400" lon="0.0682730">
        <ele>1045.1</ele>
        <time>2013-05-12T13:08:31Z</time>
      </trkpt>
      <trkpt lat="40.7389670" lon="0.0682770">
        <ele>1044.4</ele>
        <time>2013-05-12T13:08:33Z</time>
      </trkpt>
      <trkpt lat="40.7390800" lon="0.0682950">
        <ele>1042.5</ele>
        <time>2013-05-12T13:08:39Z</time>
      </trkpt>
      <trkpt lat="40.7391990" lon="0.0682170">
        <ele>1041.0</ele>
        <time>2013-05-12T13:08:44Z</time>
      </trkpt>
      <trkpt lat="40.7392930" lon="0.0680660">
        <ele>1039.0</ele>
        <time>2013-05-12T13:08:50Z</time>
      </trkpt>
      <trkpt lat="40.7394160" lon="0.0679790">
        <ele>1035.2</ele>
        <time>2013-05-12T13:08:57Z</time>
      </trkpt>
      <trkpt lat="40.7394250" lon="0.0679800">
        <ele>1034.5</ele>
        <time>2013-05-12T13:08:59Z</time>
      </trkpt>
      <trkpt lat="40.7394700" lon="0.0679580">
        <ele>1033.5</ele>
        <time>2013-05-12T13:09:06Z</time>
      </trkpt>
      <trkpt lat="40.7394910" lon="0.0679570">
        <ele>1032.9</ele>
        <time>2013-05-12T13:09:10Z</time>
      </trkpt>
      <trkpt lat="40.7395030" lon="0.0679450">
        <ele>1032.1</ele>
        <time>2013-05-12T13:09:13Z</time>
      </trkpt>
      <trkpt lat="40.7395630" lon="0.0679360">
        <ele>1030.1</ele>
        <time>2013-05-12T13:09:30Z</time>
      </trkpt>
      <trkpt lat="40.7395670" lon="0.0679320">
        <ele>1029.7</ele>
        <time>2013-05-12T13:09:31Z</time>
      </trkpt>
      <trkpt lat="40.7396580" lon="0.0678600">
        <ele>1027.5</ele>
        <time>2013-05-12T13:09:38Z</time>
      </trkpt>
      <trkpt lat="40.7396570" lon="0.0678550">
        <ele>1026.5</ele>
        <time>2013-05-12T13:09:40Z</time>
      </trkpt>
      <trkpt lat="40.7397390" lon="0.0677770">
        <ele>1024.8</ele>
        <time>2013-05-12T13:09:51Z</time>
      </trkpt>
      <trkpt lat="40.7398290" lon="0.0676700">
        <ele>1023.2</ele>
        <time>2013-05-12T13:09:55Z</time>
      </trkpt>
      <trkpt lat="40.7400140" lon="0.0676230">
        <ele>1021.2</ele>
        <time>2013-05-12T13:10:00Z</time>
      </trkpt>
      <trkpt lat="40.7402050" lon="0.0676300">
        <ele>1019.8</ele>
        <time>2013-05-12T13:10:05Z</time>
      </trkpt>
      <trkpt lat="40.7403560" lon="0.0675860">
        <ele>1020.3</ele>
        <time>2013-05-12T13:10:11Z</time>
      </trkpt>
      <trkpt lat="40.7405090" lon="0.0675440">
        <ele>1018.6</ele>
        <time>2013-05-12T13:10:16Z</time>
      </trkpt>
      <trkpt lat="40.7405320" lon="0.0675380">
        <ele>1017.9</ele>
        <time>2013-05-12T13:10:17Z</time>
      </trkpt>
      <trkpt lat="40.7406190" lon="0.0673820">
        <ele>1015.7</ele>
        <time>2013-05-12T13:10:22Z</time>
      </trkpt>
      <trkpt lat="40.7406790" lon="0.0671860">
        <ele>1013.5</ele>
        <time>2013-05-12T13:10:26Z</time>
      </trkpt>
      <trkpt lat="40.7407430" lon="0.0669960">
        <ele>1011.2</ele>
        <time>2013-05-12T13:10:30Z</time>
      </trkpt>
      <trkpt lat="40.7407900" lon="0.0668520">
        <ele>1009.9</ele>
        <time>2013-05-12T13:10:33Z</time>
      </trkpt>
      <trkpt lat="40.7408080" lon="0.0668040">
        <ele>1009.2</ele>
        <time>2013-05-12T13:10:34Z</time>
      </trkpt>
      <trkpt lat="40.7408710" lon="0.0665620">
        <ele>1005.6</ele>
        <time>2013-05-12T13:10:39Z</time>
      </trkpt>
      <trkpt lat="40.7408630" lon="0.0665220">
        <ele>1005.0</ele>
        <time>2013-05-12T13:10:40Z</time>
      </trkpt>
      <trkpt lat="40.7408120" lon="0.0662570">
        <ele>1003.5</ele>
        <time>2013-05-12T13:10:46Z</time>
      </trkpt>
      <trkpt lat="40.7408240" lon="0.0660440">
        <ele>1000.3</ele>
        <time>2013-05-12T13:10:51Z</time>
      </trkpt>
      <trkpt lat="40.7408900" lon="0.0658870">
        <ele>996.5</ele>
        <time>2013-05-12T13:10:56Z</time>
      </trkpt>
      <trkpt lat="40.7409260" lon="0.0658300">
        <ele>994.7</ele>
        <time>2013-05-12T13:10:59Z</time>
      </trkpt>
      <trkpt lat="40.7409280" lon="0.0658280">
        <ele>994.1</ele>
        <time>2013-05-12T13:11:01Z</time>
      </trkpt>
      <trkpt lat="40.7409330" lon="0.0657990">
        <ele>994.0</ele>
        <time>2013-05-12T13:11:27Z</time>
      </trkpt>
      <trkpt lat="40.7409350" lon="0.0657970">
        <ele>994.0</ele>
        <time>2013-05-12T13:11:28Z</time>
      </trkpt>
      <trkpt lat="40.7409360" lon="0.0657970">
        <ele>993.9</ele>
        <time>2013-05-12T13:11:29Z</time>
      </trkpt>
      <trkpt lat="40.7408600" lon="0.0655860">
        <ele>992.5</ele>
        <time>2013-05-12T13:11:48Z</time>
      </trkpt>
      <trkpt lat="40.7408610" lon="0.0654830">
        <ele>991.5</ele>
        <time>2013-05-12T13:11:50Z</time>
      </trkpt>
      <trkpt lat="40.7408690" lon="0.0650370">
        <ele>986.0</ele>
        <time>2013-05-12T13:11:57Z</time>
      </trkpt>
      <trkpt lat="40.7408760" lon="0.0649840">
        <ele>984.9</ele>
        <time>2013-05-12T13:11:58Z</time>
      </trkpt>
      <trkpt lat="40.7409350" lon="0.0649810">
        <ele>982.2</ele>
        <time>2013-05-12T13:12:01Z</time>
      </trkpt>
      <trkpt lat="40.7409490" lon="0.0650390">
        <ele>981.8</ele>
        <time>2013-05-12T13:12:02Z</time>
      </trkpt>
      <trkpt lat="40.7409880" lon="0.0652430">
        <ele>979.7</ele>
        <time>2013-05-12T13:12:05Z</time>
      </trkpt>
      <trkpt lat="40.7410910" lon="0.0654300">
        <ele>976.4</ele>
        <time>2013-05-12T13:12:09Z</time>
      </trkpt>
      <trkpt lat="40.7411640" lon="0.0653460">
        <ele>974.5</ele>
        <time>2013-05-12T13:12:11Z</time>
      </trkpt>
      <trkpt lat="40.7411690" lon="0.0652820">
        <ele>974.2</ele>
        <time>2013-05-12T13:12:12Z</time>
      </trkpt>
      <trkpt lat="40.7412010" lon="0.0648220">
        <ele>969.7</ele>
        <time>2013-05-12T13:12:18Z</time>
      </trkpt>
      <trkpt lat="40.7412150" lon="0.0647310">
        <ele>969.1</ele>
        <time>2013-05-12T13:12:19Z</time>
      </trkpt>
      <trkpt lat="40.7413750" lon="0.0643360">
        <ele>965.7</ele>
        <time>2013-05-12T13:12:24Z</time>
      </trkpt>
      <trkpt lat="40.7414350" lon="0.0642820">
        <ele>965.2</ele>
        <time>2013-05-12T13:12:25Z</time>
      </trkpt>
      <trkpt lat="40.7416690" lon="0.0641220">
        <ele>963.8</ele>
        <time>2013-05-12T13:12:28Z</time>
      </trkpt>
      <trkpt lat="40.7420620" lon="0.0637530">
        <ele>958.6</ele>
        <time>2013-05-12T13:12:33Z</time>
      </trkpt>
      <trkpt lat="40.7423950" lon="0.0636850">
        <ele>954.5</ele>
        <time>2013-05-12T13:12:37Z</time>
      </trkpt>
      <trkpt lat="40.7427660" lon="0.0636890">
        <ele>952.1</ele>
        <time>2013-05-12T13:12:42Z</time>
      </trkpt>
      <trkpt lat="40.7429130" lon="0.0638130">
        <ele>948.0</ele>
        <time>2013-05-12T13:12:46Z</time>
      </trkpt>
      <trkpt lat="40.7429600" lon="0.0639620">
        <ele>947.1</ele>
        <time>2013-05-12T13:12:48Z</time>
      </trkpt>
      <trkpt lat="40.7430820" lon="0.0640810">
        <ele>945.8</ele>
        <time>2013-05-12T13:12:51Z</time>
      </trkpt>
      <trkpt lat="40.7432170" lon="0.0639900">
        <ele>944.7</ele>
        <time>2013-05-12T13:12:54Z</time>
      </trkpt>
      <trkpt lat="40.7432830" lon="0.0638700">
        <ele>944.5</ele>
        <time>2013-05-12T13:12:56Z</time>
      </trkpt>
      <trkpt lat="40.7435030" lon="0.0636580">
        <ele>944.3</ele>
        <time>2013-05-12T13:13:02Z</time>
      </trkpt>
      <trkpt lat="40.7435480" lon="0.0636620">
        <ele>944.3</ele>
        <time>2013-05-12T13:13:03Z</time>
      </trkpt>
      <trkpt lat="40.7436850" lon="0.0636710">
        <ele>944.2</ele>
        <time>2013-05-12T13:13:06Z</time>
      </trkpt>
      <trkpt lat="40.7438870" lon="0.0635930">
        <ele>943.4</ele>
        <time>2013-05-12T13:13:10Z</time>
      </trkpt>
      <trkpt lat="40.7439910" lon="0.0635360">
        <ele>942.7</ele>
        <time>2013-05-12T13:13:12Z</time>
      </trkpt>
      <trkpt lat="40.7441420" lon="0.0632980">
        <ele>941.4</ele>
        <time>2013-05-12T13:13:16Z</time>
      </trkpt>
      <trkpt lat="40.7441550" lon="0.0629770">
        <ele>939.4</ele>
        <time>2013-05-12T13:13:20Z</time>
      </trkpt>
      <trkpt lat="40.7441180" lon="0.0627630">
        <ele>937.6</ele>
        <time>2013-05-12T13:13:23Z</time>
      </trkpt>
      <trkpt lat="40.7441590" lon="0.0625260">
        <ele>934.0</ele>
        <time>2013-05-12T13:13:28Z</time>
      </trkpt>
      <trkpt lat="40.7442990" lon="0.0625430">
        <ele>931.6</ele>
        <time>2013-05-12T13:13:31Z</time>
      </trkpt>
      <trkpt lat="40.7444580" lon="0.0625050">
        <ele>927.7</ele>
        <time>2013-05-12T13:13:35Z</time>
      </trkpt>
      <trkpt lat="40.7445430" lon="0.0624500">
        <ele>925.7</ele>
        <time>2013-05-12T13:13:39Z</time>
      </trkpt>
      <trkpt lat="40.7445510" lon="0.0624560">
        <ele>925.5</ele>
        <time>2013-05-12T13:13:41Z</time>
      </trkpt>
      <trkpt lat="40.7445880" lon="0.0622120">
        <ele>924.5</ele>
        <time>2013-05-12T13:13:53Z</time>
      </trkpt>
      <trkpt lat="40.7446850" lon="0.0619050">
        <ele>923.1</ele>
        <time>2013-05-12T13:13:58Z</time>
      </trkpt>
      <trkpt lat="40.7447350" lon="0.0615080">
        <ele>921.8</ele>
        <time>2013-05-12T13:14:03Z</time>
      </trkpt>
      <trkpt lat="40.7447140" lon="0.0609250">
        <ele>919.0</ele>
        <time>2013-05-12T13:14:09Z</time>
      </trkpt>
      <trkpt lat="40.7447160" lon="0.0608170">
        <ele>918.2</ele>
        <time>2013-05-12T13:14:10Z</time>
      </trkpt>
      <trkpt lat="40.7447010" lon="0.0605350">
        <ele>916.4</ele>
        <time>2013-05-12T13:14:13Z</time>
      </trkpt>
      <trkpt lat="40.7447840" lon="0.0599960">
        <ele>913.1</ele>
        <time>2013-05-12T13:14:19Z</time>
      </trkpt>
      <trkpt lat="40.7448940" lon="0.0595610">
        <ele>909.3</ele>
        <time>2013-05-12T13:14:24Z</time>
      </trkpt>
      <trkpt lat="40.7449260" lon="0.0594800">
        <ele>908.3</ele>
        <time>2013-05-12T13:14:25Z</time>
      </trkpt>
      <trkpt lat="40.7451010" lon="0.0591520">
        <ele>903.9</ele>
        <time>2013-05-12T13:14:29Z</time>
      </trkpt>
      <trkpt lat="40.7451350" lon="0.0590490">
        <ele>902.7</ele>
        <time>2013-05-12T13:14:30Z</time>
      </trkpt>
      <trkpt lat="40.7453150" lon="0.0584090">
        <ele>899.5</ele>
        <time>2013-05-12T13:14:36Z</time>
      </trkpt>
      <trkpt lat="40.7454580" lon="0.0578300">
        <ele>897.2</ele>
        <time>2013-05-12T13:14:41Z</time>
      </trkpt>
      <trkpt lat="40.7455480" lon="0.0574820">
        <ele>895.3</ele>
        <time>2013-05-12T13:14:44Z</time>
      </trkpt>
      <trkpt lat="40.7457480" lon="0.0570600">
        <ele>892.3</ele>
        <time>2013-05-12T13:14:48Z</time>
      </trkpt>
      <trkpt lat="40.7459410" lon="0.0567370">
        <ele>889.0</ele>
        <time>2013-05-12T13:14:51Z</time>
      </trkpt>
      <trkpt lat="40.7462590" lon="0.0563730">
        <ele>885.1</ele>
        <time>2013-05-12T13:14:55Z</time>
      </trkpt>
      <trkpt lat="40.7465330" lon="0.0560960">
        <ele>882.5</ele>
        <time>2013-05-12T13:14:58Z</time>
      </trkpt>
      <trkpt lat="40.7467800" lon="0.0557980">
        <ele>879.5</ele>
        <time>2013-05-12T13:15:01Z</time>
      </trkpt>
      <trkpt lat="40.7469260" lon="0.0556330">
        <ele>879.1</ele>
        <time>2013-05-12T13:15:03Z</time>
      </trkpt>
      <trkpt lat="40.7473260" lon="0.0553250">
        <ele>876.4</ele>
        <time>2013-05-12T13:15:08Z</time>
      </trkpt>
      <trkpt lat="40.7475950" lon="0.0550930">
        <ele>873.3</ele>
        <time>2013-05-12T13:15:11Z</time>
      </trkpt>
      <trkpt lat="40.7479720" lon="0.0545640">
        <ele>867.4</ele>
        <time>2013-05-12T13:15:16Z</time>
      </trkpt>
      <trkpt lat="40.7482350" lon="0.0543020">
        <ele>864.4</ele>
        <time>2013-05-12T13:15:20Z</time>
      </trkpt>
      <trkpt lat="40.7484300" lon="0.0541920">
        <ele>863.1</ele>
        <time>2013-05-12T13:15:23Z</time>
      </trkpt>
      <trkpt lat="40.7487420" lon="0.0540310">
        <ele>862.5</ele>
        <time>2013-05-12T13:15:28Z</time>
      </trkpt>
      <trkpt lat="40.7488470" lon="0.0539770">
        <ele>861.9</ele>
        <time>2013-05-12T13:15:30Z</time>
      </trkpt>
      <trkpt lat="40.7491530" lon="0.0536880">
        <ele>858.9</ele>
        <time>2013-05-12T13:15:37Z</time>
      </trkpt>
      <trkpt lat="40.7492600" lon="0.0535910">
        <ele>857.9</ele>
        <time>2013-05-12T13:15:39Z</time>
      </trkpt>
      <trkpt lat="40.7495140" lon="0.0534550">
        <ele>855.9</ele>
        <time>2013-05-12T13:15:43Z</time>
      </trkpt>
      <trkpt lat="40.7496550" lon="0.0534140">
        <ele>855.1</ele>
        <time>2013-05-12T13:15:45Z</time>
      </trkpt>
      <trkpt lat="40.7501740" lon="0.0532810">
        <ele>851.4</ele>
        <time>2013-05-12T13:15:52Z</time>
      </trkpt>
      <trkpt lat="40.7504920" lon="0.0532300">
        <ele>847.2</ele>
        <time>2013-05-12T13:15:56Z</time>
      </trkpt>
      <trkpt lat="40.7506400" lon="0.0530530">
        <ele>842.6</ele>
        <time>2013-05-12T13:16:00Z</time>
      </trkpt>
      <trkpt lat="40.7506340" lon="0.0528880">
        <ele>841.8</ele>
        <time>2013-05-12T13:16:02Z</time>
      </trkpt>
      <trkpt lat="40.7506650" lon="0.0523840">
        <ele>836.5</ele>
        <time>2013-05-12T13:16:07Z</time>
      </trkpt>
      <trkpt lat="40.7507310" lon="0.0523000">
        <ele>835.0</ele>
        <time>2013-05-12T13:16:08Z</time>
      </trkpt>
      <trkpt lat="40.7510860" lon="0.0519510">
        <ele>827.5</ele>
        <time>2013-05-12T13:16:13Z</time>
      </trkpt>
      <trkpt lat="40.7511740" lon="0.0516440">
        <ele>822.9</ele>
        <time>2013-05-12T13:16:17Z</time>
      </trkpt>
      <trkpt lat="40.7511780" lon="0.0514440">
        <ele>821.5</ele>
        <time>2013-05-12T13:16:19Z</time>
      </trkpt>
      <trkpt lat="40.7512750" lon="0.0511750">
        <ele>819.5</ele>
        <time>2013-05-12T13:16:22Z</time>
      </trkpt>
      <trkpt lat="40.7514810" lon="0.0508550">
        <ele>815.7</ele>
        <time>2013-05-12T13:16:26Z</time>
      </trkpt>
      <trkpt lat="40.7515470" lon="0.0507950">
        <ele>815.2</ele>
        <time>2013-05-12T13:16:27Z</time>
      </trkpt>
      <trkpt lat="40.7519220" lon="0.0505130">
        <ele>811.4</ele>
        <time>2013-05-12T13:16:32Z</time>
      </trkpt>
      <trkpt lat="40.7520600" lon="0.0503590">
        <ele>810.0</ele>
        <time>2013-05-12T13:16:34Z</time>
      </trkpt>
      <trkpt lat="40.7523570" lon="0.0501820">
        <ele>808.9</ele>
        <time>2013-05-12T13:16:38Z</time>
      </trkpt>
      <trkpt lat="40.7524350" lon="0.0501640">
        <ele>808.6</ele>
        <time>2013-05-12T13:16:39Z</time>
      </trkpt>
      <trkpt lat="40.7525810" lon="0.0500990">
        <ele>808.3</ele>
        <time>2013-05-12T13:16:41Z</time>
      </trkpt>
      <trkpt lat="40.7527290" lon="0.0500430">
        <ele>807.8</ele>
        <time>2013-05-12T13:16:43Z</time>
      </trkpt>
      <trkpt lat="40.7530270" lon="0.0498170">
        <ele>807.0</ele>
        <time>2013-05-12T13:16:48Z</time>
      </trkpt>
      <trkpt lat="40.7532390" lon="0.0495080">
        <ele>807.9</ele>
        <time>2013-05-12T13:16:54Z</time>
      </trkpt>
      <trkpt lat="40.7533530" lon="0.0493800">
        <ele>809.1</ele>
        <time>2013-05-12T13:16:58Z</time>
      </trkpt>
      <trkpt lat="40.7533840" lon="0.0493480">
        <ele>809.6</ele>
        <time>2013-05-12T13:16:59Z</time>
      </trkpt>
      <trkpt lat="40.7534890" lon="0.0491540">
        <ele>810.8</ele>
        <time>2013-05-12T13:17:03Z</time>
      </trkpt>
      <trkpt lat="40.7535050" lon="0.0491010">
        <ele>811.0</ele>
        <time>2013-05-12T13:17:04Z</time>
      </trkpt>
      <trkpt lat="40.7535610" lon="0.0489360">
        <ele>811.2</ele>
        <time>2013-05-12T13:17:07Z</time>
      </trkpt>
      <trkpt lat="40.7535970" lon="0.0488830">
        <ele>811.2</ele>
        <time>2013-05-12T13:17:08Z</time>
      </trkpt>
      <trkpt lat="40.7537010" lon="0.0487780">
        <ele>809.9</ele>
        <time>2013-05-12T13:17:10Z</time>
      </trkpt>
      <trkpt lat="40.7537580" lon="0.0487130">
        <ele>808.8</ele>
        <time>2013-05-12T13:17:11Z</time>
      </trkpt>
      <trkpt lat="40.7538750" lon="0.0485670">
        <ele>807.2</ele>
        <time>2013-05-12T13:17:13Z</time>
      </trkpt>
      <trkpt lat="40.7542040" lon="0.0482220">
        <ele>804.6</ele>
        <time>2013-05-12T13:17:18Z</time>
      </trkpt>
      <trkpt lat="40.7543340" lon="0.0480860">
        <ele>803.7</ele>
        <time>2013-05-12T13:17:20Z</time>
      </trkpt>
      <trkpt lat="40.7546580" lon="0.0478530">
        <ele>802.3</ele>
        <time>2013-05-12T13:17:25Z</time>
      </trkpt>
      <trkpt lat="40.7547210" lon="0.0478120">
        <ele>801.9</ele>
        <time>2013-05-12T13:17:26Z</time>
      </trkpt>
      <trkpt lat="40.7548340" lon="0.0475780">
        <ele>801.8</ele>
        <time>2013-05-12T13:17:30Z</time>
      </trkpt>
      <trkpt lat="40.7547880" lon="0.0474460">
        <ele>802.0</ele>
        <time>2013-05-12T13:17:32Z</time>
      </trkpt>
      <trkpt lat="40.7546760" lon="0.0471050">
        <ele>802.3</ele>
        <time>2013-05-12T13:17:38Z</time>
      </trkpt>
      <trkpt lat="40.7546840" lon="0.0468590">
        <ele>802.9</ele>
        <time>2013-05-12T13:17:43Z</time>
      </trkpt>
      <trkpt lat="40.7547630" lon="0.0465270">
        <ele>802.4</ele>
        <time>2013-05-12T13:17:49Z</time>
      </trkpt>
      <trkpt lat="40.7549060" lon="0.0460470">
        <ele>800.4</ele>
        <time>2013-05-12T13:17:56Z</time>
      </trkpt>
      <trkpt lat="40.7549580" lon="0.0458000">
        <ele>799.0</ele>
        <time>2013-05-12T13:17:59Z</time>
      </trkpt>
      <trkpt lat="40.7550250" lon="0.0453870">
        <ele>795.5</ele>
        <time>2013-05-12T13:18:04Z</time>
      </trkpt>
      <trkpt lat="40.7549210" lon="0.0451490">
        <ele>794.5</ele>
        <time>2013-05-12T13:18:07Z</time>
      </trkpt>
      <trkpt lat="40.7547730" lon="0.0448960">
        <ele>793.6</ele>
        <time>2013-05-12T13:18:10Z</time>
      </trkpt>
      <trkpt lat="40.7545550" lon="0.0444980">
        <ele>792.1</ele>
        <time>2013-05-12T13:18:14Z</time>
      </trkpt>
      <trkpt lat="40.7545350" lon="0.0443830">
        <ele>791.8</ele>
        <time>2013-05-12T13:18:15Z</time>
      </trkpt>
      <trkpt lat="40.7545320" lon="0.0442700">
        <ele>791.5</ele>
        <time>2013-05-12T13:18:16Z</time>
      </trkpt>
      <trkpt lat="40.7545390" lon="0.0440640">
        <ele>791.0</ele>
        <time>2013-05-12T13:18:18Z</time>
      </trkpt>
      <trkpt lat="40.7546420" lon="0.0436240">
        <ele>790.1</ele>
        <time>2013-05-12T13:18:23Z</time>
      </trkpt>
      <trkpt lat="40.7549650" lon="0.0430260">
        <ele>788.2</ele>
        <time>2013-05-12T13:18:31Z</time>
      </trkpt>
      <trkpt lat="40.7552260" lon="0.0424820">
        <ele>785.3</ele>
        <time>2013-05-12T13:18:37Z</time>
      </trkpt>
      <trkpt lat="40.7553520" lon="0.0422790">
        <ele>780.7</ele>
        <time>2013-05-12T13:18:41Z</time>
      </trkpt>
      <trkpt lat="40.7553550" lon="0.0422630">
        <ele>780.2</ele>
        <time>2013-05-12T13:18:42Z</time>
      </trkpt>
      <trkpt lat="40.7553510" lon="0.0421900">
        <ele>779.0</ele>
        <time>2013-05-12T13:18:47Z</time>
      </trkpt>
      <trkpt lat="40.7553630" lon="0.0421720">
        <ele>779.0</ele>
        <time>2013-05-12T13:18:50Z</time>
      </trkpt>
      <trkpt lat="40.7553950" lon="0.0421960">
        <ele>778.6</ele>
        <time>2013-05-12T13:19:42Z</time>
      </trkpt>
      <trkpt lat="40.7553990" lon="0.0421960">
        <ele>778.5</ele>
        <time>2013-05-12T13:19:43Z</time>
      </trkpt>
      <trkpt lat="40.7553820" lon="0.0422030">
        <ele>778.2</ele>
        <time>2013-05-12T13:20:58Z</time>
      </trkpt>
      <trkpt lat="40.7553590" lon="0.0422590">
        <ele>777.6</ele>
        <time>2013-05-12T13:21:45Z</time>
      </trkpt>
      <trkpt lat="40.7553570" lon="0.0422770">
        <ele>777.7</ele>
        <time>2013-05-12T13:21:46Z</time>
      </trkpt>
      <trkpt lat="40.7553960" lon="0.0422920">
        <ele>777.5</ele>
        <time>2013-05-12T13:21:50Z</time>
      </trkpt>
      <trkpt lat="40.7554070" lon="0.0422770">
        <ele>777.2</ele>
        <time>2013-05-12T13:21:53Z</time>
      </trkpt>
      <trkpt lat="40.7554440" lon="0.0422130">
        <ele>776.7</ele>
        <time>2013-05-12T13:22:10Z</time>
      </trkpt>
      <trkpt lat="40.7555920" lon="0.0420320">
        <ele>775.1</ele>
        <time>2013-05-12T13:22:15Z</time>
      </trkpt>
      <trkpt lat="40.7557960" lon="0.0418290">
        <ele>772.2</ele>
        <time>2013-05-12T13:22:20Z</time>
      </trkpt>
      <trkpt lat="40.7559690" lon="0.0416820">
        <ele>769.7</ele>
        <time>2013-05-12T13:22:24Z</time>
      </trkpt>
      <trkpt lat="40.7562700" lon="0.0414150">
        <ele>765.3</ele>
        <time>2013-05-12T13:22:31Z</time>
      </trkpt>
      <trkpt lat="40.7563220" lon="0.0413700">
        <ele>763.5</ele>
        <time>2013-05-12T13:22:33Z</time>
      </trkpt>
      <trkpt lat="40.7564140" lon="0.0414300">
        <ele>761.1</ele>
        <time>2013-05-12T13:22:37Z</time>
      </trkpt>
      <trkpt lat="40.7563530" lon="0.0416230">
        <ele>758.8</ele>
        <time>2013-05-12T13:22:41Z</time>
      </trkpt>
      <trkpt lat="40.7561440" lon="0.0420260">
        <ele>756.8</ele>
        <time>2013-05-12T13:22:48Z</time>
      </trkpt>
      <trkpt lat="40.7561180" lon="0.0420840">
        <ele>756.1</ele>
        <time>2013-05-12T13:22:49Z</time>
      </trkpt>
      <trkpt lat="40.7560770" lon="0.0422080">
        <ele>755.3</ele>
        <time>2013-05-12T13:22:51Z</time>
      </trkpt>
      <trkpt lat="40.7560560" lon="0.0423350">
        <ele>755.0</ele>
        <time>2013-05-12T13:22:53Z</time>
      </trkpt>
      <trkpt lat="40.7560450" lon="0.0427290">
        <ele>753.3</ele>
        <time>2013-05-12T13:22:58Z</time>
      </trkpt>
      <trkpt lat="40.7561220" lon="0.0429670">
        <ele>750.2</ele>
        <time>2013-05-12T13:23:02Z</time>
      </trkpt>
      <trkpt lat="40.7562440" lon="0.0429750">
        <ele>747.6</ele>
        <time>2013-05-12T13:23:05Z</time>
      </trkpt>
      <trkpt lat="40.7562870" lon="0.0429310">
        <ele>746.4</ele>
        <time>2013-05-12T13:23:07Z</time>
      </trkpt>
      <trkpt lat="40.7563090" lon="0.0428940">
        <ele>744.9</ele>
        <time>2013-05-12T13:23:11Z</time>
      </trkpt>
      <trkpt lat="40.7563860" lon="0.0427970">
        <ele>744.3</ele>
        <time>2013-05-12T13:23:24Z</time>
      </trkpt>
      <trkpt lat="40.7564060" lon="0.0427580">
        <ele>743.7</ele>
        <time>2013-05-12T13:23:28Z</time>
      </trkpt>
      <trkpt lat="40.7563740" lon="0.0427330">
        <ele>743.1</ele>
        <time>2013-05-12T13:23:33Z</time>
      </trkpt>
      <trkpt lat="40.7563680" lon="0.0427480">
        <ele>743.2</ele>
        <time>2013-05-12T13:23:34Z</time>
      </trkpt>
      <trkpt lat="40.7563660" lon="0.0427930">
        <ele>743.7</ele>
        <time>2013-05-12T13:23:38Z</time>
      </trkpt>
      <trkpt lat="40.7563920" lon="0.0427540">
        <ele>743.8</ele>
        <time>2013-05-12T13:23:42Z</time>
      </trkpt>
      <trkpt lat="40.7564580" lon="0.0425870">
        <ele>742.9</ele>
        <time>2013-05-12T13:23:46Z</time>
      </trkpt>
      <trkpt lat="40.7565950" lon="0.0422660">
        <ele>741.7</ele>
        <time>2013-05-12T13:23:51Z</time>
      </trkpt>
      <trkpt lat="40.7568330" lon="0.0417410">
        <ele>740.8</ele>
        <time>2013-05-12T13:23:59Z</time>
      </trkpt>
      <trkpt lat="40.7569300" lon="0.0415140">
        <ele>740.5</ele>
        <time>2013-05-12T13:24:03Z</time>
      </trkpt>
      <trkpt lat="40.7569840" lon="0.0414030">
        <ele>739.8</ele>
        <time>2013-05-12T13:24:08Z</time>
      </trkpt>
      <trkpt lat="40.7569800" lon="0.0413110">
        <ele>739.8</ele>
        <time>2013-05-12T13:24:10Z</time>
      </trkpt>
      <trkpt lat="40.7569220" lon="0.0410920">
        <ele>740.0</ele>
        <time>2013-05-12T13:24:14Z</time>
      </trkpt>
      <trkpt lat="40.7569320" lon="0.0410700">
        <ele>740.1</ele>
        <time>2013-05-12T13:24:17Z</time>
      </trkpt>
      <trkpt lat="40.7569380" lon="0.0411010">
        <ele>740.1</ele>
        <time>2013-05-12T13:24:18Z</time>
      </trkpt>
      <trkpt lat="40.7569880" lon="0.0412210">
        <ele>739.2</ele>
        <time>2013-05-12T13:24:21Z</time>
      </trkpt>
      <trkpt lat="40.7570980" lon="0.0413300">
        <ele>736.8</ele>
        <time>2013-05-12T13:24:25Z</time>
      </trkpt>
      <trkpt lat="40.7571880" lon="0.0413750">
        <ele>735.4</ele>
        <time>2013-05-12T13:24:27Z</time>
      </trkpt>
      <trkpt lat="40.7573460" lon="0.0414450">
        <ele>733.2</ele>
        <time>2013-05-12T13:24:30Z</time>
      </trkpt>
      <trkpt lat="40.7576280" lon="0.0415820">
        <ele>728.6</ele>
        <time>2013-05-12T13:24:35Z</time>
      </trkpt>
      <trkpt lat="40.7580550" lon="0.0417730">
        <ele>720.3</ele>
        <time>2013-05-12T13:24:43Z</time>
      </trkpt>
      <trkpt lat="40.7581480" lon="0.0418190">
        <ele>718.4</ele>
        <time>2013-05-12T13:24:46Z</time>
      </trkpt>
      <trkpt lat="40.7581720" lon="0.0418370">
        <ele>718.1</ele>
        <time>2013-05-12T13:24:47Z</time>
      </trkpt>
      <trkpt lat="40.7582470" lon="0.0419950">
        <ele>716.6</ele>
        <time>2013-05-12T13:24:52Z</time>
      </trkpt>
      <trkpt lat="40.7583470" lon="0.0422430">
        <ele>715.6</ele>
        <time>2013-05-12T13:24:57Z</time>
      </trkpt>
      <trkpt lat="40.7584000" lon="0.0423680">
        <ele>714.9</ele>
        <time>2013-05-12T13:24:59Z</time>
      </trkpt>
      <trkpt lat="40.7586540" lon="0.0427530">
        <ele>712.4</ele>
        <time>2013-05-12T13:25:05Z</time>
      </trkpt>
      <trkpt lat="40.7587090" lon="0.0428140">
        <ele>712.1</ele>
        <time>2013-05-12T13:25:06Z</time>
      </trkpt>
      <trkpt lat="40.7590470" lon="0.0430840">
        <ele>710.2</ele>
        <time>2013-05-12T13:25:11Z</time>
      </trkpt>
      <trkpt lat="40.7593940" lon="0.0432250">
        <ele>707.4</ele>
        <time>2013-05-12T13:25:15Z</time>
      </trkpt>
      <trkpt lat="40.7598000" lon="0.0432560">
        <ele>704.5</ele>
        <time>2013-05-12T13:25:19Z</time>
      </trkpt>
      <trkpt lat="40.7600100" lon="0.0432240">
        <ele>703.6</ele>
        <time>2013-05-12T13:25:21Z</time>
      </trkpt>
      <trkpt lat="40.7604360" lon="0.0429950">
        <ele>699.7</ele>
        <time>2013-05-12T13:25:26Z</time>
      </trkpt>
      <trkpt lat="40.7605550" lon="0.0429080">
        <ele>698.3</ele>
        <time>2013-05-12T13:25:28Z</time>
      </trkpt>
      <trkpt lat="40.7605950" lon="0.0428070">
        <ele>695.9</ele>
        <time>2013-05-12T13:25:31Z</time>
      </trkpt>
      <trkpt lat="40.7605730" lon="0.0428110">
        <ele>695.7</ele>
        <time>2013-05-12T13:25:32Z</time>
      </trkpt>
      <trkpt lat="40.7605260" lon="0.0428570">
        <ele>695.3</ele>
        <time>2013-05-12T13:25:34Z</time>
      </trkpt>
      <trkpt lat="40.7603890" lon="0.0429710">
        <ele>695.9</ele>
        <time>2013-05-12T13:25:38Z</time>
      </trkpt>
      <trkpt lat="40.7603410" lon="0.0430260">
        <ele>696.6</ele>
        <time>2013-05-12T13:25:40Z</time>
      </trkpt>
      <trkpt lat="40.7602970" lon="0.0430660">
        <ele>697.0</ele>
        <time>2013-05-12T13:25:42Z</time>
      </trkpt>
      <trkpt lat="40.7602560" lon="0.0431200">
        <ele>697.5</ele>
        <time>2013-05-12T13:25:44Z</time>
      </trkpt>
      <trkpt lat="40.7602390" lon="0.0431510">
        <ele>697.8</ele>
        <time>2013-05-12T13:25:45Z</time>
      </trkpt>
      <trkpt lat="40.7602730" lon="0.0432930">
        <ele>698.1</ele>
        <time>2013-05-12T13:25:49Z</time>
      </trkpt>
      <trkpt lat="40.7603060" lon="0.0433340">
        <ele>697.7</ele>
        <time>2013-05-12T13:25:50Z</time>
      </trkpt>
      <trkpt lat="40.7604460" lon="0.0434820">
        <ele>696.5</ele>
        <time>2013-05-12T13:25:53Z</time>
      </trkpt>
      <trkpt lat="40.7607390" lon="0.0437790">
        <ele>693.3</ele>
        <time>2013-05-12T13:25:58Z</time>
      </trkpt>
      <trkpt lat="40.7609950" lon="0.0438760">
        <ele>691.9</ele>
        <time>2013-05-12T13:26:02Z</time>
      </trkpt>
      <trkpt lat="40.7610540" lon="0.0438770">
        <ele>691.8</ele>
        <time>2013-05-12T13:26:03Z</time>
      </trkpt>
      <trkpt lat="40.7612950" lon="0.0438570">
        <ele>693.8</ele>
        <time>2013-05-12T13:26:09Z</time>
      </trkpt>
      <trkpt lat="40.7614560" lon="0.0438770">
        <ele>695.6</ele>
        <time>2013-05-12T13:26:14Z</time>
      </trkpt>
      <trkpt lat="40.7615610" lon="0.0439630">
        <ele>697.5</ele>
        <time>2013-05-12T13:26:18Z</time>
      </trkpt>
      <trkpt lat="40.7617130" lon="0.0441400">
        <ele>698.8</ele>
        <time>2013-05-12T13:26:24Z</time>
      </trkpt>
      <trkpt lat="40.7618010" lon="0.0442360">
        <ele>699.3</ele>
        <time>2013-05-12T13:26:27Z</time>
      </trkpt>
      <trkpt lat="40.7619900" lon="0.0444600">
        <ele>699.4</ele>
        <time>2013-05-12T13:26:33Z</time>
      </trkpt>
      <trkpt lat="40.7622350" lon="0.0448320">
        <ele>698.3</ele>
        <time>2013-05-12T13:26:40Z</time>
      </trkpt>
      <trkpt lat="40.7624140" lon="0.0450880">
        <ele>697.7</ele>
        <time>2013-05-12T13:26:44Z</time>
      </trkpt>
      <trkpt lat="40.7627490" lon="0.0453340">
        <ele>697.1</ele>
        <time>2013-05-12T13:26:50Z</time>
      </trkpt>
      <trkpt lat="40.7629010" lon="0.0454240">
        <ele>697.4</ele>
        <time>2013-05-12T13:26:53Z</time>
      </trkpt>
      <trkpt lat="40.7630600" lon="0.0456030">
        <ele>697.8</ele>
        <time>2013-05-12T13:26:57Z</time>
      </trkpt>
      <trkpt lat="40.7630960" lon="0.0456700">
        <ele>697.5</ele>
        <time>2013-05-12T13:26:58Z</time>
      </trkpt>
      <trkpt lat="40.7633830" lon="0.0461410">
        <ele>694.5</ele>
        <time>2013-05-12T13:27:04Z</time>
      </trkpt>
      <trkpt lat="40.7636200" lon="0.0464030">
        <ele>693.7</ele>
        <time>2013-05-12T13:27:08Z</time>
      </trkpt>
      <trkpt lat="40.7637380" lon="0.0465000">
        <ele>693.5</ele>
        <time>2013-05-12T13:27:10Z</time>
      </trkpt>
      <trkpt lat="40.7639110" lon="0.0466050">
        <ele>693.5</ele>
        <time>2013-05-12T13:27:13Z</time>
      </trkpt>
      <trkpt lat="40.7642880" lon="0.0466990">
        <ele>694.0</ele>
        <time>2013-05-12T13:27:20Z</time>
      </trkpt>
      <trkpt lat="40.7644130" lon="0.0467450">
        <ele>694.8</ele>
        <time>2013-05-12T13:27:23Z</time>
      </trkpt>
      <trkpt lat="40.7645020" lon="0.0467730">
        <ele>695.2</ele>
        <time>2013-05-12T13:27:25Z</time>
      </trkpt>
      <trkpt lat="40.7645490" lon="0.0467940">
        <ele>695.1</ele>
        <time>2013-05-12T13:27:26Z</time>
      </trkpt>
      <trkpt lat="40.7646570" lon="0.0468580">
        <ele>694.6</ele>
        <time>2013-05-12T13:27:28Z</time>
      </trkpt>
      <trkpt lat="40.7648560" lon="0.0471070">
        <ele>693.1</ele>
        <time>2013-05-12T13:27:32Z</time>
      </trkpt>
      <trkpt lat="40.7651550" lon="0.0476240">
        <ele>690.7</ele>
        <time>2013-05-12T13:27:39Z</time>
      </trkpt>
      <trkpt lat="40.7653270" lon="0.0479100">
        <ele>691.3</ele>
        <time>2013-05-12T13:27:44Z</time>
      </trkpt>
      <trkpt lat="40.7655200" lon="0.0483780">
        <ele>693.5</ele>
        <time>2013-05-12T13:27:54Z</time>
      </trkpt>
      <trkpt lat="40.7655780" lon="0.0485190">
        <ele>693.9</ele>
        <time>2013-05-12T13:27:57Z</time>
      </trkpt>
      <trkpt lat="40.7656390" lon="0.0486700">
        <ele>694.4</ele>
        <time>2013-05-12T13:28:00Z</time>
      </trkpt>
      <trkpt lat="40.7656580" lon="0.0487200">
        <ele>694.6</ele>
        <time>2013-05-12T13:28:01Z</time>
      </trkpt>
      <trkpt lat="40.7656800" lon="0.0487700">
        <ele>694.8</ele>
        <time>2013-05-12T13:28:02Z</time>
      </trkpt>
      <trkpt lat="40.7657250" lon="0.0488670">
        <ele>694.9</ele>
        <time>2013-05-12T13:28:04Z</time>
      </trkpt>
      <trkpt lat="40.7657940" lon="0.0490140">
        <ele>695.3</ele>
        <time>2013-05-12T13:28:07Z</time>
      </trkpt>
      <trkpt lat="40.7659510" lon="0.0493650">
        <ele>696.1</ele>
        <time>2013-05-12T13:28:14Z</time>
      </trkpt>
      <trkpt lat="40.7661510" lon="0.0497450">
        <ele>697.9</ele>
        <time>2013-05-12T13:28:22Z</time>
      </trkpt>
      <trkpt lat="40.7663970" lon="0.0500670">
        <ele>697.3</ele>
        <time>2013-05-12T13:28:29Z</time>
      </trkpt>
      <trkpt lat="40.7667000" lon="0.0503840">
        <ele>696.1</ele>
        <time>2013-05-12T13:28:35Z</time>
      </trkpt>
      <trkpt lat="40.7668800" lon="0.0505410">
        <ele>694.6</ele>
        <time>2013-05-12T13:28:38Z</time>
      </trkpt>
      <trkpt lat="40.7671870" lon="0.0507960">
        <ele>693.4</ele>
        <time>2013-05-12T13:28:43Z</time>
      </trkpt>
      <trkpt lat="40.7673090" lon="0.0508960">
        <ele>693.0</ele>
        <time>2013-05-12T13:28:45Z</time>
      </trkpt>
      <trkpt lat="40.7674820" lon="0.0510370">
        <ele>692.7</ele>
        <time>2013-05-12T13:28:48Z</time>
      </trkpt>
      <trkpt lat="40.7675890" lon="0.0511430">
        <ele>692.7</ele>
        <time>2013-05-12T13:28:50Z</time>
      </trkpt>
      <trkpt lat="40.7678310" lon="0.0515960">
        <ele>690.5</ele>
        <time>2013-05-12T13:28:56Z</time>
      </trkpt>
      <trkpt lat="40.7679210" lon="0.0517660">
        <ele>689.6</ele>
        <time>2013-05-12T13:28:58Z</time>
      </trkpt>
      <trkpt lat="40.7681100" lon="0.0523720">
        <ele>684.6</ele>
        <time>2013-05-12T13:29:04Z</time>
      </trkpt>
      <trkpt lat="40.7681350" lon="0.0524860">
        <ele>684.3</ele>
        <time>2013-05-12T13:29:05Z</time>
      </trkpt>
      <trkpt lat="40.7682070" lon="0.0527160">
        <ele>683.1</ele>
        <time>2013-05-12T13:29:07Z</time>
      </trkpt>
      <trkpt lat="40.7683020" lon="0.0529530">
        <ele>682.3</ele>
        <time>2013-05-12T13:29:09Z</time>
      </trkpt>
      <trkpt lat="40.7684080" lon="0.0535240">
        <ele>678.1</ele>
        <time>2013-05-12T13:29:13Z</time>
      </trkpt>
      <trkpt lat="40.7685620" lon="0.0539760">
        <ele>675.0</ele>
        <time>2013-05-12T13:29:17Z</time>
      </trkpt>
      <trkpt lat="40.7686780" lon="0.0542290">
        <ele>675.8</ele>
        <time>2013-05-12T13:29:20Z</time>
      </trkpt>
      <trkpt lat="40.7687270" lon="0.0544520">
        <ele>676.9</ele>
        <time>2013-05-12T13:29:23Z</time>
      </trkpt>
      <trkpt lat="40.7687150" lon="0.0545830">
        <ele>677.4</ele>
        <time>2013-05-12T13:29:25Z</time>
      </trkpt>
      <trkpt lat="40.7686770" lon="0.0547160">
        <ele>677.6</ele>
        <time>2013-05-12T13:29:27Z</time>
      </trkpt>
      <trkpt lat="40.7686480" lon="0.0547800">
        <ele>677.3</ele>
        <time>2013-05-12T13:29:28Z</time>
      </trkpt>
      <trkpt lat="40.7686010" lon="0.0550020">
        <ele>676.1</ele>
        <time>2013-05-12T13:29:31Z</time>
      </trkpt>
      <trkpt lat="40.7686850" lon="0.0551510">
        <ele>674.8</ele>
        <time>2013-05-12T13:29:33Z</time>
      </trkpt>
      <trkpt lat="40.7687520" lon="0.0552120">
        <ele>674.3</ele>
        <time>2013-05-12T13:29:34Z</time>
      </trkpt>
      <trkpt lat="40.7688980" lon="0.0553390">
        <ele>673.4</ele>
        <time>2013-05-12T13:29:36Z</time>
      </trkpt>
      <trkpt lat="40.7692160" lon="0.0557730">
        <ele>669.3</ele>
        <time>2013-05-12T13:29:41Z</time>
      </trkpt>
      <trkpt lat="40.7695180" lon="0.0560140">
        <ele>665.7</ele>
        <time>2013-05-12T13:29:46Z</time>
      </trkpt>
      <trkpt lat="40.7698100" lon="0.0561110">
        <ele>665.0</ele>
        <time>2013-05-12T13:29:50Z</time>
      </trkpt>
      <trkpt lat="40.7701390" lon="0.0563460">
        <ele>665.0</ele>
        <time>2013-05-12T13:29:56Z</time>
      </trkpt>
      <trkpt lat="40.7702920" lon="0.0566120">
        <ele>664.3</ele>
        <time>2013-05-12T13:30:00Z</time>
      </trkpt>
      <trkpt lat="40.7703320" lon="0.0567660">
        <ele>664.4</ele>
        <time>2013-05-12T13:30:02Z</time>
      </trkpt>
      <trkpt lat="40.7704430" lon="0.0573210">
        <ele>663.4</ele>
        <time>2013-05-12T13:30:09Z</time>
      </trkpt>
      <trkpt lat="40.7704680" lon="0.0574050">
        <ele>662.9</ele>
        <time>2013-05-12T13:30:10Z</time>
      </trkpt>
      <trkpt lat="40.7707120" lon="0.0579390">
        <ele>658.8</ele>
        <time>2013-05-12T13:30:16Z</time>
      </trkpt>
      <trkpt lat="40.7709400" lon="0.0583270">
        <ele>655.9</ele>
        <time>2013-05-12T13:30:20Z</time>
      </trkpt>
      <trkpt lat="40.7711420" lon="0.0587620">
        <ele>653.6</ele>
        <time>2013-05-12T13:30:24Z</time>
      </trkpt>
      <trkpt lat="40.7713630" lon="0.0591350">
        <ele>651.9</ele>
        <time>2013-05-12T13:30:28Z</time>
      </trkpt>
      <trkpt lat="40.7715720" lon="0.0595340">
        <ele>652.9</ele>
        <time>2013-05-12T13:30:34Z</time>
      </trkpt>
      <trkpt lat="40.7716420" lon="0.0596580">
        <ele>653.3</ele>
        <time>2013-05-12T13:30:36Z</time>
      </trkpt>
      <trkpt lat="40.7717250" lon="0.0598660">
        <ele>653.7</ele>
        <time>2013-05-12T13:30:39Z</time>
      </trkpt>
      <trkpt lat="40.7718040" lon="0.0600510">
        <ele>654.4</ele>
        <time>2013-05-12T13:30:42Z</time>
      </trkpt>
      <trkpt lat="40.7719940" lon="0.0601340">
        <ele>654.5</ele>
        <time>2013-05-12T13:30:46Z</time>
      </trkpt>
      <trkpt lat="40.7721060" lon="0.0600970">
        <ele>654.4</ele>
        <time>2013-05-12T13:30:48Z</time>
      </trkpt>
      <trkpt lat="40.7723240" lon="0.0601420">
        <ele>654.1</ele>
        <time>2013-05-12T13:30:52Z</time>
      </trkpt>
      <trkpt lat="40.7723960" lon="0.0602480">
        <ele>654.4</ele>
        <time>2013-05-12T13:30:54Z</time>
      </trkpt>
      <trkpt lat="40.7724820" lon="0.0604520">
        <ele>655.2</ele>
        <time>2013-05-12T13:30:58Z</time>
      </trkpt>
      <trkpt lat="40.7726120" lon="0.0607380">
        <ele>656.8</ele>
        <time>2013-05-12T13:31:05Z</time>
      </trkpt>
      <trkpt lat="40.7726870" lon="0.0609820">
        <ele>659.1</ele>
        <time>2013-05-12T13:31:11Z</time>
      </trkpt>
      <trkpt lat="40.7727310" lon="0.0611640">
        <ele>660.7</ele>
        <time>2013-05-12T13:31:15Z</time>
      </trkpt>
      <trkpt lat="40.7728140" lon="0.0614490">
        <ele>661.4</ele>
        <time>2013-05-12T13:31:21Z</time>
      </trkpt>
      <trkpt lat="40.7728330" lon="0.0616540">
        <ele>662.6</ele>
        <time>2013-05-12T13:31:26Z</time>
      </trkpt>
      <trkpt lat="40.7728540" lon="0.0619450">
        <ele>663.2</ele>
        <time>2013-05-12T13:31:32Z</time>
      </trkpt>
      <trkpt lat="40.7729080" lon="0.0621540">
        <ele>664.8</ele>
        <time>2013-05-12T13:31:37Z</time>
      </trkpt>
      <trkpt lat="40.7730220" lon="0.0622700">
        <ele>666.1</ele>
        <time>2013-05-12T13:31:42Z</time>
      </trkpt>
      <trkpt lat="40.7731770" lon="0.0623060">
        <ele>667.7</ele>
        <time>2013-05-12T13:31:47Z</time>
      </trkpt>
      <trkpt lat="40.7734210" lon="0.0623800">
        <ele>667.8</ele>
        <time>2013-05-12T13:31:54Z</time>
      </trkpt>
      <trkpt lat="40.7737350" lon="0.0625710">
        <ele>667.2</ele>
        <time>2013-05-12T13:32:01Z</time>
      </trkpt>
      <trkpt lat="40.7740240" lon="0.0628450">
        <ele>666.5</ele>
        <time>2013-05-12T13:32:07Z</time>
      </trkpt>
      <trkpt lat="40.7742160" lon="0.0631660">
        <ele>666.0</ele>
        <time>2013-05-12T13:32:12Z</time>
      </trkpt>
      <trkpt lat="40.7742870" lon="0.0633140">
        <ele>665.7</ele>
        <time>2013-05-12T13:32:14Z</time>
      </trkpt>
      <trkpt lat="40.7743230" lon="0.0633860">
        <ele>665.4</ele>
        <time>2013-05-12T13:32:15Z</time>
      </trkpt>
      <trkpt lat="40.7743600" lon="0.0634560">
        <ele>665.2</ele>
        <time>2013-05-12T13:32:16Z</time>
      </trkpt>
      <trkpt lat="40.7743970" lon="0.0635260">
        <ele>665.1</ele>
        <time>2013-05-12T13:32:17Z</time>
      </trkpt>
      <trkpt lat="40.7745120" lon="0.0637420">
        <ele>664.8</ele>
        <time>2013-05-12T13:32:20Z</time>
      </trkpt>
      <trkpt lat="40.7745440" lon="0.0638150">
        <ele>665.0</ele>
        <time>2013-05-12T13:32:21Z</time>
      </trkpt>
      <trkpt lat="40.7746530" lon="0.0641950">
        <ele>665.9</ele>
        <time>2013-05-12T13:32:27Z</time>
      </trkpt>
      <trkpt lat="40.7747320" lon="0.0644060">
        <ele>667.5</ele>
        <time>2013-05-12T13:32:32Z</time>
      </trkpt>
      <trkpt lat="40.7748280" lon="0.0645800">
        <ele>668.7</ele>
        <time>2013-05-12T13:32:37Z</time>
      </trkpt>
      <trkpt lat="40.7749090" lon="0.0647120">
        <ele>669.5</ele>
        <time>2013-05-12T13:32:41Z</time>
      </trkpt>
      <trkpt lat="40.7750800" lon="0.0649420">
        <ele>670.7</ele>
        <time>2013-05-12T13:32:48Z</time>
      </trkpt>
      <trkpt lat="40.7752650" lon="0.0650960">
        <ele>671.8</ele>
        <time>2013-05-12T13:32:54Z</time>
      </trkpt>
      <trkpt lat="40.7754900" lon="0.0653320">
        <ele>672.5</ele>
        <time>2013-05-12T13:33:01Z</time>
      </trkpt>
      <trkpt lat="40.7755890" lon="0.0654220">
        <ele>672.9</ele>
        <time>2013-05-12T13:33:04Z</time>
      </trkpt>
      <trkpt lat="40.7756640" lon="0.0654700">
        <ele>673.0</ele>
        <time>2013-05-12T13:33:06Z</time>
      </trkpt>
      <trkpt lat="40.7759580" lon="0.0657660">
        <ele>673.2</ele>
        <time>2013-05-12T13:33:14Z</time>
      </trkpt>
      <trkpt lat="40.7760260" lon="0.0658490">
        <ele>673.3</ele>
        <time>2013-05-12T13:33:16Z</time>
      </trkpt>
      <trkpt lat="40.7761500" lon="0.0660370">
        <ele>673.3</ele>
        <time>2013-05-12T13:33:20Z</time>
      </trkpt>
      <trkpt lat="40.7762090" lon="0.0661310">
        <ele>673.2</ele>
        <time>2013-05-12T13:33:22Z</time>
      </trkpt>
      <trkpt lat="40.7762680" lon="0.0662130">
        <ele>673.5</ele>
        <time>2013-05-12T13:33:24Z</time>
      </trkpt>
      <trkpt lat="40.7765150" lon="0.0664830">
        <ele>674.9</ele>
        <time>2013-05-12T13:33:32Z</time>
      </trkpt>
      <trkpt lat="40.7766070" lon="0.0666340">
        <ele>674.7</ele>
        <time>2013-05-12T13:33:35Z</time>
      </trkpt>
      <trkpt lat="40.7766780" lon="0.0669490">
        <ele>673.4</ele>
        <time>2013-05-12T13:33:39Z</time>
      </trkpt>
      <trkpt lat="40.7766650" lon="0.0672660">
        <ele>673.4</ele>
        <time>2013-05-12T13:33:43Z</time>
      </trkpt>
      <trkpt lat="40.7766250" lon="0.0677290">
        <ele>673.8</ele>
        <time>2013-05-12T13:33:50Z</time>
      </trkpt>
      <trkpt lat="40.7766290" lon="0.0677960">
        <ele>673.7</ele>
        <time>2013-05-12T13:33:51Z</time>
      </trkpt>
      <trkpt lat="40.7767570" lon="0.0681030">
        <ele>673.4</ele>
        <time>2013-05-12T13:33:56Z</time>
      </trkpt>
      <trkpt lat="40.7768350" lon="0.0681940">
        <ele>673.4</ele>
        <time>2013-05-12T13:33:58Z</time>
      </trkpt>
      <trkpt lat="40.7769140" lon="0.0682660">
        <ele>673.7</ele>
        <time>2013-05-12T13:34:00Z</time>
      </trkpt>
      <trkpt lat="40.7770370" lon="0.0684460">
        <ele>674.4</ele>
        <time>2013-05-12T13:34:04Z</time>
      </trkpt>
      <trkpt lat="40.7771160" lon="0.0686390">
        <ele>674.8</ele>
        <time>2013-05-12T13:34:08Z</time>
      </trkpt>
      <trkpt lat="40.7772190" lon="0.0688720">
        <ele>676.2</ele>
        <time>2013-05-12T13:34:14Z</time>
      </trkpt>
      <trkpt lat="40.7772620" lon="0.0690070">
        <ele>677.5</ele>
        <time>2013-05-12T13:34:18Z</time>
      </trkpt>
      <trkpt lat="40.7773000" lon="0.0691070">
        <ele>678.7</ele>
        <time>2013-05-12T13:34:21Z</time>
      </trkpt>
      <trkpt lat="40.7773470" lon="0.0692120">
        <ele>679.8</ele>
        <time>2013-05-12T13:34:24Z</time>
      </trkpt>
      <trkpt lat="40.7773970" lon="0.0693520">
        <ele>681.0</ele>
        <time>2013-05-12T13:34:28Z</time>
      </trkpt>
      <trkpt lat="40.7774900" lon="0.0694930">
        <ele>682.5</ele>
        <time>2013-05-12T13:34:32Z</time>
      </trkpt>
      <trkpt lat="40.7775890" lon="0.0696540">
        <ele>683.8</ele>
        <time>2013-05-12T13:34:37Z</time>
      </trkpt>
      <trkpt lat="40.7777170" lon="0.0698550">
        <ele>686.0</ele>
        <time>2013-05-12T13:34:43Z</time>
      </trkpt>
      <trkpt lat="40.7778260" lon="0.0699250">
        <ele>687.2</ele>
        <time>2013-05-12T13:34:48Z</time>
      </trkpt>
      <trkpt lat="40.7779860" lon="0.0699350">
        <ele>688.4</ele>
        <time>2013-05-12T13:34:53Z</time>
      </trkpt>
      <trkpt lat="40.7781880" lon="0.0699030">
        <ele>689.6</ele>
        <time>2013-05-12T13:35:00Z</time>
      </trkpt>
      <trkpt lat="40.7783130" lon="0.0698810">
        <ele>690.4</ele>
        <time>2013-05-12T13:35:06Z</time>
      </trkpt>
      <trkpt lat="40.7784690" lon="0.0699440">
        <ele>690.3</ele>
        <time>2013-05-12T13:35:12Z</time>
      </trkpt>
      <trkpt lat="40.7785330" lon="0.0700660">
        <ele>690.3</ele>
        <time>2013-05-12T13:35:17Z</time>
      </trkpt>
      <trkpt lat="40.7785510" lon="0.0701160">
        <ele>690.4</ele>
        <time>2013-05-12T13:35:19Z</time>
      </trkpt>
      <trkpt lat="40.7785630" lon="0.0702010">
        <ele>690.8</ele>
        <time>2013-05-12T13:35:22Z</time>
      </trkpt>
      <trkpt lat="40.7785810" lon="0.0703030">
        <ele>691.6</ele>
        <time>2013-05-12T13:35:26Z</time>
      </trkpt>
      <trkpt lat="40.7786010" lon="0.0703920">
        <ele>692.8</ele>
        <time>2013-05-12T13:35:30Z</time>
      </trkpt>
      <trkpt lat="40.7786740" lon="0.0705720">
        <ele>694.8</ele>
        <time>2013-05-12T13:35:37Z</time>
      </trkpt>
      <trkpt lat="40.7787540" lon="0.0706550">
        <ele>695.7</ele>
        <time>2013-05-12T13:35:41Z</time>
      </trkpt>
      <trkpt lat="40.7788810" lon="0.0707730">
        <ele>696.5</ele>
        <time>2013-05-12T13:35:47Z</time>
      </trkpt>
      <trkpt lat="40.7790130" lon="0.0709350">
        <ele>696.3</ele>
        <time>2013-05-12T13:35:54Z</time>
      </trkpt>
      <trkpt lat="40.7791050" lon="0.0710520">
        <ele>696.7</ele>
        <time>2013-05-12T13:35:59Z</time>
      </trkpt>
      <trkpt lat="40.7791720" lon="0.0711460">
        <ele>697.2</ele>
        <time>2013-05-12T13:36:03Z</time>
      </trkpt>
      <trkpt lat="40.7791880" lon="0.0711680">
        <ele>697.2</ele>
        <time>2013-05-12T13:36:04Z</time>
      </trkpt>
      <trkpt lat="40.7792220" lon="0.0712110">
        <ele>697.3</ele>
        <time>2013-05-12T13:36:06Z</time>
      </trkpt>
      <trkpt lat="40.7793240" lon="0.0713360">
        <ele>697.8</ele>
        <time>2013-05-12T13:36:12Z</time>
      </trkpt>
      <trkpt lat="40.7794010" lon="0.0713990">
        <ele>698.1</ele>
        <time>2013-05-12T13:36:16Z</time>
      </trkpt>
      <trkpt lat="40.7795440" lon="0.0714680">
        <ele>699.3</ele>
        <time>2013-05-12T13:36:23Z</time>
      </trkpt>
      <trkpt lat="40.7796340" lon="0.0714790">
        <ele>700.3</ele>
        <time>2013-05-12T13:36:27Z</time>
      </trkpt>
      <trkpt lat="40.7797340" lon="0.0714570">
        <ele>700.8</ele>
        <time>2013-05-12T13:36:31Z</time>
      </trkpt>
      <trkpt lat="40.7798640" lon="0.0714090">
        <ele>702.1</ele>
        <time>2013-05-12T13:36:37Z</time>
      </trkpt>
      <trkpt lat="40.7800220" lon="0.0713610">
        <ele>703.2</ele>
        <time>2013-05-12T13:36:44Z</time>
      </trkpt>
      <trkpt lat="40.7801970" lon="0.0713010">
        <ele>704.7</ele>
        <time>2013-05-12T13:36:52Z</time>
      </trkpt>
      <trkpt lat="40.7803270" lon="0.0713410">
        <ele>706.1</ele>
        <time>2013-05-12T13:36:58Z</time>
      </trkpt>
      <trkpt lat="40.7803830" lon="0.0715210">
        <ele>707.3</ele>
        <time>2013-05-12T13:37:04Z</time>
      </trkpt>
      <trkpt lat="40.7803990" lon="0.0717130">
        <ele>708.0</ele>
        <time>2013-05-12T13:37:10Z</time>
      </trkpt>
      <trkpt lat="40.7804260" lon="0.0719090">
        <ele>708.6</ele>
        <time>2013-05-12T13:37:16Z</time>
      </trkpt>
      <trkpt lat="40.7804460" lon="0.0720970">
        <ele>709.4</ele>
        <time>2013-05-12T13:37:22Z</time>
      </trkpt>
      <trkpt lat="40.7805050" lon="0.0723810">
        <ele>710.5</ele>
        <time>2013-05-12T13:37:31Z</time>
      </trkpt>
      <trkpt lat="40.7805770" lon="0.0725820">
        <ele>711.7</ele>
        <time>2013-05-12T13:37:38Z</time>
      </trkpt>
      <trkpt lat="40.7806660" lon="0.0727740">
        <ele>713.1</ele>
        <time>2013-05-12T13:37:45Z</time>
      </trkpt>
      <trkpt lat="40.7807980" lon="0.0730160">
        <ele>713.5</ele>
        <time>2013-05-12T13:37:53Z</time>
      </trkpt>
      <trkpt lat="40.7808100" lon="0.0732130">
        <ele>714.9</ele>
        <time>2013-05-12T13:37:59Z</time>
      </trkpt>
      <trkpt lat="40.7808500" lon="0.0733930">
        <ele>716.3</ele>
        <time>2013-05-12T13:38:05Z</time>
      </trkpt>
      <trkpt lat="40.7809610" lon="0.0734080">
        <ele>717.7</ele>
        <time>2013-05-12T13:38:10Z</time>
      </trkpt>
      <trkpt lat="40.7810800" lon="0.0733010">
        <ele>719.5</ele>
        <time>2013-05-12T13:38:16Z</time>
      </trkpt>
      <trkpt lat="40.7811550" lon="0.0732290">
        <ele>720.2</ele>
        <time>2013-05-12T13:38:20Z</time>
      </trkpt>
      <trkpt lat="40.7813180" lon="0.0730850">
        <ele>721.9</ele>
        <time>2013-05-12T13:38:28Z</time>
      </trkpt>
      <trkpt lat="40.7814360" lon="0.0730130">
        <ele>723.3</ele>
        <time>2013-05-12T13:38:33Z</time>
      </trkpt>
      <trkpt lat="40.7816030" lon="0.0729780">
        <ele>725.7</ele>
        <time>2013-05-12T13:38:40Z</time>
      </trkpt>
      <trkpt lat="40.7818490" lon="0.0729410">
        <ele>727.3</ele>
        <time>2013-05-12T13:38:49Z</time>
      </trkpt>
      <trkpt lat="40.7820170" lon="0.0729270">
        <ele>728.9</ele>
        <time>2013-05-12T13:38:56Z</time>
      </trkpt>
      <trkpt lat="40.7821950" lon="0.0729480">
        <ele>730.9</ele>
        <time>2013-05-12T13:39:02Z</time>
      </trkpt>
      <trkpt lat="40.7823860" lon="0.0730200">
        <ele>732.8</ele>
        <time>2013-05-12T13:39:09Z</time>
      </trkpt>
      <trkpt lat="40.7825340" lon="0.0731560">
        <ele>734.4</ele>
        <time>2013-05-12T13:39:15Z</time>
      </trkpt>
      <trkpt lat="40.7827300" lon="0.0733000">
        <ele>736.0</ele>
        <time>2013-05-12T13:39:22Z</time>
      </trkpt>
      <trkpt lat="40.7829720" lon="0.0733960">
        <ele>736.9</ele>
        <time>2013-05-12T13:39:29Z</time>
      </trkpt>
      <trkpt lat="40.7830490" lon="0.0734110">
        <ele>736.8</ele>
        <time>2013-05-12T13:39:31Z</time>
      </trkpt>
      <trkpt lat="40.7832180" lon="0.0734750">
        <ele>736.5</ele>
        <time>2013-05-12T13:39:35Z</time>
      </trkpt>
      <trkpt lat="40.7834710" lon="0.0736680">
        <ele>737.9</ele>
        <time>2013-05-12T13:39:42Z</time>
      </trkpt>
      <trkpt lat="40.7836150" lon="0.0738000">
        <ele>737.4</ele>
        <time>2013-05-12T13:39:46Z</time>
      </trkpt>
      <trkpt lat="40.7837250" lon="0.0739360">
        <ele>737.1</ele>
        <time>2013-05-12T13:39:49Z</time>
      </trkpt>
      <trkpt lat="40.7839040" lon="0.0741700">
        <ele>737.0</ele>
        <time>2013-05-12T13:39:54Z</time>
      </trkpt>
      <trkpt lat="40.7840960" lon="0.0743800">
        <ele>738.0</ele>
        <time>2013-05-12T13:40:00Z</time>
      </trkpt>
      <trkpt lat="40.7842380" lon="0.0745950">
        <ele>739.9</ele>
        <time>2013-05-12T13:40:06Z</time>
      </trkpt>
      <trkpt lat="40.7843490" lon="0.0748460">
        <ele>742.0</ele>
        <time>2013-05-12T13:40:13Z</time>
      </trkpt>
      <trkpt lat="40.7845510" lon="0.0751550">
        <ele>742.9</ele>
        <time>2013-05-12T13:40:21Z</time>
      </trkpt>
      <trkpt lat="40.7847470" lon="0.0754620">
        <ele>742.7</ele>
        <time>2013-05-12T13:40:28Z</time>
      </trkpt>
      <trkpt lat="40.7847750" lon="0.0755130">
        <ele>742.7</ele>
        <time>2013-05-12T13:40:29Z</time>
      </trkpt>
      <trkpt lat="40.7849880" lon="0.0758280">
        <ele>742.8</ele>
        <time>2013-05-12T13:40:36Z</time>
      </trkpt>
      <trkpt lat="40.7851080" lon="0.0760340">
        <ele>743.8</ele>
        <time>2013-05-12T13:40:42Z</time>
      </trkpt>
      <trkpt lat="40.7852350" lon="0.0762150">
        <ele>745.4</ele>
        <time>2013-05-12T13:40:48Z</time>
      </trkpt>
      <trkpt lat="40.7854070" lon="0.0763260">
        <ele>746.6</ele>
        <time>2013-05-12T13:40:54Z</time>
      </trkpt>
      <trkpt lat="40.7855660" lon="0.0763780">
        <ele>748.5</ele>
        <time>2013-05-12T13:40:59Z</time>
      </trkpt>
      <trkpt lat="40.7856830" lon="0.0764500">
        <ele>749.8</ele>
        <time>2013-05-12T13:41:03Z</time>
      </trkpt>
      <trkpt lat="40.7857860" lon="0.0765890">
        <ele>751.0</ele>
        <time>2013-05-12T13:41:07Z</time>
      </trkpt>
      <trkpt lat="40.7859070" lon="0.0767760">
        <ele>752.1</ele>
        <time>2013-05-12T13:41:12Z</time>
      </trkpt>
      <trkpt lat="40.7860550" lon="0.0769950">
        <ele>753.3</ele>
        <time>2013-05-12T13:41:18Z</time>
      </trkpt>
      <trkpt lat="40.7862230" lon="0.0773050">
        <ele>753.3</ele>
        <time>2013-05-12T13:41:24Z</time>
      </trkpt>
      <trkpt lat="40.7863340" lon="0.0776640">
        <ele>753.2</ele>
        <time>2013-05-12T13:41:30Z</time>
      </trkpt>
      <trkpt lat="40.7865420" lon="0.0779490">
        <ele>752.8</ele>
        <time>2013-05-12T13:41:36Z</time>
      </trkpt>
      <trkpt lat="40.7865870" lon="0.0779850">
        <ele>752.7</ele>
        <time>2013-05-12T13:41:37Z</time>
      </trkpt>
      <trkpt lat="40.7866820" lon="0.0780430">
        <ele>752.4</ele>
        <time>2013-05-12T13:41:39Z</time>
      </trkpt>
      <trkpt lat="40.7868160" lon="0.0780980">
        <ele>752.3</ele>
        <time>2013-05-12T13:41:42Z</time>
      </trkpt>
      <trkpt lat="40.7870240" lon="0.0782980">
        <ele>754.1</ele>
        <time>2013-05-12T13:41:48Z</time>
      </trkpt>
      <trkpt lat="40.7871670" lon="0.0785270">
        <ele>755.2</ele>
        <time>2013-05-12T13:41:54Z</time>
      </trkpt>
      <trkpt lat="40.7872700" lon="0.0786480">
        <ele>757.4</ele>
        <time>2013-05-12T13:41:59Z</time>
      </trkpt>
      <trkpt lat="40.7874150" lon="0.0788280">
        <ele>760.3</ele>
        <time>2013-05-12T13:42:06Z</time>
      </trkpt>
      <trkpt lat="40.7875370" lon="0.0789930">
        <ele>761.1</ele>
        <time>2013-05-12T13:42:11Z</time>
      </trkpt>
      <trkpt lat="40.7877420" lon="0.0792690">
        <ele>761.5</ele>
        <time>2013-05-12T13:42:19Z</time>
      </trkpt>
      <trkpt lat="40.7879690" lon="0.0795210">
        <ele>762.0</ele>
        <time>2013-05-12T13:42:27Z</time>
      </trkpt>
      <trkpt lat="40.7881460" lon="0.0797550">
        <ele>761.9</ele>
        <time>2013-05-12T13:42:33Z</time>
      </trkpt>
      <trkpt lat="40.7882020" lon="0.0798480">
        <ele>762.0</ele>
        <time>2013-05-12T13:42:35Z</time>
      </trkpt>
      <trkpt lat="40.7882780" lon="0.0799840">
        <ele>762.1</ele>
        <time>2013-05-12T13:42:38Z</time>
      </trkpt>
      <trkpt lat="40.7883240" lon="0.0800730">
        <ele>762.2</ele>
        <time>2013-05-12T13:42:40Z</time>
      </trkpt>
      <trkpt lat="40.7884130" lon="0.0802980">
        <ele>761.9</ele>
        <time>2013-05-12T13:42:44Z</time>
      </trkpt>
      <trkpt lat="40.7886400" lon="0.0806690">
        <ele>760.0</ele>
        <time>2013-05-12T13:42:50Z</time>
      </trkpt>
      <trkpt lat="40.7888170" lon="0.0807620">
        <ele>760.0</ele>
        <time>2013-05-12T13:42:54Z</time>
      </trkpt>
      <trkpt lat="40.7888640" lon="0.0807590">
        <ele>760.2</ele>
        <time>2013-05-12T13:42:55Z</time>
      </trkpt>
      <trkpt lat="40.7889590" lon="0.0807350">
        <ele>760.5</ele>
        <time>2013-05-12T13:42:57Z</time>
      </trkpt>
      <trkpt lat="40.7891300" lon="0.0808100">
        <ele>761.1</ele>
        <time>2013-05-12T13:43:01Z</time>
      </trkpt>
      <trkpt lat="40.7891890" lon="0.0809270">
        <ele>761.1</ele>
        <time>2013-05-12T13:43:03Z</time>
      </trkpt>
      <trkpt lat="40.7893510" lon="0.0813980">
        <ele>759.9</ele>
        <time>2013-05-12T13:43:10Z</time>
      </trkpt>
      <trkpt lat="40.7894040" lon="0.0815140">
        <ele>760.0</ele>
        <time>2013-05-12T13:43:12Z</time>
      </trkpt>
      <trkpt lat="40.7895890" lon="0.0817170">
        <ele>760.1</ele>
        <time>2013-05-12T13:43:18Z</time>
      </trkpt>
      <trkpt lat="40.7899190" lon="0.0819060">
        <ele>760.7</ele>
        <time>2013-05-12T13:43:27Z</time>
      </trkpt>
      <trkpt lat="40.7901140" lon="0.0820320">
        <ele>761.9</ele>
        <time>2013-05-12T13:43:33Z</time>
      </trkpt>
      <trkpt lat="40.7902070" lon="0.0820790">
        <ele>762.7</ele>
        <time>2013-05-12T13:43:36Z</time>
      </trkpt>
      <trkpt lat="40.7902680" lon="0.0821150">
        <ele>763.3</ele>
        <time>2013-05-12T13:43:38Z</time>
      </trkpt>
      <trkpt lat="40.7902970" lon="0.0821350">
        <ele>763.7</ele>
        <time>2013-05-12T13:43:39Z</time>
      </trkpt>
      <trkpt lat="40.7903830" lon="0.0821950">
        <ele>765.2</ele>
        <time>2013-05-12T13:43:42Z</time>
      </trkpt>
      <trkpt lat="40.7904090" lon="0.0822200">
        <ele>765.5</ele>
        <time>2013-05-12T13:43:43Z</time>
      </trkpt>
      <trkpt lat="40.7904820" lon="0.0823040">
        <ele>766.6</ele>
        <time>2013-05-12T13:43:46Z</time>
      </trkpt>
      <trkpt lat="40.7905270" lon="0.0823600">
        <ele>767.2</ele>
        <time>2013-05-12T13:43:48Z</time>
      </trkpt>
      <trkpt lat="40.7906220" lon="0.0824820">
        <ele>769.1</ele>
        <time>2013-05-12T13:43:52Z</time>
      </trkpt>
      <trkpt lat="40.7907290" lon="0.0825780">
        <ele>770.0</ele>
        <time>2013-05-12T13:43:56Z</time>
      </trkpt>
      <trkpt lat="40.7908770" lon="0.0826840">
        <ele>770.5</ele>
        <time>2013-05-12T13:44:01Z</time>
      </trkpt>
      <trkpt lat="40.7911160" lon="0.0828690">
        <ele>772.2</ele>
        <time>2013-05-12T13:44:08Z</time>
      </trkpt>
      <trkpt lat="40.7912680" lon="0.0829250">
        <ele>771.8</ele>
        <time>2013-05-12T13:44:11Z</time>
      </trkpt>
      <trkpt lat="40.7915040" lon="0.0830720">
        <ele>772.0</ele>
        <time>2013-05-12T13:44:16Z</time>
      </trkpt>
      <trkpt lat="40.7915800" lon="0.0832520">
        <ele>772.4</ele>
        <time>2013-05-12T13:44:19Z</time>
      </trkpt>
      <trkpt lat="40.7916870" lon="0.0836720">
        <ele>771.7</ele>
        <time>2013-05-12T13:44:25Z</time>
      </trkpt>
      <trkpt lat="40.7918410" lon="0.0840280">
        <ele>771.1</ele>
        <time>2013-05-12T13:44:30Z</time>
      </trkpt>
      <trkpt lat="40.7919390" lon="0.0845380">
        <ele>768.8</ele>
        <time>2013-05-12T13:44:35Z</time>
      </trkpt>
      <trkpt lat="40.7919650" lon="0.0848400">
        <ele>768.0</ele>
        <time>2013-05-12T13:44:38Z</time>
      </trkpt>
      <trkpt lat="40.7919920" lon="0.0850120">
        <ele>768.0</ele>
        <time>2013-05-12T13:44:40Z</time>
      </trkpt>
      <trkpt lat="40.7920380" lon="0.0852470">
        <ele>768.7</ele>
        <time>2013-05-12T13:44:43Z</time>
      </trkpt>
      <trkpt lat="40.7920540" lon="0.0853280">
        <ele>768.9</ele>
        <time>2013-05-12T13:44:44Z</time>
      </trkpt>
      <trkpt lat="40.7921250" lon="0.0857450">
        <ele>767.2</ele>
        <time>2013-05-12T13:44:49Z</time>
      </trkpt>
      <trkpt lat="40.7921770" lon="0.0860360">
        <ele>765.7</ele>
        <time>2013-05-12T13:44:52Z</time>
      </trkpt>
      <trkpt lat="40.7921750" lon="0.0863710">
        <ele>763.0</ele>
        <time>2013-05-12T13:44:55Z</time>
      </trkpt>
      <trkpt lat="40.7921000" lon="0.0866630">
        <ele>761.3</ele>
        <time>2013-05-12T13:44:58Z</time>
      </trkpt>
      <trkpt lat="40.7921250" lon="0.0868450">
        <ele>761.6</ele>
        <time>2013-05-12T13:45:00Z</time>
      </trkpt>
      <trkpt lat="40.7922590" lon="0.0871160">
        <ele>760.7</ele>
        <time>2013-05-12T13:45:03Z</time>
      </trkpt>
      <trkpt lat="40.7923620" lon="0.0872850">
        <ele>760.1</ele>
        <time>2013-05-12T13:45:05Z</time>
      </trkpt>
      <trkpt lat="40.7924110" lon="0.0873680">
        <ele>760.0</ele>
        <time>2013-05-12T13:45:06Z</time>
      </trkpt>
      <trkpt lat="40.7925480" lon="0.0876080">
        <ele>759.7</ele>
        <time>2013-05-12T13:45:09Z</time>
      </trkpt>
      <trkpt lat="40.7926230" lon="0.0877730">
        <ele>759.4</ele>
        <time>2013-05-12T13:45:11Z</time>
      </trkpt>
      <trkpt lat="40.7928830" lon="0.0882910">
        <ele>759.0</ele>
        <time>2013-05-12T13:45:18Z</time>
      </trkpt>
      <trkpt lat="40.7929630" lon="0.0884280">
        <ele>759.2</ele>
        <time>2013-05-12T13:45:20Z</time>
      </trkpt>
      <trkpt lat="40.7932240" lon="0.0887760">
        <ele>759.1</ele>
        <time>2013-05-12T13:45:26Z</time>
      </trkpt>
      <trkpt lat="40.7935230" lon="0.0891910">
        <ele>758.7</ele>
        <time>2013-05-12T13:45:33Z</time>
      </trkpt>
      <trkpt lat="40.7938330" lon="0.0896580">
        <ele>758.0</ele>
        <time>2013-05-12T13:45:40Z</time>
      </trkpt>
      <trkpt lat="40.7940200" lon="0.0898480">
        <ele>758.1</ele>
        <time>2013-05-12T13:45:44Z</time>
      </trkpt>
      <trkpt lat="40.7942160" lon="0.0900400">
        <ele>757.1</ele>
        <time>2013-05-12T13:45:48Z</time>
      </trkpt>
      <trkpt lat="40.7943890" lon="0.0904470">
        <ele>753.6</ele>
        <time>2013-05-12T13:45:52Z</time>
      </trkpt>
      <trkpt lat="40.7945610" lon="0.0909790">
        <ele>750.4</ele>
        <time>2013-05-12T13:45:56Z</time>
      </trkpt>
      <trkpt lat="40.7947410" lon="0.0914400">
        <ele>746.8</ele>
        <time>2013-05-12T13:46:00Z</time>
      </trkpt>
      <trkpt lat="40.7949040" lon="0.0916550">
        <ele>742.7</ele>
        <time>2013-05-12T13:46:04Z</time>
      </trkpt>
      <trkpt lat="40.7950490" lon="0.0916620">
        <ele>740.4</ele>
        <time>2013-05-12T13:46:06Z</time>
      </trkpt>
      <trkpt lat="40.7953330" lon="0.0916150">
        <ele>738.3</ele>
        <time>2013-05-12T13:46:09Z</time>
      </trkpt>
      <trkpt lat="40.7955910" lon="0.0916850">
        <ele>738.0</ele>
        <time>2013-05-12T13:46:12Z</time>
      </trkpt>
      <trkpt lat="40.7957530" lon="0.0918860">
        <ele>738.2</ele>
        <time>2013-05-12T13:46:15Z</time>
      </trkpt>
      <trkpt lat="40.7959420" lon="0.0921500">
        <ele>737.7</ele>
        <time>2013-05-12T13:46:19Z</time>
      </trkpt>
      <trkpt lat="40.7960840" lon="0.0925360">
        <ele>735.6</ele>
        <time>2013-05-12T13:46:23Z</time>
      </trkpt>
      <trkpt lat="40.7961190" lon="0.0929580">
        <ele>733.4</ele>
        <time>2013-05-12T13:46:27Z</time>
      </trkpt>
      <trkpt lat="40.7961810" lon="0.0932100">
        <ele>731.2</ele>
        <time>2013-05-12T13:46:30Z</time>
      </trkpt>
      <trkpt lat="40.7962920" lon="0.0933520">
        <ele>730.5</ele>
        <time>2013-05-12T13:46:32Z</time>
      </trkpt>
      <trkpt lat="40.7964920" lon="0.0937210">
        <ele>730.2</ele>
        <time>2013-05-12T13:46:36Z</time>
      </trkpt>
      <trkpt lat="40.7965550" lon="0.0940930">
        <ele>729.5</ele>
        <time>2013-05-12T13:46:40Z</time>
      </trkpt>
      <trkpt lat="40.7966880" lon="0.0944330">
        <ele>730.6</ele>
        <time>2013-05-12T13:46:45Z</time>
      </trkpt>
      <trkpt lat="40.7969100" lon="0.0948140">
        <ele>731.5</ele>
        <time>2013-05-12T13:46:52Z</time>
      </trkpt>
      <trkpt lat="40.7970270" lon="0.0951260">
        <ele>731.4</ele>
        <time>2013-05-12T13:46:57Z</time>
      </trkpt>
      <trkpt lat="40.7972570" lon="0.0955490">
        <ele>729.7</ele>
        <time>2013-05-12T13:47:03Z</time>
      </trkpt>
      <trkpt lat="40.7973740" lon="0.0958060">
        <ele>728.4</ele>
        <time>2013-05-12T13:47:06Z</time>
      </trkpt>
      <trkpt lat="40.7975180" lon="0.0961690">
        <ele>726.2</ele>
        <time>2013-05-12T13:47:10Z</time>
      </trkpt>
      <trkpt lat="40.7975350" lon="0.0965390">
        <ele>725.7</ele>
        <time>2013-05-12T13:47:14Z</time>
      </trkpt>
      <trkpt lat="40.7975390" lon="0.0967430">
        <ele>726.2</ele>
        <time>2013-05-12T13:47:17Z</time>
      </trkpt>
      <trkpt lat="40.7976450" lon="0.0968060">
        <ele>727.2</ele>
        <time>2013-05-12T13:47:20Z</time>
      </trkpt>
      <trkpt lat="40.7977480" lon="0.0968230">
        <ele>727.8</ele>
        <time>2013-05-12T13:47:22Z</time>
      </trkpt>
      <trkpt lat="40.7979550" lon="0.0970290">
        <ele>728.6</ele>
        <time>2013-05-12T13:47:27Z</time>
      </trkpt>
      <trkpt lat="40.7981710" lon="0.0972710">
        <ele>727.8</ele>
        <time>2013-05-12T13:47:32Z</time>
      </trkpt>
      <trkpt lat="40.7982260" lon="0.0972830">
        <ele>727.7</ele>
        <time>2013-05-12T13:47:33Z</time>
      </trkpt>
      <trkpt lat="40.7984500" lon="0.0973480">
        <ele>726.9</ele>
        <time>2013-05-12T13:47:37Z</time>
      </trkpt>
      <trkpt lat="40.7986670" lon="0.0975510">
        <ele>724.9</ele>
        <time>2013-05-12T13:47:41Z</time>
      </trkpt>
      <trkpt lat="40.7986890" lon="0.0977150">
        <ele>724.6</ele>
        <time>2013-05-12T13:47:43Z</time>
      </trkpt>
      <trkpt lat="40.7986890" lon="0.0978820">
        <ele>724.3</ele>
        <time>2013-05-12T13:47:45Z</time>
      </trkpt>
      <trkpt lat="40.7987690" lon="0.0982490">
        <ele>723.9</ele>
        <time>2013-05-12T13:47:50Z</time>
      </trkpt>
      <trkpt lat="40.7989150" lon="0.0987140">
        <ele>724.5</ele>
        <time>2013-05-12T13:47:57Z</time>
      </trkpt>
      <trkpt lat="40.7990120" lon="0.0990920">
        <ele>723.5</ele>
        <time>2013-05-12T13:48:02Z</time>
      </trkpt>
      <trkpt lat="40.7991640" lon="0.0993790">
        <ele>722.3</ele>
        <time>2013-05-12T13:48:06Z</time>
      </trkpt>
      <trkpt lat="40.7992700" lon="0.0995100">
        <ele>721.6</ele>
        <time>2013-05-12T13:48:08Z</time>
      </trkpt>
      <trkpt lat="40.7993790" lon="0.0996440">
        <ele>720.4</ele>
        <time>2013-05-12T13:48:10Z</time>
      </trkpt>
      <trkpt lat="40.7994860" lon="0.0998050">
        <ele>719.4</ele>
        <time>2013-05-12T13:48:12Z</time>
      </trkpt>
      <trkpt lat="40.7996090" lon="0.0999500">
        <ele>718.7</ele>
        <time>2013-05-12T13:48:14Z</time>
      </trkpt>
      <trkpt lat="40.7997690" lon="0.1001830">
        <ele>717.5</ele>
        <time>2013-05-12T13:48:17Z</time>
      </trkpt>
      <trkpt lat="40.7998370" lon="0.1003690">
        <ele>717.2</ele>
        <time>2013-05-12T13:48:19Z</time>
      </trkpt>
      <trkpt lat="40.8000510" lon="0.1007930">
        <ele>715.5</ele>
        <time>2013-05-12T13:48:24Z</time>
      </trkpt>
      <trkpt lat="40.8001600" lon="0.1010440">
        <ele>714.7</ele>
        <time>2013-05-12T13:48:27Z</time>
      </trkpt>
      <trkpt lat="40.8002270" lon="0.1013060">
        <ele>714.4</ele>
        <time>2013-05-12T13:48:30Z</time>
      </trkpt>
      <trkpt lat="40.8003950" lon="0.1017550">
        <ele>712.9</ele>
        <time>2013-05-12T13:48:35Z</time>
      </trkpt>
      <trkpt lat="40.8005860" lon="0.1021380">
        <ele>712.3</ele>
        <time>2013-05-12T13:48:40Z</time>
      </trkpt>
      <trkpt lat="40.8007680" lon="0.1024780">
        <ele>713.0</ele>
        <time>2013-05-12T13:48:45Z</time>
      </trkpt>
      <trkpt lat="40.8008960" lon="0.1026260">
        <ele>712.9</ele>
        <time>2013-05-12T13:48:48Z</time>
      </trkpt>
      <trkpt lat="40.8011080" lon="0.1028290">
        <ele>713.5</ele>
        <time>2013-05-12T13:48:53Z</time>
      </trkpt>
      <trkpt lat="40.8011430" lon="0.1030400">
        <ele>713.4</ele>
        <time>2013-05-12T13:48:56Z</time>
      </trkpt>
      <trkpt lat="40.8012300" lon="0.1034640">
        <ele>713.7</ele>
        <time>2013-05-12T13:49:03Z</time>
      </trkpt>
      <trkpt lat="40.8012910" lon="0.1035830">
        <ele>713.4</ele>
        <time>2013-05-12T13:49:05Z</time>
      </trkpt>
      <trkpt lat="40.8014480" lon="0.1040180">
        <ele>712.4</ele>
        <time>2013-05-12T13:49:12Z</time>
      </trkpt>
      <trkpt lat="40.8015890" lon="0.1043640">
        <ele>712.9</ele>
        <time>2013-05-12T13:49:18Z</time>
      </trkpt>
      <trkpt lat="40.8017530" lon="0.1047040">
        <ele>711.1</ele>
        <time>2013-05-12T13:49:23Z</time>
      </trkpt>
      <trkpt lat="40.8018370" lon="0.1048220">
        <ele>710.3</ele>
        <time>2013-05-12T13:49:25Z</time>
      </trkpt>
      <trkpt lat="40.8019510" lon="0.1048860">
        <ele>710.0</ele>
        <time>2013-05-12T13:49:27Z</time>
      </trkpt>
      <trkpt lat="40.8020710" lon="0.1049330">
        <ele>709.6</ele>
        <time>2013-05-12T13:49:29Z</time>
      </trkpt>
      <trkpt lat="40.8022280" lon="0.1051650">
        <ele>708.5</ele>
        <time>2013-05-12T13:49:33Z</time>
      </trkpt>
      <trkpt lat="40.8022340" lon="0.1052440">
        <ele>708.4</ele>
        <time>2013-05-12T13:49:34Z</time>
      </trkpt>
      <trkpt lat="40.8022510" lon="0.1055360">
        <ele>708.2</ele>
        <time>2013-05-12T13:49:38Z</time>
      </trkpt>
      <trkpt lat="40.8022900" lon="0.1057850">
        <ele>708.4</ele>
        <time>2013-05-12T13:49:42Z</time>
      </trkpt>
      <trkpt lat="40.8023570" lon="0.1059720">
        <ele>709.6</ele>
        <time>2013-05-12T13:49:46Z</time>
      </trkpt>
      <trkpt lat="40.8024310" lon="0.1060860">
        <ele>710.2</ele>
        <time>2013-05-12T13:49:49Z</time>
      </trkpt>
      <trkpt lat="40.8025930" lon="0.1063850">
        <ele>710.5</ele>
        <time>2013-05-12T13:49:55Z</time>
      </trkpt>
      <trkpt lat="40.8026190" lon="0.1064400">
        <ele>710.4</ele>
        <time>2013-05-12T13:49:56Z</time>
      </trkpt>
      <trkpt lat="40.8028320" lon="0.1067040">
        <ele>709.5</ele>
        <time>2013-05-12T13:50:02Z</time>
      </trkpt>
      <trkpt lat="40.8029200" lon="0.1068130">
        <ele>709.1</ele>
        <time>2013-05-12T13:50:04Z</time>
      </trkpt>
      <trkpt lat="40.8030330" lon="0.1071030">
        <ele>708.4</ele>
        <time>2013-05-12T13:50:08Z</time>
      </trkpt>
      <trkpt lat="40.8030740" lon="0.1073160">
        <ele>709.6</ele>
        <time>2013-05-12T13:50:12Z</time>
      </trkpt>
      <trkpt lat="40.8031020" lon="0.1074120">
        <ele>710.1</ele>
        <time>2013-05-12T13:50:14Z</time>
      </trkpt>
      <trkpt lat="40.8032120" lon="0.1076180">
        <ele>710.1</ele>
        <time>2013-05-12T13:50:18Z</time>
      </trkpt>
      <trkpt lat="40.8034550" lon="0.1079220">
        <ele>708.9</ele>
        <time>2013-05-12T13:50:24Z</time>
      </trkpt>
      <trkpt lat="40.8036470" lon="0.1082260">
        <ele>707.8</ele>
        <time>2013-05-12T13:50:29Z</time>
      </trkpt>
      <trkpt lat="40.8037460" lon="0.1087240">
        <ele>706.3</ele>
        <time>2013-05-12T13:50:35Z</time>
      </trkpt>
      <trkpt lat="40.8037650" lon="0.1088090">
        <ele>706.0</ele>
        <time>2013-05-12T13:50:36Z</time>
      </trkpt>
      <trkpt lat="40.8038280" lon="0.1090690">
        <ele>704.7</ele>
        <time>2013-05-12T13:50:39Z</time>
      </trkpt>
      <trkpt lat="40.8038850" lon="0.1092430">
        <ele>703.7</ele>
        <time>2013-05-12T13:50:41Z</time>
      </trkpt>
      <trkpt lat="40.8040380" lon="0.1095610">
        <ele>702.7</ele>
        <time>2013-05-12T13:50:45Z</time>
      </trkpt>
      <trkpt lat="40.8041160" lon="0.1098480">
        <ele>701.5</ele>
        <time>2013-05-12T13:50:48Z</time>
      </trkpt>
      <trkpt lat="40.8042400" lon="0.1105480">
        <ele>699.5</ele>
        <time>2013-05-12T13:50:55Z</time>
      </trkpt>
      <trkpt lat="40.8044000" lon="0.1108750">
        <ele>697.6</ele>
        <time>2013-05-12T13:50:59Z</time>
      </trkpt>
      <trkpt lat="40.8045420" lon="0.1110770">
        <ele>697.6</ele>
        <time>2013-05-12T13:51:02Z</time>
      </trkpt>
      <trkpt lat="40.8047810" lon="0.1112960">
        <ele>696.6</ele>
        <time>2013-05-12T13:51:06Z</time>
      </trkpt>
      <trkpt lat="40.8048500" lon="0.1113210">
        <ele>696.2</ele>
        <time>2013-05-12T13:51:07Z</time>
      </trkpt>
      <trkpt lat="40.8049930" lon="0.1114490">
        <ele>695.8</ele>
        <time>2013-05-12T13:51:11Z</time>
      </trkpt>
      <trkpt lat="40.8049860" lon="0.1115130">
        <ele>695.8</ele>
        <time>2013-05-12T13:51:12Z</time>
      </trkpt>
      <trkpt lat="40.8049370" lon="0.1118760">
        <ele>694.7</ele>
        <time>2013-05-12T13:51:17Z</time>
      </trkpt>
      <trkpt lat="40.8049520" lon="0.1121800">
        <ele>693.2</ele>
        <time>2013-05-12T13:51:21Z</time>
      </trkpt>
      <trkpt lat="40.8050950" lon="0.1127040">
        <ele>690.3</ele>
        <time>2013-05-12T13:51:27Z</time>
      </trkpt>
      <trkpt lat="40.8052720" lon="0.1132740">
        <ele>686.3</ele>
        <time>2013-05-12T13:51:33Z</time>
      </trkpt>
      <trkpt lat="40.8052990" lon="0.1133470">
        <ele>685.3</ele>
        <time>2013-05-12T13:51:34Z</time>
      </trkpt>
      <trkpt lat="40.8054560" lon="0.1133970">
        <ele>681.5</ele>
        <time>2013-05-12T13:51:38Z</time>
      </trkpt>
      <trkpt lat="40.8056250" lon="0.1132550">
        <ele>679.4</ele>
        <time>2013-05-12T13:51:42Z</time>
      </trkpt>
      <trkpt lat="40.8057060" lon="0.1133330">
        <ele>678.9</ele>
        <time>2013-05-12T13:51:44Z</time>
      </trkpt>
      <trkpt lat="40.8057580" lon="0.1135010">
        <ele>679.4</ele>
        <time>2013-05-12T13:51:47Z</time>
      </trkpt>
      <trkpt lat="40.8057890" lon="0.1137920">
        <ele>680.7</ele>
        <time>2013-05-12T13:51:53Z</time>
      </trkpt>
      <trkpt lat="40.8057950" lon="0.1138370">
        <ele>681.0</ele>
        <time>2013-05-12T13:51:54Z</time>
      </trkpt>
      <trkpt lat="40.8058050" lon="0.1138850">
        <ele>681.4</ele>
        <time>2013-05-12T13:51:55Z</time>
      </trkpt>
      <trkpt lat="40.8058200" lon="0.1139280">
        <ele>681.7</ele>
        <time>2013-05-12T13:51:56Z</time>
      </trkpt>
      <trkpt lat="40.8059150" lon="0.1141640">
        <ele>683.2</ele>
        <time>2013-05-12T13:52:02Z</time>
      </trkpt>
      <trkpt lat="40.8059610" lon="0.1143060">
        <ele>683.5</ele>
        <time>2013-05-12T13:52:05Z</time>
      </trkpt>
      <trkpt lat="40.8060600" lon="0.1144750">
        <ele>683.2</ele>
        <time>2013-05-12T13:52:09Z</time>
      </trkpt>
      <trkpt lat="40.8060960" lon="0.1145060">
        <ele>683.2</ele>
        <time>2013-05-12T13:52:10Z</time>
      </trkpt>
      <trkpt lat="40.8061760" lon="0.1145680">
        <ele>683.0</ele>
        <time>2013-05-12T13:52:12Z</time>
      </trkpt>
      <trkpt lat="40.8064460" lon="0.1148550">
        <ele>682.4</ele>
        <time>2013-05-12T13:52:19Z</time>
      </trkpt>
      <trkpt lat="40.8065990" lon="0.1150320">
        <ele>682.9</ele>
        <time>2013-05-12T13:52:24Z</time>
      </trkpt>
      <trkpt lat="40.8066780" lon="0.1152310">
        <ele>683.3</ele>
        <time>2013-05-12T13:52:28Z</time>
      </trkpt>
      <trkpt lat="40.8067960" lon="0.1156890">
        <ele>682.4</ele>
        <time>2013-05-12T13:52:36Z</time>
      </trkpt>
      <trkpt lat="40.8068320" lon="0.1158150">
        <ele>682.1</ele>
        <time>2013-05-12T13:52:38Z</time>
      </trkpt>
      <trkpt lat="40.8068850" lon="0.1161880">
        <ele>680.1</ele>
        <time>2013-05-12T13:52:43Z</time>
      </trkpt>
      <trkpt lat="40.8069260" lon="0.1164070">
        <ele>678.9</ele>
        <time>2013-05-12T13:52:46Z</time>
      </trkpt>
      <trkpt lat="40.8069400" lon="0.1164800">
        <ele>678.0</ele>
        <time>2013-05-12T13:52:47Z</time>
      </trkpt>
      <trkpt lat="40.8069920" lon="0.1167030">
        <ele>676.5</ele>
        <time>2013-05-12T13:52:50Z</time>
      </trkpt>
      <trkpt lat="40.8070370" lon="0.1169870">
        <ele>674.0</ele>
        <time>2013-05-12T13:52:54Z</time>
      </trkpt>
      <trkpt lat="40.8070910" lon="0.1171760">
        <ele>671.8</ele>
        <time>2013-05-12T13:52:57Z</time>
      </trkpt>
      <trkpt lat="40.8071730" lon="0.1173320">
        <ele>669.9</ele>
        <time>2013-05-12T13:53:00Z</time>
      </trkpt>
      <trkpt lat="40.8073630" lon="0.1174940">
        <ele>666.9</ele>
        <time>2013-05-12T13:53:04Z</time>
      </trkpt>
      <trkpt lat="40.8075020" lon="0.1175010">
        <ele>665.1</ele>
        <time>2013-05-12T13:53:07Z</time>
      </trkpt>
      <trkpt lat="40.8076840" lon="0.1174120">
        <ele>663.5</ele>
        <time>2013-05-12T13:53:11Z</time>
      </trkpt>
      <trkpt lat="40.8077480" lon="0.1174870">
        <ele>661.6</ele>
        <time>2013-05-12T13:53:14Z</time>
      </trkpt>
      <trkpt lat="40.8077160" lon="0.1175430">
        <ele>660.6</ele>
        <time>2013-05-12T13:53:17Z</time>
      </trkpt>
      <trkpt lat="40.8075690" lon="0.1176210">
        <ele>659.7</ele>
        <time>2013-05-12T13:53:23Z</time>
      </trkpt>
      <trkpt lat="40.8074520" lon="0.1176920">
        <ele>660.0</ele>
        <time>2013-05-12T13:53:27Z</time>
      </trkpt>
      <trkpt lat="40.8073850" lon="0.1177340">
        <ele>660.0</ele>
        <time>2013-05-12T13:53:29Z</time>
      </trkpt>
      <trkpt lat="40.8071340" lon="0.1178980">
        <ele>660.0</ele>
        <time>2013-05-12T13:53:36Z</time>
      </trkpt>
      <trkpt lat="40.8069770" lon="0.1180130">
        <ele>659.9</ele>
        <time>2013-05-12T13:53:40Z</time>
      </trkpt>
      <trkpt lat="40.8067280" lon="0.1180020">
        <ele>659.1</ele>
        <time>2013-05-12T13:53:45Z</time>
      </trkpt>
      <trkpt lat="40.8065320" lon="0.1178030">
        <ele>658.1</ele>
        <time>2013-05-12T13:53:49Z</time>
      </trkpt>
      <trkpt lat="40.8063130" lon="0.1174450">
        <ele>657.0</ele>
        <time>2013-05-12T13:53:54Z</time>
      </trkpt>
      <trkpt lat="40.8060790" lon="0.1170640">
        <ele>654.6</ele>
        <time>2013-05-12T13:54:00Z</time>
      </trkpt>
      <trkpt lat="40.8059390" lon="0.1168320">
        <ele>653.4</ele>
        <time>2013-05-12T13:54:04Z</time>
      </trkpt>
      <trkpt lat="40.8057670" lon="0.1167550">
        <ele>652.1</ele>
        <time>2013-05-12T13:54:08Z</time>
      </trkpt>
      <trkpt lat="40.8056420" lon="0.1168690">
        <ele>651.1</ele>
        <time>2013-05-12T13:54:11Z</time>
      </trkpt>
      <trkpt lat="40.8056210" lon="0.1170740">
        <ele>650.6</ele>
        <time>2013-05-12T13:54:14Z</time>
      </trkpt>
      <trkpt lat="40.8056780" lon="0.1176490">
        <ele>648.7</ele>
        <time>2013-05-12T13:54:21Z</time>
      </trkpt>
      <trkpt lat="40.8057480" lon="0.1180570">
        <ele>647.6</ele>
        <time>2013-05-12T13:54:26Z</time>
      </trkpt>
      <trkpt lat="40.8057640" lon="0.1181330">
        <ele>647.4</ele>
        <time>2013-05-12T13:54:27Z</time>
      </trkpt>
      <trkpt lat="40.8057400" lon="0.1184430">
        <ele>646.5</ele>
        <time>2013-05-12T13:54:31Z</time>
      </trkpt>
      <trkpt lat="40.8057130" lon="0.1185180">
        <ele>646.0</ele>
        <time>2013-05-12T13:54:32Z</time>
      </trkpt>
      <trkpt lat="40.8056220" lon="0.1187490">
        <ele>644.8</ele>
        <time>2013-05-12T13:54:35Z</time>
      </trkpt>
      <trkpt lat="40.8054370" lon="0.1192360">
        <ele>642.4</ele>
        <time>2013-05-12T13:54:41Z</time>
      </trkpt>
      <trkpt lat="40.8053760" lon="0.1196460">
        <ele>641.2</ele>
        <time>2013-05-12T13:54:46Z</time>
      </trkpt>
      <trkpt lat="40.8054490" lon="0.1202610">
        <ele>639.9</ele>
        <time>2013-05-12T13:54:54Z</time>
      </trkpt>
      <trkpt lat="40.8053850" lon="0.1206290">
        <ele>638.2</ele>
        <time>2013-05-12T13:54:59Z</time>
      </trkpt>
      <trkpt lat="40.8052470" lon="0.1207510">
        <ele>637.6</ele>
        <time>2013-05-12T13:55:02Z</time>
      </trkpt>
      <trkpt lat="40.8050790" lon="0.1206890">
        <ele>636.6</ele>
        <time>2013-05-12T13:55:05Z</time>
      </trkpt>
      <trkpt lat="40.8048720" lon="0.1204340">
        <ele>635.0</ele>
        <time>2013-05-12T13:55:09Z</time>
      </trkpt>
      <trkpt lat="40.8047760" lon="0.1202800">
        <ele>634.2</ele>
        <time>2013-05-12T13:55:11Z</time>
      </trkpt>
      <trkpt lat="40.8046180" lon="0.1200540">
        <ele>632.8</ele>
        <time>2013-05-12T13:55:14Z</time>
      </trkpt>
      <trkpt lat="40.8042920" lon="0.1198670">
        <ele>632.0</ele>
        <time>2013-05-12T13:55:19Z</time>
      </trkpt>
      <trkpt lat="40.8042210" lon="0.1198720">
        <ele>631.9</ele>
        <time>2013-05-12T13:55:20Z</time>
      </trkpt>
      <trkpt lat="40.8040890" lon="0.1199010">
        <ele>631.8</ele>
        <time>2013-05-12T13:55:22Z</time>
      </trkpt>
      <trkpt lat="40.8039280" lon="0.1200410">
        <ele>632.2</ele>
        <time>2013-05-12T13:55:26Z</time>
      </trkpt>
      <trkpt lat="40.8039070" lon="0.1202050">
        <ele>633.8</ele>
        <time>2013-05-12T13:55:30Z</time>
      </trkpt>
      <trkpt lat="40.8039130" lon="0.1203280">
        <ele>634.8</ele>
        <time>2013-05-12T13:55:33Z</time>
      </trkpt>
      <trkpt lat="40.8039600" lon="0.1205610">
        <ele>635.6</ele>
        <time>2013-05-12T13:55:38Z</time>
      </trkpt>
      <trkpt lat="40.8040030" lon="0.1207080">
        <ele>635.8</ele>
        <time>2013-05-12T13:55:41Z</time>
      </trkpt>
      <trkpt lat="40.8040550" lon="0.1208570">
        <ele>635.8</ele>
        <time>2013-05-12T13:55:44Z</time>
      </trkpt>
      <trkpt lat="40.8041200" lon="0.1210050">
        <ele>635.7</ele>
        <time>2013-05-12T13:55:47Z</time>
      </trkpt>
      <trkpt lat="40.8041600" lon="0.1211060">
        <ele>635.5</ele>
        <time>2013-05-12T13:55:49Z</time>
      </trkpt>
      <trkpt lat="40.8043090" lon="0.1213930">
        <ele>635.3</ele>
        <time>2013-05-12T13:55:55Z</time>
      </trkpt>
      <trkpt lat="40.8044690" lon="0.1216120">
        <ele>635.2</ele>
        <time>2013-05-12T13:56:00Z</time>
      </trkpt>
      <trkpt lat="40.8045830" lon="0.1218120">
        <ele>635.0</ele>
        <time>2013-05-12T13:56:04Z</time>
      </trkpt>
      <trkpt lat="40.8046550" lon="0.1219740">
        <ele>634.6</ele>
        <time>2013-05-12T13:56:07Z</time>
      </trkpt>
      <trkpt lat="40.8047020" lon="0.1221390">
        <ele>634.6</ele>
        <time>2013-05-12T13:56:10Z</time>
      </trkpt>
      <trkpt lat="40.8046970" lon="0.1224840">
        <ele>633.9</ele>
        <time>2013-05-12T13:56:16Z</time>
      </trkpt>
      <trkpt lat="40.8046820" lon="0.1225990">
        <ele>633.7</ele>
        <time>2013-05-12T13:56:18Z</time>
      </trkpt>
      <trkpt lat="40.8046850" lon="0.1228340">
        <ele>633.7</ele>
        <time>2013-05-12T13:56:22Z</time>
      </trkpt>
      <trkpt lat="40.8047100" lon="0.1232550">
        <ele>633.7</ele>
        <time>2013-05-12T13:56:29Z</time>
      </trkpt>
      <trkpt lat="40.8047200" lon="0.1233910">
        <ele>633.2</ele>
        <time>2013-05-12T13:56:31Z</time>
      </trkpt>
      <trkpt lat="40.8048330" lon="0.1236390">
        <ele>632.5</ele>
        <time>2013-05-12T13:56:36Z</time>
      </trkpt>
      <trkpt lat="40.8048830" lon="0.1237410">
        <ele>632.2</ele>
        <time>2013-05-12T13:56:41Z</time>
      </trkpt>
      <trkpt lat="40.8048830" lon="0.1237420">
        <ele>632.1</ele>
        <time>2013-05-12T13:56:42Z</time>
      </trkpt>
      <trkpt lat="40.8049500" lon="0.1238530">
        <ele>631.8</ele>
        <time>2013-05-12T13:56:49Z</time>
      </trkpt>
      <trkpt lat="40.8050370" lon="0.1240160">
        <ele>631.9</ele>
        <time>2013-05-12T13:56:55Z</time>
      </trkpt>
      <trkpt lat="40.8051230" lon="0.1242470">
        <ele>632.1</ele>
        <time>2013-05-12T13:57:00Z</time>
      </trkpt>
      <trkpt lat="40.8051750" lon="0.1244460">
        <ele>632.5</ele>
        <time>2013-05-12T13:57:04Z</time>
      </trkpt>
      <trkpt lat="40.8052300" lon="0.1246440">
        <ele>633.0</ele>
        <time>2013-05-12T13:57:08Z</time>
      </trkpt>
      <trkpt lat="40.8052440" lon="0.1249820">
        <ele>633.2</ele>
        <time>2013-05-12T13:57:14Z</time>
      </trkpt>
      <trkpt lat="40.8052090" lon="0.1250880">
        <ele>633.3</ele>
        <time>2013-05-12T13:57:16Z</time>
      </trkpt>
      <trkpt lat="40.8051800" lon="0.1251290">
        <ele>633.3</ele>
        <time>2013-05-12T13:57:17Z</time>
      </trkpt>
      <trkpt lat="40.8049520" lon="0.1252910">
        <ele>633.2</ele>
        <time>2013-05-12T13:57:23Z</time>
      </trkpt>
      <trkpt lat="40.8047790" lon="0.1253800">
        <ele>633.1</ele>
        <time>2013-05-12T13:57:27Z</time>
      </trkpt>
      <trkpt lat="40.8046770" lon="0.1255050">
        <ele>632.7</ele>
        <time>2013-05-12T13:57:30Z</time>
      </trkpt>
      <trkpt lat="40.8046510" lon="0.1255540">
        <ele>632.7</ele>
        <time>2013-05-12T13:57:31Z</time>
      </trkpt>
      <trkpt lat="40.8044810" lon="0.1257550">
        <ele>633.1</ele>
        <time>2013-05-12T13:57:36Z</time>
      </trkpt>
      <trkpt lat="40.8043150" lon="0.1259460">
        <ele>633.0</ele>
        <time>2013-05-12T13:57:41Z</time>
      </trkpt>
      <trkpt lat="40.8042510" lon="0.1260950">
        <ele>633.0</ele>
        <time>2013-05-12T13:57:44Z</time>
      </trkpt>
      <trkpt lat="40.8041710" lon="0.1263810">
        <ele>632.8</ele>
        <time>2013-05-12T13:57:50Z</time>
      </trkpt>
      <trkpt lat="40.8041710" lon="0.1263810">
        <ele>632.6</ele>
        <time>2013-05-12T13:57:54Z</time>
      </trkpt>
      <trkpt lat="40.8037410" lon="0.1266440">
        <ele>631.9</ele>
        <time>2013-05-12T13:58:00Z</time>
      </trkpt>
      <trkpt lat="40.8036070" lon="0.1267390">
        <ele>631.6</ele>
        <time>2013-05-12T13:58:03Z</time>
      </trkpt>
      <trkpt lat="40.8035580" lon="0.1267610">
        <ele>631.3</ele>
        <time>2013-05-12T13:58:04Z</time>
      </trkpt>
      <trkpt lat="40.8034570" lon="0.1267920">
        <ele>630.6</ele>
        <time>2013-05-12T13:58:06Z</time>
      </trkpt>
      <trkpt lat="40.8033330" lon="0.1268640">
        <ele>630.7</ele>
        <time>2013-05-12T13:58:09Z</time>
      </trkpt>
      <trkpt lat="40.8031500" lon="0.1269830">
        <ele>630.5</ele>
        <time>2013-05-12T13:58:13Z</time>
      </trkpt>
      <trkpt lat="40.8028590" lon="0.1272420">
        <ele>629.8</ele>
        <time>2013-05-12T13:58:19Z</time>
      </trkpt>
      <trkpt lat="40.8025520" lon="0.1274650">
        <ele>630.4</ele>
        <time>2013-05-12T13:58:26Z</time>
      </trkpt>
      <trkpt lat="40.8024700" lon="0.1275290">
        <ele>630.8</ele>
        <time>2013-05-12T13:58:28Z</time>
      </trkpt>
      <trkpt lat="40.8023090" lon="0.1276960">
        <ele>630.8</ele>
        <time>2013-05-12T13:58:32Z</time>
      </trkpt>
      <trkpt lat="40.8022260" lon="0.1278060">
        <ele>630.5</ele>
        <time>2013-05-12T13:58:34Z</time>
      </trkpt>
      <trkpt lat="40.8018810" lon="0.1281480">
        <ele>629.9</ele>
        <time>2013-05-12T13:58:41Z</time>
      </trkpt>
      <trkpt lat="40.8015450" lon="0.1284210">
        <ele>629.5</ele>
        <time>2013-05-12T13:58:48Z</time>
      </trkpt>
      <trkpt lat="40.8013390" lon="0.1285640">
        <ele>631.5</ele>
        <time>2013-05-12T13:58:54Z</time>
      </trkpt>
      <trkpt lat="40.8012180" lon="0.1286510">
        <ele>633.0</ele>
        <time>2013-05-12T13:58:58Z</time>
      </trkpt>
      <trkpt lat="40.8011450" lon="0.1287330">
        <ele>633.9</ele>
        <time>2013-05-12T13:59:01Z</time>
      </trkpt>
      <trkpt lat="40.8010780" lon="0.1288270">
        <ele>634.8</ele>
        <time>2013-05-12T13:59:04Z</time>
      </trkpt>
      <trkpt lat="40.8010540" lon="0.1288630">
        <ele>634.9</ele>
        <time>2013-05-12T13:59:05Z</time>
      </trkpt>
      <trkpt lat="40.8009880" lon="0.1289790">
        <ele>635.2</ele>
        <time>2013-05-12T13:59:08Z</time>
      </trkpt>
      <trkpt lat="40.8008300" lon="0.1293050">
        <ele>634.9</ele>
        <time>2013-05-12T13:59:15Z</time>
      </trkpt>
      <trkpt lat="40.8007200" lon="0.1294740">
        <ele>635.8</ele>
        <time>2013-05-12T13:59:20Z</time>
      </trkpt>
      <trkpt lat="40.8005850" lon="0.1295220">
        <ele>637.1</ele>
        <time>2013-05-12T13:59:24Z</time>
      </trkpt>
      <trkpt lat="40.8004400" lon="0.1295140">
        <ele>637.0</ele>
        <time>2013-05-12T13:59:28Z</time>
      </trkpt>
      <trkpt lat="40.8001240" lon="0.1294650">
        <ele>636.5</ele>
        <time>2013-05-12T13:59:35Z</time>
      </trkpt>
      <trkpt lat="40.7999820" lon="0.1294590">
        <ele>636.5</ele>
        <time>2013-05-12T13:59:38Z</time>
      </trkpt>
      <trkpt lat="40.7997550" lon="0.1295270">
        <ele>636.6</ele>
        <time>2013-05-12T13:59:43Z</time>
      </trkpt>
      <trkpt lat="40.7995480" lon="0.1296200">
        <ele>637.0</ele>
        <time>2013-05-12T13:59:48Z</time>
      </trkpt>
      <trkpt lat="40.7995080" lon="0.1296410">
        <ele>637.1</ele>
        <time>2013-05-12T13:59:49Z</time>
      </trkpt>
      <trkpt lat="40.7992440" lon="0.1297280">
        <ele>637.2</ele>
        <time>2013-05-12T13:59:56Z</time>
      </trkpt>
      <trkpt lat="40.7990250" lon="0.1296100">
        <ele>636.5</ele>
        <time>2013-05-12T14:00:01Z</time>
      </trkpt>
      <trkpt lat="40.7987410" lon="0.1293380">
        <ele>636.8</ele>
        <time>2013-05-12T14:00:08Z</time>
      </trkpt>
      <trkpt lat="40.7985350" lon="0.1291770">
        <ele>638.0</ele>
        <time>2013-05-12T14:00:14Z</time>
      </trkpt>
      <trkpt lat="40.7983420" lon="0.1290800">
        <ele>638.8</ele>
        <time>2013-05-12T14:00:19Z</time>
      </trkpt>
      <trkpt lat="40.7979860" lon="0.1290260">
        <ele>639.3</ele>
        <time>2013-05-12T14:00:27Z</time>
      </trkpt>
      <trkpt lat="40.7977190" lon="0.1291000">
        <ele>638.9</ele>
        <time>2013-05-12T14:00:33Z</time>
      </trkpt>
      <trkpt lat="40.7975480" lon="0.1290590">
        <ele>638.9</ele>
        <time>2013-05-12T14:00:37Z</time>
      </trkpt>
      <trkpt lat="40.7973580" lon="0.1291130">
        <ele>638.4</ele>
        <time>2013-05-12T14:00:42Z</time>
      </trkpt>
      <trkpt lat="40.7973060" lon="0.1291970">
        <ele>638.3</ele>
        <time>2013-05-12T14:00:44Z</time>
      </trkpt>
      <trkpt lat="40.7972780" lon="0.1294020">
        <ele>638.6</ele>
        <time>2013-05-12T14:00:48Z</time>
      </trkpt>
      <trkpt lat="40.7973580" lon="0.1296500">
        <ele>638.1</ele>
        <time>2013-05-12T14:00:52Z</time>
      </trkpt>
      <trkpt lat="40.7974820" lon="0.1299250">
        <ele>637.2</ele>
        <time>2013-05-12T14:00:56Z</time>
      </trkpt>
      <trkpt lat="40.7975210" lon="0.1302650">
        <ele>636.1</ele>
        <time>2013-05-12T14:01:00Z</time>
      </trkpt>
      <trkpt lat="40.7975020" lon="0.1303460">
        <ele>635.8</ele>
        <time>2013-05-12T14:01:01Z</time>
      </trkpt>
      <trkpt lat="40.7974070" lon="0.1306250">
        <ele>635.3</ele>
        <time>2013-05-12T14:01:05Z</time>
      </trkpt>
      <trkpt lat="40.7971260" lon="0.1310220">
        <ele>635.8</ele>
        <time>2013-05-12T14:01:13Z</time>
      </trkpt>
      <trkpt lat="40.7969940" lon="0.1312020">
        <ele>636.1</ele>
        <time>2013-05-12T14:01:17Z</time>
      </trkpt>
      <trkpt lat="40.7967900" lon="0.1313570">
        <ele>636.6</ele>
        <time>2013-05-12T14:01:22Z</time>
      </trkpt>
      <trkpt lat="40.7965830" lon="0.1315140">
        <ele>636.2</ele>
        <time>2013-05-12T14:01:27Z</time>
      </trkpt>
      <trkpt lat="40.7963340" lon="0.1318050">
        <ele>636.5</ele>
        <time>2013-05-12T14:01:34Z</time>
      </trkpt>
      <trkpt lat="40.7960710" lon="0.1320900">
        <ele>637.8</ele>
        <time>2013-05-12T14:01:42Z</time>
      </trkpt>
      <trkpt lat="40.7960020" lon="0.1321510">
        <ele>638.1</ele>
        <time>2013-05-12T14:01:44Z</time>
      </trkpt>
      <trkpt lat="40.7958180" lon="0.1322670">
        <ele>639.1</ele>
        <time>2013-05-12T14:01:49Z</time>
      </trkpt>
      <trkpt lat="40.7955740" lon="0.1323060">
        <ele>640.4</ele>
        <time>2013-05-12T14:01:56Z</time>
      </trkpt>
      <trkpt lat="40.7954290" lon="0.1322930">
        <ele>641.5</ele>
        <time>2013-05-12T14:02:01Z</time>
      </trkpt>
      <trkpt lat="40.7952890" lon="0.1322950">
        <ele>643.0</ele>
        <time>2013-05-12T14:02:06Z</time>
      </trkpt>
      <trkpt lat="40.7951240" lon="0.1322360">
        <ele>644.7</ele>
        <time>2013-05-12T14:02:12Z</time>
      </trkpt>
      <trkpt lat="40.7949230" lon="0.1320590">
        <ele>646.5</ele>
        <time>2013-05-12T14:02:20Z</time>
      </trkpt>
      <trkpt lat="40.7947760" lon="0.1319170">
        <ele>648.2</ele>
        <time>2013-05-12T14:02:27Z</time>
      </trkpt>
      <trkpt lat="40.7946550" lon="0.1318100">
        <ele>650.5</ele>
        <time>2013-05-12T14:02:33Z</time>
      </trkpt>
      <trkpt lat="40.7945300" lon="0.1317750">
        <ele>652.9</ele>
        <time>2013-05-12T14:02:39Z</time>
      </trkpt>
      <trkpt lat="40.7944200" lon="0.1317740">
        <ele>654.5</ele>
        <time>2013-05-12T14:02:44Z</time>
      </trkpt>
      <trkpt lat="40.7942600" lon="0.1317350">
        <ele>656.1</ele>
        <time>2013-05-12T14:02:50Z</time>
      </trkpt>
      <trkpt lat="40.7940480" lon="0.1316380">
        <ele>656.5</ele>
        <time>2013-05-12T14:02:57Z</time>
      </trkpt>
      <trkpt lat="40.7940130" lon="0.1316450">
        <ele>656.4</ele>
        <time>2013-05-12T14:02:58Z</time>
      </trkpt>
      <trkpt lat="40.7938530" lon="0.1318540">
        <ele>656.8</ele>
        <time>2013-05-12T14:03:04Z</time>
      </trkpt>
      <trkpt lat="40.7936080" lon="0.1319410">
        <ele>656.1</ele>
        <time>2013-05-12T14:03:09Z</time>
      </trkpt>
      <trkpt lat="40.7934060" lon="0.1320190">
        <ele>654.6</ele>
        <time>2013-05-12T14:03:12Z</time>
      </trkpt>
      <trkpt lat="40.7930290" lon="0.1321750">
        <ele>651.6</ele>
        <time>2013-05-12T14:03:17Z</time>
      </trkpt>
      <trkpt lat="40.7929610" lon="0.1322150">
        <ele>650.6</ele>
        <time>2013-05-12T14:03:18Z</time>
      </trkpt>
      <trkpt lat="40.7927640" lon="0.1322870">
        <ele>649.0</ele>
        <time>2013-05-12T14:03:21Z</time>
      </trkpt>
      <trkpt lat="40.7927030" lon="0.1322940">
        <ele>648.7</ele>
        <time>2013-05-12T14:03:22Z</time>
      </trkpt>
      <trkpt lat="40.7925350" lon="0.1324190">
        <ele>647.6</ele>
        <time>2013-05-12T14:03:25Z</time>
      </trkpt>
      <trkpt lat="40.7925170" lon="0.1325920">
        <ele>646.5</ele>
        <time>2013-05-12T14:03:27Z</time>
      </trkpt>
      <trkpt lat="40.7925350" lon="0.1326690">
        <ele>646.2</ele>
        <time>2013-05-12T14:03:28Z</time>
      </trkpt>
      <trkpt lat="40.7925820" lon="0.1330510">
        <ele>646.1</ele>
        <time>2013-05-12T14:03:33Z</time>
      </trkpt>
      <trkpt lat="40.7925700" lon="0.1333730">
        <ele>645.3</ele>
        <time>2013-05-12T14:03:37Z</time>
      </trkpt>
      <trkpt lat="40.7925910" lon="0.1336150">
        <ele>644.5</ele>
        <time>2013-05-12T14:03:40Z</time>
      </trkpt>
      <trkpt lat="40.7925590" lon="0.1339140">
        <ele>643.3</ele>
        <time>2013-05-12T14:03:44Z</time>
      </trkpt>
      <trkpt lat="40.7925380" lon="0.1339730">
        <ele>643.2</ele>
        <time>2013-05-12T14:03:45Z</time>
      </trkpt>
      <trkpt lat="40.7924680" lon="0.1341190">
        <ele>643.0</ele>
        <time>2013-05-12T14:03:48Z</time>
      </trkpt>
      <trkpt lat="40.7924470" lon="0.1341600">
        <ele>643.1</ele>
        <time>2013-05-12T14:03:49Z</time>
      </trkpt>
      <trkpt lat="40.7923950" lon="0.1343390">
        <ele>644.1</ele>
        <time>2013-05-12T14:03:54Z</time>
      </trkpt>
      <trkpt lat="40.7923500" lon="0.1344530">
        <ele>644.8</ele>
        <time>2013-05-12T14:03:58Z</time>
      </trkpt>
      <trkpt lat="40.7923330" lon="0.1344710">
        <ele>645.0</ele>
        <time>2013-05-12T14:03:59Z</time>
      </trkpt>
      <trkpt lat="40.7923250" lon="0.1345200">
        <ele>645.4</ele>
        <time>2013-05-12T14:04:01Z</time>
      </trkpt>
      <trkpt lat="40.7923020" lon="0.1346310">
        <ele>645.9</ele>
        <time>2013-05-12T14:04:05Z</time>
      </trkpt>
      <trkpt lat="40.7922930" lon="0.1346620">
        <ele>646.0</ele>
        <time>2013-05-12T14:04:06Z</time>
      </trkpt>
      <trkpt lat="40.7922470" lon="0.1348480">
        <ele>647.3</ele>
        <time>2013-05-12T14:04:12Z</time>
      </trkpt>
      <trkpt lat="40.7921830" lon="0.1350740">
        <ele>648.7</ele>
        <time>2013-05-12T14:04:19Z</time>
      </trkpt>
      <trkpt lat="40.7921050" lon="0.1352940">
        <ele>650.4</ele>
        <time>2013-05-12T14:04:26Z</time>
      </trkpt>
      <trkpt lat="40.7920460" lon="0.1354430">
        <ele>651.4</ele>
        <time>2013-05-12T14:04:31Z</time>
      </trkpt>
      <trkpt lat="40.7919380" lon="0.1356310">
        <ele>651.6</ele>
        <time>2013-05-12T14:04:38Z</time>
      </trkpt>
      <trkpt lat="40.7917910" lon="0.1357900">
        <ele>654.2</ele>
        <time>2013-05-12T14:04:46Z</time>
      </trkpt>
      <trkpt lat="40.7917490" lon="0.1359370">
        <ele>654.7</ele>
        <time>2013-05-12T14:04:52Z</time>
      </trkpt>
      <trkpt lat="40.7917170" lon="0.1360550">
        <ele>655.8</ele>
        <time>2013-05-12T14:04:58Z</time>
      </trkpt>
      <trkpt lat="40.7916980" lon="0.1360970">
        <ele>656.1</ele>
        <time>2013-05-12T14:05:00Z</time>
      </trkpt>
      <trkpt lat="40.7916360" lon="0.1361570">
        <ele>656.3</ele>
        <time>2013-05-12T14:05:04Z</time>
      </trkpt>
      <trkpt lat="40.7914840" lon="0.1362230">
        <ele>656.9</ele>
        <time>2013-05-12T14:05:11Z</time>
      </trkpt>
      <trkpt lat="40.7913710" lon="0.1363330">
        <ele>656.8</ele>
        <time>2013-05-12T14:05:15Z</time>
      </trkpt>
      <trkpt lat="40.7912360" lon="0.1365650">
        <ele>656.2</ele>
        <time>2013-05-12T14:05:20Z</time>
      </trkpt>
      <trkpt lat="40.7910480" lon="0.1366550">
        <ele>655.8</ele>
        <time>2013-05-12T14:05:24Z</time>
      </trkpt>
      <trkpt lat="40.7909960" lon="0.1366440">
        <ele>655.6</ele>
        <time>2013-05-12T14:05:25Z</time>
      </trkpt>
      <trkpt lat="40.7906730" lon="0.1365800">
        <ele>654.2</ele>
        <time>2013-05-12T14:05:30Z</time>
      </trkpt>
      <trkpt lat="40.7904050" lon="0.1365510">
        <ele>653.5</ele>
        <time>2013-05-12T14:05:34Z</time>
      </trkpt>
      <trkpt lat="40.7902470" lon="0.1365050">
        <ele>652.3</ele>
        <time>2013-05-12T14:05:37Z</time>
      </trkpt>
      <trkpt lat="40.7901880" lon="0.1364850">
        <ele>651.6</ele>
        <time>2013-05-12T14:05:39Z</time>
      </trkpt>
      <trkpt lat="40.7900600" lon="0.1364650">
        <ele>650.5</ele>
        <time>2013-05-12T14:05:45Z</time>
      </trkpt>
      <trkpt lat="40.7899940" lon="0.1364430">
        <ele>650.8</ele>
        <time>2013-05-12T14:05:48Z</time>
      </trkpt>
      <trkpt lat="40.7899440" lon="0.1363970">
        <ele>651.1</ele>
        <time>2013-05-12T14:05:50Z</time>
      </trkpt>
      <trkpt lat="40.7898720" lon="0.1362950">
        <ele>652.0</ele>
        <time>2013-05-12T14:05:53Z</time>
      </trkpt>
      <trkpt lat="40.7898270" lon="0.1362320">
        <ele>652.5</ele>
        <time>2013-05-12T14:05:55Z</time>
      </trkpt>
      <trkpt lat="40.7897850" lon="0.1361610">
        <ele>653.3</ele>
        <time>2013-05-12T14:05:57Z</time>
      </trkpt>
      <trkpt lat="40.7897660" lon="0.1361250">
        <ele>653.6</ele>
        <time>2013-05-12T14:05:58Z</time>
      </trkpt>
      <trkpt lat="40.7897480" lon="0.1360910">
        <ele>653.8</ele>
        <time>2013-05-12T14:05:59Z</time>
      </trkpt>
      <trkpt lat="40.7897300" lon="0.1360560">
        <ele>653.9</ele>
        <time>2013-05-12T14:06:00Z</time>
      </trkpt>
      <trkpt lat="40.7896320" lon="0.1357460">
        <ele>654.0</ele>
        <time>2013-05-12T14:06:07Z</time>
      </trkpt>
      <trkpt lat="40.7896200" lon="0.1356870">
        <ele>653.9</ele>
        <time>2013-05-12T14:06:08Z</time>
      </trkpt>
      <trkpt lat="40.7895930" lon="0.1352150">
        <ele>653.8</ele>
        <time>2013-05-12T14:06:16Z</time>
      </trkpt>
      <trkpt lat="40.7895260" lon="0.1349740">
        <ele>654.0</ele>
        <time>2013-05-12T14:06:21Z</time>
      </trkpt>
      <trkpt lat="40.7893950" lon="0.1347610">
        <ele>653.5</ele>
        <time>2013-05-12T14:06:27Z</time>
      </trkpt>
      <trkpt lat="40.7892870" lon="0.1347000">
        <ele>653.7</ele>
        <time>2013-05-12T14:06:33Z</time>
      </trkpt>
      <trkpt lat="40.7891650" lon="0.1347540">
        <ele>654.6</ele>
        <time>2013-05-12T14:06:38Z</time>
      </trkpt>
      <trkpt lat="40.7888830" lon="0.1348130">
        <ele>655.9</ele>
        <time>2013-05-12T14:06:47Z</time>
      </trkpt>
      <trkpt lat="40.7887440" lon="0.1347310">
        <ele>656.4</ele>
        <time>2013-05-12T14:06:51Z</time>
      </trkpt>
      <trkpt lat="40.7885310" lon="0.1344360">
        <ele>656.4</ele>
        <time>2013-05-12T14:06:59Z</time>
      </trkpt>
      <trkpt lat="40.7884410" lon="0.1343890">
        <ele>655.4</ele>
        <time>2013-05-12T14:07:03Z</time>
      </trkpt>
      <trkpt lat="40.7883330" lon="0.1342840">
        <ele>655.5</ele>
        <time>2013-05-12T14:07:07Z</time>
      </trkpt>
      <trkpt lat="40.7881880" lon="0.1341190">
        <ele>656.9</ele>
        <time>2013-05-12T14:07:13Z</time>
      </trkpt>
      <trkpt lat="40.7881060" lon="0.1339230">
        <ele>657.1</ele>
        <time>2013-05-12T14:07:19Z</time>
      </trkpt>
      <trkpt lat="40.7880200" lon="0.1336930">
        <ele>657.2</ele>
        <time>2013-05-12T14:07:26Z</time>
      </trkpt>
      <trkpt lat="40.7879240" lon="0.1334900">
        <ele>657.2</ele>
        <time>2013-05-12T14:07:33Z</time>
      </trkpt>
      <trkpt lat="40.7878310" lon="0.1333080">
        <ele>658.8</ele>
        <time>2013-05-12T14:07:39Z</time>
      </trkpt>
      <trkpt lat="40.7877360" lon="0.1331420">
        <ele>658.9</ele>
        <time>2013-05-12T14:07:44Z</time>
      </trkpt>
      <trkpt lat="40.7876110" lon="0.1329920">
        <ele>660.3</ele>
        <time>2013-05-12T14:07:50Z</time>
      </trkpt>
      <trkpt lat="40.7874370" lon="0.1328370">
        <ele>660.6</ele>
        <time>2013-05-12T14:07:56Z</time>
      </trkpt>
      <trkpt lat="40.7872540" lon="0.1327940">
        <ele>660.3</ele>
        <time>2013-05-12T14:08:01Z</time>
      </trkpt>
      <trkpt lat="40.7871210" lon="0.1328040">
        <ele>660.4</ele>
        <time>2013-05-12T14:08:05Z</time>
      </trkpt>
      <trkpt lat="40.7870390" lon="0.1328060">
        <ele>660.2</ele>
        <time>2013-05-12T14:08:09Z</time>
      </trkpt>
      <trkpt lat="40.7869970" lon="0.1327940">
        <ele>660.2</ele>
        <time>2013-05-12T14:08:12Z</time>
      </trkpt>
      <trkpt lat="40.7869740" lon="0.1327810">
        <ele>660.3</ele>
        <time>2013-05-12T14:08:14Z</time>
      </trkpt>
      <trkpt lat="40.7869540" lon="0.1327710">
        <ele>660.3</ele>
        <time>2013-05-12T14:08:15Z</time>
      </trkpt>
      <trkpt lat="40.7868430" lon="0.1327450">
        <ele>660.8</ele>
        <time>2013-05-12T14:08:20Z</time>
      </trkpt>
      <trkpt lat="40.7867850" lon="0.1327580">
        <ele>661.4</ele>
        <time>2013-05-12T14:08:23Z</time>
      </trkpt>
      <trkpt lat="40.7867230" lon="0.1327730">
        <ele>662.0</ele>
        <time>2013-05-12T14:08:26Z</time>
      </trkpt>
      <trkpt lat="40.7865800" lon="0.1328170">
        <ele>663.9</ele>
        <time>2013-05-12T14:08:33Z</time>
      </trkpt>
      <trkpt lat="40.7864960" lon="0.1328470">
        <ele>665.4</ele>
        <time>2013-05-12T14:08:37Z</time>
      </trkpt>
      <trkpt lat="40.7864270" lon="0.1328720">
        <ele>666.3</ele>
        <time>2013-05-12T14:08:40Z</time>
      </trkpt>
      <trkpt lat="40.7863800" lon="0.1328930">
        <ele>667.0</ele>
        <time>2013-05-12T14:08:42Z</time>
      </trkpt>
      <trkpt lat="40.7862200" lon="0.1328610">
        <ele>668.5</ele>
        <time>2013-05-12T14:08:48Z</time>
      </trkpt>
      <trkpt lat="40.7860370" lon="0.1327820">
        <ele>670.3</ele>
        <time>2013-05-12T14:08:55Z</time>
      </trkpt>
      <trkpt lat="40.7857850" lon="0.1327050">
        <ele>670.6</ele>
        <time>2013-05-12T14:09:03Z</time>
      </trkpt>
      <trkpt lat="40.7857080" lon="0.1326730">
        <ele>670.3</ele>
        <time>2013-05-12T14:09:05Z</time>
      </trkpt>
      <trkpt lat="40.7856250" lon="0.1326290">
        <ele>669.9</ele>
        <time>2013-05-12T14:09:07Z</time>
      </trkpt>
      <trkpt lat="40.7854680" lon="0.1323720">
        <ele>669.1</ele>
        <time>2013-05-12T14:09:12Z</time>
      </trkpt>
      <trkpt lat="40.7853880" lon="0.1320000">
        <ele>669.5</ele>
        <time>2013-05-12T14:09:19Z</time>
      </trkpt>
      <trkpt lat="40.7853330" lon="0.1317720">
        <ele>670.1</ele>
        <time>2013-05-12T14:09:24Z</time>
      </trkpt>
      <trkpt lat="40.7852930" lon="0.1316430">
        <ele>670.2</ele>
        <time>2013-05-12T14:09:27Z</time>
      </trkpt>
      <trkpt lat="40.7852120" lon="0.1313830">
        <ele>671.4</ele>
        <time>2013-05-12T14:09:34Z</time>
      </trkpt>
      <trkpt lat="40.7850760" lon="0.1313050">
        <ele>671.8</ele>
        <time>2013-05-12T14:09:39Z</time>
      </trkpt>
      <trkpt lat="40.7849180" lon="0.1312780">
        <ele>671.9</ele>
        <time>2013-05-12T14:09:44Z</time>
      </trkpt>
      <trkpt lat="40.7847190" lon="0.1313480">
        <ele>672.3</ele>
        <time>2013-05-12T14:09:50Z</time>
      </trkpt>
      <trkpt lat="40.7845420" lon="0.1314750">
        <ele>672.5</ele>
        <time>2013-05-12T14:09:56Z</time>
      </trkpt>
      <trkpt lat="40.7843870" lon="0.1316240">
        <ele>673.2</ele>
        <time>2013-05-12T14:10:01Z</time>
      </trkpt>
      <trkpt lat="40.7842150" lon="0.1318170">
        <ele>673.6</ele>
        <time>2013-05-12T14:10:07Z</time>
      </trkpt>
      <trkpt lat="40.7840940" lon="0.1318840">
        <ele>674.3</ele>
        <time>2013-05-12T14:10:12Z</time>
      </trkpt>
      <trkpt lat="40.7840690" lon="0.1318830">
        <ele>674.5</ele>
        <time>2013-05-12T14:10:13Z</time>
      </trkpt>
      <trkpt lat="40.7838990" lon="0.1321690">
        <ele>676.1</ele>
        <time>2013-05-12T14:10:20Z</time>
      </trkpt>
      <trkpt lat="40.7837260" lon="0.1323770">
        <ele>676.7</ele>
        <time>2013-05-12T14:10:26Z</time>
      </trkpt>
      <trkpt lat="40.7835760" lon="0.1325190">
        <ele>675.9</ele>
        <time>2013-05-12T14:10:31Z</time>
      </trkpt>
      <trkpt lat="40.7834820" lon="0.1325780">
        <ele>675.6</ele>
        <time>2013-05-12T14:10:35Z</time>
      </trkpt>
      <trkpt lat="40.7833350" lon="0.1326200">
        <ele>675.8</ele>
        <time>2013-05-12T14:10:40Z</time>
      </trkpt>
      <trkpt lat="40.7831730" lon="0.1326800">
        <ele>676.4</ele>
        <time>2013-05-12T14:10:46Z</time>
      </trkpt>
      <trkpt lat="40.7830240" lon="0.1326810">
        <ele>677.2</ele>
        <time>2013-05-12T14:10:52Z</time>
      </trkpt>
      <trkpt lat="40.7828750" lon="0.1325770">
        <ele>677.7</ele>
        <time>2013-05-12T14:10:58Z</time>
      </trkpt>
      <trkpt lat="40.7827130" lon="0.1325380">
        <ele>678.5</ele>
        <time>2013-05-12T14:11:05Z</time>
      </trkpt>
      <trkpt lat="40.7824680" lon="0.1324740">
        <ele>678.9</ele>
        <time>2013-05-12T14:11:14Z</time>
      </trkpt>
      <trkpt lat="40.7823250" lon="0.1324940">
        <ele>679.8</ele>
        <time>2013-05-12T14:11:20Z</time>
      </trkpt>
      <trkpt lat="40.7822260" lon="0.1326670">
        <ele>680.4</ele>
        <time>2013-05-12T14:11:27Z</time>
      </trkpt>
      <trkpt lat="40.7821250" lon="0.1327020">
        <ele>681.7</ele>
        <time>2013-05-12T14:11:32Z</time>
      </trkpt>
      <trkpt lat="40.7820390" lon="0.1327120">
        <ele>682.9</ele>
        <time>2013-05-12T14:11:36Z</time>
      </trkpt>
      <trkpt lat="40.7819460" lon="0.1327490">
        <ele>684.1</ele>
        <time>2013-05-12T14:11:40Z</time>
      </trkpt>
      <trkpt lat="40.7818470" lon="0.1327990">
        <ele>684.4</ele>
        <time>2013-05-12T14:11:44Z</time>
      </trkpt>
      <trkpt lat="40.7816680" lon="0.1329140">
        <ele>685.1</ele>
        <time>2013-05-12T14:11:51Z</time>
      </trkpt>
      <trkpt lat="40.7814730" lon="0.1330530">
        <ele>684.8</ele>
        <time>2013-05-12T14:11:57Z</time>
      </trkpt>
      <trkpt lat="40.7812450" lon="0.1331990">
        <ele>685.1</ele>
        <time>2013-05-12T14:12:03Z</time>
      </trkpt>
      <trkpt lat="40.7809720" lon="0.1334320">
        <ele>686.4</ele>
        <time>2013-05-12T14:12:11Z</time>
      </trkpt>
      <trkpt lat="40.7807070" lon="0.1336490">
        <ele>687.4</ele>
        <time>2013-05-12T14:12:19Z</time>
      </trkpt>
      <trkpt lat="40.7805970" lon="0.1338580">
        <ele>688.1</ele>
        <time>2013-05-12T14:12:25Z</time>
      </trkpt>
      <trkpt lat="40.7804630" lon="0.1340110">
        <ele>688.8</ele>
        <time>2013-05-12T14:12:30Z</time>
      </trkpt>
      <trkpt lat="40.7802800" lon="0.1342050">
        <ele>690.3</ele>
        <time>2013-05-12T14:12:37Z</time>
      </trkpt>
      <trkpt lat="40.7801860" lon="0.1344110">
        <ele>691.0</ele>
        <time>2013-05-12T14:12:42Z</time>
      </trkpt>
      <trkpt lat="40.7800860" lon="0.1345870">
        <ele>691.5</ele>
        <time>2013-05-12T14:12:47Z</time>
      </trkpt>
      <trkpt lat="40.7800760" lon="0.1347660">
        <ele>691.7</ele>
        <time>2013-05-12T14:12:51Z</time>
      </trkpt>
      <trkpt lat="40.7800820" lon="0.1349940">
        <ele>691.1</ele>
        <time>2013-05-12T14:12:57Z</time>
      </trkpt>
      <trkpt lat="40.7800840" lon="0.1352050">
        <ele>691.5</ele>
        <time>2013-05-12T14:13:03Z</time>
      </trkpt>
      <trkpt lat="40.7800420" lon="0.1353760">
        <ele>692.5</ele>
        <time>2013-05-12T14:13:08Z</time>
      </trkpt>
      <trkpt lat="40.7799790" lon="0.1354870">
        <ele>693.3</ele>
        <time>2013-05-12T14:13:12Z</time>
      </trkpt>
      <trkpt lat="40.7798760" lon="0.1356080">
        <ele>693.9</ele>
        <time>2013-05-12T14:13:17Z</time>
      </trkpt>
      <trkpt lat="40.7797050" lon="0.1357060">
        <ele>694.6</ele>
        <time>2013-05-12T14:13:22Z</time>
      </trkpt>
      <trkpt lat="40.7795080" lon="0.1357200">
        <ele>694.9</ele>
        <time>2013-05-12T14:13:28Z</time>
      </trkpt>
      <trkpt lat="40.7793210" lon="0.1357640">
        <ele>696.0</ele>
        <time>2013-05-12T14:13:34Z</time>
      </trkpt>
      <trkpt lat="40.7791060" lon="0.1358720">
        <ele>697.5</ele>
        <time>2013-05-12T14:13:41Z</time>
      </trkpt>
      <trkpt lat="40.7790180" lon="0.1359820">
        <ele>699.3</ele>
        <time>2013-05-12T14:13:46Z</time>
      </trkpt>
      <trkpt lat="40.7789520" lon="0.1362130">
        <ele>700.1</ele>
        <time>2013-05-12T14:13:52Z</time>
      </trkpt>
      <trkpt lat="40.7789570" lon="0.1363380">
        <ele>698.7</ele>
        <time>2013-05-12T14:13:56Z</time>
      </trkpt>
      <trkpt lat="40.7789470" lon="0.1364230">
        <ele>697.6</ele>
        <time>2013-05-12T14:14:01Z</time>
      </trkpt>
      <trkpt lat="40.7789640" lon="0.1366330">
        <ele>699.3</ele>
        <time>2013-05-12T14:14:08Z</time>
      </trkpt>
      <trkpt lat="40.7790060" lon="0.1369230">
        <ele>700.3</ele>
        <time>2013-05-12T14:14:14Z</time>
      </trkpt>
      <trkpt lat="40.7790880" lon="0.1372410">
        <ele>700.3</ele>
        <time>2013-05-12T14:14:20Z</time>
      </trkpt>
      <trkpt lat="40.7792100" lon="0.1375430">
        <ele>700.7</ele>
        <time>2013-05-12T14:14:27Z</time>
      </trkpt>
      <trkpt lat="40.7792350" lon="0.1377040">
        <ele>702.0</ele>
        <time>2013-05-12T14:14:31Z</time>
      </trkpt>
      <trkpt lat="40.7792030" lon="0.1380780">
        <ele>703.6</ele>
        <time>2013-05-12T14:14:38Z</time>
      </trkpt>
      <trkpt lat="40.7791600" lon="0.1382160">
        <ele>703.7</ele>
        <time>2013-05-12T14:14:41Z</time>
      </trkpt>
      <trkpt lat="40.7790360" lon="0.1383860">
        <ele>703.0</ele>
        <time>2013-05-12T14:14:46Z</time>
      </trkpt>
      <trkpt lat="40.7789770" lon="0.1384430">
        <ele>702.9</ele>
        <time>2013-05-12T14:14:49Z</time>
      </trkpt>
      <trkpt lat="40.7788790" lon="0.1386390">
        <ele>704.5</ele>
        <time>2013-05-12T14:14:56Z</time>
      </trkpt>
      <trkpt lat="40.7787580" lon="0.1387530">
        <ele>705.1</ele>
        <time>2013-05-12T14:15:01Z</time>
      </trkpt>
      <trkpt lat="40.7786120" lon="0.1388820">
        <ele>706.5</ele>
        <time>2013-05-12T14:15:07Z</time>
      </trkpt>
      <trkpt lat="40.7784310" lon="0.1390100">
        <ele>706.9</ele>
        <time>2013-05-12T14:15:13Z</time>
      </trkpt>
      <trkpt lat="40.7782130" lon="0.1391280">
        <ele>707.4</ele>
        <time>2013-05-12T14:15:19Z</time>
      </trkpt>
      <trkpt lat="40.7780370" lon="0.1392780">
        <ele>706.4</ele>
        <time>2013-05-12T14:15:25Z</time>
      </trkpt>
      <trkpt lat="40.7778920" lon="0.1393540">
        <ele>708.1</ele>
        <time>2013-05-12T14:15:30Z</time>
      </trkpt>
      <trkpt lat="40.7777450" lon="0.1394850">
        <ele>709.1</ele>
        <time>2013-05-12T14:15:37Z</time>
      </trkpt>
      <trkpt lat="40.7777160" lon="0.1396710">
        <ele>710.3</ele>
        <time>2013-05-12T14:15:43Z</time>
      </trkpt>
      <trkpt lat="40.7776760" lon="0.1398990">
        <ele>710.0</ele>
        <time>2013-05-12T14:15:49Z</time>
      </trkpt>
      <trkpt lat="40.7776850" lon="0.1400500">
        <ele>710.3</ele>
        <time>2013-05-12T14:15:53Z</time>
      </trkpt>
      <trkpt lat="40.7776310" lon="0.1402130">
        <ele>710.7</ele>
        <time>2013-05-12T14:15:57Z</time>
      </trkpt>
      <trkpt lat="40.7775240" lon="0.1403650">
        <ele>712.3</ele>
        <time>2013-05-12T14:16:03Z</time>
      </trkpt>
      <trkpt lat="40.7773860" lon="0.1404630">
        <ele>713.1</ele>
        <time>2013-05-12T14:16:08Z</time>
      </trkpt>
      <trkpt lat="40.7773170" lon="0.1405200">
        <ele>713.1</ele>
        <time>2013-05-12T14:16:13Z</time>
      </trkpt>
      <trkpt lat="40.7772770" lon="0.1405610">
        <ele>712.8</ele>
        <time>2013-05-12T14:16:17Z</time>
      </trkpt>
      <trkpt lat="40.7772490" lon="0.1405940">
        <ele>713.0</ele>
        <time>2013-05-12T14:16:19Z</time>
      </trkpt>
      <trkpt lat="40.7771440" lon="0.1405660">
        <ele>713.9</ele>
        <time>2013-05-12T14:16:23Z</time>
      </trkpt>
      <trkpt lat="40.7769380" lon="0.1404980">
        <ele>715.1</ele>
        <time>2013-05-12T14:16:29Z</time>
      </trkpt>
      <trkpt lat="40.7767200" lon="0.1404210">
        <ele>716.0</ele>
        <time>2013-05-12T14:16:35Z</time>
      </trkpt>
      <trkpt lat="40.7764670" lon="0.1403860">
        <ele>717.1</ele>
        <time>2013-05-12T14:16:43Z</time>
      </trkpt>
      <trkpt lat="40.7763280" lon="0.1403450">
        <ele>717.4</ele>
        <time>2013-05-12T14:16:48Z</time>
      </trkpt>
      <trkpt lat="40.7762000" lon="0.1401410">
        <ele>718.2</ele>
        <time>2013-05-12T14:16:54Z</time>
      </trkpt>
      <trkpt lat="40.7761350" lon="0.1399000">
        <ele>719.1</ele>
        <time>2013-05-12T14:17:00Z</time>
      </trkpt>
      <trkpt lat="40.7760880" lon="0.1397110">
        <ele>720.6</ele>
        <time>2013-05-12T14:17:06Z</time>
      </trkpt>
      <trkpt lat="40.7760590" lon="0.1395580">
        <ele>722.9</ele>
        <time>2013-05-12T14:17:12Z</time>
      </trkpt>
      <trkpt lat="40.7759840" lon="0.1394500">
        <ele>725.0</ele>
        <time>2013-05-12T14:17:19Z</time>
      </trkpt>
      <trkpt lat="40.7759180" lon="0.1393240">
        <ele>726.9</ele>
        <time>2013-05-12T14:17:25Z</time>
      </trkpt>
      <trkpt lat="40.7758500" lon="0.1391950">
        <ele>728.5</ele>
        <time>2013-05-12T14:17:31Z</time>
      </trkpt>
      <trkpt lat="40.7758140" lon="0.1390680">
        <ele>729.8</ele>
        <time>2013-05-12T14:17:37Z</time>
      </trkpt>
      <trkpt lat="40.7757420" lon="0.1389670">
        <ele>730.9</ele>
        <time>2013-05-12T14:17:42Z</time>
      </trkpt>
      <trkpt lat="40.7756370" lon="0.1388310">
        <ele>731.5</ele>
        <time>2013-05-12T14:17:48Z</time>
      </trkpt>
      <trkpt lat="40.7755270" lon="0.1386820">
        <ele>733.3</ele>
        <time>2013-05-12T14:17:54Z</time>
      </trkpt>
      <trkpt lat="40.7753660" lon="0.1385280">
        <ele>734.3</ele>
        <time>2013-05-12T14:18:01Z</time>
      </trkpt>
      <trkpt lat="40.7752130" lon="0.1384110">
        <ele>735.7</ele>
        <time>2013-05-12T14:18:08Z</time>
      </trkpt>
      <trkpt lat="40.7750630" lon="0.1383270">
        <ele>737.2</ele>
        <time>2013-05-12T14:18:14Z</time>
      </trkpt>
      <trkpt lat="40.7748540" lon="0.1383150">
        <ele>738.3</ele>
        <time>2013-05-12T14:18:21Z</time>
      </trkpt>
      <trkpt lat="40.7746750" lon="0.1383620">
        <ele>738.1</ele>
        <time>2013-05-12T14:18:26Z</time>
      </trkpt>
      <trkpt lat="40.7744790" lon="0.1384640">
        <ele>737.7</ele>
        <time>2013-05-12T14:18:31Z</time>
      </trkpt>
      <trkpt lat="40.7743600" lon="0.1385380">
        <ele>738.2</ele>
        <time>2013-05-12T14:18:35Z</time>
      </trkpt>
      <trkpt lat="40.7742970" lon="0.1385690">
        <ele>738.2</ele>
        <time>2013-05-12T14:18:37Z</time>
      </trkpt>
      <trkpt lat="40.7741890" lon="0.1386460">
        <ele>737.4</ele>
        <time>2013-05-12T14:18:40Z</time>
      </trkpt>
      <trkpt lat="40.7740980" lon="0.1386770">
        <ele>737.0</ele>
        <time>2013-05-12T14:18:42Z</time>
      </trkpt>
      <trkpt lat="40.7739940" lon="0.1386750">
        <ele>736.6</ele>
        <time>2013-05-12T14:18:44Z</time>
      </trkpt>
      <trkpt lat="40.7738390" lon="0.1386840">
        <ele>737.7</ele>
        <time>2013-05-12T14:18:49Z</time>
      </trkpt>
      <trkpt lat="40.7737010" lon="0.1386750">
        <ele>739.4</ele>
        <time>2013-05-12T14:18:55Z</time>
      </trkpt>
      <trkpt lat="40.7736850" lon="0.1386700">
        <ele>739.8</ele>
        <time>2013-05-12T14:18:56Z</time>
      </trkpt>
      <trkpt lat="40.7735570" lon="0.1386020">
        <ele>741.7</ele>
        <time>2013-05-12T14:19:02Z</time>
      </trkpt>
      <trkpt lat="40.7734720" lon="0.1385700">
        <ele>743.9</ele>
        <time>2013-05-12T14:19:07Z</time>
      </trkpt>
      <trkpt lat="40.7733650" lon="0.1385730">
        <ele>745.1</ele>
        <time>2013-05-12T14:19:12Z</time>
      </trkpt>
      <trkpt lat="40.7733040" lon="0.1386080">
        <ele>744.6</ele>
        <time>2013-05-12T14:19:14Z</time>
      </trkpt>
      <trkpt lat="40.7731130" lon="0.1387300">
        <ele>742.4</ele>
        <time>2013-05-12T14:19:18Z</time>
      </trkpt>
      <trkpt lat="40.7728670" lon="0.1387190">
        <ele>740.8</ele>
        <time>2013-05-12T14:19:22Z</time>
      </trkpt>
      <trkpt lat="40.7727460" lon="0.1386730">
        <ele>740.5</ele>
        <time>2013-05-12T14:19:24Z</time>
      </trkpt>
      <trkpt lat="40.7725210" lon="0.1386180">
        <ele>740.6</ele>
        <time>2013-05-12T14:19:29Z</time>
      </trkpt>
      <trkpt lat="40.7723770" lon="0.1386290">
        <ele>742.3</ele>
        <time>2013-05-12T14:19:35Z</time>
      </trkpt>
      <trkpt lat="40.7722530" lon="0.1386850">
        <ele>743.4</ele>
        <time>2013-05-12T14:19:40Z</time>
      </trkpt>
      <trkpt lat="40.7721230" lon="0.1387690">
        <ele>744.7</ele>
        <time>2013-05-12T14:19:45Z</time>
      </trkpt>
      <trkpt lat="40.7719670" lon="0.1387980">
        <ele>745.5</ele>
        <time>2013-05-12T14:19:51Z</time>
      </trkpt>
      <trkpt lat="40.7718660" lon="0.1387580">
        <ele>747.5</ele>
        <time>2013-05-12T14:19:57Z</time>
      </trkpt>
      <trkpt lat="40.7717280" lon="0.1387350">
        <ele>749.3</ele>
        <time>2013-05-12T14:20:04Z</time>
      </trkpt>
      <trkpt lat="40.7716750" lon="0.1387300">
        <ele>749.8</ele>
        <time>2013-05-12T14:20:06Z</time>
      </trkpt>
      <trkpt lat="40.7715120" lon="0.1387600">
        <ele>750.8</ele>
        <time>2013-05-12T14:20:12Z</time>
      </trkpt>
      <trkpt lat="40.7714150" lon="0.1388110">
        <ele>752.2</ele>
        <time>2013-05-12T14:20:17Z</time>
      </trkpt>
      <trkpt lat="40.7712900" lon="0.1388530">
        <ele>754.0</ele>
        <time>2013-05-12T14:20:23Z</time>
      </trkpt>
      <trkpt lat="40.7711750" lon="0.1387770">
        <ele>755.3</ele>
        <time>2013-05-12T14:20:29Z</time>
      </trkpt>
      <trkpt lat="40.7710510" lon="0.1386350">
        <ele>755.8</ele>
        <time>2013-05-12T14:20:35Z</time>
      </trkpt>
      <trkpt lat="40.7710000" lon="0.1385760">
        <ele>755.6</ele>
        <time>2013-05-12T14:20:37Z</time>
      </trkpt>
      <trkpt lat="40.7708450" lon="0.1383690">
        <ele>754.6</ele>
        <time>2013-05-12T14:20:42Z</time>
      </trkpt>
      <trkpt lat="40.7707460" lon="0.1382960">
        <ele>754.4</ele>
        <time>2013-05-12T14:20:45Z</time>
      </trkpt>
      <trkpt lat="40.7705740" lon="0.1382460">
        <ele>755.1</ele>
        <time>2013-05-12T14:20:50Z</time>
      </trkpt>
      <trkpt lat="40.7703700" lon="0.1381720">
        <ele>756.0</ele>
        <time>2013-05-12T14:20:56Z</time>
      </trkpt>
      <trkpt lat="40.7702420" lon="0.1380770">
        <ele>755.4</ele>
        <time>2013-05-12T14:20:59Z</time>
      </trkpt>
      <trkpt lat="40.7701880" lon="0.1380400">
        <ele>755.0</ele>
        <time>2013-05-12T14:21:00Z</time>
      </trkpt>
      <trkpt lat="40.7698870" lon="0.1379340">
        <ele>754.0</ele>
        <time>2013-05-12T14:21:05Z</time>
      </trkpt>
      <trkpt lat="40.7698340" lon="0.1379330">
        <ele>753.9</ele>
        <time>2013-05-12T14:21:06Z</time>
      </trkpt>
      <trkpt lat="40.7696430" lon="0.1379530">
        <ele>754.7</ele>
        <time>2013-05-12T14:21:11Z</time>
      </trkpt>
      <trkpt lat="40.7695190" lon="0.1380350">
        <ele>756.4</ele>
        <time>2013-05-12T14:21:16Z</time>
      </trkpt>
      <trkpt lat="40.7694210" lon="0.1381150">
        <ele>758.6</ele>
        <time>2013-05-12T14:21:21Z</time>
      </trkpt>
      <trkpt lat="40.7692730" lon="0.1381640">
        <ele>760.6</ele>
        <time>2013-05-12T14:21:26Z</time>
      </trkpt>
      <trkpt lat="40.7691630" lon="0.1381920">
        <ele>760.9</ele>
        <time>2013-05-12T14:21:29Z</time>
      </trkpt>
      <trkpt lat="40.7689730" lon="0.1381240">
        <ele>761.4</ele>
        <time>2013-05-12T14:21:34Z</time>
      </trkpt>
      <trkpt lat="40.7688130" lon="0.1381160">
        <ele>762.7</ele>
        <time>2013-05-12T14:21:40Z</time>
      </trkpt>
      <trkpt lat="40.7686860" lon="0.1381580">
        <ele>764.0</ele>
        <time>2013-05-12T14:21:46Z</time>
      </trkpt>
      <trkpt lat="40.7685400" lon="0.1382270">
        <ele>766.7</ele>
        <time>2013-05-12T14:21:53Z</time>
      </trkpt>
      <trkpt lat="40.7684150" lon="0.1383370">
        <ele>768.3</ele>
        <time>2013-05-12T14:21:59Z</time>
      </trkpt>
      <trkpt lat="40.7682750" lon="0.1384470">
        <ele>768.8</ele>
        <time>2013-05-12T14:22:05Z</time>
      </trkpt>
      <trkpt lat="40.7680520" lon="0.1385760">
        <ele>769.2</ele>
        <time>2013-05-12T14:22:13Z</time>
      </trkpt>
      <trkpt lat="40.7679180" lon="0.1387110">
        <ele>770.8</ele>
        <time>2013-05-12T14:22:19Z</time>
      </trkpt>
      <trkpt lat="40.7677780" lon="0.1389100">
        <ele>772.2</ele>
        <time>2013-05-12T14:22:26Z</time>
      </trkpt>
      <trkpt lat="40.7675730" lon="0.1391240">
        <ele>772.7</ele>
        <time>2013-05-12T14:22:34Z</time>
      </trkpt>
      <trkpt lat="40.7674880" lon="0.1391660">
        <ele>772.2</ele>
        <time>2013-05-12T14:22:36Z</time>
      </trkpt>
      <trkpt lat="40.7672720" lon="0.1392110">
        <ele>771.0</ele>
        <time>2013-05-12T14:22:40Z</time>
      </trkpt>
      <trkpt lat="40.7672050" lon="0.1392160">
        <ele>770.5</ele>
        <time>2013-05-12T14:22:41Z</time>
      </trkpt>
      <trkpt lat="40.7670670" lon="0.1392330">
        <ele>769.5</ele>
        <time>2013-05-12T14:22:43Z</time>
      </trkpt>
      <trkpt lat="40.7670090" lon="0.1392430">
        <ele>769.2</ele>
        <time>2013-05-12T14:22:44Z</time>
      </trkpt>
      <trkpt lat="40.7669580" lon="0.1392540">
        <ele>768.7</ele>
        <time>2013-05-12T14:22:45Z</time>
      </trkpt>
      <trkpt lat="40.7668490" lon="0.1392640">
        <ele>767.5</ele>
        <time>2013-05-12T14:22:47Z</time>
      </trkpt>
      <trkpt lat="40.7667410" lon="0.1392840">
        <ele>766.6</ele>
        <time>2013-05-12T14:22:49Z</time>
      </trkpt>
      <trkpt lat="40.7666490" lon="0.1392780">
        <ele>766.0</ele>
        <time>2013-05-12T14:22:51Z</time>
      </trkpt>
      <trkpt lat="40.7664570" lon="0.1393370">
        <ele>767.2</ele>
        <time>2013-05-12T14:22:56Z</time>
      </trkpt>
      <trkpt lat="40.7662830" lon="0.1395220">
        <ele>768.4</ele>
        <time>2013-05-12T14:23:02Z</time>
      </trkpt>
      <trkpt lat="40.7661360" lon="0.1395190">
        <ele>768.9</ele>
        <time>2013-05-12T14:23:06Z</time>
      </trkpt>
      <trkpt lat="40.7660150" lon="0.1394910">
        <ele>770.3</ele>
        <time>2013-05-12T14:23:11Z</time>
      </trkpt>
      <trkpt lat="40.7659220" lon="0.1394980">
        <ele>771.9</ele>
        <time>2013-05-12T14:23:15Z</time>
      </trkpt>
      <trkpt lat="40.7657610" lon="0.1395060">
        <ele>774.6</ele>
        <time>2013-05-12T14:23:21Z</time>
      </trkpt>
      <trkpt lat="40.7656710" lon="0.1394750">
        <ele>775.7</ele>
        <time>2013-05-12T14:23:25Z</time>
      </trkpt>
      <trkpt lat="40.7655600" lon="0.1394010">
        <ele>775.9</ele>
        <time>2013-05-12T14:23:30Z</time>
      </trkpt>
      <trkpt lat="40.7654070" lon="0.1392520">
        <ele>778.3</ele>
        <time>2013-05-12T14:23:37Z</time>
      </trkpt>
      <trkpt lat="40.7652700" lon="0.1391300">
        <ele>778.2</ele>
        <time>2013-05-12T14:23:42Z</time>
      </trkpt>
      <trkpt lat="40.7651490" lon="0.1391230">
        <ele>776.8</ele>
        <time>2013-05-12T14:23:46Z</time>
      </trkpt>
      <trkpt lat="40.7649760" lon="0.1391650">
        <ele>776.4</ele>
        <time>2013-05-12T14:23:52Z</time>
      </trkpt>
      <trkpt lat="40.7648160" lon="0.1392530">
        <ele>776.7</ele>
        <time>2013-05-12T14:23:58Z</time>
      </trkpt>
      <trkpt lat="40.7647620" lon="0.1392810">
        <ele>777.0</ele>
        <time>2013-05-12T14:24:00Z</time>
      </trkpt>
      <trkpt lat="40.7646740" lon="0.1392950">
        <ele>777.1</ele>
        <time>2013-05-12T14:24:03Z</time>
      </trkpt>
      <trkpt lat="40.7645730" lon="0.1392830">
        <ele>777.7</ele>
        <time>2013-05-12T14:24:07Z</time>
      </trkpt>
      <trkpt lat="40.7644210" lon="0.1393010">
        <ele>778.4</ele>
        <time>2013-05-12T14:24:14Z</time>
      </trkpt>
      <trkpt lat="40.7643660" lon="0.1393450">
        <ele>779.0</ele>
        <time>2013-05-12T14:24:17Z</time>
      </trkpt>
      <trkpt lat="40.7642000" lon="0.1393140">
        <ele>780.5</ele>
        <time>2013-05-12T14:24:25Z</time>
      </trkpt>
      <trkpt lat="40.7641060" lon="0.1393330">
        <ele>781.7</ele>
        <time>2013-05-12T14:24:30Z</time>
      </trkpt>
      <trkpt lat="40.7640670" lon="0.1393830">
        <ele>782.5</ele>
        <time>2013-05-12T14:24:33Z</time>
      </trkpt>
      <trkpt lat="40.7640410" lon="0.1394330">
        <ele>784.1</ele>
        <time>2013-05-12T14:24:36Z</time>
      </trkpt>
      <trkpt lat="40.7639480" lon="0.1394480">
        <ele>785.2</ele>
        <time>2013-05-12T14:24:42Z</time>
      </trkpt>
      <trkpt lat="40.7637530" lon="0.1394380">
        <ele>785.0</ele>
        <time>2013-05-12T14:24:48Z</time>
      </trkpt>
      <trkpt lat="40.7635820" lon="0.1394640">
        <ele>784.8</ele>
        <time>2013-05-12T14:24:53Z</time>
      </trkpt>
      <trkpt lat="40.7634590" lon="0.1394840">
        <ele>785.0</ele>
        <time>2013-05-12T14:24:58Z</time>
      </trkpt>
      <trkpt lat="40.7632980" lon="0.1395100">
        <ele>785.2</ele>
        <time>2013-05-12T14:25:04Z</time>
      </trkpt>
      <trkpt lat="40.7631260" lon="0.1394950">
        <ele>785.9</ele>
        <time>2013-05-12T14:25:11Z</time>
      </trkpt>
      <trkpt lat="40.7630030" lon="0.1394490">
        <ele>788.0</ele>
        <time>2013-05-12T14:25:17Z</time>
      </trkpt>
      <trkpt lat="40.7629370" lon="0.1394120">
        <ele>789.5</ele>
        <time>2013-05-12T14:25:21Z</time>
      </trkpt>
      <trkpt lat="40.7629190" lon="0.1394030">
        <ele>789.9</ele>
        <time>2013-05-12T14:25:22Z</time>
      </trkpt>
      <trkpt lat="40.7628550" lon="0.1393730">
        <ele>790.9</ele>
        <time>2013-05-12T14:25:25Z</time>
      </trkpt>
      <trkpt lat="40.7627710" lon="0.1393680">
        <ele>792.6</ele>
        <time>2013-05-12T14:25:29Z</time>
      </trkpt>
      <trkpt lat="40.7626490" lon="0.1393770">
        <ele>794.8</ele>
        <time>2013-05-12T14:25:34Z</time>
      </trkpt>
      <trkpt lat="40.7625540" lon="0.1393690">
        <ele>796.3</ele>
        <time>2013-05-12T14:25:38Z</time>
      </trkpt>
      <trkpt lat="40.7624150" lon="0.1394180">
        <ele>797.6</ele>
        <time>2013-05-12T14:25:44Z</time>
      </trkpt>
      <trkpt lat="40.7622390" lon="0.1394610">
        <ele>798.9</ele>
        <time>2013-05-12T14:25:51Z</time>
      </trkpt>
      <trkpt lat="40.7620690" lon="0.1394340">
        <ele>799.4</ele>
        <time>2013-05-12T14:25:57Z</time>
      </trkpt>
      <trkpt lat="40.7618440" lon="0.1394640">
        <ele>798.1</ele>
        <time>2013-05-12T14:26:03Z</time>
      </trkpt>
      <trkpt lat="40.7617760" lon="0.1394640">
        <ele>797.3</ele>
        <time>2013-05-12T14:26:05Z</time>
      </trkpt>
      <trkpt lat="40.7616430" lon="0.1395150">
        <ele>795.7</ele>
        <time>2013-05-12T14:26:10Z</time>
      </trkpt>
      <trkpt lat="40.7615640" lon="0.1396320">
        <ele>796.8</ele>
        <time>2013-05-12T14:26:15Z</time>
      </trkpt>
      <trkpt lat="40.7614330" lon="0.1396910">
        <ele>799.2</ele>
        <time>2013-05-12T14:26:20Z</time>
      </trkpt>
      <trkpt lat="40.7613590" lon="0.1397590">
        <ele>800.0</ele>
        <time>2013-05-12T14:26:25Z</time>
      </trkpt>
      <trkpt lat="40.7613020" lon="0.1398820">
        <ele>799.2</ele>
        <time>2013-05-12T14:26:29Z</time>
      </trkpt>
      <trkpt lat="40.7612190" lon="0.1400030">
        <ele>799.7</ele>
        <time>2013-05-12T14:26:34Z</time>
      </trkpt>
      <trkpt lat="40.7611170" lon="0.1401000">
        <ele>800.4</ele>
        <time>2013-05-12T14:26:39Z</time>
      </trkpt>
      <trkpt lat="40.7609940" lon="0.1402210">
        <ele>800.8</ele>
        <time>2013-05-12T14:26:45Z</time>
      </trkpt>
      <trkpt lat="40.7608880" lon="0.1402970">
        <ele>802.0</ele>
        <time>2013-05-12T14:26:50Z</time>
      </trkpt>
      <trkpt lat="40.7607820" lon="0.1404060">
        <ele>803.7</ele>
        <time>2013-05-12T14:26:56Z</time>
      </trkpt>
      <trkpt lat="40.7606610" lon="0.1404340">
        <ele>805.1</ele>
        <time>2013-05-12T14:27:01Z</time>
      </trkpt>
      <trkpt lat="40.7603820" lon="0.1404020">
        <ele>805.5</ele>
        <time>2013-05-12T14:27:10Z</time>
      </trkpt>
      <trkpt lat="40.7602040" lon="0.1403730">
        <ele>805.3</ele>
        <time>2013-05-12T14:27:16Z</time>
      </trkpt>
      <trkpt lat="40.7600330" lon="0.1403490">
        <ele>806.0</ele>
        <time>2013-05-12T14:27:22Z</time>
      </trkpt>
      <trkpt lat="40.7598600" lon="0.1402930">
        <ele>806.7</ele>
        <time>2013-05-12T14:27:28Z</time>
      </trkpt>
      <trkpt lat="40.7596490" lon="0.1401770">
        <ele>808.3</ele>
        <time>2013-05-12T14:27:36Z</time>
      </trkpt>
      <trkpt lat="40.7595380" lon="0.1399900">
        <ele>808.8</ele>
        <time>2013-05-12T14:27:42Z</time>
      </trkpt>
      <trkpt lat="40.7594160" lon="0.1397990">
        <ele>809.3</ele>
        <time>2013-05-12T14:27:48Z</time>
      </trkpt>
      <trkpt lat="40.7593060" lon="0.1396110">
        <ele>810.6</ele>
        <time>2013-05-12T14:27:54Z</time>
      </trkpt>
      <trkpt lat="40.7591770" lon="0.1393290">
        <ele>811.5</ele>
        <time>2013-05-12T14:28:01Z</time>
      </trkpt>
      <trkpt lat="40.7590010" lon="0.1390070">
        <ele>812.4</ele>
        <time>2013-05-12T14:28:10Z</time>
      </trkpt>
      <trkpt lat="40.7590180" lon="0.1388240">
        <ele>811.0</ele>
        <time>2013-05-12T14:28:16Z</time>
      </trkpt>
      <trkpt lat="40.7590830" lon="0.1388020">
        <ele>810.8</ele>
        <time>2013-05-12T14:28:19Z</time>
      </trkpt>
      <trkpt lat="40.7591730" lon="0.1387370">
        <ele>812.0</ele>
        <time>2013-05-12T14:28:24Z</time>
      </trkpt>
      <trkpt lat="40.7591920" lon="0.1386800">
        <ele>812.5</ele>
        <time>2013-05-12T14:28:26Z</time>
      </trkpt>
      <trkpt lat="40.7592130" lon="0.1384530">
        <ele>815.5</ele>
        <time>2013-05-12T14:28:35Z</time>
      </trkpt>
      <trkpt lat="40.7592130" lon="0.1383720">
        <ele>816.7</ele>
        <time>2013-05-12T14:28:38Z</time>
      </trkpt>
      <trkpt lat="40.7591740" lon="0.1382080">
        <ele>818.9</ele>
        <time>2013-05-12T14:28:44Z</time>
      </trkpt>
      <trkpt lat="40.7591530" lon="0.1381250">
        <ele>820.3</ele>
        <time>2013-05-12T14:28:47Z</time>
      </trkpt>
      <trkpt lat="40.7591600" lon="0.1380730">
        <ele>821.1</ele>
        <time>2013-05-12T14:28:49Z</time>
      </trkpt>
      <trkpt lat="40.7591900" lon="0.1379820">
        <ele>822.4</ele>
        <time>2013-05-12T14:28:53Z</time>
      </trkpt>
      <trkpt lat="40.7591990" lon="0.1379160">
        <ele>823.3</ele>
        <time>2013-05-12T14:28:56Z</time>
      </trkpt>
      <trkpt lat="40.7592060" lon="0.1378080">
        <ele>824.5</ele>
        <time>2013-05-12T14:29:01Z</time>
      </trkpt>
      <trkpt lat="40.7591680" lon="0.1376490">
        <ele>826.4</ele>
        <time>2013-05-12T14:29:08Z</time>
      </trkpt>
      <trkpt lat="40.7591630" lon="0.1375020">
        <ele>827.8</ele>
        <time>2013-05-12T14:29:15Z</time>
      </trkpt>
      <trkpt lat="40.7591710" lon="0.1373870">
        <ele>829.6</ele>
        <time>2013-05-12T14:29:21Z</time>
      </trkpt>
      <trkpt lat="40.7592100" lon="0.1372370">
        <ele>832.1</ele>
        <time>2013-05-12T14:29:28Z</time>
      </trkpt>
      <trkpt lat="40.7592440" lon="0.1370970">
        <ele>834.7</ele>
        <time>2013-05-12T14:29:35Z</time>
      </trkpt>
      <trkpt lat="40.7591980" lon="0.1369380">
        <ele>837.5</ele>
        <time>2013-05-12T14:29:43Z</time>
      </trkpt>
      <trkpt lat="40.7591540" lon="0.1368330">
        <ele>839.4</ele>
        <time>2013-05-12T14:29:49Z</time>
      </trkpt>
      <trkpt lat="40.7591160" lon="0.1367800">
        <ele>840.2</ele>
        <time>2013-05-12T14:29:52Z</time>
      </trkpt>
      <trkpt lat="40.7590920" lon="0.1366440">
        <ele>842.3</ele>
        <time>2013-05-12T14:29:58Z</time>
      </trkpt>
      <trkpt lat="40.7591580" lon="0.1366120">
        <ele>843.4</ele>
        <time>2013-05-12T14:30:02Z</time>
      </trkpt>
      <trkpt lat="40.7592660" lon="0.1366900">
        <ele>845.2</ele>
        <time>2013-05-12T14:30:08Z</time>
      </trkpt>
      <trkpt lat="40.7593430" lon="0.1369020">
        <ele>846.5</ele>
        <time>2013-05-12T14:30:15Z</time>
      </trkpt>
      <trkpt lat="40.7594300" lon="0.1370510">
        <ele>848.1</ele>
        <time>2013-05-12T14:30:22Z</time>
      </trkpt>
      <trkpt lat="40.7595540" lon="0.1371230">
        <ele>849.3</ele>
        <time>2013-05-12T14:30:28Z</time>
      </trkpt>
      <trkpt lat="40.7596560" lon="0.1371900">
        <ele>849.5</ele>
        <time>2013-05-12T14:30:33Z</time>
      </trkpt>
      <trkpt lat="40.7597090" lon="0.1372170">
        <ele>849.5</ele>
        <time>2013-05-12T14:30:35Z</time>
      </trkpt>
      <trkpt lat="40.7598480" lon="0.1374410">
        <ele>849.1</ele>
        <time>2013-05-12T14:30:40Z</time>
      </trkpt>
      <trkpt lat="40.7598540" lon="0.1375900">
        <ele>849.1</ele>
        <time>2013-05-12T14:30:42Z</time>
      </trkpt>
      <trkpt lat="40.7598460" lon="0.1378780">
        <ele>848.5</ele>
        <time>2013-05-12T14:30:47Z</time>
      </trkpt>
      <trkpt lat="40.7598520" lon="0.1379140">
        <ele>848.5</ele>
        <time>2013-05-12T14:30:48Z</time>
      </trkpt>
      <trkpt lat="40.7599000" lon="0.1380560">
        <ele>849.2</ele>
        <time>2013-05-12T14:30:53Z</time>
      </trkpt>
      <trkpt lat="40.7599660" lon="0.1382610">
        <ele>850.7</ele>
        <time>2013-05-12T14:31:00Z</time>
      </trkpt>
      <trkpt lat="40.7600200" lon="0.1384590">
        <ele>851.5</ele>
        <time>2013-05-12T14:31:06Z</time>
      </trkpt>
      <trkpt lat="40.7601010" lon="0.1385920">
        <ele>852.8</ele>
        <time>2013-05-12T14:31:11Z</time>
      </trkpt>
      <trkpt lat="40.7602440" lon="0.1387110">
        <ele>853.7</ele>
        <time>2013-05-12T14:31:17Z</time>
      </trkpt>
      <trkpt lat="40.7604350" lon="0.1387000">
        <ele>854.7</ele>
        <time>2013-05-12T14:31:23Z</time>
      </trkpt>
      <trkpt lat="40.7605340" lon="0.1386190">
        <ele>855.7</ele>
        <time>2013-05-12T14:31:27Z</time>
      </trkpt>
      <trkpt lat="40.7605450" lon="0.1384950">
        <ele>856.1</ele>
        <time>2013-05-12T14:31:31Z</time>
      </trkpt>
      <trkpt lat="40.7604970" lon="0.1383330">
        <ele>858.1</ele>
        <time>2013-05-12T14:31:38Z</time>
      </trkpt>
      <trkpt lat="40.7604360" lon="0.1382310">
        <ele>860.4</ele>
        <time>2013-05-12T14:31:45Z</time>
      </trkpt>
      <trkpt lat="40.7604120" lon="0.1381140">
        <ele>861.6</ele>
        <time>2013-05-12T14:31:50Z</time>
      </trkpt>
      <trkpt lat="40.7603720" lon="0.1379660">
        <ele>863.6</ele>
        <time>2013-05-12T14:31:56Z</time>
      </trkpt>
      <trkpt lat="40.7603510" lon="0.1377740">
        <ele>865.8</ele>
        <time>2013-05-12T14:32:04Z</time>
      </trkpt>
      <trkpt lat="40.7603140" lon="0.1375900">
        <ele>866.8</ele>
        <time>2013-05-12T14:32:11Z</time>
      </trkpt>
      <trkpt lat="40.7602410" lon="0.1374280">
        <ele>867.1</ele>
        <time>2013-05-12T14:32:16Z</time>
      </trkpt>
      <trkpt lat="40.7601720" lon="0.1371530">
        <ele>865.9</ele>
        <time>2013-05-12T14:32:22Z</time>
      </trkpt>
      <trkpt lat="40.7601400" lon="0.1369170">
        <ele>868.1</ele>
        <time>2013-05-12T14:32:28Z</time>
      </trkpt>
      <trkpt lat="40.7600200" lon="0.1366320">
        <ele>869.9</ele>
        <time>2013-05-12T14:32:36Z</time>
      </trkpt>
      <trkpt lat="40.7599080" lon="0.1364600">
        <ele>871.5</ele>
        <time>2013-05-12T14:32:42Z</time>
      </trkpt>
      <trkpt lat="40.7597620" lon="0.1362450">
        <ele>873.1</ele>
        <time>2013-05-12T14:32:50Z</time>
      </trkpt>
      <trkpt lat="40.7597370" lon="0.1360640">
        <ele>874.4</ele>
        <time>2013-05-12T14:32:56Z</time>
      </trkpt>
      <trkpt lat="40.7597280" lon="0.1358650">
        <ele>876.5</ele>
        <time>2013-05-12T14:33:04Z</time>
      </trkpt>
      <trkpt lat="40.7596670" lon="0.1356850">
        <ele>879.6</ele>
        <time>2013-05-12T14:33:12Z</time>
      </trkpt>
      <trkpt lat="40.7595970" lon="0.1355800">
        <ele>882.0</ele>
        <time>2013-05-12T14:33:18Z</time>
      </trkpt>
      <trkpt lat="40.7595910" lon="0.1355640">
        <ele>882.4</ele>
        <time>2013-05-12T14:33:19Z</time>
      </trkpt>
      <trkpt lat="40.7595190" lon="0.1355050">
        <ele>883.9</ele>
        <time>2013-05-12T14:33:25Z</time>
      </trkpt>
      <trkpt lat="40.7594980" lon="0.1354840">
        <ele>884.1</ele>
        <time>2013-05-12T14:33:27Z</time>
      </trkpt>
      <trkpt lat="40.7594660" lon="0.1354160">
        <ele>884.9</ele>
        <time>2013-05-12T14:33:31Z</time>
      </trkpt>
      <trkpt lat="40.7594480" lon="0.1352630">
        <ele>886.4</ele>
        <time>2013-05-12T14:33:39Z</time>
      </trkpt>
      <trkpt lat="40.7594490" lon="0.1351910">
        <ele>886.8</ele>
        <time>2013-05-12T14:33:45Z</time>
      </trkpt>
      <trkpt lat="40.7594360" lon="0.1351560">
        <ele>886.8</ele>
        <time>2013-05-12T14:35:03Z</time>
      </trkpt>
      <trkpt lat="40.7594330" lon="0.1351360">
        <ele>887.0</ele>
        <time>2013-05-12T14:35:04Z</time>
      </trkpt>
      <trkpt lat="40.7593800" lon="0.1349880">
        <ele>887.9</ele>
        <time>2013-05-12T14:35:11Z</time>
      </trkpt>
      <trkpt lat="40.7593480" lon="0.1349080">
        <ele>888.9</ele>
        <time>2013-05-12T14:35:15Z</time>
      </trkpt>
      <trkpt lat="40.7593180" lon="0.1348350">
        <ele>890.0</ele>
        <time>2013-05-12T14:35:19Z</time>
      </trkpt>
      <trkpt lat="40.7592770" lon="0.1347410">
        <ele>891.6</ele>
        <time>2013-05-12T14:35:24Z</time>
      </trkpt>
      <trkpt lat="40.7592370" lon="0.1346270">
        <ele>892.9</ele>
        <time>2013-05-12T14:35:29Z</time>
      </trkpt>
      <trkpt lat="40.7591940" lon="0.1344900">
        <ele>894.7</ele>
        <time>2013-05-12T14:35:35Z</time>
      </trkpt>
      <trkpt lat="40.7591800" lon="0.1343500">
        <ele>896.0</ele>
        <time>2013-05-12T14:35:41Z</time>
      </trkpt>
      <trkpt lat="40.7591890" lon="0.1341360">
        <ele>896.8</ele>
        <time>2013-05-12T14:35:49Z</time>
      </trkpt>
      <trkpt lat="40.7591910" lon="0.1339790">
        <ele>897.4</ele>
        <time>2013-05-12T14:35:55Z</time>
      </trkpt>
      <trkpt lat="40.7591690" lon="0.1338640">
        <ele>899.3</ele>
        <time>2013-05-12T14:36:00Z</time>
      </trkpt>
      <trkpt lat="40.7591310" lon="0.1337700">
        <ele>899.3</ele>
        <time>2013-05-12T14:36:03Z</time>
      </trkpt>
      <trkpt lat="40.7591210" lon="0.1335960">
        <ele>902.1</ele>
        <time>2013-05-12T14:36:11Z</time>
      </trkpt>
      <trkpt lat="40.7590850" lon="0.1333810">
        <ele>904.5</ele>
        <time>2013-05-12T14:36:20Z</time>
      </trkpt>
      <trkpt lat="40.7590370" lon="0.1332400">
        <ele>906.2</ele>
        <time>2013-05-12T14:36:27Z</time>
      </trkpt>
      <trkpt lat="40.7590280" lon="0.1331080">
        <ele>907.8</ele>
        <time>2013-05-12T14:36:34Z</time>
      </trkpt>
      <trkpt lat="40.7590030" lon="0.1329600">
        <ele>910.3</ele>
        <time>2013-05-12T14:36:41Z</time>
      </trkpt>
      <trkpt lat="40.7589570" lon="0.1328170">
        <ele>912.3</ele>
        <time>2013-05-12T14:36:48Z</time>
      </trkpt>
      <trkpt lat="40.7589060" lon="0.1326530">
        <ele>914.4</ele>
        <time>2013-05-12T14:36:55Z</time>
      </trkpt>
      <trkpt lat="40.7588260" lon="0.1325700">
        <ele>915.2</ele>
        <time>2013-05-12T14:37:00Z</time>
      </trkpt>
      <trkpt lat="40.7587950" lon="0.1325490">
        <ele>915.2</ele>
        <time>2013-05-12T14:37:02Z</time>
      </trkpt>
      <trkpt lat="40.7587480" lon="0.1326030">
        <ele>916.0</ele>
        <time>2013-05-12T14:37:08Z</time>
      </trkpt>
      <trkpt lat="40.7587330" lon="0.1326840">
        <ele>916.5</ele>
        <time>2013-05-12T14:37:12Z</time>
      </trkpt>
      <trkpt lat="40.7587130" lon="0.1328920">
        <ele>915.7</ele>
        <time>2013-05-12T14:37:18Z</time>
      </trkpt>
      <trkpt lat="40.7587060" lon="0.1330850">
        <ele>913.9</ele>
        <time>2013-05-12T14:37:23Z</time>
      </trkpt>
      <trkpt lat="40.7587030" lon="0.1332090">
        <ele>912.8</ele>
        <time>2013-05-12T14:37:26Z</time>
      </trkpt>
      <trkpt lat="40.7587020" lon="0.1332540">
        <ele>912.3</ele>
        <time>2013-05-12T14:37:27Z</time>
      </trkpt>
      <trkpt lat="40.7586940" lon="0.1333550">
        <ele>911.6</ele>
        <time>2013-05-12T14:37:29Z</time>
      </trkpt>
      <trkpt lat="40.7586940" lon="0.1334170">
        <ele>911.3</ele>
        <time>2013-05-12T14:37:30Z</time>
      </trkpt>
      <trkpt lat="40.7586480" lon="0.1336330">
        <ele>910.3</ele>
        <time>2013-05-12T14:37:34Z</time>
      </trkpt>
      <trkpt lat="40.7585340" lon="0.1338340">
        <ele>909.6</ele>
        <time>2013-05-12T14:37:39Z</time>
      </trkpt>
      <trkpt lat="40.7583620" lon="0.1340290">
        <ele>907.3</ele>
        <time>2013-05-12T14:37:44Z</time>
      </trkpt>
      <trkpt lat="40.7583280" lon="0.1340700">
        <ele>907.0</ele>
        <time>2013-05-12T14:37:45Z</time>
      </trkpt>
      <trkpt lat="40.7582100" lon="0.1341890">
        <ele>907.1</ele>
        <time>2013-05-12T14:37:49Z</time>
      </trkpt>
      <trkpt lat="40.7581810" lon="0.1341990">
        <ele>907.2</ele>
        <time>2013-05-12T14:37:50Z</time>
      </trkpt>
      <trkpt lat="40.7580700" lon="0.1342310">
        <ele>908.7</ele>
        <time>2013-05-12T14:37:55Z</time>
      </trkpt>
      <trkpt lat="40.7580190" lon="0.1342620">
        <ele>909.9</ele>
        <time>2013-05-12T14:37:58Z</time>
      </trkpt>
      <trkpt lat="40.7579970" lon="0.1343140">
        <ele>910.9</ele>
        <time>2013-05-12T14:38:01Z</time>
      </trkpt>
      <trkpt lat="40.7579620" lon="0.1343680">
        <ele>912.3</ele>
        <time>2013-05-12T14:38:04Z</time>
      </trkpt>
      <trkpt lat="40.7579530" lon="0.1343870">
        <ele>912.6</ele>
        <time>2013-05-12T14:38:05Z</time>
      </trkpt>
      <trkpt lat="40.7579230" lon="0.1344550">
        <ele>914.2</ele>
        <time>2013-05-12T14:38:08Z</time>
      </trkpt>
      <trkpt lat="40.7579230" lon="0.1345230">
        <ele>915.6</ele>
        <time>2013-05-12T14:38:11Z</time>
      </trkpt>
      <trkpt lat="40.7579090" lon="0.1345870">
        <ele>916.8</ele>
        <time>2013-05-12T14:38:14Z</time>
      </trkpt>
      <trkpt lat="40.7578730" lon="0.1347160">
        <ele>918.2</ele>
        <time>2013-05-12T14:38:19Z</time>
      </trkpt>
      <trkpt lat="40.7578380" lon="0.1348410">
        <ele>919.2</ele>
        <time>2013-05-12T14:38:23Z</time>
      </trkpt>
      <trkpt lat="40.7578200" lon="0.1349100">
        <ele>919.7</ele>
        <time>2013-05-12T14:38:27Z</time>
      </trkpt>
      <trkpt lat="40.7577660" lon="0.1350110">
        <ele>919.7</ele>
        <time>2013-05-12T14:38:33Z</time>
      </trkpt>
      <trkpt lat="40.7577370" lon="0.1351470">
        <ele>919.6</ele>
        <time>2013-05-12T14:38:38Z</time>
      </trkpt>
      <trkpt lat="40.7577410" lon="0.1352960">
        <ele>920.4</ele>
        <time>2013-05-12T14:38:44Z</time>
      </trkpt>
      <trkpt lat="40.7577050" lon="0.1354240">
        <ele>922.3</ele>
        <time>2013-05-12T14:38:49Z</time>
      </trkpt>
      <trkpt lat="40.7576550" lon="0.1355780">
        <ele>924.2</ele>
        <time>2013-05-12T14:38:55Z</time>
      </trkpt>
      <trkpt lat="40.7576320" lon="0.1357560">
        <ele>925.5</ele>
        <time>2013-05-12T14:39:01Z</time>
      </trkpt>
      <trkpt lat="40.7576450" lon="0.1359630">
        <ele>926.0</ele>
        <time>2013-05-12T14:39:08Z</time>
      </trkpt>
      <trkpt lat="40.7576680" lon="0.1361710">
        <ele>925.7</ele>
        <time>2013-05-12T14:39:13Z</time>
      </trkpt>
      <trkpt lat="40.7576570" lon="0.1363280">
        <ele>924.6</ele>
        <time>2013-05-12T14:39:16Z</time>
      </trkpt>
      <trkpt lat="40.7574730" lon="0.1364510">
        <ele>922.6</ele>
        <time>2013-05-12T14:39:20Z</time>
      </trkpt>
      <trkpt lat="40.7574200" lon="0.1364680">
        <ele>922.3</ele>
        <time>2013-05-12T14:39:21Z</time>
      </trkpt>
      <trkpt lat="40.7572770" lon="0.1365690">
        <ele>922.9</ele>
        <time>2013-05-12T14:39:26Z</time>
      </trkpt>
      <trkpt lat="40.7571840" lon="0.1366530">
        <ele>923.3</ele>
        <time>2013-05-12T14:39:30Z</time>
      </trkpt>
      <trkpt lat="40.7571430" lon="0.1366830">
        <ele>923.8</ele>
        <time>2013-05-12T14:39:32Z</time>
      </trkpt>
      <trkpt lat="40.7570070" lon="0.1367540">
        <ele>926.0</ele>
        <time>2013-05-12T14:39:38Z</time>
      </trkpt>
      <trkpt lat="40.7569850" lon="0.1367530">
        <ele>926.7</ele>
        <time>2013-05-12T14:39:39Z</time>
      </trkpt>
      <trkpt lat="40.7569430" lon="0.1367240">
        <ele>928.0</ele>
        <time>2013-05-12T14:39:41Z</time>
      </trkpt>
      <trkpt lat="40.7569250" lon="0.1367000">
        <ele>928.7</ele>
        <time>2013-05-12T14:39:42Z</time>
      </trkpt>
      <trkpt lat="40.7569120" lon="0.1366730">
        <ele>928.9</ele>
        <time>2013-05-12T14:39:43Z</time>
      </trkpt>
      <trkpt lat="40.7568680" lon="0.1365300">
        <ele>930.0</ele>
        <time>2013-05-12T14:39:48Z</time>
      </trkpt>
      <trkpt lat="40.7567700" lon="0.1363640">
        <ele>930.7</ele>
        <time>2013-05-12T14:39:55Z</time>
      </trkpt>
      <trkpt lat="40.7566780" lon="0.1362070">
        <ele>930.8</ele>
        <time>2013-05-12T14:40:02Z</time>
      </trkpt>
      <trkpt lat="40.7565810" lon="0.1360170">
        <ele>930.2</ele>
        <time>2013-05-12T14:40:07Z</time>
      </trkpt>
      <trkpt lat="40.7564550" lon="0.1358650">
        <ele>930.4</ele>
        <time>2013-05-12T14:40:12Z</time>
      </trkpt>
      <trkpt lat="40.7563920" lon="0.1358070">
        <ele>930.4</ele>
        <time>2013-05-12T14:40:14Z</time>
      </trkpt>
      <trkpt lat="40.7563590" lon="0.1357810">
        <ele>930.2</ele>
        <time>2013-05-12T14:40:15Z</time>
      </trkpt>
      <trkpt lat="40.7563250" lon="0.1357570">
        <ele>930.1</ele>
        <time>2013-05-12T14:40:16Z</time>
      </trkpt>
      <trkpt lat="40.7562500" lon="0.1357170">
        <ele>929.9</ele>
        <time>2013-05-12T14:40:18Z</time>
      </trkpt>
      <trkpt lat="40.7560560" lon="0.1357190">
        <ele>929.0</ele>
        <time>2013-05-12T14:40:22Z</time>
      </trkpt>
      <trkpt lat="40.7559600" lon="0.1358480">
        <ele>928.6</ele>
        <time>2013-05-12T14:40:25Z</time>
      </trkpt>
      <trkpt lat="40.7559620" lon="0.1359470">
        <ele>929.3</ele>
        <time>2013-05-12T14:40:27Z</time>
      </trkpt>
      <trkpt lat="40.7559720" lon="0.1360170">
        <ele>930.1</ele>
        <time>2013-05-12T14:40:29Z</time>
      </trkpt>
      <trkpt lat="40.7559950" lon="0.1362150">
        <ele>932.1</ele>
        <time>2013-05-12T14:40:34Z</time>
      </trkpt>
      <trkpt lat="40.7559830" lon="0.1363910">
        <ele>933.4</ele>
        <time>2013-05-12T14:40:38Z</time>
      </trkpt>
      <trkpt lat="40.7559660" lon="0.1364720">
        <ele>933.9</ele>
        <time>2013-05-12T14:40:40Z</time>
      </trkpt>
      <trkpt lat="40.7559120" lon="0.1367040">
        <ele>934.5</ele>
        <time>2013-05-12T14:40:45Z</time>
      </trkpt>
      <trkpt lat="40.7557970" lon="0.1370150">
        <ele>933.9</ele>
        <time>2013-05-12T14:40:52Z</time>
      </trkpt>
      <trkpt lat="40.7557190" lon="0.1371770">
        <ele>936.0</ele>
        <time>2013-05-12T14:40:58Z</time>
      </trkpt>
      <trkpt lat="40.7556950" lon="0.1372250">
        <ele>936.9</ele>
        <time>2013-05-12T14:41:00Z</time>
      </trkpt>
      <trkpt lat="40.7556200" lon="0.1373220">
        <ele>939.4</ele>
        <time>2013-05-12T14:41:05Z</time>
      </trkpt>
      <trkpt lat="40.7555640" lon="0.1373620">
        <ele>940.7</ele>
        <time>2013-05-12T14:41:08Z</time>
      </trkpt>
      <trkpt lat="40.7554610" lon="0.1374100">
        <ele>943.0</ele>
        <time>2013-05-12T14:41:14Z</time>
      </trkpt>
      <trkpt lat="40.7553150" lon="0.1374330">
        <ele>945.1</ele>
        <time>2013-05-12T14:41:22Z</time>
      </trkpt>
      <trkpt lat="40.7552120" lon="0.1374090">
        <ele>946.6</ele>
        <time>2013-05-12T14:41:28Z</time>
      </trkpt>
      <trkpt lat="40.7550970" lon="0.1373190">
        <ele>948.2</ele>
        <time>2013-05-12T14:41:36Z</time>
      </trkpt>
      <trkpt lat="40.7549920" lon="0.1372740">
        <ele>949.8</ele>
        <time>2013-05-12T14:41:42Z</time>
      </trkpt>
      <trkpt lat="40.7548960" lon="0.1372470">
        <ele>950.6</ele>
        <time>2013-05-12T14:41:49Z</time>
      </trkpt>
      <trkpt lat="40.7547660" lon="0.1372190">
        <ele>952.6</ele>
        <time>2013-05-12T14:41:57Z</time>
      </trkpt>
      <trkpt lat="40.7546330" lon="0.1372240">
        <ele>954.9</ele>
        <time>2013-05-12T14:42:04Z</time>
      </trkpt>
      <trkpt lat="40.7544720" lon="0.1372660">
        <ele>956.1</ele>
        <time>2013-05-12T14:42:13Z</time>
      </trkpt>
      <trkpt lat="40.7543330" lon="0.1372960">
        <ele>956.4</ele>
        <time>2013-05-12T14:42:20Z</time>
      </trkpt>
      <trkpt lat="40.7541940" lon="0.1373080">
        <ele>958.0</ele>
        <time>2013-05-12T14:42:27Z</time>
      </trkpt>
      <trkpt lat="40.7540380" lon="0.1373980">
        <ele>957.6</ele>
        <time>2013-05-12T14:42:33Z</time>
      </trkpt>
      <trkpt lat="40.7539270" lon="0.1374990">
        <ele>957.9</ele>
        <time>2013-05-12T14:42:38Z</time>
      </trkpt>
      <trkpt lat="40.7537800" lon="0.1376180">
        <ele>956.8</ele>
        <time>2013-05-12T14:42:42Z</time>
      </trkpt>
      <trkpt lat="40.7535980" lon="0.1377890">
        <ele>955.5</ele>
        <time>2013-05-12T14:42:46Z</time>
      </trkpt>
      <trkpt lat="40.7535460" lon="0.1378370">
        <ele>955.1</ele>
        <time>2013-05-12T14:42:48Z</time>
      </trkpt>
      <trkpt lat="40.7535280" lon="0.1379180">
        <ele>954.7</ele>
        <time>2013-05-12T14:42:51Z</time>
      </trkpt>
      <trkpt lat="40.7535080" lon="0.1379910">
        <ele>954.3</ele>
        <time>2013-05-12T14:42:54Z</time>
      </trkpt>
      <trkpt lat="40.7535070" lon="0.1379910">
        <ele>954.0</ele>
        <time>2013-05-12T14:42:55Z</time>
      </trkpt>
      <trkpt lat="40.7535600" lon="0.1378340">
        <ele>954.0</ele>
        <time>2013-05-12T14:43:21Z</time>
      </trkpt>
      <trkpt lat="40.7536750" lon="0.1377030">
        <ele>954.5</ele>
        <time>2013-05-12T14:43:29Z</time>
      </trkpt>
      <trkpt lat="40.7537610" lon="0.1376180">
        <ele>954.2</ele>
        <time>2013-05-12T14:43:34Z</time>
      </trkpt>
      <trkpt lat="40.7538510" lon="0.1375500">
        <ele>954.7</ele>
        <time>2013-05-12T14:43:40Z</time>
      </trkpt>
      <trkpt lat="40.7539170" lon="0.1374900">
        <ele>956.7</ele>
        <time>2013-05-12T14:43:44Z</time>
      </trkpt>
      <trkpt lat="40.7539950" lon="0.1374290">
        <ele>957.5</ele>
        <time>2013-05-12T14:43:48Z</time>
      </trkpt>
      <trkpt lat="40.7541280" lon="0.1373360">
        <ele>957.7</ele>
        <time>2013-05-12T14:43:53Z</time>
      </trkpt>
      <trkpt lat="40.7543150" lon="0.1372600">
        <ele>957.7</ele>
        <time>2013-05-12T14:43:59Z</time>
      </trkpt>
      <trkpt lat="40.7543550" lon="0.1372620">
        <ele>957.7</ele>
        <time>2013-05-12T14:44:00Z</time>
      </trkpt>
      <trkpt lat="40.7545910" lon="0.1372050">
        <ele>956.7</ele>
        <time>2013-05-12T14:44:05Z</time>
      </trkpt>
      <trkpt lat="40.7546730" lon="0.1371890">
        <ele>956.5</ele>
        <time>2013-05-12T14:44:07Z</time>
      </trkpt>
      <trkpt lat="40.7548730" lon="0.1372070">
        <ele>954.8</ele>
        <time>2013-05-12T14:44:11Z</time>
      </trkpt>
      <trkpt lat="40.7550650" lon="0.1371920">
        <ele>951.5</ele>
        <time>2013-05-12T14:44:15Z</time>
      </trkpt>
      <trkpt lat="40.7552120" lon="0.1371160">
        <ele>952.6</ele>
        <time>2013-05-12T14:44:21Z</time>
      </trkpt>
      <trkpt lat="40.7552860" lon="0.1370470">
        <ele>953.5</ele>
        <time>2013-05-12T14:44:25Z</time>
      </trkpt>
      <trkpt lat="40.7553040" lon="0.1370320">
        <ele>953.7</ele>
        <time>2013-05-12T14:44:29Z</time>
      </trkpt>
      <trkpt lat="40.7553350" lon="0.1369970">
        <ele>953.1</ele>
        <time>2013-05-12T14:45:54Z</time>
      </trkpt>
      <trkpt lat="40.7553500" lon="0.1369870">
        <ele>953.1</ele>
        <time>2013-05-12T14:45:55Z</time>
      </trkpt>
      <trkpt lat="40.7553590" lon="0.1369810">
        <ele>952.6</ele>
        <time>2013-05-12T14:45:57Z</time>
      </trkpt>
      <trkpt lat="40.7553520" lon="0.1369990">
        <ele>952.5</ele>
        <time>2013-05-12T14:46:03Z</time>
      </trkpt>
      <trkpt lat="40.7553170" lon="0.1370130">
        <ele>952.9</ele>
        <time>2013-05-12T14:46:07Z</time>
      </trkpt>
      <trkpt lat="40.7553090" lon="0.1370160">
        <ele>952.9</ele>
        <time>2013-05-12T14:46:09Z</time>
      </trkpt>
      <trkpt lat="40.7552300" lon="0.1369470">
        <ele>954.5</ele>
        <time>2013-05-12T14:46:16Z</time>
      </trkpt>
      <trkpt lat="40.7552210" lon="0.1369310">
        <ele>955.7</ele>
        <time>2013-05-12T14:46:19Z</time>
      </trkpt>
      <trkpt lat="40.7552040" lon="0.1369200">
        <ele>956.0</ele>
        <time>2013-05-12T14:46:22Z</time>
      </trkpt>
      <trkpt lat="40.7551940" lon="0.1369090">
        <ele>956.5</ele>
        <time>2013-05-12T14:46:24Z</time>
      </trkpt>
      <trkpt lat="40.7551910" lon="0.1369050">
        <ele>956.7</ele>
        <time>2013-05-12T14:46:25Z</time>
      </trkpt>
      <trkpt lat="40.7551880" lon="0.1369000">
        <ele>957.0</ele>
        <time>2013-05-12T14:46:26Z</time>
      </trkpt>
      <trkpt lat="40.7551680" lon="0.1368530">
        <ele>957.9</ele>
        <time>2013-05-12T14:46:32Z</time>
      </trkpt>
      <trkpt lat="40.7551110" lon="0.1368230">
        <ele>959.6</ele>
        <time>2013-05-12T14:46:40Z</time>
      </trkpt>
      <trkpt lat="40.7550870" lon="0.1368170">
        <ele>960.0</ele>
        <time>2013-05-12T14:46:43Z</time>
      </trkpt>
      <trkpt lat="40.7550470" lon="0.1368190">
        <ele>961.4</ele>
        <time>2013-05-12T14:46:49Z</time>
      </trkpt>
      <trkpt lat="40.7549940" lon="0.1368130">
        <ele>962.9</ele>
        <time>2013-05-12T14:46:56Z</time>
      </trkpt>
      <trkpt lat="40.7549760" lon="0.1368120">
        <ele>963.4</ele>
        <time>2013-05-12T14:46:58Z</time>
      </trkpt>
      <trkpt lat="40.7549340" lon="0.1368190">
        <ele>963.2</ele>
        <time>2013-05-12T14:47:03Z</time>
      </trkpt>
      <trkpt lat="40.7548530" lon="0.1368230">
        <ele>964.1</ele>
        <time>2013-05-12T14:47:11Z</time>
      </trkpt>
      <trkpt lat="40.7548530" lon="0.1368250">
        <ele>964.1</ele>
        <time>2013-05-12T14:47:12Z</time>
      </trkpt>
      <trkpt lat="40.7547870" lon="0.1368410">
        <ele>964.3</ele>
        <time>2013-05-12T14:47:23Z</time>
      </trkpt>
      <trkpt lat="40.7546740" lon="0.1368590">
        <ele>965.2</ele>
        <time>2013-05-12T14:47:29Z</time>
      </trkpt>
      <trkpt lat="40.7546630" lon="0.1368610">
        <ele>965.8</ele>
        <time>2013-05-12T14:47:32Z</time>
      </trkpt>
      <trkpt lat="40.7546340" lon="0.1368610">
        <ele>966.3</ele>
        <time>2013-05-12T14:47:36Z</time>
      </trkpt>
      <trkpt lat="40.7546260" lon="0.1368660">
        <ele>966.6</ele>
        <time>2013-05-12T14:47:39Z</time>
      </trkpt>
      <trkpt lat="40.7545960" lon="0.1368900">
        <ele>966.7</ele>
        <time>2013-05-12T14:47:44Z</time>
      </trkpt>
      <trkpt lat="40.7545140" lon="0.1369190">
        <ele>967.4</ele>
        <time>2013-05-12T14:47:52Z</time>
      </trkpt>
      <trkpt lat="40.7544470" lon="0.1369330">
        <ele>968.5</ele>
        <time>2013-05-12T14:47:59Z</time>
      </trkpt>
      <trkpt lat="40.7544390" lon="0.1369320">
        <ele>968.5</ele>
        <time>2013-05-12T14:48:01Z</time>
      </trkpt>
      <trkpt lat="40.7544130" lon="0.1369330">
        <ele>968.6</ele>
        <time>2013-05-12T14:48:04Z</time>
      </trkpt>
      <trkpt lat="40.7543240" lon="0.1369620">
        <ele>968.9</ele>
        <time>2013-05-12T14:48:12Z</time>
      </trkpt>
      <trkpt lat="40.7542740" lon="0.1369900">
        <ele>968.9</ele>
        <time>2013-05-12T14:48:18Z</time>
      </trkpt>
      <trkpt lat="40.7542400" lon="0.1370160">
        <ele>969.1</ele>
        <time>2013-05-12T14:48:22Z</time>
      </trkpt>
      <trkpt lat="40.7541720" lon="0.1370290">
        <ele>969.4</ele>
        <time>2013-05-12T14:48:28Z</time>
      </trkpt>
      <trkpt lat="40.7541700" lon="0.1370330">
        <ele>969.4</ele>
        <time>2013-05-12T14:48:29Z</time>
      </trkpt>
      <trkpt lat="40.7541030" lon="0.1370810">
        <ele>969.8</ele>
        <time>2013-05-12T14:48:35Z</time>
      </trkpt>
      <trkpt lat="40.7540410" lon="0.1371050">
        <ele>970.9</ele>
        <time>2013-05-12T14:48:40Z</time>
      </trkpt>
      <trkpt lat="40.7539640" lon="0.1371380">
        <ele>972.2</ele>
        <time>2013-05-12T14:48:45Z</time>
      </trkpt>
      <trkpt lat="40.7538850" lon="0.1371560">
        <ele>972.8</ele>
        <time>2013-05-12T14:48:49Z</time>
      </trkpt>
      <trkpt lat="40.7538680" lon="0.1371880">
        <ele>972.8</ele>
        <time>2013-05-12T14:48:51Z</time>
      </trkpt>
      <trkpt lat="40.7537970" lon="0.1372030">
        <ele>972.9</ele>
        <time>2013-05-12T14:49:06Z</time>
      </trkpt>
      <trkpt lat="40.7537660" lon="0.1372210">
        <ele>973.2</ele>
        <time>2013-05-12T14:49:11Z</time>
      </trkpt>
      <trkpt lat="40.7536960" lon="0.1372730">
        <ele>973.6</ele>
        <time>2013-05-12T14:49:17Z</time>
      </trkpt>
      <trkpt lat="40.7536130" lon="0.1372940">
        <ele>974.0</ele>
        <time>2013-05-12T14:49:21Z</time>
      </trkpt>
      <trkpt lat="40.7535590" lon="0.1373190">
        <ele>974.4</ele>
        <time>2013-05-12T14:49:26Z</time>
      </trkpt>
      <trkpt lat="40.7535370" lon="0.1373210">
        <ele>974.6</ele>
        <time>2013-05-12T14:49:30Z</time>
      </trkpt>
      <trkpt lat="40.7535230" lon="0.1373320">
        <ele>974.8</ele>
        <time>2013-05-12T14:49:33Z</time>
      </trkpt>
      <trkpt lat="40.7534800" lon="0.1373500">
        <ele>975.3</ele>
        <time>2013-05-12T14:49:39Z</time>
      </trkpt>
      <trkpt lat="40.7534740" lon="0.1373530">
        <ele>975.4</ele>
        <time>2013-05-12T14:49:41Z</time>
      </trkpt>
      <trkpt lat="40.7534490" lon="0.1373590">
        <ele>975.5</ele>
        <time>2013-05-12T14:49:51Z</time>
      </trkpt>
      <trkpt lat="40.7534470" lon="0.1373610">
        <ele>975.5</ele>
        <time>2013-05-12T14:49:52Z</time>
      </trkpt>
      <trkpt lat="40.7534500" lon="0.1373550">
        <ele>975.4</ele>
        <time>2013-05-12T14:49:53Z</time>
      </trkpt>
      <trkpt lat="40.7534280" lon="0.1373380">
        <ele>975.5</ele>
        <time>2013-05-12T14:50:10Z</time>
      </trkpt>
      <trkpt lat="40.7534150" lon="0.1373380">
        <ele>975.5</ele>
        <time>2013-05-12T14:50:11Z</time>
      </trkpt>
      <trkpt lat="40.7533740" lon="0.1373470">
        <ele>975.3</ele>
        <time>2013-05-12T14:50:15Z</time>
      </trkpt>
      <trkpt lat="40.7533030" lon="0.1374030">
        <ele>974.9</ele>
        <time>2013-05-12T14:50:21Z</time>
      </trkpt>
      <trkpt lat="40.7532590" lon="0.1374330">
        <ele>974.8</ele>
        <time>2013-05-12T14:50:26Z</time>
      </trkpt>
      <trkpt lat="40.7532370" lon="0.1374530">
        <ele>974.5</ele>
        <time>2013-05-12T14:50:28Z</time>
      </trkpt>
      <trkpt lat="40.7531890" lon="0.1374730">
        <ele>973.7</ele>
        <time>2013-05-12T14:50:32Z</time>
      </trkpt>
      <trkpt lat="40.7531560" lon="0.1374920">
        <ele>973.2</ele>
        <time>2013-05-12T14:50:36Z</time>
      </trkpt>
      <trkpt lat="40.7530700" lon="0.1375390">
        <ele>972.8</ele>
        <time>2013-05-12T14:50:45Z</time>
      </trkpt>
      <trkpt lat="40.7530630" lon="0.1375350">
        <ele>972.6</ele>
        <time>2013-05-12T14:50:48Z</time>
      </trkpt>
      <trkpt lat="40.7530140" lon="0.1375560">
        <ele>972.4</ele>
        <time>2013-05-12T14:50:59Z</time>
      </trkpt>
      <trkpt lat="40.7529670" lon="0.1376020">
        <ele>973.5</ele>
        <time>2013-05-12T14:51:06Z</time>
      </trkpt>
      <trkpt lat="40.7529610" lon="0.1376200">
        <ele>972.8</ele>
        <time>2013-05-12T14:51:09Z</time>
      </trkpt>
      <trkpt lat="40.7529320" lon="0.1376600">
        <ele>972.1</ele>
        <time>2013-05-12T14:51:13Z</time>
      </trkpt>
      <trkpt lat="40.7529170" lon="0.1376270">
        <ele>972.0</ele>
        <time>2013-05-12T14:51:18Z</time>
      </trkpt>
      <trkpt lat="40.7529570" lon="0.1376910">
        <ele>972.1</ele>
        <time>2013-05-12T14:51:37Z</time>
      </trkpt>
      <trkpt lat="40.7529880" lon="0.1376960">
        <ele>972.4</ele>
        <time>2013-05-12T14:51:42Z</time>
      </trkpt>
      <trkpt lat="40.7530030" lon="0.1377390">
        <ele>973.0</ele>
        <time>2013-05-12T14:51:46Z</time>
      </trkpt>
      <trkpt lat="40.7530370" lon="0.1378020">
        <ele>973.9</ele>
        <time>2013-05-12T14:51:52Z</time>
      </trkpt>
      <trkpt lat="40.7530280" lon="0.1378690">
        <ele>975.0</ele>
        <time>2013-05-12T14:51:59Z</time>
      </trkpt>
      <trkpt lat="40.7530210" lon="0.1378740">
        <ele>975.2</ele>
        <time>2013-05-12T14:52:00Z</time>
      </trkpt>
      <trkpt lat="40.7529650" lon="0.1379620">
        <ele>975.5</ele>
        <time>2013-05-12T14:52:13Z</time>
      </trkpt>
      <trkpt lat="40.7529830" lon="0.1379930">
        <ele>975.8</ele>
        <time>2013-05-12T14:52:19Z</time>
      </trkpt>
      <trkpt lat="40.7530040" lon="0.1380310">
        <ele>976.0</ele>
        <time>2013-05-12T14:52:26Z</time>
      </trkpt>
      <trkpt lat="40.7530130" lon="0.1380510">
        <ele>976.3</ele>
        <time>2013-05-12T14:52:29Z</time>
      </trkpt>
      <trkpt lat="40.7530230" lon="0.1381020">
        <ele>976.9</ele>
        <time>2013-05-12T14:52:37Z</time>
      </trkpt>
      <trkpt lat="40.7530180" lon="0.1381410">
        <ele>977.1</ele>
        <time>2013-05-12T14:52:39Z</time>
      </trkpt>
      <trkpt lat="40.7530060" lon="0.1381870">
        <ele>977.6</ele>
        <time>2013-05-12T14:52:43Z</time>
      </trkpt>
      <trkpt lat="40.7530100" lon="0.1382440">
        <ele>978.2</ele>
        <time>2013-05-12T14:52:48Z</time>
      </trkpt>
      <trkpt lat="40.7530100" lon="0.1382980">
        <ele>978.9</ele>
        <time>2013-05-12T14:52:53Z</time>
      </trkpt>
      <trkpt lat="40.7530040" lon="0.1383790">
        <ele>980.0</ele>
        <time>2013-05-12T14:52:59Z</time>
      </trkpt>
      <trkpt lat="40.7529990" lon="0.1383950">
        <ele>980.6</ele>
        <time>2013-05-12T14:53:02Z</time>
      </trkpt>
      <trkpt lat="40.7529990" lon="0.1384480">
        <ele>981.3</ele>
        <time>2013-05-12T14:53:09Z</time>
      </trkpt>
      <trkpt lat="40.7530020" lon="0.1385050">
        <ele>982.3</ele>
        <time>2013-05-12T14:53:14Z</time>
      </trkpt>
      <trkpt lat="40.7529730" lon="0.1385470">
        <ele>982.9</ele>
        <time>2013-05-12T14:53:19Z</time>
      </trkpt>
      <trkpt lat="40.7529750" lon="0.1385800">
        <ele>983.9</ele>
        <time>2013-05-12T14:53:23Z</time>
      </trkpt>
      <trkpt lat="40.7529700" lon="0.1386370">
        <ele>984.8</ele>
        <time>2013-05-12T14:53:28Z</time>
      </trkpt>
      <trkpt lat="40.7529700" lon="0.1386450">
        <ele>984.9</ele>
        <time>2013-05-12T14:53:29Z</time>
      </trkpt>
      <trkpt lat="40.7529820" lon="0.1387070">
        <ele>986.1</ele>
        <time>2013-05-12T14:53:35Z</time>
      </trkpt>
      <trkpt lat="40.7529840" lon="0.1387290">
        <ele>986.5</ele>
        <time>2013-05-12T14:53:37Z</time>
      </trkpt>
      <trkpt lat="40.7529920" lon="0.1388430">
        <ele>987.5</ele>
        <time>2013-05-12T14:53:47Z</time>
      </trkpt>
      <trkpt lat="40.7529930" lon="0.1388500">
        <ele>987.5</ele>
        <time>2013-05-12T14:53:49Z</time>
      </trkpt>
      <trkpt lat="40.7530080" lon="0.1389200">
        <ele>987.6</ele>
        <time>2013-05-12T14:54:00Z</time>
      </trkpt>
      <trkpt lat="40.7530200" lon="0.1389640">
        <ele>987.9</ele>
        <time>2013-05-12T14:54:04Z</time>
      </trkpt>
      <trkpt lat="40.7530330" lon="0.1390360">
        <ele>988.5</ele>
        <time>2013-05-12T14:54:09Z</time>
      </trkpt>
      <trkpt lat="40.7530280" lon="0.1390800">
        <ele>989.2</ele>
        <time>2013-05-12T14:54:13Z</time>
      </trkpt>
      <trkpt lat="40.7530470" lon="0.1391730">
        <ele>990.3</ele>
        <time>2013-05-12T14:54:21Z</time>
      </trkpt>
      <trkpt lat="40.7530460" lon="0.1391820">
        <ele>990.5</ele>
        <time>2013-05-12T14:54:22Z</time>
      </trkpt>
      <trkpt lat="40.7530400" lon="0.1392190">
        <ele>991.1</ele>
        <time>2013-05-12T14:54:26Z</time>
      </trkpt>
      <trkpt lat="40.7530340" lon="0.1392620">
        <ele>991.5</ele>
        <time>2013-05-12T14:54:31Z</time>
      </trkpt>
      <trkpt lat="40.7530300" lon="0.1393520">
        <ele>992.7</ele>
        <time>2013-05-12T14:54:39Z</time>
      </trkpt>
      <trkpt lat="40.7530290" lon="0.1393640">
        <ele>992.8</ele>
        <time>2013-05-12T14:54:40Z</time>
      </trkpt>
      <trkpt lat="40.7530280" lon="0.1394590">
        <ele>993.0</ele>
        <time>2013-05-12T14:54:47Z</time>
      </trkpt>
      <trkpt lat="40.7529880" lon="0.1395360">
        <ele>994.2</ele>
        <time>2013-05-12T14:54:55Z</time>
      </trkpt>
      <trkpt lat="40.7529680" lon="0.1395660">
        <ele>995.0</ele>
        <time>2013-05-12T14:55:00Z</time>
      </trkpt>
      <trkpt lat="40.7529460" lon="0.1395800">
        <ele>995.2</ele>
        <time>2013-05-12T14:55:04Z</time>
      </trkpt>
      <trkpt lat="40.7529310" lon="0.1396000">
        <ele>995.7</ele>
        <time>2013-05-12T14:55:08Z</time>
      </trkpt>
      <trkpt lat="40.7529130" lon="0.1396340">
        <ele>995.7</ele>
        <time>2013-05-12T14:55:15Z</time>
      </trkpt>
      <trkpt lat="40.7529030" lon="0.1396450">
        <ele>995.7</ele>
        <time>2013-05-12T14:55:17Z</time>
      </trkpt>
      <trkpt lat="40.7528860" lon="0.1396520">
        <ele>995.9</ele>
        <time>2013-05-12T14:55:20Z</time>
      </trkpt>
      <trkpt lat="40.7528580" lon="0.1396470">
        <ele>996.4</ele>
        <time>2013-05-12T14:55:24Z</time>
      </trkpt>
      <trkpt lat="40.7528060" lon="0.1396990">
        <ele>997.1</ele>
        <time>2013-05-12T14:55:31Z</time>
      </trkpt>
      <trkpt lat="40.7527550" lon="0.1397460">
        <ele>997.9</ele>
        <time>2013-05-12T14:55:39Z</time>
      </trkpt>
      <trkpt lat="40.7527200" lon="0.1397650">
        <ele>998.3</ele>
        <time>2013-05-12T14:55:43Z</time>
      </trkpt>
      <trkpt lat="40.7527020" lon="0.1397720">
        <ele>999.0</ele>
        <time>2013-05-12T14:55:47Z</time>
      </trkpt>
      <trkpt lat="40.7526790" lon="0.1397990">
        <ele>999.3</ele>
        <time>2013-05-12T14:55:51Z</time>
      </trkpt>
      <trkpt lat="40.7526220" lon="0.1398360">
        <ele>1000.4</ele>
        <time>2013-05-12T14:55:58Z</time>
      </trkpt>
      <trkpt lat="40.7526160" lon="0.1398450">
        <ele>1000.7</ele>
        <time>2013-05-12T14:56:00Z</time>
      </trkpt>
      <trkpt lat="40.7526020" lon="0.1398550">
        <ele>1000.3</ele>
        <time>2013-05-12T14:56:09Z</time>
      </trkpt>
      <trkpt lat="40.7525600" lon="0.1399140">
        <ele>1001.4</ele>
        <time>2013-05-12T14:56:16Z</time>
      </trkpt>
      <trkpt lat="40.7525530" lon="0.1399360">
        <ele>1001.6</ele>
        <time>2013-05-12T14:56:18Z</time>
      </trkpt>
      <trkpt lat="40.7525330" lon="0.1399660">
        <ele>1001.7</ele>
        <time>2013-05-12T14:56:21Z</time>
      </trkpt>
      <trkpt lat="40.7525190" lon="0.1400130">
        <ele>1001.6</ele>
        <time>2013-05-12T14:56:26Z</time>
      </trkpt>
      <trkpt lat="40.7524930" lon="0.1401110">
        <ele>1001.3</ele>
        <time>2013-05-12T14:56:37Z</time>
      </trkpt>
      <trkpt lat="40.7524780" lon="0.1401410">
        <ele>1001.6</ele>
        <time>2013-05-12T14:56:41Z</time>
      </trkpt>
      <trkpt lat="40.7524410" lon="0.1402050">
        <ele>1001.5</ele>
        <time>2013-05-12T14:56:46Z</time>
      </trkpt>
      <trkpt lat="40.7524190" lon="0.1402360">
        <ele>1001.8</ele>
        <time>2013-05-12T14:56:50Z</time>
      </trkpt>
      <trkpt lat="40.7523890" lon="0.1402570">
        <ele>1002.5</ele>
        <time>2013-05-12T14:56:54Z</time>
      </trkpt>
      <trkpt lat="40.7523690" lon="0.1402930">
        <ele>1002.9</ele>
        <time>2013-05-12T14:56:58Z</time>
      </trkpt>
      <trkpt lat="40.7523270" lon="0.1403130">
        <ele>1003.4</ele>
        <time>2013-05-12T14:57:01Z</time>
      </trkpt>
      <trkpt lat="40.7522740" lon="0.1403760">
        <ele>1004.1</ele>
        <time>2013-05-12T14:57:07Z</time>
      </trkpt>
      <trkpt lat="40.7522170" lon="0.1404350">
        <ele>1004.1</ele>
        <time>2013-05-12T14:57:14Z</time>
      </trkpt>
      <trkpt lat="40.7521590" lon="0.1404680">
        <ele>1003.7</ele>
        <time>2013-05-12T14:57:19Z</time>
      </trkpt>
      <trkpt lat="40.7520940" lon="0.1405030">
        <ele>1004.9</ele>
        <time>2013-05-12T14:57:26Z</time>
      </trkpt>
      <trkpt lat="40.7520680" lon="0.1405380">
        <ele>1005.0</ele>
        <time>2013-05-12T14:57:31Z</time>
      </trkpt>
      <trkpt lat="40.7520410" lon="0.1405970">
        <ele>1004.7</ele>
        <time>2013-05-12T14:57:38Z</time>
      </trkpt>
      <trkpt lat="40.7519790" lon="0.1406960">
        <ele>1004.1</ele>
        <time>2013-05-12T14:57:44Z</time>
      </trkpt>
      <trkpt lat="40.7519340" lon="0.1407640">
        <ele>1003.5</ele>
        <time>2013-05-12T14:57:49Z</time>
      </trkpt>
      <trkpt lat="40.7518700" lon="0.1408710">
        <ele>1003.0</ele>
        <time>2013-05-12T14:57:55Z</time>
      </trkpt>
      <trkpt lat="40.7518450" lon="0.1410100">
        <ele>1002.0</ele>
        <time>2013-05-12T14:58:00Z</time>
      </trkpt>
      <trkpt lat="40.7517790" lon="0.1411200">
        <ele>1000.8</ele>
        <time>2013-05-12T14:58:05Z</time>
      </trkpt>
      <trkpt lat="40.7517660" lon="0.1411470">
        <ele>1000.4</ele>
        <time>2013-05-12T14:58:07Z</time>
      </trkpt>
      <trkpt lat="40.7517720" lon="0.1411760">
        <ele>999.0</ele>
        <time>2013-05-12T14:58:12Z</time>
      </trkpt>
      <trkpt lat="40.7517650" lon="0.1412170">
        <ele>998.6</ele>
        <time>2013-05-12T14:58:16Z</time>
      </trkpt>
      <trkpt lat="40.7517140" lon="0.1413320">
        <ele>997.4</ele>
        <time>2013-05-12T14:58:20Z</time>
      </trkpt>
      <trkpt lat="40.7516630" lon="0.1414360">
        <ele>996.1</ele>
        <time>2013-05-12T14:58:23Z</time>
      </trkpt>
      <trkpt lat="40.7515810" lon="0.1415870">
        <ele>994.6</ele>
        <time>2013-05-12T14:58:28Z</time>
      </trkpt>
      <trkpt lat="40.7515360" lon="0.1417090">
        <ele>994.1</ele>
        <time>2013-05-12T14:58:32Z</time>
      </trkpt>
      <trkpt lat="40.7514550" lon="0.1418230">
        <ele>994.2</ele>
        <time>2013-05-12T14:58:39Z</time>
      </trkpt>
      <trkpt lat="40.7514350" lon="0.1418910">
        <ele>995.0</ele>
        <time>2013-05-12T14:58:43Z</time>
      </trkpt>
      <trkpt lat="40.7514190" lon="0.1419490">
        <ele>994.9</ele>
        <time>2013-05-12T14:58:46Z</time>
      </trkpt>
      <trkpt lat="40.7513940" lon="0.1420840">
        <ele>993.8</ele>
        <time>2013-05-12T14:58:51Z</time>
      </trkpt>
      <trkpt lat="40.7513690" lon="0.1422130">
        <ele>993.3</ele>
        <time>2013-05-12T14:58:56Z</time>
      </trkpt>
      <trkpt lat="40.7512740" lon="0.1423860">
        <ele>992.6</ele>
        <time>2013-05-12T14:59:01Z</time>
      </trkpt>
      <trkpt lat="40.7511420" lon="0.1425590">
        <ele>991.2</ele>
        <time>2013-05-12T14:59:07Z</time>
      </trkpt>
      <trkpt lat="40.7511110" lon="0.1425840">
        <ele>990.6</ele>
        <time>2013-05-12T14:59:11Z</time>
      </trkpt>
      <trkpt lat="40.7510770" lon="0.1426480">
        <ele>990.4</ele>
        <time>2013-05-12T14:59:27Z</time>
      </trkpt>
      <trkpt lat="40.7509680" lon="0.1427200">
        <ele>989.6</ele>
        <time>2013-05-12T14:59:32Z</time>
      </trkpt>
      <trkpt lat="40.7509030" lon="0.1427720">
        <ele>988.7</ele>
        <time>2013-05-12T14:59:35Z</time>
      </trkpt>
      <trkpt lat="40.7508340" lon="0.1428410">
        <ele>987.1</ele>
        <time>2013-05-12T14:59:40Z</time>
      </trkpt>
      <trkpt lat="40.7508180" lon="0.1428530">
        <ele>986.9</ele>
        <time>2013-05-12T14:59:41Z</time>
      </trkpt>
      <trkpt lat="40.7506500" lon="0.1429250">
        <ele>985.5</ele>
        <time>2013-05-12T14:59:47Z</time>
      </trkpt>
      <trkpt lat="40.7505980" lon="0.1429630">
        <ele>985.8</ele>
        <time>2013-05-12T14:59:50Z</time>
      </trkpt>
      <trkpt lat="40.7505150" lon="0.1430250">
        <ele>985.7</ele>
        <time>2013-05-12T14:59:54Z</time>
      </trkpt>
      <trkpt lat="40.7504360" lon="0.1430370">
        <ele>986.3</ele>
        <time>2013-05-12T14:59:58Z</time>
      </trkpt>
      <trkpt lat="40.7503720" lon="0.1430560">
        <ele>986.7</ele>
        <time>2013-05-12T15:00:03Z</time>
      </trkpt>
      <trkpt lat="40.7503320" lon="0.1430620">
        <ele>986.1</ele>
        <time>2013-05-12T15:00:07Z</time>
      </trkpt>
      <trkpt lat="40.7503020" lon="0.1430730">
        <ele>986.1</ele>
        <time>2013-05-12T15:00:10Z</time>
      </trkpt>
      <trkpt lat="40.7502640" lon="0.1430930">
        <ele>986.2</ele>
        <time>2013-05-12T15:00:18Z</time>
      </trkpt>
      <trkpt lat="40.7502170" lon="0.1431260">
        <ele>986.1</ele>
        <time>2013-05-12T15:00:25Z</time>
      </trkpt>
      <trkpt lat="40.7501720" lon="0.1431450">
        <ele>986.1</ele>
        <time>2013-05-12T15:00:31Z</time>
      </trkpt>
      <trkpt lat="40.7501110" lon="0.1431750">
        <ele>986.4</ele>
        <time>2013-05-12T15:00:38Z</time>
      </trkpt>
      <trkpt lat="40.7500800" lon="0.1431900">
        <ele>986.8</ele>
        <time>2013-05-12T15:00:42Z</time>
      </trkpt>
      <trkpt lat="40.7500110" lon="0.1432190">
        <ele>988.9</ele>
        <time>2013-05-12T15:00:53Z</time>
      </trkpt>
      <trkpt lat="40.7499850" lon="0.1432380">
        <ele>989.5</ele>
        <time>2013-05-12T15:00:58Z</time>
      </trkpt>
      <trkpt lat="40.7499410" lon="0.1432480">
        <ele>990.2</ele>
        <time>2013-05-12T15:01:03Z</time>
      </trkpt>
      <trkpt lat="40.7498960" lon="0.1432640">
        <ele>991.2</ele>
        <time>2013-05-12T15:01:10Z</time>
      </trkpt>
      <trkpt lat="40.7498310" lon="0.1433260">
        <ele>992.4</ele>
        <time>2013-05-12T15:01:18Z</time>
      </trkpt>
      <trkpt lat="40.7498220" lon="0.1433400">
        <ele>992.5</ele>
        <time>2013-05-12T15:01:19Z</time>
      </trkpt>
      <trkpt lat="40.7498070" lon="0.1433930">
        <ele>992.5</ele>
        <time>2013-05-12T15:01:25Z</time>
      </trkpt>
      <trkpt lat="40.7497360" lon="0.1434560">
        <ele>992.8</ele>
        <time>2013-05-12T15:01:35Z</time>
      </trkpt>
      <trkpt lat="40.7496300" lon="0.1435670">
        <ele>993.9</ele>
        <time>2013-05-12T15:01:43Z</time>
      </trkpt>
      <trkpt lat="40.7496070" lon="0.1436310">
        <ele>994.6</ele>
        <time>2013-05-12T15:01:48Z</time>
      </trkpt>
      <trkpt lat="40.7495890" lon="0.1436550">
        <ele>995.0</ele>
        <time>2013-05-12T15:01:50Z</time>
      </trkpt>
      <trkpt lat="40.7495490" lon="0.1437150">
        <ele>996.3</ele>
        <time>2013-05-12T15:01:55Z</time>
      </trkpt>
      <trkpt lat="40.7495420" lon="0.1437210">
        <ele>996.4</ele>
        <time>2013-05-12T15:01:56Z</time>
      </trkpt>
      <trkpt lat="40.7494860" lon="0.1437780">
        <ele>997.2</ele>
        <time>2013-05-12T15:02:00Z</time>
      </trkpt>
      <trkpt lat="40.7494750" lon="0.1437800">
        <ele>997.4</ele>
        <time>2013-05-12T15:02:02Z</time>
      </trkpt>
      <trkpt lat="40.7494260" lon="0.1438070">
        <ele>997.9</ele>
        <time>2013-05-12T15:02:09Z</time>
      </trkpt>
      <trkpt lat="40.7494040" lon="0.1438120">
        <ele>999.0</ele>
        <time>2013-05-12T15:02:14Z</time>
      </trkpt>
      <trkpt lat="40.7493690" lon="0.1438610">
        <ele>1000.0</ele>
        <time>2013-05-12T15:02:21Z</time>
      </trkpt>
      <trkpt lat="40.7493500" lon="0.1438830">
        <ele>1000.8</ele>
        <time>2013-05-12T15:02:25Z</time>
      </trkpt>
      <trkpt lat="40.7493000" lon="0.1439130">
        <ele>1002.1</ele>
        <time>2013-05-12T15:02:31Z</time>
      </trkpt>
      <trkpt lat="40.7492840" lon="0.1439210">
        <ele>1002.4</ele>
        <time>2013-05-12T15:02:33Z</time>
      </trkpt>
      <trkpt lat="40.7492190" lon="0.1439730">
        <ele>1003.9</ele>
        <time>2013-05-12T15:02:41Z</time>
      </trkpt>
      <trkpt lat="40.7492150" lon="0.1439750">
        <ele>1004.3</ele>
        <time>2013-05-12T15:02:42Z</time>
      </trkpt>
      <trkpt lat="40.7491750" lon="0.1439930">
        <ele>1005.0</ele>
        <time>2013-05-12T15:02:50Z</time>
      </trkpt>
      <trkpt lat="40.7491130" lon="0.1440230">
        <ele>1004.7</ele>
        <time>2013-05-12T15:03:02Z</time>
      </trkpt>
      <trkpt lat="40.7490950" lon="0.1440360">
        <ele>1004.7</ele>
        <time>2013-05-12T15:03:06Z</time>
      </trkpt>
      <trkpt lat="40.7490850" lon="0.1440560">
        <ele>1005.2</ele>
        <time>2013-05-12T15:03:27Z</time>
      </trkpt>
      <trkpt lat="40.7490840" lon="0.1440640">
        <ele>1005.4</ele>
        <time>2013-05-12T15:03:28Z</time>
      </trkpt>
      <trkpt lat="40.7490400" lon="0.1441200">
        <ele>1007.0</ele>
        <time>2013-05-12T15:03:38Z</time>
      </trkpt>
      <trkpt lat="40.7490320" lon="0.1441280">
        <ele>1007.2</ele>
        <time>2013-05-12T15:03:40Z</time>
      </trkpt>
      <trkpt lat="40.7490180" lon="0.1441300">
        <ele>1007.8</ele>
        <time>2013-05-12T15:03:45Z</time>
      </trkpt>
      <trkpt lat="40.7489920" lon="0.1441650">
        <ele>1009.1</ele>
        <time>2013-05-12T15:03:51Z</time>
      </trkpt>
      <trkpt lat="40.7489740" lon="0.1441930">
        <ele>1010.3</ele>
        <time>2013-05-12T15:03:56Z</time>
      </trkpt>
      <trkpt lat="40.7489250" lon="0.1442150">
        <ele>1011.4</ele>
        <time>2013-05-12T15:04:02Z</time>
      </trkpt>
      <trkpt lat="40.7488850" lon="0.1442350">
        <ele>1012.8</ele>
        <time>2013-05-12T15:04:07Z</time>
      </trkpt>
      <trkpt lat="40.7488280" lon="0.1442590">
        <ele>1014.4</ele>
        <time>2013-05-12T15:04:14Z</time>
      </trkpt>
      <trkpt lat="40.7487860" lon="0.1442740">
        <ele>1015.4</ele>
        <time>2013-05-12T15:04:19Z</time>
      </trkpt>
      <trkpt lat="40.7487770" lon="0.1442790">
        <ele>1015.7</ele>
        <time>2013-05-12T15:04:20Z</time>
      </trkpt>
      <trkpt lat="40.7487010" lon="0.1442980">
        <ele>1017.2</ele>
        <time>2013-05-12T15:04:28Z</time>
      </trkpt>
      <trkpt lat="40.7486730" lon="0.1443080">
        <ele>1017.7</ele>
        <time>2013-05-12T15:04:31Z</time>
      </trkpt>
      <trkpt lat="40.7486380" lon="0.1443010">
        <ele>1018.3</ele>
        <time>2013-05-12T15:04:36Z</time>
      </trkpt>
      <trkpt lat="40.7485820" lon="0.1442970">
        <ele>1018.9</ele>
        <time>2013-05-12T15:04:52Z</time>
      </trkpt>
      <trkpt lat="40.7485490" lon="0.1442860">
        <ele>1019.7</ele>
        <time>2013-05-12T15:04:56Z</time>
      </trkpt>
      <trkpt lat="40.7485300" lon="0.1442880">
        <ele>1020.0</ele>
        <time>2013-05-12T15:04:59Z</time>
      </trkpt>
      <trkpt lat="40.7485250" lon="0.1442870">
        <ele>1020.1</ele>
        <time>2013-05-12T15:05:00Z</time>
      </trkpt>
      <trkpt lat="40.7485010" lon="0.1442720">
        <ele>1020.9</ele>
        <time>2013-05-12T15:05:05Z</time>
      </trkpt>
      <trkpt lat="40.7484320" lon="0.1442690">
        <ele>1021.8</ele>
        <time>2013-05-12T15:05:13Z</time>
      </trkpt>
      <trkpt lat="40.7483870" lon="0.1442680">
        <ele>1023.1</ele>
        <time>2013-05-12T15:05:17Z</time>
      </trkpt>
      <trkpt lat="40.7483610" lon="0.1442360">
        <ele>1024.3</ele>
        <time>2013-05-12T15:05:23Z</time>
      </trkpt>
      <trkpt lat="40.7483610" lon="0.1442340">
        <ele>1024.5</ele>
        <time>2013-05-12T15:05:24Z</time>
      </trkpt>
      <trkpt lat="40.7483180" lon="0.1441990">
        <ele>1024.9</ele>
        <time>2013-05-12T15:05:32Z</time>
      </trkpt>
      <trkpt lat="40.7482950" lon="0.1441750">
        <ele>1025.1</ele>
        <time>2013-05-12T15:05:37Z</time>
      </trkpt>
      <trkpt lat="40.7482290" lon="0.1441750">
        <ele>1025.6</ele>
        <time>2013-05-12T15:05:56Z</time>
      </trkpt>
      <trkpt lat="40.7482290" lon="0.1441770">
        <ele>1025.7</ele>
        <time>2013-05-12T15:05:57Z</time>
      </trkpt>
      <trkpt lat="40.7482100" lon="0.1441760">
        <ele>1026.0</ele>
        <time>2013-05-12T15:06:00Z</time>
      </trkpt>
      <trkpt lat="40.7482000" lon="0.1441750">
        <ele>1026.1</ele>
        <time>2013-05-12T15:06:01Z</time>
      </trkpt>
      <trkpt lat="40.7481410" lon="0.1441610">
        <ele>1027.5</ele>
        <time>2013-05-12T15:06:08Z</time>
      </trkpt>
      <trkpt lat="40.7481310" lon="0.1441590">
        <ele>1027.8</ele>
        <time>2013-05-12T15:06:10Z</time>
      </trkpt>
      <trkpt lat="40.7480480" lon="0.1441810">
        <ele>1028.9</ele>
        <time>2013-05-12T15:06:26Z</time>
      </trkpt>
      <trkpt lat="40.7480220" lon="0.1441770">
        <ele>1029.4</ele>
        <time>2013-05-12T15:06:30Z</time>
      </trkpt>
      <trkpt lat="40.7479990" lon="0.1442210">
        <ele>1029.4</ele>
        <time>2013-05-12T15:06:39Z</time>
      </trkpt>
      <trkpt lat="40.7479950" lon="0.1442250">
        <ele>1029.4</ele>
        <time>2013-05-12T15:06:40Z</time>
      </trkpt>
      <trkpt lat="40.7479840" lon="0.1442310">
        <ele>1029.5</ele>
        <time>2013-05-12T15:06:50Z</time>
      </trkpt>
      <trkpt lat="40.7479820" lon="0.1442300">
        <ele>1029.5</ele>
        <time>2013-05-12T15:06:51Z</time>
      </trkpt>
      <trkpt lat="40.7479240" lon="0.1442260">
        <ele>1030.0</ele>
        <time>2013-05-12T15:06:59Z</time>
      </trkpt>
      <trkpt lat="40.7478500" lon="0.1442350">
        <ele>1030.5</ele>
        <time>2013-05-12T15:07:06Z</time>
      </trkpt>
      <trkpt lat="40.7478050" lon="0.1442370">
        <ele>1030.7</ele>
        <time>2013-05-12T15:07:10Z</time>
      </trkpt>
      <trkpt lat="40.7477600" lon="0.1442480">
        <ele>1030.7</ele>
        <time>2013-05-12T15:07:15Z</time>
      </trkpt>
      <trkpt lat="40.7476960" lon="0.1442730">
        <ele>1030.9</ele>
        <time>2013-05-12T15:07:25Z</time>
      </trkpt>
      <trkpt lat="40.7476750" lon="0.1442820">
        <ele>1031.0</ele>
        <time>2013-05-12T15:07:29Z</time>
      </trkpt>
      <trkpt lat="40.7476710" lon="0.1442860">
        <ele>1031.4</ele>
        <time>2013-05-12T15:07:31Z</time>
      </trkpt>
      <trkpt lat="40.7476450" lon="0.1443060">
        <ele>1031.7</ele>
        <time>2013-05-12T15:07:37Z</time>
      </trkpt>
      <trkpt lat="40.7476530" lon="0.1443310">
        <ele>1031.7</ele>
        <time>2013-05-12T15:07:40Z</time>
      </trkpt>
      <trkpt lat="40.7476760" lon="0.1444150">
        <ele>1030.4</ele>
        <time>2013-05-12T15:07:45Z</time>
      </trkpt>
      <trkpt lat="40.7476640" lon="0.1444660">
        <ele>1029.4</ele>
        <time>2013-05-12T15:07:49Z</time>
      </trkpt>
      <trkpt lat="40.7476050" lon="0.1444740">
        <ele>1029.9</ele>
        <time>2013-05-12T15:08:03Z</time>
      </trkpt>
      <trkpt lat="40.7476040" lon="0.1444760">
        <ele>1029.9</ele>
        <time>2013-05-12T15:08:04Z</time>
      </trkpt>
      <trkpt lat="40.7475630" lon="0.1445090">
        <ele>1029.2</ele>
        <time>2013-05-12T15:08:23Z</time>
      </trkpt>
      <trkpt lat="40.7475330" lon="0.1445220">
        <ele>1028.3</ele>
        <time>2013-05-12T15:08:27Z</time>
      </trkpt>
      <trkpt lat="40.7475010" lon="0.1445620">
        <ele>1026.3</ele>
        <time>2013-05-12T15:08:34Z</time>
      </trkpt>
      <trkpt lat="40.7474730" lon="0.1445720">
        <ele>1025.8</ele>
        <time>2013-05-12T15:08:39Z</time>
      </trkpt>
      <trkpt lat="40.7474690" lon="0.1445780">
        <ele>1025.6</ele>
        <time>2013-05-12T15:08:40Z</time>
      </trkpt>
      <trkpt lat="40.7474660" lon="0.1445820">
        <ele>1025.1</ele>
        <time>2013-05-12T15:08:42Z</time>
      </trkpt>
      <trkpt lat="40.7473810" lon="0.1446450">
        <ele>1024.1</ele>
        <time>2013-05-12T15:09:01Z</time>
      </trkpt>
      <trkpt lat="40.7473540" lon="0.1446880">
        <ele>1023.8</ele>
        <time>2013-05-12T15:09:06Z</time>
      </trkpt>
      <trkpt lat="40.7473600" lon="0.1446980">
        <ele>1023.5</ele>
        <time>2013-05-12T15:09:08Z</time>
      </trkpt>
      <trkpt lat="40.7473440" lon="0.1448050">
        <ele>1023.4</ele>
        <time>2013-05-12T15:09:27Z</time>
      </trkpt>
      <trkpt lat="40.7472670" lon="0.1448220">
        <ele>1023.4</ele>
        <time>2013-05-12T15:09:32Z</time>
      </trkpt>
      <trkpt lat="40.7472290" lon="0.1448430">
        <ele>1023.2</ele>
        <time>2013-05-12T15:09:35Z</time>
      </trkpt>
      <trkpt lat="40.7471710" lon="0.1448710">
        <ele>1022.7</ele>
        <time>2013-05-12T15:09:41Z</time>
      </trkpt>
      <trkpt lat="40.7471480" lon="0.1448770">
        <ele>1022.7</ele>
        <time>2013-05-12T15:09:45Z</time>
      </trkpt>
      <trkpt lat="40.7471220" lon="0.1448970">
        <ele>1022.6</ele>
        <time>2013-05-12T15:09:49Z</time>
      </trkpt>
      <trkpt lat="40.7471150" lon="0.1449290">
        <ele>1022.6</ele>
        <time>2013-05-12T15:09:53Z</time>
      </trkpt>
      <trkpt lat="40.7470620" lon="0.1450060">
        <ele>1022.1</ele>
        <time>2013-05-12T15:10:01Z</time>
      </trkpt>
      <trkpt lat="40.7470210" lon="0.1450750">
        <ele>1021.6</ele>
        <time>2013-05-12T15:10:05Z</time>
      </trkpt>
      <trkpt lat="40.7469650" lon="0.1452090">
        <ele>1021.1</ele>
        <time>2013-05-12T15:10:12Z</time>
      </trkpt>
      <trkpt lat="40.7469130" lon="0.1453040">
        <ele>1020.5</ele>
        <time>2013-05-12T15:10:17Z</time>
      </trkpt>
      <trkpt lat="40.7469010" lon="0.1453180">
        <ele>1020.4</ele>
        <time>2013-05-12T15:10:19Z</time>
      </trkpt>
      <trkpt lat="40.7468290" lon="0.1454000">
        <ele>1020.6</ele>
        <time>2013-05-12T15:10:25Z</time>
      </trkpt>
      <trkpt lat="40.7468020" lon="0.1454160">
        <ele>1020.5</ele>
        <time>2013-05-12T15:10:28Z</time>
      </trkpt>
      <trkpt lat="40.7467730" lon="0.1454540">
        <ele>1020.1</ele>
        <time>2013-05-12T15:10:32Z</time>
      </trkpt>
      <trkpt lat="40.7467390" lon="0.1454980">
        <ele>1020.8</ele>
        <time>2013-05-12T15:10:52Z</time>
      </trkpt>
      <trkpt lat="40.7467370" lon="0.1455020">
        <ele>1020.9</ele>
        <time>2013-05-12T15:10:53Z</time>
      </trkpt>
      <trkpt lat="40.7467340" lon="0.1455040">
        <ele>1020.8</ele>
        <time>2013-05-12T15:10:54Z</time>
      </trkpt>
      <trkpt lat="40.7467240" lon="0.1454730">
        <ele>1019.9</ele>
        <time>2013-05-12T15:11:25Z</time>
      </trkpt>
      <trkpt lat="40.7467210" lon="0.1454760">
        <ele>1019.8</ele>
        <time>2013-05-12T15:11:26Z</time>
      </trkpt>
      <trkpt lat="40.7466850" lon="0.1454810">
        <ele>1019.6</ele>
        <time>2013-05-12T15:11:31Z</time>
      </trkpt>
      <trkpt lat="40.7466570" lon="0.1454960">
        <ele>1019.5</ele>
        <time>2013-05-12T15:11:34Z</time>
      </trkpt>
      <trkpt lat="40.7466440" lon="0.1455150">
        <ele>1018.9</ele>
        <time>2013-05-12T15:11:37Z</time>
      </trkpt>
      <trkpt lat="40.7466000" lon="0.1455400">
        <ele>1019.0</ele>
        <time>2013-05-12T15:11:51Z</time>
      </trkpt>
      <trkpt lat="40.7465930" lon="0.1455420">
        <ele>1018.7</ele>
        <time>2013-05-12T15:11:52Z</time>
      </trkpt>
      <trkpt lat="40.7465170" lon="0.1455740">
        <ele>1018.0</ele>
        <time>2013-05-12T15:11:57Z</time>
      </trkpt>
      <trkpt lat="40.7463800" lon="0.1456020">
        <ele>1017.3</ele>
        <time>2013-05-12T15:12:03Z</time>
      </trkpt>
      <trkpt lat="40.7462430" lon="0.1456060">
        <ele>1016.7</ele>
        <time>2013-05-12T15:12:08Z</time>
      </trkpt>
      <trkpt lat="40.7461360" lon="0.1455720">
        <ele>1016.4</ele>
        <time>2013-05-12T15:12:14Z</time>
      </trkpt>
      <trkpt lat="40.7461270" lon="0.1455720">
        <ele>1016.4</ele>
        <time>2013-05-12T15:12:16Z</time>
      </trkpt>
      <trkpt lat="40.7460460" lon="0.1455790">
        <ele>1016.2</ele>
        <time>2013-05-12T15:12:22Z</time>
      </trkpt>
      <trkpt lat="40.7459440" lon="0.1456010">
        <ele>1016.0</ele>
        <time>2013-05-12T15:12:27Z</time>
      </trkpt>
      <trkpt lat="40.7459380" lon="0.1456060">
        <ele>1015.9</ele>
        <time>2013-05-12T15:12:29Z</time>
      </trkpt>
      <trkpt lat="40.7458560" lon="0.1456070">
        <ele>1016.2</ele>
        <time>2013-05-12T15:12:41Z</time>
      </trkpt>
      <trkpt lat="40.7457200" lon="0.1456220">
        <ele>1016.9</ele>
        <time>2013-05-12T15:12:49Z</time>
      </trkpt>
      <trkpt lat="40.7456120" lon="0.1456120">
        <ele>1018.1</ele>
        <time>2013-05-12T15:12:56Z</time>
      </trkpt>
      <trkpt lat="40.7455450" lon="0.1456020">
        <ele>1019.1</ele>
        <time>2013-05-12T15:13:00Z</time>
      </trkpt>
      <trkpt lat="40.7454860" lon="0.1455870">
        <ele>1020.2</ele>
        <time>2013-05-12T15:13:04Z</time>
      </trkpt>
      <trkpt lat="40.7454460" lon="0.1455690">
        <ele>1021.2</ele>
        <time>2013-05-12T15:13:07Z</time>
      </trkpt>
      <trkpt lat="40.7453920" lon="0.1455460">
        <ele>1022.4</ele>
        <time>2013-05-12T15:13:11Z</time>
      </trkpt>
      <trkpt lat="40.7453650" lon="0.1455330">
        <ele>1022.9</ele>
        <time>2013-05-12T15:13:13Z</time>
      </trkpt>
      <trkpt lat="40.7452980" lon="0.1454950">
        <ele>1023.9</ele>
        <time>2013-05-12T15:13:18Z</time>
      </trkpt>
      <trkpt lat="40.7452130" lon="0.1454680">
        <ele>1025.0</ele>
        <time>2013-05-12T15:13:23Z</time>
      </trkpt>
      <trkpt lat="40.7450390" lon="0.1454460">
        <ele>1025.7</ele>
        <time>2013-05-12T15:13:32Z</time>
      </trkpt>
      <trkpt lat="40.7449230" lon="0.1454320">
        <ele>1025.3</ele>
        <time>2013-05-12T15:13:36Z</time>
      </trkpt>
      <trkpt lat="40.7447090" lon="0.1454610">
        <ele>1024.5</ele>
        <time>2013-05-12T15:13:42Z</time>
      </trkpt>
      <trkpt lat="40.7445290" lon="0.1455830">
        <ele>1024.5</ele>
        <time>2013-05-12T15:13:49Z</time>
      </trkpt>
      <trkpt lat="40.7444610" lon="0.1456370">
        <ele>1024.6</ele>
        <time>2013-05-12T15:13:52Z</time>
      </trkpt>
      <trkpt lat="40.7444160" lon="0.1456600">
        <ele>1025.0</ele>
        <time>2013-05-12T15:13:54Z</time>
      </trkpt>
      <trkpt lat="40.7443970" lon="0.1456700">
        <ele>1025.1</ele>
        <time>2013-05-12T15:13:55Z</time>
      </trkpt>
      <trkpt lat="40.7442830" lon="0.1457140">
        <ele>1027.3</ele>
        <time>2013-05-12T15:14:01Z</time>
      </trkpt>
      <trkpt lat="40.7442020" lon="0.1457820">
        <ele>1028.6</ele>
        <time>2013-05-12T15:14:06Z</time>
      </trkpt>
      <trkpt lat="40.7441160" lon="0.1459120">
        <ele>1028.5</ele>
        <time>2013-05-12T15:14:11Z</time>
      </trkpt>
      <trkpt lat="40.7440080" lon="0.1460160">
        <ele>1027.7</ele>
        <time>2013-05-12T15:14:15Z</time>
      </trkpt>
      <trkpt lat="40.7439180" lon="0.1461520">
        <ele>1027.3</ele>
        <time>2013-05-12T15:14:20Z</time>
      </trkpt>
      <trkpt lat="40.7438170" lon="0.1463020">
        <ele>1027.0</ele>
        <time>2013-05-12T15:14:25Z</time>
      </trkpt>
      <trkpt lat="40.7436370" lon="0.1463280">
        <ele>1027.5</ele>
        <time>2013-05-12T15:14:31Z</time>
      </trkpt>
      <trkpt lat="40.7435220" lon="0.1463930">
        <ele>1027.1</ele>
        <time>2013-05-12T15:14:35Z</time>
      </trkpt>
      <trkpt lat="40.7434930" lon="0.1464240">
        <ele>1026.8</ele>
        <time>2013-05-12T15:14:36Z</time>
      </trkpt>
      <trkpt lat="40.7434270" lon="0.1465670">
        <ele>1026.1</ele>
        <time>2013-05-12T15:14:39Z</time>
      </trkpt>
      <trkpt lat="40.7434140" lon="0.1466060">
        <ele>1025.8</ele>
        <time>2013-05-12T15:14:40Z</time>
      </trkpt>
      <trkpt lat="40.7432740" lon="0.1467220">
        <ele>1025.4</ele>
        <time>2013-05-12T15:14:46Z</time>
      </trkpt>
      <trkpt lat="40.7431440" lon="0.1467130">
        <ele>1025.7</ele>
        <time>2013-05-12T15:14:51Z</time>
      </trkpt>
      <trkpt lat="40.7430410" lon="0.1466850">
        <ele>1026.6</ele>
        <time>2013-05-12T15:14:57Z</time>
      </trkpt>
      <trkpt lat="40.7429780" lon="0.1466620">
        <ele>1027.2</ele>
        <time>2013-05-12T15:15:01Z</time>
      </trkpt>
      <trkpt lat="40.7429070" lon="0.1466440">
        <ele>1028.2</ele>
        <time>2013-05-12T15:15:05Z</time>
      </trkpt>
      <trkpt lat="40.7428520" lon="0.1466290">
        <ele>1028.8</ele>
        <time>2013-05-12T15:15:08Z</time>
      </trkpt>
      <trkpt lat="40.7427990" lon="0.1466070">
        <ele>1029.4</ele>
        <time>2013-05-12T15:15:11Z</time>
      </trkpt>
      <trkpt lat="40.7427230" lon="0.1465880">
        <ele>1030.4</ele>
        <time>2013-05-12T15:15:16Z</time>
      </trkpt>
      <trkpt lat="40.7426000" lon="0.1466060">
        <ele>1031.5</ele>
        <time>2013-05-12T15:15:23Z</time>
      </trkpt>
      <trkpt lat="40.7424830" lon="0.1466450">
        <ele>1033.5</ele>
        <time>2013-05-12T15:15:30Z</time>
      </trkpt>
      <trkpt lat="40.7424380" lon="0.1466540">
        <ele>1034.6</ele>
        <time>2013-05-12T15:15:35Z</time>
      </trkpt>
      <trkpt lat="40.7424140" lon="0.1466600">
        <ele>1035.0</ele>
        <time>2013-05-12T15:15:39Z</time>
      </trkpt>
      <trkpt lat="40.7423900" lon="0.1466710">
        <ele>1035.2</ele>
        <time>2013-05-12T15:15:44Z</time>
      </trkpt>
      <trkpt lat="40.7423590" lon="0.1466820">
        <ele>1035.3</ele>
        <time>2013-05-12T15:15:55Z</time>
      </trkpt>
      <trkpt lat="40.7422490" lon="0.1467410">
        <ele>1036.3</ele>
        <time>2013-05-12T15:16:01Z</time>
      </trkpt>
      <trkpt lat="40.7422160" lon="0.1468120">
        <ele>1037.3</ele>
        <time>2013-05-12T15:16:06Z</time>
      </trkpt>
      <trkpt lat="40.7421890" lon="0.1468300">
        <ele>1038.3</ele>
        <time>2013-05-12T15:16:10Z</time>
      </trkpt>
      <trkpt lat="40.7421300" lon="0.1469110">
        <ele>1040.0</ele>
        <time>2013-05-12T15:16:16Z</time>
      </trkpt>
      <trkpt lat="40.7421200" lon="0.1469480">
        <ele>1040.9</ele>
        <time>2013-05-12T15:16:21Z</time>
      </trkpt>
      <trkpt lat="40.7421270" lon="0.1469380">
        <ele>1041.6</ele>
        <time>2013-05-12T15:16:24Z</time>
      </trkpt>
      <trkpt lat="40.7420030" lon="0.1470800">
        <ele>1043.5</ele>
        <time>2013-05-12T15:16:49Z</time>
      </trkpt>
      <trkpt lat="40.7419600" lon="0.1471960">
        <ele>1044.9</ele>
        <time>2013-05-12T15:16:54Z</time>
      </trkpt>
      <trkpt lat="40.7419490" lon="0.1472230">
        <ele>1045.2</ele>
        <time>2013-05-12T15:16:55Z</time>
      </trkpt>
      <trkpt lat="40.7419490" lon="0.1473280">
        <ele>1046.0</ele>
        <time>2013-05-12T15:16:59Z</time>
      </trkpt>
      <trkpt lat="40.7419830" lon="0.1475140">
        <ele>1046.2</ele>
        <time>2013-05-12T15:17:07Z</time>
      </trkpt>
      <trkpt lat="40.7420070" lon="0.1476720">
        <ele>1046.5</ele>
        <time>2013-05-12T15:17:13Z</time>
      </trkpt>
      <trkpt lat="40.7420120" lon="0.1477150">
        <ele>1046.6</ele>
        <time>2013-05-12T15:17:15Z</time>
      </trkpt>
      <trkpt lat="40.7420230" lon="0.1477480">
        <ele>1046.1</ele>
        <time>2013-05-12T15:17:20Z</time>
      </trkpt>
      <trkpt lat="40.7420210" lon="0.1477900">
        <ele>1046.2</ele>
        <time>2013-05-12T15:17:24Z</time>
      </trkpt>
      <trkpt lat="40.7420050" lon="0.1478120">
        <ele>1046.5</ele>
        <time>2013-05-12T15:17:27Z</time>
      </trkpt>
      <trkpt lat="40.7420030" lon="0.1478830">
        <ele>1046.9</ele>
        <time>2013-05-12T15:17:49Z</time>
      </trkpt>
      <trkpt lat="40.7419790" lon="0.1480000">
        <ele>1048.2</ele>
        <time>2013-05-12T15:17:55Z</time>
      </trkpt>
      <trkpt lat="40.7419730" lon="0.1480510">
        <ele>1049.1</ele>
        <time>2013-05-12T15:17:58Z</time>
      </trkpt>
      <trkpt lat="40.7419660" lon="0.1480830">
        <ele>1049.6</ele>
        <time>2013-05-12T15:18:00Z</time>
      </trkpt>
      <trkpt lat="40.7419540" lon="0.1481760">
        <ele>1050.7</ele>
        <time>2013-05-12T15:18:05Z</time>
      </trkpt>
      <trkpt lat="40.7419500" lon="0.1482400">
        <ele>1051.7</ele>
        <time>2013-05-12T15:18:08Z</time>
      </trkpt>
      <trkpt lat="40.7419380" lon="0.1483020">
        <ele>1052.5</ele>
        <time>2013-05-12T15:18:11Z</time>
      </trkpt>
      <trkpt lat="40.7419100" lon="0.1483610">
        <ele>1053.7</ele>
        <time>2013-05-12T15:18:15Z</time>
      </trkpt>
      <trkpt lat="40.7418870" lon="0.1484140">
        <ele>1054.5</ele>
        <time>2013-05-12T15:18:18Z</time>
      </trkpt>
      <trkpt lat="40.7418650" lon="0.1484790">
        <ele>1054.9</ele>
        <time>2013-05-12T15:18:21Z</time>
      </trkpt>
      <trkpt lat="40.7418170" lon="0.1485830">
        <ele>1055.8</ele>
        <time>2013-05-12T15:18:26Z</time>
      </trkpt>
      <trkpt lat="40.7416990" lon="0.1486490">
        <ele>1057.4</ele>
        <time>2013-05-12T15:18:33Z</time>
      </trkpt>
      <trkpt lat="40.7416110" lon="0.1486490">
        <ele>1059.0</ele>
        <time>2013-05-12T15:18:39Z</time>
      </trkpt>
      <trkpt lat="40.7415380" lon="0.1486180">
        <ele>1060.3</ele>
        <time>2013-05-12T15:18:44Z</time>
      </trkpt>
      <trkpt lat="40.7413990" lon="0.1485810">
        <ele>1060.1</ele>
        <time>2013-05-12T15:18:50Z</time>
      </trkpt>
      <trkpt lat="40.7412510" lon="0.1485590">
        <ele>1059.1</ele>
        <time>2013-05-12T15:18:54Z</time>
      </trkpt>
      <trkpt lat="40.7412010" lon="0.1485570">
        <ele>1058.7</ele>
        <time>2013-05-12T15:18:55Z</time>
      </trkpt>
      <trkpt lat="40.7409370" lon="0.1485600">
        <ele>1057.2</ele>
        <time>2013-05-12T15:19:01Z</time>
      </trkpt>
      <trkpt lat="40.7408170" lon="0.1485540">
        <ele>1056.8</ele>
        <time>2013-05-12T15:19:04Z</time>
      </trkpt>
      <trkpt lat="40.7406540" lon="0.1485970">
        <ele>1057.3</ele>
        <time>2013-05-12T15:19:10Z</time>
      </trkpt>
      <trkpt lat="40.7406440" lon="0.1487070">
        <ele>1058.2</ele>
        <time>2013-05-12T15:19:14Z</time>
      </trkpt>
      <trkpt lat="40.7406510" lon="0.1489200">
        <ele>1058.5</ele>
        <time>2013-05-12T15:19:19Z</time>
      </trkpt>
      <trkpt lat="40.7405910" lon="0.1491480">
        <ele>1058.6</ele>
        <time>2013-05-12T15:19:26Z</time>
      </trkpt>
      <trkpt lat="40.7405130" lon="0.1493180">
        <ele>1059.8</ele>
        <time>2013-05-12T15:19:32Z</time>
      </trkpt>
      <trkpt lat="40.7404670" lon="0.1494630">
        <ele>1060.9</ele>
        <time>2013-05-12T15:19:36Z</time>
      </trkpt>
      <trkpt lat="40.7404240" lon="0.1495740">
        <ele>1061.4</ele>
        <time>2013-05-12T15:19:39Z</time>
      </trkpt>
      <trkpt lat="40.7404220" lon="0.1497780">
        <ele>1060.8</ele>
        <time>2013-05-12T15:19:44Z</time>
      </trkpt>
      <trkpt lat="40.7403970" lon="0.1499250">
        <ele>1059.4</ele>
        <time>2013-05-12T15:19:48Z</time>
      </trkpt>
      <trkpt lat="40.7404130" lon="0.1501350">
        <ele>1058.4</ele>
        <time>2013-05-12T15:19:53Z</time>
      </trkpt>
      <trkpt lat="40.7404320" lon="0.1502340">
        <ele>1058.0</ele>
        <time>2013-05-12T15:19:55Z</time>
      </trkpt>
      <trkpt lat="40.7404620" lon="0.1503200">
        <ele>1057.7</ele>
        <time>2013-05-12T15:19:58Z</time>
      </trkpt>
      <trkpt lat="40.7404950" lon="0.1503980">
        <ele>1057.5</ele>
        <time>2013-05-12T15:20:02Z</time>
      </trkpt>
      <trkpt lat="40.7405560" lon="0.1505710">
        <ele>1056.5</ele>
        <time>2013-05-12T15:20:07Z</time>
      </trkpt>
      <trkpt lat="40.7405920" lon="0.1507400">
        <ele>1055.5</ele>
        <time>2013-05-12T15:20:10Z</time>
      </trkpt>
      <trkpt lat="40.7406220" lon="0.1508680">
        <ele>1054.2</ele>
        <time>2013-05-12T15:20:12Z</time>
      </trkpt>
      <trkpt lat="40.7408560" lon="0.1514370">
        <ele>1050.3</ele>
        <time>2013-05-12T15:20:18Z</time>
      </trkpt>
      <trkpt lat="40.7409450" lon="0.1517590">
        <ele>1049.3</ele>
        <time>2013-05-12T15:20:22Z</time>
      </trkpt>
      <trkpt lat="40.7410030" lon="0.1519690">
        <ele>1048.8</ele>
        <time>2013-05-12T15:20:25Z</time>
      </trkpt>
      <trkpt lat="40.7410870" lon="0.1523930">
        <ele>1046.0</ele>
        <time>2013-05-12T15:20:30Z</time>
      </trkpt>
      <trkpt lat="40.7412540" lon="0.1527500">
        <ele>1043.7</ele>
        <time>2013-05-12T15:20:34Z</time>
      </trkpt>
      <trkpt lat="40.7413540" lon="0.1529240">
        <ele>1043.1</ele>
        <time>2013-05-12T15:20:37Z</time>
      </trkpt>
      <trkpt lat="40.7413540" lon="0.1530240">
        <ele>1043.8</ele>
        <time>2013-05-12T15:20:40Z</time>
      </trkpt>
      <trkpt lat="40.7412830" lon="0.1531580">
        <ele>1044.8</ele>
        <time>2013-05-12T15:20:48Z</time>
      </trkpt>
      <trkpt lat="40.7412450" lon="0.1532660">
        <ele>1046.1</ele>
        <time>2013-05-12T15:20:54Z</time>
      </trkpt>
      <trkpt lat="40.7412230" lon="0.1533290">
        <ele>1046.9</ele>
        <time>2013-05-12T15:20:57Z</time>
      </trkpt>
      <trkpt lat="40.7412110" lon="0.1533700">
        <ele>1047.4</ele>
        <time>2013-05-12T15:20:59Z</time>
      </trkpt>
      <trkpt lat="40.7411580" lon="0.1535500">
        <ele>1049.2</ele>
        <time>2013-05-12T15:21:07Z</time>
      </trkpt>
      <trkpt lat="40.7411080" lon="0.1537230">
        <ele>1051.0</ele>
        <time>2013-05-12T15:21:15Z</time>
      </trkpt>
      <trkpt lat="40.7410260" lon="0.1538310">
        <ele>1052.5</ele>
        <time>2013-05-12T15:21:21Z</time>
      </trkpt>
      <trkpt lat="40.7410090" lon="0.1538640">
        <ele>1053.1</ele>
        <time>2013-05-12T15:21:23Z</time>
      </trkpt>
      <trkpt lat="40.7409220" lon="0.1539470">
        <ele>1054.5</ele>
        <time>2013-05-12T15:21:29Z</time>
      </trkpt>
      <trkpt lat="40.7408340" lon="0.1539630">
        <ele>1055.6</ele>
        <time>2013-05-12T15:21:34Z</time>
      </trkpt>
      <trkpt lat="40.7407050" lon="0.1539200">
        <ele>1057.1</ele>
        <time>2013-05-12T15:21:41Z</time>
      </trkpt>
      <trkpt lat="40.7406880" lon="0.1539060">
        <ele>1057.8</ele>
        <time>2013-05-12T15:21:46Z</time>
      </trkpt>
      <trkpt lat="40.7406850" lon="0.1539060">
        <ele>1057.8</ele>
        <time>2013-05-12T15:21:47Z</time>
      </trkpt>
      <trkpt lat="40.7406720" lon="0.1538870">
        <ele>1058.1</ele>
        <time>2013-05-12T15:22:00Z</time>
      </trkpt>
      <trkpt lat="40.7406220" lon="0.1538690">
        <ele>1058.5</ele>
        <time>2013-05-12T15:22:10Z</time>
      </trkpt>
      <trkpt lat="40.7406070" lon="0.1538440">
        <ele>1059.2</ele>
        <time>2013-05-12T15:22:13Z</time>
      </trkpt>
      <trkpt lat="40.7405660" lon="0.1538220">
        <ele>1060.3</ele>
        <time>2013-05-12T15:22:17Z</time>
      </trkpt>
      <trkpt lat="40.7405240" lon="0.1537960">
        <ele>1061.4</ele>
        <time>2013-05-12T15:22:22Z</time>
      </trkpt>
      <trkpt lat="40.7404300" lon="0.1537540">
        <ele>1062.9</ele>
        <time>2013-05-12T15:22:28Z</time>
      </trkpt>
      <trkpt lat="40.7404190" lon="0.1537290">
        <ele>1063.4</ele>
        <time>2013-05-12T15:22:30Z</time>
      </trkpt>
      <trkpt lat="40.7403570" lon="0.1536800">
        <ele>1064.6</ele>
        <time>2013-05-12T15:22:37Z</time>
      </trkpt>
      <trkpt lat="40.7402660" lon="0.1535900">
        <ele>1066.8</ele>
        <time>2013-05-12T15:22:44Z</time>
      </trkpt>
      <trkpt lat="40.7401400" lon="0.1534710">
        <ele>1069.0</ele>
        <time>2013-05-12T15:22:52Z</time>
      </trkpt>
      <trkpt lat="40.7400160" lon="0.1533580">
        <ele>1070.2</ele>
        <time>2013-05-12T15:22:59Z</time>
      </trkpt>
      <trkpt lat="40.7398650" lon="0.1532100">
        <ele>1069.9</ele>
        <time>2013-05-12T15:23:05Z</time>
      </trkpt>
      <trkpt lat="40.7398070" lon="0.1531230">
        <ele>1069.3</ele>
        <time>2013-05-12T15:23:07Z</time>
      </trkpt>
      <trkpt lat="40.7396380" lon="0.1529830">
        <ele>1068.7</ele>
        <time>2013-05-12T15:23:11Z</time>
      </trkpt>
      <trkpt lat="40.7395090" lon="0.1529150">
        <ele>1068.3</ele>
        <time>2013-05-12T15:23:13Z</time>
      </trkpt>
      <trkpt lat="40.7392780" lon="0.1528360">
        <ele>1068.0</ele>
        <time>2013-05-12T15:23:17Z</time>
      </trkpt>
      <trkpt lat="40.7392380" lon="0.1528380">
        <ele>1068.1</ele>
        <time>2013-05-12T15:23:18Z</time>
      </trkpt>
      <trkpt lat="40.7390210" lon="0.1528210">
        <ele>1069.5</ele>
        <time>2013-05-12T15:23:24Z</time>
      </trkpt>
      <trkpt lat="40.7388570" lon="0.1528310">
        <ele>1070.5</ele>
        <time>2013-05-12T15:23:30Z</time>
      </trkpt>
      <trkpt lat="40.7387470" lon="0.1529540">
        <ele>1071.4</ele>
        <time>2013-05-12T15:23:36Z</time>
      </trkpt>
      <trkpt lat="40.7386230" lon="0.1530670">
        <ele>1072.1</ele>
        <time>2013-05-12T15:23:42Z</time>
      </trkpt>
      <trkpt lat="40.7385060" lon="0.1530980">
        <ele>1072.2</ele>
        <time>2013-05-12T15:23:48Z</time>
      </trkpt>
      <trkpt lat="40.7383740" lon="0.1531810">
        <ele>1072.3</ele>
        <time>2013-05-12T15:23:54Z</time>
      </trkpt>
      <trkpt lat="40.7382750" lon="0.1532920">
        <ele>1072.9</ele>
        <time>2013-05-12T15:23:59Z</time>
      </trkpt>
      <trkpt lat="40.7381870" lon="0.1533490">
        <ele>1073.8</ele>
        <time>2013-05-12T15:24:03Z</time>
      </trkpt>
      <trkpt lat="40.7381660" lon="0.1532850">
        <ele>1075.2</ele>
        <time>2013-05-12T15:24:07Z</time>
      </trkpt>
      <trkpt lat="40.7381870" lon="0.1531160">
        <ele>1075.8</ele>
        <time>2013-05-12T15:24:13Z</time>
      </trkpt>
      <trkpt lat="40.7382920" lon="0.1529440">
        <ele>1075.9</ele>
        <time>2013-05-12T15:24:19Z</time>
      </trkpt>
      <trkpt lat="40.7382600" lon="0.1527830">
        <ele>1075.8</ele>
        <time>2013-05-12T15:24:24Z</time>
      </trkpt>
      <trkpt lat="40.7381730" lon="0.1526460">
        <ele>1077.8</ele>
        <time>2013-05-12T15:24:31Z</time>
      </trkpt>
      <trkpt lat="40.7380850" lon="0.1524920">
        <ele>1080.1</ele>
        <time>2013-05-12T15:24:38Z</time>
      </trkpt>
      <trkpt lat="40.7380280" lon="0.1523650">
        <ele>1081.0</ele>
        <time>2013-05-12T15:24:42Z</time>
      </trkpt>
      <trkpt lat="40.7379860" lon="0.1522740">
        <ele>1081.2</ele>
        <time>2013-05-12T15:24:45Z</time>
      </trkpt>
      <trkpt lat="40.7378850" lon="0.1521190">
        <ele>1082.6</ele>
        <time>2013-05-12T15:24:52Z</time>
      </trkpt>
      <trkpt lat="40.7377900" lon="0.1520390">
        <ele>1084.0</ele>
        <time>2013-05-12T15:24:57Z</time>
      </trkpt>
      <trkpt lat="40.7376480" lon="0.1519400">
        <ele>1085.7</ele>
        <time>2013-05-12T15:25:04Z</time>
      </trkpt>
      <trkpt lat="40.7375080" lon="0.1518620">
        <ele>1087.5</ele>
        <time>2013-05-12T15:25:11Z</time>
      </trkpt>
      <trkpt lat="40.7373930" lon="0.1518170">
        <ele>1089.4</ele>
        <time>2013-05-12T15:25:18Z</time>
      </trkpt>
      <trkpt lat="40.7373030" lon="0.1518020">
        <ele>1091.4</ele>
        <time>2013-05-12T15:25:23Z</time>
      </trkpt>
      <trkpt lat="40.7371650" lon="0.1517860">
        <ele>1094.1</ele>
        <time>2013-05-12T15:25:31Z</time>
      </trkpt>
      <trkpt lat="40.7370950" lon="0.1516820">
        <ele>1095.1</ele>
        <time>2013-05-12T15:25:36Z</time>
      </trkpt>
      <trkpt lat="40.7370720" lon="0.1515380">
        <ele>1095.3</ele>
        <time>2013-05-12T15:25:41Z</time>
      </trkpt>
      <trkpt lat="40.7370810" lon="0.1515130">
        <ele>1095.5</ele>
        <time>2013-05-12T15:25:42Z</time>
      </trkpt>
      <trkpt lat="40.7371580" lon="0.1514200">
        <ele>1096.5</ele>
        <time>2013-05-12T15:25:48Z</time>
      </trkpt>
      <trkpt lat="40.7372200" lon="0.1513570">
        <ele>1097.2</ele>
        <time>2013-05-12T15:25:52Z</time>
      </trkpt>
      <trkpt lat="40.7372470" lon="0.1513260">
        <ele>1097.8</ele>
        <time>2013-05-12T15:25:54Z</time>
      </trkpt>
      <trkpt lat="40.7372120" lon="0.1511750">
        <ele>1100.0</ele>
        <time>2013-05-12T15:26:01Z</time>
      </trkpt>
      <trkpt lat="40.7372040" lon="0.1511540">
        <ele>1100.5</ele>
        <time>2013-05-12T15:26:02Z</time>
      </trkpt>
      <trkpt lat="40.7371600" lon="0.1509960">
        <ele>1103.1</ele>
        <time>2013-05-12T15:26:10Z</time>
      </trkpt>
      <trkpt lat="40.7371410" lon="0.1509430">
        <ele>1103.9</ele>
        <time>2013-05-12T15:26:13Z</time>
      </trkpt>
      <trkpt lat="40.7371270" lon="0.1508740">
        <ele>1105.4</ele>
        <time>2013-05-12T15:26:17Z</time>
      </trkpt>
      <trkpt lat="40.7371160" lon="0.1507210">
        <ele>1107.7</ele>
        <time>2013-05-12T15:26:25Z</time>
      </trkpt>
      <trkpt lat="40.7370880" lon="0.1506160">
        <ele>1109.6</ele>
        <time>2013-05-12T15:26:31Z</time>
      </trkpt>
      <trkpt lat="40.7370410" lon="0.1505240">
        <ele>1111.2</ele>
        <time>2013-05-12T15:26:38Z</time>
      </trkpt>
      <trkpt lat="40.7370230" lon="0.1504760">
        <ele>1112.0</ele>
        <time>2013-05-12T15:26:42Z</time>
      </trkpt>
      <trkpt lat="40.7369970" lon="0.1503760">
        <ele>1113.9</ele>
        <time>2013-05-12T15:26:49Z</time>
      </trkpt>
      <trkpt lat="40.7369770" lon="0.1503190">
        <ele>1114.5</ele>
        <time>2013-05-12T15:26:52Z</time>
      </trkpt>
      <trkpt lat="40.7369340" lon="0.1501300">
        <ele>1116.1</ele>
        <time>2013-05-12T15:27:01Z</time>
      </trkpt>
      <trkpt lat="40.7369080" lon="0.1499620">
        <ele>1116.7</ele>
        <time>2013-05-12T15:27:08Z</time>
      </trkpt>
      <trkpt lat="40.7368850" lon="0.1497770">
        <ele>1117.4</ele>
        <time>2013-05-12T15:27:15Z</time>
      </trkpt>
      <trkpt lat="40.7368360" lon="0.1496290">
        <ele>1117.4</ele>
        <time>2013-05-12T15:27:21Z</time>
      </trkpt>
      <trkpt lat="40.7367810" lon="0.1494880">
        <ele>1118.0</ele>
        <time>2013-05-12T15:27:27Z</time>
      </trkpt>
      <trkpt lat="40.7367660" lon="0.1493390">
        <ele>1119.0</ele>
        <time>2013-05-12T15:27:32Z</time>
      </trkpt>
      <trkpt lat="40.7367510" lon="0.1490900">
        <ele>1120.5</ele>
        <time>2013-05-12T15:27:41Z</time>
      </trkpt>
      <trkpt lat="40.7367260" lon="0.1489720">
        <ele>1121.7</ele>
        <time>2013-05-12T15:27:46Z</time>
      </trkpt>
      <trkpt lat="40.7366870" lon="0.1488540">
        <ele>1122.9</ele>
        <time>2013-05-12T15:27:51Z</time>
      </trkpt>
      <trkpt lat="40.7366470" lon="0.1487520">
        <ele>1124.7</ele>
        <time>2013-05-12T15:27:56Z</time>
      </trkpt>
      <trkpt lat="40.7366080" lon="0.1486550">
        <ele>1126.2</ele>
        <time>2013-05-12T15:28:00Z</time>
      </trkpt>
      <trkpt lat="40.7365670" lon="0.1485540">
        <ele>1127.8</ele>
        <time>2013-05-12T15:28:04Z</time>
      </trkpt>
      <trkpt lat="40.7365080" lon="0.1484180">
        <ele>1129.0</ele>
        <time>2013-05-12T15:28:10Z</time>
      </trkpt>
      <trkpt lat="40.7364520" lon="0.1482750">
        <ele>1130.5</ele>
        <time>2013-05-12T15:28:16Z</time>
      </trkpt>
      <trkpt lat="40.7364000" lon="0.1480160">
        <ele>1132.3</ele>
        <time>2013-05-12T15:28:26Z</time>
      </trkpt>
      <trkpt lat="40.7363550" lon="0.1478390">
        <ele>1134.3</ele>
        <time>2013-05-12T15:28:34Z</time>
      </trkpt>
      <trkpt lat="40.7362950" lon="0.1476450">
        <ele>1136.9</ele>
        <time>2013-05-12T15:28:43Z</time>
      </trkpt>
      <trkpt lat="40.7362420" lon="0.1474380">
        <ele>1138.3</ele>
        <time>2013-05-12T15:28:51Z</time>
      </trkpt>
      <trkpt lat="40.7362070" lon="0.1472560">
        <ele>1138.6</ele>
        <time>2013-05-12T15:28:57Z</time>
      </trkpt>
      <trkpt lat="40.7361790" lon="0.1469990">
        <ele>1139.4</ele>
        <time>2013-05-12T15:29:05Z</time>
      </trkpt>
      <trkpt lat="40.7361610" lon="0.1468600">
        <ele>1139.6</ele>
        <time>2013-05-12T15:29:10Z</time>
      </trkpt>
      <trkpt lat="40.7361560" lon="0.1468370">
        <ele>1139.7</ele>
        <time>2013-05-12T15:29:11Z</time>
      </trkpt>
      <trkpt lat="40.7360870" lon="0.1468060">
        <ele>1140.7</ele>
        <time>2013-05-12T15:29:16Z</time>
      </trkpt>
      <trkpt lat="40.7360750" lon="0.1468180">
        <ele>1140.9</ele>
        <time>2013-05-12T15:29:17Z</time>
      </trkpt>
      <trkpt lat="40.7360330" lon="0.1469590">
        <ele>1142.9</ele>
        <time>2013-05-12T15:29:24Z</time>
      </trkpt>
      <trkpt lat="40.7359730" lon="0.1471130">
        <ele>1145.2</ele>
        <time>2013-05-12T15:29:31Z</time>
      </trkpt>
      <trkpt lat="40.7359300" lon="0.1472360">
        <ele>1147.0</ele>
        <time>2013-05-12T15:29:37Z</time>
      </trkpt>
      <trkpt lat="40.7358960" lon="0.1473920">
        <ele>1148.9</ele>
        <time>2013-05-12T15:29:44Z</time>
      </trkpt>
      <trkpt lat="40.7358580" lon="0.1475390">
        <ele>1151.4</ele>
        <time>2013-05-12T15:29:51Z</time>
      </trkpt>
      <trkpt lat="40.7357990" lon="0.1477070">
        <ele>1154.1</ele>
        <time>2013-05-12T15:29:59Z</time>
      </trkpt>
      <trkpt lat="40.7357540" lon="0.1478990">
        <ele>1156.2</ele>
        <time>2013-05-12T15:30:09Z</time>
      </trkpt>
      <trkpt lat="40.7357170" lon="0.1480720">
        <ele>1158.0</ele>
        <time>2013-05-12T15:30:17Z</time>
      </trkpt>
      <trkpt lat="40.7356400" lon="0.1482490">
        <ele>1160.9</ele>
        <time>2013-05-12T15:30:26Z</time>
      </trkpt>
      <trkpt lat="40.7355850" lon="0.1483610">
        <ele>1161.8</ele>
        <time>2013-05-12T15:30:32Z</time>
      </trkpt>
      <trkpt lat="40.7355560" lon="0.1484080">
        <ele>1161.7</ele>
        <time>2013-05-12T15:30:34Z</time>
      </trkpt>
      <trkpt lat="40.7355430" lon="0.1484830">
        <ele>1161.1</ele>
        <time>2013-05-12T15:30:40Z</time>
      </trkpt>
      <trkpt lat="40.7355450" lon="0.1484850">
        <ele>1161.0</ele>
        <time>2013-05-12T15:30:41Z</time>
      </trkpt>
      <trkpt lat="40.7355550" lon="0.1485790">
        <ele>1160.5</ele>
        <time>2013-05-12T15:30:56Z</time>
      </trkpt>
      <trkpt lat="40.7355330" lon="0.1487470">
        <ele>1158.4</ele>
        <time>2013-05-12T15:31:00Z</time>
      </trkpt>
      <trkpt lat="40.7355340" lon="0.1488610">
        <ele>1157.3</ele>
        <time>2013-05-12T15:31:02Z</time>
      </trkpt>
      <trkpt lat="40.7355220" lon="0.1490310">
        <ele>1155.5</ele>
        <time>2013-05-12T15:31:05Z</time>
      </trkpt>
      <trkpt lat="40.7355130" lon="0.1490880">
        <ele>1154.9</ele>
        <time>2013-05-12T15:31:06Z</time>
      </trkpt>
      <trkpt lat="40.7354190" lon="0.1494010">
        <ele>1152.0</ele>
        <time>2013-05-12T15:31:11Z</time>
      </trkpt>
      <trkpt lat="40.7353980" lon="0.1494760">
        <ele>1151.8</ele>
        <time>2013-05-12T15:31:12Z</time>
      </trkpt>
      <trkpt lat="40.7353510" lon="0.1496370">
        <ele>1150.6</ele>
        <time>2013-05-12T15:31:14Z</time>
      </trkpt>
      <trkpt lat="40.7352810" lon="0.1499850">
        <ele>1148.8</ele>
        <time>2013-05-12T15:31:18Z</time>
      </trkpt>
      <trkpt lat="40.7351770" lon="0.1502110">
        <ele>1148.4</ele>
        <time>2013-05-12T15:31:22Z</time>
      </trkpt>
      <trkpt lat="40.7351320" lon="0.1502290">
        <ele>1149.0</ele>
        <time>2013-05-12T15:31:24Z</time>
      </trkpt>
      <trkpt lat="40.7350210" lon="0.1502270">
        <ele>1150.9</ele>
        <time>2013-05-12T15:31:30Z</time>
      </trkpt>
      <trkpt lat="40.7349460" lon="0.1502090">
        <ele>1152.1</ele>
        <time>2013-05-12T15:31:34Z</time>
      </trkpt>
      <trkpt lat="40.7348700" lon="0.1501930">
        <ele>1153.0</ele>
        <time>2013-05-12T15:31:38Z</time>
      </trkpt>
      <trkpt lat="40.7347770" lon="0.1501870">
        <ele>1154.3</ele>
        <time>2013-05-12T15:31:43Z</time>
      </trkpt>
      <trkpt lat="40.7346730" lon="0.1502320">
        <ele>1156.4</ele>
        <time>2013-05-12T15:31:49Z</time>
      </trkpt>
      <trkpt lat="40.7346120" lon="0.1502830">
        <ele>1157.8</ele>
        <time>2013-05-12T15:31:53Z</time>
      </trkpt>
      <trkpt lat="40.7345520" lon="0.1503810">
        <ele>1159.5</ele>
        <time>2013-05-12T15:31:59Z</time>
      </trkpt>
      <trkpt lat="40.7345070" lon="0.1505250">
        <ele>1161.9</ele>
        <time>2013-05-12T15:32:06Z</time>
      </trkpt>
      <trkpt lat="40.7344860" lon="0.1506570">
        <ele>1164.3</ele>
        <time>2013-05-12T15:32:12Z</time>
      </trkpt>
      <trkpt lat="40.7344590" lon="0.1508120">
        <ele>1167.2</ele>
        <time>2013-05-12T15:32:19Z</time>
      </trkpt>
      <trkpt lat="40.7344480" lon="0.1509300">
        <ele>1168.5</ele>
        <time>2013-05-12T15:32:25Z</time>
      </trkpt>
      <trkpt lat="40.7344540" lon="0.1510610">
        <ele>1170.4</ele>
        <time>2013-05-12T15:32:32Z</time>
      </trkpt>
      <trkpt lat="40.7344530" lon="0.1511900">
        <ele>1171.9</ele>
        <time>2013-05-12T15:32:39Z</time>
      </trkpt>
      <trkpt lat="40.7344550" lon="0.1512080">
        <ele>1172.1</ele>
        <time>2013-05-12T15:32:40Z</time>
      </trkpt>
      <trkpt lat="40.7344560" lon="0.1513520">
        <ele>1173.9</ele>
        <time>2013-05-12T15:32:48Z</time>
      </trkpt>
      <trkpt lat="40.7344590" lon="0.1515010">
        <ele>1175.6</ele>
        <time>2013-05-12T15:32:55Z</time>
      </trkpt>
      <trkpt lat="40.7344570" lon="0.1515400">
        <ele>1176.0</ele>
        <time>2013-05-12T15:32:57Z</time>
      </trkpt>
      <trkpt lat="40.7344530" lon="0.1516640">
        <ele>1177.5</ele>
        <time>2013-05-12T15:33:03Z</time>
      </trkpt>
      <trkpt lat="40.7344200" lon="0.1518540">
        <ele>1179.8</ele>
        <time>2013-05-12T15:33:12Z</time>
      </trkpt>
      <trkpt lat="40.7343940" lon="0.1519120">
        <ele>1180.9</ele>
        <time>2013-05-12T15:33:16Z</time>
      </trkpt>
      <trkpt lat="40.7343700" lon="0.1519700">
        <ele>1181.9</ele>
        <time>2013-05-12T15:33:20Z</time>
      </trkpt>
      <trkpt lat="40.7343300" lon="0.1521030">
        <ele>1183.4</ele>
        <time>2013-05-12T15:33:28Z</time>
      </trkpt>
      <trkpt lat="40.7343200" lon="0.1521390">
        <ele>1183.8</ele>
        <time>2013-05-12T15:33:30Z</time>
      </trkpt>
      <trkpt lat="40.7342740" lon="0.1522130">
        <ele>1185.0</ele>
        <time>2013-05-12T15:33:35Z</time>
      </trkpt>
      <trkpt lat="40.7342230" lon="0.1523080">
        <ele>1186.6</ele>
        <time>2013-05-12T15:33:42Z</time>
      </trkpt>
      <trkpt lat="40.7341620" lon="0.1524520">
        <ele>1188.4</ele>
        <time>2013-05-12T15:33:51Z</time>
      </trkpt>
      <trkpt lat="40.7340690" lon="0.1525670">
        <ele>1190.3</ele>
        <time>2013-05-12T15:33:59Z</time>
      </trkpt>
      <trkpt lat="40.7339680" lon="0.1526660">
        <ele>1192.1</ele>
        <time>2013-05-12T15:34:07Z</time>
      </trkpt>
      <trkpt lat="40.7339180" lon="0.1527740">
        <ele>1193.4</ele>
        <time>2013-05-12T15:34:13Z</time>
      </trkpt>
      <trkpt lat="40.7338100" lon="0.1528790">
        <ele>1195.1</ele>
        <time>2013-05-12T15:34:21Z</time>
      </trkpt>
      <trkpt lat="40.7337130" lon="0.1529830">
        <ele>1196.4</ele>
        <time>2013-05-12T15:34:28Z</time>
      </trkpt>
      <trkpt lat="40.7336330" lon="0.1531180">
        <ele>1198.1</ele>
        <time>2013-05-12T15:34:36Z</time>
      </trkpt>
      <trkpt lat="40.7335600" lon="0.1532260">
        <ele>1199.9</ele>
        <time>2013-05-12T15:34:43Z</time>
      </trkpt>
      <trkpt lat="40.7334800" lon="0.1533390">
        <ele>1201.7</ele>
        <time>2013-05-12T15:34:50Z</time>
      </trkpt>
      <trkpt lat="40.7333970" lon="0.1534280">
        <ele>1203.8</ele>
        <time>2013-05-12T15:34:57Z</time>
      </trkpt>
      <trkpt lat="40.7332760" lon="0.1534990">
        <ele>1205.3</ele>
        <time>2013-05-12T15:35:06Z</time>
      </trkpt>
      <trkpt lat="40.7332240" lon="0.1535440">
        <ele>1206.6</ele>
        <time>2013-05-12T15:35:10Z</time>
      </trkpt>
      <trkpt lat="40.7330900" lon="0.1536060">
        <ele>1209.6</ele>
        <time>2013-05-12T15:35:19Z</time>
      </trkpt>
      <trkpt lat="40.7330630" lon="0.1536230">
        <ele>1210.2</ele>
        <time>2013-05-12T15:35:21Z</time>
      </trkpt>
      <trkpt lat="40.7329580" lon="0.1536930">
        <ele>1212.1</ele>
        <time>2013-05-12T15:35:28Z</time>
      </trkpt>
      <trkpt lat="40.7329450" lon="0.1537090">
        <ele>1212.4</ele>
        <time>2013-05-12T15:35:29Z</time>
      </trkpt>
      <trkpt lat="40.7328400" lon="0.1538400">
        <ele>1214.7</ele>
        <time>2013-05-12T15:35:38Z</time>
      </trkpt>
      <trkpt lat="40.7327460" lon="0.1539800">
        <ele>1217.3</ele>
        <time>2013-05-12T15:35:47Z</time>
      </trkpt>
      <trkpt lat="40.7326820" lon="0.1540530">
        <ele>1218.8</ele>
        <time>2013-05-12T15:35:52Z</time>
      </trkpt>
      <trkpt lat="40.7325990" lon="0.1541470">
        <ele>1220.3</ele>
        <time>2013-05-12T15:35:59Z</time>
      </trkpt>
      <trkpt lat="40.7324950" lon="0.1542470">
        <ele>1221.1</ele>
        <time>2013-05-12T15:36:06Z</time>
      </trkpt>
      <trkpt lat="40.7324000" lon="0.1543390">
        <ele>1221.7</ele>
        <time>2013-05-12T15:36:13Z</time>
      </trkpt>
      <trkpt lat="40.7323310" lon="0.1544280">
        <ele>1222.4</ele>
        <time>2013-05-12T15:36:19Z</time>
      </trkpt>
      <trkpt lat="40.7322530" lon="0.1545450">
        <ele>1223.6</ele>
        <time>2013-05-12T15:36:25Z</time>
      </trkpt>
      <trkpt lat="40.7321370" lon="0.1547390">
        <ele>1226.1</ele>
        <time>2013-05-12T15:36:34Z</time>
      </trkpt>
      <trkpt lat="40.7320730" lon="0.1549520">
        <ele>1228.7</ele>
        <time>2013-05-12T15:36:42Z</time>
      </trkpt>
      <trkpt lat="40.7320040" lon="0.1551460">
        <ele>1228.5</ele>
        <time>2013-05-12T15:36:48Z</time>
      </trkpt>
      <trkpt lat="40.7319840" lon="0.1553180">
        <ele>1229.9</ele>
        <time>2013-05-12T15:36:55Z</time>
      </trkpt>
      <trkpt lat="40.7319470" lon="0.1554600">
        <ele>1231.6</ele>
        <time>2013-05-12T15:37:01Z</time>
      </trkpt>
      <trkpt lat="40.7318400" lon="0.1555620">
        <ele>1234.3</ele>
        <time>2013-05-12T15:37:08Z</time>
      </trkpt>
      <trkpt lat="40.7317420" lon="0.1556680">
        <ele>1236.8</ele>
        <time>2013-05-12T15:37:16Z</time>
      </trkpt>
      <trkpt lat="40.7316820" lon="0.1557350">
        <ele>1238.4</ele>
        <time>2013-05-12T15:37:22Z</time>
      </trkpt>
      <trkpt lat="40.7316500" lon="0.1557740">
        <ele>1239.3</ele>
        <time>2013-05-12T15:37:25Z</time>
      </trkpt>
      <trkpt lat="40.7315780" lon="0.1558410">
        <ele>1240.8</ele>
        <time>2013-05-12T15:37:31Z</time>
      </trkpt>
      <trkpt lat="40.7314930" lon="0.1559140">
        <ele>1242.4</ele>
        <time>2013-05-12T15:37:38Z</time>
      </trkpt>
      <trkpt lat="40.7314670" lon="0.1559320">
        <ele>1242.9</ele>
        <time>2013-05-12T15:37:40Z</time>
      </trkpt>
      <trkpt lat="40.7313520" lon="0.1559640">
        <ele>1244.6</ele>
        <time>2013-05-12T15:37:47Z</time>
      </trkpt>
      <trkpt lat="40.7312380" lon="0.1559930">
        <ele>1246.7</ele>
        <time>2013-05-12T15:37:54Z</time>
      </trkpt>
      <trkpt lat="40.7311300" lon="0.1560560">
        <ele>1248.5</ele>
        <time>2013-05-12T15:38:01Z</time>
      </trkpt>
      <trkpt lat="40.7310320" lon="0.1561030">
        <ele>1249.8</ele>
        <time>2013-05-12T15:38:07Z</time>
      </trkpt>
      <trkpt lat="40.7308940" lon="0.1561370">
        <ele>1249.3</ele>
        <time>2013-05-12T15:38:11Z</time>
      </trkpt>
      <trkpt lat="40.7306060" lon="0.1561910">
        <ele>1247.5</ele>
        <time>2013-05-12T15:38:16Z</time>
      </trkpt>
      <trkpt lat="40.7304770" lon="0.1561880">
        <ele>1248.5</ele>
        <time>2013-05-12T15:38:20Z</time>
      </trkpt>
      <trkpt lat="40.7304380" lon="0.1561840">
        <ele>1249.3</ele>
        <time>2013-05-12T15:38:22Z</time>
      </trkpt>
      <trkpt lat="40.7303950" lon="0.1561870">
        <ele>1250.1</ele>
        <time>2013-05-12T15:38:24Z</time>
      </trkpt>
      <trkpt lat="40.7302750" lon="0.1562180">
        <ele>1251.8</ele>
        <time>2013-05-12T15:38:31Z</time>
      </trkpt>
      <trkpt lat="40.7302640" lon="0.1562190">
        <ele>1252.1</ele>
        <time>2013-05-12T15:38:33Z</time>
      </trkpt>
      <trkpt lat="40.7303200" lon="0.1561770">
        <ele>1253.2</ele>
        <time>2013-05-12T15:43:43Z</time>
      </trkpt>
      <trkpt lat="40.7303250" lon="0.1561710">
        <ele>1253.3</ele>
        <time>2013-05-12T15:43:44Z</time>
      </trkpt>
      <trkpt lat="40.7303270" lon="0.1561820">
        <ele>1253.2</ele>
        <time>2013-05-12T15:43:48Z</time>
      </trkpt>
      <trkpt lat="40.7302180" lon="0.1562520">
        <ele>1253.3</ele>
        <time>2013-05-12T15:44:20Z</time>
      </trkpt>
      <trkpt lat="40.7301390" lon="0.1563170">
        <ele>1254.1</ele>
        <time>2013-05-12T15:44:26Z</time>
      </trkpt>
      <trkpt lat="40.7300990" lon="0.1563550">
        <ele>1254.9</ele>
        <time>2013-05-12T15:44:29Z</time>
      </trkpt>
      <trkpt lat="40.7300600" lon="0.1563760">
        <ele>1255.3</ele>
        <time>2013-05-12T15:44:32Z</time>
      </trkpt>
      <trkpt lat="40.7300020" lon="0.1564130">
        <ele>1256.3</ele>
        <time>2013-05-12T15:44:36Z</time>
      </trkpt>
      <trkpt lat="40.7299430" lon="0.1564310">
        <ele>1257.8</ele>
        <time>2013-05-12T15:44:40Z</time>
      </trkpt>
      <trkpt lat="40.7298760" lon="0.1564360">
        <ele>1259.0</ele>
        <time>2013-05-12T15:44:44Z</time>
      </trkpt>
      <trkpt lat="40.7297770" lon="0.1563290">
        <ele>1260.4</ele>
        <time>2013-05-12T15:44:50Z</time>
      </trkpt>
      <trkpt lat="40.7297090" lon="0.1562440">
        <ele>1260.6</ele>
        <time>2013-05-12T15:44:54Z</time>
      </trkpt>
      <trkpt lat="40.7296150" lon="0.1561560">
        <ele>1261.3</ele>
        <time>2013-05-12T15:45:00Z</time>
      </trkpt>
      <trkpt lat="40.7295050" lon="0.1560830">
        <ele>1262.2</ele>
        <time>2013-05-12T15:45:05Z</time>
      </trkpt>
      <trkpt lat="40.7293650" lon="0.1559540">
        <ele>1263.2</ele>
        <time>2013-05-12T15:45:12Z</time>
      </trkpt>
      <trkpt lat="40.7291910" lon="0.1557520">
        <ele>1262.8</ele>
        <time>2013-05-12T15:45:20Z</time>
      </trkpt>
      <trkpt lat="40.7290200" lon="0.1556340">
        <ele>1262.7</ele>
        <time>2013-05-12T15:45:26Z</time>
      </trkpt>
      <trkpt lat="40.7288600" lon="0.1556500">
        <ele>1262.6</ele>
        <time>2013-05-12T15:45:31Z</time>
      </trkpt>
      <trkpt lat="40.7287510" lon="0.1557240">
        <ele>1263.4</ele>
        <time>2013-05-12T15:45:36Z</time>
      </trkpt>
      <trkpt lat="40.7286520" lon="0.1557660">
        <ele>1265.0</ele>
        <time>2013-05-12T15:45:41Z</time>
      </trkpt>
      <trkpt lat="40.7285510" lon="0.1557600">
        <ele>1266.8</ele>
        <time>2013-05-12T15:45:46Z</time>
      </trkpt>
      <trkpt lat="40.7284420" lon="0.1557500">
        <ele>1268.1</ele>
        <time>2013-05-12T15:45:51Z</time>
      </trkpt>
      <trkpt lat="40.7283020" lon="0.1557270">
        <ele>1268.9</ele>
        <time>2013-05-12T15:45:56Z</time>
      </trkpt>
      <trkpt lat="40.7281180" lon="0.1556750">
        <ele>1269.9</ele>
        <time>2013-05-12T15:46:03Z</time>
      </trkpt>
      <trkpt lat="40.7279640" lon="0.1555690">
        <ele>1270.7</ele>
        <time>2013-05-12T15:46:10Z</time>
      </trkpt>
      <trkpt lat="40.7278340" lon="0.1554190">
        <ele>1270.7</ele>
        <time>2013-05-12T15:46:16Z</time>
      </trkpt>
      <trkpt lat="40.7276540" lon="0.1551380">
        <ele>1271.7</ele>
        <time>2013-05-12T15:46:25Z</time>
      </trkpt>
      <trkpt lat="40.7275080" lon="0.1549050">
        <ele>1272.5</ele>
        <time>2013-05-12T15:46:32Z</time>
      </trkpt>
      <trkpt lat="40.7273240" lon="0.1545580">
        <ele>1272.3</ele>
        <time>2013-05-12T15:46:40Z</time>
      </trkpt>
      <trkpt lat="40.7271230" lon="0.1541830">
        <ele>1272.3</ele>
        <time>2013-05-12T15:46:48Z</time>
      </trkpt>
      <trkpt lat="40.7270780" lon="0.1540910">
        <ele>1272.2</ele>
        <time>2013-05-12T15:46:50Z</time>
      </trkpt>
      <trkpt lat="40.7270380" lon="0.1539350">
        <ele>1272.2</ele>
        <time>2013-05-12T15:46:53Z</time>
      </trkpt>
      <trkpt lat="40.7270110" lon="0.1536610">
        <ele>1272.3</ele>
        <time>2013-05-12T15:46:59Z</time>
      </trkpt>
      <trkpt lat="40.7270330" lon="0.1535180">
        <ele>1272.9</ele>
        <time>2013-05-12T15:47:04Z</time>
      </trkpt>
      <trkpt lat="40.7270460" lon="0.1533170">
        <ele>1274.3</ele>
        <time>2013-05-12T15:47:11Z</time>
      </trkpt>
      <trkpt lat="40.7270150" lon="0.1532550">
        <ele>1275.1</ele>
        <time>2013-05-12T15:47:14Z</time>
      </trkpt>
      <trkpt lat="40.7269720" lon="0.1532390">
        <ele>1275.7</ele>
        <time>2013-05-12T15:47:17Z</time>
      </trkpt>
      <trkpt lat="40.7269020" lon="0.1533050">
        <ele>1276.8</ele>
        <time>2013-05-12T15:47:22Z</time>
      </trkpt>
      <trkpt lat="40.7268880" lon="0.1533570">
        <ele>1277.3</ele>
        <time>2013-05-12T15:47:24Z</time>
      </trkpt>
      <trkpt lat="40.7268120" lon="0.1535460">
        <ele>1278.8</ele>
        <time>2013-05-12T15:47:31Z</time>
      </trkpt>
      <trkpt lat="40.7267720" lon="0.1536720">
        <ele>1280.2</ele>
        <time>2013-05-12T15:47:36Z</time>
      </trkpt>
      <trkpt lat="40.7267670" lon="0.1538470">
        <ele>1281.4</ele>
        <time>2013-05-12T15:47:42Z</time>
      </trkpt>
      <trkpt lat="40.7267430" lon="0.1540660">
        <ele>1283.4</ele>
        <time>2013-05-12T15:47:49Z</time>
      </trkpt>
      <trkpt lat="40.7267060" lon="0.1542270">
        <ele>1284.8</ele>
        <time>2013-05-12T15:47:55Z</time>
      </trkpt>
      <trkpt lat="40.7266650" lon="0.1544330">
        <ele>1285.7</ele>
        <time>2013-05-12T15:48:02Z</time>
      </trkpt>
      <trkpt lat="40.7265920" lon="0.1545940">
        <ele>1286.4</ele>
        <time>2013-05-12T15:48:07Z</time>
      </trkpt>
      <trkpt lat="40.7264920" lon="0.1548450">
        <ele>1286.8</ele>
        <time>2013-05-12T15:48:14Z</time>
      </trkpt>
      <trkpt lat="40.7264460" lon="0.1552310">
        <ele>1287.9</ele>
        <time>2013-05-12T15:48:23Z</time>
      </trkpt>
      <trkpt lat="40.7264640" lon="0.1555880">
        <ele>1288.1</ele>
        <time>2013-05-12T15:48:30Z</time>
      </trkpt>
      <trkpt lat="40.7265030" lon="0.1560410">
        <ele>1288.1</ele>
        <time>2013-05-12T15:48:37Z</time>
      </trkpt>
      <trkpt lat="40.7265480" lon="0.1566370">
        <ele>1288.2</ele>
        <time>2013-05-12T15:48:46Z</time>
      </trkpt>
      <trkpt lat="40.7265630" lon="0.1569520">
        <ele>1289.4</ele>
        <time>2013-05-12T15:48:51Z</time>
      </trkpt>
      <trkpt lat="40.7265210" lon="0.1572580">
        <ele>1289.8</ele>
        <time>2013-05-12T15:48:56Z</time>
      </trkpt>
      <trkpt lat="40.7265060" lon="0.1576490">
        <ele>1288.6</ele>
        <time>2013-05-12T15:49:01Z</time>
      </trkpt>
      <trkpt lat="40.7265080" lon="0.1577920">
        <ele>1288.3</ele>
        <time>2013-05-12T15:49:03Z</time>
      </trkpt>
      <trkpt lat="40.7265560" lon="0.1582990">
        <ele>1287.6</ele>
        <time>2013-05-12T15:49:10Z</time>
      </trkpt>
      <trkpt lat="40.7265690" lon="0.1585600">
        <ele>1287.9</ele>
        <time>2013-05-12T15:49:14Z</time>
      </trkpt>
      <trkpt lat="40.7265760" lon="0.1587940">
        <ele>1287.8</ele>
        <time>2013-05-12T15:49:18Z</time>
      </trkpt>
      <trkpt lat="40.7266390" lon="0.1591910">
        <ele>1287.7</ele>
        <time>2013-05-12T15:49:25Z</time>
      </trkpt>
      <trkpt lat="40.7266430" lon="0.1594930">
        <ele>1288.4</ele>
        <time>2013-05-12T15:49:31Z</time>
      </trkpt>
      <trkpt lat="40.7266440" lon="0.1597250">
        <ele>1287.8</ele>
        <time>2013-05-12T15:49:35Z</time>
      </trkpt>
      <trkpt lat="40.7267400" lon="0.1601060">
        <ele>1288.0</ele>
        <time>2013-05-12T15:49:42Z</time>
      </trkpt>
      <trkpt lat="40.7268170" lon="0.1604190">
        <ele>1289.0</ele>
        <time>2013-05-12T15:49:48Z</time>
      </trkpt>
      <trkpt lat="40.7268540" lon="0.1605820">
        <ele>1289.2</ele>
        <time>2013-05-12T15:49:51Z</time>
      </trkpt>
      <trkpt lat="40.7268950" lon="0.1608180">
        <ele>1289.3</ele>
        <time>2013-05-12T15:49:55Z</time>
      </trkpt>
      <trkpt lat="40.7270380" lon="0.1612740">
        <ele>1290.6</ele>
        <time>2013-05-12T15:50:04Z</time>
      </trkpt>
      <trkpt lat="40.7271420" lon="0.1615000">
        <ele>1291.5</ele>
        <time>2013-05-12T15:50:10Z</time>
      </trkpt>
      <trkpt lat="40.7272850" lon="0.1617010">
        <ele>1292.8</ele>
        <time>2013-05-12T15:50:16Z</time>
      </trkpt>
      <trkpt lat="40.7273310" lon="0.1619190">
        <ele>1293.9</ele>
        <time>2013-05-12T15:50:21Z</time>
      </trkpt>
      <trkpt lat="40.7273130" lon="0.1621470">
        <ele>1294.2</ele>
        <time>2013-05-12T15:50:26Z</time>
      </trkpt>
      <trkpt lat="40.7272480" lon="0.1625140">
        <ele>1294.7</ele>
        <time>2013-05-12T15:50:34Z</time>
      </trkpt>
      <trkpt lat="40.7272530" lon="0.1628450">
        <ele>1295.5</ele>
        <time>2013-05-12T15:50:41Z</time>
      </trkpt>
      <trkpt lat="40.7272180" lon="0.1629230">
        <ele>1295.5</ele>
        <time>2013-05-12T15:50:43Z</time>
      </trkpt>
      <trkpt lat="40.7271210" lon="0.1630310">
        <ele>1294.4</ele>
        <time>2013-05-12T15:50:46Z</time>
      </trkpt>
      <trkpt lat="40.7269470" lon="0.1633080">
        <ele>1291.5</ele>
        <time>2013-05-12T15:50:51Z</time>
      </trkpt>
      <trkpt lat="40.7267350" lon="0.1635290">
        <ele>1290.1</ele>
        <time>2013-05-12T15:50:56Z</time>
      </trkpt>
      <trkpt lat="40.7265410" lon="0.1635470">
        <ele>1290.2</ele>
        <time>2013-05-12T15:51:00Z</time>
      </trkpt>
      <trkpt lat="40.7264350" lon="0.1636040">
        <ele>1289.9</ele>
        <time>2013-05-12T15:51:02Z</time>
      </trkpt>
      <trkpt lat="40.7261510" lon="0.1636580">
        <ele>1287.5</ele>
        <time>2013-05-12T15:51:07Z</time>
      </trkpt>
      <trkpt lat="40.7260220" lon="0.1636280">
        <ele>1286.2</ele>
        <time>2013-05-12T15:51:09Z</time>
      </trkpt>
      <trkpt lat="40.7256560" lon="0.1635820">
        <ele>1285.2</ele>
        <time>2013-05-12T15:51:15Z</time>
      </trkpt>
      <trkpt lat="40.7256040" lon="0.1635590">
        <ele>1285.1</ele>
        <time>2013-05-12T15:51:16Z</time>
      </trkpt>
      <trkpt lat="40.7255010" lon="0.1635010">
        <ele>1284.9</ele>
        <time>2013-05-12T15:51:18Z</time>
      </trkpt>
      <trkpt lat="40.7253480" lon="0.1635470">
        <ele>1284.7</ele>
        <time>2013-05-12T15:51:22Z</time>
      </trkpt>
      <trkpt lat="40.7252610" lon="0.1637240">
        <ele>1283.8</ele>
        <time>2013-05-12T15:51:25Z</time>
      </trkpt>
      <trkpt lat="40.7251420" lon="0.1639430">
        <ele>1281.7</ele>
        <time>2013-05-12T15:51:29Z</time>
      </trkpt>
      <trkpt lat="40.7250790" lon="0.1640790">
        <ele>1282.1</ele>
        <time>2013-05-12T15:51:33Z</time>
      </trkpt>
      <trkpt lat="40.7250680" lon="0.1641000">
        <ele>1282.1</ele>
        <time>2013-05-12T15:51:34Z</time>
      </trkpt>
      <trkpt lat="40.7250220" lon="0.1641200">
        <ele>1281.2</ele>
        <time>2013-05-12T15:51:40Z</time>
      </trkpt>
      <trkpt lat="40.7250260" lon="0.1641430">
        <ele>1281.0</ele>
        <time>2013-05-12T15:51:45Z</time>
      </trkpt>
      <trkpt lat="40.7250380" lon="0.1642230">
        <ele>1281.4</ele>
        <time>2013-05-12T15:51:50Z</time>
      </trkpt>
      <trkpt lat="40.7250170" lon="0.1642700">
        <ele>1281.5</ele>
        <time>2013-05-12T15:51:52Z</time>
      </trkpt>
      <trkpt lat="40.7249900" lon="0.1643350">
        <ele>1281.7</ele>
        <time>2013-05-12T15:51:55Z</time>
      </trkpt>
      <trkpt lat="40.7250220" lon="0.1644310">
        <ele>1281.9</ele>
        <time>2013-05-12T15:52:01Z</time>
      </trkpt>
      <trkpt lat="40.7251090" lon="0.1644670">
        <ele>1282.3</ele>
        <time>2013-05-12T15:52:06Z</time>
      </trkpt>
      <trkpt lat="40.7251530" lon="0.1645080">
        <ele>1282.4</ele>
        <time>2013-05-12T15:52:08Z</time>
      </trkpt>
      <trkpt lat="40.7253320" lon="0.1646750">
        <ele>1282.9</ele>
        <time>2013-05-12T15:52:15Z</time>
      </trkpt>
      <trkpt lat="40.7254980" lon="0.1648430">
        <ele>1282.9</ele>
        <time>2013-05-12T15:52:21Z</time>
      </trkpt>
      <trkpt lat="40.7256640" lon="0.1649870">
        <ele>1284.2</ele>
        <time>2013-05-12T15:52:27Z</time>
      </trkpt>
      <trkpt lat="40.7257500" lon="0.1650080">
        <ele>1284.6</ele>
        <time>2013-05-12T15:52:30Z</time>
      </trkpt>
      <trkpt lat="40.7258850" lon="0.1649640">
        <ele>1285.9</ele>
        <time>2013-05-12T15:52:35Z</time>
      </trkpt>
      <trkpt lat="40.7259790" lon="0.1649030">
        <ele>1286.9</ele>
        <time>2013-05-12T15:52:39Z</time>
      </trkpt>
      <trkpt lat="40.7260690" lon="0.1648640">
        <ele>1287.1</ele>
        <time>2013-05-12T15:52:42Z</time>
      </trkpt>
      <trkpt lat="40.7261630" lon="0.1648560">
        <ele>1287.4</ele>
        <time>2013-05-12T15:52:45Z</time>
      </trkpt>
      <trkpt lat="40.7263650" lon="0.1648790">
        <ele>1287.8</ele>
        <time>2013-05-12T15:52:51Z</time>
      </trkpt>
      <trkpt lat="40.7265780" lon="0.1649400">
        <ele>1288.8</ele>
        <time>2013-05-12T15:52:58Z</time>
      </trkpt>
      <trkpt lat="40.7267750" lon="0.1650330">
        <ele>1290.9</ele>
        <time>2013-05-12T15:53:06Z</time>
      </trkpt>
      <trkpt lat="40.7269940" lon="0.1650710">
        <ele>1292.1</ele>
        <time>2013-05-12T15:53:13Z</time>
      </trkpt>
      <trkpt lat="40.7271360" lon="0.1651300">
        <ele>1293.9</ele>
        <time>2013-05-12T15:53:19Z</time>
      </trkpt>
      <trkpt lat="40.7272320" lon="0.1652430">
        <ele>1295.3</ele>
        <time>2013-05-12T15:53:24Z</time>
      </trkpt>
      <trkpt lat="40.7273110" lon="0.1653480">
        <ele>1296.6</ele>
        <time>2013-05-12T15:53:29Z</time>
      </trkpt>
      <trkpt lat="40.7274170" lon="0.1654840">
        <ele>1298.1</ele>
        <time>2013-05-12T15:53:36Z</time>
      </trkpt>
      <trkpt lat="40.7275110" lon="0.1656120">
        <ele>1299.7</ele>
        <time>2013-05-12T15:53:43Z</time>
      </trkpt>
      <trkpt lat="40.7276230" lon="0.1658200">
        <ele>1301.5</ele>
        <time>2013-05-12T15:53:52Z</time>
      </trkpt>
      <trkpt lat="40.7276900" lon="0.1659920">
        <ele>1302.7</ele>
        <time>2013-05-12T15:53:59Z</time>
      </trkpt>
      <trkpt lat="40.7277420" lon="0.1661350">
        <ele>1303.9</ele>
        <time>2013-05-12T15:54:05Z</time>
      </trkpt>
      <trkpt lat="40.7278240" lon="0.1663730">
        <ele>1305.4</ele>
        <time>2013-05-12T15:54:14Z</time>
      </trkpt>
      <trkpt lat="40.7279690" lon="0.1666910">
        <ele>1307.4</ele>
        <time>2013-05-12T15:54:26Z</time>
      </trkpt>
      <trkpt lat="40.7280830" lon="0.1668870">
        <ele>1308.4</ele>
        <time>2013-05-12T15:54:34Z</time>
      </trkpt>
      <trkpt lat="40.7281790" lon="0.1670610">
        <ele>1309.5</ele>
        <time>2013-05-12T15:54:41Z</time>
      </trkpt>
      <trkpt lat="40.7283220" lon="0.1672560">
        <ele>1311.1</ele>
        <time>2013-05-12T15:54:49Z</time>
      </trkpt>
      <trkpt lat="40.7284420" lon="0.1673740">
        <ele>1313.2</ele>
        <time>2013-05-12T15:54:54Z</time>
      </trkpt>
      <trkpt lat="40.7285550" lon="0.1674770">
        <ele>1315.3</ele>
        <time>2013-05-12T15:54:59Z</time>
      </trkpt>
      <trkpt lat="40.7286390" lon="0.1675680">
        <ele>1316.4</ele>
        <time>2013-05-12T15:55:04Z</time>
      </trkpt>
      <trkpt lat="40.7287790" lon="0.1677610">
        <ele>1317.1</ele>
        <time>2013-05-12T15:55:12Z</time>
      </trkpt>
      <trkpt lat="40.7289520" lon="0.1679760">
        <ele>1317.6</ele>
        <time>2013-05-12T15:55:20Z</time>
      </trkpt>
      <trkpt lat="40.7291480" lon="0.1681750">
        <ele>1317.7</ele>
        <time>2013-05-12T15:55:27Z</time>
      </trkpt>
      <trkpt lat="40.7293310" lon="0.1683300">
        <ele>1317.3</ele>
        <time>2013-05-12T15:55:33Z</time>
      </trkpt>
      <trkpt lat="40.7293900" lon="0.1683620">
        <ele>1317.0</ele>
        <time>2013-05-12T15:55:35Z</time>
      </trkpt>
      <trkpt lat="40.7294770" lon="0.1683960">
        <ele>1316.3</ele>
        <time>2013-05-12T15:55:38Z</time>
      </trkpt>
      <trkpt lat="40.7295250" lon="0.1684320">
        <ele>1316.0</ele>
        <time>2013-05-12T15:55:40Z</time>
      </trkpt>
      <trkpt lat="40.7296250" lon="0.1685210">
        <ele>1316.0</ele>
        <time>2013-05-12T15:55:45Z</time>
      </trkpt>
      <trkpt lat="40.7297910" lon="0.1686720">
        <ele>1316.4</ele>
        <time>2013-05-12T15:55:52Z</time>
      </trkpt>
      <trkpt lat="40.7299420" lon="0.1688030">
        <ele>1316.3</ele>
        <time>2013-05-12T15:55:57Z</time>
      </trkpt>
      <trkpt lat="40.7300900" lon="0.1688950">
        <ele>1315.3</ele>
        <time>2013-05-12T15:56:00Z</time>
      </trkpt>
      <trkpt lat="40.7303400" lon="0.1689280">
        <ele>1314.8</ele>
        <time>2013-05-12T15:56:05Z</time>
      </trkpt>
      <trkpt lat="40.7304480" lon="0.1688540">
        <ele>1315.2</ele>
        <time>2013-05-12T15:56:08Z</time>
      </trkpt>
      <trkpt lat="40.7305450" lon="0.1687500">
        <ele>1315.2</ele>
        <time>2013-05-12T15:56:11Z</time>
      </trkpt>
      <trkpt lat="40.7306310" lon="0.1686840">
        <ele>1315.1</ele>
        <time>2013-05-12T15:56:13Z</time>
      </trkpt>
      <trkpt lat="40.7309050" lon="0.1685450">
        <ele>1313.9</ele>
        <time>2013-05-12T15:56:19Z</time>
      </trkpt>
      <trkpt lat="40.7309460" lon="0.1685280">
        <ele>1313.1</ele>
        <time>2013-05-12T15:56:23Z</time>
      </trkpt>
      <trkpt lat="40.7309610" lon="0.1685190">
        <ele>1312.8</ele>
        <time>2013-05-12T15:56:28Z</time>
      </trkpt>
      <trkpt lat="40.7309610" lon="0.1685210">
        <ele>1312.9</ele>
        <time>2013-05-12T15:56:29Z</time>
      </trkpt>
      <trkpt lat="40.7308920" lon="0.1685920">
        <ele>1313.5</ele>
        <time>2013-05-12T15:56:41Z</time>
      </trkpt>
      <trkpt lat="40.7309010" lon="0.1686360">
        <ele>1313.6</ele>
        <time>2013-05-12T15:56:43Z</time>
      </trkpt>
      <trkpt lat="40.7309140" lon="0.1687790">
        <ele>1314.7</ele>
        <time>2013-05-12T15:56:49Z</time>
      </trkpt>
      <trkpt lat="40.7309250" lon="0.1688520">
        <ele>1315.8</ele>
        <time>2013-05-12T15:56:52Z</time>
      </trkpt>
      <trkpt lat="40.7309450" lon="0.1689190">
        <ele>1316.8</ele>
        <time>2013-05-12T15:56:55Z</time>
      </trkpt>
      <trkpt lat="40.7309650" lon="0.1689930">
        <ele>1317.7</ele>
        <time>2013-05-12T15:56:58Z</time>
      </trkpt>
      <trkpt lat="40.7310090" lon="0.1691100">
        <ele>1319.0</ele>
        <time>2013-05-12T15:57:03Z</time>
      </trkpt>
      <trkpt lat="40.7311480" lon="0.1692200">
        <ele>1319.0</ele>
        <time>2013-05-12T15:57:10Z</time>
      </trkpt>
      <trkpt lat="40.7312970" lon="0.1692330">
        <ele>1319.8</ele>
        <time>2013-05-12T15:57:17Z</time>
      </trkpt>
      <trkpt lat="40.7314300" lon="0.1691990">
        <ele>1321.1</ele>
        <time>2013-05-12T15:57:24Z</time>
      </trkpt>
      <trkpt lat="40.7316040" lon="0.1691300">
        <ele>1322.8</ele>
        <time>2013-05-12T15:57:31Z</time>
      </trkpt>
      <trkpt lat="40.7316520" lon="0.1691340">
        <ele>1323.7</ele>
        <time>2013-05-12T15:57:33Z</time>
      </trkpt>
      <trkpt lat="40.7317020" lon="0.1692190">
        <ele>1325.0</ele>
        <time>2013-05-12T15:57:38Z</time>
      </trkpt>
      <trkpt lat="40.7317110" lon="0.1692330">
        <ele>1325.2</ele>
        <time>2013-05-12T15:57:39Z</time>
      </trkpt>
      <trkpt lat="40.7318060" lon="0.1693660">
        <ele>1326.5</ele>
        <time>2013-05-12T15:57:47Z</time>
      </trkpt>
      <trkpt lat="40.7318150" lon="0.1693850">
        <ele>1327.3</ele>
        <time>2013-05-12T15:57:50Z</time>
      </trkpt>
      <trkpt lat="40.7318290" lon="0.1693990">
        <ele>1327.4</ele>
        <time>2013-05-12T15:58:01Z</time>
      </trkpt>
      <trkpt lat="40.7318860" lon="0.1694940">
        <ele>1328.6</ele>
        <time>2013-05-12T15:58:07Z</time>
      </trkpt>
      <trkpt lat="40.7320230" lon="0.1696570">
        <ele>1330.7</ele>
        <time>2013-05-12T15:58:17Z</time>
      </trkpt>
      <trkpt lat="40.7321660" lon="0.1697710">
        <ele>1332.7</ele>
        <time>2013-05-12T15:58:25Z</time>
      </trkpt>
      <trkpt lat="40.7323150" lon="0.1698610">
        <ele>1334.7</ele>
        <time>2013-05-12T15:58:33Z</time>
      </trkpt>
      <trkpt lat="40.7324580" lon="0.1698970">
        <ele>1337.3</ele>
        <time>2013-05-12T15:58:40Z</time>
      </trkpt>
      <trkpt lat="40.7325990" lon="0.1699730">
        <ele>1339.4</ele>
        <time>2013-05-12T15:58:48Z</time>
      </trkpt>
      <trkpt lat="40.7326870" lon="0.1700860">
        <ele>1341.3</ele>
        <time>2013-05-12T15:58:55Z</time>
      </trkpt>
      <trkpt lat="40.7327510" lon="0.1701670">
        <ele>1342.1</ele>
        <time>2013-05-12T15:59:00Z</time>
      </trkpt>
      <trkpt lat="40.7328210" lon="0.1703200">
        <ele>1343.0</ele>
        <time>2013-05-12T15:59:07Z</time>
      </trkpt>
      <trkpt lat="40.7328880" lon="0.1704900">
        <ele>1343.3</ele>
        <time>2013-05-12T15:59:14Z</time>
      </trkpt>
      <trkpt lat="40.7329170" lon="0.1705370">
        <ele>1343.3</ele>
        <time>2013-05-12T15:59:19Z</time>
      </trkpt>
      <trkpt lat="40.7329210" lon="0.1705340">
        <ele>1341.8</ele>
        <time>2013-05-12T15:59:21Z</time>
      </trkpt>
      <trkpt lat="40.7329080" lon="0.1705570">
        <ele>1343.0</ele>
        <time>2013-05-12T15:59:53Z</time>
      </trkpt>
      <trkpt lat="40.7329070" lon="0.1704340">
        <ele>1343.5</ele>
        <time>2013-05-12T16:00:00Z</time>
      </trkpt>
      <trkpt lat="40.7329470" lon="0.1704080">
        <ele>1343.0</ele>
        <time>2013-05-12T16:00:04Z</time>
      </trkpt>
      <trkpt lat="40.7329470" lon="0.1704090">
        <ele>1342.9</ele>
        <time>2013-05-12T16:00:05Z</time>
      </trkpt>
      <trkpt lat="40.7329190" lon="0.1704230">
        <ele>1343.2</ele>
        <time>2013-05-12T16:00:29Z</time>
      </trkpt>
      <trkpt lat="40.7329170" lon="0.1704260">
        <ele>1343.1</ele>
        <time>2013-05-12T16:00:31Z</time>
      </trkpt>
      <trkpt lat="40.7328860" lon="0.1705270">
        <ele>1343.0</ele>
        <time>2013-05-12T16:00:43Z</time>
      </trkpt>
      <trkpt lat="40.7328990" lon="0.1705450">
        <ele>1343.0</ele>
        <time>2013-05-12T16:00:45Z</time>
      </trkpt>
      <trkpt lat="40.7329430" lon="0.1705650">
        <ele>1342.9</ele>
        <time>2013-05-12T16:00:51Z</time>
      </trkpt>
      <trkpt lat="40.7329580" lon="0.1705670">
        <ele>1342.6</ele>
        <time>2013-05-12T16:00:55Z</time>
      </trkpt>
      <trkpt lat="40.7329720" lon="0.1705790">
        <ele>1342.0</ele>
        <time>2013-05-12T16:00:58Z</time>
      </trkpt>
      <trkpt lat="40.7329710" lon="0.1705800">
        <ele>1341.7</ele>
        <time>2013-05-12T16:00:59Z</time>
      </trkpt>
      <trkpt lat="40.7329850" lon="0.1706430">
        <ele>1340.6</ele>
        <time>2013-05-12T16:01:09Z</time>
      </trkpt>
      <trkpt lat="40.7330120" lon="0.1707480">
        <ele>1339.7</ele>
        <time>2013-05-12T16:01:14Z</time>
      </trkpt>
      <trkpt lat="40.7330120" lon="0.1707640">
        <ele>1339.0</ele>
        <time>2013-05-12T16:01:17Z</time>
      </trkpt>
      <trkpt lat="40.7330910" lon="0.1708460">
        <ele>1337.6</ele>
        <time>2013-05-12T16:01:28Z</time>
      </trkpt>
      <trkpt lat="40.7330880" lon="0.1709560">
        <ele>1335.2</ele>
        <time>2013-05-12T16:01:34Z</time>
      </trkpt>
      <trkpt lat="40.7330900" lon="0.1711150">
        <ele>1332.5</ele>
        <time>2013-05-12T16:01:40Z</time>
      </trkpt>
      <trkpt lat="40.7331130" lon="0.1712690">
        <ele>1330.0</ele>
        <time>2013-05-12T16:01:45Z</time>
      </trkpt>
      <trkpt lat="40.7331110" lon="0.1714640">
        <ele>1326.8</ele>
        <time>2013-05-12T16:01:51Z</time>
      </trkpt>
      <trkpt lat="40.7330830" lon="0.1716510">
        <ele>1324.4</ele>
        <time>2013-05-12T16:01:55Z</time>
      </trkpt>
      <trkpt lat="40.7330580" lon="0.1717890">
        <ele>1321.4</ele>
        <time>2013-05-12T16:01:59Z</time>
      </trkpt>
      <trkpt lat="40.7330460" lon="0.1718760">
        <ele>1320.8</ele>
        <time>2013-05-12T16:02:01Z</time>
      </trkpt>
      <trkpt lat="40.7330650" lon="0.1720720">
        <ele>1318.5</ele>
        <time>2013-05-12T16:02:05Z</time>
      </trkpt>
      <trkpt lat="40.7330760" lon="0.1722130">
        <ele>1315.9</ele>
        <time>2013-05-12T16:02:10Z</time>
      </trkpt>
      <trkpt lat="40.7330710" lon="0.1722400">
        <ele>1315.6</ele>
        <time>2013-05-12T16:02:11Z</time>
      </trkpt>
      <trkpt lat="40.7330470" lon="0.1723910">
        <ele>1314.1</ele>
        <time>2013-05-12T16:02:15Z</time>
      </trkpt>
      <trkpt lat="40.7329980" lon="0.1726590">
        <ele>1311.9</ele>
        <time>2013-05-12T16:02:20Z</time>
      </trkpt>
      <trkpt lat="40.7329920" lon="0.1726980">
        <ele>1311.7</ele>
        <time>2013-05-12T16:02:21Z</time>
      </trkpt>
      <trkpt lat="40.7329630" lon="0.1729110">
        <ele>1310.3</ele>
        <time>2013-05-12T16:02:26Z</time>
      </trkpt>
      <trkpt lat="40.7329360" lon="0.1731580">
        <ele>1310.2</ele>
        <time>2013-05-12T16:02:32Z</time>
      </trkpt>
      <trkpt lat="40.7329720" lon="0.1733210">
        <ele>1309.0</ele>
        <time>2013-05-12T16:02:37Z</time>
      </trkpt>
      <trkpt lat="40.7329980" lon="0.1733950">
        <ele>1307.7</ele>
        <time>2013-05-12T16:02:40Z</time>
      </trkpt>
      <trkpt lat="40.7329940" lon="0.1734990">
        <ele>1307.3</ele>
        <time>2013-05-12T16:02:45Z</time>
      </trkpt>
      <trkpt lat="40.7329980" lon="0.1735080">
        <ele>1307.0</ele>
        <time>2013-05-12T16:02:47Z</time>
      </trkpt>
      <trkpt lat="40.7330110" lon="0.1735270">
        <ele>1306.7</ele>
        <time>2013-05-12T16:03:00Z</time>
      </trkpt>
      <trkpt lat="40.7330150" lon="0.1735310">
        <ele>1306.3</ele>
        <time>2013-05-12T16:03:02Z</time>
      </trkpt>
      <trkpt lat="40.7330030" lon="0.1735950">
        <ele>1306.5</ele>
        <time>2013-05-12T16:03:13Z</time>
      </trkpt>
      <trkpt lat="40.7329810" lon="0.1736400">
        <ele>1307.0</ele>
        <time>2013-05-12T16:03:17Z</time>
      </trkpt>
      <trkpt lat="40.7329770" lon="0.1736490">
        <ele>1307.3</ele>
        <time>2013-05-12T16:03:19Z</time>
      </trkpt>
      <trkpt lat="40.7329680" lon="0.1736890">
        <ele>1307.3</ele>
        <time>2013-05-12T16:03:23Z</time>
      </trkpt>
      <trkpt lat="40.7329070" lon="0.1737620">
        <ele>1307.9</ele>
        <time>2013-05-12T16:03:29Z</time>
      </trkpt>
      <trkpt lat="40.7328980" lon="0.1737760">
        <ele>1307.9</ele>
        <time>2013-05-12T16:03:30Z</time>
      </trkpt>
      <trkpt lat="40.7329160" lon="0.1738980">
        <ele>1308.2</ele>
        <time>2013-05-12T16:03:35Z</time>
      </trkpt>
      <trkpt lat="40.7329570" lon="0.1739540">
        <ele>1309.0</ele>
        <time>2013-05-12T16:03:40Z</time>
      </trkpt>
      <trkpt lat="40.7329290" lon="0.1740250">
        <ele>1309.3</ele>
        <time>2013-05-12T16:04:03Z</time>
      </trkpt>
      <trkpt lat="40.7329130" lon="0.1740560">
        <ele>1309.5</ele>
        <time>2013-05-12T16:04:09Z</time>
      </trkpt>
      <trkpt lat="40.7329370" lon="0.1740860">
        <ele>1309.3</ele>
        <time>2013-05-12T16:04:15Z</time>
      </trkpt>
      <trkpt lat="40.7329300" lon="0.1740590">
        <ele>1309.7</ele>
        <time>2013-05-12T16:04:23Z</time>
      </trkpt>
      <trkpt lat="40.7329290" lon="0.1740510">
        <ele>1309.8</ele>
        <time>2013-05-12T16:04:24Z</time>
      </trkpt>
      <trkpt lat="40.7329280" lon="0.1740180">
        <ele>1309.6</ele>
        <time>2013-05-12T16:04:28Z</time>
      </trkpt>
      <trkpt lat="40.7329520" lon="0.1739370">
        <ele>1309.2</ele>
        <time>2013-05-12T16:04:35Z</time>
      </trkpt>
      <trkpt lat="40.7329790" lon="0.1738350">
        <ele>1308.8</ele>
        <time>2013-05-12T16:04:43Z</time>
      </trkpt>
      <trkpt lat="40.7329810" lon="0.1738130">
        <ele>1308.5</ele>
        <time>2013-05-12T16:04:47Z</time>
      </trkpt>
      <trkpt lat="40.7329760" lon="0.1737370">
        <ele>1308.4</ele>
        <time>2013-05-12T16:04:53Z</time>
      </trkpt>
      <trkpt lat="40.7330000" lon="0.1736890">
        <ele>1307.7</ele>
        <time>2013-05-12T16:04:58Z</time>
      </trkpt>
      <trkpt lat="40.7330010" lon="0.1736890">
        <ele>1307.7</ele>
        <time>2013-05-12T16:04:59Z</time>
      </trkpt>
      <trkpt lat="40.7329800" lon="0.1736860">
        <ele>1307.5</ele>
        <time>2013-05-12T16:05:09Z</time>
      </trkpt>
      <trkpt lat="40.7329800" lon="0.1736860">
        <ele>1307.5</ele>
        <time>2013-05-12T16:05:10Z</time>
      </trkpt>
      <trkpt lat="40.7329040" lon="0.1736030">
        <ele>1307.7</ele>
        <time>2013-05-12T16:05:21Z</time>
      </trkpt>
      <trkpt lat="40.7328710" lon="0.1735770">
        <ele>1307.6</ele>
        <time>2013-05-12T16:05:23Z</time>
      </trkpt>
      <trkpt lat="40.7328120" lon="0.1735710">
        <ele>1307.1</ele>
        <time>2013-05-12T16:05:27Z</time>
      </trkpt>
      <trkpt lat="40.7327580" lon="0.1735700">
        <ele>1305.8</ele>
        <time>2013-05-12T16:05:33Z</time>
      </trkpt>
      <trkpt lat="40.7327720" lon="0.1735720">
        <ele>1305.7</ele>
        <time>2013-05-12T16:05:39Z</time>
      </trkpt>
      <trkpt lat="40.7328560" lon="0.1735990">
        <ele>1307.1</ele>
        <time>2013-05-12T16:05:50Z</time>
      </trkpt>
      <trkpt lat="40.7328910" lon="0.1736100">
        <ele>1307.5</ele>
        <time>2013-05-12T16:05:53Z</time>
      </trkpt>
      <trkpt lat="40.7329600" lon="0.1736040">
        <ele>1307.9</ele>
        <time>2013-05-12T16:05:58Z</time>
      </trkpt>
      <trkpt lat="40.7330130" lon="0.1735420">
        <ele>1306.9</ele>
        <time>2013-05-12T16:06:04Z</time>
      </trkpt>
      <trkpt lat="40.7330180" lon="0.1735360">
        <ele>1306.7</ele>
        <time>2013-05-12T16:06:06Z</time>
      </trkpt>
      <trkpt lat="40.7330440" lon="0.1735320">
        <ele>1306.3</ele>
        <time>2013-05-12T16:06:12Z</time>
      </trkpt>
      <trkpt lat="40.7330580" lon="0.1735350">
        <ele>1305.8</ele>
        <time>2013-05-12T16:06:14Z</time>
      </trkpt>
      <trkpt lat="40.7330900" lon="0.1735680">
        <ele>1304.4</ele>
        <time>2013-05-12T16:06:20Z</time>
      </trkpt>
      <trkpt lat="40.7330970" lon="0.1735850">
        <ele>1303.9</ele>
        <time>2013-05-12T16:06:24Z</time>
      </trkpt>
      <trkpt lat="40.7331020" lon="0.1736030">
        <ele>1303.8</ele>
        <time>2013-05-12T16:06:27Z</time>
      </trkpt>
      <trkpt lat="40.7331070" lon="0.1736440">
        <ele>1303.8</ele>
        <time>2013-05-12T16:06:30Z</time>
      </trkpt>
      <trkpt lat="40.7331160" lon="0.1736740">
        <ele>1303.6</ele>
        <time>2013-05-12T16:06:34Z</time>
      </trkpt>
      <trkpt lat="40.7331240" lon="0.1737050">
        <ele>1303.0</ele>
        <time>2013-05-12T16:06:38Z</time>
      </trkpt>
      <trkpt lat="40.7331260" lon="0.1737100">
        <ele>1302.9</ele>
        <time>2013-05-12T16:06:39Z</time>
      </trkpt>
      <trkpt lat="40.7331720" lon="0.1738080">
        <ele>1302.1</ele>
        <time>2013-05-12T16:06:45Z</time>
      </trkpt>
      <trkpt lat="40.7331710" lon="0.1738760">
        <ele>1301.2</ele>
        <time>2013-05-12T16:06:49Z</time>
      </trkpt>
      <trkpt lat="40.7331680" lon="0.1738780">
        <ele>1301.1</ele>
        <time>2013-05-12T16:06:50Z</time>
      </trkpt>
      <trkpt lat="40.7331670" lon="0.1739040">
        <ele>1301.0</ele>
        <time>2013-05-12T16:06:55Z</time>
      </trkpt>
      <trkpt lat="40.7331680" lon="0.1739080">
        <ele>1301.0</ele>
        <time>2013-05-12T16:06:56Z</time>
      </trkpt>
      <trkpt lat="40.7331670" lon="0.1739470">
        <ele>1300.6</ele>
        <time>2013-05-12T16:07:06Z</time>
      </trkpt>
      <trkpt lat="40.7331530" lon="0.1739850">
        <ele>1300.9</ele>
        <time>2013-05-12T16:07:13Z</time>
      </trkpt>
      <trkpt lat="40.7331420" lon="0.1740210">
        <ele>1301.0</ele>
        <time>2013-05-12T16:07:18Z</time>
      </trkpt>
      <trkpt lat="40.7331450" lon="0.1740600">
        <ele>1300.9</ele>
        <time>2013-05-12T16:07:23Z</time>
      </trkpt>
      <trkpt lat="40.7331320" lon="0.1741260">
        <ele>1300.6</ele>
        <time>2013-05-12T16:07:28Z</time>
      </trkpt>
      <trkpt lat="40.7331260" lon="0.1741550">
        <ele>1300.5</ele>
        <time>2013-05-12T16:07:31Z</time>
      </trkpt>
      <trkpt lat="40.7331230" lon="0.1742150">
        <ele>1299.6</ele>
        <time>2013-05-12T16:07:36Z</time>
      </trkpt>
      <trkpt lat="40.7330980" lon="0.1742930">
        <ele>1298.1</ele>
        <time>2013-05-12T16:07:43Z</time>
      </trkpt>
      <trkpt lat="40.7330860" lon="0.1743210">
        <ele>1297.1</ele>
        <time>2013-05-12T16:07:48Z</time>
      </trkpt>
      <trkpt lat="40.7330450" lon="0.1743880">
        <ele>1296.1</ele>
        <time>2013-05-12T16:08:08Z</time>
      </trkpt>
      <trkpt lat="40.7330430" lon="0.1743940">
        <ele>1296.0</ele>
        <time>2013-05-12T16:08:09Z</time>
      </trkpt>
      <trkpt lat="40.7330350" lon="0.1744050">
        <ele>1295.8</ele>
        <time>2013-05-12T16:08:11Z</time>
      </trkpt>
      <trkpt lat="40.7330110" lon="0.1744270">
        <ele>1295.3</ele>
        <time>2013-05-12T16:08:14Z</time>
      </trkpt>
      <trkpt lat="40.7329830" lon="0.1744650">
        <ele>1294.8</ele>
        <time>2013-05-12T16:08:19Z</time>
      </trkpt>
      <trkpt lat="40.7329330" lon="0.1745660">
        <ele>1293.1</ele>
        <time>2013-05-12T16:08:24Z</time>
      </trkpt>
      <trkpt lat="40.7328680" lon="0.1747030">
        <ele>1290.9</ele>
        <time>2013-05-12T16:08:29Z</time>
      </trkpt>
      <trkpt lat="40.7328230" lon="0.1747650">
        <ele>1290.1</ele>
        <time>2013-05-12T16:08:31Z</time>
      </trkpt>
      <trkpt lat="40.7327050" lon="0.1748580">
        <ele>1288.0</ele>
        <time>2013-05-12T16:08:35Z</time>
      </trkpt>
      <trkpt lat="40.7326100" lon="0.1749240">
        <ele>1285.6</ele>
        <time>2013-05-12T16:08:39Z</time>
      </trkpt>
      <trkpt lat="40.7325700" lon="0.1749240">
        <ele>1284.8</ele>
        <time>2013-05-12T16:08:41Z</time>
      </trkpt>
      <trkpt lat="40.7325400" lon="0.1749040">
        <ele>1283.5</ele>
        <time>2013-05-12T16:08:45Z</time>
      </trkpt>
      <trkpt lat="40.7325250" lon="0.1749190">
        <ele>1282.8</ele>
        <time>2013-05-12T16:09:09Z</time>
      </trkpt>
      <trkpt lat="40.7325100" lon="0.1749300">
        <ele>1282.0</ele>
        <time>2013-05-12T16:09:13Z</time>
      </trkpt>
      <trkpt lat="40.7324970" lon="0.1749350">
        <ele>1281.2</ele>
        <time>2013-05-12T16:09:17Z</time>
      </trkpt>
      <trkpt lat="40.7324900" lon="0.1749440">
        <ele>1280.8</ele>
        <time>2013-05-12T16:09:28Z</time>
      </trkpt>
      <trkpt lat="40.7324880" lon="0.1749440">
        <ele>1280.6</ele>
        <time>2013-05-12T16:09:29Z</time>
      </trkpt>
      <trkpt lat="40.7324960" lon="0.1749910">
        <ele>1279.3</ele>
        <time>2013-05-12T16:09:45Z</time>
      </trkpt>
      <trkpt lat="40.7324960" lon="0.1750190">
        <ele>1278.6</ele>
        <time>2013-05-12T16:09:48Z</time>
      </trkpt>
      <trkpt lat="40.7324440" lon="0.1750230">
        <ele>1276.4</ele>
        <time>2013-05-12T16:09:54Z</time>
      </trkpt>
      <trkpt lat="40.7324410" lon="0.1750340">
        <ele>1275.8</ele>
        <time>2013-05-12T16:09:56Z</time>
      </trkpt>
      <trkpt lat="40.7324240" lon="0.1750740">
        <ele>1274.8</ele>
        <time>2013-05-12T16:10:00Z</time>
      </trkpt>
      <trkpt lat="40.7324110" lon="0.1750920">
        <ele>1274.0</ele>
        <time>2013-05-12T16:10:02Z</time>
      </trkpt>
      <trkpt lat="40.7323930" lon="0.1751240">
        <ele>1273.2</ele>
        <time>2013-05-12T16:10:05Z</time>
      </trkpt>
      <trkpt lat="40.7323610" lon="0.1751450">
        <ele>1271.5</ele>
        <time>2013-05-12T16:10:10Z</time>
      </trkpt>
      <trkpt lat="40.7323130" lon="0.1751960">
        <ele>1269.4</ele>
        <time>2013-05-12T16:10:17Z</time>
      </trkpt>
      <trkpt lat="40.7323140" lon="0.1752120">
        <ele>1268.6</ele>
        <time>2013-05-12T16:10:20Z</time>
      </trkpt>
      <trkpt lat="40.7322650" lon="0.1752600">
        <ele>1266.3</ele>
        <time>2013-05-12T16:10:29Z</time>
      </trkpt>
      <trkpt lat="40.7322540" lon="0.1752580">
        <ele>1265.8</ele>
        <time>2013-05-12T16:10:31Z</time>
      </trkpt>
      <trkpt lat="40.7322060" lon="0.1752600">
        <ele>1264.0</ele>
        <time>2013-05-12T16:10:38Z</time>
      </trkpt>
      <trkpt lat="40.7321960" lon="0.1752670">
        <ele>1263.2</ele>
        <time>2013-05-12T16:10:41Z</time>
      </trkpt>
      <trkpt lat="40.7321890" lon="0.1752850">
        <ele>1262.6</ele>
        <time>2013-05-12T16:10:44Z</time>
      </trkpt>
      <trkpt lat="40.7321800" lon="0.1753080">
        <ele>1261.5</ele>
        <time>2013-05-12T16:10:48Z</time>
      </trkpt>
      <trkpt lat="40.7321550" lon="0.1753200">
        <ele>1260.8</ele>
        <time>2013-05-12T16:10:54Z</time>
      </trkpt>
      <trkpt lat="40.7321490" lon="0.1753200">
        <ele>1260.5</ele>
        <time>2013-05-12T16:10:55Z</time>
      </trkpt>
      <trkpt lat="40.7321250" lon="0.1753260">
        <ele>1259.8</ele>
        <time>2013-05-12T16:11:00Z</time>
      </trkpt>
      <trkpt lat="40.7321190" lon="0.1753230">
        <ele>1259.6</ele>
        <time>2013-05-12T16:11:01Z</time>
      </trkpt>
      <trkpt lat="40.7320380" lon="0.1753930">
        <ele>1257.2</ele>
        <time>2013-05-12T16:11:08Z</time>
      </trkpt>
      <trkpt lat="40.7319820" lon="0.1754220">
        <ele>1255.1</ele>
        <time>2013-05-12T16:11:12Z</time>
      </trkpt>
      <trkpt lat="40.7319660" lon="0.1754290">
        <ele>1254.4</ele>
        <time>2013-05-12T16:11:13Z</time>
      </trkpt>
      <trkpt lat="40.7318940" lon="0.1754220">
        <ele>1252.5</ele>
        <time>2013-05-12T16:11:17Z</time>
      </trkpt>
      <trkpt lat="40.7318780" lon="0.1754180">
        <ele>1252.3</ele>
        <time>2013-05-12T16:11:18Z</time>
      </trkpt>
      <trkpt lat="40.7318550" lon="0.1753960">
        <ele>1250.5</ele>
        <time>2013-05-12T16:11:22Z</time>
      </trkpt>
      <trkpt lat="40.7318350" lon="0.1753950">
        <ele>1249.9</ele>
        <time>2013-05-12T16:11:26Z</time>
      </trkpt>
      <trkpt lat="40.7318180" lon="0.1754010">
        <ele>1248.7</ele>
        <time>2013-05-12T16:11:31Z</time>
      </trkpt>
      <trkpt lat="40.7318200" lon="0.1754230">
        <ele>1248.1</ele>
        <time>2013-05-12T16:11:35Z</time>
      </trkpt>
      <trkpt lat="40.7318040" lon="0.1754410">
        <ele>1247.1</ele>
        <time>2013-05-12T16:11:40Z</time>
      </trkpt>
      <trkpt lat="40.7317690" lon="0.1754150">
        <ele>1245.6</ele>
        <time>2013-05-12T16:11:46Z</time>
      </trkpt>
      <trkpt lat="40.7317650" lon="0.1754140">
        <ele>1245.2</ele>
        <time>2013-05-12T16:11:48Z</time>
      </trkpt>
      <trkpt lat="40.7317250" lon="0.1754390">
        <ele>1243.7</ele>
        <time>2013-05-12T16:12:13Z</time>
      </trkpt>
      <trkpt lat="40.7316850" lon="0.1755030">
        <ele>1242.2</ele>
        <time>2013-05-12T16:12:18Z</time>
      </trkpt>
      <trkpt lat="40.7316010" lon="0.1755910">
        <ele>1238.8</ele>
        <time>2013-05-12T16:12:27Z</time>
      </trkpt>
      <trkpt lat="40.7315700" lon="0.1756030">
        <ele>1237.4</ele>
        <time>2013-05-12T16:12:31Z</time>
      </trkpt>
      <trkpt lat="40.7315620" lon="0.1756220">
        <ele>1236.7</ele>
        <time>2013-05-12T16:12:35Z</time>
      </trkpt>
      <trkpt lat="40.7315630" lon="0.1756310">
        <ele>1235.9</ele>
        <time>2013-05-12T16:12:38Z</time>
      </trkpt>
      <trkpt lat="40.7315620" lon="0.1756610">
        <ele>1236.1</ele>
        <time>2013-05-12T16:12:46Z</time>
      </trkpt>
      <trkpt lat="40.7315480" lon="0.1757330">
        <ele>1234.0</ele>
        <time>2013-05-12T16:12:53Z</time>
      </trkpt>
      <trkpt lat="40.7315440" lon="0.1757410">
        <ele>1233.3</ele>
        <time>2013-05-12T16:12:55Z</time>
      </trkpt>
      <trkpt lat="40.7314740" lon="0.1758090">
        <ele>1231.5</ele>
        <time>2013-05-12T16:13:01Z</time>
      </trkpt>
      <trkpt lat="40.7314230" lon="0.1758890">
        <ele>1228.9</ele>
        <time>2013-05-12T16:13:06Z</time>
      </trkpt>
      <trkpt lat="40.7314160" lon="0.1759020">
        <ele>1228.4</ele>
        <time>2013-05-12T16:13:07Z</time>
      </trkpt>
      <trkpt lat="40.7313470" lon="0.1759240">
        <ele>1225.7</ele>
        <time>2013-05-12T16:13:12Z</time>
      </trkpt>
      <trkpt lat="40.7312750" lon="0.1759300">
        <ele>1223.0</ele>
        <time>2013-05-12T16:13:17Z</time>
      </trkpt>
      <trkpt lat="40.7312740" lon="0.1759300">
        <ele>1222.6</ele>
        <time>2013-05-12T16:13:18Z</time>
      </trkpt>
      <trkpt lat="40.7312440" lon="0.1759450">
        <ele>1221.6</ele>
        <time>2013-05-12T16:13:24Z</time>
      </trkpt>
      <trkpt lat="40.7312260" lon="0.1759440">
        <ele>1220.5</ele>
        <time>2013-05-12T16:13:27Z</time>
      </trkpt>
      <trkpt lat="40.7311610" lon="0.1760200">
        <ele>1218.8</ele>
        <time>2013-05-12T16:13:36Z</time>
      </trkpt>
      <trkpt lat="40.7311590" lon="0.1760260">
        <ele>1218.5</ele>
        <time>2013-05-12T16:13:37Z</time>
      </trkpt>
      <trkpt lat="40.7311320" lon="0.1760270">
        <ele>1217.5</ele>
        <time>2013-05-12T16:13:43Z</time>
      </trkpt>
      <trkpt lat="40.7311090" lon="0.1760260">
        <ele>1217.0</ele>
        <time>2013-05-12T16:13:47Z</time>
      </trkpt>
      <trkpt lat="40.7310810" lon="0.1760470">
        <ele>1216.5</ele>
        <time>2013-05-12T16:13:50Z</time>
      </trkpt>
      <trkpt lat="40.7309760" lon="0.1760360">
        <ele>1215.4</ele>
        <time>2013-05-12T16:13:55Z</time>
      </trkpt>
      <trkpt lat="40.7308330" lon="0.1760230">
        <ele>1213.3</ele>
        <time>2013-05-12T16:14:00Z</time>
      </trkpt>
      <trkpt lat="40.7308080" lon="0.1760270">
        <ele>1212.9</ele>
        <time>2013-05-12T16:14:01Z</time>
      </trkpt>
      <trkpt lat="40.7306830" lon="0.1761590">
        <ele>1210.4</ele>
        <time>2013-05-12T16:14:07Z</time>
      </trkpt>
      <trkpt lat="40.7306280" lon="0.1761880">
        <ele>1209.7</ele>
        <time>2013-05-12T16:14:09Z</time>
      </trkpt>
      <trkpt lat="40.7305990" lon="0.1761960">
        <ele>1209.1</ele>
        <time>2013-05-12T16:14:11Z</time>
      </trkpt>
      <trkpt lat="40.7305780" lon="0.1762090">
        <ele>1208.9</ele>
        <time>2013-05-12T16:14:15Z</time>
      </trkpt>
      <trkpt lat="40.7305760" lon="0.1762110">
        <ele>1208.8</ele>
        <time>2013-05-12T16:14:16Z</time>
      </trkpt>
      <trkpt lat="40.7304780" lon="0.1762850">
        <ele>1207.6</ele>
        <time>2013-05-12T16:14:23Z</time>
      </trkpt>
      <trkpt lat="40.7304420" lon="0.1762870">
        <ele>1207.1</ele>
        <time>2013-05-12T16:14:27Z</time>
      </trkpt>
      <trkpt lat="40.7303970" lon="0.1763090">
        <ele>1206.4</ele>
        <time>2013-05-12T16:14:33Z</time>
      </trkpt>
      <trkpt lat="40.7303970" lon="0.1763080">
        <ele>1206.3</ele>
        <time>2013-05-12T16:14:34Z</time>
      </trkpt>
      <trkpt lat="40.7303610" lon="0.1763340">
        <ele>1205.9</ele>
        <time>2013-05-12T16:14:41Z</time>
      </trkpt>
      <trkpt lat="40.7302830" lon="0.1763510">
        <ele>1205.3</ele>
        <time>2013-05-12T16:14:47Z</time>
      </trkpt>
      <trkpt lat="40.7301920" lon="0.1763830">
        <ele>1204.3</ele>
        <time>2013-05-12T16:14:52Z</time>
      </trkpt>
      <trkpt lat="40.7300820" lon="0.1764960">
        <ele>1201.9</ele>
        <time>2013-05-12T16:14:58Z</time>
      </trkpt>
      <trkpt lat="40.7300000" lon="0.1765130">
        <ele>1200.2</ele>
        <time>2013-05-12T16:15:02Z</time>
      </trkpt>
      <trkpt lat="40.7298180" lon="0.1766630">
        <ele>1197.4</ele>
        <time>2013-05-12T16:15:07Z</time>
      </trkpt>
      <trkpt lat="40.7297630" lon="0.1767530">
        <ele>1196.1</ele>
        <time>2013-05-12T16:15:09Z</time>
      </trkpt>
      <trkpt lat="40.7297120" lon="0.1768210">
        <ele>1195.3</ele>
        <time>2013-05-12T16:15:11Z</time>
      </trkpt>
      <trkpt lat="40.7296430" lon="0.1768750">
        <ele>1193.7</ele>
        <time>2013-05-12T16:15:14Z</time>
      </trkpt>
      <trkpt lat="40.7296040" lon="0.1769220">
        <ele>1192.4</ele>
        <time>2013-05-12T16:15:17Z</time>
      </trkpt>
      <trkpt lat="40.7295840" lon="0.1769300">
        <ele>1191.8</ele>
        <time>2013-05-12T16:15:19Z</time>
      </trkpt>
      <trkpt lat="40.7295310" lon="0.1770000">
        <ele>1190.8</ele>
        <time>2013-05-12T16:15:23Z</time>
      </trkpt>
      <trkpt lat="40.7294770" lon="0.1772250">
        <ele>1189.2</ele>
        <time>2013-05-12T16:15:28Z</time>
      </trkpt>
      <trkpt lat="40.7294130" lon="0.1774690">
        <ele>1187.5</ele>
        <time>2013-05-12T16:15:33Z</time>
      </trkpt>
      <trkpt lat="40.7293970" lon="0.1775850">
        <ele>1186.5</ele>
        <time>2013-05-12T16:15:35Z</time>
      </trkpt>
      <trkpt lat="40.7293370" lon="0.1778680">
        <ele>1184.1</ele>
        <time>2013-05-12T16:15:41Z</time>
      </trkpt>
      <trkpt lat="40.7293340" lon="0.1779210">
        <ele>1184.0</ele>
        <time>2013-05-12T16:15:42Z</time>
      </trkpt>
      <trkpt lat="40.7292740" lon="0.1783310">
        <ele>1181.8</ele>
        <time>2013-05-12T16:15:50Z</time>
      </trkpt>
      <trkpt lat="40.7292350" lon="0.1785870">
        <ele>1180.4</ele>
        <time>2013-05-12T16:15:56Z</time>
      </trkpt>
      <trkpt lat="40.7291940" lon="0.1787660">
        <ele>1179.9</ele>
        <time>2013-05-12T16:16:00Z</time>
      </trkpt>
      <trkpt lat="40.7290600" lon="0.1790910">
        <ele>1177.9</ele>
        <time>2013-05-12T16:16:07Z</time>
      </trkpt>
      <trkpt lat="40.7290030" lon="0.1792910">
        <ele>1175.9</ele>
        <time>2013-05-12T16:16:13Z</time>
      </trkpt>
      <trkpt lat="40.7289750" lon="0.1794800">
        <ele>1174.3</ele>
        <time>2013-05-12T16:16:18Z</time>
      </trkpt>
      <trkpt lat="40.7289660" lon="0.1795580">
        <ele>1173.9</ele>
        <time>2013-05-12T16:16:20Z</time>
      </trkpt>
      <trkpt lat="40.7290240" lon="0.1796340">
        <ele>1172.7</ele>
        <time>2013-05-12T16:16:24Z</time>
      </trkpt>
      <trkpt lat="40.7291780" lon="0.1796500">
        <ele>1172.6</ele>
        <time>2013-05-12T16:16:30Z</time>
      </trkpt>
      <trkpt lat="40.7292140" lon="0.1796510">
        <ele>1172.6</ele>
        <time>2013-05-12T16:16:31Z</time>
      </trkpt>
      <trkpt lat="40.7294250" lon="0.1796100">
        <ele>1172.5</ele>
        <time>2013-05-12T16:16:37Z</time>
      </trkpt>
      <trkpt lat="40.7295300" lon="0.1796440">
        <ele>1172.4</ele>
        <time>2013-05-12T16:16:41Z</time>
      </trkpt>
      <trkpt lat="40.7296610" lon="0.1796550">
        <ele>1171.8</ele>
        <time>2013-05-12T16:16:45Z</time>
      </trkpt>
      <trkpt lat="40.7298070" lon="0.1796250">
        <ele>1170.1</ele>
        <time>2013-05-12T16:16:49Z</time>
      </trkpt>
      <trkpt lat="40.7298390" lon="0.1796140">
        <ele>1169.8</ele>
        <time>2013-05-12T16:16:50Z</time>
      </trkpt>
      <trkpt lat="40.7298680" lon="0.1796000">
        <ele>1169.2</ele>
        <time>2013-05-12T16:16:51Z</time>
      </trkpt>
      <trkpt lat="40.7300190" lon="0.1793790">
        <ele>1165.5</ele>
        <time>2013-05-12T16:16:57Z</time>
      </trkpt>
      <trkpt lat="40.7301000" lon="0.1792740">
        <ele>1164.1</ele>
        <time>2013-05-12T16:17:00Z</time>
      </trkpt>
      <trkpt lat="40.7301700" lon="0.1792250">
        <ele>1163.3</ele>
        <time>2013-05-12T16:17:02Z</time>
      </trkpt>
      <trkpt lat="40.7303960" lon="0.1791480">
        <ele>1161.6</ele>
        <time>2013-05-12T16:17:07Z</time>
      </trkpt>
      <trkpt lat="40.7305600" lon="0.1791530">
        <ele>1160.9</ele>
        <time>2013-05-12T16:17:11Z</time>
      </trkpt>
      <trkpt lat="40.7305970" lon="0.1791430">
        <ele>1160.6</ele>
        <time>2013-05-12T16:17:12Z</time>
      </trkpt>
      <trkpt lat="40.7308180" lon="0.1790590">
        <ele>1159.3</ele>
        <time>2013-05-12T16:17:17Z</time>
      </trkpt>
      <trkpt lat="40.7308640" lon="0.1790750">
        <ele>1159.3</ele>
        <time>2013-05-12T16:17:18Z</time>
      </trkpt>
      <trkpt lat="40.7310740" lon="0.1791460">
        <ele>1159.4</ele>
        <time>2013-05-12T16:17:24Z</time>
      </trkpt>
      <trkpt lat="40.7311650" lon="0.1792230">
        <ele>1159.8</ele>
        <time>2013-05-12T16:17:29Z</time>
      </trkpt>
      <trkpt lat="40.7311760" lon="0.1792310">
        <ele>1160.0</ele>
        <time>2013-05-12T16:17:30Z</time>
      </trkpt>
      <trkpt lat="40.7312350" lon="0.1793480">
        <ele>1160.5</ele>
        <time>2013-05-12T16:17:35Z</time>
      </trkpt>
      <trkpt lat="40.7312660" lon="0.1794210">
        <ele>1161.0</ele>
        <time>2013-05-12T16:17:38Z</time>
      </trkpt>
      <trkpt lat="40.7312760" lon="0.1794480">
        <ele>1161.3</ele>
        <time>2013-05-12T16:17:39Z</time>
      </trkpt>
      <trkpt lat="40.7313330" lon="0.1794980">
        <ele>1162.0</ele>
        <time>2013-05-12T16:17:42Z</time>
      </trkpt>
      <trkpt lat="40.7313980" lon="0.1795150">
        <ele>1162.7</ele>
        <time>2013-05-12T16:17:45Z</time>
      </trkpt>
      <trkpt lat="40.7315450" lon="0.1795640">
        <ele>1163.3</ele>
        <time>2013-05-12T16:17:51Z</time>
      </trkpt>
      <trkpt lat="40.7316770" lon="0.1796920">
        <ele>1163.5</ele>
        <time>2013-05-12T16:17:56Z</time>
      </trkpt>
      <trkpt lat="40.7317920" lon="0.1798170">
        <ele>1164.2</ele>
        <time>2013-05-12T16:18:01Z</time>
      </trkpt>
      <trkpt lat="40.7318660" lon="0.1799130">
        <ele>1165.7</ele>
        <time>2013-05-12T16:18:06Z</time>
      </trkpt>
      <trkpt lat="40.7319480" lon="0.1800430">
        <ele>1167.1</ele>
        <time>2013-05-12T16:18:13Z</time>
      </trkpt>
      <trkpt lat="40.7320100" lon="0.1801540">
        <ele>1168.1</ele>
        <time>2013-05-12T16:18:18Z</time>
      </trkpt>
      <trkpt lat="40.7320180" lon="0.1801790">
        <ele>1168.2</ele>
        <time>2013-05-12T16:18:19Z</time>
      </trkpt>
      <trkpt lat="40.7321210" lon="0.1803010">
        <ele>1169.8</ele>
        <time>2013-05-12T16:18:26Z</time>
      </trkpt>
      <trkpt lat="40.7322010" lon="0.1803440">
        <ele>1170.7</ele>
        <time>2013-05-12T16:18:31Z</time>
      </trkpt>
      <trkpt lat="40.7322990" lon="0.1803470">
        <ele>1171.1</ele>
        <time>2013-05-12T16:18:36Z</time>
      </trkpt>
      <trkpt lat="40.7323620" lon="0.1803440">
        <ele>1171.1</ele>
        <time>2013-05-12T16:18:38Z</time>
      </trkpt>
      <trkpt lat="40.7325800" lon="0.1803520">
        <ele>1171.3</ele>
        <time>2013-05-12T16:18:44Z</time>
      </trkpt>
      <trkpt lat="40.7327330" lon="0.1803610">
        <ele>1171.8</ele>
        <time>2013-05-12T16:18:49Z</time>
      </trkpt>
      <trkpt lat="40.7328520" lon="0.1803540">
        <ele>1172.6</ele>
        <time>2013-05-12T16:18:54Z</time>
      </trkpt>
      <trkpt lat="40.7329500" lon="0.1802860">
        <ele>1173.7</ele>
        <time>2013-05-12T16:18:59Z</time>
      </trkpt>
      <trkpt lat="40.7330530" lon="0.1802440">
        <ele>1175.4</ele>
        <time>2013-05-12T16:19:04Z</time>
      </trkpt>
      <trkpt lat="40.7330740" lon="0.1802370">
        <ele>1175.8</ele>
        <time>2013-05-12T16:19:05Z</time>
      </trkpt>
      <trkpt lat="40.7331510" lon="0.1802070">
        <ele>1177.1</ele>
        <time>2013-05-12T16:19:09Z</time>
      </trkpt>
      <trkpt lat="40.7332450" lon="0.1801840">
        <ele>1178.9</ele>
        <time>2013-05-12T16:19:15Z</time>
      </trkpt>
      <trkpt lat="40.7333920" lon="0.1801400">
        <ele>1179.0</ele>
        <time>2013-05-12T16:19:22Z</time>
      </trkpt>
      <trkpt lat="40.7334610" lon="0.1801040">
        <ele>1179.2</ele>
        <time>2013-05-12T16:19:26Z</time>
      </trkpt>
      <trkpt lat="40.7335720" lon="0.1800320">
        <ele>1179.5</ele>
        <time>2013-05-12T16:19:31Z</time>
      </trkpt>
      <trkpt lat="40.7336610" lon="0.1799730">
        <ele>1179.6</ele>
        <time>2013-05-12T16:19:36Z</time>
      </trkpt>
      <trkpt lat="40.7338230" lon="0.1799140">
        <ele>1179.0</ele>
        <time>2013-05-12T16:19:42Z</time>
      </trkpt>
      <trkpt lat="40.7339200" lon="0.1799080">
        <ele>1179.7</ele>
        <time>2013-05-12T16:19:47Z</time>
      </trkpt>
      <trkpt lat="40.7340780" lon="0.1799470">
        <ele>1179.1</ele>
        <time>2013-05-12T16:19:52Z</time>
      </trkpt>
      <trkpt lat="40.7342330" lon="0.1799380">
        <ele>1178.0</ele>
        <time>2013-05-12T16:19:57Z</time>
      </trkpt>
      <trkpt lat="40.7343880" lon="0.1799140">
        <ele>1176.6</ele>
        <time>2013-05-12T16:20:02Z</time>
      </trkpt>
      <trkpt lat="40.7344800" lon="0.1798660">
        <ele>1175.8</ele>
        <time>2013-05-12T16:20:05Z</time>
      </trkpt>
      <trkpt lat="40.7346400" lon="0.1798220">
        <ele>1173.6</ele>
        <time>2013-05-12T16:20:10Z</time>
      </trkpt>
      <trkpt lat="40.7347630" lon="0.1797250">
        <ele>1171.7</ele>
        <time>2013-05-12T16:20:15Z</time>
      </trkpt>
      <trkpt lat="40.7348000" lon="0.1797060">
        <ele>1171.3</ele>
        <time>2013-05-12T16:20:17Z</time>
      </trkpt>
      <trkpt lat="40.7348950" lon="0.1796150">
        <ele>1170.1</ele>
        <time>2013-05-12T16:20:21Z</time>
      </trkpt>
      <trkpt lat="40.7350290" lon="0.1794900">
        <ele>1169.0</ele>
        <time>2013-05-12T16:20:26Z</time>
      </trkpt>
      <trkpt lat="40.7351420" lon="0.1793860">
        <ele>1168.4</ele>
        <time>2013-05-12T16:20:29Z</time>
      </trkpt>
      <trkpt lat="40.7353100" lon="0.1791440">
        <ele>1166.9</ele>
        <time>2013-05-12T16:20:34Z</time>
      </trkpt>
      <trkpt lat="40.7353680" lon="0.1790440">
        <ele>1167.0</ele>
        <time>2013-05-12T16:20:38Z</time>
      </trkpt>
      <trkpt lat="40.7354870" lon="0.1788970">
        <ele>1166.6</ele>
        <time>2013-05-12T16:20:43Z</time>
      </trkpt>
      <trkpt lat="40.7356120" lon="0.1787600">
        <ele>1166.4</ele>
        <time>2013-05-12T16:20:47Z</time>
      </trkpt>
      <trkpt lat="40.7358450" lon="0.1786240">
        <ele>1167.0</ele>
        <time>2013-05-12T16:20:53Z</time>
      </trkpt>
      <trkpt lat="40.7359780" lon="0.1785850">
        <ele>1168.4</ele>
        <time>2013-05-12T16:20:57Z</time>
      </trkpt>
      <trkpt lat="40.7361260" lon="0.1785250">
        <ele>1168.6</ele>
        <time>2013-05-12T16:21:01Z</time>
      </trkpt>
      <trkpt lat="40.7362710" lon="0.1784640">
        <ele>1168.7</ele>
        <time>2013-05-12T16:21:05Z</time>
      </trkpt>
      <trkpt lat="40.7363370" lon="0.1784370">
        <ele>1168.8</ele>
        <time>2013-05-12T16:21:07Z</time>
      </trkpt>
      <trkpt lat="40.7364400" lon="0.1782870">
        <ele>1169.7</ele>
        <time>2013-05-12T16:21:13Z</time>
      </trkpt>
      <trkpt lat="40.7364530" lon="0.1782520">
        <ele>1169.9</ele>
        <time>2013-05-12T16:21:16Z</time>
      </trkpt>
      <trkpt lat="40.7364970" lon="0.1782020">
        <ele>1170.7</ele>
        <time>2013-05-12T16:21:24Z</time>
      </trkpt>
      <trkpt lat="40.7365650" lon="0.1781080">
        <ele>1169.8</ele>
        <time>2013-05-12T16:21:29Z</time>
      </trkpt>
      <trkpt lat="40.7366010" lon="0.1780490">
        <ele>1169.1</ele>
        <time>2013-05-12T16:21:31Z</time>
      </trkpt>
      <trkpt lat="40.7366960" lon="0.1777560">
        <ele>1167.0</ele>
        <time>2013-05-12T16:21:37Z</time>
      </trkpt>
      <trkpt lat="40.7367530" lon="0.1776050">
        <ele>1165.2</ele>
        <time>2013-05-12T16:21:41Z</time>
      </trkpt>
      <trkpt lat="40.7367650" lon="0.1775690">
        <ele>1165.2</ele>
        <time>2013-05-12T16:21:42Z</time>
      </trkpt>
      <trkpt lat="40.7368050" lon="0.1773630">
        <ele>1164.8</ele>
        <time>2013-05-12T16:21:47Z</time>
      </trkpt>
      <trkpt lat="40.7368140" lon="0.1772460">
        <ele>1163.7</ele>
        <time>2013-05-12T16:21:50Z</time>
      </trkpt>
      <trkpt lat="40.7368130" lon="0.1771660">
        <ele>1162.7</ele>
        <time>2013-05-12T16:21:52Z</time>
      </trkpt>
      <trkpt lat="40.7368070" lon="0.1771200">
        <ele>1162.4</ele>
        <time>2013-05-12T16:21:53Z</time>
      </trkpt>
      <trkpt lat="40.7368130" lon="0.1769330">
        <ele>1159.3</ele>
        <time>2013-05-12T16:21:58Z</time>
      </trkpt>
      <trkpt lat="40.7368290" lon="0.1767470">
        <ele>1156.2</ele>
        <time>2013-05-12T16:22:02Z</time>
      </trkpt>
      <trkpt lat="40.7368360" lon="0.1765050">
        <ele>1152.2</ele>
        <time>2013-05-12T16:22:07Z</time>
      </trkpt>
      <trkpt lat="40.7368410" lon="0.1762790">
        <ele>1149.9</ele>
        <time>2013-05-12T16:22:11Z</time>
      </trkpt>
      <trkpt lat="40.7368610" lon="0.1760390">
        <ele>1146.9</ele>
        <time>2013-05-12T16:22:16Z</time>
      </trkpt>
      <trkpt lat="40.7370290" lon="0.1758940">
        <ele>1146.0</ele>
        <time>2013-05-12T16:22:21Z</time>
      </trkpt>
      <trkpt lat="40.7372230" lon="0.1757850">
        <ele>1146.5</ele>
        <time>2013-05-12T16:22:27Z</time>
      </trkpt>
      <trkpt lat="40.7373010" lon="0.1756630">
        <ele>1146.1</ele>
        <time>2013-05-12T16:22:31Z</time>
      </trkpt>
      <trkpt lat="40.7374000" lon="0.1754770">
        <ele>1145.0</ele>
        <time>2013-05-12T16:22:35Z</time>
      </trkpt>
      <trkpt lat="40.7375130" lon="0.1751900">
        <ele>1143.1</ele>
        <time>2013-05-12T16:22:39Z</time>
      </trkpt>
      <trkpt lat="40.7375850" lon="0.1750180">
        <ele>1142.0</ele>
        <time>2013-05-12T16:22:42Z</time>
      </trkpt>
      <trkpt lat="40.7377520" lon="0.1748660">
        <ele>1140.4</ele>
        <time>2013-05-12T16:22:47Z</time>
      </trkpt>
      <trkpt lat="40.7378720" lon="0.1747970">
        <ele>1139.5</ele>
        <time>2013-05-12T16:22:50Z</time>
      </trkpt>
      <trkpt lat="40.7380250" lon="0.1746280">
        <ele>1138.5</ele>
        <time>2013-05-12T16:22:54Z</time>
      </trkpt>
      <trkpt lat="40.7380820" lon="0.1745660">
        <ele>1138.0</ele>
        <time>2013-05-12T16:22:56Z</time>
      </trkpt>
      <trkpt lat="40.7382000" lon="0.1744030">
        <ele>1136.2</ele>
        <time>2013-05-12T16:23:00Z</time>
      </trkpt>
      <trkpt lat="40.7382830" lon="0.1744240">
        <ele>1136.1</ele>
        <time>2013-05-12T16:23:05Z</time>
      </trkpt>
      <trkpt lat="40.7383000" lon="0.1744360">
        <ele>1136.5</ele>
        <time>2013-05-12T16:23:08Z</time>
      </trkpt>
      <trkpt lat="40.7383130" lon="0.1744520">
        <ele>1136.9</ele>
        <time>2013-05-12T16:23:11Z</time>
      </trkpt>
      <trkpt lat="40.7383150" lon="0.1744590">
        <ele>1137.0</ele>
        <time>2013-05-12T16:23:12Z</time>
      </trkpt>
      <trkpt lat="40.7383200" lon="0.1744700">
        <ele>1137.3</ele>
        <time>2013-05-12T16:23:15Z</time>
      </trkpt>
      <trkpt lat="40.7383350" lon="0.1744740">
        <ele>1137.3</ele>
        <time>2013-05-12T16:23:19Z</time>
      </trkpt>
      <trkpt lat="40.7383360" lon="0.1744760">
        <ele>1137.4</ele>
        <time>2013-05-12T16:23:21Z</time>
      </trkpt>
      <trkpt lat="40.7383510" lon="0.1744580">
        <ele>1137.4</ele>
        <time>2013-05-12T16:23:28Z</time>
      </trkpt>
      <trkpt lat="40.7383560" lon="0.1744520">
        <ele>1137.6</ele>
        <time>2013-05-12T16:23:29Z</time>
      </trkpt>
      <trkpt lat="40.7384360" lon="0.1743950">
        <ele>1137.4</ele>
        <time>2013-05-12T16:23:36Z</time>
      </trkpt>
      <trkpt lat="40.7384610" lon="0.1743600">
        <ele>1137.2</ele>
        <time>2013-05-12T16:23:38Z</time>
      </trkpt>
      <trkpt lat="40.7385490" lon="0.1743420">
        <ele>1135.2</ele>
        <time>2013-05-12T16:23:43Z</time>
      </trkpt>
      <trkpt lat="40.7385790" lon="0.1743650">
        <ele>1134.2</ele>
        <time>2013-05-12T16:23:45Z</time>
      </trkpt>
      <trkpt lat="40.7385900" lon="0.1743840">
        <ele>1133.1</ele>
        <time>2013-05-12T16:23:48Z</time>
      </trkpt>
      <trkpt lat="40.7386260" lon="0.1743600">
        <ele>1131.0</ele>
        <time>2013-05-12T16:24:07Z</time>
      </trkpt>
      <trkpt lat="40.7386320" lon="0.1743580">
        <ele>1130.8</ele>
        <time>2013-05-12T16:24:08Z</time>
      </trkpt>
      <trkpt lat="40.7386370" lon="0.1743600">
        <ele>1130.7</ele>
        <time>2013-05-12T16:24:09Z</time>
      </trkpt>
      <trkpt lat="40.7386700" lon="0.1743840">
        <ele>1129.4</ele>
        <time>2013-05-12T16:24:14Z</time>
      </trkpt>
      <trkpt lat="40.7387430" lon="0.1743650">
        <ele>1127.1</ele>
        <time>2013-05-12T16:24:28Z</time>
      </trkpt>
      <trkpt lat="40.7388550" lon="0.1743660">
        <ele>1123.2</ele>
        <time>2013-05-12T16:24:34Z</time>
      </trkpt>
      <trkpt lat="40.7389470" lon="0.1743270">
        <ele>1120.3</ele>
        <time>2013-05-12T16:24:38Z</time>
      </trkpt>
      <trkpt lat="40.7390470" lon="0.1743130">
        <ele>1118.0</ele>
        <time>2013-05-12T16:24:42Z</time>
      </trkpt>
      <trkpt lat="40.7390870" lon="0.1743090">
        <ele>1117.3</ele>
        <time>2013-05-12T16:24:43Z</time>
      </trkpt>
      <trkpt lat="40.7392790" lon="0.1743350">
        <ele>1113.4</ele>
        <time>2013-05-12T16:24:48Z</time>
      </trkpt>
      <trkpt lat="40.7393070" lon="0.1743580">
        <ele>1112.5</ele>
        <time>2013-05-12T16:24:49Z</time>
      </trkpt>
      <trkpt lat="40.7393700" lon="0.1743780">
        <ele>1111.6</ele>
        <time>2013-05-12T16:24:51Z</time>
      </trkpt>
      <trkpt lat="40.7395550" lon="0.1743970">
        <ele>1107.3</ele>
        <time>2013-05-12T16:24:57Z</time>
      </trkpt>
      <trkpt lat="40.7396470" lon="0.1744060">
        <ele>1105.2</ele>
        <time>2013-05-12T16:25:00Z</time>
      </trkpt>
      <trkpt lat="40.7397190" lon="0.1742650">
        <ele>1102.7</ele>
        <time>2013-05-12T16:25:05Z</time>
      </trkpt>
      <trkpt lat="40.7397900" lon="0.1741450">
        <ele>1099.7</ele>
        <time>2013-05-12T16:25:09Z</time>
      </trkpt>
      <trkpt lat="40.7398160" lon="0.1741250">
        <ele>1098.4</ele>
        <time>2013-05-12T16:25:13Z</time>
      </trkpt>
      <trkpt lat="40.7398580" lon="0.1740890">
        <ele>1097.8</ele>
        <time>2013-05-12T16:25:21Z</time>
      </trkpt>
      <trkpt lat="40.7399210" lon="0.1740250">
        <ele>1097.4</ele>
        <time>2013-05-12T16:25:26Z</time>
      </trkpt>
      <trkpt lat="40.7399440" lon="0.1740160">
        <ele>1096.9</ele>
        <time>2013-05-12T16:25:28Z</time>
      </trkpt>
      <trkpt lat="40.7400560" lon="0.1739380">
        <ele>1094.4</ele>
        <time>2013-05-12T16:25:33Z</time>
      </trkpt>
      <trkpt lat="40.7400790" lon="0.1738760">
        <ele>1093.2</ele>
        <time>2013-05-12T16:25:37Z</time>
      </trkpt>
      <trkpt lat="40.7400980" lon="0.1738350">
        <ele>1092.7</ele>
        <time>2013-05-12T16:25:42Z</time>
      </trkpt>
      <trkpt lat="40.7400990" lon="0.1738240">
        <ele>1092.6</ele>
        <time>2013-05-12T16:25:43Z</time>
      </trkpt>
      <trkpt lat="40.7401800" lon="0.1737250">
        <ele>1091.2</ele>
        <time>2013-05-12T16:25:48Z</time>
      </trkpt>
      <trkpt lat="40.7402190" lon="0.1736340">
        <ele>1089.3</ele>
        <time>2013-05-12T16:25:52Z</time>
      </trkpt>
      <trkpt lat="40.7402430" lon="0.1735520">
        <ele>1087.9</ele>
        <time>2013-05-12T16:25:58Z</time>
      </trkpt>
      <trkpt lat="40.7403390" lon="0.1734340">
        <ele>1086.8</ele>
        <time>2013-05-12T16:26:04Z</time>
      </trkpt>
      <trkpt lat="40.7403870" lon="0.1733440">
        <ele>1086.2</ele>
        <time>2013-05-12T16:26:08Z</time>
      </trkpt>
      <trkpt lat="40.7404700" lon="0.1732840">
        <ele>1086.7</ele>
        <time>2013-05-12T16:26:15Z</time>
      </trkpt>
      <trkpt lat="40.7405140" lon="0.1732500">
        <ele>1087.0</ele>
        <time>2013-05-12T16:26:18Z</time>
      </trkpt>
      <trkpt lat="40.7405990" lon="0.1732210">
        <ele>1087.0</ele>
        <time>2013-05-12T16:26:22Z</time>
      </trkpt>
      <trkpt lat="40.7406550" lon="0.1732070">
        <ele>1087.3</ele>
        <time>2013-05-12T16:26:24Z</time>
      </trkpt>
      <trkpt lat="40.7407060" lon="0.1731930">
        <ele>1087.4</ele>
        <time>2013-05-12T16:26:26Z</time>
      </trkpt>
      <trkpt lat="40.7407930" lon="0.1731380">
        <ele>1088.0</ele>
        <time>2013-05-12T16:26:31Z</time>
      </trkpt>
      <trkpt lat="40.7408660" lon="0.1730610">
        <ele>1089.0</ele>
        <time>2013-05-12T16:26:36Z</time>
      </trkpt>
      <trkpt lat="40.7409210" lon="0.1729450">
        <ele>1090.7</ele>
        <time>2013-05-12T16:26:41Z</time>
      </trkpt>
      <trkpt lat="40.7409410" lon="0.1729210">
        <ele>1091.4</ele>
        <time>2013-05-12T16:26:45Z</time>
      </trkpt>
      <trkpt lat="40.7409520" lon="0.1729020">
        <ele>1091.6</ele>
        <time>2013-05-12T16:26:50Z</time>
      </trkpt>
      <trkpt lat="40.7409540" lon="0.1729010">
        <ele>1091.6</ele>
        <time>2013-05-12T16:26:51Z</time>
      </trkpt>
      <trkpt lat="40.7409950" lon="0.1728590">
        <ele>1092.1</ele>
        <time>2013-05-12T16:26:57Z</time>
      </trkpt>
      <trkpt lat="40.7409920" lon="0.1727850">
        <ele>1093.3</ele>
        <time>2013-05-12T16:27:01Z</time>
      </trkpt>
      <trkpt lat="40.7409730" lon="0.1727230">
        <ele>1094.8</ele>
        <time>2013-05-12T16:27:06Z</time>
      </trkpt>
      <trkpt lat="40.7409670" lon="0.1727020">
        <ele>1094.9</ele>
        <time>2013-05-12T16:27:39Z</time>
      </trkpt>
      <trkpt lat="40.7409120" lon="0.1725790">
        <ele>1096.3</ele>
        <time>2013-05-12T16:27:46Z</time>
      </trkpt>
      <trkpt lat="40.7409130" lon="0.1724800">
        <ele>1097.4</ele>
        <time>2013-05-12T16:27:50Z</time>
      </trkpt>
      <trkpt lat="40.7409210" lon="0.1723640">
        <ele>1099.1</ele>
        <time>2013-05-12T16:27:56Z</time>
      </trkpt>
      <trkpt lat="40.7409610" lon="0.1722880">
        <ele>1101.6</ele>
        <time>2013-05-12T16:28:02Z</time>
      </trkpt>
      <trkpt lat="40.7409730" lon="0.1722720">
        <ele>1102.0</ele>
        <time>2013-05-12T16:28:03Z</time>
      </trkpt>
      <trkpt lat="40.7409950" lon="0.1722410">
        <ele>1102.5</ele>
        <time>2013-05-12T16:28:05Z</time>
      </trkpt>
      <trkpt lat="40.7410630" lon="0.1721780">
        <ele>1103.6</ele>
        <time>2013-05-12T16:28:09Z</time>
      </trkpt>
      <trkpt lat="40.7411140" lon="0.1720780">
        <ele>1103.9</ele>
        <time>2013-05-12T16:28:14Z</time>
      </trkpt>
      <trkpt lat="40.7411770" lon="0.1719870">
        <ele>1104.2</ele>
        <time>2013-05-12T16:28:19Z</time>
      </trkpt>
      <trkpt lat="40.7411890" lon="0.1719640">
        <ele>1104.3</ele>
        <time>2013-05-12T16:28:20Z</time>
      </trkpt>
      <trkpt lat="40.7412660" lon="0.1717810">
        <ele>1105.8</ele>
        <time>2013-05-12T16:28:27Z</time>
      </trkpt>
      <trkpt lat="40.7413130" lon="0.1716130">
        <ele>1107.1</ele>
        <time>2013-05-12T16:28:33Z</time>
      </trkpt>
      <trkpt lat="40.7413500" lon="0.1713900">
        <ele>1108.2</ele>
        <time>2013-05-12T16:28:40Z</time>
      </trkpt>
      <trkpt lat="40.7413850" lon="0.1712660">
        <ele>1108.8</ele>
        <time>2013-05-12T16:28:46Z</time>
      </trkpt>
      <trkpt lat="40.7413910" lon="0.1712130">
        <ele>1109.0</ele>
        <time>2013-05-12T16:28:48Z</time>
      </trkpt>
      <trkpt lat="40.7414130" lon="0.1711230">
        <ele>1110.2</ele>
        <time>2013-05-12T16:28:52Z</time>
      </trkpt>
      <trkpt lat="40.7414220" lon="0.1709860">
        <ele>1111.2</ele>
        <time>2013-05-12T16:28:57Z</time>
      </trkpt>
      <trkpt lat="40.7414370" lon="0.1709040">
        <ele>1111.9</ele>
        <time>2013-05-12T16:29:02Z</time>
      </trkpt>
      <trkpt lat="40.7414390" lon="0.1708830">
        <ele>1112.8</ele>
        <time>2013-05-12T16:29:06Z</time>
      </trkpt>
      <trkpt lat="40.7414530" lon="0.1708280">
        <ele>1113.5</ele>
        <time>2013-05-12T16:29:14Z</time>
      </trkpt>
      <trkpt lat="40.7414660" lon="0.1708040">
        <ele>1114.2</ele>
        <time>2013-05-12T16:29:18Z</time>
      </trkpt>
      <trkpt lat="40.7414730" lon="0.1707210">
        <ele>1115.0</ele>
        <time>2013-05-12T16:29:26Z</time>
      </trkpt>
      <trkpt lat="40.7414470" lon="0.1707030">
        <ele>1115.2</ele>
        <time>2013-05-12T16:29:33Z</time>
      </trkpt>
      <trkpt lat="40.7414520" lon="0.1706920">
        <ele>1115.2</ele>
        <time>2013-05-12T16:29:34Z</time>
      </trkpt>
      <trkpt lat="40.7414730" lon="0.1706610">
        <ele>1115.5</ele>
        <time>2013-05-12T16:29:38Z</time>
      </trkpt>
      <trkpt lat="40.7414810" lon="0.1706540">
        <ele>1115.5</ele>
        <time>2013-05-12T16:29:39Z</time>
      </trkpt>
      <trkpt lat="40.7414880" lon="0.1706470">
        <ele>1115.6</ele>
        <time>2013-05-12T16:29:40Z</time>
      </trkpt>
      <trkpt lat="40.7415020" lon="0.1705420">
        <ele>1116.3</ele>
        <time>2013-05-12T16:29:51Z</time>
      </trkpt>
      <trkpt lat="40.7415230" lon="0.1704970">
        <ele>1117.1</ele>
        <time>2013-05-12T16:29:58Z</time>
      </trkpt>
      <trkpt lat="40.7415720" lon="0.1704590">
        <ele>1117.8</ele>
        <time>2013-05-12T16:30:05Z</time>
      </trkpt>
      <trkpt lat="40.7416050" lon="0.1704410">
        <ele>1118.3</ele>
        <time>2013-05-12T16:30:10Z</time>
      </trkpt>
      <trkpt lat="40.7416140" lon="0.1704320">
        <ele>1118.8</ele>
        <time>2013-05-12T16:30:13Z</time>
      </trkpt>
      <trkpt lat="40.7416440" lon="0.1704130">
        <ele>1119.2</ele>
        <time>2013-05-12T16:30:17Z</time>
      </trkpt>
      <trkpt lat="40.7416610" lon="0.1704010">
        <ele>1119.4</ele>
        <time>2013-05-12T16:30:19Z</time>
      </trkpt>
      <trkpt lat="40.7416980" lon="0.1703620">
        <ele>1119.9</ele>
        <time>2013-05-12T16:30:25Z</time>
      </trkpt>
      <trkpt lat="40.7417310" lon="0.1703150">
        <ele>1120.5</ele>
        <time>2013-05-12T16:30:31Z</time>
      </trkpt>
      <trkpt lat="40.7417580" lon="0.1702860">
        <ele>1120.9</ele>
        <time>2013-05-12T16:30:35Z</time>
      </trkpt>
      <trkpt lat="40.7418150" lon="0.1702380">
        <ele>1121.6</ele>
        <time>2013-05-12T16:30:43Z</time>
      </trkpt>
      <trkpt lat="40.7418330" lon="0.1702190">
        <ele>1121.9</ele>
        <time>2013-05-12T16:30:46Z</time>
      </trkpt>
      <trkpt lat="40.7418940" lon="0.1701520">
        <ele>1123.4</ele>
        <time>2013-05-12T16:30:55Z</time>
      </trkpt>
      <trkpt lat="40.7419300" lon="0.1701150">
        <ele>1123.9</ele>
        <time>2013-05-12T16:31:02Z</time>
      </trkpt>
      <trkpt lat="40.7419690" lon="0.1700830">
        <ele>1124.4</ele>
        <time>2013-05-12T16:31:07Z</time>
      </trkpt>
      <trkpt lat="40.7420650" lon="0.1700660">
        <ele>1125.0</ele>
        <time>2013-05-12T16:31:12Z</time>
      </trkpt>
      <trkpt lat="40.7420860" lon="0.1700590">
        <ele>1125.0</ele>
        <time>2013-05-12T16:31:13Z</time>
      </trkpt>
      <trkpt lat="40.7421980" lon="0.1699720">
        <ele>1125.9</ele>
        <time>2013-05-12T16:31:19Z</time>
      </trkpt>
      <trkpt lat="40.7422030" lon="0.1699540">
        <ele>1126.8</ele>
        <time>2013-05-12T16:31:22Z</time>
      </trkpt>
      <trkpt lat="40.7422150" lon="0.1699710">
        <ele>1126.6</ele>
        <time>2013-05-12T16:31:29Z</time>
      </trkpt>
      <trkpt lat="40.7422180" lon="0.1699760">
        <ele>1126.2</ele>
        <time>2013-05-12T16:31:31Z</time>
      </trkpt>
      <trkpt lat="40.7422860" lon="0.1699650">
        <ele>1125.3</ele>
        <time>2013-05-12T16:31:48Z</time>
      </trkpt>
      <trkpt lat="40.7423120" lon="0.1699190">
        <ele>1126.1</ele>
        <time>2013-05-12T16:31:55Z</time>
      </trkpt>
      <trkpt lat="40.7423190" lon="0.1699050">
        <ele>1126.7</ele>
        <time>2013-05-12T16:32:00Z</time>
      </trkpt>
      <trkpt lat="40.7423460" lon="0.1698820">
        <ele>1127.1</ele>
        <time>2013-05-12T16:32:07Z</time>
      </trkpt>
      <trkpt lat="40.7423850" lon="0.1698710">
        <ele>1127.5</ele>
        <time>2013-05-12T16:32:16Z</time>
      </trkpt>
      <trkpt lat="40.7424550" lon="0.1697860">
        <ele>1128.5</ele>
        <time>2013-05-12T16:32:22Z</time>
      </trkpt>
      <trkpt lat="40.7424930" lon="0.1696900">
        <ele>1130.3</ele>
        <time>2013-05-12T16:32:27Z</time>
      </trkpt>
      <trkpt lat="40.7425430" lon="0.1696290">
        <ele>1131.4</ele>
        <time>2013-05-12T16:32:31Z</time>
      </trkpt>
      <trkpt lat="40.7425760" lon="0.1695950">
        <ele>1131.7</ele>
        <time>2013-05-12T16:32:34Z</time>
      </trkpt>
      <trkpt lat="40.7426490" lon="0.1695360">
        <ele>1132.4</ele>
        <time>2013-05-12T16:32:39Z</time>
      </trkpt>
      <trkpt lat="40.7427390" lon="0.1694470">
        <ele>1132.5</ele>
        <time>2013-05-12T16:32:44Z</time>
      </trkpt>
      <trkpt lat="40.7427930" lon="0.1694010">
        <ele>1132.7</ele>
        <time>2013-05-12T16:32:48Z</time>
      </trkpt>
      <trkpt lat="40.7428020" lon="0.1693860">
        <ele>1132.7</ele>
        <time>2013-05-12T16:32:49Z</time>
      </trkpt>
      <trkpt lat="40.7428960" lon="0.1692810">
        <ele>1133.6</ele>
        <time>2013-05-12T16:32:56Z</time>
      </trkpt>
      <trkpt lat="40.7429130" lon="0.1692630">
        <ele>1133.7</ele>
        <time>2013-05-12T16:32:57Z</time>
      </trkpt>
      <trkpt lat="40.7429940" lon="0.1690690">
        <ele>1134.9</ele>
        <time>2013-05-12T16:33:05Z</time>
      </trkpt>
      <trkpt lat="40.7430040" lon="0.1690450">
        <ele>1135.2</ele>
        <time>2013-05-12T16:33:06Z</time>
      </trkpt>
      <trkpt lat="40.7430670" lon="0.1689070">
        <ele>1136.1</ele>
        <time>2013-05-12T16:33:12Z</time>
      </trkpt>
      <trkpt lat="40.7431200" lon="0.1687620">
        <ele>1137.2</ele>
        <time>2013-05-12T16:33:18Z</time>
      </trkpt>
      <trkpt lat="40.7432140" lon="0.1685580">
        <ele>1138.0</ele>
        <time>2013-05-12T16:33:26Z</time>
      </trkpt>
      <trkpt lat="40.7432890" lon="0.1683990">
        <ele>1138.9</ele>
        <time>2013-05-12T16:33:32Z</time>
      </trkpt>
      <trkpt lat="40.7433800" lon="0.1682500">
        <ele>1139.6</ele>
        <time>2013-05-12T16:33:39Z</time>
      </trkpt>
      <trkpt lat="40.7433960" lon="0.1682040">
        <ele>1139.8</ele>
        <time>2013-05-12T16:33:41Z</time>
      </trkpt>
      <trkpt lat="40.7434220" lon="0.1681910">
        <ele>1139.5</ele>
        <time>2013-05-12T16:33:46Z</time>
      </trkpt>
      <trkpt lat="40.7434580" lon="0.1682040">
        <ele>1139.3</ele>
        <time>2013-05-12T16:33:54Z</time>
      </trkpt>
      <trkpt lat="40.7434360" lon="0.1681470">
        <ele>1139.8</ele>
        <time>2013-05-12T16:33:59Z</time>
      </trkpt>
      <trkpt lat="40.7434370" lon="0.1681380">
        <ele>1139.9</ele>
        <time>2013-05-12T16:34:00Z</time>
      </trkpt>
      <trkpt lat="40.7434770" lon="0.1680700">
        <ele>1140.2</ele>
        <time>2013-05-12T16:34:07Z</time>
      </trkpt>
      <trkpt lat="40.7435080" lon="0.1680480">
        <ele>1140.3</ele>
        <time>2013-05-12T16:34:12Z</time>
      </trkpt>
      <trkpt lat="40.7435920" lon="0.1679300">
        <ele>1140.8</ele>
        <time>2013-05-12T16:34:21Z</time>
      </trkpt>
      <trkpt lat="40.7436370" lon="0.1678310">
        <ele>1141.2</ele>
        <time>2013-05-12T16:34:25Z</time>
      </trkpt>
      <trkpt lat="40.7436460" lon="0.1677940">
        <ele>1141.3</ele>
        <time>2013-05-12T16:34:27Z</time>
      </trkpt>
      <trkpt lat="40.7436540" lon="0.1677370">
        <ele>1142.6</ele>
        <time>2013-05-12T16:34:31Z</time>
      </trkpt>
      <trkpt lat="40.7436700" lon="0.1676910">
        <ele>1143.1</ele>
        <time>2013-05-12T16:34:36Z</time>
      </trkpt>
      <trkpt lat="40.7437180" lon="0.1676410">
        <ele>1143.3</ele>
        <time>2013-05-12T16:34:42Z</time>
      </trkpt>
      <trkpt lat="40.7437800" lon="0.1675950">
        <ele>1144.0</ele>
        <time>2013-05-12T16:34:47Z</time>
      </trkpt>
      <trkpt lat="40.7438780" lon="0.1675290">
        <ele>1145.5</ele>
        <time>2013-05-12T16:34:53Z</time>
      </trkpt>
      <trkpt lat="40.7439190" lon="0.1675020">
        <ele>1146.0</ele>
        <time>2013-05-12T16:34:56Z</time>
      </trkpt>
      <trkpt lat="40.7439580" lon="0.1674660">
        <ele>1146.5</ele>
        <time>2013-05-12T16:35:00Z</time>
      </trkpt>
      <trkpt lat="40.7441110" lon="0.1672910">
        <ele>1146.5</ele>
        <time>2013-05-12T16:35:33Z</time>
      </trkpt>
      <trkpt lat="40.7442040" lon="0.1671140">
        <ele>1147.2</ele>
        <time>2013-05-12T16:35:39Z</time>
      </trkpt>
      <trkpt lat="40.7442450" lon="0.1670060">
        <ele>1147.8</ele>
        <time>2013-05-12T16:35:43Z</time>
      </trkpt>
      <trkpt lat="40.7443320" lon="0.1668270">
        <ele>1149.8</ele>
        <time>2013-05-12T16:35:50Z</time>
      </trkpt>
      <trkpt lat="40.7443940" lon="0.1666970">
        <ele>1150.7</ele>
        <time>2013-05-12T16:35:55Z</time>
      </trkpt>
      <trkpt lat="40.7444350" lon="0.1666120">
        <ele>1150.9</ele>
        <time>2013-05-12T16:35:58Z</time>
      </trkpt>
      <trkpt lat="40.7445000" lon="0.1664710">
        <ele>1151.1</ele>
        <time>2013-05-12T16:36:04Z</time>
      </trkpt>
      <trkpt lat="40.7445350" lon="0.1662810">
        <ele>1152.4</ele>
        <time>2013-05-12T16:36:10Z</time>
      </trkpt>
      <trkpt lat="40.7445520" lon="0.1662550">
        <ele>1153.0</ele>
        <time>2013-05-12T16:36:12Z</time>
      </trkpt>
      <trkpt lat="40.7446470" lon="0.1660630">
        <ele>1154.1</ele>
        <time>2013-05-12T16:36:20Z</time>
      </trkpt>
      <trkpt lat="40.7446810" lon="0.1659480">
        <ele>1155.3</ele>
        <time>2013-05-12T16:36:25Z</time>
      </trkpt>
      <trkpt lat="40.7447580" lon="0.1658120">
        <ele>1156.0</ele>
        <time>2013-05-12T16:36:30Z</time>
      </trkpt>
      <trkpt lat="40.7448080" lon="0.1657190">
        <ele>1156.5</ele>
        <time>2013-05-12T16:36:33Z</time>
      </trkpt>
      <trkpt lat="40.7449060" lon="0.1656200">
        <ele>1156.5</ele>
        <time>2013-05-12T16:36:38Z</time>
      </trkpt>
      <trkpt lat="40.7449630" lon="0.1655350">
        <ele>1157.1</ele>
        <time>2013-05-12T16:36:42Z</time>
      </trkpt>
      <trkpt lat="40.7449850" lon="0.1654900">
        <ele>1157.3</ele>
        <time>2013-05-12T16:36:44Z</time>
      </trkpt>
      <trkpt lat="40.7450400" lon="0.1653700">
        <ele>1158.2</ele>
        <time>2013-05-12T16:36:49Z</time>
      </trkpt>
      <trkpt lat="40.7451390" lon="0.1652030">
        <ele>1159.9</ele>
        <time>2013-05-12T16:36:56Z</time>
      </trkpt>
      <trkpt lat="40.7451630" lon="0.1651300">
        <ele>1161.3</ele>
        <time>2013-05-12T16:37:00Z</time>
      </trkpt>
      <trkpt lat="40.7452570" lon="0.1650690">
        <ele>1162.5</ele>
        <time>2013-05-12T16:37:06Z</time>
      </trkpt>
      <trkpt lat="40.7453660" lon="0.1650060">
        <ele>1162.3</ele>
        <time>2013-05-12T16:37:10Z</time>
      </trkpt>
      <trkpt lat="40.7455240" lon="0.1649130">
        <ele>1162.0</ele>
        <time>2013-05-12T16:37:15Z</time>
      </trkpt>
      <trkpt lat="40.7456640" lon="0.1648490">
        <ele>1161.9</ele>
        <time>2013-05-12T16:37:20Z</time>
      </trkpt>
      <trkpt lat="40.7458100" lon="0.1646800">
        <ele>1161.1</ele>
        <time>2013-05-12T16:37:25Z</time>
      </trkpt>
      <trkpt lat="40.7459010" lon="0.1645950">
        <ele>1160.5</ele>
        <time>2013-05-12T16:37:28Z</time>
      </trkpt>
      <trkpt lat="40.7459150" lon="0.1645730">
        <ele>1160.2</ele>
        <time>2013-05-12T16:37:29Z</time>
      </trkpt>
      <trkpt lat="40.7459370" lon="0.1645610">
        <ele>1159.9</ele>
        <time>2013-05-12T16:37:31Z</time>
      </trkpt>
      <trkpt lat="40.7459620" lon="0.1645400">
        <ele>1159.5</ele>
        <time>2013-05-12T16:37:33Z</time>
      </trkpt>
      <trkpt lat="40.7459760" lon="0.1645320">
        <ele>1159.3</ele>
        <time>2013-05-12T16:37:34Z</time>
      </trkpt>
      <trkpt lat="40.7460040" lon="0.1645150">
        <ele>1158.9</ele>
        <time>2013-05-12T16:37:36Z</time>
      </trkpt>
      <trkpt lat="40.7461100" lon="0.1644670">
        <ele>1158.0</ele>
        <time>2013-05-12T16:37:40Z</time>
      </trkpt>
      <trkpt lat="40.7462410" lon="0.1643810">
        <ele>1156.8</ele>
        <time>2013-05-12T16:37:44Z</time>
      </trkpt>
      <trkpt lat="40.7463780" lon="0.1642200">
        <ele>1156.3</ele>
        <time>2013-05-12T16:37:50Z</time>
      </trkpt>
      <trkpt lat="40.7463920" lon="0.1642050">
        <ele>1156.3</ele>
        <time>2013-05-12T16:37:51Z</time>
      </trkpt>
      <trkpt lat="40.7465100" lon="0.1641040">
        <ele>1157.0</ele>
        <time>2013-05-12T16:37:57Z</time>
      </trkpt>
      <trkpt lat="40.7466250" lon="0.1640630">
        <ele>1156.7</ele>
        <time>2013-05-12T16:38:02Z</time>
      </trkpt>
      <trkpt lat="40.7467080" lon="0.1640180">
        <ele>1156.2</ele>
        <time>2013-05-12T16:38:06Z</time>
      </trkpt>
      <trkpt lat="40.7468050" lon="0.1639610">
        <ele>1156.0</ele>
        <time>2013-05-12T16:38:11Z</time>
      </trkpt>
      <trkpt lat="40.7469070" lon="0.1638640">
        <ele>1156.1</ele>
        <time>2013-05-12T16:38:15Z</time>
      </trkpt>
      <trkpt lat="40.7470020" lon="0.1637920">
        <ele>1156.8</ele>
        <time>2013-05-12T16:38:20Z</time>
      </trkpt>
      <trkpt lat="40.7470090" lon="0.1637860">
        <ele>1157.0</ele>
        <time>2013-05-12T16:38:21Z</time>
      </trkpt>
      <trkpt lat="40.7470970" lon="0.1637330">
        <ele>1157.4</ele>
        <time>2013-05-12T16:38:27Z</time>
      </trkpt>
      <trkpt lat="40.7472130" lon="0.1637050">
        <ele>1157.4</ele>
        <time>2013-05-12T16:38:32Z</time>
      </trkpt>
      <trkpt lat="40.7472840" lon="0.1636630">
        <ele>1157.8</ele>
        <time>2013-05-12T16:38:35Z</time>
      </trkpt>
      <trkpt lat="40.7474240" lon="0.1635980">
        <ele>1159.0</ele>
        <time>2013-05-12T16:38:41Z</time>
      </trkpt>
      <trkpt lat="40.7475340" lon="0.1635490">
        <ele>1160.1</ele>
        <time>2013-05-12T16:38:47Z</time>
      </trkpt>
      <trkpt lat="40.7475570" lon="0.1635410">
        <ele>1160.4</ele>
        <time>2013-05-12T16:38:48Z</time>
      </trkpt>
      <trkpt lat="40.7476590" lon="0.1634740">
        <ele>1162.1</ele>
        <time>2013-05-12T16:38:55Z</time>
      </trkpt>
      <trkpt lat="40.7476640" lon="0.1634720">
        <ele>1162.3</ele>
        <time>2013-05-12T16:38:56Z</time>
      </trkpt>
      <trkpt lat="40.7477390" lon="0.1634030">
        <ele>1163.3</ele>
        <time>2013-05-12T16:39:11Z</time>
      </trkpt>
      <trkpt lat="40.7477610" lon="0.1633760">
        <ele>1163.4</ele>
        <time>2013-05-12T16:39:15Z</time>
      </trkpt>
      <trkpt lat="40.7478250" lon="0.1632770">
        <ele>1164.5</ele>
        <time>2013-05-12T16:39:30Z</time>
      </trkpt>
      <trkpt lat="40.7478510" lon="0.1632510">
        <ele>1164.7</ele>
        <time>2013-05-12T16:39:32Z</time>
      </trkpt>
      <trkpt lat="40.7479110" lon="0.1631260">
        <ele>1165.4</ele>
        <time>2013-05-12T16:39:38Z</time>
      </trkpt>
      <trkpt lat="40.7479510" lon="0.1630320">
        <ele>1166.5</ele>
        <time>2013-05-12T16:39:43Z</time>
      </trkpt>
      <trkpt lat="40.7479980" lon="0.1629370">
        <ele>1167.3</ele>
        <time>2013-05-12T16:39:48Z</time>
      </trkpt>
      <trkpt lat="40.7480120" lon="0.1628810">
        <ele>1167.6</ele>
        <time>2013-05-12T16:39:50Z</time>
      </trkpt>
      <trkpt lat="40.7480740" lon="0.1627990">
        <ele>1168.5</ele>
        <time>2013-05-12T16:39:54Z</time>
      </trkpt>
      <trkpt lat="40.7481870" lon="0.1626800">
        <ele>1168.9</ele>
        <time>2013-05-12T16:39:59Z</time>
      </trkpt>
      <trkpt lat="40.7482510" lon="0.1625920">
        <ele>1169.9</ele>
        <time>2013-05-12T16:40:04Z</time>
      </trkpt>
      <trkpt lat="40.7482750" lon="0.1626050">
        <ele>1170.3</ele>
        <time>2013-05-12T16:40:08Z</time>
      </trkpt>
      <trkpt lat="40.7482760" lon="0.1626040">
        <ele>1170.3</ele>
        <time>2013-05-12T16:40:09Z</time>
      </trkpt>
      <trkpt lat="40.7482470" lon="0.1625430">
        <ele>1171.2</ele>
        <time>2013-05-12T16:41:11Z</time>
      </trkpt>
      <trkpt lat="40.7483250" lon="0.1624790">
        <ele>1171.9</ele>
        <time>2013-05-12T16:41:16Z</time>
      </trkpt>
      <trkpt lat="40.7483920" lon="0.1624050">
        <ele>1172.4</ele>
        <time>2013-05-12T16:41:20Z</time>
      </trkpt>
      <trkpt lat="40.7484980" lon="0.1622590">
        <ele>1173.4</ele>
        <time>2013-05-12T16:41:26Z</time>
      </trkpt>
      <trkpt lat="40.7485380" lon="0.1621790">
        <ele>1174.3</ele>
        <time>2013-05-12T16:41:30Z</time>
      </trkpt>
      <trkpt lat="40.7485960" lon="0.1621070">
        <ele>1175.0</ele>
        <time>2013-05-12T16:41:35Z</time>
      </trkpt>
      <trkpt lat="40.7486070" lon="0.1620870">
        <ele>1175.1</ele>
        <time>2013-05-12T16:41:36Z</time>
      </trkpt>
      <trkpt lat="40.7486560" lon="0.1619650">
        <ele>1175.5</ele>
        <time>2013-05-12T16:41:41Z</time>
      </trkpt>
      <trkpt lat="40.7487130" lon="0.1618390">
        <ele>1176.7</ele>
        <time>2013-05-12T16:41:47Z</time>
      </trkpt>
      <trkpt lat="40.7487390" lon="0.1618060">
        <ele>1177.1</ele>
        <time>2013-05-12T16:41:49Z</time>
      </trkpt>
      <trkpt lat="40.7488080" lon="0.1616730">
        <ele>1178.6</ele>
        <time>2013-05-12T16:41:56Z</time>
      </trkpt>
      <trkpt lat="40.7488520" lon="0.1615610">
        <ele>1178.9</ele>
        <time>2013-05-12T16:42:01Z</time>
      </trkpt>
      <trkpt lat="40.7488690" lon="0.1615280">
        <ele>1178.9</ele>
        <time>2013-05-12T16:42:03Z</time>
      </trkpt>
      <trkpt lat="40.7489450" lon="0.1614010">
        <ele>1178.7</ele>
        <time>2013-05-12T16:42:09Z</time>
      </trkpt>
      <trkpt lat="40.7489730" lon="0.1613430">
        <ele>1178.3</ele>
        <time>2013-05-12T16:42:13Z</time>
      </trkpt>
      <trkpt lat="40.7490160" lon="0.1613110">
        <ele>1178.2</ele>
        <time>2013-05-12T16:42:18Z</time>
      </trkpt>
      <trkpt lat="40.7490330" lon="0.1612850">
        <ele>1178.4</ele>
        <time>2013-05-12T16:42:20Z</time>
      </trkpt>
      <trkpt lat="40.7491630" lon="0.1611370">
        <ele>1178.5</ele>
        <time>2013-05-12T16:42:26Z</time>
      </trkpt>
      <trkpt lat="40.7492380" lon="0.1611000">
        <ele>1178.2</ele>
        <time>2013-05-12T16:42:31Z</time>
      </trkpt>
      <trkpt lat="40.7492570" lon="0.1610920">
        <ele>1178.2</ele>
        <time>2013-05-12T16:42:33Z</time>
      </trkpt>
      <trkpt lat="40.7493410" lon="0.1610370">
        <ele>1177.7</ele>
        <time>2013-05-12T16:42:38Z</time>
      </trkpt>
      <trkpt lat="40.7493730" lon="0.1610000">
        <ele>1178.1</ele>
        <time>2013-05-12T16:42:40Z</time>
      </trkpt>
      <trkpt lat="40.7495000" lon="0.1608580">
        <ele>1179.4</ele>
        <time>2013-05-12T16:42:48Z</time>
      </trkpt>
      <trkpt lat="40.7496190" lon="0.1607240">
        <ele>1179.8</ele>
        <time>2013-05-12T16:42:54Z</time>
      </trkpt>
      <trkpt lat="40.7496510" lon="0.1606690">
        <ele>1180.4</ele>
        <time>2013-05-12T16:42:58Z</time>
      </trkpt>
      <trkpt lat="40.7496600" lon="0.1606330">
        <ele>1180.6</ele>
        <time>2013-05-12T16:43:16Z</time>
      </trkpt>
      <trkpt lat="40.7496950" lon="0.1605850">
        <ele>1180.9</ele>
        <time>2013-05-12T16:43:20Z</time>
      </trkpt>
      <trkpt lat="40.7497100" lon="0.1605520">
        <ele>1181.1</ele>
        <time>2013-05-12T16:43:22Z</time>
      </trkpt>
      <trkpt lat="40.7497470" lon="0.1604950">
        <ele>1181.4</ele>
        <time>2013-05-12T16:43:28Z</time>
      </trkpt>
      <trkpt lat="40.7498070" lon="0.1603890">
        <ele>1181.1</ele>
        <time>2013-05-12T16:43:35Z</time>
      </trkpt>
      <trkpt lat="40.7498190" lon="0.1603670">
        <ele>1181.1</ele>
        <time>2013-05-12T16:43:36Z</time>
      </trkpt>
      <trkpt lat="40.7499150" lon="0.1602780">
        <ele>1180.3</ele>
        <time>2013-05-12T16:43:41Z</time>
      </trkpt>
      <trkpt lat="40.7499300" lon="0.1602660">
        <ele>1180.1</ele>
        <time>2013-05-12T16:43:42Z</time>
      </trkpt>
      <trkpt lat="40.7500700" lon="0.1601030">
        <ele>1179.3</ele>
        <time>2013-05-12T16:43:47Z</time>
      </trkpt>
      <trkpt lat="40.7501550" lon="0.1599580">
        <ele>1179.6</ele>
        <time>2013-05-12T16:43:51Z</time>
      </trkpt>
      <trkpt lat="40.7502480" lon="0.1598100">
        <ele>1179.5</ele>
        <time>2013-05-12T16:43:56Z</time>
      </trkpt>
      <trkpt lat="40.7502630" lon="0.1597750">
        <ele>1179.5</ele>
        <time>2013-05-12T16:43:57Z</time>
      </trkpt>
      <trkpt lat="40.7503120" lon="0.1596400">
        <ele>1179.8</ele>
        <time>2013-05-12T16:44:02Z</time>
      </trkpt>
      <trkpt lat="40.7503810" lon="0.1595090">
        <ele>1179.3</ele>
        <time>2013-05-12T16:44:07Z</time>
      </trkpt>
      <trkpt lat="40.7504300" lon="0.1592790">
        <ele>1179.6</ele>
        <time>2013-05-12T16:44:14Z</time>
      </trkpt>
      <trkpt lat="40.7504440" lon="0.1591730">
        <ele>1179.5</ele>
        <time>2013-05-12T16:44:18Z</time>
      </trkpt>
      <trkpt lat="40.7504330" lon="0.1591050">
        <ele>1179.5</ele>
        <time>2013-05-12T16:44:21Z</time>
      </trkpt>
      <trkpt lat="40.7504800" lon="0.1588980">
        <ele>1179.6</ele>
        <time>2013-05-12T16:44:30Z</time>
      </trkpt>
      <trkpt lat="40.7505250" lon="0.1587680">
        <ele>1180.1</ele>
        <time>2013-05-12T16:44:35Z</time>
      </trkpt>
      <trkpt lat="40.7505820" lon="0.1586130">
        <ele>1180.9</ele>
        <time>2013-05-12T16:44:40Z</time>
      </trkpt>
      <trkpt lat="40.7506070" lon="0.1585000">
        <ele>1181.2</ele>
        <time>2013-05-12T16:44:44Z</time>
      </trkpt>
      <trkpt lat="40.7506180" lon="0.1583350">
        <ele>1181.7</ele>
        <time>2013-05-12T16:44:50Z</time>
      </trkpt>
      <trkpt lat="40.7506380" lon="0.1582040">
        <ele>1182.4</ele>
        <time>2013-05-12T16:44:59Z</time>
      </trkpt>
      <trkpt lat="40.7507330" lon="0.1581000">
        <ele>1183.1</ele>
        <time>2013-05-12T16:45:04Z</time>
      </trkpt>
      <trkpt lat="40.7508130" lon="0.1579330">
        <ele>1184.0</ele>
        <time>2013-05-12T16:45:10Z</time>
      </trkpt>
      <trkpt lat="40.7508590" lon="0.1577240">
        <ele>1182.9</ele>
        <time>2013-05-12T16:45:15Z</time>
      </trkpt>
      <trkpt lat="40.7509180" lon="0.1574910">
        <ele>1182.3</ele>
        <time>2013-05-12T16:45:20Z</time>
      </trkpt>
      <trkpt lat="40.7510800" lon="0.1573260">
        <ele>1182.0</ele>
        <time>2013-05-12T16:45:27Z</time>
      </trkpt>
      <trkpt lat="40.7512050" lon="0.1572410">
        <ele>1181.3</ele>
        <time>2013-05-12T16:45:33Z</time>
      </trkpt>
      <trkpt lat="40.7513550" lon="0.1571670">
        <ele>1180.3</ele>
        <time>2013-05-12T16:45:37Z</time>
      </trkpt>
      <trkpt lat="40.7514430" lon="0.1571130">
        <ele>1179.2</ele>
        <time>2013-05-12T16:45:39Z</time>
      </trkpt>
      <trkpt lat="40.7516460" lon="0.1570530">
        <ele>1176.3</ele>
        <time>2013-05-12T16:45:44Z</time>
      </trkpt>
      <trkpt lat="40.7516610" lon="0.1570480">
        <ele>1175.9</ele>
        <time>2013-05-12T16:45:45Z</time>
      </trkpt>
      <trkpt lat="40.7517490" lon="0.1570270">
        <ele>1175.2</ele>
        <time>2013-05-12T16:45:50Z</time>
      </trkpt>
      <trkpt lat="40.7518540" lon="0.1570280">
        <ele>1174.6</ele>
        <time>2013-05-12T16:45:54Z</time>
      </trkpt>
      <trkpt lat="40.7519820" lon="0.1570540">
        <ele>1173.4</ele>
        <time>2013-05-12T16:45:59Z</time>
      </trkpt>
      <trkpt lat="40.7520880" lon="0.1570530">
        <ele>1171.6</ele>
        <time>2013-05-12T16:46:04Z</time>
      </trkpt>
      <trkpt lat="40.7521860" lon="0.1570740">
        <ele>1170.9</ele>
        <time>2013-05-12T16:46:08Z</time>
      </trkpt>
      <trkpt lat="40.7522980" lon="0.1571370">
        <ele>1170.1</ele>
        <time>2013-05-12T16:46:14Z</time>
      </trkpt>
      <trkpt lat="40.7523850" lon="0.1571720">
        <ele>1169.2</ele>
        <time>2013-05-12T16:46:19Z</time>
      </trkpt>
      <trkpt lat="40.7524930" lon="0.1571860">
        <ele>1168.3</ele>
        <time>2013-05-12T16:46:28Z</time>
      </trkpt>
      <trkpt lat="40.7525710" lon="0.1571970">
        <ele>1167.5</ele>
        <time>2013-05-12T16:46:32Z</time>
      </trkpt>
      <trkpt lat="40.7525900" lon="0.1571980">
        <ele>1167.4</ele>
        <time>2013-05-12T16:46:33Z</time>
      </trkpt>
      <trkpt lat="40.7526270" lon="0.1572140">
        <ele>1166.7</ele>
        <time>2013-05-12T16:46:36Z</time>
      </trkpt>
      <trkpt lat="40.7526950" lon="0.1572310">
        <ele>1166.1</ele>
        <time>2013-05-12T16:46:40Z</time>
      </trkpt>
      <trkpt lat="40.7527210" lon="0.1572290">
        <ele>1165.7</ele>
        <time>2013-05-12T16:46:42Z</time>
      </trkpt>
      <trkpt lat="40.7527790" lon="0.1572500">
        <ele>1165.0</ele>
        <time>2013-05-12T16:46:47Z</time>
      </trkpt>
      <trkpt lat="40.7528720" lon="0.1571890">
        <ele>1163.7</ele>
        <time>2013-05-12T16:46:52Z</time>
      </trkpt>
      <trkpt lat="40.7529240" lon="0.1571650">
        <ele>1163.2</ele>
        <time>2013-05-12T16:46:54Z</time>
      </trkpt>
      <trkpt lat="40.7531250" lon="0.1570980">
        <ele>1160.2</ele>
        <time>2013-05-12T16:47:01Z</time>
      </trkpt>
      <trkpt lat="40.7532290" lon="0.1570750">
        <ele>1159.4</ele>
        <time>2013-05-12T16:47:04Z</time>
      </trkpt>
      <trkpt lat="40.7534420" lon="0.1570720">
        <ele>1158.0</ele>
        <time>2013-05-12T16:47:09Z</time>
      </trkpt>
      <trkpt lat="40.7535190" lon="0.1570390">
        <ele>1157.7</ele>
        <time>2013-05-12T16:47:11Z</time>
      </trkpt>
      <trkpt lat="40.7536190" lon="0.1569730">
        <ele>1156.2</ele>
        <time>2013-05-12T16:47:14Z</time>
      </trkpt>
      <trkpt lat="40.7536990" lon="0.1569490">
        <ele>1155.3</ele>
        <time>2013-05-12T16:47:16Z</time>
      </trkpt>
      <trkpt lat="40.7539040" lon="0.1568820">
        <ele>1152.2</ele>
        <time>2013-05-12T16:47:21Z</time>
      </trkpt>
      <trkpt lat="40.7540450" lon="0.1568590">
        <ele>1149.8</ele>
        <time>2013-05-12T16:47:25Z</time>
      </trkpt>
      <trkpt lat="40.7543350" lon="0.1567640">
        <ele>1146.6</ele>
        <time>2013-05-12T16:47:30Z</time>
      </trkpt>
      <trkpt lat="40.7546020" lon="0.1566780">
        <ele>1143.2</ele>
        <time>2013-05-12T16:47:35Z</time>
      </trkpt>
      <trkpt lat="40.7547820" lon="0.1565880">
        <ele>1140.6</ele>
        <time>2013-05-12T16:47:40Z</time>
      </trkpt>
      <trkpt lat="40.7549590" lon="0.1565450">
        <ele>1138.8</ele>
        <time>2013-05-12T16:47:46Z</time>
      </trkpt>
      <trkpt lat="40.7550400" lon="0.1565780">
        <ele>1138.5</ele>
        <time>2013-05-12T16:47:50Z</time>
      </trkpt>
      <trkpt lat="40.7551860" lon="0.1564940">
        <ele>1137.2</ele>
        <time>2013-05-12T16:47:57Z</time>
      </trkpt>
      <trkpt lat="40.7551940" lon="0.1564910">
        <ele>1136.2</ele>
        <time>2013-05-12T16:47:59Z</time>
      </trkpt>
      <trkpt lat="40.7552610" lon="0.1564780">
        <ele>1135.5</ele>
        <time>2013-05-12T16:48:09Z</time>
      </trkpt>
      <trkpt lat="40.7553590" lon="0.1564540">
        <ele>1135.0</ele>
        <time>2013-05-12T16:48:12Z</time>
      </trkpt>
      <trkpt lat="40.7555860" lon="0.1564130">
        <ele>1135.9</ele>
        <time>2013-05-12T16:48:20Z</time>
      </trkpt>
      <trkpt lat="40.7556860" lon="0.1563970">
        <ele>1137.0</ele>
        <time>2013-05-12T16:48:24Z</time>
      </trkpt>
      <trkpt lat="40.7557330" lon="0.1563840">
        <ele>1137.6</ele>
        <time>2013-05-12T16:48:26Z</time>
      </trkpt>
      <trkpt lat="40.7558610" lon="0.1563710">
        <ele>1138.9</ele>
        <time>2013-05-12T16:48:32Z</time>
      </trkpt>
      <trkpt lat="40.7559570" lon="0.1563460">
        <ele>1139.4</ele>
        <time>2013-05-12T16:48:37Z</time>
      </trkpt>
      <trkpt lat="40.7560840" lon="0.1563610">
        <ele>1141.2</ele>
        <time>2013-05-12T16:48:44Z</time>
      </trkpt>
      <trkpt lat="40.7561670" lon="0.1563490">
        <ele>1142.1</ele>
        <time>2013-05-12T16:48:49Z</time>
      </trkpt>
      <trkpt lat="40.7562360" lon="0.1563170">
        <ele>1142.3</ele>
        <time>2013-05-12T16:48:56Z</time>
      </trkpt>
      <trkpt lat="40.7562830" lon="0.1563700">
        <ele>1142.3</ele>
        <time>2013-05-12T16:49:03Z</time>
      </trkpt>
      <trkpt lat="40.7563190" lon="0.1564170">
        <ele>1142.4</ele>
        <time>2013-05-12T16:49:38Z</time>
      </trkpt>
      <trkpt lat="40.7563800" lon="0.1565210">
        <ele>1142.8</ele>
        <time>2013-05-12T16:49:43Z</time>
      </trkpt>
      <trkpt lat="40.7564090" lon="0.1565870">
        <ele>1143.9</ele>
        <time>2013-05-12T16:49:46Z</time>
      </trkpt>
      <trkpt lat="40.7564190" lon="0.1566560">
        <ele>1144.8</ele>
        <time>2013-05-12T16:49:49Z</time>
      </trkpt>
      <trkpt lat="40.7564240" lon="0.1566920">
        <ele>1145.5</ele>
        <time>2013-05-12T16:49:51Z</time>
      </trkpt>
      <trkpt lat="40.7564510" lon="0.1567320">
        <ele>1146.2</ele>
        <time>2013-05-12T16:49:56Z</time>
      </trkpt>
      <trkpt lat="40.7564370" lon="0.1567180">
        <ele>1146.4</ele>
        <time>2013-05-12T16:50:02Z</time>
      </trkpt>
      <trkpt lat="40.7563700" lon="0.1566060">
        <ele>1145.9</ele>
        <time>2013-05-12T16:50:07Z</time>
      </trkpt>
      <trkpt lat="40.7563190" lon="0.1564640">
        <ele>1143.8</ele>
        <time>2013-05-12T16:50:12Z</time>
      </trkpt>
      <trkpt lat="40.7562470" lon="0.1563570">
        <ele>1142.6</ele>
        <time>2013-05-12T16:50:17Z</time>
      </trkpt>
      <trkpt lat="40.7561960" lon="0.1563070">
        <ele>1142.7</ele>
        <time>2013-05-12T16:50:21Z</time>
      </trkpt>
      <trkpt lat="40.7561840" lon="0.1563020">
        <ele>1142.7</ele>
        <time>2013-05-12T16:50:22Z</time>
      </trkpt>
      <trkpt lat="40.7561550" lon="0.1563040">
        <ele>1142.5</ele>
        <time>2013-05-12T16:50:24Z</time>
      </trkpt>
      <trkpt lat="40.7560340" lon="0.1563690">
        <ele>1141.9</ele>
        <time>2013-05-12T16:50:30Z</time>
      </trkpt>
      <trkpt lat="40.7559870" lon="0.1562350">
        <ele>1140.3</ele>
        <time>2013-05-12T16:50:34Z</time>
      </trkpt>
      <trkpt lat="40.7560330" lon="0.1561420">
        <ele>1139.0</ele>
        <time>2013-05-12T16:50:38Z</time>
      </trkpt>
      <trkpt lat="40.7560530" lon="0.1561070">
        <ele>1138.7</ele>
        <time>2013-05-12T16:50:40Z</time>
      </trkpt>
      <trkpt lat="40.7561400" lon="0.1560520">
        <ele>1136.4</ele>
        <time>2013-05-12T16:50:48Z</time>
      </trkpt>
      <trkpt lat="40.7561720" lon="0.1560530">
        <ele>1135.7</ele>
        <time>2013-05-12T16:50:50Z</time>
      </trkpt>
      <trkpt lat="40.7562280" lon="0.1560730">
        <ele>1134.1</ele>
        <time>2013-05-12T16:50:53Z</time>
      </trkpt>
      <trkpt lat="40.7562770" lon="0.1560610">
        <ele>1132.7</ele>
        <time>2013-05-12T16:50:56Z</time>
      </trkpt>
      <trkpt lat="40.7563120" lon="0.1560470">
        <ele>1131.0</ele>
        <time>2013-05-12T16:51:00Z</time>
      </trkpt>
      <trkpt lat="40.7563450" lon="0.1560400">
        <ele>1130.2</ele>
        <time>2013-05-12T16:51:08Z</time>
      </trkpt>
      <trkpt lat="40.7564250" lon="0.1560510">
        <ele>1128.7</ele>
        <time>2013-05-12T16:51:14Z</time>
      </trkpt>
      <trkpt lat="40.7564680" lon="0.1560640">
        <ele>1128.6</ele>
        <time>2013-05-12T16:51:17Z</time>
      </trkpt>
      <trkpt lat="40.7564800" lon="0.1560620">
        <ele>1128.6</ele>
        <time>2013-05-12T16:51:18Z</time>
      </trkpt>
      <trkpt lat="40.7564910" lon="0.1560620">
        <ele>1128.6</ele>
        <time>2013-05-12T16:51:20Z</time>
      </trkpt>
      <trkpt lat="40.7565320" lon="0.1560730">
        <ele>1128.4</ele>
        <time>2013-05-12T16:51:24Z</time>
      </trkpt>
      <trkpt lat="40.7565430" lon="0.1560750">
        <ele>1128.4</ele>
        <time>2013-05-12T16:51:25Z</time>
      </trkpt>
      <trkpt lat="40.7565760" lon="0.1560620">
        <ele>1127.5</ele>
        <time>2013-05-12T16:51:30Z</time>
      </trkpt>
      <trkpt lat="40.7565890" lon="0.1560620">
        <ele>1127.1</ele>
        <time>2013-05-12T16:52:07Z</time>
      </trkpt>
      <trkpt lat="40.7565950" lon="0.1560670">
        <ele>1127.1</ele>
        <time>2013-05-12T16:52:08Z</time>
      </trkpt>
      <trkpt lat="40.7566120" lon="0.1560760">
        <ele>1126.9</ele>
        <time>2013-05-12T16:52:12Z</time>
      </trkpt>
      <trkpt lat="40.7566460" lon="0.1560910">
        <ele>1125.4</ele>
        <time>2013-05-12T16:52:19Z</time>
      </trkpt>
      <trkpt lat="40.7566710" lon="0.1560980">
        <ele>1124.4</ele>
        <time>2013-05-12T16:52:24Z</time>
      </trkpt>
      <trkpt lat="40.7566710" lon="0.1560990">
        <ele>1124.2</ele>
        <time>2013-05-12T16:52:25Z</time>
      </trkpt>
      <trkpt lat="40.7566930" lon="0.1561080">
        <ele>1123.9</ele>
        <time>2013-05-12T16:52:37Z</time>
      </trkpt>
      <trkpt lat="40.7567020" lon="0.1561130">
        <ele>1123.6</ele>
        <time>2013-05-12T16:52:38Z</time>
      </trkpt>
      <trkpt lat="40.7567430" lon="0.1561300">
        <ele>1122.1</ele>
        <time>2013-05-12T16:52:44Z</time>
      </trkpt>
      <trkpt lat="40.7567730" lon="0.1561460">
        <ele>1121.6</ele>
        <time>2013-05-12T16:52:47Z</time>
      </trkpt>
      <trkpt lat="40.7568650" lon="0.1561700">
        <ele>1119.9</ele>
        <time>2013-05-12T16:52:53Z</time>
      </trkpt>
      <trkpt lat="40.7568950" lon="0.1562390">
        <ele>1119.1</ele>
        <time>2013-05-12T16:52:56Z</time>
      </trkpt>
      <trkpt lat="40.7570030" lon="0.1563560">
        <ele>1116.6</ele>
        <time>2013-05-12T16:53:02Z</time>
      </trkpt>
      <trkpt lat="40.7570720" lon="0.1563780">
        <ele>1114.7</ele>
        <time>2013-05-12T16:53:07Z</time>
      </trkpt>
      <trkpt lat="40.7570910" lon="0.1563780">
        <ele>1113.9</ele>
        <time>2013-05-12T16:53:10Z</time>
      </trkpt>
      <trkpt lat="40.7571720" lon="0.1564170">
        <ele>1111.7</ele>
        <time>2013-05-12T16:53:15Z</time>
      </trkpt>
      <trkpt lat="40.7572950" lon="0.1565010">
        <ele>1108.7</ele>
        <time>2013-05-12T16:53:21Z</time>
      </trkpt>
      <trkpt lat="40.7574020" lon="0.1565870">
        <ele>1105.7</ele>
        <time>2013-05-12T16:53:27Z</time>
      </trkpt>
      <trkpt lat="40.7575000" lon="0.1567310">
        <ele>1103.3</ele>
        <time>2013-05-12T16:53:32Z</time>
      </trkpt>
      <trkpt lat="40.7577220" lon="0.1568030">
        <ele>1099.9</ele>
        <time>2013-05-12T16:53:37Z</time>
      </trkpt>
      <trkpt lat="40.7577520" lon="0.1568000">
        <ele>1099.3</ele>
        <time>2013-05-12T16:53:38Z</time>
      </trkpt>
      <trkpt lat="40.7578490" lon="0.1567860">
        <ele>1097.5</ele>
        <time>2013-05-12T16:53:43Z</time>
      </trkpt>
      <trkpt lat="40.7578590" lon="0.1567860">
        <ele>1097.1</ele>
        <time>2013-05-12T16:53:45Z</time>
      </trkpt>
      <trkpt lat="40.7579330" lon="0.1567970">
        <ele>1096.7</ele>
        <time>2013-05-12T16:53:53Z</time>
      </trkpt>
      <trkpt lat="40.7581460" lon="0.1566790">
        <ele>1096.1</ele>
        <time>2013-05-12T16:54:00Z</time>
      </trkpt>
      <trkpt lat="40.7582460" lon="0.1565560">
        <ele>1095.5</ele>
        <time>2013-05-12T16:54:03Z</time>
      </trkpt>
      <trkpt lat="40.7582740" lon="0.1565090">
        <ele>1095.3</ele>
        <time>2013-05-12T16:54:04Z</time>
      </trkpt>
      <trkpt lat="40.7584160" lon="0.1563420">
        <ele>1093.7</ele>
        <time>2013-05-12T16:54:09Z</time>
      </trkpt>
      <trkpt lat="40.7584730" lon="0.1563180">
        <ele>1091.9</ele>
        <time>2013-05-12T16:54:13Z</time>
      </trkpt>
      <trkpt lat="40.7584740" lon="0.1563200">
        <ele>1091.5</ele>
        <time>2013-05-12T16:54:14Z</time>
      </trkpt>
      <trkpt lat="40.7585730" lon="0.1562800">
        <ele>1090.7</ele>
        <time>2013-05-12T16:54:24Z</time>
      </trkpt>
      <trkpt lat="40.7587910" lon="0.1562150">
        <ele>1088.4</ele>
        <time>2013-05-12T16:54:29Z</time>
      </trkpt>
      <trkpt lat="40.7591000" lon="0.1561020">
        <ele>1087.0</ele>
        <time>2013-05-12T16:54:35Z</time>
      </trkpt>
      <trkpt lat="40.7593050" lon="0.1561330">
        <ele>1085.6</ele>
        <time>2013-05-12T16:54:39Z</time>
      </trkpt>
      <trkpt lat="40.7595160" lon="0.1562430">
        <ele>1085.4</ele>
        <time>2013-05-12T16:54:43Z</time>
      </trkpt>
      <trkpt lat="40.7596400" lon="0.1563360">
        <ele>1085.3</ele>
        <time>2013-05-12T16:54:46Z</time>
      </trkpt>
      <trkpt lat="40.7598250" lon="0.1563520">
        <ele>1085.2</ele>
        <time>2013-05-12T16:54:50Z</time>
      </trkpt>
      <trkpt lat="40.7599300" lon="0.1563360">
        <ele>1085.0</ele>
        <time>2013-05-12T16:54:52Z</time>
      </trkpt>
      <trkpt lat="40.7601680" lon="0.1564120">
        <ele>1083.3</ele>
        <time>2013-05-12T16:54:56Z</time>
      </trkpt>
      <trkpt lat="40.7605300" lon="0.1564650">
        <ele>1079.4</ele>
        <time>2013-05-12T16:55:01Z</time>
      </trkpt>
      <trkpt lat="40.7606760" lon="0.1564780">
        <ele>1078.3</ele>
        <time>2013-05-12T16:55:03Z</time>
      </trkpt>
      <trkpt lat="40.7608060" lon="0.1565060">
        <ele>1078.1</ele>
        <time>2013-05-12T16:55:05Z</time>
      </trkpt>
      <trkpt lat="40.7612010" lon="0.1565600">
        <ele>1076.0</ele>
        <time>2013-05-12T16:55:11Z</time>
      </trkpt>
      <trkpt lat="40.7612760" lon="0.1565610">
        <ele>1075.6</ele>
        <time>2013-05-12T16:55:12Z</time>
      </trkpt>
      <trkpt lat="40.7616230" lon="0.1564840">
        <ele>1073.5</ele>
        <time>2013-05-12T16:55:17Z</time>
      </trkpt>
      <trkpt lat="40.7616780" lon="0.1564540">
        <ele>1072.9</ele>
        <time>2013-05-12T16:55:18Z</time>
      </trkpt>
      <trkpt lat="40.7620010" lon="0.1562210">
        <ele>1067.0</ele>
        <time>2013-05-12T16:55:24Z</time>
      </trkpt>
      <trkpt lat="40.7622640" lon="0.1560080">
        <ele>1062.8</ele>
        <time>2013-05-12T16:55:29Z</time>
      </trkpt>
      <trkpt lat="40.7624890" lon="0.1558010">
        <ele>1057.1</ele>
        <time>2013-05-12T16:55:34Z</time>
      </trkpt>
      <trkpt lat="40.7626610" lon="0.1556520">
        <ele>1052.1</ele>
        <time>2013-05-12T16:55:39Z</time>
      </trkpt>
      <trkpt lat="40.7627020" lon="0.1556210">
        <ele>1050.0</ele>
        <time>2013-05-12T16:55:42Z</time>
      </trkpt>
      <trkpt lat="40.7627490" lon="0.1556400">
        <ele>1049.1</ele>
        <time>2013-05-12T16:55:46Z</time>
      </trkpt>
      <trkpt lat="40.7627740" lon="0.1557670">
        <ele>1049.2</ele>
        <time>2013-05-12T16:55:52Z</time>
      </trkpt>
      <trkpt lat="40.7627840" lon="0.1557810">
        <ele>1049.0</ele>
        <time>2013-05-12T16:55:55Z</time>
      </trkpt>
      <trkpt lat="40.7628440" lon="0.1558060">
        <ele>1048.4</ele>
        <time>2013-05-12T16:56:15Z</time>
      </trkpt>
      <trkpt lat="40.7628760" lon="0.1558210">
        <ele>1048.2</ele>
        <time>2013-05-12T16:56:16Z</time>
      </trkpt>
      <trkpt lat="40.7630500" lon="0.1559240">
        <ele>1045.6</ele>
        <time>2013-05-12T16:56:22Z</time>
      </trkpt>
      <trkpt lat="40.7632700" lon="0.1560330">
        <ele>1042.1</ele>
        <time>2013-05-12T16:56:28Z</time>
      </trkpt>
      <trkpt lat="40.7635610" lon="0.1561360">
        <ele>1036.8</ele>
        <time>2013-05-12T16:56:34Z</time>
      </trkpt>
      <trkpt lat="40.7637900" lon="0.1563350">
        <ele>1031.5</ele>
        <time>2013-05-12T16:56:40Z</time>
      </trkpt>
      <trkpt lat="40.7638520" lon="0.1563670">
        <ele>1029.1</ele>
        <time>2013-05-12T16:56:43Z</time>
      </trkpt>
      <trkpt lat="40.7638810" lon="0.1563550">
        <ele>1028.3</ele>
        <time>2013-05-12T16:56:45Z</time>
      </trkpt>
      <trkpt lat="40.7639700" lon="0.1562790">
        <ele>1026.9</ele>
        <time>2013-05-12T16:56:49Z</time>
      </trkpt>
      <trkpt lat="40.7641270" lon="0.1561810">
        <ele>1024.4</ele>
        <time>2013-05-12T16:56:54Z</time>
      </trkpt>
      <trkpt lat="40.7642140" lon="0.1561730">
        <ele>1023.5</ele>
        <time>2013-05-12T16:56:58Z</time>
      </trkpt>
      <trkpt lat="40.7643010" lon="0.1561640">
        <ele>1022.6</ele>
        <time>2013-05-12T16:57:02Z</time>
      </trkpt>
      <trkpt lat="40.7644390" lon="0.1561200">
        <ele>1020.7</ele>
        <time>2013-05-12T16:57:07Z</time>
      </trkpt>
      <trkpt lat="40.7645470" lon="0.1560720">
        <ele>1018.5</ele>
        <time>2013-05-12T16:57:11Z</time>
      </trkpt>
      <trkpt lat="40.7647200" lon="0.1560070">
        <ele>1016.7</ele>
        <time>2013-05-12T16:57:17Z</time>
      </trkpt>
      <trkpt lat="40.7647810" lon="0.1559600">
        <ele>1015.9</ele>
        <time>2013-05-12T16:57:19Z</time>
      </trkpt>
      <trkpt lat="40.7650060" lon="0.1558520">
        <ele>1015.4</ele>
        <time>2013-05-12T16:57:26Z</time>
      </trkpt>
      <trkpt lat="40.7650990" lon="0.1557340">
        <ele>1016.2</ele>
        <time>2013-05-12T16:57:31Z</time>
      </trkpt>
      <trkpt lat="40.7651560" lon="0.1556620">
        <ele>1017.0</ele>
        <time>2013-05-12T16:57:34Z</time>
      </trkpt>
      <trkpt lat="40.7652180" lon="0.1555800">
        <ele>1018.1</ele>
        <time>2013-05-12T16:57:37Z</time>
      </trkpt>
      <trkpt lat="40.7652640" lon="0.1555050">
        <ele>1018.4</ele>
        <time>2013-05-12T16:57:40Z</time>
      </trkpt>
      <trkpt lat="40.7652820" lon="0.1554840">
        <ele>1018.3</ele>
        <time>2013-05-12T16:57:42Z</time>
      </trkpt>
      <trkpt lat="40.7653740" lon="0.1553800">
        <ele>1017.3</ele>
        <time>2013-05-12T16:57:46Z</time>
      </trkpt>
      <trkpt lat="40.7654610" lon="0.1551910">
        <ele>1017.0</ele>
        <time>2013-05-12T16:57:51Z</time>
      </trkpt>
      <trkpt lat="40.7655660" lon="0.1550840">
        <ele>1018.2</ele>
        <time>2013-05-12T16:57:56Z</time>
      </trkpt>
      <trkpt lat="40.7657100" lon="0.1549300">
        <ele>1018.5</ele>
        <time>2013-05-12T16:58:02Z</time>
      </trkpt>
      <trkpt lat="40.7658530" lon="0.1548090">
        <ele>1019.0</ele>
        <time>2013-05-12T16:58:08Z</time>
      </trkpt>
      <trkpt lat="40.7658640" lon="0.1548010">
        <ele>1019.4</ele>
        <time>2013-05-12T16:58:10Z</time>
      </trkpt>
      <trkpt lat="40.7659050" lon="0.1547540">
        <ele>1018.4</ele>
        <time>2013-05-12T16:58:19Z</time>
      </trkpt>
      <trkpt lat="40.7660090" lon="0.1546600">
        <ele>1017.0</ele>
        <time>2013-05-12T16:58:23Z</time>
      </trkpt>
      <trkpt lat="40.7661710" lon="0.1544300">
        <ele>1015.4</ele>
        <time>2013-05-12T16:58:29Z</time>
      </trkpt>
      <trkpt lat="40.7662670" lon="0.1542900">
        <ele>1015.7</ele>
        <time>2013-05-12T16:58:34Z</time>
      </trkpt>
      <trkpt lat="40.7663810" lon="0.1541410">
        <ele>1015.7</ele>
        <time>2013-05-12T16:58:39Z</time>
      </trkpt>
      <trkpt lat="40.7664530" lon="0.1540460">
        <ele>1015.6</ele>
        <time>2013-05-12T16:58:42Z</time>
      </trkpt>
      <trkpt lat="40.7664580" lon="0.1537730">
        <ele>1015.6</ele>
        <time>2013-05-12T16:58:48Z</time>
      </trkpt>
      <trkpt lat="40.7664500" lon="0.1537460">
        <ele>1015.8</ele>
        <time>2013-05-12T16:58:49Z</time>
      </trkpt>
      <trkpt lat="40.7664720" lon="0.1536870">
        <ele>1015.7</ele>
        <time>2013-05-12T16:58:54Z</time>
      </trkpt>
      <trkpt lat="40.7665000" lon="0.1536090">
        <ele>1015.5</ele>
        <time>2013-05-12T16:58:58Z</time>
      </trkpt>
      <trkpt lat="40.7665730" lon="0.1535660">
        <ele>1015.1</ele>
        <time>2013-05-12T16:59:03Z</time>
      </trkpt>
      <trkpt lat="40.7666410" lon="0.1536120">
        <ele>1015.0</ele>
        <time>2013-05-12T16:59:08Z</time>
      </trkpt>
      <trkpt lat="40.7666580" lon="0.1536720">
        <ele>1014.6</ele>
        <time>2013-05-12T16:59:13Z</time>
      </trkpt>
      <trkpt lat="40.7667320" lon="0.1536820">
        <ele>1013.6</ele>
        <time>2013-05-12T16:59:18Z</time>
      </trkpt>
      <trkpt lat="40.7668620" lon="0.1536150">
        <ele>1010.3</ele>
        <time>2013-05-12T16:59:24Z</time>
      </trkpt>
      <trkpt lat="40.7668920" lon="0.1535950">
        <ele>1009.6</ele>
        <time>2013-05-12T16:59:26Z</time>
      </trkpt>
      <trkpt lat="40.7670320" lon="0.1535740">
        <ele>1008.4</ele>
        <time>2013-05-12T16:59:32Z</time>
      </trkpt>
      <trkpt lat="40.7672090" lon="0.1535500">
        <ele>1008.4</ele>
        <time>2013-05-12T16:59:38Z</time>
      </trkpt>
      <trkpt lat="40.7673180" lon="0.1534560">
        <ele>1008.4</ele>
        <time>2013-05-12T16:59:42Z</time>
      </trkpt>
      <trkpt lat="40.7674310" lon="0.1532340">
        <ele>1009.3</ele>
        <time>2013-05-12T16:59:49Z</time>
      </trkpt>
      <trkpt lat="40.7674980" lon="0.1530010">
        <ele>1009.3</ele>
        <time>2013-05-12T16:59:55Z</time>
      </trkpt>
      <trkpt lat="40.7675170" lon="0.1527390">
        <ele>1008.4</ele>
        <time>2013-05-12T17:00:00Z</time>
      </trkpt>
      <trkpt lat="40.7675590" lon="0.1525560">
        <ele>1008.2</ele>
        <time>2013-05-12T17:00:05Z</time>
      </trkpt>
      <trkpt lat="40.7675820" lon="0.1523820">
        <ele>1007.4</ele>
        <time>2013-05-12T17:00:08Z</time>
      </trkpt>
      <trkpt lat="40.7675760" lon="0.1520420">
        <ele>1007.0</ele>
        <time>2013-05-12T17:00:14Z</time>
      </trkpt>
      <trkpt lat="40.7675210" lon="0.1518350">
        <ele>1006.2</ele>
        <time>2013-05-12T17:00:19Z</time>
      </trkpt>
      <trkpt lat="40.7675300" lon="0.1518020">
        <ele>1006.1</ele>
        <time>2013-05-12T17:00:22Z</time>
      </trkpt>
      <trkpt lat="40.7675360" lon="0.1517870">
        <ele>1006.2</ele>
        <time>2013-05-12T17:00:25Z</time>
      </trkpt>
      <trkpt lat="40.7675430" lon="0.1517160">
        <ele>1006.0</ele>
        <time>2013-05-12T17:00:29Z</time>
      </trkpt>
      <trkpt lat="40.7675820" lon="0.1516250">
        <ele>1005.2</ele>
        <time>2013-05-12T17:00:33Z</time>
      </trkpt>
      <trkpt lat="40.7677290" lon="0.1515510">
        <ele>1004.2</ele>
        <time>2013-05-12T17:00:38Z</time>
      </trkpt>
      <trkpt lat="40.7678590" lon="0.1514950">
        <ele>1004.3</ele>
        <time>2013-05-12T17:00:42Z</time>
      </trkpt>
      <trkpt lat="40.7678820" lon="0.1515040">
        <ele>1004.4</ele>
        <time>2013-05-12T17:00:43Z</time>
      </trkpt>
      <trkpt lat="40.7679970" lon="0.1515770">
        <ele>1004.0</ele>
        <time>2013-05-12T17:00:48Z</time>
      </trkpt>
      <trkpt lat="40.7681220" lon="0.1515370">
        <ele>1001.3</ele>
        <time>2013-05-12T17:00:54Z</time>
      </trkpt>
      <trkpt lat="40.7681270" lon="0.1515360">
        <ele>1001.1</ele>
        <time>2013-05-12T17:00:56Z</time>
      </trkpt>
      <trkpt lat="40.7682490" lon="0.1515360">
        <ele>999.1</ele>
        <time>2013-05-12T17:01:06Z</time>
      </trkpt>
      <trkpt lat="40.7684620" lon="0.1515450">
        <ele>996.4</ele>
        <time>2013-05-12T17:01:12Z</time>
      </trkpt>
      <trkpt lat="40.7685550" lon="0.1515760">
        <ele>994.0</ele>
        <time>2013-05-12T17:01:16Z</time>
      </trkpt>
      <trkpt lat="40.7686390" lon="0.1515980">
        <ele>991.8</ele>
        <time>2013-05-12T17:01:20Z</time>
      </trkpt>
      <trkpt lat="40.7686580" lon="0.1516050">
        <ele>991.5</ele>
        <time>2013-05-12T17:01:21Z</time>
      </trkpt>
      <trkpt lat="40.7687890" lon="0.1516860">
        <ele>988.8</ele>
        <time>2013-05-12T17:01:26Z</time>
      </trkpt>
      <trkpt lat="40.7689720" lon="0.1516370">
        <ele>986.8</ele>
        <time>2013-05-12T17:01:30Z</time>
      </trkpt>
      <trkpt lat="40.7691570" lon="0.1515090">
        <ele>986.4</ele>
        <time>2013-05-12T17:01:34Z</time>
      </trkpt>
      <trkpt lat="40.7692070" lon="0.1515040">
        <ele>986.6</ele>
        <time>2013-05-12T17:01:35Z</time>
      </trkpt>
      <trkpt lat="40.7693660" lon="0.1515670">
        <ele>987.7</ele>
        <time>2013-05-12T17:01:39Z</time>
      </trkpt>
      <trkpt lat="40.7694460" lon="0.1516090">
        <ele>987.9</ele>
        <time>2013-05-12T17:01:41Z</time>
      </trkpt>
      <trkpt lat="40.7695740" lon="0.1517350">
        <ele>986.7</ele>
        <time>2013-05-12T17:01:44Z</time>
      </trkpt>
      <trkpt lat="40.7696240" lon="0.1517910">
        <ele>985.8</ele>
        <time>2013-05-12T17:01:45Z</time>
      </trkpt>
      <trkpt lat="40.7698150" lon="0.1519180">
        <ele>982.3</ele>
        <time>2013-05-12T17:01:49Z</time>
      </trkpt>
      <trkpt lat="40.7699040" lon="0.1519510">
        <ele>981.0</ele>
        <time>2013-05-12T17:01:52Z</time>
      </trkpt>
      <trkpt lat="40.7700150" lon="0.1519500">
        <ele>979.1</ele>
        <time>2013-05-12T17:01:56Z</time>
      </trkpt>
      <trkpt lat="40.7701970" lon="0.1518440">
        <ele>978.2</ele>
        <time>2013-05-12T17:02:02Z</time>
      </trkpt>
      <trkpt lat="40.7703030" lon="0.1518060">
        <ele>976.2</ele>
        <time>2013-05-12T17:02:07Z</time>
      </trkpt>
      <trkpt lat="40.7703810" lon="0.1517870">
        <ele>973.6</ele>
        <time>2013-05-12T17:02:12Z</time>
      </trkpt>
      <trkpt lat="40.7703920" lon="0.1517850">
        <ele>973.4</ele>
        <time>2013-05-12T17:02:13Z</time>
      </trkpt>
      <trkpt lat="40.7704680" lon="0.1517680">
        <ele>971.1</ele>
        <time>2013-05-12T17:02:18Z</time>
      </trkpt>
      <trkpt lat="40.7705580" lon="0.1517260">
        <ele>968.4</ele>
        <time>2013-05-12T17:02:23Z</time>
      </trkpt>
      <trkpt lat="40.7706510" lon="0.1517070">
        <ele>965.9</ele>
        <time>2013-05-12T17:02:28Z</time>
      </trkpt>
      <trkpt lat="40.7707580" lon="0.1516770">
        <ele>964.3</ele>
        <time>2013-05-12T17:02:32Z</time>
      </trkpt>
      <trkpt lat="40.7709190" lon="0.1515730">
        <ele>962.5</ele>
        <time>2013-05-12T17:02:37Z</time>
      </trkpt>
      <trkpt lat="40.7710120" lon="0.1515350">
        <ele>961.5</ele>
        <time>2013-05-12T17:02:41Z</time>
      </trkpt>
      <trkpt lat="40.7710240" lon="0.1515320">
        <ele>960.9</ele>
        <time>2013-05-12T17:02:44Z</time>
      </trkpt>
      <trkpt lat="40.7710660" lon="0.1514530">
        <ele>960.5</ele>
        <time>2013-05-12T17:03:08Z</time>
      </trkpt>
      <trkpt lat="40.7711260" lon="0.1513460">
        <ele>961.2</ele>
        <time>2013-05-12T17:03:12Z</time>
      </trkpt>
      <trkpt lat="40.7711350" lon="0.1512140">
        <ele>960.7</ele>
        <time>2013-05-12T17:03:15Z</time>
      </trkpt>
      <trkpt lat="40.7711440" lon="0.1510400">
        <ele>958.9</ele>
        <time>2013-05-12T17:03:20Z</time>
      </trkpt>
      <trkpt lat="40.7711880" lon="0.1508990">
        <ele>959.3</ele>
        <time>2013-05-12T17:03:25Z</time>
      </trkpt>
      <trkpt lat="40.7712340" lon="0.1508260">
        <ele>959.2</ele>
        <time>2013-05-12T17:03:27Z</time>
      </trkpt>
      <trkpt lat="40.7712960" lon="0.1507770">
        <ele>958.7</ele>
        <time>2013-05-12T17:03:30Z</time>
      </trkpt>
      <trkpt lat="40.7713210" lon="0.1507080">
        <ele>958.3</ele>
        <time>2013-05-12T17:03:33Z</time>
      </trkpt>
      <trkpt lat="40.7713650" lon="0.1505170">
        <ele>958.3</ele>
        <time>2013-05-12T17:03:39Z</time>
      </trkpt>
      <trkpt lat="40.7714050" lon="0.1503470">
        <ele>957.6</ele>
        <time>2013-05-12T17:03:43Z</time>
      </trkpt>
      <trkpt lat="40.7714120" lon="0.1501120">
        <ele>957.4</ele>
        <time>2013-05-12T17:03:48Z</time>
      </trkpt>
      <trkpt lat="40.7714070" lon="0.1500650">
        <ele>957.4</ele>
        <time>2013-05-12T17:03:49Z</time>
      </trkpt>
      <trkpt lat="40.7714450" lon="0.1498660">
        <ele>957.2</ele>
        <time>2013-05-12T17:03:54Z</time>
      </trkpt>
      <trkpt lat="40.7714480" lon="0.1496300">
        <ele>957.6</ele>
        <time>2013-05-12T17:04:00Z</time>
      </trkpt>
      <trkpt lat="40.7714470" lon="0.1494910">
        <ele>958.6</ele>
        <time>2013-05-12T17:04:05Z</time>
      </trkpt>
      <trkpt lat="40.7714850" lon="0.1493300">
        <ele>959.3</ele>
        <time>2013-05-12T17:04:10Z</time>
      </trkpt>
      <trkpt lat="40.7715080" lon="0.1492460">
        <ele>959.7</ele>
        <time>2013-05-12T17:04:13Z</time>
      </trkpt>
      <trkpt lat="40.7715750" lon="0.1491070">
        <ele>959.8</ele>
        <time>2013-05-12T17:04:17Z</time>
      </trkpt>
      <trkpt lat="40.7716950" lon="0.1488400">
        <ele>960.2</ele>
        <time>2013-05-12T17:04:24Z</time>
      </trkpt>
      <trkpt lat="40.7718090" lon="0.1487270">
        <ele>959.5</ele>
        <time>2013-05-12T17:04:29Z</time>
      </trkpt>
      <trkpt lat="40.7719130" lon="0.1486470">
        <ele>957.7</ele>
        <time>2013-05-12T17:04:34Z</time>
      </trkpt>
      <trkpt lat="40.7720540" lon="0.1485580">
        <ele>956.1</ele>
        <time>2013-05-12T17:04:39Z</time>
      </trkpt>
      <trkpt lat="40.7721870" lon="0.1485310">
        <ele>954.3</ele>
        <time>2013-05-12T17:04:43Z</time>
      </trkpt>
      <trkpt lat="40.7722440" lon="0.1484640">
        <ele>953.9</ele>
        <time>2013-05-12T17:04:47Z</time>
      </trkpt>
      <trkpt lat="40.7722610" lon="0.1484270">
        <ele>953.8</ele>
        <time>2013-05-12T17:04:51Z</time>
      </trkpt>
      <trkpt lat="40.7722790" lon="0.1483690">
        <ele>954.1</ele>
        <time>2013-05-12T17:05:11Z</time>
      </trkpt>
      <trkpt lat="40.7722830" lon="0.1483460">
        <ele>954.1</ele>
        <time>2013-05-12T17:05:12Z</time>
      </trkpt>
      <trkpt lat="40.7723430" lon="0.1481740">
        <ele>954.6</ele>
        <time>2013-05-12T17:05:19Z</time>
      </trkpt>
      <trkpt lat="40.7724090" lon="0.1479890">
        <ele>954.2</ele>
        <time>2013-05-12T17:05:24Z</time>
      </trkpt>
      <trkpt lat="40.7723810" lon="0.1478520">
        <ele>954.0</ele>
        <time>2013-05-12T17:05:28Z</time>
      </trkpt>
      <trkpt lat="40.7723620" lon="0.1477990">
        <ele>954.3</ele>
        <time>2013-05-12T17:05:32Z</time>
      </trkpt>
      <trkpt lat="40.7723720" lon="0.1478190">
        <ele>954.1</ele>
        <time>2013-05-12T17:05:36Z</time>
      </trkpt>
      <trkpt lat="40.7724110" lon="0.1479360">
        <ele>953.4</ele>
        <time>2013-05-12T17:05:42Z</time>
      </trkpt>
      <trkpt lat="40.7724180" lon="0.1479430">
        <ele>953.0</ele>
        <time>2013-05-12T17:05:44Z</time>
      </trkpt>
      <trkpt lat="40.7724460" lon="0.1479440">
        <ele>951.6</ele>
        <time>2013-05-12T17:05:50Z</time>
      </trkpt>
      <trkpt lat="40.7724810" lon="0.1479350">
        <ele>951.1</ele>
        <time>2013-05-12T17:05:53Z</time>
      </trkpt>
      <trkpt lat="40.7726240" lon="0.1479210">
        <ele>946.9</ele>
        <time>2013-05-12T17:05:59Z</time>
      </trkpt>
      <trkpt lat="40.7726880" lon="0.1478990">
        <ele>944.8</ele>
        <time>2013-05-12T17:06:01Z</time>
      </trkpt>
      <trkpt lat="40.7727730" lon="0.1478230">
        <ele>941.9</ele>
        <time>2013-05-12T17:06:05Z</time>
      </trkpt>
      <trkpt lat="40.7727870" lon="0.1478100">
        <ele>941.2</ele>
        <time>2013-05-12T17:06:06Z</time>
      </trkpt>
      <trkpt lat="40.7727910" lon="0.1477880">
        <ele>940.2</ele>
        <time>2013-05-12T17:06:08Z</time>
      </trkpt>
      <trkpt lat="40.7727810" lon="0.1476950">
        <ele>939.1</ele>
        <time>2013-05-12T17:06:11Z</time>
      </trkpt>
      <trkpt lat="40.7727720" lon="0.1475740">
        <ele>937.5</ele>
        <time>2013-05-12T17:06:15Z</time>
      </trkpt>
      <trkpt lat="40.7727630" lon="0.1475450">
        <ele>936.4</ele>
        <time>2013-05-12T17:06:20Z</time>
      </trkpt>
      <trkpt lat="40.7727640" lon="0.1475060">
        <ele>936.0</ele>
        <time>2013-05-12T17:06:22Z</time>
      </trkpt>
      <trkpt lat="40.7728310" lon="0.1473780">
        <ele>934.5</ele>
        <time>2013-05-12T17:06:26Z</time>
      </trkpt>
      <trkpt lat="40.7729280" lon="0.1472630">
        <ele>930.7</ele>
        <time>2013-05-12T17:06:31Z</time>
      </trkpt>
      <trkpt lat="40.7729840" lon="0.1471330">
        <ele>927.6</ele>
        <time>2013-05-12T17:06:36Z</time>
      </trkpt>
      <trkpt lat="40.7730420" lon="0.1469100">
        <ele>924.2</ele>
        <time>2013-05-12T17:06:42Z</time>
      </trkpt>
      <trkpt lat="40.7731100" lon="0.1467830">
        <ele>921.5</ele>
        <time>2013-05-12T17:06:47Z</time>
      </trkpt>
      <trkpt lat="40.7731300" lon="0.1467220">
        <ele>920.7</ele>
        <time>2013-05-12T17:06:49Z</time>
      </trkpt>
      <trkpt lat="40.7731780" lon="0.1465850">
        <ele>917.9</ele>
        <time>2013-05-12T17:06:54Z</time>
      </trkpt>
      <trkpt lat="40.7732540" lon="0.1464020">
        <ele>915.7</ele>
        <time>2013-05-12T17:06:58Z</time>
      </trkpt>
      <trkpt lat="40.7733120" lon="0.1463180">
        <ele>914.9</ele>
        <time>2013-05-12T17:07:00Z</time>
      </trkpt>
      <trkpt lat="40.7734130" lon="0.1462760">
        <ele>913.4</ele>
        <time>2013-05-12T17:07:03Z</time>
      </trkpt>
      <trkpt lat="40.7734410" lon="0.1462730">
        <ele>912.7</ele>
        <time>2013-05-12T17:07:04Z</time>
      </trkpt>
      <trkpt lat="40.7735750" lon="0.1461770">
        <ele>909.4</ele>
        <time>2013-05-12T17:07:10Z</time>
      </trkpt>
      <trkpt lat="40.7737280" lon="0.1461260">
        <ele>906.8</ele>
        <time>2013-05-12T17:07:15Z</time>
      </trkpt>
      <trkpt lat="40.7737870" lon="0.1460560">
        <ele>904.4</ele>
        <time>2013-05-12T17:07:19Z</time>
      </trkpt>
      <trkpt lat="40.7738580" lon="0.1460000">
        <ele>902.5</ele>
        <time>2013-05-12T17:07:23Z</time>
      </trkpt>
      <trkpt lat="40.7739200" lon="0.1459440">
        <ele>901.2</ele>
        <time>2013-05-12T17:07:26Z</time>
      </trkpt>
      <trkpt lat="40.7740470" lon="0.1458950">
        <ele>898.4</ele>
        <time>2013-05-12T17:07:31Z</time>
      </trkpt>
      <trkpt lat="40.7741820" lon="0.1458330">
        <ele>894.7</ele>
        <time>2013-05-12T17:07:36Z</time>
      </trkpt>
      <trkpt lat="40.7743130" lon="0.1458040">
        <ele>891.6</ele>
        <time>2013-05-12T17:07:41Z</time>
      </trkpt>
      <trkpt lat="40.7744500" lon="0.1457740">
        <ele>889.2</ele>
        <time>2013-05-12T17:07:46Z</time>
      </trkpt>
      <trkpt lat="40.7745960" lon="0.1458360">
        <ele>888.5</ele>
        <time>2013-05-12T17:07:52Z</time>
      </trkpt>
      <trkpt lat="40.7747380" lon="0.1458540">
        <ele>887.0</ele>
        <time>2013-05-12T17:07:57Z</time>
      </trkpt>
      <trkpt lat="40.7748670" lon="0.1457860">
        <ele>885.0</ele>
        <time>2013-05-12T17:08:01Z</time>
      </trkpt>
      <trkpt lat="40.7749840" lon="0.1457550">
        <ele>884.0</ele>
        <time>2013-05-12T17:08:04Z</time>
      </trkpt>
      <trkpt lat="40.7752020" lon="0.1457010">
        <ele>884.4</ele>
        <time>2013-05-12T17:08:10Z</time>
      </trkpt>
      <trkpt lat="40.7753020" lon="0.1457350">
        <ele>885.3</ele>
        <time>2013-05-12T17:08:14Z</time>
      </trkpt>
      <trkpt lat="40.7753670" lon="0.1457590">
        <ele>886.2</ele>
        <time>2013-05-12T17:08:17Z</time>
      </trkpt>
      <trkpt lat="40.7754770" lon="0.1457690">
        <ele>886.9</ele>
        <time>2013-05-12T17:08:21Z</time>
      </trkpt>
      <trkpt lat="40.7755680" lon="0.1458510">
        <ele>886.7</ele>
        <time>2013-05-12T17:08:25Z</time>
      </trkpt>
      <trkpt lat="40.7756190" lon="0.1459100">
        <ele>886.2</ele>
        <time>2013-05-12T17:08:28Z</time>
      </trkpt>
      <trkpt lat="40.7756470" lon="0.1459740">
        <ele>884.6</ele>
        <time>2013-05-12T17:08:33Z</time>
      </trkpt>
      <trkpt lat="40.7756590" lon="0.1460240">
        <ele>884.8</ele>
        <time>2013-05-12T17:08:49Z</time>
      </trkpt>
      <trkpt lat="40.7756650" lon="0.1460290">
        <ele>884.9</ele>
        <time>2013-05-12T17:08:50Z</time>
      </trkpt>
      <trkpt lat="40.7756740" lon="0.1460310">
        <ele>884.9</ele>
        <time>2013-05-12T17:08:51Z</time>
      </trkpt>
      <trkpt lat="40.7757080" lon="0.1460290">
        <ele>883.6</ele>
        <time>2013-05-12T17:08:56Z</time>
      </trkpt>
      <trkpt lat="40.7758770" lon="0.1461520">
        <ele>882.3</ele>
        <time>2013-05-12T17:09:07Z</time>
      </trkpt>
      <trkpt lat="40.7759470" lon="0.1461890">
        <ele>881.3</ele>
        <time>2013-05-12T17:09:09Z</time>
      </trkpt>
      <trkpt lat="40.7759770" lon="0.1462000">
        <ele>881.0</ele>
        <time>2013-05-12T17:09:10Z</time>
      </trkpt>
      <trkpt lat="40.7760360" lon="0.1461180">
        <ele>878.7</ele>
        <time>2013-05-12T17:09:15Z</time>
      </trkpt>
      <trkpt lat="40.7760420" lon="0.1460310">
        <ele>877.1</ele>
        <time>2013-05-12T17:09:18Z</time>
      </trkpt>
      <trkpt lat="40.7760480" lon="0.1459570">
        <ele>875.8</ele>
        <time>2013-05-12T17:09:21Z</time>
      </trkpt>
      <trkpt lat="40.7760620" lon="0.1458380">
        <ele>872.9</ele>
        <time>2013-05-12T17:09:25Z</time>
      </trkpt>
      <trkpt lat="40.7760740" lon="0.1458050">
        <ele>870.7</ele>
        <time>2013-05-12T17:09:29Z</time>
      </trkpt>
      <trkpt lat="40.7760580" lon="0.1457550">
        <ele>870.2</ele>
        <time>2013-05-12T17:10:00Z</time>
      </trkpt>
      <trkpt lat="40.7760400" lon="0.1456140">
        <ele>868.8</ele>
        <time>2013-05-12T17:10:06Z</time>
      </trkpt>
      <trkpt lat="40.7760410" lon="0.1454620">
        <ele>866.2</ele>
        <time>2013-05-12T17:10:12Z</time>
      </trkpt>
      <trkpt lat="40.7760450" lon="0.1454390">
        <ele>865.9</ele>
        <time>2013-05-12T17:10:13Z</time>
      </trkpt>
      <trkpt lat="40.7760690" lon="0.1453040">
        <ele>863.5</ele>
        <time>2013-05-12T17:10:18Z</time>
      </trkpt>
      <trkpt lat="40.7760790" lon="0.1452790">
        <ele>861.9</ele>
        <time>2013-05-12T17:10:21Z</time>
      </trkpt>
      <trkpt lat="40.7760800" lon="0.1452560">
        <ele>861.4</ele>
        <time>2013-05-12T17:10:43Z</time>
      </trkpt>
      <trkpt lat="40.7760780" lon="0.1452220">
        <ele>861.1</ele>
        <time>2013-05-12T17:10:47Z</time>
      </trkpt>
      <trkpt lat="40.7760660" lon="0.1451850">
        <ele>860.7</ele>
        <time>2013-05-12T17:10:49Z</time>
      </trkpt>
      <trkpt lat="40.7760570" lon="0.1451100">
        <ele>859.3</ele>
        <time>2013-05-12T17:10:54Z</time>
      </trkpt>
      <trkpt lat="40.7760540" lon="0.1451100">
        <ele>858.8</ele>
        <time>2013-05-12T17:10:56Z</time>
      </trkpt>
      <trkpt lat="40.7760630" lon="0.1450680">
        <ele>858.2</ele>
        <time>2013-05-12T17:11:03Z</time>
      </trkpt>
      <trkpt lat="40.7760650" lon="0.1450570">
        <ele>857.7</ele>
        <time>2013-05-12T17:11:05Z</time>
      </trkpt>
      <trkpt lat="40.7760920" lon="0.1450460">
        <ele>856.9</ele>
        <time>2013-05-12T17:11:17Z</time>
      </trkpt>
      <trkpt lat="40.7761010" lon="0.1450450">
        <ele>856.7</ele>
        <time>2013-05-12T17:11:18Z</time>
      </trkpt>
      <trkpt lat="40.7761660" lon="0.1450480">
        <ele>854.0</ele>
        <time>2013-05-12T17:11:25Z</time>
      </trkpt>
      <trkpt lat="40.7761730" lon="0.1450470">
        <ele>853.9</ele>
        <time>2013-05-12T17:11:26Z</time>
      </trkpt>
      <trkpt lat="40.7762380" lon="0.1450590">
        <ele>852.4</ele>
        <time>2013-05-12T17:11:33Z</time>
      </trkpt>
      <trkpt lat="40.7762980" lon="0.1450700">
        <ele>850.9</ele>
        <time>2013-05-12T17:11:39Z</time>
      </trkpt>
      <trkpt lat="40.7763220" lon="0.1450600">
        <ele>849.9</ele>
        <time>2013-05-12T17:11:43Z</time>
      </trkpt>
      <trkpt lat="40.7763700" lon="0.1450360">
        <ele>849.5</ele>
        <time>2013-05-12T17:11:55Z</time>
      </trkpt>
      <trkpt lat="40.7763870" lon="0.1450300">
        <ele>849.4</ele>
        <time>2013-05-12T17:11:56Z</time>
      </trkpt>
      <trkpt lat="40.7764660" lon="0.1449590">
        <ele>848.3</ele>
        <time>2013-05-12T17:12:00Z</time>
      </trkpt>
      <trkpt lat="40.7765380" lon="0.1448840">
        <ele>846.6</ele>
        <time>2013-05-12T17:12:05Z</time>
      </trkpt>
      <trkpt lat="40.7765970" lon="0.1448350">
        <ele>844.5</ele>
        <time>2013-05-12T17:12:10Z</time>
      </trkpt>
      <trkpt lat="40.7766070" lon="0.1448240">
        <ele>844.2</ele>
        <time>2013-05-12T17:12:11Z</time>
      </trkpt>
      <trkpt lat="40.7766300" lon="0.1447980">
        <ele>843.9</ele>
        <time>2013-05-12T17:12:13Z</time>
      </trkpt>
      <trkpt lat="40.7766890" lon="0.1447140">
        <ele>843.0</ele>
        <time>2013-05-12T17:12:17Z</time>
      </trkpt>
      <trkpt lat="40.7767480" lon="0.1446080">
        <ele>841.9</ele>
        <time>2013-05-12T17:12:22Z</time>
      </trkpt>
      <trkpt lat="40.7767660" lon="0.1445820">
        <ele>841.0</ele>
        <time>2013-05-12T17:12:27Z</time>
      </trkpt>
      <trkpt lat="40.7767850" lon="0.1445410">
        <ele>840.4</ele>
        <time>2013-05-12T17:12:35Z</time>
      </trkpt>
      <trkpt lat="40.7767910" lon="0.1445390">
        <ele>839.9</ele>
        <time>2013-05-12T17:12:37Z</time>
      </trkpt>
      <trkpt lat="40.7768440" lon="0.1444650">
        <ele>839.0</ele>
        <time>2013-05-12T17:12:48Z</time>
      </trkpt>
      <trkpt lat="40.7768600" lon="0.1444340">
        <ele>837.2</ele>
        <time>2013-05-12T17:12:53Z</time>
      </trkpt>
      <trkpt lat="40.7768880" lon="0.1444140">
        <ele>836.2</ele>
        <time>2013-05-12T17:13:04Z</time>
      </trkpt>
      <trkpt lat="40.7768900" lon="0.1444000">
        <ele>835.3</ele>
        <time>2013-05-12T17:13:07Z</time>
      </trkpt>
      <trkpt lat="40.7769010" lon="0.1443110">
        <ele>833.8</ele>
        <time>2013-05-12T17:13:18Z</time>
      </trkpt>
      <trkpt lat="40.7768950" lon="0.1442800">
        <ele>832.0</ele>
        <time>2013-05-12T17:13:24Z</time>
      </trkpt>
      <trkpt lat="40.7768930" lon="0.1442710">
        <ele>831.6</ele>
        <time>2013-05-12T17:13:25Z</time>
      </trkpt>
      <trkpt lat="40.7769000" lon="0.1442450">
        <ele>830.6</ele>
        <time>2013-05-12T17:13:28Z</time>
      </trkpt>
      <trkpt lat="40.7769040" lon="0.1441990">
        <ele>829.3</ele>
        <time>2013-05-12T17:13:34Z</time>
      </trkpt>
      <trkpt lat="40.7769140" lon="0.1441720">
        <ele>828.3</ele>
        <time>2013-05-12T17:13:38Z</time>
      </trkpt>
      <trkpt lat="40.7769250" lon="0.1441390">
        <ele>827.5</ele>
        <time>2013-05-12T17:13:43Z</time>
      </trkpt>
      <trkpt lat="40.7769740" lon="0.1440890">
        <ele>826.5</ele>
        <time>2013-05-12T17:13:52Z</time>
      </trkpt>
      <trkpt lat="40.7769770" lon="0.1440870">
        <ele>826.4</ele>
        <time>2013-05-12T17:13:53Z</time>
      </trkpt>
      <trkpt lat="40.7770610" lon="0.1440010">
        <ele>825.9</ele>
        <time>2013-05-12T17:13:59Z</time>
      </trkpt>
      <trkpt lat="40.7771900" lon="0.1438660">
        <ele>824.3</ele>
        <time>2013-05-12T17:14:06Z</time>
      </trkpt>
      <trkpt lat="40.7772660" lon="0.1437450">
        <ele>822.8</ele>
        <time>2013-05-12T17:14:11Z</time>
      </trkpt>
      <trkpt lat="40.7773880" lon="0.1435990">
        <ele>821.4</ele>
        <time>2013-05-12T17:14:17Z</time>
      </trkpt>
      <trkpt lat="40.7775060" lon="0.1434230">
        <ele>819.4</ele>
        <time>2013-05-12T17:14:23Z</time>
      </trkpt>
      <trkpt lat="40.7776400" lon="0.1432470">
        <ele>817.9</ele>
        <time>2013-05-12T17:14:30Z</time>
      </trkpt>
      <trkpt lat="40.7777900" lon="0.1430180">
        <ele>818.0</ele>
        <time>2013-05-12T17:14:39Z</time>
      </trkpt>
      <trkpt lat="40.7778960" lon="0.1428240">
        <ele>818.8</ele>
        <time>2013-05-12T17:14:47Z</time>
      </trkpt>
      <trkpt lat="40.7779840" lon="0.1427110">
        <ele>819.2</ele>
        <time>2013-05-12T17:14:52Z</time>
      </trkpt>
      <trkpt lat="40.7781040" lon="0.1425840">
        <ele>820.0</ele>
        <time>2013-05-12T17:14:59Z</time>
      </trkpt>
      <trkpt lat="40.7781880" lon="0.1424900">
        <ele>820.6</ele>
        <time>2013-05-12T17:15:05Z</time>
      </trkpt>
      <trkpt lat="40.7782880" lon="0.1424040">
        <ele>820.2</ele>
        <time>2013-05-12T17:15:11Z</time>
      </trkpt>
      <trkpt lat="40.7783750" lon="0.1423330">
        <ele>819.8</ele>
        <time>2013-05-12T17:15:17Z</time>
      </trkpt>
      <trkpt lat="40.7784060" lon="0.1422990">
        <ele>818.9</ele>
        <time>2013-05-12T17:15:21Z</time>
      </trkpt>
      <trkpt lat="40.7785050" lon="0.1421800">
        <ele>816.9</ele>
        <time>2013-05-12T17:15:26Z</time>
      </trkpt>
      <trkpt lat="40.7786630" lon="0.1420150">
        <ele>814.3</ele>
        <time>2013-05-12T17:15:32Z</time>
      </trkpt>
      <trkpt lat="40.7788590" lon="0.1418450">
        <ele>812.4</ele>
        <time>2013-05-12T17:15:39Z</time>
      </trkpt>
      <trkpt lat="40.7789550" lon="0.1418030">
        <ele>811.9</ele>
        <time>2013-05-12T17:15:44Z</time>
      </trkpt>
      <trkpt lat="40.7789680" lon="0.1418000">
        <ele>810.9</ele>
        <time>2013-05-12T17:15:47Z</time>
      </trkpt>
      <trkpt lat="40.7789810" lon="0.1417900">
        <ele>810.5</ele>
        <time>2013-05-12T17:15:51Z</time>
      </trkpt>
      <trkpt lat="40.7789840" lon="0.1417880">
        <ele>810.5</ele>
        <time>2013-05-12T17:15:52Z</time>
      </trkpt>
      <trkpt lat="40.7790410" lon="0.1417210">
        <ele>809.6</ele>
        <time>2013-05-12T17:15:57Z</time>
      </trkpt>
      <trkpt lat="40.7790920" lon="0.1415890">
        <ele>808.4</ele>
        <time>2013-05-12T17:16:01Z</time>
      </trkpt>
      <trkpt lat="40.7792200" lon="0.1413000">
        <ele>806.9</ele>
        <time>2013-05-12T17:16:08Z</time>
      </trkpt>
      <trkpt lat="40.7792670" lon="0.1412270">
        <ele>805.8</ele>
        <time>2013-05-12T17:16:11Z</time>
      </trkpt>
      <trkpt lat="40.7792820" lon="0.1411850">
        <ele>804.6</ele>
        <time>2013-05-12T17:16:15Z</time>
      </trkpt>
      <trkpt lat="40.7792780" lon="0.1411580">
        <ele>804.1</ele>
        <time>2013-05-12T17:16:39Z</time>
      </trkpt>
      <trkpt lat="40.7792780" lon="0.1411560">
        <ele>804.0</ele>
        <time>2013-05-12T17:16:40Z</time>
      </trkpt>
      <trkpt lat="40.7792660" lon="0.1411180">
        <ele>803.1</ele>
        <time>2013-05-12T17:16:49Z</time>
      </trkpt>
      <trkpt lat="40.7792760" lon="0.1410930">
        <ele>802.3</ele>
        <time>2013-05-12T17:16:53Z</time>
      </trkpt>
      <trkpt lat="40.7792640" lon="0.1410330">
        <ele>800.6</ele>
        <time>2013-05-12T17:17:01Z</time>
      </trkpt>
      <trkpt lat="40.7792640" lon="0.1409220">
        <ele>798.2</ele>
        <time>2013-05-12T17:17:13Z</time>
      </trkpt>
      <trkpt lat="40.7792990" lon="0.1408490">
        <ele>797.9</ele>
        <time>2013-05-12T17:17:17Z</time>
      </trkpt>
      <trkpt lat="40.7793160" lon="0.1408260">
        <ele>797.5</ele>
        <time>2013-05-12T17:17:18Z</time>
      </trkpt>
      <trkpt lat="40.7793800" lon="0.1407670">
        <ele>796.0</ele>
        <time>2013-05-12T17:17:21Z</time>
      </trkpt>
      <trkpt lat="40.7795300" lon="0.1407010">
        <ele>794.1</ele>
        <time>2013-05-12T17:17:26Z</time>
      </trkpt>
      <trkpt lat="40.7796220" lon="0.1405580">
        <ele>792.7</ele>
        <time>2013-05-12T17:17:30Z</time>
      </trkpt>
      <trkpt lat="40.7796830" lon="0.1403880">
        <ele>791.3</ele>
        <time>2013-05-12T17:17:34Z</time>
      </trkpt>
      <trkpt lat="40.7797010" lon="0.1402490">
        <ele>790.0</ele>
        <time>2013-05-12T17:17:37Z</time>
      </trkpt>
      <trkpt lat="40.7796970" lon="0.1400730">
        <ele>789.8</ele>
        <time>2013-05-12T17:17:41Z</time>
      </trkpt>
      <trkpt lat="40.7797060" lon="0.1398560">
        <ele>789.7</ele>
        <time>2013-05-12T17:17:46Z</time>
      </trkpt>
      <trkpt lat="40.7797370" lon="0.1397920">
        <ele>789.2</ele>
        <time>2013-05-12T17:17:49Z</time>
      </trkpt>
      <trkpt lat="40.7797390" lon="0.1397590">
        <ele>788.3</ele>
        <time>2013-05-12T17:17:54Z</time>
      </trkpt>
      <trkpt lat="40.7798290" lon="0.1396600">
        <ele>787.1</ele>
        <time>2013-05-12T17:17:59Z</time>
      </trkpt>
      <trkpt lat="40.7799200" lon="0.1396270">
        <ele>786.7</ele>
        <time>2013-05-12T17:18:03Z</time>
      </trkpt>
      <trkpt lat="40.7800580" lon="0.1395630">
        <ele>783.9</ele>
        <time>2013-05-12T17:18:08Z</time>
      </trkpt>
      <trkpt lat="40.7801710" lon="0.1394720">
        <ele>782.1</ele>
        <time>2013-05-12T17:18:12Z</time>
      </trkpt>
      <trkpt lat="40.7802420" lon="0.1392830">
        <ele>780.8</ele>
        <time>2013-05-12T17:18:16Z</time>
      </trkpt>
      <trkpt lat="40.7802670" lon="0.1391650">
        <ele>780.3</ele>
        <time>2013-05-12T17:18:18Z</time>
      </trkpt>
      <trkpt lat="40.7802690" lon="0.1389860">
        <ele>779.8</ele>
        <time>2013-05-12T17:18:21Z</time>
      </trkpt>
      <trkpt lat="40.7802630" lon="0.1387490">
        <ele>780.0</ele>
        <time>2013-05-12T17:18:26Z</time>
      </trkpt>
      <trkpt lat="40.7802410" lon="0.1386670">
        <ele>780.3</ele>
        <time>2013-05-12T17:18:28Z</time>
      </trkpt>
      <trkpt lat="40.7802090" lon="0.1385770">
        <ele>781.6</ele>
        <time>2013-05-12T17:18:32Z</time>
      </trkpt>
      <trkpt lat="40.7802080" lon="0.1385660">
        <ele>781.6</ele>
        <time>2013-05-12T17:18:33Z</time>
      </trkpt>
      <trkpt lat="40.7801950" lon="0.1385500">
        <ele>781.3</ele>
        <time>2013-05-12T17:18:35Z</time>
      </trkpt>
      <trkpt lat="40.7801890" lon="0.1385400">
        <ele>780.7</ele>
        <time>2013-05-12T17:18:37Z</time>
      </trkpt>
      <trkpt lat="40.7801720" lon="0.1385320">
        <ele>780.3</ele>
        <time>2013-05-12T17:18:43Z</time>
      </trkpt>
      <trkpt lat="40.7801690" lon="0.1384680">
        <ele>779.1</ele>
        <time>2013-05-12T17:18:49Z</time>
      </trkpt>
      <trkpt lat="40.7801630" lon="0.1384470">
        <ele>778.6</ele>
        <time>2013-05-12T17:18:51Z</time>
      </trkpt>
      <trkpt lat="40.7801690" lon="0.1383230">
        <ele>777.3</ele>
        <time>2013-05-12T17:18:57Z</time>
      </trkpt>
      <trkpt lat="40.7801680" lon="0.1381650">
        <ele>777.3</ele>
        <time>2013-05-12T17:19:02Z</time>
      </trkpt>
      <trkpt lat="40.7802310" lon="0.1380150">
        <ele>776.8</ele>
        <time>2013-05-12T17:19:06Z</time>
      </trkpt>
      <trkpt lat="40.7802810" lon="0.1378190">
        <ele>776.5</ele>
        <time>2013-05-12T17:19:11Z</time>
      </trkpt>
      <trkpt lat="40.7803410" lon="0.1376190">
        <ele>777.7</ele>
        <time>2013-05-12T17:19:17Z</time>
      </trkpt>
      <trkpt lat="40.7803560" lon="0.1376040">
        <ele>778.1</ele>
        <time>2013-05-12T17:19:18Z</time>
      </trkpt>
      <trkpt lat="40.7804360" lon="0.1376170">
        <ele>779.2</ele>
        <time>2013-05-12T17:19:23Z</time>
      </trkpt>
      <trkpt lat="40.7805080" lon="0.1376270">
        <ele>780.0</ele>
        <time>2013-05-12T17:19:27Z</time>
      </trkpt>
      <trkpt lat="40.7805860" lon="0.1376630">
        <ele>779.8</ele>
        <time>2013-05-12T17:19:30Z</time>
      </trkpt>
      <trkpt lat="40.7807150" lon="0.1377440">
        <ele>779.2</ele>
        <time>2013-05-12T17:19:35Z</time>
      </trkpt>
      <trkpt lat="40.7807480" lon="0.1377590">
        <ele>779.1</ele>
        <time>2013-05-12T17:19:39Z</time>
      </trkpt>
      <trkpt lat="40.7808640" lon="0.1377220">
        <ele>778.9</ele>
        <time>2013-05-12T17:19:53Z</time>
      </trkpt>
      <trkpt lat="40.7809020" lon="0.1377120">
        <ele>778.9</ele>
        <time>2013-05-12T17:19:54Z</time>
      </trkpt>
      <trkpt lat="40.7809450" lon="0.1376950">
        <ele>778.8</ele>
        <time>2013-05-12T17:19:55Z</time>
      </trkpt>
      <trkpt lat="40.7811480" lon="0.1375970">
        <ele>777.7</ele>
        <time>2013-05-12T17:20:00Z</time>
      </trkpt>
      <trkpt lat="40.7811850" lon="0.1375950">
        <ele>777.4</ele>
        <time>2013-05-12T17:20:01Z</time>
      </trkpt>
      <trkpt lat="40.7813250" lon="0.1375380">
        <ele>775.1</ele>
        <time>2013-05-12T17:20:06Z</time>
      </trkpt>
      <trkpt lat="40.7813370" lon="0.1375030">
        <ele>774.8</ele>
        <time>2013-05-12T17:20:07Z</time>
      </trkpt>
      <trkpt lat="40.7813850" lon="0.1373350">
        <ele>772.3</ele>
        <time>2013-05-12T17:20:11Z</time>
      </trkpt>
      <trkpt lat="40.7814510" lon="0.1371020">
        <ele>769.5</ele>
        <time>2013-05-12T17:20:16Z</time>
      </trkpt>
      <trkpt lat="40.7814600" lon="0.1370480">
        <ele>769.2</ele>
        <time>2013-05-12T17:20:17Z</time>
      </trkpt>
      <trkpt lat="40.7814850" lon="0.1368310">
        <ele>766.8</ele>
        <time>2013-05-12T17:20:22Z</time>
      </trkpt>
      <trkpt lat="40.7814910" lon="0.1365810">
        <ele>764.8</ele>
        <time>2013-05-12T17:20:27Z</time>
      </trkpt>
      <trkpt lat="40.7814530" lon="0.1363320">
        <ele>763.2</ele>
        <time>2013-05-12T17:20:31Z</time>
      </trkpt>
      <trkpt lat="40.7814410" lon="0.1361350">
        <ele>762.3</ele>
        <time>2013-05-12T17:20:34Z</time>
      </trkpt>
      <trkpt lat="40.7814040" lon="0.1359680">
        <ele>761.3</ele>
        <time>2013-05-12T17:20:37Z</time>
      </trkpt>
      <trkpt lat="40.7813560" lon="0.1357270">
        <ele>759.5</ele>
        <time>2013-05-12T17:20:42Z</time>
      </trkpt>
      <trkpt lat="40.7813840" lon="0.1355760">
        <ele>758.7</ele>
        <time>2013-05-12T17:20:45Z</time>
      </trkpt>
      <trkpt lat="40.7814500" lon="0.1352510">
        <ele>756.5</ele>
        <time>2013-05-12T17:20:51Z</time>
      </trkpt>
      <trkpt lat="40.7814650" lon="0.1351340">
        <ele>755.0</ele>
        <time>2013-05-12T17:20:54Z</time>
      </trkpt>
      <trkpt lat="40.7814790" lon="0.1351060">
        <ele>754.6</ele>
        <time>2013-05-12T17:20:55Z</time>
      </trkpt>
      <trkpt lat="40.7815800" lon="0.1350320">
        <ele>754.3</ele>
        <time>2013-05-12T17:21:00Z</time>
      </trkpt>
      <trkpt lat="40.7816600" lon="0.1349760">
        <ele>754.7</ele>
        <time>2013-05-12T17:21:03Z</time>
      </trkpt>
      <trkpt lat="40.7817160" lon="0.1349900">
        <ele>754.9</ele>
        <time>2013-05-12T17:21:05Z</time>
      </trkpt>
      <trkpt lat="40.7817620" lon="0.1350360">
        <ele>755.1</ele>
        <time>2013-05-12T17:21:07Z</time>
      </trkpt>
      <trkpt lat="40.7819250" lon="0.1352560">
        <ele>754.2</ele>
        <time>2013-05-12T17:21:13Z</time>
      </trkpt>
      <trkpt lat="40.7820240" lon="0.1353710">
        <ele>752.8</ele>
        <time>2013-05-12T17:21:17Z</time>
      </trkpt>
      <trkpt lat="40.7821260" lon="0.1354440">
        <ele>752.2</ele>
        <time>2013-05-12T17:21:20Z</time>
      </trkpt>
      <trkpt lat="40.7823820" lon="0.1355370">
        <ele>750.8</ele>
        <time>2013-05-12T17:21:26Z</time>
      </trkpt>
      <trkpt lat="40.7825330" lon="0.1355680">
        <ele>750.6</ele>
        <time>2013-05-12T17:21:31Z</time>
      </trkpt>
      <trkpt lat="40.7827300" lon="0.1356300">
        <ele>751.1</ele>
        <time>2013-05-12T17:21:37Z</time>
      </trkpt>
      <trkpt lat="40.7828850" lon="0.1356220">
        <ele>751.5</ele>
        <time>2013-05-12T17:21:42Z</time>
      </trkpt>
      <trkpt lat="40.7830780" lon="0.1354780">
        <ele>753.0</ele>
        <time>2013-05-12T17:21:49Z</time>
      </trkpt>
      <trkpt lat="40.7831780" lon="0.1353690">
        <ele>753.3</ele>
        <time>2013-05-12T17:21:53Z</time>
      </trkpt>
      <trkpt lat="40.7833250" lon="0.1352250">
        <ele>751.7</ele>
        <time>2013-05-12T17:21:58Z</time>
      </trkpt>
      <trkpt lat="40.7835110" lon="0.1351610">
        <ele>749.8</ele>
        <time>2013-05-12T17:22:03Z</time>
      </trkpt>
      <trkpt lat="40.7836320" lon="0.1350690">
        <ele>748.0</ele>
        <time>2013-05-12T17:22:07Z</time>
      </trkpt>
      <trkpt lat="40.7837490" lon="0.1350640">
        <ele>745.6</ele>
        <time>2013-05-12T17:22:11Z</time>
      </trkpt>
      <trkpt lat="40.7838490" lon="0.1350410">
        <ele>744.5</ele>
        <time>2013-05-12T17:22:14Z</time>
      </trkpt>
      <trkpt lat="40.7840150" lon="0.1349480">
        <ele>741.7</ele>
        <time>2013-05-12T17:22:19Z</time>
      </trkpt>
      <trkpt lat="40.7841120" lon="0.1348150">
        <ele>740.1</ele>
        <time>2013-05-12T17:22:22Z</time>
      </trkpt>
      <trkpt lat="40.7841950" lon="0.1346800">
        <ele>738.5</ele>
        <time>2013-05-12T17:22:26Z</time>
      </trkpt>
      <trkpt lat="40.7842030" lon="0.1346420">
        <ele>737.4</ele>
        <time>2013-05-12T17:22:30Z</time>
      </trkpt>
      <trkpt lat="40.7842470" lon="0.1345280">
        <ele>737.1</ele>
        <time>2013-05-12T17:22:36Z</time>
      </trkpt>
      <trkpt lat="40.7842720" lon="0.1343640">
        <ele>736.1</ele>
        <time>2013-05-12T17:22:41Z</time>
      </trkpt>
      <trkpt lat="40.7843080" lon="0.1342110">
        <ele>734.7</ele>
        <time>2013-05-12T17:22:46Z</time>
      </trkpt>
      <trkpt lat="40.7843180" lon="0.1340560">
        <ele>733.0</ele>
        <time>2013-05-12T17:22:51Z</time>
      </trkpt>
      <trkpt lat="40.7842850" lon="0.1338880">
        <ele>731.6</ele>
        <time>2013-05-12T17:22:55Z</time>
      </trkpt>
      <trkpt lat="40.7843260" lon="0.1336770">
        <ele>730.1</ele>
        <time>2013-05-12T17:22:59Z</time>
      </trkpt>
      <trkpt lat="40.7843200" lon="0.1335570">
        <ele>729.6</ele>
        <time>2013-05-12T17:23:01Z</time>
      </trkpt>
      <trkpt lat="40.7843140" lon="0.1333340">
        <ele>728.2</ele>
        <time>2013-05-12T17:23:06Z</time>
      </trkpt>
      <trkpt lat="40.7843650" lon="0.1331880">
        <ele>726.5</ele>
        <time>2013-05-12T17:23:11Z</time>
      </trkpt>
      <trkpt lat="40.7844490" lon="0.1329940">
        <ele>725.9</ele>
        <time>2013-05-12T17:23:16Z</time>
      </trkpt>
      <trkpt lat="40.7844910" lon="0.1329500">
        <ele>725.8</ele>
        <time>2013-05-12T17:23:19Z</time>
      </trkpt>
      <trkpt lat="40.7844980" lon="0.1329500">
        <ele>725.8</ele>
        <time>2013-05-12T17:23:20Z</time>
      </trkpt>
      <trkpt lat="40.7845570" lon="0.1328690">
        <ele>725.7</ele>
        <time>2013-05-12T17:23:26Z</time>
      </trkpt>
      <trkpt lat="40.7845730" lon="0.1327360">
        <ele>724.3</ele>
        <time>2013-05-12T17:23:31Z</time>
      </trkpt>
      <trkpt lat="40.7846080" lon="0.1327500">
        <ele>724.0</ele>
        <time>2013-05-12T17:23:34Z</time>
      </trkpt>
      <trkpt lat="40.7846580" lon="0.1328120">
        <ele>723.3</ele>
        <time>2013-05-12T17:23:38Z</time>
      </trkpt>
      <trkpt lat="40.7847000" lon="0.1328420">
        <ele>721.9</ele>
        <time>2013-05-12T17:23:43Z</time>
      </trkpt>
      <trkpt lat="40.7847000" lon="0.1328220">
        <ele>721.5</ele>
        <time>2013-05-12T17:23:48Z</time>
      </trkpt>
      <trkpt lat="40.7846670" lon="0.1327710">
        <ele>720.6</ele>
        <time>2013-05-12T17:23:54Z</time>
      </trkpt>
      <trkpt lat="40.7846790" lon="0.1327550">
        <ele>719.6</ele>
        <time>2013-05-12T17:23:57Z</time>
      </trkpt>
      <trkpt lat="40.7847150" lon="0.1327630">
        <ele>719.0</ele>
        <time>2013-05-12T17:24:01Z</time>
      </trkpt>
      <trkpt lat="40.7847470" lon="0.1327830">
        <ele>718.3</ele>
        <time>2013-05-12T17:24:06Z</time>
      </trkpt>
      <trkpt lat="40.7847890" lon="0.1327980">
        <ele>717.1</ele>
        <time>2013-05-12T17:24:12Z</time>
      </trkpt>
      <trkpt lat="40.7848290" lon="0.1327960">
        <ele>716.3</ele>
        <time>2013-05-12T17:24:21Z</time>
      </trkpt>
      <trkpt lat="40.7848380" lon="0.1327820">
        <ele>715.9</ele>
        <time>2013-05-12T17:24:23Z</time>
      </trkpt>
      <trkpt lat="40.7849020" lon="0.1328120">
        <ele>714.8</ele>
        <time>2013-05-12T17:24:34Z</time>
      </trkpt>
      <trkpt lat="40.7849790" lon="0.1328060">
        <ele>714.2</ele>
        <time>2013-05-12T17:24:37Z</time>
      </trkpt>
      <trkpt lat="40.7850160" lon="0.1327880">
        <ele>712.8</ele>
        <time>2013-05-12T17:24:41Z</time>
      </trkpt>
      <trkpt lat="40.7849660" lon="0.1327430">
        <ele>711.7</ele>
        <time>2013-05-12T17:25:05Z</time>
      </trkpt>
      <trkpt lat="40.7849280" lon="0.1327170">
        <ele>710.9</ele>
        <time>2013-05-12T17:25:08Z</time>
      </trkpt>
      <trkpt lat="40.7849100" lon="0.1326520">
        <ele>709.7</ele>
        <time>2013-05-12T17:25:12Z</time>
      </trkpt>
      <trkpt lat="40.7848480" lon="0.1325430">
        <ele>707.4</ele>
        <time>2013-05-12T17:25:18Z</time>
      </trkpt>
      <trkpt lat="40.7848220" lon="0.1324970">
        <ele>706.1</ele>
        <time>2013-05-12T17:25:22Z</time>
      </trkpt>
      <trkpt lat="40.7848080" lon="0.1324290">
        <ele>704.4</ele>
        <time>2013-05-12T17:25:29Z</time>
      </trkpt>
      <trkpt lat="40.7848190" lon="0.1324170">
        <ele>703.9</ele>
        <time>2013-05-12T17:25:32Z</time>
      </trkpt>
      <trkpt lat="40.7848400" lon="0.1324090">
        <ele>703.6</ele>
        <time>2013-05-12T17:25:36Z</time>
      </trkpt>
      <trkpt lat="40.7848290" lon="0.1323310">
        <ele>701.8</ele>
        <time>2013-05-12T17:25:42Z</time>
      </trkpt>
      <trkpt lat="40.7847930" lon="0.1322560">
        <ele>700.5</ele>
        <time>2013-05-12T17:25:48Z</time>
      </trkpt>
      <trkpt lat="40.7847880" lon="0.1322440">
        <ele>700.2</ele>
        <time>2013-05-12T17:25:49Z</time>
      </trkpt>
      <trkpt lat="40.7847380" lon="0.1321710">
        <ele>698.0</ele>
        <time>2013-05-12T17:25:57Z</time>
      </trkpt>
      <trkpt lat="40.7847360" lon="0.1321540">
        <ele>697.3</ele>
        <time>2013-05-12T17:25:59Z</time>
      </trkpt>
      <trkpt lat="40.7847800" lon="0.1321230">
        <ele>695.2</ele>
        <time>2013-05-12T17:26:05Z</time>
      </trkpt>
      <trkpt lat="40.7847830" lon="0.1321220">
        <ele>694.7</ele>
        <time>2013-05-12T17:26:06Z</time>
      </trkpt>
      <trkpt lat="40.7848080" lon="0.1321230">
        <ele>694.5</ele>
        <time>2013-05-12T17:26:09Z</time>
      </trkpt>
      <trkpt lat="40.7848410" lon="0.1321420">
        <ele>694.1</ele>
        <time>2013-05-12T17:26:11Z</time>
      </trkpt>
      <trkpt lat="40.7848600" lon="0.1321800">
        <ele>693.5</ele>
        <time>2013-05-12T17:26:13Z</time>
      </trkpt>
      <trkpt lat="40.7849590" lon="0.1322840">
        <ele>691.1</ele>
        <time>2013-05-12T17:26:19Z</time>
      </trkpt>
      <trkpt lat="40.7850530" lon="0.1324030">
        <ele>688.9</ele>
        <time>2013-05-12T17:26:24Z</time>
      </trkpt>
      <trkpt lat="40.7852110" lon="0.1325700">
        <ele>686.5</ele>
        <time>2013-05-12T17:26:30Z</time>
      </trkpt>
      <trkpt lat="40.7852970" lon="0.1326700">
        <ele>685.3</ele>
        <time>2013-05-12T17:26:33Z</time>
      </trkpt>
      <trkpt lat="40.7853740" lon="0.1327740">
        <ele>683.7</ele>
        <time>2013-05-12T17:26:36Z</time>
      </trkpt>
      <trkpt lat="40.7854010" lon="0.1327980">
        <ele>683.0</ele>
        <time>2013-05-12T17:26:38Z</time>
      </trkpt>
      <trkpt lat="40.7855080" lon="0.1328430">
        <ele>681.1</ele>
        <time>2013-05-12T17:26:43Z</time>
      </trkpt>
      <trkpt lat="40.7856770" lon="0.1329150">
        <ele>679.6</ele>
        <time>2013-05-12T17:26:48Z</time>
      </trkpt>
      <trkpt lat="40.7858510" lon="0.1330270">
        <ele>679.4</ele>
        <time>2013-05-12T17:26:53Z</time>
      </trkpt>
      <trkpt lat="40.7860100" lon="0.1330300">
        <ele>676.9</ele>
        <time>2013-05-12T17:26:58Z</time>
      </trkpt>
      <trkpt lat="40.7860390" lon="0.1330460">
        <ele>676.6</ele>
        <time>2013-05-12T17:26:59Z</time>
      </trkpt>
      <trkpt lat="40.7861810" lon="0.1331250">
        <ele>674.4</ele>
        <time>2013-05-12T17:27:04Z</time>
      </trkpt>
      <trkpt lat="40.7862800" lon="0.1331610">
        <ele>673.0</ele>
        <time>2013-05-12T17:27:07Z</time>
      </trkpt>
      <trkpt lat="40.7865240" lon="0.1331370">
        <ele>671.2</ele>
        <time>2013-05-12T17:27:12Z</time>
      </trkpt>
      <trkpt lat="40.7866720" lon="0.1331770">
        <ele>670.1</ele>
        <time>2013-05-12T17:27:15Z</time>
      </trkpt>
      <trkpt lat="40.7868190" lon="0.1333410">
        <ele>667.6</ele>
        <time>2013-05-12T17:27:20Z</time>
      </trkpt>
      <trkpt lat="40.7868630" lon="0.1333660">
        <ele>666.4</ele>
        <time>2013-05-12T17:27:22Z</time>
      </trkpt>
      <trkpt lat="40.7868920" lon="0.1333910">
        <ele>665.1</ele>
        <time>2013-05-12T17:27:25Z</time>
      </trkpt>
      <trkpt lat="40.7869000" lon="0.1333890">
        <ele>664.5</ele>
        <time>2013-05-12T17:27:27Z</time>
      </trkpt>
      <trkpt lat="40.7869070" lon="0.1333740">
        <ele>663.8</ele>
        <time>2013-05-12T17:27:29Z</time>
      </trkpt>
      <trkpt lat="40.7868790" lon="0.1332330">
        <ele>662.4</ele>
        <time>2013-05-12T17:27:34Z</time>
      </trkpt>
      <trkpt lat="40.7868000" lon="0.1329880">
        <ele>659.7</ele>
        <time>2013-05-12T17:27:39Z</time>
      </trkpt>
      <trkpt lat="40.7868590" lon="0.1329250">
        <ele>657.8</ele>
        <time>2013-05-12T17:27:44Z</time>
      </trkpt>
      <trkpt lat="40.7868790" lon="0.1329270">
        <ele>657.0</ele>
        <time>2013-05-12T17:27:47Z</time>
      </trkpt>
      <trkpt lat="40.7869350" lon="0.1329040">
        <ele>656.8</ele>
        <time>2013-05-12T17:27:57Z</time>
      </trkpt>
      <trkpt lat="40.7869840" lon="0.1328330">
        <ele>657.4</ele>
        <time>2013-05-12T17:28:04Z</time>
      </trkpt>
      <trkpt lat="40.7870710" lon="0.1327560">
        <ele>657.4</ele>
        <time>2013-05-12T17:28:10Z</time>
      </trkpt>
      <trkpt lat="40.7872340" lon="0.1326990">
        <ele>657.3</ele>
        <time>2013-05-12T17:28:15Z</time>
      </trkpt>
      <trkpt lat="40.7874250" lon="0.1327430">
        <ele>657.2</ele>
        <time>2013-05-12T17:28:20Z</time>
      </trkpt>
      <trkpt lat="40.7875030" lon="0.1327890">
        <ele>657.2</ele>
        <time>2013-05-12T17:28:22Z</time>
      </trkpt>
      <trkpt lat="40.7876520" lon="0.1329320">
        <ele>657.4</ele>
        <time>2013-05-12T17:28:26Z</time>
      </trkpt>
      <trkpt lat="40.7878970" lon="0.1332680">
        <ele>656.5</ele>
        <time>2013-05-12T17:28:33Z</time>
      </trkpt>
      <trkpt lat="40.7879280" lon="0.1333240">
        <ele>656.4</ele>
        <time>2013-05-12T17:28:34Z</time>
      </trkpt>
      <trkpt lat="40.7881610" lon="0.1338460">
        <ele>655.4</ele>
        <time>2013-05-12T17:28:42Z</time>
      </trkpt>
      <trkpt lat="40.7882240" lon="0.1339920">
        <ele>655.1</ele>
        <time>2013-05-12T17:28:44Z</time>
      </trkpt>
      <trkpt lat="40.7884270" lon="0.1342760">
        <ele>654.2</ele>
        <time>2013-05-12T17:28:49Z</time>
      </trkpt>
      <trkpt lat="40.7885430" lon="0.1343660">
        <ele>652.6</ele>
        <time>2013-05-12T17:28:53Z</time>
      </trkpt>
      <trkpt lat="40.7886350" lon="0.1344390">
        <ele>652.4</ele>
        <time>2013-05-12T17:28:59Z</time>
      </trkpt>
      <trkpt lat="40.7887170" lon="0.1345590">
        <ele>653.1</ele>
        <time>2013-05-12T17:29:04Z</time>
      </trkpt>
      <trkpt lat="40.7888050" lon="0.1346760">
        <ele>653.2</ele>
        <time>2013-05-12T17:29:07Z</time>
      </trkpt>
      <trkpt lat="40.7890010" lon="0.1347620">
        <ele>653.1</ele>
        <time>2013-05-12T17:29:12Z</time>
      </trkpt>
      <trkpt lat="40.7890460" lon="0.1347520">
        <ele>652.9</ele>
        <time>2013-05-12T17:29:13Z</time>
      </trkpt>
      <trkpt lat="40.7892450" lon="0.1347020">
        <ele>652.2</ele>
        <time>2013-05-12T17:29:17Z</time>
      </trkpt>
      <trkpt lat="40.7894060" lon="0.1347230">
        <ele>651.0</ele>
        <time>2013-05-12T17:29:21Z</time>
      </trkpt>
      <trkpt lat="40.7894570" lon="0.1348320">
        <ele>649.6</ele>
        <time>2013-05-12T17:29:25Z</time>
      </trkpt>
      <trkpt lat="40.7895360" lon="0.1350000">
        <ele>650.2</ele>
        <time>2013-05-12T17:29:31Z</time>
      </trkpt>
      <trkpt lat="40.7895780" lon="0.1351880">
        <ele>650.8</ele>
        <time>2013-05-12T17:29:35Z</time>
      </trkpt>
      <trkpt lat="40.7896300" lon="0.1355930">
        <ele>650.5</ele>
        <time>2013-05-12T17:29:42Z</time>
      </trkpt>
      <trkpt lat="40.7896450" lon="0.1357240">
        <ele>650.6</ele>
        <time>2013-05-12T17:29:44Z</time>
      </trkpt>
      <trkpt lat="40.7897530" lon="0.1360400">
        <ele>651.4</ele>
        <time>2013-05-12T17:29:50Z</time>
      </trkpt>
      <trkpt lat="40.7899270" lon="0.1363100">
        <ele>650.8</ele>
        <time>2013-05-12T17:29:56Z</time>
      </trkpt>
      <trkpt lat="40.7899690" lon="0.1363560">
        <ele>650.8</ele>
        <time>2013-05-12T17:29:57Z</time>
      </trkpt>
      <trkpt lat="40.7901260" lon="0.1364380">
        <ele>648.2</ele>
        <time>2013-05-12T17:30:01Z</time>
      </trkpt>
      <trkpt lat="40.7903430" lon="0.1364720">
        <ele>647.9</ele>
        <time>2013-05-12T17:30:09Z</time>
      </trkpt>
      <trkpt lat="40.7905360" lon="0.1365100">
        <ele>648.8</ele>
        <time>2013-05-12T17:30:16Z</time>
      </trkpt>
      <trkpt lat="40.7906880" lon="0.1365220">
        <ele>649.3</ele>
        <time>2013-05-12T17:30:21Z</time>
      </trkpt>
      <trkpt lat="40.7909270" lon="0.1365710">
        <ele>649.9</ele>
        <time>2013-05-12T17:30:29Z</time>
      </trkpt>
      <trkpt lat="40.7911290" lon="0.1366380">
        <ele>651.5</ele>
        <time>2013-05-12T17:30:36Z</time>
      </trkpt>
      <trkpt lat="40.7912590" lon="0.1365840">
        <ele>652.2</ele>
        <time>2013-05-12T17:30:40Z</time>
      </trkpt>
      <trkpt lat="40.7913510" lon="0.1364110">
        <ele>652.8</ele>
        <time>2013-05-12T17:30:45Z</time>
      </trkpt>
      <trkpt lat="40.7914730" lon="0.1362360">
        <ele>653.6</ele>
        <time>2013-05-12T17:30:50Z</time>
      </trkpt>
      <trkpt lat="40.7916210" lon="0.1361710">
        <ele>654.1</ele>
        <time>2013-05-12T17:30:54Z</time>
      </trkpt>
      <trkpt lat="40.7917500" lon="0.1360020">
        <ele>653.8</ele>
        <time>2013-05-12T17:30:58Z</time>
      </trkpt>
      <trkpt lat="40.7919160" lon="0.1356620">
        <ele>652.2</ele>
        <time>2013-05-12T17:31:03Z</time>
      </trkpt>
      <trkpt lat="40.7921120" lon="0.1352600">
        <ele>649.9</ele>
        <time>2013-05-12T17:31:08Z</time>
      </trkpt>
      <trkpt lat="40.7921910" lon="0.1350180">
        <ele>646.5</ele>
        <time>2013-05-12T17:31:12Z</time>
      </trkpt>
      <trkpt lat="40.7922310" lon="0.1348860">
        <ele>645.6</ele>
        <time>2013-05-12T17:31:14Z</time>
      </trkpt>
      <trkpt lat="40.7922970" lon="0.1346190">
        <ele>644.2</ele>
        <time>2013-05-12T17:31:18Z</time>
      </trkpt>
      <trkpt lat="40.7923850" lon="0.1343580">
        <ele>642.0</ele>
        <time>2013-05-12T17:31:23Z</time>
      </trkpt>
      <trkpt lat="40.7924110" lon="0.1342510">
        <ele>641.4</ele>
        <time>2013-05-12T17:31:25Z</time>
      </trkpt>
      <trkpt lat="40.7925370" lon="0.1339310">
        <ele>639.7</ele>
        <time>2013-05-12T17:31:30Z</time>
      </trkpt>
      <trkpt lat="40.7926050" lon="0.1335550">
        <ele>638.6</ele>
        <time>2013-05-12T17:31:35Z</time>
      </trkpt>
      <trkpt lat="40.7925900" lon="0.1334320">
        <ele>638.7</ele>
        <time>2013-05-12T17:31:37Z</time>
      </trkpt>
      <trkpt lat="40.7925750" lon="0.1330640">
        <ele>639.6</ele>
        <time>2013-05-12T17:31:44Z</time>
      </trkpt>
      <trkpt lat="40.7925810" lon="0.1328010">
        <ele>641.0</ele>
        <time>2013-05-12T17:31:49Z</time>
      </trkpt>
      <trkpt lat="40.7925740" lon="0.1327510">
        <ele>641.3</ele>
        <time>2013-05-12T17:31:50Z</time>
      </trkpt>
      <trkpt lat="40.7925340" lon="0.1325970">
        <ele>641.7</ele>
        <time>2013-05-12T17:31:53Z</time>
      </trkpt>
      <trkpt lat="40.7925370" lon="0.1323860">
        <ele>641.8</ele>
        <time>2013-05-12T17:31:57Z</time>
      </trkpt>
      <trkpt lat="40.7926420" lon="0.1322670">
        <ele>642.3</ele>
        <time>2013-05-12T17:32:01Z</time>
      </trkpt>
      <trkpt lat="40.7928370" lon="0.1322440">
        <ele>644.1</ele>
        <time>2013-05-12T17:32:07Z</time>
      </trkpt>
      <trkpt lat="40.7929820" lon="0.1321710">
        <ele>644.8</ele>
        <time>2013-05-12T17:32:11Z</time>
      </trkpt>
      <trkpt lat="40.7931700" lon="0.1320870">
        <ele>645.5</ele>
        <time>2013-05-12T17:32:17Z</time>
      </trkpt>
      <trkpt lat="40.7933610" lon="0.1320190">
        <ele>647.4</ele>
        <time>2013-05-12T17:32:24Z</time>
      </trkpt>
      <trkpt lat="40.7935230" lon="0.1319490">
        <ele>648.7</ele>
        <time>2013-05-12T17:32:30Z</time>
      </trkpt>
      <trkpt lat="40.7937180" lon="0.1319020">
        <ele>650.7</ele>
        <time>2013-05-12T17:32:37Z</time>
      </trkpt>
      <trkpt lat="40.7938940" lon="0.1318300">
        <ele>652.3</ele>
        <time>2013-05-12T17:32:43Z</time>
      </trkpt>
      <trkpt lat="40.7939840" lon="0.1316800">
        <ele>652.4</ele>
        <time>2013-05-12T17:32:47Z</time>
      </trkpt>
      <trkpt lat="40.7941310" lon="0.1316480">
        <ele>652.3</ele>
        <time>2013-05-12T17:32:51Z</time>
      </trkpt>
      <trkpt lat="40.7942070" lon="0.1316870">
        <ele>652.2</ele>
        <time>2013-05-12T17:32:53Z</time>
      </trkpt>
      <trkpt lat="40.7943200" lon="0.1317440">
        <ele>652.2</ele>
        <time>2013-05-12T17:32:56Z</time>
      </trkpt>
      <trkpt lat="40.7945070" lon="0.1317690">
        <ele>651.6</ele>
        <time>2013-05-12T17:33:00Z</time>
      </trkpt>
      <trkpt lat="40.7947520" lon="0.1318650">
        <ele>648.7</ele>
        <time>2013-05-12T17:33:04Z</time>
      </trkpt>
      <trkpt lat="40.7948190" lon="0.1319280">
        <ele>648.1</ele>
        <time>2013-05-12T17:33:05Z</time>
      </trkpt>
      <trkpt lat="40.7949740" lon="0.1320680">
        <ele>646.2</ele>
        <time>2013-05-12T17:33:07Z</time>
      </trkpt>
      <trkpt lat="40.7950550" lon="0.1321370">
        <ele>645.2</ele>
        <time>2013-05-12T17:33:08Z</time>
      </trkpt>
      <trkpt lat="40.7951280" lon="0.1321990">
        <ele>644.3</ele>
        <time>2013-05-12T17:33:09Z</time>
      </trkpt>
      <trkpt lat="40.7954500" lon="0.1322720">
        <ele>641.0</ele>
        <time>2013-05-12T17:33:13Z</time>
      </trkpt>
      <trkpt lat="40.7956380" lon="0.1322780">
        <ele>639.8</ele>
        <time>2013-05-12T17:33:15Z</time>
      </trkpt>
      <trkpt lat="40.7960000" lon="0.1321340">
        <ele>636.8</ele>
        <time>2013-05-12T17:33:19Z</time>
      </trkpt>
      <trkpt lat="40.7961490" lon="0.1319920">
        <ele>636.4</ele>
        <time>2013-05-12T17:33:21Z</time>
      </trkpt>
      <trkpt lat="40.7964720" lon="0.1316260">
        <ele>634.0</ele>
        <time>2013-05-12T17:33:26Z</time>
      </trkpt>
      <trkpt lat="40.7965280" lon="0.1315530">
        <ele>634.0</ele>
        <time>2013-05-12T17:33:27Z</time>
      </trkpt>
      <trkpt lat="40.7966970" lon="0.1313760">
        <ele>633.4</ele>
        <time>2013-05-12T17:33:30Z</time>
      </trkpt>
      <trkpt lat="40.7967540" lon="0.1313320">
        <ele>633.4</ele>
        <time>2013-05-12T17:33:31Z</time>
      </trkpt>
      <trkpt lat="40.7968130" lon="0.1312940">
        <ele>633.1</ele>
        <time>2013-05-12T17:33:32Z</time>
      </trkpt>
      <trkpt lat="40.7971080" lon="0.1310060">
        <ele>632.4</ele>
        <time>2013-05-12T17:33:38Z</time>
      </trkpt>
      <trkpt lat="40.7973170" lon="0.1307250">
        <ele>631.8</ele>
        <time>2013-05-12T17:33:43Z</time>
      </trkpt>
      <trkpt lat="40.7974950" lon="0.1303420">
        <ele>631.4</ele>
        <time>2013-05-12T17:33:49Z</time>
      </trkpt>
      <trkpt lat="40.7975330" lon="0.1301970">
        <ele>631.2</ele>
        <time>2013-05-12T17:33:51Z</time>
      </trkpt>
      <trkpt lat="40.7975110" lon="0.1299140">
        <ele>631.2</ele>
        <time>2013-05-12T17:33:55Z</time>
      </trkpt>
      <trkpt lat="40.7974900" lon="0.1298600">
        <ele>631.4</ele>
        <time>2013-05-12T17:33:56Z</time>
      </trkpt>
      <trkpt lat="40.7973270" lon="0.1294710">
        <ele>632.8</ele>
        <time>2013-05-12T17:34:05Z</time>
      </trkpt>
      <trkpt lat="40.7973090" lon="0.1292310">
        <ele>634.1</ele>
        <time>2013-05-12T17:34:11Z</time>
      </trkpt>
      <trkpt lat="40.7974410" lon="0.1290350">
        <ele>633.9</ele>
        <time>2013-05-12T17:34:16Z</time>
      </trkpt>
      <trkpt lat="40.7976070" lon="0.1290370">
        <ele>634.2</ele>
        <time>2013-05-12T17:34:20Z</time>
      </trkpt>
      <trkpt lat="40.7978860" lon="0.1290260">
        <ele>634.3</ele>
        <time>2013-05-12T17:34:26Z</time>
      </trkpt>
      <trkpt lat="40.7980330" lon="0.1289950">
        <ele>634.4</ele>
        <time>2013-05-12T17:34:29Z</time>
      </trkpt>
      <trkpt lat="40.7983810" lon="0.1290540">
        <ele>634.4</ele>
        <time>2013-05-12T17:34:36Z</time>
      </trkpt>
      <trkpt lat="40.7986400" lon="0.1291930">
        <ele>633.9</ele>
        <time>2013-05-12T17:34:42Z</time>
      </trkpt>
      <trkpt lat="40.7987800" lon="0.1293110">
        <ele>632.9</ele>
        <time>2013-05-12T17:34:46Z</time>
      </trkpt>
      <trkpt lat="40.7988530" lon="0.1293940">
        <ele>632.4</ele>
        <time>2013-05-12T17:34:48Z</time>
      </trkpt>
      <trkpt lat="40.7990810" lon="0.1296050">
        <ele>631.1</ele>
        <time>2013-05-12T17:34:53Z</time>
      </trkpt>
      <trkpt lat="40.7993030" lon="0.1297120">
        <ele>632.2</ele>
        <time>2013-05-12T17:34:59Z</time>
      </trkpt>
      <trkpt lat="40.7994940" lon="0.1296490">
        <ele>632.6</ele>
        <time>2013-05-12T17:35:05Z</time>
      </trkpt>
      <trkpt lat="40.7997120" lon="0.1295390">
        <ele>632.4</ele>
        <time>2013-05-12T17:35:12Z</time>
      </trkpt>
      <trkpt lat="40.7999680" lon="0.1294410">
        <ele>631.8</ele>
        <time>2013-05-12T17:35:19Z</time>
      </trkpt>
      <trkpt lat="40.8000490" lon="0.1294310">
        <ele>631.8</ele>
        <time>2013-05-12T17:35:21Z</time>
      </trkpt>
      <trkpt lat="40.8000900" lon="0.1294310">
        <ele>631.9</ele>
        <time>2013-05-12T17:35:22Z</time>
      </trkpt>
      <trkpt lat="40.8002920" lon="0.1294500">
        <ele>631.8</ele>
        <time>2013-05-12T17:35:27Z</time>
      </trkpt>
      <trkpt lat="40.8006930" lon="0.1294800">
        <ele>632.7</ele>
        <time>2013-05-12T17:35:37Z</time>
      </trkpt>
      <trkpt lat="40.8007290" lon="0.1294640">
        <ele>632.9</ele>
        <time>2013-05-12T17:35:38Z</time>
      </trkpt>
      <trkpt lat="40.8008570" lon="0.1293200">
        <ele>632.7</ele>
        <time>2013-05-12T17:35:42Z</time>
      </trkpt>
      <trkpt lat="40.8010370" lon="0.1289320">
        <ele>630.0</ele>
        <time>2013-05-12T17:35:49Z</time>
      </trkpt>
      <trkpt lat="40.8012200" lon="0.1286560">
        <ele>629.5</ele>
        <time>2013-05-12T17:35:56Z</time>
      </trkpt>
      <trkpt lat="40.8014520" lon="0.1284580">
        <ele>627.9</ele>
        <time>2013-05-12T17:36:01Z</time>
      </trkpt>
      <trkpt lat="40.8017660" lon="0.1282240">
        <ele>625.5</ele>
        <time>2013-05-12T17:36:06Z</time>
      </trkpt>
      <trkpt lat="40.8018490" lon="0.1281660">
        <ele>624.5</ele>
        <time>2013-05-12T17:36:08Z</time>
      </trkpt>
      <trkpt lat="40.8018740" lon="0.1281500">
        <ele>624.1</ele>
        <time>2013-05-12T17:36:09Z</time>
      </trkpt>
      <trkpt lat="40.8018810" lon="0.1281400">
        <ele>623.5</ele>
        <time>2013-05-12T17:36:11Z</time>
      </trkpt>
      <trkpt lat="40.8019250" lon="0.1281140">
        <ele>623.5</ele>
        <time>2013-05-12T17:39:08Z</time>
      </trkpt>
      <trkpt lat="40.8019340" lon="0.1280990">
        <ele>623.5</ele>
        <time>2013-05-12T17:39:09Z</time>
      </trkpt>
      <trkpt lat="40.8020170" lon="0.1280100">
        <ele>623.8</ele>
        <time>2013-05-12T17:39:16Z</time>
      </trkpt>
      <trkpt lat="40.8020930" lon="0.1279230">
        <ele>624.1</ele>
        <time>2013-05-12T17:39:21Z</time>
      </trkpt>
      <trkpt lat="40.8022440" lon="0.1277700">
        <ele>624.3</ele>
        <time>2013-05-12T17:39:28Z</time>
      </trkpt>
      <trkpt lat="40.8023780" lon="0.1275950">
        <ele>624.9</ele>
        <time>2013-05-12T17:39:35Z</time>
      </trkpt>
      <trkpt lat="40.8024820" lon="0.1274880">
        <ele>625.6</ele>
        <time>2013-05-12T17:39:40Z</time>
      </trkpt>
      <trkpt lat="40.8026110" lon="0.1274030">
        <ele>625.9</ele>
        <time>2013-05-12T17:39:44Z</time>
      </trkpt>
      <trkpt lat="40.8027130" lon="0.1273350">
        <ele>625.6</ele>
        <time>2013-05-12T17:39:47Z</time>
      </trkpt>
      <trkpt lat="40.8028800" lon="0.1272260">
        <ele>625.1</ele>
        <time>2013-05-12T17:39:51Z</time>
      </trkpt>
      <trkpt lat="40.8030510" lon="0.1271130">
        <ele>624.6</ele>
        <time>2013-05-12T17:39:55Z</time>
      </trkpt>
      <trkpt lat="40.8033110" lon="0.1269140">
        <ele>625.2</ele>
        <time>2013-05-12T17:40:02Z</time>
      </trkpt>
      <trkpt lat="40.8034540" lon="0.1268330">
        <ele>625.6</ele>
        <time>2013-05-12T17:40:06Z</time>
      </trkpt>
      <trkpt lat="40.8036150" lon="0.1268400">
        <ele>625.7</ele>
        <time>2013-05-12T17:40:10Z</time>
      </trkpt>
      <trkpt lat="40.8036560" lon="0.1269850">
        <ele>625.7</ele>
        <time>2013-05-12T17:40:13Z</time>
      </trkpt>
      <trkpt lat="40.8036600" lon="0.1270380">
        <ele>625.6</ele>
        <time>2013-05-12T17:40:14Z</time>
      </trkpt>
      <trkpt lat="40.8036790" lon="0.1274500">
        <ele>625.1</ele>
        <time>2013-05-12T17:40:21Z</time>
      </trkpt>
      <trkpt lat="40.8037960" lon="0.1277060">
        <ele>625.4</ele>
        <time>2013-05-12T17:40:26Z</time>
      </trkpt>
      <trkpt lat="40.8039200" lon="0.1278690">
        <ele>625.8</ele>
        <time>2013-05-12T17:40:30Z</time>
      </trkpt>
      <trkpt lat="40.8039900" lon="0.1280800">
        <ele>625.4</ele>
        <time>2013-05-12T17:40:34Z</time>
      </trkpt>
      <trkpt lat="40.8039950" lon="0.1282570">
        <ele>625.7</ele>
        <time>2013-05-12T17:40:37Z</time>
      </trkpt>
      <trkpt lat="40.8039370" lon="0.1285440">
        <ele>626.3</ele>
        <time>2013-05-12T17:40:42Z</time>
      </trkpt>
      <trkpt lat="40.8039050" lon="0.1286540">
        <ele>626.5</ele>
        <time>2013-05-12T17:40:44Z</time>
      </trkpt>
      <trkpt lat="40.8037310" lon="0.1289400">
        <ele>626.9</ele>
        <time>2013-05-12T17:40:50Z</time>
      </trkpt>
      <trkpt lat="40.8036970" lon="0.1289800">
        <ele>626.9</ele>
        <time>2013-05-12T17:40:51Z</time>
      </trkpt>
      <trkpt lat="40.8035710" lon="0.1291010">
        <ele>626.8</ele>
        <time>2013-05-12T17:40:54Z</time>
      </trkpt>
      <trkpt lat="40.8034150" lon="0.1293530">
        <ele>627.1</ele>
        <time>2013-05-12T17:40:59Z</time>
      </trkpt>
      <trkpt lat="40.8033520" lon="0.1295150">
        <ele>627.2</ele>
        <time>2013-05-12T17:41:02Z</time>
      </trkpt>
      <trkpt lat="40.8032630" lon="0.1299710">
        <ele>627.4</ele>
        <time>2013-05-12T17:41:10Z</time>
      </trkpt>
      <trkpt lat="40.8032820" lon="0.1302180">
        <ele>627.0</ele>
        <time>2013-05-12T17:41:15Z</time>
      </trkpt>
      <trkpt lat="40.8033830" lon="0.1304890">
        <ele>627.0</ele>
        <time>2013-05-12T17:41:21Z</time>
      </trkpt>
      <trkpt lat="40.8035290" lon="0.1306990">
        <ele>626.9</ele>
        <time>2013-05-12T17:41:26Z</time>
      </trkpt>
      <trkpt lat="40.8036460" lon="0.1308900">
        <ele>626.9</ele>
        <time>2013-05-12T17:41:30Z</time>
      </trkpt>
      <trkpt lat="40.8038890" lon="0.1312080">
        <ele>626.4</ele>
        <time>2013-05-12T17:41:37Z</time>
      </trkpt>
      <trkpt lat="40.8040780" lon="0.1312940">
        <ele>626.0</ele>
        <time>2013-05-12T17:41:41Z</time>
      </trkpt>
      <trkpt lat="40.8042780" lon="0.1314990">
        <ele>626.1</ele>
        <time>2013-05-12T17:41:46Z</time>
      </trkpt>
      <trkpt lat="40.8043130" lon="0.1316280">
        <ele>625.6</ele>
        <time>2013-05-12T17:41:48Z</time>
      </trkpt>
      <trkpt lat="40.8043370" lon="0.1317650">
        <ele>625.4</ele>
        <time>2013-05-12T17:41:50Z</time>
      </trkpt>
      <trkpt lat="40.8044970" lon="0.1319920">
        <ele>625.1</ele>
        <time>2013-05-12T17:41:55Z</time>
      </trkpt>
      <trkpt lat="40.8046280" lon="0.1319730">
        <ele>625.4</ele>
        <time>2013-05-12T17:41:58Z</time>
      </trkpt>
      <trkpt lat="40.8047600" lon="0.1319310">
        <ele>625.6</ele>
        <time>2013-05-12T17:42:01Z</time>
      </trkpt>
      <trkpt lat="40.8049480" lon="0.1319520">
        <ele>625.7</ele>
        <time>2013-05-12T17:42:05Z</time>
      </trkpt>
      <trkpt lat="40.8051680" lon="0.1320340">
        <ele>625.9</ele>
        <time>2013-05-12T17:42:10Z</time>
      </trkpt>
      <trkpt lat="40.8054860" lon="0.1321250">
        <ele>626.3</ele>
        <time>2013-05-12T17:42:17Z</time>
      </trkpt>
      <trkpt lat="40.8056090" lon="0.1321770">
        <ele>626.5</ele>
        <time>2013-05-12T17:42:20Z</time>
      </trkpt>
      <trkpt lat="40.8057730" lon="0.1322750">
        <ele>626.8</ele>
        <time>2013-05-12T17:42:24Z</time>
      </trkpt>
      <trkpt lat="40.8059030" lon="0.1322930">
        <ele>626.9</ele>
        <time>2013-05-12T17:42:27Z</time>
      </trkpt>
      <trkpt lat="40.8060780" lon="0.1322500">
        <ele>626.7</ele>
        <time>2013-05-12T17:42:31Z</time>
      </trkpt>
      <trkpt lat="40.8062430" lon="0.1322310">
        <ele>626.2</ele>
        <time>2013-05-12T17:42:34Z</time>
      </trkpt>
      <trkpt lat="40.8064520" lon="0.1322420">
        <ele>626.0</ele>
        <time>2013-05-12T17:42:38Z</time>
      </trkpt>
      <trkpt lat="40.8066160" lon="0.1322890">
        <ele>625.9</ele>
        <time>2013-05-12T17:42:41Z</time>
      </trkpt>
      <trkpt lat="40.8068240" lon="0.1322530">
        <ele>625.8</ele>
        <time>2013-05-12T17:42:45Z</time>
      </trkpt>
      <trkpt lat="40.8069810" lon="0.1320670">
        <ele>626.2</ele>
        <time>2013-05-12T17:42:49Z</time>
      </trkpt>
      <trkpt lat="40.8071210" lon="0.1318720">
        <ele>626.4</ele>
        <time>2013-05-12T17:42:53Z</time>
      </trkpt>
      <trkpt lat="40.8071530" lon="0.1317480">
        <ele>626.6</ele>
        <time>2013-05-12T17:42:55Z</time>
      </trkpt>
      <trkpt lat="40.8071530" lon="0.1311530">
        <ele>627.1</ele>
        <time>2013-05-12T17:43:04Z</time>
      </trkpt>
      <trkpt lat="40.8071360" lon="0.1310240">
        <ele>627.1</ele>
        <time>2013-05-12T17:43:06Z</time>
      </trkpt>
      <trkpt lat="40.8070150" lon="0.1307600">
        <ele>627.4</ele>
        <time>2013-05-12T17:43:11Z</time>
      </trkpt>
      <trkpt lat="40.8067360" lon="0.1303920">
        <ele>628.5</ele>
        <time>2013-05-12T17:43:20Z</time>
      </trkpt>
      <trkpt lat="40.8066960" lon="0.1301230">
        <ele>628.7</ele>
        <time>2013-05-12T17:43:25Z</time>
      </trkpt>
      <trkpt lat="40.8067590" lon="0.1298460">
        <ele>628.7</ele>
        <time>2013-05-12T17:43:30Z</time>
      </trkpt>
      <trkpt lat="40.8067910" lon="0.1297370">
        <ele>628.6</ele>
        <time>2013-05-12T17:43:32Z</time>
      </trkpt>
      <trkpt lat="40.8068000" lon="0.1293610">
        <ele>629.7</ele>
        <time>2013-05-12T17:43:39Z</time>
      </trkpt>
      <trkpt lat="40.8067970" lon="0.1292020">
        <ele>630.0</ele>
        <time>2013-05-12T17:43:42Z</time>
      </trkpt>
      <trkpt lat="40.8066890" lon="0.1287520">
        <ele>630.3</ele>
        <time>2013-05-12T17:43:50Z</time>
      </trkpt>
      <trkpt lat="40.8065640" lon="0.1284550">
        <ele>631.0</ele>
        <time>2013-05-12T17:43:56Z</time>
      </trkpt>
      <trkpt lat="40.8064110" lon="0.1281090">
        <ele>632.4</ele>
        <time>2013-05-12T17:44:03Z</time>
      </trkpt>
      <trkpt lat="40.8063890" lon="0.1280630">
        <ele>632.7</ele>
        <time>2013-05-12T17:44:04Z</time>
      </trkpt>
      <trkpt lat="40.8063570" lon="0.1277980">
        <ele>633.5</ele>
        <time>2013-05-12T17:44:09Z</time>
      </trkpt>
      <trkpt lat="40.8064580" lon="0.1276990">
        <ele>633.9</ele>
        <time>2013-05-12T17:44:12Z</time>
      </trkpt>
      <trkpt lat="40.8065910" lon="0.1277340">
        <ele>633.2</ele>
        <time>2013-05-12T17:44:15Z</time>
      </trkpt>
      <trkpt lat="40.8066330" lon="0.1277500">
        <ele>633.1</ele>
        <time>2013-05-12T17:44:16Z</time>
      </trkpt>
      <trkpt lat="40.8070050" lon="0.1279240">
        <ele>633.3</ele>
        <time>2013-05-12T17:44:25Z</time>
      </trkpt>
      <trkpt lat="40.8071570" lon="0.1280560">
        <ele>633.6</ele>
        <time>2013-05-12T17:44:29Z</time>
      </trkpt>
      <trkpt lat="40.8074270" lon="0.1284120">
        <ele>632.4</ele>
        <time>2013-05-12T17:44:37Z</time>
      </trkpt>
      <trkpt lat="40.8076770" lon="0.1287380">
        <ele>631.9</ele>
        <time>2013-05-12T17:44:44Z</time>
      </trkpt>
      <trkpt lat="40.8077210" lon="0.1287850">
        <ele>631.8</ele>
        <time>2013-05-12T17:44:45Z</time>
      </trkpt>
      <trkpt lat="40.8078080" lon="0.1288880">
        <ele>631.6</ele>
        <time>2013-05-12T17:44:47Z</time>
      </trkpt>
      <trkpt lat="40.8080090" lon="0.1291640">
        <ele>630.6</ele>
        <time>2013-05-12T17:44:52Z</time>
      </trkpt>
      <trkpt lat="40.8082110" lon="0.1294210">
        <ele>629.8</ele>
        <time>2013-05-12T17:44:57Z</time>
      </trkpt>
      <trkpt lat="40.8083250" lon="0.1295710">
        <ele>629.8</ele>
        <time>2013-05-12T17:45:00Z</time>
      </trkpt>
      <trkpt lat="40.8083620" lon="0.1296230">
        <ele>629.7</ele>
        <time>2013-05-12T17:45:01Z</time>
      </trkpt>
      <trkpt lat="40.8083990" lon="0.1296750">
        <ele>629.6</ele>
        <time>2013-05-12T17:45:02Z</time>
      </trkpt>
      <trkpt lat="40.8086680" lon="0.1300880">
        <ele>628.7</ele>
        <time>2013-05-12T17:45:10Z</time>
      </trkpt>
      <trkpt lat="40.8087470" lon="0.1301700">
        <ele>628.3</ele>
        <time>2013-05-12T17:45:12Z</time>
      </trkpt>
      <trkpt lat="40.8089840" lon="0.1303060">
        <ele>627.7</ele>
        <time>2013-05-12T17:45:17Z</time>
      </trkpt>
      <trkpt lat="40.8091920" lon="0.1305270">
        <ele>627.2</ele>
        <time>2013-05-12T17:45:22Z</time>
      </trkpt>
      <trkpt lat="40.8093420" lon="0.1307300">
        <ele>626.4</ele>
        <time>2013-05-12T17:45:26Z</time>
      </trkpt>
      <trkpt lat="40.8097320" lon="0.1310460">
        <ele>625.9</ele>
        <time>2013-05-12T17:45:35Z</time>
      </trkpt>
      <trkpt lat="40.8098810" lon="0.1311640">
        <ele>626.6</ele>
        <time>2013-05-12T17:45:39Z</time>
      </trkpt>
      <trkpt lat="40.8099870" lon="0.1313850">
        <ele>627.2</ele>
        <time>2013-05-12T17:45:44Z</time>
      </trkpt>
      <trkpt lat="40.8100150" lon="0.1316280">
        <ele>627.4</ele>
        <time>2013-05-12T17:45:49Z</time>
      </trkpt>
      <trkpt lat="40.8100270" lon="0.1316750">
        <ele>627.5</ele>
        <time>2013-05-12T17:45:50Z</time>
      </trkpt>
      <trkpt lat="40.8101230" lon="0.1318590">
        <ele>627.7</ele>
        <time>2013-05-12T17:45:54Z</time>
      </trkpt>
      <trkpt lat="40.8102200" lon="0.1319860">
        <ele>627.6</ele>
        <time>2013-05-12T17:45:57Z</time>
      </trkpt>
      <trkpt lat="40.8103000" lon="0.1320490">
        <ele>627.6</ele>
        <time>2013-05-12T17:45:59Z</time>
      </trkpt>
      <trkpt lat="40.8105290" lon="0.1320950">
        <ele>628.0</ele>
        <time>2013-05-12T17:46:04Z</time>
      </trkpt>
      <trkpt lat="40.8107960" lon="0.1321770">
        <ele>628.2</ele>
        <time>2013-05-12T17:46:10Z</time>
      </trkpt>
      <trkpt lat="40.8109650" lon="0.1323390">
        <ele>627.6</ele>
        <time>2013-05-12T17:46:14Z</time>
      </trkpt>
      <trkpt lat="40.8110850" lon="0.1326670">
        <ele>626.2</ele>
        <time>2013-05-12T17:46:19Z</time>
      </trkpt>
      <trkpt lat="40.8111000" lon="0.1327320">
        <ele>625.9</ele>
        <time>2013-05-12T17:46:20Z</time>
      </trkpt>
      <trkpt lat="40.8111370" lon="0.1328570">
        <ele>625.9</ele>
        <time>2013-05-12T17:46:22Z</time>
      </trkpt>
      <trkpt lat="40.8113140" lon="0.1330390">
        <ele>626.3</ele>
        <time>2013-05-12T17:46:27Z</time>
      </trkpt>
      <trkpt lat="40.8113520" lon="0.1330410">
        <ele>626.4</ele>
        <time>2013-05-12T17:46:28Z</time>
      </trkpt>
      <trkpt lat="40.8115910" lon="0.1330150">
        <ele>627.5</ele>
        <time>2013-05-12T17:46:34Z</time>
      </trkpt>
      <trkpt lat="40.8117800" lon="0.1330960">
        <ele>628.3</ele>
        <time>2013-05-12T17:46:39Z</time>
      </trkpt>
      <trkpt lat="40.8118100" lon="0.1331330">
        <ele>628.4</ele>
        <time>2013-05-12T17:46:40Z</time>
      </trkpt>
      <trkpt lat="40.8118360" lon="0.1331780">
        <ele>628.4</ele>
        <time>2013-05-12T17:46:41Z</time>
      </trkpt>
      <trkpt lat="40.8120760" lon="0.1335970">
        <ele>629.4</ele>
        <time>2013-05-12T17:46:50Z</time>
      </trkpt>
      <trkpt lat="40.8123190" lon="0.1338460">
        <ele>630.2</ele>
        <time>2013-05-12T17:46:57Z</time>
      </trkpt>
      <trkpt lat="40.8124140" lon="0.1340640">
        <ele>629.9</ele>
        <time>2013-05-12T17:47:01Z</time>
      </trkpt>
      <trkpt lat="40.8124820" lon="0.1343910">
        <ele>628.2</ele>
        <time>2013-05-12T17:47:05Z</time>
      </trkpt>
      <trkpt lat="40.8126430" lon="0.1346100">
        <ele>626.3</ele>
        <time>2013-05-12T17:47:09Z</time>
      </trkpt>
      <trkpt lat="40.8128070" lon="0.1345820">
        <ele>625.9</ele>
        <time>2013-05-12T17:47:12Z</time>
      </trkpt>
      <trkpt lat="40.8129070" lon="0.1345360">
        <ele>626.1</ele>
        <time>2013-05-12T17:47:14Z</time>
      </trkpt>
      <trkpt lat="40.8129980" lon="0.1344950">
        <ele>626.4</ele>
        <time>2013-05-12T17:47:16Z</time>
      </trkpt>
      <trkpt lat="40.8132210" lon="0.1345140">
        <ele>627.2</ele>
        <time>2013-05-12T17:47:21Z</time>
      </trkpt>
      <trkpt lat="40.8133030" lon="0.1345830">
        <ele>627.1</ele>
        <time>2013-05-12T17:47:23Z</time>
      </trkpt>
      <trkpt lat="40.8133870" lon="0.1346630">
        <ele>627.0</ele>
        <time>2013-05-12T17:47:25Z</time>
      </trkpt>
      <trkpt lat="40.8136500" lon="0.1350300">
        <ele>626.1</ele>
        <time>2013-05-12T17:47:32Z</time>
      </trkpt>
      <trkpt lat="40.8138100" lon="0.1352360">
        <ele>625.9</ele>
        <time>2013-05-12T17:47:36Z</time>
      </trkpt>
      <trkpt lat="40.8139310" lon="0.1353760">
        <ele>625.8</ele>
        <time>2013-05-12T17:47:39Z</time>
      </trkpt>
      <trkpt lat="40.8142070" lon="0.1358850">
        <ele>626.4</ele>
        <time>2013-05-12T17:47:48Z</time>
      </trkpt>
      <trkpt lat="40.8143950" lon="0.1363340">
        <ele>626.1</ele>
        <time>2013-05-12T17:47:55Z</time>
      </trkpt>
      <trkpt lat="40.8144510" lon="0.1364640">
        <ele>626.1</ele>
        <time>2013-05-12T17:47:57Z</time>
      </trkpt>
      <trkpt lat="40.8146720" lon="0.1369590">
        <ele>626.0</ele>
        <time>2013-05-12T17:48:05Z</time>
      </trkpt>
      <trkpt lat="40.8148530" lon="0.1372060">
        <ele>626.2</ele>
        <time>2013-05-12T17:48:10Z</time>
      </trkpt>
      <trkpt lat="40.8151680" lon="0.1375750">
        <ele>627.1</ele>
        <time>2013-05-12T17:48:18Z</time>
      </trkpt>
      <trkpt lat="40.8152430" lon="0.1376590">
        <ele>627.4</ele>
        <time>2013-05-12T17:48:20Z</time>
      </trkpt>
      <trkpt lat="40.8153880" lon="0.1380040">
        <ele>627.3</ele>
        <time>2013-05-12T17:48:26Z</time>
      </trkpt>
      <trkpt lat="40.8155090" lon="0.1385090">
        <ele>625.5</ele>
        <time>2013-05-12T17:48:33Z</time>
      </trkpt>
      <trkpt lat="40.8156710" lon="0.1388200">
        <ele>624.9</ele>
        <time>2013-05-12T17:48:38Z</time>
      </trkpt>
      <trkpt lat="40.8157160" lon="0.1388630">
        <ele>624.9</ele>
        <time>2013-05-12T17:48:39Z</time>
      </trkpt>
      <trkpt lat="40.8161430" lon="0.1391870">
        <ele>625.2</ele>
        <time>2013-05-12T17:48:48Z</time>
      </trkpt>
      <trkpt lat="40.8164000" lon="0.1394620">
        <ele>624.8</ele>
        <time>2013-05-12T17:48:54Z</time>
      </trkpt>
      <trkpt lat="40.8166840" lon="0.1399220">
        <ele>624.9</ele>
        <time>2013-05-12T17:49:02Z</time>
      </trkpt>
      <trkpt lat="40.8168930" lon="0.1402410">
        <ele>625.1</ele>
        <time>2013-05-12T17:49:08Z</time>
      </trkpt>
      <trkpt lat="40.8169620" lon="0.1405570">
        <ele>625.2</ele>
        <time>2013-05-12T17:49:13Z</time>
      </trkpt>
      <trkpt lat="40.8169080" lon="0.1408280">
        <ele>625.2</ele>
        <time>2013-05-12T17:49:17Z</time>
      </trkpt>
      <trkpt lat="40.8169530" lon="0.1411790">
        <ele>625.2</ele>
        <time>2013-05-12T17:49:22Z</time>
      </trkpt>
      <trkpt lat="40.8170150" lon="0.1413680">
        <ele>625.1</ele>
        <time>2013-05-12T17:49:25Z</time>
      </trkpt>
      <trkpt lat="40.8171540" lon="0.1416530">
        <ele>625.4</ele>
        <time>2013-05-12T17:49:30Z</time>
      </trkpt>
      <trkpt lat="40.8172570" lon="0.1419610">
        <ele>625.8</ele>
        <time>2013-05-12T17:49:35Z</time>
      </trkpt>
      <trkpt lat="40.8173220" lon="0.1424580">
        <ele>626.4</ele>
        <time>2013-05-12T17:49:43Z</time>
      </trkpt>
      <trkpt lat="40.8173800" lon="0.1429410">
        <ele>626.9</ele>
        <time>2013-05-12T17:49:51Z</time>
      </trkpt>
      <trkpt lat="40.8173720" lon="0.1431660">
        <ele>627.2</ele>
        <time>2013-05-12T17:49:55Z</time>
      </trkpt>
      <trkpt lat="40.8173420" lon="0.1434140">
        <ele>627.9</ele>
        <time>2013-05-12T17:49:59Z</time>
      </trkpt>
      <trkpt lat="40.8173550" lon="0.1435890">
        <ele>628.4</ele>
        <time>2013-05-12T17:50:02Z</time>
      </trkpt>
      <trkpt lat="40.8174570" lon="0.1437960">
        <ele>628.4</ele>
        <time>2013-05-12T17:50:06Z</time>
      </trkpt>
      <trkpt lat="40.8175330" lon="0.1438880">
        <ele>628.4</ele>
        <time>2013-05-12T17:50:08Z</time>
      </trkpt>
      <trkpt lat="40.8176660" lon="0.1441120">
        <ele>628.1</ele>
        <time>2013-05-12T17:50:12Z</time>
      </trkpt>
      <trkpt lat="40.8178390" lon="0.1442570">
        <ele>627.8</ele>
        <time>2013-05-12T17:50:16Z</time>
      </trkpt>
      <trkpt lat="40.8179320" lon="0.1442340">
        <ele>627.6</ele>
        <time>2013-05-12T17:50:18Z</time>
      </trkpt>
      <trkpt lat="40.8181960" lon="0.1442240">
        <ele>627.2</ele>
        <time>2013-05-12T17:50:23Z</time>
      </trkpt>
      <trkpt lat="40.8182520" lon="0.1442590">
        <ele>627.1</ele>
        <time>2013-05-12T17:50:24Z</time>
      </trkpt>
      <trkpt lat="40.8184030" lon="0.1443720">
        <ele>626.5</ele>
        <time>2013-05-12T17:50:27Z</time>
      </trkpt>
      <trkpt lat="40.8186170" lon="0.1444260">
        <ele>626.3</ele>
        <time>2013-05-12T17:50:31Z</time>
      </trkpt>
      <trkpt lat="40.8187130" lon="0.1443980">
        <ele>626.2</ele>
        <time>2013-05-12T17:50:33Z</time>
      </trkpt>
      <trkpt lat="40.8189030" lon="0.1443170">
        <ele>626.0</ele>
        <time>2013-05-12T17:50:37Z</time>
      </trkpt>
      <trkpt lat="40.8191960" lon="0.1442100">
        <ele>625.8</ele>
        <time>2013-05-12T17:50:43Z</time>
      </trkpt>
      <trkpt lat="40.8192910" lon="0.1441920">
        <ele>626.0</ele>
        <time>2013-05-12T17:50:45Z</time>
      </trkpt>
      <trkpt lat="40.8194560" lon="0.1442400">
        <ele>626.5</ele>
        <time>2013-05-12T17:50:49Z</time>
      </trkpt>
      <trkpt lat="40.8196280" lon="0.1444190">
        <ele>627.9</ele>
        <time>2013-05-12T17:50:55Z</time>
      </trkpt>
      <trkpt lat="40.8197030" lon="0.1445710">
        <ele>629.1</ele>
        <time>2013-05-12T17:50:59Z</time>
      </trkpt>
      <trkpt lat="40.8197400" lon="0.1446640">
        <ele>629.3</ele>
        <time>2013-05-12T17:51:01Z</time>
      </trkpt>
      <trkpt lat="40.8197950" lon="0.1448080">
        <ele>629.6</ele>
        <time>2013-05-12T17:51:04Z</time>
      </trkpt>
      <trkpt lat="40.8199490" lon="0.1451990">
        <ele>630.1</ele>
        <time>2013-05-12T17:51:12Z</time>
      </trkpt>
      <trkpt lat="40.8200810" lon="0.1455700">
        <ele>631.3</ele>
        <time>2013-05-12T17:51:20Z</time>
      </trkpt>
      <trkpt lat="40.8201860" lon="0.1457690">
        <ele>632.5</ele>
        <time>2013-05-12T17:51:25Z</time>
      </trkpt>
      <trkpt lat="40.8202750" lon="0.1459590">
        <ele>633.6</ele>
        <time>2013-05-12T17:51:30Z</time>
      </trkpt>
      <trkpt lat="40.8204000" lon="0.1462390">
        <ele>635.0</ele>
        <time>2013-05-12T17:51:37Z</time>
      </trkpt>
      <trkpt lat="40.8205040" lon="0.1464920">
        <ele>635.4</ele>
        <time>2013-05-12T17:51:44Z</time>
      </trkpt>
      <trkpt lat="40.8206170" lon="0.1467510">
        <ele>636.1</ele>
        <time>2013-05-12T17:51:52Z</time>
      </trkpt>
      <trkpt lat="40.8207430" lon="0.1469380">
        <ele>636.8</ele>
        <time>2013-05-12T17:51:59Z</time>
      </trkpt>
      <trkpt lat="40.8208870" lon="0.1471740">
        <ele>637.5</ele>
        <time>2013-05-12T17:52:06Z</time>
      </trkpt>
      <trkpt lat="40.8208870" lon="0.1473460">
        <ele>637.7</ele>
        <time>2013-05-12T17:52:10Z</time>
      </trkpt>
      <trkpt lat="40.8209490" lon="0.1475110">
        <ele>638.6</ele>
        <time>2013-05-12T17:52:15Z</time>
      </trkpt>
      <trkpt lat="40.8210450" lon="0.1476640">
        <ele>640.3</ele>
        <time>2013-05-12T17:52:20Z</time>
      </trkpt>
      <trkpt lat="40.8211720" lon="0.1478850">
        <ele>641.7</ele>
        <time>2013-05-12T17:52:26Z</time>
      </trkpt>
      <trkpt lat="40.8213220" lon="0.1481870">
        <ele>643.1</ele>
        <time>2013-05-12T17:52:34Z</time>
      </trkpt>
      <trkpt lat="40.8215070" lon="0.1485770">
        <ele>644.3</ele>
        <time>2013-05-12T17:52:44Z</time>
      </trkpt>
      <trkpt lat="40.8216410" lon="0.1488940">
        <ele>645.9</ele>
        <time>2013-05-12T17:52:52Z</time>
      </trkpt>
      <trkpt lat="40.8217560" lon="0.1491550">
        <ele>647.5</ele>
        <time>2013-05-12T17:52:59Z</time>
      </trkpt>
      <trkpt lat="40.8219420" lon="0.1494690">
        <ele>649.4</ele>
        <time>2013-05-12T17:53:08Z</time>
      </trkpt>
      <trkpt lat="40.8221140" lon="0.1498080">
        <ele>651.1</ele>
        <time>2013-05-12T17:53:17Z</time>
      </trkpt>
      <trkpt lat="40.8222750" lon="0.1501710">
        <ele>652.3</ele>
        <time>2013-05-12T17:53:26Z</time>
      </trkpt>
      <trkpt lat="40.8224260" lon="0.1504500">
        <ele>652.9</ele>
        <time>2013-05-12T17:53:33Z</time>
      </trkpt>
      <trkpt lat="40.8226110" lon="0.1506820">
        <ele>653.9</ele>
        <time>2013-05-12T17:53:40Z</time>
      </trkpt>
      <trkpt lat="40.8228020" lon="0.1509140">
        <ele>654.8</ele>
        <time>2013-05-12T17:53:47Z</time>
      </trkpt>
      <trkpt lat="40.8230420" lon="0.1511910">
        <ele>655.4</ele>
        <time>2013-05-12T17:53:55Z</time>
      </trkpt>
      <trkpt lat="40.8232760" lon="0.1514570">
        <ele>654.0</ele>
        <time>2013-05-12T17:54:01Z</time>
      </trkpt>
      <trkpt lat="40.8234770" lon="0.1517920">
        <ele>652.4</ele>
        <time>2013-05-12T17:54:06Z</time>
      </trkpt>
      <trkpt lat="40.8235150" lon="0.1518720">
        <ele>652.1</ele>
        <time>2013-05-12T17:54:07Z</time>
      </trkpt>
      <trkpt lat="40.8236090" lon="0.1521310">
        <ele>651.0</ele>
        <time>2013-05-12T17:54:10Z</time>
      </trkpt>
      <trkpt lat="40.8237360" lon="0.1524780">
        <ele>649.6</ele>
        <time>2013-05-12T17:54:14Z</time>
      </trkpt>
      <trkpt lat="40.8238680" lon="0.1528440">
        <ele>648.5</ele>
        <time>2013-05-12T17:54:18Z</time>
      </trkpt>
      <trkpt lat="40.8239010" lon="0.1529350">
        <ele>648.1</ele>
        <time>2013-05-12T17:54:19Z</time>
      </trkpt>
      <trkpt lat="40.8239330" lon="0.1530240">
        <ele>648.0</ele>
        <time>2013-05-12T17:54:20Z</time>
      </trkpt>
      <trkpt lat="40.8240750" lon="0.1535810">
        <ele>645.8</ele>
        <time>2013-05-12T17:54:26Z</time>
      </trkpt>
      <trkpt lat="40.8241610" lon="0.1538660">
        <ele>644.3</ele>
        <time>2013-05-12T17:54:29Z</time>
      </trkpt>
      <trkpt lat="40.8242880" lon="0.1545020">
        <ele>641.5</ele>
        <time>2013-05-12T17:54:35Z</time>
      </trkpt>
      <trkpt lat="40.8243220" lon="0.1547310">
        <ele>641.0</ele>
        <time>2013-05-12T17:54:37Z</time>
      </trkpt>
      <trkpt lat="40.8244810" lon="0.1551580">
        <ele>638.7</ele>
        <time>2013-05-12T17:54:41Z</time>
      </trkpt>
      <trkpt lat="40.8245720" lon="0.1553610">
        <ele>638.3</ele>
        <time>2013-05-12T17:54:43Z</time>
      </trkpt>
      <trkpt lat="40.8246590" lon="0.1555700">
        <ele>637.7</ele>
        <time>2013-05-12T17:54:45Z</time>
      </trkpt>
      <trkpt lat="40.8247840" lon="0.1562140">
        <ele>635.0</ele>
        <time>2013-05-12T17:54:50Z</time>
      </trkpt>
      <trkpt lat="40.8247770" lon="0.1568610">
        <ele>632.1</ele>
        <time>2013-05-12T17:54:55Z</time>
      </trkpt>
      <trkpt lat="40.8247520" lon="0.1572550">
        <ele>631.6</ele>
        <time>2013-05-12T17:54:59Z</time>
      </trkpt>
      <trkpt lat="40.8247540" lon="0.1573400">
        <ele>631.8</ele>
        <time>2013-05-12T17:55:00Z</time>
      </trkpt>
      <trkpt lat="40.8248810" lon="0.1578910">
        <ele>630.4</ele>
        <time>2013-05-12T17:55:06Z</time>
      </trkpt>
      <trkpt lat="40.8250060" lon="0.1583900">
        <ele>628.1</ele>
        <time>2013-05-12T17:55:11Z</time>
      </trkpt>
      <trkpt lat="40.8250600" lon="0.1585840">
        <ele>627.6</ele>
        <time>2013-05-12T17:55:13Z</time>
      </trkpt>
      <trkpt lat="40.8252110" lon="0.1590510">
        <ele>626.4</ele>
        <time>2013-05-12T17:55:18Z</time>
      </trkpt>
      <trkpt lat="40.8253250" lon="0.1594100">
        <ele>625.3</ele>
        <time>2013-05-12T17:55:22Z</time>
      </trkpt>
      <trkpt lat="40.8253550" lon="0.1594980">
        <ele>625.2</ele>
        <time>2013-05-12T17:55:23Z</time>
      </trkpt>
      <trkpt lat="40.8255480" lon="0.1600020">
        <ele>624.2</ele>
        <time>2013-05-12T17:55:29Z</time>
      </trkpt>
      <trkpt lat="40.8258390" lon="0.1606860">
        <ele>621.4</ele>
        <time>2013-05-12T17:55:37Z</time>
      </trkpt>
      <trkpt lat="40.8260300" lon="0.1613020">
        <ele>618.2</ele>
        <time>2013-05-12T17:55:43Z</time>
      </trkpt>
      <trkpt lat="40.8261550" lon="0.1617490">
        <ele>617.2</ele>
        <time>2013-05-12T17:55:47Z</time>
      </trkpt>
      <trkpt lat="40.8263420" lon="0.1622770">
        <ele>614.7</ele>
        <time>2013-05-12T17:55:52Z</time>
      </trkpt>
      <trkpt lat="40.8264750" lon="0.1624740">
        <ele>612.6</ele>
        <time>2013-05-12T17:55:55Z</time>
      </trkpt>
      <trkpt lat="40.8265320" lon="0.1625270">
        <ele>612.3</ele>
        <time>2013-05-12T17:55:56Z</time>
      </trkpt>
      <trkpt lat="40.8268610" lon="0.1626840">
        <ele>611.9</ele>
        <time>2013-05-12T17:56:01Z</time>
      </trkpt>
      <trkpt lat="40.8270190" lon="0.1628640">
        <ele>611.6</ele>
        <time>2013-05-12T17:56:04Z</time>
      </trkpt>
      <trkpt lat="40.8271010" lon="0.1630000">
        <ele>611.5</ele>
        <time>2013-05-12T17:56:06Z</time>
      </trkpt>
      <trkpt lat="40.8273820" lon="0.1633050">
        <ele>611.8</ele>
        <time>2013-05-12T17:56:12Z</time>
      </trkpt>
      <trkpt lat="40.8275180" lon="0.1634590">
        <ele>612.2</ele>
        <time>2013-05-12T17:56:15Z</time>
      </trkpt>
      <trkpt lat="40.8277170" lon="0.1639510">
        <ele>612.3</ele>
        <time>2013-05-12T17:56:22Z</time>
      </trkpt>
      <trkpt lat="40.8277720" lon="0.1644460">
        <ele>611.7</ele>
        <time>2013-05-12T17:56:28Z</time>
      </trkpt>
      <trkpt lat="40.8278600" lon="0.1647920">
        <ele>611.1</ele>
        <time>2013-05-12T17:56:32Z</time>
      </trkpt>
      <trkpt lat="40.8280460" lon="0.1652480">
        <ele>610.5</ele>
        <time>2013-05-12T17:56:37Z</time>
      </trkpt>
      <trkpt lat="40.8281850" lon="0.1657470">
        <ele>607.5</ele>
        <time>2013-05-12T17:56:42Z</time>
      </trkpt>
      <trkpt lat="40.8283260" lon="0.1663420">
        <ele>603.9</ele>
        <time>2013-05-12T17:56:47Z</time>
      </trkpt>
      <trkpt lat="40.8284800" lon="0.1666850">
        <ele>601.6</ele>
        <time>2013-05-12T17:56:50Z</time>
      </trkpt>
      <trkpt lat="40.8285200" lon="0.1668030">
        <ele>601.2</ele>
        <time>2013-05-12T17:56:51Z</time>
      </trkpt>
      <trkpt lat="40.8286190" lon="0.1671450">
        <ele>600.7</ele>
        <time>2013-05-12T17:56:54Z</time>
      </trkpt>
      <trkpt lat="40.8288900" lon="0.1676510">
        <ele>598.9</ele>
        <time>2013-05-12T17:57:00Z</time>
      </trkpt>
      <trkpt lat="40.8289870" lon="0.1678160">
        <ele>598.4</ele>
        <time>2013-05-12T17:57:02Z</time>
      </trkpt>
      <trkpt lat="40.8291120" lon="0.1682110">
        <ele>597.0</ele>
        <time>2013-05-12T17:57:06Z</time>
      </trkpt>
      <trkpt lat="40.8292230" lon="0.1688070">
        <ele>594.8</ele>
        <time>2013-05-12T17:57:11Z</time>
      </trkpt>
      <trkpt lat="40.8294620" lon="0.1695410">
        <ele>591.0</ele>
        <time>2013-05-12T17:57:17Z</time>
      </trkpt>
      <trkpt lat="40.8295070" lon="0.1696620">
        <ele>590.7</ele>
        <time>2013-05-12T17:57:18Z</time>
      </trkpt>
      <trkpt lat="40.8296380" lon="0.1703170">
        <ele>587.2</ele>
        <time>2013-05-12T17:57:23Z</time>
      </trkpt>
      <trkpt lat="40.8297630" lon="0.1710960">
        <ele>583.7</ele>
        <time>2013-05-12T17:57:29Z</time>
      </trkpt>
      <trkpt lat="40.8298510" lon="0.1714470">
        <ele>582.3</ele>
        <time>2013-05-12T17:57:32Z</time>
      </trkpt>
      <trkpt lat="40.8299330" lon="0.1716570">
        <ele>581.6</ele>
        <time>2013-05-12T17:57:34Z</time>
      </trkpt>
      <trkpt lat="40.8299850" lon="0.1720790">
        <ele>578.9</ele>
        <time>2013-05-12T17:57:38Z</time>
      </trkpt>
      <trkpt lat="40.8300100" lon="0.1722940">
        <ele>578.2</ele>
        <time>2013-05-12T17:57:40Z</time>
      </trkpt>
      <trkpt lat="40.8300710" lon="0.1729640">
        <ele>574.8</ele>
        <time>2013-05-12T17:57:46Z</time>
      </trkpt>
      <trkpt lat="40.8301030" lon="0.1735390">
        <ele>573.2</ele>
        <time>2013-05-12T17:57:51Z</time>
      </trkpt>
      <trkpt lat="40.8301420" lon="0.1739840">
        <ele>571.9</ele>
        <time>2013-05-12T17:57:55Z</time>
      </trkpt>
      <trkpt lat="40.8301460" lon="0.1742200">
        <ele>570.3</ele>
        <time>2013-05-12T17:57:57Z</time>
      </trkpt>
      <trkpt lat="40.8301460" lon="0.1743420">
        <ele>569.2</ele>
        <time>2013-05-12T17:57:58Z</time>
      </trkpt>
      <trkpt lat="40.8301470" lon="0.1744550">
        <ele>567.8</ele>
        <time>2013-05-12T17:57:59Z</time>
      </trkpt>
      <trkpt lat="40.8302370" lon="0.1747390">
        <ele>565.0</ele>
        <time>2013-05-12T17:58:02Z</time>
      </trkpt>
      <trkpt lat="40.8303370" lon="0.1750170">
        <ele>563.5</ele>
        <time>2013-05-12T17:58:05Z</time>
      </trkpt>
      <trkpt lat="40.8303210" lon="0.1752140">
        <ele>562.9</ele>
        <time>2013-05-12T17:58:07Z</time>
      </trkpt>
      <trkpt lat="40.8302070" lon="0.1757020">
        <ele>561.7</ele>
        <time>2013-05-12T17:58:12Z</time>
      </trkpt>
      <trkpt lat="40.8300920" lon="0.1759960">
        <ele>559.6</ele>
        <time>2013-05-12T17:58:15Z</time>
      </trkpt>
      <trkpt lat="40.8300920" lon="0.1761150">
        <ele>559.3</ele>
        <time>2013-05-12T17:58:16Z</time>
      </trkpt>
      <trkpt lat="40.8301270" lon="0.1764630">
        <ele>558.0</ele>
        <time>2013-05-12T17:58:19Z</time>
      </trkpt>
      <trkpt lat="40.8301780" lon="0.1767750">
        <ele>556.6</ele>
        <time>2013-05-12T17:58:22Z</time>
      </trkpt>
      <trkpt lat="40.8304450" lon="0.1774350">
        <ele>554.2</ele>
        <time>2013-05-12T17:58:29Z</time>
      </trkpt>
      <trkpt lat="40.8306620" lon="0.1779220">
        <ele>550.1</ele>
        <time>2013-05-12T17:58:34Z</time>
      </trkpt>
      <trkpt lat="40.8308540" lon="0.1783080">
        <ele>546.9</ele>
        <time>2013-05-12T17:58:38Z</time>
      </trkpt>
      <trkpt lat="40.8309960" lon="0.1787200">
        <ele>544.5</ele>
        <time>2013-05-12T17:58:42Z</time>
      </trkpt>
      <trkpt lat="40.8310700" lon="0.1789410">
        <ele>545.4</ele>
        <time>2013-05-12T17:58:45Z</time>
      </trkpt>
      <trkpt lat="40.8311970" lon="0.1791290">
        <ele>546.7</ele>
        <time>2013-05-12T17:58:49Z</time>
      </trkpt>
      <trkpt lat="40.8312390" lon="0.1791810">
        <ele>546.7</ele>
        <time>2013-05-12T17:58:50Z</time>
      </trkpt>
      <trkpt lat="40.8312530" lon="0.1792240">
        <ele>546.7</ele>
        <time>2013-05-12T17:58:51Z</time>
      </trkpt>
      <trkpt lat="40.8311550" lon="0.1793720">
        <ele>547.0</ele>
        <time>2013-05-12T17:58:54Z</time>
      </trkpt>
      <trkpt lat="40.8311410" lon="0.1795580">
        <ele>547.4</ele>
        <time>2013-05-12T17:58:58Z</time>
      </trkpt>
      <trkpt lat="40.8312520" lon="0.1795640">
        <ele>547.3</ele>
        <time>2013-05-12T17:59:01Z</time>
      </trkpt>
      <trkpt lat="40.8313510" lon="0.1795570">
        <ele>547.1</ele>
        <time>2013-05-12T17:59:03Z</time>
      </trkpt>
      <trkpt lat="40.8317410" lon="0.1795390">
        <ele>545.4</ele>
        <time>2013-05-12T17:59:10Z</time>
      </trkpt>
      <trkpt lat="40.8318520" lon="0.1795260">
        <ele>545.3</ele>
        <time>2013-05-12T17:59:12Z</time>
      </trkpt>
      <trkpt lat="40.8320860" lon="0.1796170">
        <ele>545.4</ele>
        <time>2013-05-12T17:59:17Z</time>
      </trkpt>
      <trkpt lat="40.8321200" lon="0.1796720">
        <ele>545.7</ele>
        <time>2013-05-12T17:59:18Z</time>
      </trkpt>
      <trkpt lat="40.8321810" lon="0.1797800">
        <ele>546.0</ele>
        <time>2013-05-12T17:59:20Z</time>
      </trkpt>
      <trkpt lat="40.8323450" lon="0.1798780">
        <ele>546.4</ele>
        <time>2013-05-12T17:59:24Z</time>
      </trkpt>
      <trkpt lat="40.8324350" lon="0.1798730">
        <ele>546.4</ele>
        <time>2013-05-12T17:59:26Z</time>
      </trkpt>
      <trkpt lat="40.8326740" lon="0.1798630">
        <ele>546.1</ele>
        <time>2013-05-12T17:59:32Z</time>
      </trkpt>
      <trkpt lat="40.8326830" lon="0.1799020">
        <ele>546.0</ele>
        <time>2013-05-12T17:59:36Z</time>
      </trkpt>
      <trkpt lat="40.8322770" lon="0.1831460">
        <ele>579.0</ele>
      </trkpt>
      <trkpt lat="40.8322500" lon="0.1831470">
        <ele>579.3</ele>
      </trkpt>
      <trkpt lat="40.8322500" lon="0.1831880">
        <ele>579.6</ele>
      </trkpt>
      <trkpt lat="40.8322670" lon="0.1832290">
        <ele>580.0</ele>
      </trkpt>
      <trkpt lat="40.8322860" lon="0.1832570">
        <ele>580.3</ele>
      </trkpt>
      <trkpt lat="40.8323260" lon="0.1833010">
        <ele>580.8</ele>
      </trkpt>
      <trkpt lat="40.8323680" lon="0.1832820">
        <ele>581.3</ele>
      </trkpt>
      <trkpt lat="40.8327300" lon="0.1829920">
        <ele>575.2</ele>
      </trkpt>
      <trkpt lat="40.8327610" lon="0.1829730">
        <ele>574.0</ele>
      </trkpt>
      <trkpt lat="40.8327830" lon="0.1829510">
        <ele>573.0</ele>
      </trkpt>
      <trkpt lat="40.8327680" lon="0.1828720">
        <ele>572.1</ele>
      </trkpt>
      <trkpt lat="40.8327090" lon="0.1828910">
        <ele>571.8</ele>
      </trkpt>
      <trkpt lat="40.8326750" lon="0.1829110">
        <ele>571.5</ele>
      </trkpt>
      <trkpt lat="40.8326430" lon="0.1829540">
        <ele>571.3</ele>
      </trkpt>
      <trkpt lat="40.8326150" lon="0.1829980">
        <ele>570.8</ele>
      </trkpt>
      <trkpt lat="40.8325870" lon="0.1830400">
        <ele>570.6</ele>
      </trkpt>
      <trkpt lat="40.8326050" lon="0.1830070">
        <ele>569.6</ele>
      </trkpt>
      <trkpt lat="40.8319130" lon="0.1831990">
        <ele>579.0</ele>
      </trkpt>
      <trkpt lat="40.8318710" lon="0.1832030">
        <ele>579.0</ele>
      </trkpt>
      <trkpt lat="40.8318250" lon="0.1832100">
        <ele>579.0</ele>
      </trkpt>
      <trkpt lat="40.8317840" lon="0.1832180">
        <ele>579.0</ele>
      </trkpt>
      <trkpt lat="40.8317450" lon="0.1832270">
        <ele>579.0</ele>
      </trkpt>
      <trkpt lat="40.8317090" lon="0.1832390">
        <ele>579.0</ele>
      </trkpt>
      <trkpt lat="40.8317390" lon="0.1832430">
        <ele>578.4</ele>
      </trkpt>
      <trkpt lat="40.8316880" lon="0.1832680">
        <ele>577.7</ele>
      </trkpt>
      <trkpt lat="40.8316340" lon="0.1832820">
        <ele>576.9</ele>
      </trkpt>
      <trkpt lat="40.8316050" lon="0.1832840">
        <ele>576.3</ele>
      </trkpt>
      <trkpt lat="40.8316610" lon="0.1832820">
        <ele>577.5</ele>
      </trkpt>
      <trkpt lat="40.8316080" lon="0.1832740">
        <ele>579.0</ele>
      </trkpt>
      <trkpt lat="40.8320720" lon="0.1830990">
        <ele>579.0</ele>
      </trkpt>
      <trkpt lat="40.8320530" lon="0.1830660">
        <ele>579.0</ele>
      </trkpt>
      <trkpt lat="40.8320360" lon="0.1830330">
        <ele>579.0</ele>
      </trkpt>
      <trkpt lat="40.8319890" lon="0.1829680">
        <ele>579.0</ele>
      </trkpt>
      <trkpt lat="40.8319590" lon="0.1829410">
        <ele>579.0</ele>
      </trkpt>
      <trkpt lat="40.8319270" lon="0.1829200">
        <ele>579.0</ele>
      </trkpt>
      <trkpt lat="40.8318990" lon="0.1829000">
        <ele>579.0</ele>
      </trkpt>
      <trkpt lat="40.8318600" lon="0.1828500">
        <ele>579.0</ele>
      </trkpt>
      <trkpt lat="40.8318550" lon="0.1827920">
        <ele>579.0</ele>
      </trkpt>
      <trkpt lat="40.8318590" lon="0.1827280">
        <ele>579.0</ele>
      </trkpt>
      <trkpt lat="40.8318610" lon="0.1826650">
        <ele>579.0</ele>
      </trkpt>
      <trkpt lat="40.8318280" lon="0.1826290">
        <ele>579.0</ele>
      </trkpt>
      <trkpt lat="40.8317890" lon="0.1826350">
        <ele>579.0</ele>
      </trkpt>
      <trkpt lat="40.8317520" lon="0.1826570">
        <ele>579.0</ele>
      </trkpt>
      <trkpt lat="40.8317160" lon="0.1826590">
        <ele>579.0</ele>
      </trkpt>
      <trkpt lat="40.8316910" lon="0.1826370">
        <ele>579.0</ele>
      </trkpt>
      <trkpt lat="40.8316530" lon="0.1826180">
        <ele>579.0</ele>
      </trkpt>
      <trkpt lat="40.8316190" lon="0.1826060">
        <ele>579.0</ele>
      </trkpt>
      <trkpt lat="40.8315960" lon="0.1825800">
        <ele>579.0</ele>
      </trkpt>
      <trkpt lat="40.8315680" lon="0.1825440">
        <ele>577.7</ele>
      </trkpt>
      <trkpt lat="40.8315430" lon="0.1825050">
        <ele>576.5</ele>
      </trkpt>
      <trkpt lat="40.8315170" lon="0.1824780">
        <ele>575.5</ele>
      </trkpt>
      <trkpt lat="40.8314860" lon="0.1824350">
        <ele>574.1</ele>
      </trkpt>
      <trkpt lat="40.8314810" lon="0.1823960">
        <ele>573.4</ele>
      </trkpt>
      <trkpt lat="40.8314780" lon="0.1823520">
        <ele>572.5</ele>
      </trkpt>
      <trkpt lat="40.8314800" lon="0.1823100">
        <ele>571.7</ele>
      </trkpt>
      <trkpt lat="40.8315150" lon="0.1822630">
        <ele>570.1</ele>
      </trkpt>
      <trkpt lat="40.8315340" lon="0.1822310">
        <ele>569.1</ele>
      </trkpt>
      <trkpt lat="40.8315630" lon="0.1821700">
        <ele>567.3</ele>
      </trkpt>
      <trkpt lat="40.8315810" lon="0.1821070">
        <ele>565.7</ele>
      </trkpt>
      <trkpt lat="40.8315960" lon="0.1820610">
        <ele>564.8</ele>
      </trkpt>
      <trkpt lat="40.8316060" lon="0.1819940">
        <ele>563.5</ele>
      </trkpt>
      <trkpt lat="40.8316210" lon="0.1819340">
        <ele>562.0</ele>
      </trkpt>
      <trkpt lat="40.8315980" lon="0.1819160">
        <ele>561.2</ele>
      </trkpt>
      <trkpt lat="40.8315630" lon="0.1819170">
        <ele>560.0</ele>
      </trkpt>
      <trkpt lat="40.8315330" lon="0.1818960">
        <ele>559.6</ele>
      </trkpt>
      <trkpt lat="40.8315140" lon="0.1818530">
        <ele>559.2</ele>
      </trkpt>
      <trkpt lat="40.8315250" lon="0.1818140">
        <ele>558.8</ele>
      </trkpt>
      <trkpt lat="40.8315460" lon="0.1817860">
        <ele>558.5</ele>
      </trkpt>
      <trkpt lat="40.8315630" lon="0.1817570">
        <ele>558.1</ele>
      </trkpt>
      <trkpt lat="40.8315850" lon="0.1816910">
        <ele>557.5</ele>
      </trkpt>
      <trkpt lat="40.8316010" lon="0.1816400">
        <ele>557.0</ele>
      </trkpt>
      <trkpt lat="40.8316240" lon="0.1816090">
        <ele>556.6</ele>
      </trkpt>
      <trkpt lat="40.8316590" lon="0.1815900">
        <ele>556.2</ele>
      </trkpt>
      <trkpt lat="40.8316910" lon="0.1815640">
        <ele>555.7</ele>
      </trkpt>
      <trkpt lat="40.8317070" lon="0.1815240">
        <ele>555.3</ele>
      </trkpt>
      <trkpt lat="40.8316920" lon="0.1814860">
        <ele>555.0</ele>
      </trkpt>
      <trkpt lat="40.8316580" lon="0.1814430">
        <ele>554.1</ele>
      </trkpt>
      <trkpt lat="40.8316380" lon="0.1814100">
        <ele>554.1</ele>
      </trkpt>
      <trkpt lat="40.8316080" lon="0.1813850">
        <ele>554.2</ele>
      </trkpt>
      <trkpt lat="40.8315780" lon="0.1813630">
        <ele>554.2</ele>
      </trkpt>
      <trkpt lat="40.8315480" lon="0.1813480">
        <ele>554.3</ele>
      </trkpt>
      <trkpt lat="40.8315210" lon="0.1813330">
        <ele>554.3</ele>
      </trkpt>
      <trkpt lat="40.8314930" lon="0.1813150">
        <ele>554.4</ele>
      </trkpt>
      <trkpt lat="40.8314650" lon="0.1812960">
        <ele>554.4</ele>
      </trkpt>
      <trkpt lat="40.8314370" lon="0.1812790">
        <ele>554.5</ele>
      </trkpt>
      <trkpt lat="40.8314070" lon="0.1812600">
        <ele>554.5</ele>
      </trkpt>
      <trkpt lat="40.8313790" lon="0.1812440">
        <ele>554.6</ele>
      </trkpt>
      <trkpt lat="40.8313500" lon="0.1812290">
        <ele>554.7</ele>
      </trkpt>
      <trkpt lat="40.8313230" lon="0.1812130">
        <ele>554.7</ele>
      </trkpt>
      <trkpt lat="40.8312960" lon="0.1812010">
        <ele>554.8</ele>
      </trkpt>
      <trkpt lat="40.8312690" lon="0.1811890">
        <ele>554.8</ele>
      </trkpt>
      <trkpt lat="40.8312470" lon="0.1811560">
        <ele>554.9</ele>
      </trkpt>
      <trkpt lat="40.8312340" lon="0.1810780">
        <ele>555.0</ele>
      </trkpt>
      <trkpt lat="40.8312220" lon="0.1810320">
        <ele>555.0</ele>
      </trkpt>
      <trkpt lat="40.8312080" lon="0.1809900">
        <ele>555.0</ele>
      </trkpt>
      <trkpt lat="40.8311940" lon="0.1809540">
        <ele>555.1</ele>
      </trkpt>
      <trkpt lat="40.8311810" lon="0.1809160">
        <ele>555.1</ele>
      </trkpt>
      <trkpt lat="40.8311680" lon="0.1808770">
        <ele>555.1</ele>
      </trkpt>
      <trkpt lat="40.8311570" lon="0.1808360">
        <ele>555.1</ele>
      </trkpt>
      <trkpt lat="40.8311460" lon="0.1807940">
        <ele>555.1</ele>
      </trkpt>
      <trkpt lat="40.8311350" lon="0.1807510">
        <ele>555.1</ele>
      </trkpt>
      <trkpt lat="40.8311240" lon="0.1807090">
        <ele>555.1</ele>
      </trkpt>
      <trkpt lat="40.8311130" lon="0.1806650">
        <ele>555.1</ele>
      </trkpt>
      <trkpt lat="40.8311030" lon="0.1806170">
        <ele>555.1</ele>
      </trkpt>
      <trkpt lat="40.8310940" lon="0.1805740">
        <ele>555.1</ele>
      </trkpt>
      <trkpt lat="40.8310840" lon="0.1805350">
        <ele>555.1</ele>
      </trkpt>
      <trkpt lat="40.8310730" lon="0.1804950">
        <ele>555.1</ele>
      </trkpt>
      <trkpt lat="40.8310630" lon="0.1804580">
        <ele>555.1</ele>
      </trkpt>
      <trkpt lat="40.8310550" lon="0.1804210">
        <ele>555.1</ele>
      </trkpt>
      <trkpt lat="40.8310460" lon="0.1803860">
        <ele>555.1</ele>
      </trkpt>
      <trkpt lat="40.8310430" lon="0.1803400">
        <ele>555.1</ele>
      </trkpt>
      <trkpt lat="40.8310420" lon="0.1802870">
        <ele>555.0</ele>
      </trkpt>
      <trkpt lat="40.8310380" lon="0.1802420">
        <ele>555.0</ele>
      </trkpt>
      <trkpt lat="40.8310320" lon="0.1801940">
        <ele>555.0</ele>
      </trkpt>
      <trkpt lat="40.8310240" lon="0.1801490">
        <ele>555.0</ele>
      </trkpt>
      <trkpt lat="40.8310180" lon="0.1801070">
        <ele>555.4</ele>
      </trkpt>
      <trkpt lat="40.8310110" lon="0.1800530">
        <ele>555.9</ele>
      </trkpt>
      <trkpt lat="40.8310280" lon="0.1800100">
        <ele>556.3</ele>
      </trkpt>
      <trkpt lat="40.8310280" lon="0.1799710">
        <ele>556.6</ele>
      </trkpt>
      <trkpt lat="40.8310240" lon="0.1799090">
        <ele>557.2</ele>
      </trkpt>
      <trkpt lat="40.8310070" lon="0.1798440">
        <ele>557.8</ele>
      </trkpt>
      <trkpt lat="40.8309970" lon="0.1798080">
        <ele>558.0</ele>
      </trkpt>
      <trkpt lat="40.8309890" lon="0.1797690">
        <ele>558.0</ele>
      </trkpt>
      <trkpt lat="40.8309810" lon="0.1797290">
        <ele>558.0</ele>
      </trkpt>
      <trkpt lat="40.8309790" lon="0.1796820">
        <ele>558.0</ele>
      </trkpt>
      <trkpt lat="40.8309830" lon="0.1796320">
        <ele>558.0</ele>
      </trkpt>
      <trkpt lat="40.8309880" lon="0.1795800">
        <ele>558.0</ele>
      </trkpt>
      <trkpt lat="40.8309970" lon="0.1795330">
        <ele>558.0</ele>
      </trkpt>
      <trkpt lat="40.8310080" lon="0.1794920">
        <ele>558.0</ele>
      </trkpt>
      <trkpt lat="40.8310230" lon="0.1794500">
        <ele>558.0</ele>
      </trkpt>
      <trkpt lat="40.8310400" lon="0.1794070">
        <ele>558.0</ele>
      </trkpt>
      <trkpt lat="40.8310590" lon="0.1793700">
        <ele>558.0</ele>
      </trkpt>
      <trkpt lat="40.8310750" lon="0.1793410">
        <ele>558.0</ele>
      </trkpt>
      <trkpt lat="40.8310920" lon="0.1793080">
        <ele>558.0</ele>
      </trkpt>
      <trkpt lat="40.8311080" lon="0.1792740">
        <ele>558.0</ele>
      </trkpt>
      <trkpt lat="40.8311190" lon="0.1792380">
        <ele>558.3</ele>
      </trkpt>
      <trkpt lat="40.8311020" lon="0.1791590">
        <ele>559.5</ele>
      </trkpt>
      <trkpt lat="40.8310730" lon="0.1790860">
        <ele>560.0</ele>
      </trkpt>
      <trkpt lat="40.8310360" lon="0.1790080">
        <ele>560.0</ele>
      </trkpt>
      <trkpt lat="40.8309950" lon="0.1789270">
        <ele>560.0</ele>
      </trkpt>
      <trkpt lat="40.8309570" lon="0.1788380">
        <ele>560.0</ele>
      </trkpt>
      <trkpt lat="40.8309180" lon="0.1787410">
        <ele>560.0</ele>
      </trkpt>
      <trkpt lat="40.8308780" lon="0.1786380">
        <ele>560.0</ele>
      </trkpt>
      <trkpt lat="40.8308410" lon="0.1785360">
        <ele>560.8</ele>
      </trkpt>
      <trkpt lat="40.8308060" lon="0.1784400">
        <ele>561.8</ele>
      </trkpt>
      <trkpt lat="40.8307600" lon="0.1783400">
        <ele>562.9</ele>
      </trkpt>
      <trkpt lat="40.8307390" lon="0.1782710">
        <ele>563.3</ele>
      </trkpt>
      <trkpt lat="40.8307060" lon="0.1782230">
        <ele>563.6</ele>
      </trkpt>
      <trkpt lat="40.8306770" lon="0.1781720">
        <ele>563.9</ele>
      </trkpt>
      <trkpt lat="40.8306520" lon="0.1781170">
        <ele>564.1</ele>
      </trkpt>
      <trkpt lat="40.8306230" lon="0.1780890">
        <ele>564.3</ele>
      </trkpt>
      <trkpt lat="40.8306000" lon="0.1780480">
        <ele>564.6</ele>
      </trkpt>
      <trkpt lat="40.8305860" lon="0.1780170">
        <ele>564.7</ele>
      </trkpt>
      <trkpt lat="40.8305720" lon="0.1779840">
        <ele>564.9</ele>
      </trkpt>
      <trkpt lat="40.8305520" lon="0.1779230">
        <ele>565.2</ele>
      </trkpt>
      <trkpt lat="40.8305370" lon="0.1778910">
        <ele>565.3</ele>
      </trkpt>
      <trkpt lat="40.8305080" lon="0.1778330">
        <ele>565.6</ele>
      </trkpt>
      <trkpt lat="40.8304820" lon="0.1777740">
        <ele>565.9</ele>
      </trkpt>
      <trkpt lat="40.8304530" lon="0.1777170">
        <ele>566.2</ele>
      </trkpt>
      <trkpt lat="40.8304370" lon="0.1776880">
        <ele>566.3</ele>
      </trkpt>
      <trkpt lat="40.8304230" lon="0.1776570">
        <ele>566.4</ele>
      </trkpt>
      <trkpt lat="40.8304070" lon="0.1776270">
        <ele>566.5</ele>
      </trkpt>
      <trkpt lat="40.8303900" lon="0.1775990">
        <ele>566.6</ele>
      </trkpt>
      <trkpt lat="40.8303600" lon="0.1775450">
        <ele>566.8</ele>
      </trkpt>
      <trkpt lat="40.8303370" lon="0.1774900">
        <ele>567.0</ele>
      </trkpt>
      <trkpt lat="40.8303200" lon="0.1774330">
        <ele>567.1</ele>
      </trkpt>
      <trkpt lat="40.8303000" lon="0.1773840">
        <ele>567.3</ele>
      </trkpt>
      <trkpt lat="40.8302760" lon="0.1773200">
        <ele>567.5</ele>
      </trkpt>
      <trkpt lat="40.8302650" lon="0.1772840">
        <ele>567.6</ele>
      </trkpt>
      <trkpt lat="40.8302550" lon="0.1772490">
        <ele>567.7</ele>
      </trkpt>
      <trkpt lat="40.8302450" lon="0.1772140">
        <ele>567.8</ele>
      </trkpt>
      <trkpt lat="40.8302350" lon="0.1771810">
        <ele>567.9</ele>
      </trkpt>
      <trkpt lat="40.8302130" lon="0.1771170">
        <ele>568.1</ele>
      </trkpt>
      <trkpt lat="40.8301840" lon="0.1770590">
        <ele>568.3</ele>
      </trkpt>
      <trkpt lat="40.8301600" lon="0.1770010">
        <ele>568.4</ele>
      </trkpt>
      <trkpt lat="40.8301460" lon="0.1769480">
        <ele>568.6</ele>
      </trkpt>
      <trkpt lat="40.8301300" lon="0.1768960">
        <ele>568.7</ele>
      </trkpt>
      <trkpt lat="40.8301100" lon="0.1768430">
        <ele>568.8</ele>
      </trkpt>
      <trkpt lat="40.8300920" lon="0.1768000">
        <ele>568.9</ele>
      </trkpt>
      <trkpt lat="40.8300750" lon="0.1767710">
        <ele>568.9</ele>
      </trkpt>
      <trkpt lat="40.8300500" lon="0.1767340">
        <ele>569.0</ele>
      </trkpt>
      <trkpt lat="40.8300270" lon="0.1766890">
        <ele>569.0</ele>
      </trkpt>
      <trkpt lat="40.8300130" lon="0.1766420">
        <ele>569.0</ele>
      </trkpt>
      <trkpt lat="40.8300060" lon="0.1765790">
        <ele>569.1</ele>
      </trkpt>
      <trkpt lat="40.8299980" lon="0.1765090">
        <ele>569.1</ele>
      </trkpt>
      <trkpt lat="40.8299970" lon="0.1764740">
        <ele>569.1</ele>
      </trkpt>
      <trkpt lat="40.8299970" lon="0.1764340">
        <ele>569.1</ele>
      </trkpt>
      <trkpt lat="40.8300050" lon="0.1763820">
        <ele>569.1</ele>
      </trkpt>
      <trkpt lat="40.8300090" lon="0.1763310">
        <ele>569.1</ele>
      </trkpt>
      <trkpt lat="40.8300040" lon="0.1762850">
        <ele>569.1</ele>
      </trkpt>
      <trkpt lat="40.8299950" lon="0.1762400">
        <ele>569.1</ele>
      </trkpt>
      <trkpt lat="40.8299820" lon="0.1761980">
        <ele>569.1</ele>
      </trkpt>
      <trkpt lat="40.8299730" lon="0.1761530">
        <ele>569.1</ele>
      </trkpt>
      <trkpt lat="40.8299680" lon="0.1761070">
        <ele>569.1</ele>
      </trkpt>
      <trkpt lat="40.8299640" lon="0.1760620">
        <ele>569.1</ele>
      </trkpt>
      <trkpt lat="40.8299670" lon="0.1760150">
        <ele>569.0</ele>
      </trkpt>
      <trkpt lat="40.8299720" lon="0.1759700">
        <ele>569.0</ele>
      </trkpt>
      <trkpt lat="40.8299780" lon="0.1759290">
        <ele>568.9</ele>
      </trkpt>
      <trkpt lat="40.8299860" lon="0.1758900">
        <ele>568.9</ele>
      </trkpt>
      <trkpt lat="40.8299970" lon="0.1758510">
        <ele>568.8</ele>
      </trkpt>
      <trkpt lat="40.8300130" lon="0.1758110">
        <ele>568.8</ele>
      </trkpt>
      <trkpt lat="40.8300300" lon="0.1757760">
        <ele>568.7</ele>
      </trkpt>
      <trkpt lat="40.8300620" lon="0.1757260">
        <ele>568.7</ele>
      </trkpt>
      <trkpt lat="40.8300940" lon="0.1756860">
        <ele>568.6</ele>
      </trkpt>
      <trkpt lat="40.8301320" lon="0.1756370">
        <ele>568.5</ele>
      </trkpt>
      <trkpt lat="40.8301520" lon="0.1756080">
        <ele>568.5</ele>
      </trkpt>
      <trkpt lat="40.8301700" lon="0.1755770">
        <ele>568.4</ele>
      </trkpt>
      <trkpt lat="40.8301850" lon="0.1755450">
        <ele>568.4</ele>
      </trkpt>
      <trkpt lat="40.8301970" lon="0.1755110">
        <ele>568.3</ele>
      </trkpt>
      <trkpt lat="40.8302090" lon="0.1754750">
        <ele>568.3</ele>
      </trkpt>
      <trkpt lat="40.8302180" lon="0.1754380">
        <ele>568.2</ele>
      </trkpt>
      <trkpt lat="40.8302240" lon="0.1754020">
        <ele>568.2</ele>
      </trkpt>
      <trkpt lat="40.8302270" lon="0.1753660">
        <ele>568.1</ele>
      </trkpt>
      <trkpt lat="40.8302250" lon="0.1753000">
        <ele>568.0</ele>
      </trkpt>
      <trkpt lat="40.8302180" lon="0.1752390">
        <ele>568.1</ele>
      </trkpt>
      <trkpt lat="40.8302160" lon="0.1751720">
        <ele>568.3</ele>
      </trkpt>
      <trkpt lat="40.8302220" lon="0.1751040">
        <ele>568.6</ele>
      </trkpt>
      <trkpt lat="40.8302300" lon="0.1750660">
        <ele>568.7</ele>
      </trkpt>
      <trkpt lat="40.8302380" lon="0.1750300">
        <ele>568.8</ele>
      </trkpt>
      <trkpt lat="40.8302480" lon="0.1749930">
        <ele>568.9</ele>
      </trkpt>
      <trkpt lat="40.8302560" lon="0.1749530">
        <ele>569.0</ele>
      </trkpt>
      <trkpt lat="40.8302620" lon="0.1749090">
        <ele>569.2</ele>
      </trkpt>
      <trkpt lat="40.8302620" lon="0.1748650">
        <ele>569.3</ele>
      </trkpt>
      <trkpt lat="40.8302560" lon="0.1748220">
        <ele>569.4</ele>
      </trkpt>
      <trkpt lat="40.8302440" lon="0.1747850">
        <ele>569.5</ele>
      </trkpt>
      <trkpt lat="40.8302270" lon="0.1747510">
        <ele>569.7</ele>
      </trkpt>
      <trkpt lat="40.8302100" lon="0.1747190">
        <ele>569.8</ele>
      </trkpt>
      <trkpt lat="40.8301920" lon="0.1746880">
        <ele>569.9</ele>
      </trkpt>
      <trkpt lat="40.8301700" lon="0.1746590">
        <ele>570.1</ele>
      </trkpt>
      <trkpt lat="40.8301480" lon="0.1746300">
        <ele>570.3</ele>
      </trkpt>
      <trkpt lat="40.8301290" lon="0.1745970">
        <ele>570.5</ele>
      </trkpt>
      <trkpt lat="40.8301130" lon="0.1745620">
        <ele>570.7</ele>
      </trkpt>
      <trkpt lat="40.8301020" lon="0.1745240">
        <ele>571.0</ele>
      </trkpt>
      <trkpt lat="40.8300950" lon="0.1744820">
        <ele>571.6</ele>
      </trkpt>
      <trkpt lat="40.8300900" lon="0.1744400">
        <ele>572.2</ele>
      </trkpt>
      <trkpt lat="40.8300850" lon="0.1744020">
        <ele>572.6</ele>
      </trkpt>
      <trkpt lat="40.8300810" lon="0.1743640">
        <ele>572.9</ele>
      </trkpt>
      <trkpt lat="40.8300790" lon="0.1743280">
        <ele>573.2</ele>
      </trkpt>
      <trkpt lat="40.8300850" lon="0.1742540">
        <ele>574.0</ele>
      </trkpt>
      <trkpt lat="40.8300890" lon="0.1742160">
        <ele>574.6</ele>
      </trkpt>
      <trkpt lat="40.8300910" lon="0.1741800">
        <ele>575.2</ele>
      </trkpt>
      <trkpt lat="40.8300920" lon="0.1741410">
        <ele>575.7</ele>
      </trkpt>
      <trkpt lat="40.8300910" lon="0.1741050">
        <ele>576.2</ele>
      </trkpt>
      <trkpt lat="40.8300820" lon="0.1740330">
        <ele>576.7</ele>
      </trkpt>
      <trkpt lat="40.8300760" lon="0.1739950">
        <ele>576.9</ele>
      </trkpt>
      <trkpt lat="40.8300720" lon="0.1739600">
        <ele>577.2</ele>
      </trkpt>
      <trkpt lat="40.8300690" lon="0.1739230">
        <ele>577.6</ele>
      </trkpt>
      <trkpt lat="40.8300640" lon="0.1738570">
        <ele>578.4</ele>
      </trkpt>
      <trkpt lat="40.8300600" lon="0.1737970">
        <ele>579.3</ele>
      </trkpt>
      <trkpt lat="40.8300550" lon="0.1737470">
        <ele>580.0</ele>
      </trkpt>
      <trkpt lat="40.8300460" lon="0.1736980">
        <ele>580.7</ele>
      </trkpt>
      <trkpt lat="40.8300350" lon="0.1736380">
        <ele>581.0</ele>
      </trkpt>
      <trkpt lat="40.8300270" lon="0.1736020">
        <ele>581.2</ele>
      </trkpt>
      <trkpt lat="40.8300200" lon="0.1735660">
        <ele>581.4</ele>
      </trkpt>
      <trkpt lat="40.8300160" lon="0.1735310">
        <ele>581.5</ele>
      </trkpt>
      <trkpt lat="40.8300130" lon="0.1734950">
        <ele>581.7</ele>
      </trkpt>
      <trkpt lat="40.8300120" lon="0.1734590">
        <ele>581.9</ele>
      </trkpt>
      <trkpt lat="40.8300090" lon="0.1733970">
        <ele>582.0</ele>
      </trkpt>
      <trkpt lat="40.8300030" lon="0.1733390">
        <ele>582.1</ele>
      </trkpt>
      <trkpt lat="40.8299950" lon="0.1732710">
        <ele>582.2</ele>
      </trkpt>
      <trkpt lat="40.8299880" lon="0.1732000">
        <ele>582.4</ele>
      </trkpt>
      <trkpt lat="40.8299870" lon="0.1731630">
        <ele>582.4</ele>
      </trkpt>
      <trkpt lat="40.8299820" lon="0.1730960">
        <ele>582.6</ele>
      </trkpt>
      <trkpt lat="40.8299790" lon="0.1730300">
        <ele>582.7</ele>
      </trkpt>
      <trkpt lat="40.8299790" lon="0.1729600">
        <ele>583.1</ele>
      </trkpt>
      <trkpt lat="40.8299780" lon="0.1728920">
        <ele>583.6</ele>
      </trkpt>
      <trkpt lat="40.8299750" lon="0.1728300">
        <ele>583.9</ele>
      </trkpt>
      <trkpt lat="40.8299720" lon="0.1727740">
        <ele>584.1</ele>
      </trkpt>
      <trkpt lat="40.8299720" lon="0.1727150">
        <ele>584.3</ele>
      </trkpt>
      <trkpt lat="40.8299650" lon="0.1726690">
        <ele>584.5</ele>
      </trkpt>
      <trkpt lat="40.8299550" lon="0.1726240">
        <ele>584.8</ele>
      </trkpt>
      <trkpt lat="40.8299390" lon="0.1725780">
        <ele>585.1</ele>
      </trkpt>
      <trkpt lat="40.8299260" lon="0.1725320">
        <ele>585.5</ele>
      </trkpt>
      <trkpt lat="40.8299210" lon="0.1724680">
        <ele>585.9</ele>
      </trkpt>
      <trkpt lat="40.8299170" lon="0.1724040">
        <ele>586.2</ele>
      </trkpt>
      <trkpt lat="40.8299140" lon="0.1723350">
        <ele>586.4</ele>
      </trkpt>
      <trkpt lat="40.8299130" lon="0.1722990">
        <ele>586.5</ele>
      </trkpt>
      <trkpt lat="40.8299110" lon="0.1722630">
        <ele>586.6</ele>
      </trkpt>
      <trkpt lat="40.8299100" lon="0.1722270">
        <ele>586.7</ele>
      </trkpt>
      <trkpt lat="40.8299040" lon="0.1721620">
        <ele>587.0</ele>
      </trkpt>
      <trkpt lat="40.8298960" lon="0.1720960">
        <ele>587.4</ele>
      </trkpt>
      <trkpt lat="40.8298930" lon="0.1720600">
        <ele>587.6</ele>
      </trkpt>
      <trkpt lat="40.8298910" lon="0.1720210">
        <ele>587.8</ele>
      </trkpt>
      <trkpt lat="40.8298890" lon="0.1719840">
        <ele>587.8</ele>
      </trkpt>
      <trkpt lat="40.8298840" lon="0.1719130">
        <ele>588.0</ele>
      </trkpt>
      <trkpt lat="40.8298850" lon="0.1718750">
        <ele>588.0</ele>
      </trkpt>
      <trkpt lat="40.8298860" lon="0.1718360">
        <ele>588.1</ele>
      </trkpt>
      <trkpt lat="40.8298870" lon="0.1717990">
        <ele>588.1</ele>
      </trkpt>
      <trkpt lat="40.8298880" lon="0.1717620">
        <ele>588.2</ele>
      </trkpt>
      <trkpt lat="40.8298900" lon="0.1717250">
        <ele>588.3</ele>
      </trkpt>
      <trkpt lat="40.8298880" lon="0.1716880">
        <ele>588.3</ele>
      </trkpt>
      <trkpt lat="40.8298830" lon="0.1716520">
        <ele>588.4</ele>
      </trkpt>
      <trkpt lat="40.8298750" lon="0.1716170">
        <ele>588.4</ele>
      </trkpt>
      <trkpt lat="40.8298650" lon="0.1715820">
        <ele>588.6</ele>
      </trkpt>
      <trkpt lat="40.8298530" lon="0.1715480">
        <ele>588.7</ele>
      </trkpt>
      <trkpt lat="40.8298370" lon="0.1715150">
        <ele>588.8</ele>
      </trkpt>
      <trkpt lat="40.8298220" lon="0.1714840">
        <ele>589.0</ele>
      </trkpt>
      <trkpt lat="40.8298050" lon="0.1714530">
        <ele>589.2</ele>
      </trkpt>
      <trkpt lat="40.8297900" lon="0.1714220">
        <ele>589.4</ele>
      </trkpt>
      <trkpt lat="40.8297750" lon="0.1713930">
        <ele>589.6</ele>
      </trkpt>
      <trkpt lat="40.8297510" lon="0.1713360">
        <ele>590.0</ele>
      </trkpt>
      <trkpt lat="40.8297310" lon="0.1712730">
        <ele>590.2</ele>
      </trkpt>
      <trkpt lat="40.8297120" lon="0.1712070">
        <ele>590.3</ele>
      </trkpt>
      <trkpt lat="40.8296960" lon="0.1711430">
        <ele>590.4</ele>
      </trkpt>
      <trkpt lat="40.8296880" lon="0.1711080">
        <ele>590.5</ele>
      </trkpt>
      <trkpt lat="40.8296790" lon="0.1710710">
        <ele>590.6</ele>
      </trkpt>
      <trkpt lat="40.8296680" lon="0.1710340">
        <ele>590.7</ele>
      </trkpt>
      <trkpt lat="40.8296580" lon="0.1709970">
        <ele>590.8</ele>
      </trkpt>
      <trkpt lat="40.8296500" lon="0.1709590">
        <ele>590.9</ele>
      </trkpt>
      <trkpt lat="40.8296440" lon="0.1709200">
        <ele>591.0</ele>
      </trkpt>
      <trkpt lat="40.8296400" lon="0.1708820">
        <ele>591.0</ele>
      </trkpt>
      <trkpt lat="40.8296340" lon="0.1708450">
        <ele>591.1</ele>
      </trkpt>
      <trkpt lat="40.8296280" lon="0.1708070">
        <ele>591.3</ele>
      </trkpt>
      <trkpt lat="40.8296230" lon="0.1707680">
        <ele>591.5</ele>
      </trkpt>
      <trkpt lat="40.8296160" lon="0.1707310">
        <ele>591.8</ele>
      </trkpt>
      <trkpt lat="40.8296100" lon="0.1706950">
        <ele>592.1</ele>
      </trkpt>
      <trkpt lat="40.8296040" lon="0.1706600">
        <ele>592.3</ele>
      </trkpt>
      <trkpt lat="40.8295900" lon="0.1705910">
        <ele>592.5</ele>
      </trkpt>
      <trkpt lat="40.8295750" lon="0.1705230">
        <ele>592.8</ele>
      </trkpt>
      <trkpt lat="40.8295610" lon="0.1704570">
        <ele>593.0</ele>
      </trkpt>
      <trkpt lat="40.8295480" lon="0.1703900">
        <ele>593.2</ele>
      </trkpt>
      <trkpt lat="40.8295350" lon="0.1703260">
        <ele>593.6</ele>
      </trkpt>
      <trkpt lat="40.8295260" lon="0.1702630">
        <ele>594.1</ele>
      </trkpt>
      <trkpt lat="40.8295220" lon="0.1701920">
        <ele>594.5</ele>
      </trkpt>
      <trkpt lat="40.8295180" lon="0.1701550">
        <ele>594.6</ele>
      </trkpt>
      <trkpt lat="40.8295150" lon="0.1701180">
        <ele>594.7</ele>
      </trkpt>
      <trkpt lat="40.8295110" lon="0.1700780">
        <ele>594.8</ele>
      </trkpt>
      <trkpt lat="40.8295080" lon="0.1700390">
        <ele>594.9</ele>
      </trkpt>
      <trkpt lat="40.8295050" lon="0.1700010">
        <ele>595.0</ele>
      </trkpt>
      <trkpt lat="40.8295000" lon="0.1699630">
        <ele>595.2</ele>
      </trkpt>
      <trkpt lat="40.8294980" lon="0.1699270">
        <ele>595.3</ele>
      </trkpt>
      <trkpt lat="40.8294970" lon="0.1698900">
        <ele>595.5</ele>
      </trkpt>
      <trkpt lat="40.8294960" lon="0.1698540">
        <ele>595.8</ele>
      </trkpt>
      <trkpt lat="40.8294910" lon="0.1698190">
        <ele>596.0</ele>
      </trkpt>
      <trkpt lat="40.8294800" lon="0.1697580">
        <ele>596.5</ele>
      </trkpt>
      <trkpt lat="40.8294650" lon="0.1697060">
        <ele>596.6</ele>
      </trkpt>
      <trkpt lat="40.8294480" lon="0.1696500">
        <ele>596.8</ele>
      </trkpt>
      <trkpt lat="40.8294280" lon="0.1695880">
        <ele>597.0</ele>
      </trkpt>
      <trkpt lat="40.8294150" lon="0.1695550">
        <ele>597.1</ele>
      </trkpt>
      <trkpt lat="40.8294020" lon="0.1695230">
        <ele>597.2</ele>
      </trkpt>
      <trkpt lat="40.8293750" lon="0.1694610">
        <ele>597.7</ele>
      </trkpt>
      <trkpt lat="40.8293510" lon="0.1694060">
        <ele>598.2</ele>
      </trkpt>
      <trkpt lat="40.8293300" lon="0.1693520">
        <ele>598.6</ele>
      </trkpt>
      <trkpt lat="40.8293080" lon="0.1692970">
        <ele>598.8</ele>
      </trkpt>
      <trkpt lat="40.8292840" lon="0.1692430">
        <ele>599.0</ele>
      </trkpt>
      <trkpt lat="40.8292620" lon="0.1691860">
        <ele>599.3</ele>
      </trkpt>
      <trkpt lat="40.8292430" lon="0.1691200">
        <ele>599.5</ele>
      </trkpt>
      <trkpt lat="40.8292260" lon="0.1690580">
        <ele>600.1</ele>
      </trkpt>
      <trkpt lat="40.8292080" lon="0.1689990">
        <ele>600.6</ele>
      </trkpt>
      <trkpt lat="40.8291920" lon="0.1689390">
        <ele>600.8</ele>
      </trkpt>
      <trkpt lat="40.8291770" lon="0.1688780">
        <ele>601.0</ele>
      </trkpt>
      <trkpt lat="40.8291580" lon="0.1688130">
        <ele>601.2</ele>
      </trkpt>
      <trkpt lat="40.8291370" lon="0.1687550">
        <ele>601.5</ele>
      </trkpt>
      <trkpt lat="40.8291200" lon="0.1686960">
        <ele>601.8</ele>
      </trkpt>
      <trkpt lat="40.8291100" lon="0.1686320">
        <ele>602.4</ele>
      </trkpt>
      <trkpt lat="40.8290970" lon="0.1685670">
        <ele>602.9</ele>
      </trkpt>
      <trkpt lat="40.8290820" lon="0.1685040">
        <ele>603.2</ele>
      </trkpt>
      <trkpt lat="40.8290690" lon="0.1684480">
        <ele>603.6</ele>
      </trkpt>
      <trkpt lat="40.8290600" lon="0.1684010">
        <ele>604.0</ele>
      </trkpt>
      <trkpt lat="40.8290520" lon="0.1683490">
        <ele>604.5</ele>
      </trkpt>
      <trkpt lat="40.8290450" lon="0.1682980">
        <ele>604.9</ele>
      </trkpt>
      <trkpt lat="40.8290310" lon="0.1682420">
        <ele>605.2</ele>
      </trkpt>
      <trkpt lat="40.8290180" lon="0.1681760">
        <ele>605.4</ele>
      </trkpt>
      <trkpt lat="40.8290180" lon="0.1681390">
        <ele>605.5</ele>
      </trkpt>
      <trkpt lat="40.8290200" lon="0.1681010">
        <ele>605.6</ele>
      </trkpt>
      <trkpt lat="40.8290180" lon="0.1680340">
        <ele>605.8</ele>
      </trkpt>
      <trkpt lat="40.8290100" lon="0.1679730">
        <ele>606.2</ele>
      </trkpt>
      <trkpt lat="40.8289820" lon="0.1679240">
        <ele>606.7</ele>
      </trkpt>
      <trkpt lat="40.8289500" lon="0.1678780">
        <ele>607.0</ele>
      </trkpt>
      <trkpt lat="40.8289220" lon="0.1678260">
        <ele>607.2</ele>
      </trkpt>
      <trkpt lat="40.8288920" lon="0.1677740">
        <ele>607.4</ele>
      </trkpt>
      <trkpt lat="40.8288580" lon="0.1677200">
        <ele>607.5</ele>
      </trkpt>
      <trkpt lat="40.8288410" lon="0.1676910">
        <ele>607.6</ele>
      </trkpt>
      <trkpt lat="40.8288230" lon="0.1676640">
        <ele>607.6</ele>
      </trkpt>
      <trkpt lat="40.8288040" lon="0.1676380">
        <ele>607.7</ele>
      </trkpt>
      <trkpt lat="40.8287860" lon="0.1676110">
        <ele>607.8</ele>
      </trkpt>
      <trkpt lat="40.8287690" lon="0.1675830">
        <ele>608.0</ele>
      </trkpt>
      <trkpt lat="40.8287510" lon="0.1675540">
        <ele>608.1</ele>
      </trkpt>
      <trkpt lat="40.8287340" lon="0.1675240">
        <ele>608.3</ele>
      </trkpt>
      <trkpt lat="40.8287180" lon="0.1674940">
        <ele>608.5</ele>
      </trkpt>
      <trkpt lat="40.8287010" lon="0.1674650">
        <ele>608.8</ele>
      </trkpt>
      <trkpt lat="40.8286840" lon="0.1674350">
        <ele>608.9</ele>
      </trkpt>
      <trkpt lat="40.8286670" lon="0.1674050">
        <ele>608.9</ele>
      </trkpt>
      <trkpt lat="40.8286500" lon="0.1673750">
        <ele>609.0</ele>
      </trkpt>
      <trkpt lat="40.8286190" lon="0.1673190">
        <ele>609.1</ele>
      </trkpt>
      <trkpt lat="40.8285940" lon="0.1672600">
        <ele>609.1</ele>
      </trkpt>
      <trkpt lat="40.8285820" lon="0.1672280">
        <ele>609.2</ele>
      </trkpt>
      <trkpt lat="40.8285680" lon="0.1671950">
        <ele>609.2</ele>
      </trkpt>
      <trkpt lat="40.8285510" lon="0.1671590">
        <ele>609.2</ele>
      </trkpt>
      <trkpt lat="40.8285360" lon="0.1671180">
        <ele>609.3</ele>
      </trkpt>
      <trkpt lat="40.8285210" lon="0.1670770">
        <ele>609.3</ele>
      </trkpt>
      <trkpt lat="40.8285050" lon="0.1670350">
        <ele>609.3</ele>
      </trkpt>
      <trkpt lat="40.8284910" lon="0.1669930">
        <ele>609.3</ele>
      </trkpt>
      <trkpt lat="40.8284760" lon="0.1669500">
        <ele>609.3</ele>
      </trkpt>
      <trkpt lat="40.8284630" lon="0.1669060">
        <ele>609.4</ele>
      </trkpt>
      <trkpt lat="40.8284530" lon="0.1668620">
        <ele>609.4</ele>
      </trkpt>
      <trkpt lat="40.8284450" lon="0.1668170">
        <ele>609.4</ele>
      </trkpt>
      <trkpt lat="40.8284350" lon="0.1667710">
        <ele>609.4</ele>
      </trkpt>
      <trkpt lat="40.8284250" lon="0.1667230">
        <ele>609.4</ele>
      </trkpt>
      <trkpt lat="40.8284130" lon="0.1666750">
        <ele>609.4</ele>
      </trkpt>
      <trkpt lat="40.8283990" lon="0.1666300">
        <ele>609.4</ele>
      </trkpt>
      <trkpt lat="40.8283840" lon="0.1665870">
        <ele>609.4</ele>
      </trkpt>
      <trkpt lat="40.8283680" lon="0.1665440">
        <ele>609.4</ele>
      </trkpt>
      <trkpt lat="40.8283490" lon="0.1665060">
        <ele>609.4</ele>
      </trkpt>
      <trkpt lat="40.8283300" lon="0.1664680">
        <ele>609.5</ele>
      </trkpt>
      <trkpt lat="40.8283120" lon="0.1664300">
        <ele>609.5</ele>
      </trkpt>
      <trkpt lat="40.8282930" lon="0.1663930">
        <ele>609.7</ele>
      </trkpt>
      <trkpt lat="40.8282750" lon="0.1663550">
        <ele>609.8</ele>
      </trkpt>
      <trkpt lat="40.8282600" lon="0.1663160">
        <ele>609.9</ele>
      </trkpt>
      <trkpt lat="40.8282450" lon="0.1662780">
        <ele>610.0</ele>
      </trkpt>
      <trkpt lat="40.8282320" lon="0.1662380">
        <ele>610.1</ele>
      </trkpt>
      <trkpt lat="40.8282210" lon="0.1662000">
        <ele>610.2</ele>
      </trkpt>
      <trkpt lat="40.8282100" lon="0.1661630">
        <ele>610.5</ele>
      </trkpt>
      <trkpt lat="40.8282010" lon="0.1661280">
        <ele>610.8</ele>
      </trkpt>
      <trkpt lat="40.8281880" lon="0.1660690">
        <ele>611.3</ele>
      </trkpt>
      <trkpt lat="40.8281760" lon="0.1660090">
        <ele>611.7</ele>
      </trkpt>
      <trkpt lat="40.8281690" lon="0.1659440">
        <ele>612.2</ele>
      </trkpt>
      <trkpt lat="40.8281600" lon="0.1658790">
        <ele>612.9</ele>
      </trkpt>
      <trkpt lat="40.8281510" lon="0.1658230">
        <ele>613.5</ele>
      </trkpt>
      <trkpt lat="40.8281390" lon="0.1657770">
        <ele>613.8</ele>
      </trkpt>
      <trkpt lat="40.8281260" lon="0.1657330">
        <ele>614.1</ele>
      </trkpt>
      <trkpt lat="40.8281140" lon="0.1656890">
        <ele>614.5</ele>
      </trkpt>
      <trkpt lat="40.8281040" lon="0.1656460">
        <ele>615.0</ele>
      </trkpt>
      <trkpt lat="40.8280940" lon="0.1656040">
        <ele>615.4</ele>
      </trkpt>
      <trkpt lat="40.8280790" lon="0.1655620">
        <ele>615.7</ele>
      </trkpt>
      <trkpt lat="40.8280590" lon="0.1655170">
        <ele>615.9</ele>
      </trkpt>
      <trkpt lat="40.8280360" lon="0.1654650">
        <ele>616.1</ele>
      </trkpt>
      <trkpt lat="40.8280150" lon="0.1654170">
        <ele>616.3</ele>
      </trkpt>
      <trkpt lat="40.8279980" lon="0.1653660">
        <ele>616.5</ele>
      </trkpt>
      <trkpt lat="40.8279810" lon="0.1653120">
        <ele>616.8</ele>
      </trkpt>
      <trkpt lat="40.8279630" lon="0.1652640">
        <ele>617.2</ele>
      </trkpt>
      <trkpt lat="40.8279430" lon="0.1652040">
        <ele>617.6</ele>
      </trkpt>
      <trkpt lat="40.8279220" lon="0.1651430">
        <ele>617.9</ele>
      </trkpt>
      <trkpt lat="40.8278970" lon="0.1650820">
        <ele>618.0</ele>
      </trkpt>
      <trkpt lat="40.8278840" lon="0.1650500">
        <ele>618.1</ele>
      </trkpt>
      <trkpt lat="40.8278580" lon="0.1649910">
        <ele>618.2</ele>
      </trkpt>
      <trkpt lat="40.8278340" lon="0.1649310">
        <ele>618.3</ele>
      </trkpt>
      <trkpt lat="40.8278100" lon="0.1648710">
        <ele>618.5</ele>
      </trkpt>
      <trkpt lat="40.8277810" lon="0.1648170">
        <ele>618.7</ele>
      </trkpt>
      <trkpt lat="40.8277560" lon="0.1647590">
        <ele>619.2</ele>
      </trkpt>
      <trkpt lat="40.8277410" lon="0.1646990">
        <ele>619.6</ele>
      </trkpt>
      <trkpt lat="40.8277320" lon="0.1646340">
        <ele>619.9</ele>
      </trkpt>
      <trkpt lat="40.8277280" lon="0.1645990">
        <ele>620.0</ele>
      </trkpt>
      <trkpt lat="40.8277170" lon="0.1645320">
        <ele>620.1</ele>
      </trkpt>
      <trkpt lat="40.8277050" lon="0.1644650">
        <ele>620.2</ele>
      </trkpt>
      <trkpt lat="40.8276990" lon="0.1644270">
        <ele>620.3</ele>
      </trkpt>
      <trkpt lat="40.8276960" lon="0.1643870">
        <ele>620.4</ele>
      </trkpt>
      <trkpt lat="40.8276930" lon="0.1643450">
        <ele>620.4</ele>
      </trkpt>
      <trkpt lat="40.8276900" lon="0.1643050">
        <ele>620.5</ele>
      </trkpt>
      <trkpt lat="40.8276860" lon="0.1642660">
        <ele>620.6</ele>
      </trkpt>
      <trkpt lat="40.8276820" lon="0.1642260">
        <ele>620.6</ele>
      </trkpt>
      <trkpt lat="40.8276770" lon="0.1641870">
        <ele>620.7</ele>
      </trkpt>
      <trkpt lat="40.8276730" lon="0.1641490">
        <ele>620.8</ele>
      </trkpt>
      <trkpt lat="40.8276670" lon="0.1641090">
        <ele>620.9</ele>
      </trkpt>
      <trkpt lat="40.8276600" lon="0.1640720">
        <ele>621.0</ele>
      </trkpt>
      <trkpt lat="40.8276510" lon="0.1640340">
        <ele>621.1</ele>
      </trkpt>
      <trkpt lat="40.8276380" lon="0.1639960">
        <ele>621.3</ele>
      </trkpt>
      <trkpt lat="40.8276280" lon="0.1639550">
        <ele>621.5</ele>
      </trkpt>
      <trkpt lat="40.8276160" lon="0.1639140">
        <ele>621.7</ele>
      </trkpt>
      <trkpt lat="40.8276020" lon="0.1638740">
        <ele>621.9</ele>
      </trkpt>
      <trkpt lat="40.8275900" lon="0.1638290">
        <ele>622.0</ele>
      </trkpt>
      <trkpt lat="40.8275750" lon="0.1637830">
        <ele>622.0</ele>
      </trkpt>
      <trkpt lat="40.8275590" lon="0.1637390">
        <ele>622.1</ele>
      </trkpt>
      <trkpt lat="40.8275410" lon="0.1636970">
        <ele>622.1</ele>
      </trkpt>
      <trkpt lat="40.8275230" lon="0.1636560">
        <ele>622.2</ele>
      </trkpt>
      <trkpt lat="40.8275050" lon="0.1636130">
        <ele>622.2</ele>
      </trkpt>
      <trkpt lat="40.8274890" lon="0.1635660">
        <ele>622.3</ele>
      </trkpt>
      <trkpt lat="40.8274710" lon="0.1635190">
        <ele>622.3</ele>
      </trkpt>
      <trkpt lat="40.8274520" lon="0.1634750">
        <ele>622.3</ele>
      </trkpt>
      <trkpt lat="40.8274300" lon="0.1634320">
        <ele>622.3</ele>
      </trkpt>
      <trkpt lat="40.8274060" lon="0.1633940">
        <ele>622.4</ele>
      </trkpt>
      <trkpt lat="40.8273780" lon="0.1633590">
        <ele>622.4</ele>
      </trkpt>
      <trkpt lat="40.8273480" lon="0.1633240">
        <ele>622.4</ele>
      </trkpt>
      <trkpt lat="40.8273160" lon="0.1632880">
        <ele>622.4</ele>
      </trkpt>
      <trkpt lat="40.8272820" lon="0.1632500">
        <ele>622.4</ele>
      </trkpt>
      <trkpt lat="40.8272470" lon="0.1632110">
        <ele>622.4</ele>
      </trkpt>
      <trkpt lat="40.8272030" lon="0.1631780">
        <ele>622.4</ele>
      </trkpt>
      <trkpt lat="40.8271640" lon="0.1631420">
        <ele>622.4</ele>
      </trkpt>
      <trkpt lat="40.8271280" lon="0.1631060">
        <ele>622.4</ele>
      </trkpt>
      <trkpt lat="40.8270960" lon="0.1630680">
        <ele>622.4</ele>
      </trkpt>
      <trkpt lat="40.8270610" lon="0.1630230">
        <ele>622.4</ele>
      </trkpt>
      <trkpt lat="40.8270250" lon="0.1629760">
        <ele>622.4</ele>
      </trkpt>
      <trkpt lat="40.8269990" lon="0.1629340">
        <ele>622.4</ele>
      </trkpt>
      <trkpt lat="40.8269700" lon="0.1628790">
        <ele>622.4</ele>
      </trkpt>
      <trkpt lat="40.8269450" lon="0.1628290">
        <ele>622.4</ele>
      </trkpt>
      <trkpt lat="40.8269130" lon="0.1627860">
        <ele>622.4</ele>
      </trkpt>
      <trkpt lat="40.8268820" lon="0.1627420">
        <ele>622.4</ele>
      </trkpt>
      <trkpt lat="40.8268500" lon="0.1626970">
        <ele>622.4</ele>
      </trkpt>
      <trkpt lat="40.8268180" lon="0.1626600">
        <ele>622.4</ele>
      </trkpt>
      <trkpt lat="40.8267740" lon="0.1626260">
        <ele>622.4</ele>
      </trkpt>
      <trkpt lat="40.8267270" lon="0.1626130">
        <ele>622.4</ele>
      </trkpt>
      <trkpt lat="40.8266840" lon="0.1626010">
        <ele>622.4</ele>
      </trkpt>
      <trkpt lat="40.8266340" lon="0.1625820">
        <ele>622.4</ele>
      </trkpt>
      <trkpt lat="40.8265860" lon="0.1625640">
        <ele>622.4</ele>
      </trkpt>
      <trkpt lat="40.8265380" lon="0.1625500">
        <ele>622.4</ele>
      </trkpt>
      <trkpt lat="40.8264980" lon="0.1625290">
        <ele>622.4</ele>
      </trkpt>
      <trkpt lat="40.8264630" lon="0.1625060">
        <ele>622.4</ele>
      </trkpt>
      <trkpt lat="40.8264330" lon="0.1624710">
        <ele>622.4</ele>
      </trkpt>
      <trkpt lat="40.8264040" lon="0.1624350">
        <ele>622.4</ele>
      </trkpt>
      <trkpt lat="40.8263770" lon="0.1624020">
        <ele>622.4</ele>
      </trkpt>
      <trkpt lat="40.8263480" lon="0.1623600">
        <ele>622.4</ele>
      </trkpt>
      <trkpt lat="40.8263260" lon="0.1623220">
        <ele>622.4</ele>
      </trkpt>
      <trkpt lat="40.8263020" lon="0.1622850">
        <ele>622.4</ele>
      </trkpt>
      <trkpt lat="40.8262760" lon="0.1622470">
        <ele>622.4</ele>
      </trkpt>
      <trkpt lat="40.8262510" lon="0.1622080">
        <ele>622.4</ele>
      </trkpt>
      <trkpt lat="40.8262280" lon="0.1621670">
        <ele>622.4</ele>
      </trkpt>
      <trkpt lat="40.8262010" lon="0.1621250">
        <ele>622.4</ele>
      </trkpt>
      <trkpt lat="40.8261800" lon="0.1620810">
        <ele>622.4</ele>
      </trkpt>
      <trkpt lat="40.8261620" lon="0.1620360">
        <ele>622.4</ele>
      </trkpt>
      <trkpt lat="40.8261490" lon="0.1619880">
        <ele>622.5</ele>
      </trkpt>
      <trkpt lat="40.8261360" lon="0.1619430">
        <ele>622.5</ele>
      </trkpt>
      <trkpt lat="40.8261220" lon="0.1618980">
        <ele>622.6</ele>
      </trkpt>
      <trkpt lat="40.8261080" lon="0.1618560">
        <ele>622.7</ele>
      </trkpt>
      <trkpt lat="40.8260950" lon="0.1618130">
        <ele>622.7</ele>
      </trkpt>
      <trkpt lat="40.8260830" lon="0.1617700">
        <ele>622.9</ele>
      </trkpt>
      <trkpt lat="40.8260720" lon="0.1617280">
        <ele>623.2</ele>
      </trkpt>
      <trkpt lat="40.8260620" lon="0.1616880">
        <ele>623.5</ele>
      </trkpt>
      <trkpt lat="40.8260540" lon="0.1616460">
        <ele>623.8</ele>
      </trkpt>
      <trkpt lat="40.8260440" lon="0.1616030">
        <ele>624.2</ele>
      </trkpt>
      <trkpt lat="40.8260390" lon="0.1615570">
        <ele>624.4</ele>
      </trkpt>
      <trkpt lat="40.8260340" lon="0.1615110">
        <ele>624.6</ele>
      </trkpt>
      <trkpt lat="40.8260290" lon="0.1614690">
        <ele>624.8</ele>
      </trkpt>
      <trkpt lat="40.8260230" lon="0.1614270">
        <ele>624.9</ele>
      </trkpt>
      <trkpt lat="40.8260160" lon="0.1613890">
        <ele>625.1</ele>
      </trkpt>
      <trkpt lat="40.8260070" lon="0.1613210">
        <ele>625.5</ele>
      </trkpt>
      <trkpt lat="40.8259920" lon="0.1612560">
        <ele>625.9</ele>
      </trkpt>
      <trkpt lat="40.8259680" lon="0.1611980">
        <ele>626.2</ele>
      </trkpt>
      <trkpt lat="40.8259410" lon="0.1611480">
        <ele>626.4</ele>
      </trkpt>
      <trkpt lat="40.8259130" lon="0.1610940">
        <ele>626.6</ele>
      </trkpt>
      <trkpt lat="40.8258860" lon="0.1610400">
        <ele>626.8</ele>
      </trkpt>
      <trkpt lat="40.8258540" lon="0.1609790">
        <ele>627.0</ele>
      </trkpt>
      <trkpt lat="40.8258380" lon="0.1609440">
        <ele>627.1</ele>
      </trkpt>
      <trkpt lat="40.8258230" lon="0.1609070">
        <ele>627.3</ele>
      </trkpt>
      <trkpt lat="40.8258090" lon="0.1608720">
        <ele>627.6</ele>
      </trkpt>
      <trkpt lat="40.8257950" lon="0.1608370">
        <ele>627.8</ele>
      </trkpt>
      <trkpt lat="40.8257830" lon="0.1608000">
        <ele>628.1</ele>
      </trkpt>
      <trkpt lat="40.8257710" lon="0.1607620">
        <ele>628.3</ele>
      </trkpt>
      <trkpt lat="40.8257610" lon="0.1607230">
        <ele>628.5</ele>
      </trkpt>
      <trkpt lat="40.8257520" lon="0.1606810">
        <ele>628.6</ele>
      </trkpt>
      <trkpt lat="40.8257430" lon="0.1606430">
        <ele>628.8</ele>
      </trkpt>
      <trkpt lat="40.8257340" lon="0.1606060">
        <ele>628.9</ele>
      </trkpt>
      <trkpt lat="40.8257250" lon="0.1605720">
        <ele>629.0</ele>
      </trkpt>
      <trkpt lat="40.8257080" lon="0.1605040">
        <ele>629.5</ele>
      </trkpt>
      <trkpt lat="40.8256980" lon="0.1604700">
        <ele>629.8</ele>
      </trkpt>
      <trkpt lat="40.8256840" lon="0.1604360">
        <ele>630.0</ele>
      </trkpt>
      <trkpt lat="40.8256690" lon="0.1604040">
        <ele>630.2</ele>
      </trkpt>
      <trkpt lat="40.8256540" lon="0.1603740">
        <ele>630.3</ele>
      </trkpt>
      <trkpt lat="40.8256270" lon="0.1603240">
        <ele>630.5</ele>
      </trkpt>
      <trkpt lat="40.8255980" lon="0.1602680">
        <ele>630.7</ele>
      </trkpt>
      <trkpt lat="40.8255710" lon="0.1602130">
        <ele>630.9</ele>
      </trkpt>
      <trkpt lat="40.8255460" lon="0.1601570">
        <ele>631.1</ele>
      </trkpt>
      <trkpt lat="40.8255330" lon="0.1601250">
        <ele>631.3</ele>
      </trkpt>
      <trkpt lat="40.8255180" lon="0.1600900">
        <ele>631.6</ele>
      </trkpt>
      <trkpt lat="40.8255020" lon="0.1600560">
        <ele>631.8</ele>
      </trkpt>
      <trkpt lat="40.8254880" lon="0.1600240">
        <ele>632.1</ele>
      </trkpt>
      <trkpt lat="40.8254620" lon="0.1599640">
        <ele>632.4</ele>
      </trkpt>
      <trkpt lat="40.8254420" lon="0.1599080">
        <ele>632.5</ele>
      </trkpt>
      <trkpt lat="40.8254220" lon="0.1598510">
        <ele>632.6</ele>
      </trkpt>
      <trkpt lat="40.8254030" lon="0.1597990">
        <ele>632.7</ele>
      </trkpt>
      <trkpt lat="40.8253860" lon="0.1597430">
        <ele>632.8</ele>
      </trkpt>
      <trkpt lat="40.8253650" lon="0.1596790">
        <ele>632.9</ele>
      </trkpt>
      <trkpt lat="40.8253410" lon="0.1596160">
        <ele>633.0</ele>
      </trkpt>
      <trkpt lat="40.8253280" lon="0.1595830">
        <ele>633.0</ele>
      </trkpt>
      <trkpt lat="40.8253140" lon="0.1595490">
        <ele>633.1</ele>
      </trkpt>
      <trkpt lat="40.8253010" lon="0.1595140">
        <ele>633.1</ele>
      </trkpt>
      <trkpt lat="40.8252870" lon="0.1594810">
        <ele>633.2</ele>
      </trkpt>
      <trkpt lat="40.8252740" lon="0.1594460">
        <ele>633.2</ele>
      </trkpt>
      <trkpt lat="40.8252600" lon="0.1594110">
        <ele>633.3</ele>
      </trkpt>
      <trkpt lat="40.8252460" lon="0.1593780">
        <ele>633.4</ele>
      </trkpt>
      <trkpt lat="40.8252320" lon="0.1593470">
        <ele>633.5</ele>
      </trkpt>
      <trkpt lat="40.8252190" lon="0.1593150">
        <ele>633.6</ele>
      </trkpt>
      <trkpt lat="40.8252090" lon="0.1592800">
        <ele>633.8</ele>
      </trkpt>
      <trkpt lat="40.8252000" lon="0.1592450">
        <ele>634.0</ele>
      </trkpt>
      <trkpt lat="40.8251920" lon="0.1592090">
        <ele>634.2</ele>
      </trkpt>
      <trkpt lat="40.8251840" lon="0.1591720">
        <ele>634.3</ele>
      </trkpt>
      <trkpt lat="40.8251750" lon="0.1591340">
        <ele>634.4</ele>
      </trkpt>
      <trkpt lat="40.8251670" lon="0.1590940">
        <ele>634.5</ele>
      </trkpt>
      <trkpt lat="40.8251580" lon="0.1590550">
        <ele>634.6</ele>
      </trkpt>
      <trkpt lat="40.8251490" lon="0.1590140">
        <ele>634.6</ele>
      </trkpt>
      <trkpt lat="40.8251410" lon="0.1589730">
        <ele>634.7</ele>
      </trkpt>
      <trkpt lat="40.8251330" lon="0.1589350">
        <ele>634.8</ele>
      </trkpt>
      <trkpt lat="40.8251240" lon="0.1588970">
        <ele>634.8</ele>
      </trkpt>
      <trkpt lat="40.8251140" lon="0.1588600">
        <ele>634.9</ele>
      </trkpt>
      <trkpt lat="40.8251020" lon="0.1588250">
        <ele>634.9</ele>
      </trkpt>
      <trkpt lat="40.8250900" lon="0.1587910">
        <ele>635.0</ele>
      </trkpt>
      <trkpt lat="40.8250770" lon="0.1587580">
        <ele>635.0</ele>
      </trkpt>
      <trkpt lat="40.8250660" lon="0.1587230">
        <ele>635.1</ele>
      </trkpt>
      <trkpt lat="40.8250540" lon="0.1586900">
        <ele>635.1</ele>
      </trkpt>
      <trkpt lat="40.8250430" lon="0.1586550">
        <ele>635.1</ele>
      </trkpt>
      <trkpt lat="40.8250320" lon="0.1586210">
        <ele>635.2</ele>
      </trkpt>
      <trkpt lat="40.8250210" lon="0.1585860">
        <ele>635.3</ele>
      </trkpt>
      <trkpt lat="40.8250100" lon="0.1585500">
        <ele>635.4</ele>
      </trkpt>
      <trkpt lat="40.8249980" lon="0.1585130">
        <ele>635.5</ele>
      </trkpt>
      <trkpt lat="40.8249880" lon="0.1584750">
        <ele>635.6</ele>
      </trkpt>
      <trkpt lat="40.8249780" lon="0.1584360">
        <ele>635.8</ele>
      </trkpt>
      <trkpt lat="40.8249680" lon="0.1583960">
        <ele>636.0</ele>
      </trkpt>
      <trkpt lat="40.8249580" lon="0.1583570">
        <ele>636.3</ele>
      </trkpt>
      <trkpt lat="40.8249490" lon="0.1583170">
        <ele>636.5</ele>
      </trkpt>
      <trkpt lat="40.8249390" lon="0.1582790">
        <ele>636.6</ele>
      </trkpt>
      <trkpt lat="40.8249290" lon="0.1582410">
        <ele>636.7</ele>
      </trkpt>
      <trkpt lat="40.8249190" lon="0.1582040">
        <ele>636.8</ele>
      </trkpt>
      <trkpt lat="40.8249110" lon="0.1581650">
        <ele>636.9</ele>
      </trkpt>
      <trkpt lat="40.8249040" lon="0.1581260">
        <ele>637.0</ele>
      </trkpt>
      <trkpt lat="40.8248960" lon="0.1580870">
        <ele>637.1</ele>
      </trkpt>
      <trkpt lat="40.8248870" lon="0.1580490">
        <ele>637.2</ele>
      </trkpt>
      <trkpt lat="40.8248780" lon="0.1580100">
        <ele>637.3</ele>
      </trkpt>
      <trkpt lat="40.8248670" lon="0.1579720">
        <ele>637.4</ele>
      </trkpt>
      <trkpt lat="40.8248560" lon="0.1579330">
        <ele>637.6</ele>
      </trkpt>
      <trkpt lat="40.8248440" lon="0.1579000">
        <ele>637.8</ele>
      </trkpt>
      <trkpt lat="40.8248200" lon="0.1578380">
        <ele>638.2</ele>
      </trkpt>
      <trkpt lat="40.8247980" lon="0.1577740">
        <ele>638.7</ele>
      </trkpt>
      <trkpt lat="40.8247890" lon="0.1577380">
        <ele>638.7</ele>
      </trkpt>
      <trkpt lat="40.8247780" lon="0.1577020">
        <ele>638.8</ele>
      </trkpt>
      <trkpt lat="40.8247670" lon="0.1576650">
        <ele>638.9</ele>
      </trkpt>
      <trkpt lat="40.8247550" lon="0.1576250">
        <ele>639.0</ele>
      </trkpt>
      <trkpt lat="40.8247470" lon="0.1575830">
        <ele>639.1</ele>
      </trkpt>
      <trkpt lat="40.8247400" lon="0.1575400">
        <ele>639.1</ele>
      </trkpt>
      <trkpt lat="40.8247330" lon="0.1574980">
        <ele>639.2</ele>
      </trkpt>
      <trkpt lat="40.8247250" lon="0.1574560">
        <ele>639.3</ele>
      </trkpt>
      <trkpt lat="40.8247180" lon="0.1574150">
        <ele>639.4</ele>
      </trkpt>
      <trkpt lat="40.8247120" lon="0.1573770">
        <ele>639.6</ele>
      </trkpt>
      <trkpt lat="40.8247070" lon="0.1573380">
        <ele>639.8</ele>
      </trkpt>
      <trkpt lat="40.8247020" lon="0.1572980">
        <ele>640.1</ele>
      </trkpt>
      <trkpt lat="40.8246970" lon="0.1572600">
        <ele>640.3</ele>
      </trkpt>
      <trkpt lat="40.8246930" lon="0.1572230">
        <ele>640.5</ele>
      </trkpt>
      <trkpt lat="40.8246920" lon="0.1571870">
        <ele>640.6</ele>
      </trkpt>
      <trkpt lat="40.8246920" lon="0.1571470">
        <ele>640.7</ele>
      </trkpt>
      <trkpt lat="40.8246960" lon="0.1571010">
        <ele>640.7</ele>
      </trkpt>
      <trkpt lat="40.8247010" lon="0.1570510">
        <ele>640.7</ele>
      </trkpt>
      <trkpt lat="40.8247070" lon="0.1569990">
        <ele>640.7</ele>
      </trkpt>
      <trkpt lat="40.8247120" lon="0.1569450">
        <ele>640.8</ele>
      </trkpt>
      <trkpt lat="40.8247170" lon="0.1568880">
        <ele>640.8</ele>
      </trkpt>
      <trkpt lat="40.8247350" lon="0.1568130">
        <ele>640.9</ele>
      </trkpt>
      <trkpt lat="40.8247440" lon="0.1567380">
        <ele>640.9</ele>
      </trkpt>
      <trkpt lat="40.8247400" lon="0.1566630">
        <ele>640.9</ele>
      </trkpt>
      <trkpt lat="40.8247380" lon="0.1566090">
        <ele>640.9</ele>
      </trkpt>
      <trkpt lat="40.8247350" lon="0.1565520">
        <ele>640.9</ele>
      </trkpt>
      <trkpt lat="40.8247320" lon="0.1565000">
        <ele>641.0</ele>
      </trkpt>
      <trkpt lat="40.8247050" lon="0.1564710">
        <ele>641.0</ele>
      </trkpt>
      <trkpt lat="40.8246980" lon="0.1564310">
        <ele>641.0</ele>
      </trkpt>
      <trkpt lat="40.8247170" lon="0.1563840">
        <ele>641.0</ele>
      </trkpt>
      <trkpt lat="40.8247130" lon="0.1563310">
        <ele>641.0</ele>
      </trkpt>
      <trkpt lat="40.8247060" lon="0.1562620">
        <ele>641.0</ele>
      </trkpt>
      <trkpt lat="40.8247010" lon="0.1562030">
        <ele>641.1</ele>
      </trkpt>
      <trkpt lat="40.8247020" lon="0.1561600">
        <ele>641.1</ele>
      </trkpt>
      <trkpt lat="40.8247100" lon="0.1560920">
        <ele>641.1</ele>
      </trkpt>
      <trkpt lat="40.8247060" lon="0.1560430">
        <ele>641.2</ele>
      </trkpt>
      <trkpt lat="40.8246980" lon="0.1559980">
        <ele>641.2</ele>
      </trkpt>
      <trkpt lat="40.8246940" lon="0.1559500">
        <ele>641.3</ele>
      </trkpt>
      <trkpt lat="40.8246870" lon="0.1559130">
        <ele>641.3</ele>
      </trkpt>
      <trkpt lat="40.8246820" lon="0.1558740">
        <ele>641.5</ele>
      </trkpt>
      <trkpt lat="40.8246730" lon="0.1558340">
        <ele>641.7</ele>
      </trkpt>
      <trkpt lat="40.8246650" lon="0.1557910">
        <ele>642.0</ele>
      </trkpt>
      <trkpt lat="40.8246580" lon="0.1557510">
        <ele>642.3</ele>
      </trkpt>
      <trkpt lat="40.8246490" lon="0.1557110">
        <ele>642.6</ele>
      </trkpt>
      <trkpt lat="40.8246380" lon="0.1556730">
        <ele>642.9</ele>
      </trkpt>
      <trkpt lat="40.8246250" lon="0.1556370">
        <ele>643.1</ele>
      </trkpt>
      <trkpt lat="40.8246160" lon="0.1555980">
        <ele>643.3</ele>
      </trkpt>
      <trkpt lat="40.8246080" lon="0.1555600">
        <ele>643.5</ele>
      </trkpt>
      <trkpt lat="40.8246000" lon="0.1555250">
        <ele>643.6</ele>
      </trkpt>
      <trkpt lat="40.8245870" lon="0.1554920">
        <ele>643.8</ele>
      </trkpt>
      <trkpt lat="40.8245730" lon="0.1554580">
        <ele>644.1</ele>
      </trkpt>
      <trkpt lat="40.8245550" lon="0.1554280">
        <ele>644.4</ele>
      </trkpt>
      <trkpt lat="40.8245380" lon="0.1553980">
        <ele>644.7</ele>
      </trkpt>
      <trkpt lat="40.8245090" lon="0.1553480">
        <ele>644.9</ele>
      </trkpt>
      <trkpt lat="40.8244840" lon="0.1553010">
        <ele>645.0</ele>
      </trkpt>
      <trkpt lat="40.8244540" lon="0.1552610">
        <ele>645.1</ele>
      </trkpt>
      <trkpt lat="40.8244180" lon="0.1552010">
        <ele>645.3</ele>
      </trkpt>
      <trkpt lat="40.8243980" lon="0.1551660">
        <ele>645.4</ele>
      </trkpt>
      <trkpt lat="40.8243790" lon="0.1551300">
        <ele>645.5</ele>
      </trkpt>
      <trkpt lat="40.8243580" lon="0.1550930">
        <ele>645.6</ele>
      </trkpt>
      <trkpt lat="40.8243380" lon="0.1550520">
        <ele>645.7</ele>
      </trkpt>
      <trkpt lat="40.8243200" lon="0.1550110">
        <ele>645.8</ele>
      </trkpt>
      <trkpt lat="40.8243020" lon="0.1549700">
        <ele>646.0</ele>
      </trkpt>
      <trkpt lat="40.8242850" lon="0.1549320">
        <ele>646.2</ele>
      </trkpt>
      <trkpt lat="40.8242710" lon="0.1548940">
        <ele>646.5</ele>
      </trkpt>
      <trkpt lat="40.8242580" lon="0.1548560">
        <ele>646.8</ele>
      </trkpt>
      <trkpt lat="40.8242470" lon="0.1548180">
        <ele>647.0</ele>
      </trkpt>
      <trkpt lat="40.8242370" lon="0.1547820">
        <ele>647.1</ele>
      </trkpt>
      <trkpt lat="40.8242280" lon="0.1547480">
        <ele>647.2</ele>
      </trkpt>
      <trkpt lat="40.8242210" lon="0.1547130">
        <ele>647.3</ele>
      </trkpt>
      <trkpt lat="40.8242140" lon="0.1546760">
        <ele>647.4</ele>
      </trkpt>
      <trkpt lat="40.8242090" lon="0.1546360">
        <ele>647.6</ele>
      </trkpt>
      <trkpt lat="40.8242030" lon="0.1545950">
        <ele>647.7</ele>
      </trkpt>
      <trkpt lat="40.8241990" lon="0.1545540">
        <ele>647.8</ele>
      </trkpt>
      <trkpt lat="40.8241950" lon="0.1545120">
        <ele>647.9</ele>
      </trkpt>
      <trkpt lat="40.8241910" lon="0.1544700">
        <ele>648.1</ele>
      </trkpt>
      <trkpt lat="40.8241870" lon="0.1544290">
        <ele>648.4</ele>
      </trkpt>
      <trkpt lat="40.8241810" lon="0.1543910">
        <ele>648.7</ele>
      </trkpt>
      <trkpt lat="40.8241740" lon="0.1543520">
        <ele>649.0</ele>
      </trkpt>
      <trkpt lat="40.8241670" lon="0.1543140">
        <ele>649.2</ele>
      </trkpt>
      <trkpt lat="40.8241580" lon="0.1542730">
        <ele>649.3</ele>
      </trkpt>
      <trkpt lat="40.8241490" lon="0.1542310">
        <ele>649.5</ele>
      </trkpt>
      <trkpt lat="40.8241420" lon="0.1541910">
        <ele>649.7</ele>
      </trkpt>
      <trkpt lat="40.8241350" lon="0.1541520">
        <ele>649.9</ele>
      </trkpt>
      <trkpt lat="40.8241290" lon="0.1541150">
        <ele>650.1</ele>
      </trkpt>
      <trkpt lat="40.8241220" lon="0.1540790">
        <ele>650.4</ele>
      </trkpt>
      <trkpt lat="40.8241150" lon="0.1540440">
        <ele>650.7</ele>
      </trkpt>
      <trkpt lat="40.8241070" lon="0.1540080">
        <ele>650.9</ele>
      </trkpt>
      <trkpt lat="40.8240990" lon="0.1539720">
        <ele>651.1</ele>
      </trkpt>
      <trkpt lat="40.8240920" lon="0.1539340">
        <ele>651.3</ele>
      </trkpt>
      <trkpt lat="40.8240830" lon="0.1539000">
        <ele>651.4</ele>
      </trkpt>
      <trkpt lat="40.8240730" lon="0.1538660">
        <ele>651.6</ele>
      </trkpt>
      <trkpt lat="40.8240640" lon="0.1538310">
        <ele>651.7</ele>
      </trkpt>
      <trkpt lat="40.8240540" lon="0.1537990">
        <ele>651.8</ele>
      </trkpt>
      <trkpt lat="40.8240450" lon="0.1537620">
        <ele>651.9</ele>
      </trkpt>
      <trkpt lat="40.8240350" lon="0.1537250">
        <ele>652.0</ele>
      </trkpt>
      <trkpt lat="40.8240250" lon="0.1536900">
        <ele>652.1</ele>
      </trkpt>
      <trkpt lat="40.8240150" lon="0.1536550">
        <ele>652.4</ele>
      </trkpt>
      <trkpt lat="40.8240030" lon="0.1536210">
        <ele>652.6</ele>
      </trkpt>
      <trkpt lat="40.8239920" lon="0.1535880">
        <ele>652.8</ele>
      </trkpt>
      <trkpt lat="40.8239810" lon="0.1535550">
        <ele>653.0</ele>
      </trkpt>
      <trkpt lat="40.8239700" lon="0.1535200">
        <ele>653.1</ele>
      </trkpt>
      <trkpt lat="40.8239610" lon="0.1534840">
        <ele>653.2</ele>
      </trkpt>
      <trkpt lat="40.8239520" lon="0.1534490">
        <ele>653.2</ele>
      </trkpt>
      <trkpt lat="40.8239440" lon="0.1534130">
        <ele>653.3</ele>
      </trkpt>
      <trkpt lat="40.8239340" lon="0.1533760">
        <ele>653.4</ele>
      </trkpt>
      <trkpt lat="40.8239270" lon="0.1533410">
        <ele>653.5</ele>
      </trkpt>
      <trkpt lat="40.8239190" lon="0.1533070">
        <ele>653.5</ele>
      </trkpt>
      <trkpt lat="40.8239130" lon="0.1532690">
        <ele>653.6</ele>
      </trkpt>
      <trkpt lat="40.8239060" lon="0.1532300">
        <ele>653.7</ele>
      </trkpt>
      <trkpt lat="40.8238990" lon="0.1531900">
        <ele>653.8</ele>
      </trkpt>
      <trkpt lat="40.8238900" lon="0.1531510">
        <ele>653.9</ele>
      </trkpt>
      <trkpt lat="40.8238800" lon="0.1531130">
        <ele>654.0</ele>
      </trkpt>
      <trkpt lat="40.8238680" lon="0.1530770">
        <ele>654.1</ele>
      </trkpt>
      <trkpt lat="40.8238560" lon="0.1530400">
        <ele>654.4</ele>
      </trkpt>
      <trkpt lat="40.8238430" lon="0.1530030">
        <ele>654.7</ele>
      </trkpt>
      <trkpt lat="40.8238280" lon="0.1529660">
        <ele>654.9</ele>
      </trkpt>
      <trkpt lat="40.8238180" lon="0.1529280">
        <ele>655.2</ele>
      </trkpt>
      <trkpt lat="40.8238080" lon="0.1528900">
        <ele>655.4</ele>
      </trkpt>
      <trkpt lat="40.8237990" lon="0.1528500">
        <ele>655.5</ele>
      </trkpt>
      <trkpt lat="40.8237910" lon="0.1528130">
        <ele>655.5</ele>
      </trkpt>
      <trkpt lat="40.8237770" lon="0.1527510">
        <ele>655.6</ele>
      </trkpt>
      <trkpt lat="40.8237550" lon="0.1526870">
        <ele>655.7</ele>
      </trkpt>
      <trkpt lat="40.8237410" lon="0.1526520">
        <ele>655.8</ele>
      </trkpt>
      <trkpt lat="40.8237280" lon="0.1526180">
        <ele>655.9</ele>
      </trkpt>
      <trkpt lat="40.8237130" lon="0.1525840">
        <ele>656.0</ele>
      </trkpt>
      <trkpt lat="40.8237000" lon="0.1525500">
        <ele>656.1</ele>
      </trkpt>
      <trkpt lat="40.8236870" lon="0.1525150">
        <ele>656.2</ele>
      </trkpt>
      <trkpt lat="40.8236750" lon="0.1524790">
        <ele>656.3</ele>
      </trkpt>
      <trkpt lat="40.8236640" lon="0.1524400">
        <ele>656.5</ele>
      </trkpt>
      <trkpt lat="40.8236540" lon="0.1524020">
        <ele>656.7</ele>
      </trkpt>
      <trkpt lat="40.8236430" lon="0.1523660">
        <ele>656.9</ele>
      </trkpt>
      <trkpt lat="40.8236320" lon="0.1523310">
        <ele>657.2</ele>
      </trkpt>
      <trkpt lat="40.8236210" lon="0.1522980">
        <ele>657.3</ele>
      </trkpt>
      <trkpt lat="40.8236090" lon="0.1522630">
        <ele>657.4</ele>
      </trkpt>
      <trkpt lat="40.8235970" lon="0.1522270">
        <ele>657.5</ele>
      </trkpt>
      <trkpt lat="40.8235850" lon="0.1521880">
        <ele>657.6</ele>
      </trkpt>
      <trkpt lat="40.8235750" lon="0.1521500">
        <ele>657.6</ele>
      </trkpt>
      <trkpt lat="40.8235650" lon="0.1521120">
        <ele>657.7</ele>
      </trkpt>
      <trkpt lat="40.8235540" lon="0.1520770">
        <ele>657.8</ele>
      </trkpt>
      <trkpt lat="40.8235420" lon="0.1520440">
        <ele>657.9</ele>
      </trkpt>
      <trkpt lat="40.8235280" lon="0.1520130">
        <ele>658.0</ele>
      </trkpt>
      <trkpt lat="40.8235130" lon="0.1519830">
        <ele>658.1</ele>
      </trkpt>
      <trkpt lat="40.8234980" lon="0.1519520">
        <ele>658.2</ele>
      </trkpt>
      <trkpt lat="40.8234830" lon="0.1519200">
        <ele>658.3</ele>
      </trkpt>
      <trkpt lat="40.8234680" lon="0.1518890">
        <ele>658.5</ele>
      </trkpt>
      <trkpt lat="40.8234540" lon="0.1518570">
        <ele>658.7</ele>
      </trkpt>
      <trkpt lat="40.8234400" lon="0.1518230">
        <ele>659.0</ele>
      </trkpt>
      <trkpt lat="40.8234260" lon="0.1517870">
        <ele>659.3</ele>
      </trkpt>
      <trkpt lat="40.8234120" lon="0.1517540">
        <ele>659.5</ele>
      </trkpt>
      <trkpt lat="40.8233990" lon="0.1517210">
        <ele>659.6</ele>
      </trkpt>
      <trkpt lat="40.8233850" lon="0.1516890">
        <ele>659.7</ele>
      </trkpt>
      <trkpt lat="40.8233690" lon="0.1516580">
        <ele>659.8</ele>
      </trkpt>
      <trkpt lat="40.8233510" lon="0.1516280">
        <ele>659.9</ele>
      </trkpt>
      <trkpt lat="40.8233330" lon="0.1516010">
        <ele>660.0</ele>
      </trkpt>
      <trkpt lat="40.8233130" lon="0.1515730">
        <ele>660.2</ele>
      </trkpt>
      <trkpt lat="40.8232930" lon="0.1515470">
        <ele>660.3</ele>
      </trkpt>
      <trkpt lat="40.8232730" lon="0.1515180">
        <ele>660.6</ele>
      </trkpt>
      <trkpt lat="40.8232540" lon="0.1514910">
        <ele>660.8</ele>
      </trkpt>
      <trkpt lat="40.8232340" lon="0.1514630">
        <ele>661.1</ele>
      </trkpt>
      <trkpt lat="40.8232140" lon="0.1514360">
        <ele>661.4</ele>
      </trkpt>
      <trkpt lat="40.8231940" lon="0.1514100">
        <ele>661.6</ele>
      </trkpt>
      <trkpt lat="40.8231720" lon="0.1513840">
        <ele>661.7</ele>
      </trkpt>
      <trkpt lat="40.8231510" lon="0.1513580">
        <ele>661.9</ele>
      </trkpt>
      <trkpt lat="40.8231280" lon="0.1513340">
        <ele>662.0</ele>
      </trkpt>
      <trkpt lat="40.8231040" lon="0.1513090">
        <ele>662.1</ele>
      </trkpt>
      <trkpt lat="40.8230790" lon="0.1512850">
        <ele>662.3</ele>
      </trkpt>
      <trkpt lat="40.8230520" lon="0.1512620">
        <ele>662.4</ele>
      </trkpt>
      <trkpt lat="40.8230280" lon="0.1512400">
        <ele>662.5</ele>
      </trkpt>
      <trkpt lat="40.8230040" lon="0.1512170">
        <ele>662.8</ele>
      </trkpt>
      <trkpt lat="40.8229810" lon="0.1511970">
        <ele>663.0</ele>
      </trkpt>
      <trkpt lat="40.8229590" lon="0.1511760">
        <ele>663.2</ele>
      </trkpt>
      <trkpt lat="40.8229160" lon="0.1511360">
        <ele>663.4</ele>
      </trkpt>
      <trkpt lat="40.8228940" lon="0.1511140">
        <ele>663.5</ele>
      </trkpt>
      <trkpt lat="40.8228730" lon="0.1510910">
        <ele>663.5</ele>
      </trkpt>
      <trkpt lat="40.8228510" lon="0.1510680">
        <ele>663.6</ele>
      </trkpt>
      <trkpt lat="40.8228130" lon="0.1510190">
        <ele>663.7</ele>
      </trkpt>
      <trkpt lat="40.8227930" lon="0.1509910">
        <ele>663.7</ele>
      </trkpt>
      <trkpt lat="40.8227690" lon="0.1509660">
        <ele>663.7</ele>
      </trkpt>
      <trkpt lat="40.8227440" lon="0.1509400">
        <ele>663.8</ele>
      </trkpt>
      <trkpt lat="40.8227180" lon="0.1509140">
        <ele>663.8</ele>
      </trkpt>
      <trkpt lat="40.8226930" lon="0.1508860">
        <ele>663.8</ele>
      </trkpt>
      <trkpt lat="40.8226680" lon="0.1508560">
        <ele>663.8</ele>
      </trkpt>
      <trkpt lat="40.8226410" lon="0.1508250">
        <ele>663.9</ele>
      </trkpt>
      <trkpt lat="40.8226120" lon="0.1507930">
        <ele>663.9</ele>
      </trkpt>
      <trkpt lat="40.8225820" lon="0.1507590">
        <ele>663.9</ele>
      </trkpt>
      <trkpt lat="40.8225550" lon="0.1507210">
        <ele>664.0</ele>
      </trkpt>
      <trkpt lat="40.8225270" lon="0.1506800">
        <ele>664.0</ele>
      </trkpt>
      <trkpt lat="40.8225050" lon="0.1506340">
        <ele>663.9</ele>
      </trkpt>
      <trkpt lat="40.8224630" lon="0.1505960">
        <ele>663.6</ele>
      </trkpt>
      <trkpt lat="40.8224330" lon="0.1505500">
        <ele>663.3</ele>
      </trkpt>
      <trkpt lat="40.8224030" lon="0.1505050">
        <ele>663.0</ele>
      </trkpt>
      <trkpt lat="40.8223750" lon="0.1504560">
        <ele>662.5</ele>
      </trkpt>
      <trkpt lat="40.8223430" lon="0.1503970">
        <ele>662.0</ele>
      </trkpt>
      <trkpt lat="40.8223260" lon="0.1503260">
        <ele>661.4</ele>
      </trkpt>
      <trkpt lat="40.8222970" lon="0.1502740">
        <ele>661.1</ele>
      </trkpt>
      <trkpt lat="40.8222700" lon="0.1502110">
        <ele>660.8</ele>
      </trkpt>
      <trkpt lat="40.8222460" lon="0.1501540">
        <ele>660.4</ele>
      </trkpt>
      <trkpt lat="40.8222140" lon="0.1501130">
        <ele>660.0</ele>
      </trkpt>
      <trkpt lat="40.8221860" lon="0.1500570">
        <ele>659.5</ele>
      </trkpt>
      <trkpt lat="40.8221630" lon="0.1499870">
        <ele>659.0</ele>
      </trkpt>
      <trkpt lat="40.8221360" lon="0.1499400">
        <ele>658.6</ele>
      </trkpt>
      <trkpt lat="40.8221020" lon="0.1498960">
        <ele>658.3</ele>
      </trkpt>
      <trkpt lat="40.8220700" lon="0.1498380">
        <ele>658.0</ele>
      </trkpt>
      <trkpt lat="40.8220380" lon="0.1497820">
        <ele>657.6</ele>
      </trkpt>
      <trkpt lat="40.8220010" lon="0.1497310">
        <ele>657.3</ele>
      </trkpt>
      <trkpt lat="40.8219760" lon="0.1496710">
        <ele>657.0</ele>
      </trkpt>
      <trkpt lat="40.8219360" lon="0.1496090">
        <ele>656.8</ele>
      </trkpt>
      <trkpt lat="40.8218940" lon="0.1495460">
        <ele>656.7</ele>
      </trkpt>
      <trkpt lat="40.8218710" lon="0.1494590">
        <ele>656.4</ele>
      </trkpt>
      <trkpt lat="40.8218350" lon="0.1493740">
        <ele>656.2</ele>
      </trkpt>
      <trkpt lat="40.8217870" lon="0.1493150">
        <ele>655.9</ele>
      </trkpt>
      <trkpt lat="40.8217420" lon="0.1492480">
        <ele>655.7</ele>
      </trkpt>
      <trkpt lat="40.8217040" lon="0.1491700">
        <ele>655.5</ele>
      </trkpt>
      <trkpt lat="40.8216650" lon="0.1490900">
        <ele>655.3</ele>
      </trkpt>
      <trkpt lat="40.8216280" lon="0.1490110">
        <ele>655.0</ele>
      </trkpt>
      <trkpt lat="40.8215850" lon="0.1489200">
        <ele>654.7</ele>
      </trkpt>
      <trkpt lat="40.8215450" lon="0.1488220">
        <ele>654.4</ele>
      </trkpt>
      <trkpt lat="40.8215020" lon="0.1487340">
        <ele>654.1</ele>
      </trkpt>
      <trkpt lat="40.8214530" lon="0.1486470">
        <ele>653.8</ele>
      </trkpt>
      <trkpt lat="40.8214070" lon="0.1485600">
        <ele>653.5</ele>
      </trkpt>
      <trkpt lat="40.8213500" lon="0.1484680">
        <ele>653.2</ele>
      </trkpt>
      <trkpt lat="40.8213130" lon="0.1483680">
        <ele>652.8</ele>
      </trkpt>
      <trkpt lat="40.8212660" lon="0.1482730">
        <ele>652.5</ele>
      </trkpt>
      <trkpt lat="40.8212160" lon="0.1481820">
        <ele>652.2</ele>
      </trkpt>
      <trkpt lat="40.8211730" lon="0.1480860">
        <ele>651.9</ele>
      </trkpt>
      <trkpt lat="40.8211380" lon="0.1479740">
        <ele>651.5</ele>
      </trkpt>
      <trkpt lat="40.8211000" lon="0.1478680">
        <ele>651.1</ele>
      </trkpt>
      <trkpt lat="40.8210540" lon="0.1477800">
        <ele>650.8</ele>
      </trkpt>
      <trkpt lat="40.8210020" lon="0.1476860">
        <ele>650.4</ele>
      </trkpt>
      <trkpt lat="40.8209430" lon="0.1475980">
        <ele>650.0</ele>
      </trkpt>
      <trkpt lat="40.8208930" lon="0.1474910">
        <ele>649.3</ele>
      </trkpt>
      <trkpt lat="40.8208590" lon="0.1473690">
        <ele>648.6</ele>
      </trkpt>
      <trkpt lat="40.8208310" lon="0.1472580">
        <ele>647.9</ele>
      </trkpt>
      <trkpt lat="40.8208060" lon="0.1471490">
        <ele>647.4</ele>
      </trkpt>
      <trkpt lat="40.8207630" lon="0.1470460">
        <ele>646.9</ele>
      </trkpt>
      <trkpt lat="40.8207140" lon="0.1469510">
        <ele>646.4</ele>
      </trkpt>
      <trkpt lat="40.8206410" lon="0.1468660">
        <ele>646.0</ele>
      </trkpt>
      <trkpt lat="40.8205840" lon="0.1467750">
        <ele>645.5</ele>
      </trkpt>
      <trkpt lat="40.8205450" lon="0.1466700">
        <ele>645.1</ele>
      </trkpt>
      <trkpt lat="40.8204980" lon="0.1465750">
        <ele>644.6</ele>
      </trkpt>
      <trkpt lat="40.8204500" lon="0.1464600">
        <ele>644.1</ele>
      </trkpt>
      <trkpt lat="40.8204120" lon="0.1463510">
        <ele>643.7</ele>
      </trkpt>
      <trkpt lat="40.8203660" lon="0.1462540">
        <ele>643.4</ele>
      </trkpt>
      <trkpt lat="40.8203300" lon="0.1461560">
        <ele>643.2</ele>
      </trkpt>
      <trkpt lat="40.8202870" lon="0.1460590">
        <ele>642.9</ele>
      </trkpt>
      <trkpt lat="40.8202430" lon="0.1459580">
        <ele>642.6</ele>
      </trkpt>
      <trkpt lat="40.8201960" lon="0.1458670">
        <ele>642.3</ele>
      </trkpt>
      <trkpt lat="40.8201520" lon="0.1457680">
        <ele>642.0</ele>
      </trkpt>
      <trkpt lat="40.8201020" lon="0.1456810">
        <ele>641.7</ele>
      </trkpt>
      <trkpt lat="40.8200620" lon="0.1455700">
        <ele>641.3</ele>
      </trkpt>
      <trkpt lat="40.8200140" lon="0.1454710">
        <ele>641.0</ele>
      </trkpt>
      <trkpt lat="40.8199660" lon="0.1453620">
        <ele>640.5</ele>
      </trkpt>
      <trkpt lat="40.8199220" lon="0.1452540">
        <ele>640.2</ele>
      </trkpt>
      <trkpt lat="40.8198840" lon="0.1451440">
        <ele>639.8</ele>
      </trkpt>
      <trkpt lat="40.8198400" lon="0.1450320">
        <ele>639.5</ele>
      </trkpt>
      <trkpt lat="40.8197960" lon="0.1449220">
        <ele>639.1</ele>
      </trkpt>
      <trkpt lat="40.8197390" lon="0.1448120">
        <ele>638.6</ele>
      </trkpt>
      <trkpt lat="40.8196950" lon="0.1447130">
        <ele>638.2</ele>
      </trkpt>
      <trkpt lat="40.8196630" lon="0.1446050">
        <ele>637.8</ele>
      </trkpt>
      <trkpt lat="40.8196300" lon="0.1445200">
        <ele>637.4</ele>
      </trkpt>
      <trkpt lat="40.8195810" lon="0.1444420">
        <ele>637.0</ele>
      </trkpt>
      <trkpt lat="40.8195280" lon="0.1443810">
        <ele>636.8</ele>
      </trkpt>
      <trkpt lat="40.8194720" lon="0.1443250">
        <ele>636.6</ele>
      </trkpt>
      <trkpt lat="40.8194150" lon="0.1442640">
        <ele>636.4</ele>
      </trkpt>
      <trkpt lat="40.8193580" lon="0.1442110">
        <ele>636.2</ele>
      </trkpt>
      <trkpt lat="40.8192890" lon="0.1441750">
        <ele>635.9</ele>
      </trkpt>
      <trkpt lat="40.8192030" lon="0.1441950">
        <ele>635.6</ele>
      </trkpt>
      <trkpt lat="40.8191300" lon="0.1442210">
        <ele>635.3</ele>
      </trkpt>
      <trkpt lat="40.8190420" lon="0.1442350">
        <ele>634.9</ele>
      </trkpt>
      <trkpt lat="40.8189620" lon="0.1442530">
        <ele>634.6</ele>
      </trkpt>
      <trkpt lat="40.8188990" lon="0.1442810">
        <ele>634.4</ele>
      </trkpt>
      <trkpt lat="40.8188220" lon="0.1442970">
        <ele>634.2</ele>
      </trkpt>
      <trkpt lat="40.8187870" lon="0.1443180">
        <ele>634.1</ele>
      </trkpt>
      <trkpt lat="40.8187300" lon="0.1443570">
        <ele>634.0</ele>
      </trkpt>
      <trkpt lat="40.8186930" lon="0.1443800">
        <ele>633.9</ele>
      </trkpt>
      <trkpt lat="40.8186450" lon="0.1443970">
        <ele>633.8</ele>
      </trkpt>
      <trkpt lat="40.8186050" lon="0.1443950">
        <ele>633.8</ele>
      </trkpt>
      <trkpt lat="40.8185440" lon="0.1444100">
        <ele>633.7</ele>
      </trkpt>
      <trkpt lat="40.8184940" lon="0.1443960">
        <ele>633.6</ele>
      </trkpt>
      <trkpt lat="40.8184570" lon="0.1443830">
        <ele>633.6</ele>
      </trkpt>
      <trkpt lat="40.8184140" lon="0.1443610">
        <ele>633.6</ele>
      </trkpt>
      <trkpt lat="40.8183700" lon="0.1443280">
        <ele>633.7</ele>
      </trkpt>
      <trkpt lat="40.8183190" lon="0.1443000">
        <ele>633.7</ele>
      </trkpt>
      <trkpt lat="40.8182860" lon="0.1442810">
        <ele>633.8</ele>
      </trkpt>
      <trkpt lat="40.8182600" lon="0.1442550">
        <ele>634.0</ele>
      </trkpt>
      <trkpt lat="40.8182310" lon="0.1442310">
        <ele>634.1</ele>
      </trkpt>
      <trkpt lat="40.8181910" lon="0.1442220">
        <ele>634.3</ele>
      </trkpt>
      <trkpt lat="40.8181590" lon="0.1441970">
        <ele>634.5</ele>
      </trkpt>
      <trkpt lat="40.8181260" lon="0.1441800">
        <ele>634.8</ele>
      </trkpt>
      <trkpt lat="40.8180860" lon="0.1441710">
        <ele>635.0</ele>
      </trkpt>
      <trkpt lat="40.8180430" lon="0.1441740">
        <ele>635.1</ele>
      </trkpt>
      <trkpt lat="40.8180020" lon="0.1441820">
        <ele>635.3</ele>
      </trkpt>
      <trkpt lat="40.8179600" lon="0.1441920">
        <ele>635.4</ele>
      </trkpt>
      <trkpt lat="40.8179180" lon="0.1442090">
        <ele>635.5</ele>
      </trkpt>
      <trkpt lat="40.8178820" lon="0.1442290">
        <ele>635.7</ele>
      </trkpt>
      <trkpt lat="40.8178450" lon="0.1442490">
        <ele>635.8</ele>
      </trkpt>
      <trkpt lat="40.8178140" lon="0.1442660">
        <ele>635.8</ele>
      </trkpt>
      <trkpt lat="40.8177540" lon="0.1442610">
        <ele>636.0</ele>
      </trkpt>
      <trkpt lat="40.8177150" lon="0.1442340">
        <ele>636.1</ele>
      </trkpt>
      <trkpt lat="40.8176760" lon="0.1441960">
        <ele>636.1</ele>
      </trkpt>
      <trkpt lat="40.8176430" lon="0.1441490">
        <ele>636.2</ele>
      </trkpt>
      <trkpt lat="40.8176150" lon="0.1440950">
        <ele>636.3</ele>
      </trkpt>
      <trkpt lat="40.8175900" lon="0.1440420">
        <ele>636.4</ele>
      </trkpt>
      <trkpt lat="40.8175660" lon="0.1439890">
        <ele>636.5</ele>
      </trkpt>
      <trkpt lat="40.8175420" lon="0.1439380">
        <ele>636.6</ele>
      </trkpt>
      <trkpt lat="40.8175170" lon="0.1438910">
        <ele>636.7</ele>
      </trkpt>
      <trkpt lat="40.8174910" lon="0.1438480">
        <ele>636.7</ele>
      </trkpt>
      <trkpt lat="40.8174590" lon="0.1438100">
        <ele>636.8</ele>
      </trkpt>
      <trkpt lat="40.8174260" lon="0.1437730">
        <ele>636.9</ele>
      </trkpt>
      <trkpt lat="40.8173930" lon="0.1437340">
        <ele>637.0</ele>
      </trkpt>
      <trkpt lat="40.8173620" lon="0.1436940">
        <ele>637.1</ele>
      </trkpt>
      <trkpt lat="40.8173370" lon="0.1436500">
        <ele>637.1</ele>
      </trkpt>
      <trkpt lat="40.8173150" lon="0.1436060">
        <ele>637.2</ele>
      </trkpt>
      <trkpt lat="40.8172990" lon="0.1435630">
        <ele>637.2</ele>
      </trkpt>
      <trkpt lat="40.8172870" lon="0.1435120">
        <ele>637.3</ele>
      </trkpt>
      <trkpt lat="40.8172810" lon="0.1434580">
        <ele>637.3</ele>
      </trkpt>
      <trkpt lat="40.8172820" lon="0.1434040">
        <ele>637.4</ele>
      </trkpt>
      <trkpt lat="40.8172820" lon="0.1433490">
        <ele>637.4</ele>
      </trkpt>
      <trkpt lat="40.8172970" lon="0.1432690">
        <ele>637.5</ele>
      </trkpt>
      <trkpt lat="40.8173060" lon="0.1432200">
        <ele>637.5</ele>
      </trkpt>
      <trkpt lat="40.8173190" lon="0.1431360">
        <ele>637.6</ele>
      </trkpt>
      <trkpt lat="40.8173330" lon="0.1430690">
        <ele>637.6</ele>
      </trkpt>
      <trkpt lat="40.8173510" lon="0.1429730">
        <ele>637.7</ele>
      </trkpt>
      <trkpt lat="40.8173440" lon="0.1428900">
        <ele>637.7</ele>
      </trkpt>
      <trkpt lat="40.8173390" lon="0.1428150">
        <ele>637.8</ele>
      </trkpt>
      <trkpt lat="40.8173400" lon="0.1427400">
        <ele>637.8</ele>
      </trkpt>
      <trkpt lat="40.8173040" lon="0.1427040">
        <ele>637.8</ele>
      </trkpt>
      <trkpt lat="40.8172920" lon="0.1426020">
        <ele>637.9</ele>
      </trkpt>
      <trkpt lat="40.8172470" lon="0.1425690">
        <ele>637.9</ele>
      </trkpt>
      <trkpt lat="40.8172520" lon="0.1424960">
        <ele>637.9</ele>
      </trkpt>
      <trkpt lat="40.8172510" lon="0.1424310">
        <ele>638.0</ele>
      </trkpt>
      <trkpt lat="40.8172370" lon="0.1423630">
        <ele>638.0</ele>
      </trkpt>
      <trkpt lat="40.8172220" lon="0.1423040">
        <ele>638.0</ele>
      </trkpt>
      <trkpt lat="40.8172040" lon="0.1422530">
        <ele>638.0</ele>
      </trkpt>
      <trkpt lat="40.8171850" lon="0.1421860">
        <ele>638.0</ele>
      </trkpt>
      <trkpt lat="40.8171680" lon="0.1421250">
        <ele>638.0</ele>
      </trkpt>
      <trkpt lat="40.8171550" lon="0.1420470">
        <ele>638.0</ele>
      </trkpt>
      <trkpt lat="40.8171580" lon="0.1419470">
        <ele>638.0</ele>
      </trkpt>
      <trkpt lat="40.8171560" lon="0.1418600">
        <ele>638.0</ele>
      </trkpt>
      <trkpt lat="40.8171320" lon="0.1417820">
        <ele>638.0</ele>
      </trkpt>
      <trkpt lat="40.8171120" lon="0.1417350">
        <ele>638.0</ele>
      </trkpt>
      <trkpt lat="40.8170900" lon="0.1416720">
        <ele>638.0</ele>
      </trkpt>
      <trkpt lat="40.8170590" lon="0.1416100">
        <ele>637.9</ele>
      </trkpt>
      <trkpt lat="40.8170330" lon="0.1415570">
        <ele>637.9</ele>
      </trkpt>
      <trkpt lat="40.8170140" lon="0.1414920">
        <ele>637.9</ele>
      </trkpt>
      <trkpt lat="40.8169850" lon="0.1414500">
        <ele>637.9</ele>
      </trkpt>
      <trkpt lat="40.8169550" lon="0.1413840">
        <ele>637.9</ele>
      </trkpt>
      <trkpt lat="40.8169280" lon="0.1413220">
        <ele>637.8</ele>
      </trkpt>
      <trkpt lat="40.8169020" lon="0.1412640">
        <ele>637.8</ele>
      </trkpt>
      <trkpt lat="40.8168870" lon="0.1412010">
        <ele>637.8</ele>
      </trkpt>
      <trkpt lat="40.8168830" lon="0.1411500">
        <ele>637.8</ele>
      </trkpt>
      <trkpt lat="40.8168740" lon="0.1411100">
        <ele>637.8</ele>
      </trkpt>
      <trkpt lat="40.8168530" lon="0.1410650">
        <ele>637.9</ele>
      </trkpt>
      <trkpt lat="40.8168460" lon="0.1410040">
        <ele>637.9</ele>
      </trkpt>
      <trkpt lat="40.8168370" lon="0.1409450">
        <ele>637.9</ele>
      </trkpt>
      <trkpt lat="40.8168220" lon="0.1408820">
        <ele>637.9</ele>
      </trkpt>
      <trkpt lat="40.8168140" lon="0.1408200">
        <ele>637.9</ele>
      </trkpt>
      <trkpt lat="40.8168390" lon="0.1407670">
        <ele>638.0</ele>
      </trkpt>
      <trkpt lat="40.8168470" lon="0.1407040">
        <ele>638.1</ele>
      </trkpt>
      <trkpt lat="40.8168550" lon="0.1406410">
        <ele>638.1</ele>
      </trkpt>
      <trkpt lat="40.8168630" lon="0.1405710">
        <ele>638.2</ele>
      </trkpt>
      <trkpt lat="40.8168690" lon="0.1405000">
        <ele>638.3</ele>
      </trkpt>
      <trkpt lat="40.8168650" lon="0.1404450">
        <ele>638.4</ele>
      </trkpt>
      <trkpt lat="40.8168590" lon="0.1403840">
        <ele>638.4</ele>
      </trkpt>
      <trkpt lat="40.8168400" lon="0.1403310">
        <ele>638.5</ele>
      </trkpt>
      <trkpt lat="40.8168090" lon="0.1402630">
        <ele>638.5</ele>
      </trkpt>
      <trkpt lat="40.8167760" lon="0.1402270">
        <ele>638.5</ele>
      </trkpt>
      <trkpt lat="40.8167450" lon="0.1401780">
        <ele>638.5</ele>
      </trkpt>
      <trkpt lat="40.8167100" lon="0.1401340">
        <ele>638.5</ele>
      </trkpt>
      <trkpt lat="40.8166840" lon="0.1400740">
        <ele>638.5</ele>
      </trkpt>
      <trkpt lat="40.8166570" lon="0.1400230">
        <ele>638.5</ele>
      </trkpt>
      <trkpt lat="40.8166400" lon="0.1399780">
        <ele>638.6</ele>
      </trkpt>
      <trkpt lat="40.8166120" lon="0.1399320">
        <ele>638.6</ele>
      </trkpt>
      <trkpt lat="40.8165740" lon="0.1398670">
        <ele>638.6</ele>
      </trkpt>
      <trkpt lat="40.8165300" lon="0.1398090">
        <ele>638.6</ele>
      </trkpt>
      <trkpt lat="40.8164970" lon="0.1397620">
        <ele>638.6</ele>
      </trkpt>
      <trkpt lat="40.8164630" lon="0.1397080">
        <ele>638.6</ele>
      </trkpt>
      <trkpt lat="40.8164390" lon="0.1396640">
        <ele>638.6</ele>
      </trkpt>
      <trkpt lat="40.8164160" lon="0.1395990">
        <ele>638.6</ele>
      </trkpt>
      <trkpt lat="40.8163630" lon="0.1395550">
        <ele>638.6</ele>
      </trkpt>
      <trkpt lat="40.8163390" lon="0.1395010">
        <ele>638.7</ele>
      </trkpt>
      <trkpt lat="40.8163200" lon="0.1394440">
        <ele>638.7</ele>
      </trkpt>
      <trkpt lat="40.8162970" lon="0.1393770">
        <ele>638.7</ele>
      </trkpt>
      <trkpt lat="40.8162540" lon="0.1393350">
        <ele>638.7</ele>
      </trkpt>
      <trkpt lat="40.8162200" lon="0.1392970">
        <ele>638.7</ele>
      </trkpt>
      <trkpt lat="40.8161890" lon="0.1392580">
        <ele>638.7</ele>
      </trkpt>
      <trkpt lat="40.8161460" lon="0.1392330">
        <ele>638.7</ele>
      </trkpt>
      <trkpt lat="40.8161050" lon="0.1392050">
        <ele>638.7</ele>
      </trkpt>
      <trkpt lat="40.8160640" lon="0.1391840">
        <ele>638.7</ele>
      </trkpt>
      <trkpt lat="40.8160210" lon="0.1391470">
        <ele>638.8</ele>
      </trkpt>
      <trkpt lat="40.8159860" lon="0.1391140">
        <ele>638.8</ele>
      </trkpt>
      <trkpt lat="40.8159520" lon="0.1390730">
        <ele>638.8</ele>
      </trkpt>
      <trkpt lat="40.8159110" lon="0.1390330">
        <ele>638.8</ele>
      </trkpt>
      <trkpt lat="40.8158690" lon="0.1389980">
        <ele>638.8</ele>
      </trkpt>
      <trkpt lat="40.8158270" lon="0.1389660">
        <ele>638.9</ele>
      </trkpt>
      <trkpt lat="40.8157910" lon="0.1389340">
        <ele>639.0</ele>
      </trkpt>
      <trkpt lat="40.8157520" lon="0.1388960">
        <ele>639.0</ele>
      </trkpt>
      <trkpt lat="40.8157140" lon="0.1388640">
        <ele>639.1</ele>
      </trkpt>
      <trkpt lat="40.8156740" lon="0.1388360">
        <ele>639.2</ele>
      </trkpt>
      <trkpt lat="40.8156310" lon="0.1388070">
        <ele>639.3</ele>
      </trkpt>
      <trkpt lat="40.8155930" lon="0.1387800">
        <ele>639.4</ele>
      </trkpt>
      <trkpt lat="40.8155600" lon="0.1387250">
        <ele>639.5</ele>
      </trkpt>
      <trkpt lat="40.8155260" lon="0.1386880">
        <ele>639.6</ele>
      </trkpt>
      <trkpt lat="40.8155070" lon="0.1386460">
        <ele>639.6</ele>
      </trkpt>
      <trkpt lat="40.8154750" lon="0.1385930">
        <ele>639.8</ele>
      </trkpt>
      <trkpt lat="40.8154500" lon="0.1385570">
        <ele>640.0</ele>
      </trkpt>
      <trkpt lat="40.8154460" lon="0.1384860">
        <ele>640.2</ele>
      </trkpt>
      <trkpt lat="40.8154200" lon="0.1384510">
        <ele>640.4</ele>
      </trkpt>
      <trkpt lat="40.8154020" lon="0.1383970">
        <ele>640.6</ele>
      </trkpt>
      <trkpt lat="40.8153740" lon="0.1383490">
        <ele>640.8</ele>
      </trkpt>
      <trkpt lat="40.8153660" lon="0.1382930">
        <ele>641.1</ele>
      </trkpt>
      <trkpt lat="40.8153520" lon="0.1382440">
        <ele>641.2</ele>
      </trkpt>
      <trkpt lat="40.8153630" lon="0.1381820">
        <ele>641.4</ele>
      </trkpt>
      <trkpt lat="40.8153500" lon="0.1381320">
        <ele>641.5</ele>
      </trkpt>
      <trkpt lat="40.8153280" lon="0.1380820">
        <ele>641.6</ele>
      </trkpt>
      <trkpt lat="40.8153140" lon="0.1380330">
        <ele>641.7</ele>
      </trkpt>
      <trkpt lat="40.8153040" lon="0.1379870">
        <ele>641.7</ele>
      </trkpt>
      <trkpt lat="40.8152910" lon="0.1379370">
        <ele>641.8</ele>
      </trkpt>
      <trkpt lat="40.8152750" lon="0.1378830">
        <ele>641.9</ele>
      </trkpt>
      <trkpt lat="40.8152590" lon="0.1378320">
        <ele>642.0</ele>
      </trkpt>
      <trkpt lat="40.8152400" lon="0.1377790">
        <ele>642.0</ele>
      </trkpt>
      <trkpt lat="40.8152200" lon="0.1377250">
        <ele>642.1</ele>
      </trkpt>
      <trkpt lat="40.8151980" lon="0.1376760">
        <ele>642.2</ele>
      </trkpt>
      <trkpt lat="40.8151720" lon="0.1376330">
        <ele>642.2</ele>
      </trkpt>
      <trkpt lat="40.8151420" lon="0.1375920">
        <ele>642.3</ele>
      </trkpt>
      <trkpt lat="40.8151060" lon="0.1375540">
        <ele>642.3</ele>
      </trkpt>
      <trkpt lat="40.8150700" lon="0.1375200">
        <ele>642.4</ele>
      </trkpt>
      <trkpt lat="40.8150180" lon="0.1374910">
        <ele>642.5</ele>
      </trkpt>
      <trkpt lat="40.8149810" lon="0.1374460">
        <ele>642.6</ele>
      </trkpt>
      <trkpt lat="40.8149460" lon="0.1374030">
        <ele>642.6</ele>
      </trkpt>
      <trkpt lat="40.8149090" lon="0.1373560">
        <ele>642.7</ele>
      </trkpt>
      <trkpt lat="40.8148750" lon="0.1373040">
        <ele>642.8</ele>
      </trkpt>
      <trkpt lat="40.8148440" lon="0.1372490">
        <ele>642.9</ele>
      </trkpt>
      <trkpt lat="40.8148040" lon="0.1372050">
        <ele>643.1</ele>
      </trkpt>
      <trkpt lat="40.8147740" lon="0.1371580">
        <ele>643.3</ele>
      </trkpt>
      <trkpt lat="40.8147380" lon="0.1371070">
        <ele>643.1</ele>
      </trkpt>
      <trkpt lat="40.8147080" lon="0.1370620">
        <ele>643.2</ele>
      </trkpt>
      <trkpt lat="40.8146680" lon="0.1370120">
        <ele>643.3</ele>
      </trkpt>
      <trkpt lat="40.8146300" lon="0.1369710">
        <ele>643.4</ele>
      </trkpt>
      <trkpt lat="40.8146060" lon="0.1369010">
        <ele>643.2</ele>
      </trkpt>
      <trkpt lat="40.8145630" lon="0.1368570">
        <ele>643.3</ele>
      </trkpt>
      <trkpt lat="40.8145340" lon="0.1367940">
        <ele>643.2</ele>
      </trkpt>
      <trkpt lat="40.8145110" lon="0.1367450">
        <ele>643.0</ele>
      </trkpt>
      <trkpt lat="40.8144870" lon="0.1367000">
        <ele>643.0</ele>
      </trkpt>
      <trkpt lat="40.8144460" lon="0.1366350">
        <ele>643.0</ele>
      </trkpt>
      <trkpt lat="40.8144250" lon="0.1365630">
        <ele>643.0</ele>
      </trkpt>
      <trkpt lat="40.8143980" lon="0.1364990">
        <ele>643.0</ele>
      </trkpt>
      <trkpt lat="40.8143690" lon="0.1364410">
        <ele>643.0</ele>
      </trkpt>
      <trkpt lat="40.8143250" lon="0.1364070">
        <ele>643.0</ele>
      </trkpt>
      <trkpt lat="40.8142950" lon="0.1363580">
        <ele>643.0</ele>
      </trkpt>
      <trkpt lat="40.8142620" lon="0.1363050">
        <ele>643.0</ele>
      </trkpt>
      <trkpt lat="40.8142440" lon="0.1362300">
        <ele>642.9</ele>
      </trkpt>
      <trkpt lat="40.8142240" lon="0.1361680">
        <ele>642.9</ele>
      </trkpt>
      <trkpt lat="40.8141850" lon="0.1361090">
        <ele>642.9</ele>
      </trkpt>
      <trkpt lat="40.8141470" lon="0.1360690">
        <ele>642.9</ele>
      </trkpt>
      <trkpt lat="40.8141170" lon="0.1360200">
        <ele>642.9</ele>
      </trkpt>
      <trkpt lat="40.8140890" lon="0.1359710">
        <ele>642.9</ele>
      </trkpt>
      <trkpt lat="40.8140770" lon="0.1359200">
        <ele>642.9</ele>
      </trkpt>
      <trkpt lat="40.8140540" lon="0.1358740">
        <ele>642.9</ele>
      </trkpt>
      <trkpt lat="40.8140340" lon="0.1358200">
        <ele>642.9</ele>
      </trkpt>
      <trkpt lat="40.8139940" lon="0.1357570">
        <ele>642.9</ele>
      </trkpt>
      <trkpt lat="40.8139820" lon="0.1357030">
        <ele>642.9</ele>
      </trkpt>
      <trkpt lat="40.8139600" lon="0.1356420">
        <ele>642.9</ele>
      </trkpt>
      <trkpt lat="40.8139290" lon="0.1355950">
        <ele>642.9</ele>
      </trkpt>
      <trkpt lat="40.8139090" lon="0.1355210">
        <ele>642.9</ele>
      </trkpt>
      <trkpt lat="40.8138800" lon="0.1354670">
        <ele>642.9</ele>
      </trkpt>
      <trkpt lat="40.8138630" lon="0.1354190">
        <ele>642.9</ele>
      </trkpt>
      <trkpt lat="40.8138280" lon="0.1353540">
        <ele>642.9</ele>
      </trkpt>
      <trkpt lat="40.8137890" lon="0.1352920">
        <ele>643.0</ele>
      </trkpt>
      <trkpt lat="40.8137460" lon="0.1352510">
        <ele>643.0</ele>
      </trkpt>
      <trkpt lat="40.8137230" lon="0.1351810">
        <ele>643.1</ele>
      </trkpt>
      <trkpt lat="40.8136790" lon="0.1351120">
        <ele>643.1</ele>
      </trkpt>
      <trkpt lat="40.8136430" lon="0.1350590">
        <ele>643.2</ele>
      </trkpt>
      <trkpt lat="40.8136050" lon="0.1350120">
        <ele>643.2</ele>
      </trkpt>
      <trkpt lat="40.8135630" lon="0.1349690">
        <ele>643.3</ele>
      </trkpt>
      <trkpt lat="40.8135230" lon="0.1349330">
        <ele>643.3</ele>
      </trkpt>
      <trkpt lat="40.8134830" lon="0.1348990">
        <ele>643.4</ele>
      </trkpt>
      <trkpt lat="40.8134500" lon="0.1348550">
        <ele>643.4</ele>
      </trkpt>
      <trkpt lat="40.8134220" lon="0.1347950">
        <ele>643.4</ele>
      </trkpt>
      <trkpt lat="40.8133880" lon="0.1347640">
        <ele>643.4</ele>
      </trkpt>
      <trkpt lat="40.8133610" lon="0.1347290">
        <ele>643.4</ele>
      </trkpt>
      <trkpt lat="40.8133240" lon="0.1346900">
        <ele>643.4</ele>
      </trkpt>
      <trkpt lat="40.8132650" lon="0.1346500">
        <ele>643.5</ele>
      </trkpt>
      <trkpt lat="40.8132480" lon="0.1346060">
        <ele>643.5</ele>
      </trkpt>
      <trkpt lat="40.8132060" lon="0.1345810">
        <ele>643.5</ele>
      </trkpt>
      <trkpt lat="40.8131680" lon="0.1345420">
        <ele>643.4</ele>
      </trkpt>
      <trkpt lat="40.8131260" lon="0.1345200">
        <ele>643.4</ele>
      </trkpt>
      <trkpt lat="40.8130780" lon="0.1344900">
        <ele>643.4</ele>
      </trkpt>
      <trkpt lat="40.8130400" lon="0.1344870">
        <ele>643.4</ele>
      </trkpt>
      <trkpt lat="40.8129640" lon="0.1345000">
        <ele>643.3</ele>
      </trkpt>
      <trkpt lat="40.8129210" lon="0.1345190">
        <ele>643.3</ele>
      </trkpt>
      <trkpt lat="40.8128700" lon="0.1345440">
        <ele>643.4</ele>
      </trkpt>
      <trkpt lat="40.8128230" lon="0.1345630">
        <ele>643.4</ele>
      </trkpt>
      <trkpt lat="40.8127780" lon="0.1345780">
        <ele>643.5</ele>
      </trkpt>
      <trkpt lat="40.8126940" lon="0.1346060">
        <ele>643.6</ele>
      </trkpt>
      <trkpt lat="40.8126300" lon="0.1346260">
        <ele>643.8</ele>
      </trkpt>
      <trkpt lat="40.8125830" lon="0.1346180">
        <ele>644.0</ele>
      </trkpt>
      <trkpt lat="40.8125010" lon="0.1346090">
        <ele>644.3</ele>
      </trkpt>
      <trkpt lat="40.8124600" lon="0.1345670">
        <ele>644.5</ele>
      </trkpt>
      <trkpt lat="40.8124380" lon="0.1344850">
        <ele>644.7</ele>
      </trkpt>
      <trkpt lat="40.8124040" lon="0.1344490">
        <ele>644.9</ele>
      </trkpt>
      <trkpt lat="40.8123920" lon="0.1344080">
        <ele>645.0</ele>
      </trkpt>
      <trkpt lat="40.8123680" lon="0.1343550">
        <ele>645.2</ele>
      </trkpt>
      <trkpt lat="40.8123470" lon="0.1343030">
        <ele>645.4</ele>
      </trkpt>
      <trkpt lat="40.8123430" lon="0.1342510">
        <ele>645.6</ele>
      </trkpt>
      <trkpt lat="40.8123030" lon="0.1342050">
        <ele>645.9</ele>
      </trkpt>
      <trkpt lat="40.8123120" lon="0.1341680">
        <ele>646.0</ele>
      </trkpt>
      <trkpt lat="40.8123030" lon="0.1341140">
        <ele>646.1</ele>
      </trkpt>
      <trkpt lat="40.8123210" lon="0.1340700">
        <ele>646.2</ele>
      </trkpt>
      <trkpt lat="40.8122890" lon="0.1340120">
        <ele>646.3</ele>
      </trkpt>
      <trkpt lat="40.8122950" lon="0.1339760">
        <ele>646.4</ele>
      </trkpt>
      <trkpt lat="40.8122700" lon="0.1339380">
        <ele>646.5</ele>
      </trkpt>
      <trkpt lat="40.8122380" lon="0.1339010">
        <ele>646.6</ele>
      </trkpt>
      <trkpt lat="40.8122050" lon="0.1338630">
        <ele>646.6</ele>
      </trkpt>
      <trkpt lat="40.8121750" lon="0.1338270">
        <ele>646.6</ele>
      </trkpt>
      <trkpt lat="40.8121460" lon="0.1337980">
        <ele>646.6</ele>
      </trkpt>
      <trkpt lat="40.8121170" lon="0.1337740">
        <ele>646.7</ele>
      </trkpt>
      <trkpt lat="40.8120910" lon="0.1337530">
        <ele>646.6</ele>
      </trkpt>
      <trkpt lat="40.8120650" lon="0.1337320">
        <ele>646.6</ele>
      </trkpt>
      <trkpt lat="40.8120400" lon="0.1337070">
        <ele>646.6</ele>
      </trkpt>
      <trkpt lat="40.8120110" lon="0.1336750">
        <ele>646.5</ele>
      </trkpt>
      <trkpt lat="40.8119800" lon="0.1336450">
        <ele>646.5</ele>
      </trkpt>
      <trkpt lat="40.8119490" lon="0.1336120">
        <ele>646.4</ele>
      </trkpt>
      <trkpt lat="40.8119160" lon="0.1335760">
        <ele>646.4</ele>
      </trkpt>
      <trkpt lat="40.8118840" lon="0.1335350">
        <ele>646.3</ele>
      </trkpt>
      <trkpt lat="40.8118570" lon="0.1334880">
        <ele>646.2</ele>
      </trkpt>
      <trkpt lat="40.8118310" lon="0.1334380">
        <ele>646.1</ele>
      </trkpt>
      <trkpt lat="40.8118120" lon="0.1333870">
        <ele>646.0</ele>
      </trkpt>
      <trkpt lat="40.8117930" lon="0.1333350">
        <ele>645.9</ele>
      </trkpt>
      <trkpt lat="40.8117770" lon="0.1332420">
        <ele>645.7</ele>
      </trkpt>
      <trkpt lat="40.8117490" lon="0.1331830">
        <ele>645.5</ele>
      </trkpt>
      <trkpt lat="40.8117160" lon="0.1331310">
        <ele>645.3</ele>
      </trkpt>
      <trkpt lat="40.8116780" lon="0.1331050">
        <ele>645.1</ele>
      </trkpt>
      <trkpt lat="40.8116320" lon="0.1330930">
        <ele>645.0</ele>
      </trkpt>
      <trkpt lat="40.8115880" lon="0.1330790">
        <ele>644.9</ele>
      </trkpt>
      <trkpt lat="40.8115360" lon="0.1330830">
        <ele>644.7</ele>
      </trkpt>
      <trkpt lat="40.8114900" lon="0.1330860">
        <ele>644.5</ele>
      </trkpt>
      <trkpt lat="40.8114210" lon="0.1330760">
        <ele>644.4</ele>
      </trkpt>
      <trkpt lat="40.8113710" lon="0.1330770">
        <ele>644.3</ele>
      </trkpt>
      <trkpt lat="40.8113310" lon="0.1330820">
        <ele>644.2</ele>
      </trkpt>
      <trkpt lat="40.8112690" lon="0.1330660">
        <ele>644.0</ele>
      </trkpt>
      <trkpt lat="40.8112200" lon="0.1330360">
        <ele>643.9</ele>
      </trkpt>
      <trkpt lat="40.8111680" lon="0.1329930">
        <ele>643.9</ele>
      </trkpt>
      <trkpt lat="40.8111220" lon="0.1329480">
        <ele>643.9</ele>
      </trkpt>
      <trkpt lat="40.8110750" lon="0.1328970">
        <ele>643.9</ele>
      </trkpt>
      <trkpt lat="40.8110310" lon="0.1328500">
        <ele>643.9</ele>
      </trkpt>
      <trkpt lat="40.8109760" lon="0.1327600">
        <ele>644.0</ele>
      </trkpt>
      <trkpt lat="40.8109680" lon="0.1326950">
        <ele>644.1</ele>
      </trkpt>
      <trkpt lat="40.8109540" lon="0.1326380">
        <ele>644.2</ele>
      </trkpt>
      <trkpt lat="40.8109770" lon="0.1325950">
        <ele>644.4</ele>
      </trkpt>
      <trkpt lat="40.8108970" lon="0.1325150">
        <ele>644.7</ele>
      </trkpt>
      <trkpt lat="40.8108820" lon="0.1324620">
        <ele>644.8</ele>
      </trkpt>
      <trkpt lat="40.8108730" lon="0.1323900">
        <ele>644.9</ele>
      </trkpt>
      <trkpt lat="40.8108340" lon="0.1323350">
        <ele>645.0</ele>
      </trkpt>
      <trkpt lat="40.8108080" lon="0.1322740">
        <ele>645.1</ele>
      </trkpt>
      <trkpt lat="40.8107850" lon="0.1322510">
        <ele>645.1</ele>
      </trkpt>
      <trkpt lat="40.8107640" lon="0.1322180">
        <ele>645.2</ele>
      </trkpt>
      <trkpt lat="40.8107330" lon="0.1321920">
        <ele>645.3</ele>
      </trkpt>
      <trkpt lat="40.8106840" lon="0.1321610">
        <ele>645.3</ele>
      </trkpt>
      <trkpt lat="40.8106220" lon="0.1321210">
        <ele>645.4</ele>
      </trkpt>
      <trkpt lat="40.8105910" lon="0.1321180">
        <ele>645.4</ele>
      </trkpt>
      <trkpt lat="40.8105450" lon="0.1321170">
        <ele>645.4</ele>
      </trkpt>
      <trkpt lat="40.8105030" lon="0.1321140">
        <ele>645.5</ele>
      </trkpt>
      <trkpt lat="40.8104610" lon="0.1321170">
        <ele>645.5</ele>
      </trkpt>
      <trkpt lat="40.8104230" lon="0.1321220">
        <ele>645.5</ele>
      </trkpt>
      <trkpt lat="40.8103840" lon="0.1321220">
        <ele>645.4</ele>
      </trkpt>
      <trkpt lat="40.8103500" lon="0.1321210">
        <ele>645.4</ele>
      </trkpt>
      <trkpt lat="40.8103220" lon="0.1321150">
        <ele>645.4</ele>
      </trkpt>
      <trkpt lat="40.8102950" lon="0.1321120">
        <ele>645.4</ele>
      </trkpt>
      <trkpt lat="40.8102610" lon="0.1320980">
        <ele>645.4</ele>
      </trkpt>
      <trkpt lat="40.8102250" lon="0.1320710">
        <ele>645.4</ele>
      </trkpt>
      <trkpt lat="40.8101970" lon="0.1319880">
        <ele>645.3</ele>
      </trkpt>
      <trkpt lat="40.8101740" lon="0.1319460">
        <ele>645.3</ele>
      </trkpt>
      <trkpt lat="40.8101440" lon="0.1318960">
        <ele>645.3</ele>
      </trkpt>
      <trkpt lat="40.8101200" lon="0.1318500">
        <ele>645.2</ele>
      </trkpt>
      <trkpt lat="40.8100730" lon="0.1318070">
        <ele>645.2</ele>
      </trkpt>
      <trkpt lat="40.8100290" lon="0.1317120">
        <ele>645.1</ele>
      </trkpt>
      <trkpt lat="40.8099900" lon="0.1316470">
        <ele>645.0</ele>
      </trkpt>
      <trkpt lat="40.8099460" lon="0.1315780">
        <ele>644.9</ele>
      </trkpt>
      <trkpt lat="40.8099510" lon="0.1315150">
        <ele>644.8</ele>
      </trkpt>
      <trkpt lat="40.8099500" lon="0.1314640">
        <ele>644.8</ele>
      </trkpt>
      <trkpt lat="40.8099530" lon="0.1313900">
        <ele>644.7</ele>
      </trkpt>
      <trkpt lat="40.8099470" lon="0.1313200">
        <ele>644.6</ele>
      </trkpt>
      <trkpt lat="40.8098910" lon="0.1312540">
        <ele>644.5</ele>
      </trkpt>
      <trkpt lat="40.8098390" lon="0.1311990">
        <ele>644.4</ele>
      </trkpt>
      <trkpt lat="40.8097950" lon="0.1311490">
        <ele>644.4</ele>
      </trkpt>
      <trkpt lat="40.8097550" lon="0.1310990">
        <ele>644.4</ele>
      </trkpt>
      <trkpt lat="40.8097100" lon="0.1310510">
        <ele>644.4</ele>
      </trkpt>
      <trkpt lat="40.8096460" lon="0.1310070">
        <ele>644.4</ele>
      </trkpt>
      <trkpt lat="40.8095880" lon="0.1309710">
        <ele>644.5</ele>
      </trkpt>
      <trkpt lat="40.8095550" lon="0.1309400">
        <ele>644.5</ele>
      </trkpt>
      <trkpt lat="40.8095020" lon="0.1308930">
        <ele>644.5</ele>
      </trkpt>
      <trkpt lat="40.8094430" lon="0.1308630">
        <ele>644.6</ele>
      </trkpt>
      <trkpt lat="40.8093990" lon="0.1308220">
        <ele>644.6</ele>
      </trkpt>
      <trkpt lat="40.8093450" lon="0.1307950">
        <ele>644.7</ele>
      </trkpt>
      <trkpt lat="40.8093050" lon="0.1307500">
        <ele>644.8</ele>
      </trkpt>
      <trkpt lat="40.8092710" lon="0.1307120">
        <ele>644.8</ele>
      </trkpt>
      <trkpt lat="40.8092280" lon="0.1306760">
        <ele>644.9</ele>
      </trkpt>
      <trkpt lat="40.8091790" lon="0.1306300">
        <ele>645.0</ele>
      </trkpt>
      <trkpt lat="40.8091400" lon="0.1305670">
        <ele>645.2</ele>
      </trkpt>
      <trkpt lat="40.8091110" lon="0.1305050">
        <ele>645.4</ele>
      </trkpt>
      <trkpt lat="40.8090820" lon="0.1304500">
        <ele>645.5</ele>
      </trkpt>
      <trkpt lat="40.8090430" lon="0.1304100">
        <ele>645.6</ele>
      </trkpt>
      <trkpt lat="40.8090060" lon="0.1303620">
        <ele>645.7</ele>
      </trkpt>
      <trkpt lat="40.8089670" lon="0.1303280">
        <ele>645.8</ele>
      </trkpt>
      <trkpt lat="40.8089270" lon="0.1303060">
        <ele>645.8</ele>
      </trkpt>
      <trkpt lat="40.8088930" lon="0.1302890">
        <ele>646.0</ele>
      </trkpt>
      <trkpt lat="40.8088420" lon="0.1302670">
        <ele>646.1</ele>
      </trkpt>
      <trkpt lat="40.8087940" lon="0.1302440">
        <ele>646.3</ele>
      </trkpt>
      <trkpt lat="40.8087560" lon="0.1302180">
        <ele>646.4</ele>
      </trkpt>
      <trkpt lat="40.8087200" lon="0.1301960">
        <ele>646.5</ele>
      </trkpt>
      <trkpt lat="40.8086810" lon="0.1301540">
        <ele>646.7</ele>
      </trkpt>
      <trkpt lat="40.8086270" lon="0.1301080">
        <ele>646.8</ele>
      </trkpt>
      <trkpt lat="40.8085910" lon="0.1300650">
        <ele>646.9</ele>
      </trkpt>
      <trkpt lat="40.8085610" lon="0.1300080">
        <ele>647.0</ele>
      </trkpt>
      <trkpt lat="40.8085130" lon="0.1299560">
        <ele>647.2</ele>
      </trkpt>
      <trkpt lat="40.8084780" lon="0.1299200">
        <ele>647.2</ele>
      </trkpt>
      <trkpt lat="40.8084510" lon="0.1298800">
        <ele>647.3</ele>
      </trkpt>
      <trkpt lat="40.8084150" lon="0.1298430">
        <ele>647.4</ele>
      </trkpt>
      <trkpt lat="40.8083840" lon="0.1297960">
        <ele>647.5</ele>
      </trkpt>
      <trkpt lat="40.8083560" lon="0.1297650">
        <ele>647.6</ele>
      </trkpt>
      <trkpt lat="40.8083250" lon="0.1297160">
        <ele>647.7</ele>
      </trkpt>
      <trkpt lat="40.8083060" lon="0.1296790">
        <ele>647.7</ele>
      </trkpt>
      <trkpt lat="40.8082790" lon="0.1296390">
        <ele>647.8</ele>
      </trkpt>
      <trkpt lat="40.8082570" lon="0.1295950">
        <ele>647.9</ele>
      </trkpt>
      <trkpt lat="40.8082360" lon="0.1295530">
        <ele>648.0</ele>
      </trkpt>
      <trkpt lat="40.8082190" lon="0.1295100">
        <ele>648.1</ele>
      </trkpt>
      <trkpt lat="40.8081800" lon="0.1294670">
        <ele>648.3</ele>
      </trkpt>
      <trkpt lat="40.8081440" lon="0.1294230">
        <ele>648.5</ele>
      </trkpt>
      <trkpt lat="40.8081120" lon="0.1293840">
        <ele>648.6</ele>
      </trkpt>
      <trkpt lat="40.8080800" lon="0.1293500">
        <ele>648.6</ele>
      </trkpt>
      <trkpt lat="40.8080260" lon="0.1292960">
        <ele>648.8</ele>
      </trkpt>
      <trkpt lat="40.8079940" lon="0.1292530">
        <ele>648.9</ele>
      </trkpt>
      <trkpt lat="40.8079570" lon="0.1292050">
        <ele>649.0</ele>
      </trkpt>
      <trkpt lat="40.8079340" lon="0.1291620">
        <ele>649.1</ele>
      </trkpt>
      <trkpt lat="40.8079050" lon="0.1291200">
        <ele>649.2</ele>
      </trkpt>
      <trkpt lat="40.8078800" lon="0.1290920">
        <ele>649.2</ele>
      </trkpt>
      <trkpt lat="40.8078540" lon="0.1290460">
        <ele>649.3</ele>
      </trkpt>
      <trkpt lat="40.8078350" lon="0.1290110">
        <ele>649.4</ele>
      </trkpt>
      <trkpt lat="40.8078080" lon="0.1289740">
        <ele>649.5</ele>
      </trkpt>
      <trkpt lat="40.8077830" lon="0.1289360">
        <ele>649.6</ele>
      </trkpt>
      <trkpt lat="40.8077500" lon="0.1288920">
        <ele>649.7</ele>
      </trkpt>
      <trkpt lat="40.8077240" lon="0.1288720">
        <ele>649.8</ele>
      </trkpt>
      <trkpt lat="40.8076930" lon="0.1288360">
        <ele>649.8</ele>
      </trkpt>
      <trkpt lat="40.8076620" lon="0.1288010">
        <ele>649.9</ele>
      </trkpt>
      <trkpt lat="40.8076340" lon="0.1287660">
        <ele>650.0</ele>
      </trkpt>
      <trkpt lat="40.8076080" lon="0.1287350">
        <ele>650.1</ele>
      </trkpt>
      <trkpt lat="40.8075780" lon="0.1287050">
        <ele>650.2</ele>
      </trkpt>
      <trkpt lat="40.8075460" lon="0.1286740">
        <ele>650.3</ele>
      </trkpt>
      <trkpt lat="40.8075120" lon="0.1286430">
        <ele>650.3</ele>
      </trkpt>
      <trkpt lat="40.8074740" lon="0.1286130">
        <ele>650.4</ele>
      </trkpt>
      <trkpt lat="40.8074410" lon="0.1285810">
        <ele>650.5</ele>
      </trkpt>
      <trkpt lat="40.8074050" lon="0.1285470">
        <ele>650.5</ele>
      </trkpt>
      <trkpt lat="40.8073670" lon="0.1285090">
        <ele>650.6</ele>
      </trkpt>
      <trkpt lat="40.8073290" lon="0.1284710">
        <ele>650.7</ele>
      </trkpt>
      <trkpt lat="40.8072940" lon="0.1284320">
        <ele>650.8</ele>
      </trkpt>
      <trkpt lat="40.8072580" lon="0.1283940">
        <ele>650.8</ele>
      </trkpt>
      <trkpt lat="40.8072190" lon="0.1283540">
        <ele>650.9</ele>
      </trkpt>
      <trkpt lat="40.8071830" lon="0.1283130">
        <ele>650.9</ele>
      </trkpt>
      <trkpt lat="40.8071530" lon="0.1282770">
        <ele>651.0</ele>
      </trkpt>
      <trkpt lat="40.8071270" lon="0.1282450">
        <ele>651.0</ele>
      </trkpt>
      <trkpt lat="40.8071020" lon="0.1282090">
        <ele>651.0</ele>
      </trkpt>
      <trkpt lat="40.8070740" lon="0.1281740">
        <ele>651.1</ele>
      </trkpt>
      <trkpt lat="40.8070460" lon="0.1281350">
        <ele>651.1</ele>
      </trkpt>
      <trkpt lat="40.8070130" lon="0.1280950">
        <ele>651.1</ele>
      </trkpt>
      <trkpt lat="40.8069790" lon="0.1280280">
        <ele>651.2</ele>
      </trkpt>
      <trkpt lat="40.8069450" lon="0.1279740">
        <ele>651.2</ele>
      </trkpt>
      <trkpt lat="40.8068990" lon="0.1279560">
        <ele>651.2</ele>
      </trkpt>
      <trkpt lat="40.8068570" lon="0.1279290">
        <ele>651.2</ele>
      </trkpt>
      <trkpt lat="40.8067970" lon="0.1279090">
        <ele>651.3</ele>
      </trkpt>
      <trkpt lat="40.8067670" lon="0.1278960">
        <ele>651.3</ele>
      </trkpt>
      <trkpt lat="40.8067130" lon="0.1278740">
        <ele>651.3</ele>
      </trkpt>
      <trkpt lat="40.8066620" lon="0.1278500">
        <ele>651.3</ele>
      </trkpt>
      <trkpt lat="40.8066080" lon="0.1278170">
        <ele>651.3</ele>
      </trkpt>
      <trkpt lat="40.8065450" lon="0.1277870">
        <ele>651.3</ele>
      </trkpt>
      <trkpt lat="40.8065040" lon="0.1277660">
        <ele>651.3</ele>
      </trkpt>
      <trkpt lat="40.8064520" lon="0.1277760">
        <ele>651.3</ele>
      </trkpt>
      <trkpt lat="40.8063990" lon="0.1277900">
        <ele>651.3</ele>
      </trkpt>
      <trkpt lat="40.8063590" lon="0.1278300">
        <ele>651.3</ele>
      </trkpt>
      <trkpt lat="40.8063520" lon="0.1278830">
        <ele>651.3</ele>
      </trkpt>
      <trkpt lat="40.8063650" lon="0.1279440">
        <ele>651.2</ele>
      </trkpt>
      <trkpt lat="40.8063730" lon="0.1279940">
        <ele>651.0</ele>
      </trkpt>
      <trkpt lat="40.8063850" lon="0.1280450">
        <ele>650.8</ele>
      </trkpt>
      <trkpt lat="40.8063980" lon="0.1281050">
        <ele>650.6</ele>
      </trkpt>
      <trkpt lat="40.8064290" lon="0.1281630">
        <ele>650.4</ele>
      </trkpt>
      <trkpt lat="40.8064610" lon="0.1282260">
        <ele>650.2</ele>
      </trkpt>
      <trkpt lat="40.8064890" lon="0.1283060">
        <ele>649.8</ele>
      </trkpt>
      <trkpt lat="40.8065200" lon="0.1283670">
        <ele>649.6</ele>
      </trkpt>
      <trkpt lat="40.8065550" lon="0.1284250">
        <ele>649.5</ele>
      </trkpt>
      <trkpt lat="40.8065840" lon="0.1284870">
        <ele>649.3</ele>
      </trkpt>
      <trkpt lat="40.8066110" lon="0.1285620">
        <ele>649.1</ele>
      </trkpt>
      <trkpt lat="40.8066440" lon="0.1286220">
        <ele>648.9</ele>
      </trkpt>
      <trkpt lat="40.8066770" lon="0.1286860">
        <ele>648.7</ele>
      </trkpt>
      <trkpt lat="40.8067110" lon="0.1287640">
        <ele>648.6</ele>
      </trkpt>
      <trkpt lat="40.8067240" lon="0.1288330">
        <ele>648.4</ele>
      </trkpt>
      <trkpt lat="40.8067470" lon="0.1288920">
        <ele>648.3</ele>
      </trkpt>
      <trkpt lat="40.8067830" lon="0.1289450">
        <ele>648.2</ele>
      </trkpt>
      <trkpt lat="40.8068240" lon="0.1290200">
        <ele>648.1</ele>
      </trkpt>
      <trkpt lat="40.8068320" lon="0.1291190">
        <ele>647.9</ele>
      </trkpt>
      <trkpt lat="40.8068550" lon="0.1291750">
        <ele>647.8</ele>
      </trkpt>
      <trkpt lat="40.8068560" lon="0.1292620">
        <ele>647.7</ele>
      </trkpt>
      <trkpt lat="40.8068530" lon="0.1293660">
        <ele>647.5</ele>
      </trkpt>
      <trkpt lat="40.8068520" lon="0.1294410">
        <ele>647.4</ele>
      </trkpt>
      <trkpt lat="40.8068480" lon="0.1295120">
        <ele>647.3</ele>
      </trkpt>
      <trkpt lat="40.8068620" lon="0.1295730">
        <ele>647.2</ele>
      </trkpt>
      <trkpt lat="40.8068520" lon="0.1296420">
        <ele>647.0</ele>
      </trkpt>
      <trkpt lat="40.8068580" lon="0.1297150">
        <ele>646.9</ele>
      </trkpt>
      <trkpt lat="40.8068680" lon="0.1298050">
        <ele>646.8</ele>
      </trkpt>
      <trkpt lat="40.8068490" lon="0.1298710">
        <ele>646.7</ele>
      </trkpt>
      <trkpt lat="40.8068470" lon="0.1299340">
        <ele>646.6</ele>
      </trkpt>
      <trkpt lat="40.8068010" lon="0.1299860">
        <ele>646.5</ele>
      </trkpt>
      <trkpt lat="40.8067760" lon="0.1300540">
        <ele>646.4</ele>
      </trkpt>
      <trkpt lat="40.8067600" lon="0.1301080">
        <ele>646.3</ele>
      </trkpt>
      <trkpt lat="40.8067630" lon="0.1301730">
        <ele>646.2</ele>
      </trkpt>
      <trkpt lat="40.8067580" lon="0.1302570">
        <ele>646.1</ele>
      </trkpt>
      <trkpt lat="40.8067470" lon="0.1303320">
        <ele>645.9</ele>
      </trkpt>
      <trkpt lat="40.8067390" lon="0.1303970">
        <ele>645.7</ele>
      </trkpt>
      <trkpt lat="40.8067310" lon="0.1304610">
        <ele>645.6</ele>
      </trkpt>
      <trkpt lat="40.8067800" lon="0.1304850">
        <ele>645.4</ele>
      </trkpt>
      <trkpt lat="40.8068150" lon="0.1305090">
        <ele>645.3</ele>
      </trkpt>
      <trkpt lat="40.8068530" lon="0.1305710">
        <ele>645.2</ele>
      </trkpt>
      <trkpt lat="40.8068970" lon="0.1306190">
        <ele>645.0</ele>
      </trkpt>
      <trkpt lat="40.8069340" lon="0.1306740">
        <ele>644.8</ele>
      </trkpt>
      <trkpt lat="40.8069760" lon="0.1307250">
        <ele>644.7</ele>
      </trkpt>
      <trkpt lat="40.8070100" lon="0.1307700">
        <ele>644.6</ele>
      </trkpt>
      <trkpt lat="40.8070540" lon="0.1308190">
        <ele>644.5</ele>
      </trkpt>
      <trkpt lat="40.8070970" lon="0.1308650">
        <ele>644.5</ele>
      </trkpt>
      <trkpt lat="40.8071460" lon="0.1308980">
        <ele>644.4</ele>
      </trkpt>
      <trkpt lat="40.8071770" lon="0.1309950">
        <ele>644.3</ele>
      </trkpt>
      <trkpt lat="40.8071810" lon="0.1311100">
        <ele>644.2</ele>
      </trkpt>
      <trkpt lat="40.8071650" lon="0.1311460">
        <ele>644.1</ele>
      </trkpt>
      <trkpt lat="40.8071530" lon="0.1312280">
        <ele>644.0</ele>
      </trkpt>
      <trkpt lat="40.8071580" lon="0.1313200">
        <ele>643.9</ele>
      </trkpt>
      <trkpt lat="40.8071620" lon="0.1314030">
        <ele>643.9</ele>
      </trkpt>
      <trkpt lat="40.8071760" lon="0.1314690">
        <ele>643.8</ele>
      </trkpt>
      <trkpt lat="40.8071840" lon="0.1315390">
        <ele>643.8</ele>
      </trkpt>
      <trkpt lat="40.8071630" lon="0.1316040">
        <ele>643.7</ele>
      </trkpt>
      <trkpt lat="40.8071670" lon="0.1316630">
        <ele>643.7</ele>
      </trkpt>
      <trkpt lat="40.8071560" lon="0.1317120">
        <ele>643.7</ele>
      </trkpt>
      <trkpt lat="40.8071550" lon="0.1317660">
        <ele>643.6</ele>
      </trkpt>
      <trkpt lat="40.8071420" lon="0.1318370">
        <ele>643.6</ele>
      </trkpt>
      <trkpt lat="40.8071160" lon="0.1318920">
        <ele>643.5</ele>
      </trkpt>
      <trkpt lat="40.8070990" lon="0.1319540">
        <ele>643.4</ele>
      </trkpt>
      <trkpt lat="40.8070740" lon="0.1320070">
        <ele>643.4</ele>
      </trkpt>
      <trkpt lat="40.8070370" lon="0.1320670">
        <ele>643.4</ele>
      </trkpt>
      <trkpt lat="40.8070020" lon="0.1321110">
        <ele>643.3</ele>
      </trkpt>
      <trkpt lat="40.8069770" lon="0.1321530">
        <ele>643.3</ele>
      </trkpt>
      <trkpt lat="40.8069480" lon="0.1322060">
        <ele>643.2</ele>
      </trkpt>
      <trkpt lat="40.8069400" lon="0.1322560">
        <ele>643.2</ele>
      </trkpt>
      <trkpt lat="40.8068820" lon="0.1322920">
        <ele>643.2</ele>
      </trkpt>
      <trkpt lat="40.8068360" lon="0.1323240">
        <ele>643.2</ele>
      </trkpt>
      <trkpt lat="40.8067910" lon="0.1323340">
        <ele>643.1</ele>
      </trkpt>
      <trkpt lat="40.8067410" lon="0.1323360">
        <ele>643.2</ele>
      </trkpt>
      <trkpt lat="40.8066370" lon="0.1323630">
        <ele>643.2</ele>
      </trkpt>
      <trkpt lat="40.8065860" lon="0.1323310">
        <ele>643.3</ele>
      </trkpt>
      <trkpt lat="40.8065430" lon="0.1323320">
        <ele>643.4</ele>
      </trkpt>
      <trkpt lat="40.8065090" lon="0.1323400">
        <ele>643.5</ele>
      </trkpt>
      <trkpt lat="40.8064780" lon="0.1323450">
        <ele>643.5</ele>
      </trkpt>
      <trkpt lat="40.8064430" lon="0.1323430">
        <ele>643.6</ele>
      </trkpt>
      <trkpt lat="40.8063730" lon="0.1323370">
        <ele>643.7</ele>
      </trkpt>
      <trkpt lat="40.8063140" lon="0.1323330">
        <ele>643.8</ele>
      </trkpt>
      <trkpt lat="40.8062660" lon="0.1323370">
        <ele>643.9</ele>
      </trkpt>
      <trkpt lat="40.8062220" lon="0.1323330">
        <ele>643.9</ele>
      </trkpt>
      <trkpt lat="40.8061510" lon="0.1322890">
        <ele>644.1</ele>
      </trkpt>
      <trkpt lat="40.8060370" lon="0.1322670">
        <ele>644.3</ele>
      </trkpt>
      <trkpt lat="40.8059850" lon="0.1322630">
        <ele>644.4</ele>
      </trkpt>
      <trkpt lat="40.8059400" lon="0.1323060">
        <ele>644.5</ele>
      </trkpt>
      <trkpt lat="40.8059080" lon="0.1322730">
        <ele>644.5</ele>
      </trkpt>
      <trkpt lat="40.8058360" lon="0.1322540">
        <ele>644.6</ele>
      </trkpt>
      <trkpt lat="40.8058000" lon="0.1322470">
        <ele>644.7</ele>
      </trkpt>
      <trkpt lat="40.8057510" lon="0.1322400">
        <ele>644.7</ele>
      </trkpt>
      <trkpt lat="40.8057080" lon="0.1322210">
        <ele>644.8</ele>
      </trkpt>
      <trkpt lat="40.8056700" lon="0.1322070">
        <ele>644.8</ele>
      </trkpt>
      <trkpt lat="40.8056360" lon="0.1321860">
        <ele>644.8</ele>
      </trkpt>
      <trkpt lat="40.8056060" lon="0.1321720">
        <ele>644.8</ele>
      </trkpt>
      <trkpt lat="40.8055260" lon="0.1321530">
        <ele>644.8</ele>
      </trkpt>
      <trkpt lat="40.8054770" lon="0.1321300">
        <ele>644.8</ele>
      </trkpt>
      <trkpt lat="40.8054230" lon="0.1321090">
        <ele>644.8</ele>
      </trkpt>
      <trkpt lat="40.8053760" lon="0.1320900">
        <ele>644.8</ele>
      </trkpt>
      <trkpt lat="40.8053260" lon="0.1320820">
        <ele>644.7</ele>
      </trkpt>
      <trkpt lat="40.8052730" lon="0.1320560">
        <ele>644.7</ele>
      </trkpt>
      <trkpt lat="40.8052310" lon="0.1320430">
        <ele>644.7</ele>
      </trkpt>
      <trkpt lat="40.8051530" lon="0.1320180">
        <ele>644.6</ele>
      </trkpt>
      <trkpt lat="40.8050980" lon="0.1320100">
        <ele>644.5</ele>
      </trkpt>
      <trkpt lat="40.8050550" lon="0.1320090">
        <ele>644.5</ele>
      </trkpt>
      <trkpt lat="40.8049930" lon="0.1319960">
        <ele>644.4</ele>
      </trkpt>
      <trkpt lat="40.8049560" lon="0.1319950">
        <ele>644.3</ele>
      </trkpt>
      <trkpt lat="40.8049180" lon="0.1319950">
        <ele>644.2</ele>
      </trkpt>
      <trkpt lat="40.8048600" lon="0.1319780">
        <ele>644.2</ele>
      </trkpt>
      <trkpt lat="40.8048320" lon="0.1320010">
        <ele>644.2</ele>
      </trkpt>
      <trkpt lat="40.8047710" lon="0.1319990">
        <ele>644.1</ele>
      </trkpt>
      <trkpt lat="40.8047180" lon="0.1320140">
        <ele>644.1</ele>
      </trkpt>
      <trkpt lat="40.8046600" lon="0.1320310">
        <ele>644.0</ele>
      </trkpt>
      <trkpt lat="40.8046130" lon="0.1320660">
        <ele>644.0</ele>
      </trkpt>
      <trkpt lat="40.8044910" lon="0.1320380">
        <ele>644.1</ele>
      </trkpt>
      <trkpt lat="40.8044330" lon="0.1320090">
        <ele>644.1</ele>
      </trkpt>
      <trkpt lat="40.8043600" lon="0.1319510">
        <ele>644.2</ele>
      </trkpt>
      <trkpt lat="40.8043700" lon="0.1318860">
        <ele>644.3</ele>
      </trkpt>
      <trkpt lat="40.8043390" lon="0.1318270">
        <ele>644.4</ele>
      </trkpt>
      <trkpt lat="40.8042830" lon="0.1317710">
        <ele>644.5</ele>
      </trkpt>
      <trkpt lat="40.8042390" lon="0.1317180">
        <ele>644.6</ele>
      </trkpt>
      <trkpt lat="40.8042480" lon="0.1315900">
        <ele>644.7</ele>
      </trkpt>
      <trkpt lat="40.8042490" lon="0.1315280">
        <ele>644.8</ele>
      </trkpt>
      <trkpt lat="40.8042250" lon="0.1314730">
        <ele>645.0</ele>
      </trkpt>
      <trkpt lat="40.8041880" lon="0.1313960">
        <ele>645.1</ele>
      </trkpt>
      <trkpt lat="40.8041400" lon="0.1313740">
        <ele>645.2</ele>
      </trkpt>
      <trkpt lat="40.8040850" lon="0.1313250">
        <ele>645.4</ele>
      </trkpt>
      <trkpt lat="40.8040470" lon="0.1312960">
        <ele>645.5</ele>
      </trkpt>
      <trkpt lat="40.8039930" lon="0.1312750">
        <ele>645.6</ele>
      </trkpt>
      <trkpt lat="40.8039560" lon="0.1312590">
        <ele>645.7</ele>
      </trkpt>
      <trkpt lat="40.8039220" lon="0.1312400">
        <ele>645.8</ele>
      </trkpt>
      <trkpt lat="40.8038930" lon="0.1312270">
        <ele>645.9</ele>
      </trkpt>
      <trkpt lat="40.8038550" lon="0.1312060">
        <ele>645.9</ele>
      </trkpt>
      <trkpt lat="40.8038140" lon="0.1311780">
        <ele>646.0</ele>
      </trkpt>
      <trkpt lat="40.8037750" lon="0.1311440">
        <ele>646.1</ele>
      </trkpt>
      <trkpt lat="40.8037380" lon="0.1311060">
        <ele>646.2</ele>
      </trkpt>
      <trkpt lat="40.8037020" lon="0.1310660">
        <ele>646.3</ele>
      </trkpt>
      <trkpt lat="40.8036670" lon="0.1310250">
        <ele>646.3</ele>
      </trkpt>
      <trkpt lat="40.8036310" lon="0.1309820">
        <ele>646.4</ele>
      </trkpt>
      <trkpt lat="40.8035970" lon="0.1309430">
        <ele>646.4</ele>
      </trkpt>
      <trkpt lat="40.8035670" lon="0.1308970">
        <ele>646.5</ele>
      </trkpt>
      <trkpt lat="40.8035390" lon="0.1308510">
        <ele>646.5</ele>
      </trkpt>
      <trkpt lat="40.8035120" lon="0.1308030">
        <ele>646.6</ele>
      </trkpt>
      <trkpt lat="40.8034820" lon="0.1307570">
        <ele>646.6</ele>
      </trkpt>
      <trkpt lat="40.8034520" lon="0.1307140">
        <ele>646.6</ele>
      </trkpt>
      <trkpt lat="40.8034230" lon="0.1306720">
        <ele>646.6</ele>
      </trkpt>
      <trkpt lat="40.8033970" lon="0.1306270">
        <ele>646.7</ele>
      </trkpt>
      <trkpt lat="40.8033740" lon="0.1305870">
        <ele>646.7</ele>
      </trkpt>
      <trkpt lat="40.8033550" lon="0.1305490">
        <ele>646.7</ele>
      </trkpt>
      <trkpt lat="40.8033360" lon="0.1305120">
        <ele>646.7</ele>
      </trkpt>
      <trkpt lat="40.8033150" lon="0.1304720">
        <ele>646.7</ele>
      </trkpt>
      <trkpt lat="40.8032880" lon="0.1304250">
        <ele>646.8</ele>
      </trkpt>
      <trkpt lat="40.8032630" lon="0.1303750">
        <ele>646.8</ele>
      </trkpt>
      <trkpt lat="40.8032420" lon="0.1303270">
        <ele>646.8</ele>
      </trkpt>
      <trkpt lat="40.8032270" lon="0.1302770">
        <ele>646.8</ele>
      </trkpt>
      <trkpt lat="40.8032160" lon="0.1302230">
        <ele>646.8</ele>
      </trkpt>
      <trkpt lat="40.8032360" lon="0.1301210">
        <ele>646.9</ele>
      </trkpt>
      <trkpt lat="40.8032510" lon="0.1300530">
        <ele>646.9</ele>
      </trkpt>
      <trkpt lat="40.8032630" lon="0.1299950">
        <ele>646.9</ele>
      </trkpt>
      <trkpt lat="40.8032660" lon="0.1299360">
        <ele>646.9</ele>
      </trkpt>
      <trkpt lat="40.8032820" lon="0.1298720">
        <ele>646.9</ele>
      </trkpt>
      <trkpt lat="40.8032730" lon="0.1298300">
        <ele>646.9</ele>
      </trkpt>
      <trkpt lat="40.8032860" lon="0.1297590">
        <ele>646.9</ele>
      </trkpt>
      <trkpt lat="40.8033030" lon="0.1296820">
        <ele>646.9</ele>
      </trkpt>
      <trkpt lat="40.8033310" lon="0.1295910">
        <ele>646.9</ele>
      </trkpt>
      <trkpt lat="40.8033470" lon="0.1295220">
        <ele>646.9</ele>
      </trkpt>
      <trkpt lat="40.8033670" lon="0.1294630">
        <ele>646.9</ele>
      </trkpt>
      <trkpt lat="40.8033950" lon="0.1293990">
        <ele>646.8</ele>
      </trkpt>
      <trkpt lat="40.8033980" lon="0.1293510">
        <ele>646.8</ele>
      </trkpt>
      <trkpt lat="40.8034240" lon="0.1293040">
        <ele>646.8</ele>
      </trkpt>
      <trkpt lat="40.8034710" lon="0.1292610">
        <ele>646.8</ele>
      </trkpt>
      <trkpt lat="40.8034980" lon="0.1292080">
        <ele>646.8</ele>
      </trkpt>
      <trkpt lat="40.8035160" lon="0.1291620">
        <ele>646.8</ele>
      </trkpt>
      <trkpt lat="40.8035470" lon="0.1291340">
        <ele>646.8</ele>
      </trkpt>
      <trkpt lat="40.8035840" lon="0.1290820">
        <ele>646.8</ele>
      </trkpt>
      <trkpt lat="40.8036130" lon="0.1290430">
        <ele>646.8</ele>
      </trkpt>
      <trkpt lat="40.8036600" lon="0.1289800">
        <ele>646.8</ele>
      </trkpt>
      <trkpt lat="40.8036940" lon="0.1289300">
        <ele>646.8</ele>
      </trkpt>
      <trkpt lat="40.8037270" lon="0.1288830">
        <ele>646.8</ele>
      </trkpt>
      <trkpt lat="40.8037530" lon="0.1288450">
        <ele>646.8</ele>
      </trkpt>
      <trkpt lat="40.8037770" lon="0.1288030">
        <ele>646.7</ele>
      </trkpt>
      <trkpt lat="40.8038030" lon="0.1287540">
        <ele>646.7</ele>
      </trkpt>
      <trkpt lat="40.8038250" lon="0.1287010">
        <ele>646.7</ele>
      </trkpt>
      <trkpt lat="40.8038440" lon="0.1286520">
        <ele>646.7</ele>
      </trkpt>
      <trkpt lat="40.8038580" lon="0.1286110">
        <ele>646.7</ele>
      </trkpt>
      <trkpt lat="40.8038690" lon="0.1285720">
        <ele>646.7</ele>
      </trkpt>
      <trkpt lat="40.8038800" lon="0.1285310">
        <ele>646.7</ele>
      </trkpt>
      <trkpt lat="40.8038890" lon="0.1284930">
        <ele>646.6</ele>
      </trkpt>
      <trkpt lat="40.8038940" lon="0.1284580">
        <ele>646.6</ele>
      </trkpt>
      <trkpt lat="40.8038920" lon="0.1283840">
        <ele>646.6</ele>
      </trkpt>
      <trkpt lat="40.8038910" lon="0.1283340">
        <ele>646.6</ele>
      </trkpt>
      <trkpt lat="40.8038880" lon="0.1282780">
        <ele>646.5</ele>
      </trkpt>
      <trkpt lat="40.8038890" lon="0.1282160">
        <ele>646.5</ele>
      </trkpt>
      <trkpt lat="40.8038870" lon="0.1281560">
        <ele>646.5</ele>
      </trkpt>
      <trkpt lat="40.8038760" lon="0.1280940">
        <ele>646.4</ele>
      </trkpt>
      <trkpt lat="40.8038600" lon="0.1280290">
        <ele>646.4</ele>
      </trkpt>
      <trkpt lat="40.8038380" lon="0.1279650">
        <ele>646.4</ele>
      </trkpt>
      <trkpt lat="40.8038080" lon="0.1279070">
        <ele>646.3</ele>
      </trkpt>
      <trkpt lat="40.8037760" lon="0.1278520">
        <ele>646.3</ele>
      </trkpt>
      <trkpt lat="40.8037440" lon="0.1278020">
        <ele>646.3</ele>
      </trkpt>
      <trkpt lat="40.8037110" lon="0.1277550">
        <ele>646.3</ele>
      </trkpt>
      <trkpt lat="40.8036780" lon="0.1277070">
        <ele>646.2</ele>
      </trkpt>
      <trkpt lat="40.8036470" lon="0.1276600">
        <ele>646.2</ele>
      </trkpt>
      <trkpt lat="40.8036180" lon="0.1276130">
        <ele>646.2</ele>
      </trkpt>
      <trkpt lat="40.8035940" lon="0.1275630">
        <ele>646.2</ele>
      </trkpt>
      <trkpt lat="40.8035790" lon="0.1275100">
        <ele>646.1</ele>
      </trkpt>
      <trkpt lat="40.8035680" lon="0.1274550">
        <ele>646.1</ele>
      </trkpt>
      <trkpt lat="40.8035660" lon="0.1274010">
        <ele>646.1</ele>
      </trkpt>
      <trkpt lat="40.8035650" lon="0.1273490">
        <ele>646.1</ele>
      </trkpt>
      <trkpt lat="40.8035710" lon="0.1272960">
        <ele>646.1</ele>
      </trkpt>
      <trkpt lat="40.8035750" lon="0.1272460">
        <ele>646.1</ele>
      </trkpt>
      <trkpt lat="40.8035800" lon="0.1272010">
        <ele>646.1</ele>
      </trkpt>
      <trkpt lat="40.8035810" lon="0.1271630">
        <ele>646.1</ele>
      </trkpt>
      <trkpt lat="40.8035840" lon="0.1270990">
        <ele>646.0</ele>
      </trkpt>
      <trkpt lat="40.8035840" lon="0.1270630">
        <ele>646.0</ele>
      </trkpt>
      <trkpt lat="40.8035840" lon="0.1270280">
        <ele>646.0</ele>
      </trkpt>
      <trkpt lat="40.8035800" lon="0.1269640">
        <ele>646.0</ele>
      </trkpt>
      <trkpt lat="40.8035650" lon="0.1268960">
        <ele>646.0</ele>
      </trkpt>
      <trkpt lat="40.8035500" lon="0.1268570">
        <ele>645.9</ele>
      </trkpt>
      <trkpt lat="40.8035320" lon="0.1268260">
        <ele>645.8</ele>
      </trkpt>
      <trkpt lat="40.8034920" lon="0.1268080">
        <ele>645.8</ele>
      </trkpt>
      <trkpt lat="40.8034660" lon="0.1268190">
        <ele>645.7</ele>
      </trkpt>
      <trkpt lat="40.8034390" lon="0.1268380">
        <ele>645.7</ele>
      </trkpt>
      <trkpt lat="40.8034150" lon="0.1268570">
        <ele>645.6</ele>
      </trkpt>
      <trkpt lat="40.8033870" lon="0.1268770">
        <ele>645.5</ele>
      </trkpt>
      <trkpt lat="40.8033580" lon="0.1268970">
        <ele>645.4</ele>
      </trkpt>
      <trkpt lat="40.8033310" lon="0.1269170">
        <ele>645.3</ele>
      </trkpt>
      <trkpt lat="40.8032980" lon="0.1269370">
        <ele>645.2</ele>
      </trkpt>
      <trkpt lat="40.8032570" lon="0.1269590">
        <ele>645.1</ele>
      </trkpt>
      <trkpt lat="40.8032110" lon="0.1269850">
        <ele>645.0</ele>
      </trkpt>
      <trkpt lat="40.8031730" lon="0.1270170">
        <ele>645.0</ele>
      </trkpt>
      <trkpt lat="40.8031410" lon="0.1270540">
        <ele>644.9</ele>
      </trkpt>
      <trkpt lat="40.8031260" lon="0.1270910">
        <ele>644.9</ele>
      </trkpt>
      <trkpt lat="40.8031150" lon="0.1271250">
        <ele>644.8</ele>
      </trkpt>
      <trkpt lat="40.8031000" lon="0.1271620">
        <ele>644.8</ele>
      </trkpt>
      <trkpt lat="40.8030770" lon="0.1271950">
        <ele>644.8</ele>
      </trkpt>
      <trkpt lat="40.8030540" lon="0.1272230">
        <ele>644.8</ele>
      </trkpt>
      <trkpt lat="40.8030300" lon="0.1272440">
        <ele>644.8</ele>
      </trkpt>
      <trkpt lat="40.8030020" lon="0.1272600">
        <ele>644.7</ele>
      </trkpt>
      <trkpt lat="40.8029630" lon="0.1272780">
        <ele>644.7</ele>
      </trkpt>
      <trkpt lat="40.8029270" lon="0.1272950">
        <ele>644.7</ele>
      </trkpt>
      <trkpt lat="40.8028900" lon="0.1273140">
        <ele>644.7</ele>
      </trkpt>
      <trkpt lat="40.8028550" lon="0.1273370">
        <ele>644.7</ele>
      </trkpt>
      <trkpt lat="40.8028170" lon="0.1273670">
        <ele>644.7</ele>
      </trkpt>
      <trkpt lat="40.8027790" lon="0.1273950">
        <ele>644.7</ele>
      </trkpt>
      <trkpt lat="40.8027440" lon="0.1274300">
        <ele>644.7</ele>
      </trkpt>
      <trkpt lat="40.8027130" lon="0.1274660">
        <ele>644.7</ele>
      </trkpt>
      <trkpt lat="40.8026840" lon="0.1274890">
        <ele>644.7</ele>
      </trkpt>
      <trkpt lat="40.8026550" lon="0.1275070">
        <ele>644.8</ele>
      </trkpt>
      <trkpt lat="40.8026200" lon="0.1275340">
        <ele>644.8</ele>
      </trkpt>
      <trkpt lat="40.8025820" lon="0.1275700">
        <ele>644.9</ele>
      </trkpt>
      <trkpt lat="40.8025420" lon="0.1276120">
        <ele>644.9</ele>
      </trkpt>
      <trkpt lat="40.8025050" lon="0.1276530">
        <ele>645.0</ele>
      </trkpt>
      <trkpt lat="40.8024660" lon="0.1276940">
        <ele>645.1</ele>
      </trkpt>
      <trkpt lat="40.8023990" lon="0.1277390">
        <ele>645.2</ele>
      </trkpt>
      <trkpt lat="40.8023530" lon="0.1277750">
        <ele>645.3</ele>
      </trkpt>
      <trkpt lat="40.8023220" lon="0.1278250">
        <ele>645.3</ele>
      </trkpt>
      <trkpt lat="40.8023090" lon="0.1278660">
        <ele>645.4</ele>
      </trkpt>
      <trkpt lat="40.8022090" lon="0.1279190">
        <ele>645.7</ele>
      </trkpt>
      <trkpt lat="40.8021580" lon="0.1279940">
        <ele>646.0</ele>
      </trkpt>
      <trkpt lat="40.8021060" lon="0.1280530">
        <ele>646.2</ele>
      </trkpt>
      <trkpt lat="40.8020590" lon="0.1281100">
        <ele>646.4</ele>
      </trkpt>
      <trkpt lat="40.8019590" lon="0.1281400">
        <ele>646.7</ele>
      </trkpt>
      <trkpt lat="40.8019030" lon="0.1281770">
        <ele>646.9</ele>
      </trkpt>
      <trkpt lat="40.8018750" lon="0.1282370">
        <ele>647.0</ele>
      </trkpt>
      <trkpt lat="40.8018190" lon="0.1282600">
        <ele>647.2</ele>
      </trkpt>
      <trkpt lat="40.8017660" lon="0.1282910">
        <ele>647.3</ele>
      </trkpt>
      <trkpt lat="40.8017340" lon="0.1283220">
        <ele>647.4</ele>
      </trkpt>
      <trkpt lat="40.8016900" lon="0.1283500">
        <ele>647.6</ele>
      </trkpt>
      <trkpt lat="40.8016580" lon="0.1283770">
        <ele>647.6</ele>
      </trkpt>
      <trkpt lat="40.8016120" lon="0.1283960">
        <ele>647.8</ele>
      </trkpt>
      <trkpt lat="40.8015210" lon="0.1284480">
        <ele>648.0</ele>
      </trkpt>
      <trkpt lat="40.8014830" lon="0.1284640">
        <ele>648.1</ele>
      </trkpt>
      <trkpt lat="40.8014510" lon="0.1284870">
        <ele>648.2</ele>
      </trkpt>
      <trkpt lat="40.8013960" lon="0.1285050">
        <ele>648.2</ele>
      </trkpt>
      <trkpt lat="40.8013410" lon="0.1285240">
        <ele>648.3</ele>
      </trkpt>
      <trkpt lat="40.8013080" lon="0.1285500">
        <ele>648.4</ele>
      </trkpt>
      <trkpt lat="40.8012790" lon="0.1285610">
        <ele>648.4</ele>
      </trkpt>
      <trkpt lat="40.8012570" lon="0.1285990">
        <ele>648.4</ele>
      </trkpt>
      <trkpt lat="40.8012120" lon="0.1286370">
        <ele>648.5</ele>
      </trkpt>
      <trkpt lat="40.8011890" lon="0.1286560">
        <ele>648.5</ele>
      </trkpt>
      <trkpt lat="40.8011560" lon="0.1286780">
        <ele>648.5</ele>
      </trkpt>
      <trkpt lat="40.8011310" lon="0.1287000">
        <ele>648.5</ele>
      </trkpt>
      <trkpt lat="40.8011000" lon="0.1287490">
        <ele>648.6</ele>
      </trkpt>
      <trkpt lat="40.8010670" lon="0.1288010">
        <ele>648.6</ele>
      </trkpt>
      <trkpt lat="40.8010300" lon="0.1288590">
        <ele>648.6</ele>
      </trkpt>
      <trkpt lat="40.8010100" lon="0.1288950">
        <ele>648.6</ele>
      </trkpt>
      <trkpt lat="40.8009880" lon="0.1289320">
        <ele>648.6</ele>
      </trkpt>
      <trkpt lat="40.8009630" lon="0.1289710">
        <ele>648.6</ele>
      </trkpt>
      <trkpt lat="40.8009340" lon="0.1290110">
        <ele>648.6</ele>
      </trkpt>
      <trkpt lat="40.8009060" lon="0.1290530">
        <ele>648.6</ele>
      </trkpt>
      <trkpt lat="40.8008920" lon="0.1290980">
        <ele>648.6</ele>
      </trkpt>
      <trkpt lat="40.8008770" lon="0.1291420">
        <ele>648.6</ele>
      </trkpt>
      <trkpt lat="40.8008620" lon="0.1291840">
        <ele>648.6</ele>
      </trkpt>
      <trkpt lat="40.8008450" lon="0.1292210">
        <ele>648.6</ele>
      </trkpt>
      <trkpt lat="40.8008290" lon="0.1292600">
        <ele>648.6</ele>
      </trkpt>
      <trkpt lat="40.8008180" lon="0.1292990">
        <ele>648.5</ele>
      </trkpt>
      <trkpt lat="40.8008030" lon="0.1293350">
        <ele>648.5</ele>
      </trkpt>
      <trkpt lat="40.8007880" lon="0.1293660">
        <ele>648.4</ele>
      </trkpt>
      <trkpt lat="40.8007590" lon="0.1294140">
        <ele>648.4</ele>
      </trkpt>
      <trkpt lat="40.8007250" lon="0.1294440">
        <ele>648.3</ele>
      </trkpt>
      <trkpt lat="40.8006930" lon="0.1294640">
        <ele>648.3</ele>
      </trkpt>
      <trkpt lat="40.8006540" lon="0.1294760">
        <ele>648.2</ele>
      </trkpt>
      <trkpt lat="40.8006220" lon="0.1294780">
        <ele>648.2</ele>
      </trkpt>
      <trkpt lat="40.8005920" lon="0.1294760">
        <ele>648.1</ele>
      </trkpt>
      <trkpt lat="40.8005630" lon="0.1294740">
        <ele>648.1</ele>
      </trkpt>
      <trkpt lat="40.8005270" lon="0.1294720">
        <ele>648.0</ele>
      </trkpt>
      <trkpt lat="40.8004920" lon="0.1294720">
        <ele>648.0</ele>
      </trkpt>
      <trkpt lat="40.8004530" lon="0.1294740">
        <ele>647.9</ele>
      </trkpt>
      <trkpt lat="40.8004130" lon="0.1294740">
        <ele>647.8</ele>
      </trkpt>
      <trkpt lat="40.8003670" lon="0.1294700">
        <ele>647.7</ele>
      </trkpt>
      <trkpt lat="40.8003160" lon="0.1294600">
        <ele>647.6</ele>
      </trkpt>
      <trkpt lat="40.8002660" lon="0.1294480">
        <ele>647.5</ele>
      </trkpt>
      <trkpt lat="40.8002210" lon="0.1294380">
        <ele>647.4</ele>
      </trkpt>
      <trkpt lat="40.8001780" lon="0.1294290">
        <ele>647.3</ele>
      </trkpt>
      <trkpt lat="40.8001380" lon="0.1294230">
        <ele>647.3</ele>
      </trkpt>
      <trkpt lat="40.8001020" lon="0.1294170">
        <ele>647.2</ele>
      </trkpt>
      <trkpt lat="40.8000570" lon="0.1294110">
        <ele>647.1</ele>
      </trkpt>
      <trkpt lat="40.8000180" lon="0.1294070">
        <ele>647.1</ele>
      </trkpt>
      <trkpt lat="40.7999840" lon="0.1294060">
        <ele>647.0</ele>
      </trkpt>
      <trkpt lat="40.7999500" lon="0.1294070">
        <ele>646.9</ele>
      </trkpt>
      <trkpt lat="40.7999130" lon="0.1294080">
        <ele>646.9</ele>
      </trkpt>
      <trkpt lat="40.7998790" lon="0.1294100">
        <ele>646.8</ele>
      </trkpt>
      <trkpt lat="40.7998490" lon="0.1294160">
        <ele>646.7</ele>
      </trkpt>
      <trkpt lat="40.7998170" lon="0.1294230">
        <ele>646.6</ele>
      </trkpt>
      <trkpt lat="40.7997840" lon="0.1294330">
        <ele>646.6</ele>
      </trkpt>
      <trkpt lat="40.7997540" lon="0.1294440">
        <ele>646.5</ele>
      </trkpt>
      <trkpt lat="40.7997270" lon="0.1294560">
        <ele>646.4</ele>
      </trkpt>
      <trkpt lat="40.7997020" lon="0.1294700">
        <ele>646.3</ele>
      </trkpt>
      <trkpt lat="40.7996580" lon="0.1294970">
        <ele>646.2</ele>
      </trkpt>
      <trkpt lat="40.7996080" lon="0.1295270">
        <ele>646.0</ele>
      </trkpt>
      <trkpt lat="40.7995620" lon="0.1295570">
        <ele>645.8</ele>
      </trkpt>
      <trkpt lat="40.7995290" lon="0.1295740">
        <ele>645.7</ele>
      </trkpt>
      <trkpt lat="40.7994980" lon="0.1295910">
        <ele>645.6</ele>
      </trkpt>
      <trkpt lat="40.7994660" lon="0.1296090">
        <ele>645.5</ele>
      </trkpt>
      <trkpt lat="40.7994360" lon="0.1296260">
        <ele>645.4</ele>
      </trkpt>
      <trkpt lat="40.7994060" lon="0.1296440">
        <ele>645.4</ele>
      </trkpt>
      <trkpt lat="40.7993770" lon="0.1296610">
        <ele>645.3</ele>
      </trkpt>
      <trkpt lat="40.7993500" lon="0.1296770">
        <ele>645.2</ele>
      </trkpt>
      <trkpt lat="40.7993150" lon="0.1297160">
        <ele>645.1</ele>
      </trkpt>
      <trkpt lat="40.7993030" lon="0.1297560">
        <ele>645.0</ele>
      </trkpt>
      <trkpt lat="40.7993130" lon="0.1298030">
        <ele>644.9</ele>
      </trkpt>
      <trkpt lat="40.7993520" lon="0.1298440">
        <ele>644.8</ele>
      </trkpt>
      <trkpt lat="40.7993960" lon="0.1298810">
        <ele>644.7</ele>
      </trkpt>
      <trkpt lat="40.7994180" lon="0.1299030">
        <ele>644.7</ele>
      </trkpt>
      <trkpt lat="40.7994410" lon="0.1299250">
        <ele>644.6</ele>
      </trkpt>
      <trkpt lat="40.7994690" lon="0.1299480">
        <ele>644.6</ele>
      </trkpt>
      <trkpt lat="40.7994990" lon="0.1299730">
        <ele>644.5</ele>
      </trkpt>
      <trkpt lat="40.7995290" lon="0.1299990">
        <ele>644.4</ele>
      </trkpt>
      <trkpt lat="40.7995580" lon="0.1300260">
        <ele>644.3</ele>
      </trkpt>
      <trkpt lat="40.7995890" lon="0.1300510">
        <ele>644.2</ele>
      </trkpt>
      <trkpt lat="40.7996220" lon="0.1300760">
        <ele>644.1</ele>
      </trkpt>
      <trkpt lat="40.7996530" lon="0.1301020">
        <ele>643.9</ele>
      </trkpt>
      <trkpt lat="40.7996790" lon="0.1301280">
        <ele>643.6</ele>
      </trkpt>
      <trkpt lat="40.7997040" lon="0.1301550">
        <ele>643.3</ele>
      </trkpt>
      <trkpt lat="40.7997340" lon="0.1301800">
        <ele>643.0</ele>
      </trkpt>
      <trkpt lat="40.7997690" lon="0.1302030">
        <ele>642.7</ele>
      </trkpt>
      <trkpt lat="40.7998030" lon="0.1302270">
        <ele>642.6</ele>
      </trkpt>
      <trkpt lat="40.7998310" lon="0.1302540">
        <ele>642.4</ele>
      </trkpt>
      <trkpt lat="40.7998550" lon="0.1302860">
        <ele>642.3</ele>
      </trkpt>
      <trkpt lat="40.7998760" lon="0.1303250">
        <ele>642.1</ele>
      </trkpt>
      <trkpt lat="40.7998950" lon="0.1303590">
        <ele>642.0</ele>
      </trkpt>
      <trkpt lat="40.7999160" lon="0.1304060">
        <ele>641.8</ele>
      </trkpt>
      <trkpt lat="40.7999380" lon="0.1304560">
        <ele>641.4</ele>
      </trkpt>
      <trkpt lat="40.7999550" lon="0.1305000">
        <ele>641.1</ele>
      </trkpt>
      <trkpt lat="40.7999640" lon="0.1305530">
        <ele>640.7</ele>
      </trkpt>
      <trkpt lat="40.7999620" lon="0.1305900">
        <ele>640.4</ele>
      </trkpt>
      <trkpt lat="40.7999530" lon="0.1306260">
        <ele>640.2</ele>
      </trkpt>
      <trkpt lat="40.7999320" lon="0.1306830">
        <ele>640.0</ele>
      </trkpt>
      <trkpt lat="40.7999190" lon="0.1307250">
        <ele>639.9</ele>
      </trkpt>
      <trkpt lat="40.7999050" lon="0.1307750">
        <ele>639.7</ele>
      </trkpt>
      <trkpt lat="40.7998920" lon="0.1308240">
        <ele>639.4</ele>
      </trkpt>
      <trkpt lat="40.7998790" lon="0.1308670">
        <ele>639.2</ele>
      </trkpt>
      <trkpt lat="40.7998700" lon="0.1309060">
        <ele>639.1</ele>
      </trkpt>
      <trkpt lat="40.7998640" lon="0.1309420">
        <ele>638.8</ele>
      </trkpt>
      <trkpt lat="40.7998640" lon="0.1310150">
        <ele>638.1</ele>
      </trkpt>
      <trkpt lat="40.7998670" lon="0.1310520">
        <ele>638.1</ele>
      </trkpt>
      <trkpt lat="40.7998720" lon="0.1311220">
        <ele>638.2</ele>
      </trkpt>
      <trkpt lat="40.7998770" lon="0.1311860">
        <ele>638.4</ele>
      </trkpt>
      <trkpt lat="40.7998800" lon="0.1312470">
        <ele>638.6</ele>
      </trkpt>
      <trkpt lat="40.7998820" lon="0.1313140">
        <ele>639.0</ele>
      </trkpt>
      <trkpt lat="40.7998770" lon="0.1313780">
        <ele>639.6</ele>
      </trkpt>
      <trkpt lat="40.7998710" lon="0.1314390">
        <ele>640.0</ele>
      </trkpt>
      <trkpt lat="40.7998600" lon="0.1314950">
        <ele>640.3</ele>
      </trkpt>
      <trkpt lat="40.7998460" lon="0.1315480">
        <ele>640.6</ele>
      </trkpt>
      <trkpt lat="40.7998370" lon="0.1316040">
        <ele>640.9</ele>
      </trkpt>
      <trkpt lat="40.7998290" lon="0.1316600">
        <ele>641.5</ele>
      </trkpt>
      <trkpt lat="40.7998210" lon="0.1317150">
        <ele>642.2</ele>
      </trkpt>
      <trkpt lat="40.7998160" lon="0.1317730">
        <ele>642.6</ele>
      </trkpt>
      <trkpt lat="40.7998160" lon="0.1318280">
        <ele>642.9</ele>
      </trkpt>
      <trkpt lat="40.7998190" lon="0.1318740">
        <ele>643.4</ele>
      </trkpt>
      <trkpt lat="40.7998270" lon="0.1319200">
        <ele>644.1</ele>
      </trkpt>
      <trkpt lat="40.7998430" lon="0.1319600">
        <ele>644.6</ele>
      </trkpt>
      <trkpt lat="40.7998670" lon="0.1319900">
        <ele>644.9</ele>
      </trkpt>
      <trkpt lat="40.7998900" lon="0.1320110">
        <ele>645.1</ele>
      </trkpt>
      <trkpt lat="40.7999160" lon="0.1320330">
        <ele>645.5</ele>
      </trkpt>
      <trkpt lat="40.7999420" lon="0.1320500">
        <ele>646.0</ele>
      </trkpt>
      <trkpt lat="40.7999710" lon="0.1320580">
        <ele>646.5</ele>
      </trkpt>
      <trkpt lat="40.8000040" lon="0.1320540">
        <ele>646.7</ele>
      </trkpt>
      <trkpt lat="40.8000320" lon="0.1320380">
        <ele>646.9</ele>
      </trkpt>
      <trkpt lat="40.8000700" lon="0.1320210">
        <ele>647.5</ele>
      </trkpt>
      <trkpt lat="40.8001010" lon="0.1320240">
        <ele>648.0</ele>
      </trkpt>
      <trkpt lat="40.8001320" lon="0.1320280">
        <ele>648.5</ele>
      </trkpt>
      <trkpt lat="40.8001690" lon="0.1320350">
        <ele>648.9</ele>
      </trkpt>
      <trkpt lat="40.8002090" lon="0.1320320">
        <ele>649.5</ele>
      </trkpt>
      <trkpt lat="40.8002450" lon="0.1320210">
        <ele>650.2</ele>
      </trkpt>
      <trkpt lat="40.8002800" lon="0.1320300">
        <ele>650.8</ele>
      </trkpt>
      <trkpt lat="40.8003150" lon="0.1320280">
        <ele>651.1</ele>
      </trkpt>
      <trkpt lat="40.8003460" lon="0.1320480">
        <ele>651.3</ele>
      </trkpt>
      <trkpt lat="40.8003740" lon="0.1320660">
        <ele>651.5</ele>
      </trkpt>
      <trkpt lat="40.8003970" lon="0.1321010">
        <ele>651.9</ele>
      </trkpt>
      <trkpt lat="40.8004150" lon="0.1321440">
        <ele>652.5</ele>
      </trkpt>
      <trkpt lat="40.8004290" lon="0.1321860">
        <ele>653.1</ele>
      </trkpt>
      <trkpt lat="40.8004410" lon="0.1322180">
        <ele>653.5</ele>
      </trkpt>
      <trkpt lat="40.8004550" lon="0.1322610">
        <ele>653.9</ele>
      </trkpt>
      <trkpt lat="40.8004650" lon="0.1323050">
        <ele>654.4</ele>
      </trkpt>
      <trkpt lat="40.8004750" lon="0.1323410">
        <ele>654.9</ele>
      </trkpt>
      <trkpt lat="40.8004850" lon="0.1323920">
        <ele>655.4</ele>
      </trkpt>
      <trkpt lat="40.8004950" lon="0.1324310">
        <ele>655.7</ele>
      </trkpt>
      <trkpt lat="40.8005040" lon="0.1324660">
        <ele>655.9</ele>
      </trkpt>
      <trkpt lat="40.8005170" lon="0.1325040">
        <ele>656.1</ele>
      </trkpt>
      <trkpt lat="40.8005350" lon="0.1325390">
        <ele>656.5</ele>
      </trkpt>
      <trkpt lat="40.8005620" lon="0.1325750">
        <ele>657.0</ele>
      </trkpt>
      <trkpt lat="40.8005860" lon="0.1326060">
        <ele>657.3</ele>
      </trkpt>
      <trkpt lat="40.8006090" lon="0.1326440">
        <ele>657.5</ele>
      </trkpt>
      <trkpt lat="40.8006290" lon="0.1326830">
        <ele>657.7</ele>
      </trkpt>
      <trkpt lat="40.8006450" lon="0.1327200">
        <ele>657.9</ele>
      </trkpt>
      <trkpt lat="40.8006620" lon="0.1327700">
        <ele>658.1</ele>
      </trkpt>
      <trkpt lat="40.8006730" lon="0.1328110">
        <ele>658.4</ele>
      </trkpt>
      <trkpt lat="40.8006870" lon="0.1328580">
        <ele>659.0</ele>
      </trkpt>
      <trkpt lat="40.8007040" lon="0.1329050">
        <ele>659.8</ele>
      </trkpt>
      <trkpt lat="40.8007210" lon="0.1329430">
        <ele>660.2</ele>
      </trkpt>
      <trkpt lat="40.8007380" lon="0.1329740">
        <ele>660.4</ele>
      </trkpt>
      <trkpt lat="40.8007590" lon="0.1330130">
        <ele>660.8</ele>
      </trkpt>
      <trkpt lat="40.8007810" lon="0.1330420">
        <ele>661.3</ele>
      </trkpt>
      <trkpt lat="40.8008040" lon="0.1330750">
        <ele>661.7</ele>
      </trkpt>
      <trkpt lat="40.8008240" lon="0.1331020">
        <ele>661.9</ele>
      </trkpt>
      <trkpt lat="40.8008510" lon="0.1331400">
        <ele>662.2</ele>
      </trkpt>
      <trkpt lat="40.8008760" lon="0.1331640">
        <ele>662.4</ele>
      </trkpt>
      <trkpt lat="40.8008960" lon="0.1332050">
        <ele>662.8</ele>
      </trkpt>
      <trkpt lat="40.8009090" lon="0.1332490">
        <ele>663.4</ele>
      </trkpt>
      <trkpt lat="40.8009190" lon="0.1332830">
        <ele>663.9</ele>
      </trkpt>
      <trkpt lat="40.8009350" lon="0.1333160">
        <ele>664.3</ele>
      </trkpt>
      <trkpt lat="40.8009540" lon="0.1333550">
        <ele>664.6</ele>
      </trkpt>
      <trkpt lat="40.8009710" lon="0.1333870">
        <ele>664.9</ele>
      </trkpt>
      <trkpt lat="40.8009900" lon="0.1334210">
        <ele>665.2</ele>
      </trkpt>
      <trkpt lat="40.8010070" lon="0.1334580">
        <ele>666.0</ele>
      </trkpt>
      <trkpt lat="40.8010230" lon="0.1334920">
        <ele>666.4</ele>
      </trkpt>
      <trkpt lat="40.8010450" lon="0.1335330">
        <ele>667.2</ele>
      </trkpt>
      <trkpt lat="40.8010540" lon="0.1335820">
        <ele>667.9</ele>
      </trkpt>
      <trkpt lat="40.8010420" lon="0.1336190">
        <ele>668.3</ele>
      </trkpt>
      <trkpt lat="40.8010300" lon="0.1337160">
        <ele>668.9</ele>
      </trkpt>
      <trkpt lat="40.8010630" lon="0.1337450">
        <ele>669.3</ele>
      </trkpt>
      <trkpt lat="40.8010940" lon="0.1337880">
        <ele>670.0</ele>
      </trkpt>
      <trkpt lat="40.8011240" lon="0.1338320">
        <ele>670.6</ele>
      </trkpt>
      <trkpt lat="40.8011560" lon="0.1338780">
        <ele>670.9</ele>
      </trkpt>
      <trkpt lat="40.8011880" lon="0.1339240">
        <ele>671.2</ele>
      </trkpt>
      <trkpt lat="40.8012200" lon="0.1339680">
        <ele>671.9</ele>
      </trkpt>
      <trkpt lat="40.8012540" lon="0.1340030">
        <ele>672.5</ele>
      </trkpt>
      <trkpt lat="40.8012870" lon="0.1340380">
        <ele>672.9</ele>
      </trkpt>
      <trkpt lat="40.8013170" lon="0.1340750">
        <ele>673.1</ele>
      </trkpt>
      <trkpt lat="40.8013460" lon="0.1341110">
        <ele>673.4</ele>
      </trkpt>
      <trkpt lat="40.8013750" lon="0.1341460">
        <ele>674.1</ele>
      </trkpt>
      <trkpt lat="40.8014040" lon="0.1341840">
        <ele>674.8</ele>
      </trkpt>
      <trkpt lat="40.8014330" lon="0.1342150">
        <ele>675.2</ele>
      </trkpt>
      <trkpt lat="40.8014640" lon="0.1342450">
        <ele>675.5</ele>
      </trkpt>
      <trkpt lat="40.8014910" lon="0.1342730">
        <ele>676.0</ele>
      </trkpt>
      <trkpt lat="40.8015170" lon="0.1343070">
        <ele>676.8</ele>
      </trkpt>
      <trkpt lat="40.8015430" lon="0.1343340">
        <ele>677.3</ele>
      </trkpt>
      <trkpt lat="40.8015720" lon="0.1343620">
        <ele>677.7</ele>
      </trkpt>
      <trkpt lat="40.8016010" lon="0.1343900">
        <ele>678.5</ele>
      </trkpt>
      <trkpt lat="40.8016260" lon="0.1344170">
        <ele>679.1</ele>
      </trkpt>
      <trkpt lat="40.8016480" lon="0.1344430">
        <ele>679.5</ele>
      </trkpt>
      <trkpt lat="40.8016800" lon="0.1344680">
        <ele>680.0</ele>
      </trkpt>
      <trkpt lat="40.8017070" lon="0.1344890">
        <ele>680.5</ele>
      </trkpt>
      <trkpt lat="40.8017340" lon="0.1345160">
        <ele>680.9</ele>
      </trkpt>
      <trkpt lat="40.8017600" lon="0.1345490">
        <ele>681.1</ele>
      </trkpt>
      <trkpt lat="40.8017870" lon="0.1345850">
        <ele>681.1</ele>
      </trkpt>
      <trkpt lat="40.8018120" lon="0.1346180">
        <ele>681.2</ele>
      </trkpt>
      <trkpt lat="40.8018330" lon="0.1346610">
        <ele>681.3</ele>
      </trkpt>
      <trkpt lat="40.8018540" lon="0.1347040">
        <ele>681.3</ele>
      </trkpt>
      <trkpt lat="40.8018820" lon="0.1347600">
        <ele>681.4</ele>
      </trkpt>
      <trkpt lat="40.8019010" lon="0.1348170">
        <ele>681.4</ele>
      </trkpt>
      <trkpt lat="40.8019120" lon="0.1348670">
        <ele>681.5</ele>
      </trkpt>
      <trkpt lat="40.8019170" lon="0.1349140">
        <ele>681.5</ele>
      </trkpt>
      <trkpt lat="40.8019220" lon="0.1349660">
        <ele>681.6</ele>
      </trkpt>
      <trkpt lat="40.8019290" lon="0.1350140">
        <ele>681.7</ele>
      </trkpt>
      <trkpt lat="40.8019370" lon="0.1350640">
        <ele>681.9</ele>
      </trkpt>
      <trkpt lat="40.8019360" lon="0.1351240">
        <ele>682.1</ele>
      </trkpt>
      <trkpt lat="40.8019280" lon="0.1351820">
        <ele>682.4</ele>
      </trkpt>
      <trkpt lat="40.8019300" lon="0.1352400">
        <ele>682.8</ele>
      </trkpt>
      <trkpt lat="40.8019410" lon="0.1353020">
        <ele>683.0</ele>
      </trkpt>
      <trkpt lat="40.8019580" lon="0.1353590">
        <ele>683.2</ele>
      </trkpt>
      <trkpt lat="40.8019880" lon="0.1354170">
        <ele>683.2</ele>
      </trkpt>
      <trkpt lat="40.8020220" lon="0.1354720">
        <ele>683.3</ele>
      </trkpt>
      <trkpt lat="40.8020390" lon="0.1354990">
        <ele>683.4</ele>
      </trkpt>
      <trkpt lat="40.8020720" lon="0.1355520">
        <ele>683.4</ele>
      </trkpt>
      <trkpt lat="40.8021080" lon="0.1356060">
        <ele>683.4</ele>
      </trkpt>
      <trkpt lat="40.8021270" lon="0.1356330">
        <ele>683.5</ele>
      </trkpt>
      <trkpt lat="40.8021450" lon="0.1356600">
        <ele>683.5</ele>
      </trkpt>
      <trkpt lat="40.8021800" lon="0.1357120">
        <ele>683.5</ele>
      </trkpt>
      <trkpt lat="40.8022160" lon="0.1357620">
        <ele>683.6</ele>
      </trkpt>
      <trkpt lat="40.8022510" lon="0.1358100">
        <ele>683.7</ele>
      </trkpt>
      <trkpt lat="40.8022870" lon="0.1358520">
        <ele>683.9</ele>
      </trkpt>
      <trkpt lat="40.8023270" lon="0.1358890">
        <ele>684.2</ele>
      </trkpt>
      <trkpt lat="40.8023710" lon="0.1359170">
        <ele>684.6</ele>
      </trkpt>
      <trkpt lat="40.8024100" lon="0.1359490">
        <ele>685.1</ele>
      </trkpt>
      <trkpt lat="40.8024470" lon="0.1359890">
        <ele>685.4</ele>
      </trkpt>
      <trkpt lat="40.8024800" lon="0.1360310">
        <ele>685.5</ele>
      </trkpt>
      <trkpt lat="40.8025160" lon="0.1360690">
        <ele>685.6</ele>
      </trkpt>
      <trkpt lat="40.8025520" lon="0.1361010">
        <ele>685.7</ele>
      </trkpt>
      <trkpt lat="40.8025890" lon="0.1361370">
        <ele>685.9</ele>
      </trkpt>
      <trkpt lat="40.8026220" lon="0.1361730">
        <ele>686.0</ele>
      </trkpt>
      <trkpt lat="40.8026460" lon="0.1362020">
        <ele>686.2</ele>
      </trkpt>
      <trkpt lat="40.8026660" lon="0.1362290">
        <ele>686.3</ele>
      </trkpt>
      <trkpt lat="40.8026960" lon="0.1362590">
        <ele>686.4</ele>
      </trkpt>
      <trkpt lat="40.8027340" lon="0.1362960">
        <ele>686.6</ele>
      </trkpt>
      <trkpt lat="40.8027670" lon="0.1363300">
        <ele>687.0</ele>
      </trkpt>
      <trkpt lat="40.8027980" lon="0.1363640">
        <ele>687.4</ele>
      </trkpt>
      <trkpt lat="40.8028330" lon="0.1363970">
        <ele>687.7</ele>
      </trkpt>
      <trkpt lat="40.8028700" lon="0.1364300">
        <ele>687.9</ele>
      </trkpt>
      <trkpt lat="40.8029090" lon="0.1364710">
        <ele>688.2</ele>
      </trkpt>
      <trkpt lat="40.8029430" lon="0.1365110">
        <ele>688.6</ele>
      </trkpt>
      <trkpt lat="40.8029750" lon="0.1365460">
        <ele>689.2</ele>
      </trkpt>
      <trkpt lat="40.8030110" lon="0.1365860">
        <ele>689.6</ele>
      </trkpt>
      <trkpt lat="40.8030460" lon="0.1366160">
        <ele>689.9</ele>
      </trkpt>
      <trkpt lat="40.8030790" lon="0.1366450">
        <ele>690.1</ele>
      </trkpt>
      <trkpt lat="40.8031120" lon="0.1366730">
        <ele>690.5</ele>
      </trkpt>
      <trkpt lat="40.8031440" lon="0.1367000">
        <ele>691.0</ele>
      </trkpt>
      <trkpt lat="40.8031720" lon="0.1367300">
        <ele>691.4</ele>
      </trkpt>
      <trkpt lat="40.8032010" lon="0.1367750">
        <ele>691.6</ele>
      </trkpt>
      <trkpt lat="40.8032260" lon="0.1368320">
        <ele>691.8</ele>
      </trkpt>
      <trkpt lat="40.8032420" lon="0.1368880">
        <ele>691.9</ele>
      </trkpt>
      <trkpt lat="40.8032520" lon="0.1369410">
        <ele>691.9</ele>
      </trkpt>
      <trkpt lat="40.8032630" lon="0.1369940">
        <ele>692.0</ele>
      </trkpt>
      <trkpt lat="40.8032810" lon="0.1370480">
        <ele>692.0</ele>
      </trkpt>
      <trkpt lat="40.8033050" lon="0.1370990">
        <ele>692.0</ele>
      </trkpt>
      <trkpt lat="40.8033280" lon="0.1371510">
        <ele>692.0</ele>
      </trkpt>
      <trkpt lat="40.8033500" lon="0.1372030">
        <ele>692.0</ele>
      </trkpt>
      <trkpt lat="40.8033630" lon="0.1372350">
        <ele>692.0</ele>
      </trkpt>
      <trkpt lat="40.8033750" lon="0.1372680">
        <ele>692.0</ele>
      </trkpt>
      <trkpt lat="40.8034010" lon="0.1373330">
        <ele>692.0</ele>
      </trkpt>
      <trkpt lat="40.8034180" lon="0.1373730">
        <ele>692.0</ele>
      </trkpt>
      <trkpt lat="40.8034340" lon="0.1374190">
        <ele>692.0</ele>
      </trkpt>
      <trkpt lat="40.8034490" lon="0.1374680">
        <ele>692.0</ele>
      </trkpt>
      <trkpt lat="40.8034640" lon="0.1375220">
        <ele>692.0</ele>
      </trkpt>
      <trkpt lat="40.8034790" lon="0.1375740">
        <ele>692.0</ele>
      </trkpt>
      <trkpt lat="40.8034920" lon="0.1376220">
        <ele>692.0</ele>
      </trkpt>
      <trkpt lat="40.8035030" lon="0.1376640">
        <ele>691.9</ele>
      </trkpt>
      <trkpt lat="40.8035120" lon="0.1376990">
        <ele>691.9</ele>
      </trkpt>
      <trkpt lat="40.8035200" lon="0.1377340">
        <ele>691.9</ele>
      </trkpt>
      <trkpt lat="40.8035320" lon="0.1377790">
        <ele>691.9</ele>
      </trkpt>
      <trkpt lat="40.8035450" lon="0.1378280">
        <ele>691.8</ele>
      </trkpt>
      <trkpt lat="40.8035580" lon="0.1378770">
        <ele>691.8</ele>
      </trkpt>
      <trkpt lat="40.8035720" lon="0.1379180">
        <ele>691.7</ele>
      </trkpt>
      <trkpt lat="40.8035850" lon="0.1379580">
        <ele>691.6</ele>
      </trkpt>
      <trkpt lat="40.8035920" lon="0.1379990">
        <ele>691.5</ele>
      </trkpt>
      <trkpt lat="40.8035950" lon="0.1380610">
        <ele>691.4</ele>
      </trkpt>
      <trkpt lat="40.8035990" lon="0.1381010">
        <ele>691.3</ele>
      </trkpt>
      <trkpt lat="40.8036110" lon="0.1381350">
        <ele>691.1</ele>
      </trkpt>
      <trkpt lat="40.8036250" lon="0.1381850">
        <ele>690.9</ele>
      </trkpt>
      <trkpt lat="40.8036450" lon="0.1382520">
        <ele>690.6</ele>
      </trkpt>
      <trkpt lat="40.8036580" lon="0.1382870">
        <ele>690.5</ele>
      </trkpt>
      <trkpt lat="40.8036800" lon="0.1383420">
        <ele>690.4</ele>
      </trkpt>
      <trkpt lat="40.8037010" lon="0.1383940">
        <ele>690.5</ele>
      </trkpt>
      <trkpt lat="40.8037260" lon="0.1384450">
        <ele>690.6</ele>
      </trkpt>
      <trkpt lat="40.8037460" lon="0.1385010">
        <ele>690.8</ele>
      </trkpt>
      <trkpt lat="40.8037700" lon="0.1385610">
        <ele>691.4</ele>
      </trkpt>
      <trkpt lat="40.8037870" lon="0.1385910">
        <ele>691.8</ele>
      </trkpt>
      <trkpt lat="40.8038040" lon="0.1386200">
        <ele>692.1</ele>
      </trkpt>
      <trkpt lat="40.8038390" lon="0.1386760">
        <ele>692.5</ele>
      </trkpt>
      <trkpt lat="40.8038720" lon="0.1387310">
        <ele>692.8</ele>
      </trkpt>
      <trkpt lat="40.8038990" lon="0.1387810">
        <ele>693.4</ele>
      </trkpt>
      <trkpt lat="40.8039250" lon="0.1388380">
        <ele>694.0</ele>
      </trkpt>
      <trkpt lat="40.8039430" lon="0.1388920">
        <ele>694.3</ele>
      </trkpt>
      <trkpt lat="40.8039630" lon="0.1389400">
        <ele>694.4</ele>
      </trkpt>
      <trkpt lat="40.8039850" lon="0.1389870">
        <ele>694.5</ele>
      </trkpt>
      <trkpt lat="40.8040030" lon="0.1390420">
        <ele>694.7</ele>
      </trkpt>
      <trkpt lat="40.8040140" lon="0.1390750">
        <ele>694.8</ele>
      </trkpt>
      <trkpt lat="40.8040260" lon="0.1391100">
        <ele>694.8</ele>
      </trkpt>
      <trkpt lat="40.8040380" lon="0.1391430">
        <ele>694.9</ele>
      </trkpt>
      <trkpt lat="40.8040630" lon="0.1392050">
        <ele>695.1</ele>
      </trkpt>
      <trkpt lat="40.8040910" lon="0.1392590">
        <ele>695.3</ele>
      </trkpt>
      <trkpt lat="40.8041190" lon="0.1393140">
        <ele>695.5</ele>
      </trkpt>
      <trkpt lat="40.8041530" lon="0.1393750">
        <ele>696.2</ele>
      </trkpt>
      <trkpt lat="40.8041710" lon="0.1394040">
        <ele>696.4</ele>
      </trkpt>
      <trkpt lat="40.8041990" lon="0.1394560">
        <ele>696.8</ele>
      </trkpt>
      <trkpt lat="40.8042200" lon="0.1395100">
        <ele>697.4</ele>
      </trkpt>
      <trkpt lat="40.8042430" lon="0.1395640">
        <ele>698.0</ele>
      </trkpt>
      <trkpt lat="40.8042710" lon="0.1396200">
        <ele>698.4</ele>
      </trkpt>
      <trkpt lat="40.8043040" lon="0.1396700">
        <ele>698.6</ele>
      </trkpt>
      <trkpt lat="40.8043420" lon="0.1397170">
        <ele>698.9</ele>
      </trkpt>
      <trkpt lat="40.8043790" lon="0.1397600">
        <ele>699.1</ele>
      </trkpt>
      <trkpt lat="40.8044120" lon="0.1397900">
        <ele>699.3</ele>
      </trkpt>
      <trkpt lat="40.8044440" lon="0.1398110">
        <ele>699.6</ele>
      </trkpt>
      <trkpt lat="40.8044750" lon="0.1398330">
        <ele>700.1</ele>
      </trkpt>
      <trkpt lat="40.8045010" lon="0.1398620">
        <ele>700.7</ele>
      </trkpt>
      <trkpt lat="40.8045240" lon="0.1398960">
        <ele>701.1</ele>
      </trkpt>
      <trkpt lat="40.8045430" lon="0.1399380">
        <ele>701.5</ele>
      </trkpt>
      <trkpt lat="40.8045680" lon="0.1399640">
        <ele>701.9</ele>
      </trkpt>
      <trkpt lat="40.8046020" lon="0.1399820">
        <ele>702.5</ele>
      </trkpt>
      <trkpt lat="40.8046340" lon="0.1400020">
        <ele>702.9</ele>
      </trkpt>
      <trkpt lat="40.8046640" lon="0.1400330">
        <ele>703.3</ele>
      </trkpt>
      <trkpt lat="40.8046880" lon="0.1400690">
        <ele>703.8</ele>
      </trkpt>
      <trkpt lat="40.8047120" lon="0.1401090">
        <ele>704.4</ele>
      </trkpt>
      <trkpt lat="40.8047320" lon="0.1401490">
        <ele>704.9</ele>
      </trkpt>
      <trkpt lat="40.8047450" lon="0.1401830">
        <ele>705.1</ele>
      </trkpt>
      <trkpt lat="40.8047580" lon="0.1402340">
        <ele>705.3</ele>
      </trkpt>
      <trkpt lat="40.8047660" lon="0.1402780">
        <ele>705.5</ele>
      </trkpt>
      <trkpt lat="40.8047710" lon="0.1403380">
        <ele>705.8</ele>
      </trkpt>
      <trkpt lat="40.8047700" lon="0.1403870">
        <ele>706.3</ele>
      </trkpt>
      <trkpt lat="40.8047710" lon="0.1404400">
        <ele>706.7</ele>
      </trkpt>
      <trkpt lat="40.8047770" lon="0.1404820">
        <ele>706.9</ele>
      </trkpt>
      <trkpt lat="40.8047820" lon="0.1405290">
        <ele>707.1</ele>
      </trkpt>
      <trkpt lat="40.8047890" lon="0.1405800">
        <ele>707.3</ele>
      </trkpt>
      <trkpt lat="40.8047920" lon="0.1406220">
        <ele>707.4</ele>
      </trkpt>
      <trkpt lat="40.8048000" lon="0.1406680">
        <ele>707.5</ele>
      </trkpt>
      <trkpt lat="40.8048150" lon="0.1407130">
        <ele>707.8</ele>
      </trkpt>
      <trkpt lat="40.8048310" lon="0.1407560">
        <ele>708.3</ele>
      </trkpt>
      <trkpt lat="40.8048490" lon="0.1408010">
        <ele>708.7</ele>
      </trkpt>
      <trkpt lat="40.8048670" lon="0.1408440">
        <ele>709.0</ele>
      </trkpt>
      <trkpt lat="40.8048820" lon="0.1408890">
        <ele>709.3</ele>
      </trkpt>
      <trkpt lat="40.8049020" lon="0.1409350">
        <ele>709.6</ele>
      </trkpt>
      <trkpt lat="40.8049270" lon="0.1409890">
        <ele>710.0</ele>
      </trkpt>
      <trkpt lat="40.8049530" lon="0.1410390">
        <ele>710.6</ele>
      </trkpt>
      <trkpt lat="40.8049730" lon="0.1410790">
        <ele>711.1</ele>
      </trkpt>
      <trkpt lat="40.8049930" lon="0.1411180">
        <ele>711.5</ele>
      </trkpt>
      <trkpt lat="40.8050180" lon="0.1411540">
        <ele>711.7</ele>
      </trkpt>
      <trkpt lat="40.8050450" lon="0.1411930">
        <ele>712.0</ele>
      </trkpt>
      <trkpt lat="40.8050730" lon="0.1412370">
        <ele>712.5</ele>
      </trkpt>
      <trkpt lat="40.8051070" lon="0.1412820">
        <ele>713.5</ele>
      </trkpt>
      <trkpt lat="40.8051430" lon="0.1413260">
        <ele>714.0</ele>
      </trkpt>
      <trkpt lat="40.8051710" lon="0.1413710">
        <ele>714.4</ele>
      </trkpt>
      <trkpt lat="40.8052000" lon="0.1414200">
        <ele>715.4</ele>
      </trkpt>
      <trkpt lat="40.8052220" lon="0.1414630">
        <ele>716.2</ele>
      </trkpt>
      <trkpt lat="40.8052420" lon="0.1414990">
        <ele>716.8</ele>
      </trkpt>
      <trkpt lat="40.8052580" lon="0.1415290">
        <ele>717.4</ele>
      </trkpt>
      <trkpt lat="40.8052740" lon="0.1415590">
        <ele>717.9</ele>
      </trkpt>
      <trkpt lat="40.8052870" lon="0.1415940">
        <ele>718.3</ele>
      </trkpt>
      <trkpt lat="40.8053060" lon="0.1416380">
        <ele>718.9</ele>
      </trkpt>
      <trkpt lat="40.8053240" lon="0.1416780">
        <ele>719.5</ele>
      </trkpt>
      <trkpt lat="40.8053460" lon="0.1417240">
        <ele>719.9</ele>
      </trkpt>
      <trkpt lat="40.8053650" lon="0.1417750">
        <ele>720.1</ele>
      </trkpt>
      <trkpt lat="40.8053870" lon="0.1418150">
        <ele>720.4</ele>
      </trkpt>
      <trkpt lat="40.8054080" lon="0.1418510">
        <ele>720.6</ele>
      </trkpt>
      <trkpt lat="40.8054270" lon="0.1418850">
        <ele>721.0</ele>
      </trkpt>
      <trkpt lat="40.8054400" lon="0.1419230">
        <ele>721.4</ele>
      </trkpt>
      <trkpt lat="40.8054590" lon="0.1419620">
        <ele>721.8</ele>
      </trkpt>
      <trkpt lat="40.8054830" lon="0.1420030">
        <ele>722.1</ele>
      </trkpt>
      <trkpt lat="40.8055120" lon="0.1420450">
        <ele>722.2</ele>
      </trkpt>
      <trkpt lat="40.8055380" lon="0.1420950">
        <ele>722.4</ele>
      </trkpt>
      <trkpt lat="40.8055690" lon="0.1421460">
        <ele>722.7</ele>
      </trkpt>
      <trkpt lat="40.8055970" lon="0.1421960">
        <ele>722.9</ele>
      </trkpt>
      <trkpt lat="40.8056200" lon="0.1422530">
        <ele>723.1</ele>
      </trkpt>
      <trkpt lat="40.8056410" lon="0.1423080">
        <ele>723.4</ele>
      </trkpt>
      <trkpt lat="40.8056580" lon="0.1423480">
        <ele>723.8</ele>
      </trkpt>
      <trkpt lat="40.8056760" lon="0.1423800">
        <ele>724.1</ele>
      </trkpt>
      <trkpt lat="40.8056990" lon="0.1424180">
        <ele>724.3</ele>
      </trkpt>
      <trkpt lat="40.8057250" lon="0.1424670">
        <ele>724.5</ele>
      </trkpt>
      <trkpt lat="40.8057490" lon="0.1425160">
        <ele>724.9</ele>
      </trkpt>
      <trkpt lat="40.8057720" lon="0.1425490">
        <ele>725.4</ele>
      </trkpt>
      <trkpt lat="40.8057970" lon="0.1425750">
        <ele>725.9</ele>
      </trkpt>
      <trkpt lat="40.8058200" lon="0.1426040">
        <ele>726.4</ele>
      </trkpt>
      <trkpt lat="40.8058420" lon="0.1426370">
        <ele>726.6</ele>
      </trkpt>
      <trkpt lat="40.8058610" lon="0.1426710">
        <ele>727.0</ele>
      </trkpt>
      <trkpt lat="40.8058800" lon="0.1427160">
        <ele>727.5</ele>
      </trkpt>
      <trkpt lat="40.8058950" lon="0.1427640">
        <ele>728.1</ele>
      </trkpt>
      <trkpt lat="40.8059110" lon="0.1428030">
        <ele>728.5</ele>
      </trkpt>
      <trkpt lat="40.8059310" lon="0.1428410">
        <ele>728.8</ele>
      </trkpt>
      <trkpt lat="40.8059610" lon="0.1428840">
        <ele>729.2</ele>
      </trkpt>
      <trkpt lat="40.8059940" lon="0.1429210">
        <ele>729.7</ele>
      </trkpt>
      <trkpt lat="40.8060250" lon="0.1429540">
        <ele>730.3</ele>
      </trkpt>
      <trkpt lat="40.8060510" lon="0.1429910">
        <ele>730.6</ele>
      </trkpt>
      <trkpt lat="40.8060710" lon="0.1430260">
        <ele>730.9</ele>
      </trkpt>
      <trkpt lat="40.8060850" lon="0.1430610">
        <ele>731.3</ele>
      </trkpt>
      <trkpt lat="40.8060940" lon="0.1430980">
        <ele>731.5</ele>
      </trkpt>
      <trkpt lat="40.8061100" lon="0.1431350">
        <ele>732.0</ele>
      </trkpt>
      <trkpt lat="40.8061240" lon="0.1431690">
        <ele>732.5</ele>
      </trkpt>
      <trkpt lat="40.8061310" lon="0.1432110">
        <ele>732.8</ele>
      </trkpt>
      <trkpt lat="40.8061460" lon="0.1432460">
        <ele>733.0</ele>
      </trkpt>
      <trkpt lat="40.8061640" lon="0.1432790">
        <ele>733.3</ele>
      </trkpt>
      <trkpt lat="40.8061860" lon="0.1433130">
        <ele>733.6</ele>
      </trkpt>
      <trkpt lat="40.8062080" lon="0.1433430">
        <ele>734.2</ele>
      </trkpt>
      <trkpt lat="40.8062290" lon="0.1433700">
        <ele>734.6</ele>
      </trkpt>
      <trkpt lat="40.8062480" lon="0.1434100">
        <ele>735.0</ele>
      </trkpt>
      <trkpt lat="40.8062630" lon="0.1434410">
        <ele>735.2</ele>
      </trkpt>
      <trkpt lat="40.8062870" lon="0.1434890">
        <ele>735.6</ele>
      </trkpt>
      <trkpt lat="40.8063170" lon="0.1435300">
        <ele>736.3</ele>
      </trkpt>
      <trkpt lat="40.8063330" lon="0.1435610">
        <ele>736.9</ele>
      </trkpt>
      <trkpt lat="40.8063510" lon="0.1435900">
        <ele>737.2</ele>
      </trkpt>
      <trkpt lat="40.8063740" lon="0.1436160">
        <ele>737.5</ele>
      </trkpt>
      <trkpt lat="40.8064000" lon="0.1436570">
        <ele>738.4</ele>
      </trkpt>
      <trkpt lat="40.8064290" lon="0.1436830">
        <ele>739.2</ele>
      </trkpt>
      <trkpt lat="40.8064600" lon="0.1437110">
        <ele>739.8</ele>
      </trkpt>
      <trkpt lat="40.8064900" lon="0.1437280">
        <ele>740.6</ele>
      </trkpt>
      <trkpt lat="40.8065160" lon="0.1437510">
        <ele>741.3</ele>
      </trkpt>
      <trkpt lat="40.8065420" lon="0.1437810">
        <ele>741.7</ele>
      </trkpt>
      <trkpt lat="40.8065750" lon="0.1437940">
        <ele>742.3</ele>
      </trkpt>
      <trkpt lat="40.8066020" lon="0.1438120">
        <ele>742.9</ele>
      </trkpt>
      <trkpt lat="40.8066300" lon="0.1438350">
        <ele>743.4</ele>
      </trkpt>
      <trkpt lat="40.8066660" lon="0.1438560">
        <ele>744.0</ele>
      </trkpt>
      <trkpt lat="40.8067040" lon="0.1438790">
        <ele>745.0</ele>
      </trkpt>
      <trkpt lat="40.8067310" lon="0.1439020">
        <ele>745.8</ele>
      </trkpt>
      <trkpt lat="40.8067600" lon="0.1439220">
        <ele>746.3</ele>
      </trkpt>
      <trkpt lat="40.8067920" lon="0.1439480">
        <ele>747.6</ele>
      </trkpt>
      <trkpt lat="40.8068120" lon="0.1439780">
        <ele>748.1</ele>
      </trkpt>
      <trkpt lat="40.8068380" lon="0.1440000">
        <ele>748.9</ele>
      </trkpt>
      <trkpt lat="40.8068730" lon="0.1440150">
        <ele>750.1</ele>
      </trkpt>
      <trkpt lat="40.8069030" lon="0.1440280">
        <ele>750.4</ele>
      </trkpt>
      <trkpt lat="40.8069230" lon="0.1440560">
        <ele>750.7</ele>
      </trkpt>
      <trkpt lat="40.8069490" lon="0.1440710">
        <ele>751.5</ele>
      </trkpt>
      <trkpt lat="40.8069750" lon="0.1440960">
        <ele>752.2</ele>
      </trkpt>
      <trkpt lat="40.8070080" lon="0.1441100">
        <ele>752.7</ele>
      </trkpt>
      <trkpt lat="40.8070400" lon="0.1441340">
        <ele>753.9</ele>
      </trkpt>
      <trkpt lat="40.8070730" lon="0.1441460">
        <ele>754.5</ele>
      </trkpt>
      <trkpt lat="40.8071080" lon="0.1441530">
        <ele>755.0</ele>
      </trkpt>
      <trkpt lat="40.8071400" lon="0.1441640">
        <ele>755.9</ele>
      </trkpt>
      <trkpt lat="40.8071730" lon="0.1441890">
        <ele>756.5</ele>
      </trkpt>
      <trkpt lat="40.8072020" lon="0.1442150">
        <ele>756.9</ele>
      </trkpt>
      <trkpt lat="40.8072260" lon="0.1442400">
        <ele>757.5</ele>
      </trkpt>
      <trkpt lat="40.8072480" lon="0.1442710">
        <ele>758.3</ele>
      </trkpt>
      <trkpt lat="40.8072580" lon="0.1443160">
        <ele>758.7</ele>
      </trkpt>
      <trkpt lat="40.8072770" lon="0.1443460">
        <ele>759.0</ele>
      </trkpt>
      <trkpt lat="40.8072940" lon="0.1443810">
        <ele>759.8</ele>
      </trkpt>
      <trkpt lat="40.8073060" lon="0.1444180">
        <ele>760.2</ele>
      </trkpt>
      <trkpt lat="40.8073070" lon="0.1444540">
        <ele>760.6</ele>
      </trkpt>
      <trkpt lat="40.8073070" lon="0.1445020">
        <ele>761.0</ele>
      </trkpt>
      <trkpt lat="40.8073100" lon="0.1445490">
        <ele>761.4</ele>
      </trkpt>
      <trkpt lat="40.8073040" lon="0.1445930">
        <ele>761.9</ele>
      </trkpt>
      <trkpt lat="40.8072970" lon="0.1446340">
        <ele>762.4</ele>
      </trkpt>
      <trkpt lat="40.8072870" lon="0.1446790">
        <ele>762.7</ele>
      </trkpt>
      <trkpt lat="40.8072750" lon="0.1447180">
        <ele>763.0</ele>
      </trkpt>
      <trkpt lat="40.8072620" lon="0.1447500">
        <ele>763.2</ele>
      </trkpt>
      <trkpt lat="40.8072440" lon="0.1447790">
        <ele>763.4</ele>
      </trkpt>
      <trkpt lat="40.8072220" lon="0.1448080">
        <ele>763.8</ele>
      </trkpt>
      <trkpt lat="40.8072020" lon="0.1448380">
        <ele>764.3</ele>
      </trkpt>
      <trkpt lat="40.8071890" lon="0.1448700">
        <ele>764.7</ele>
      </trkpt>
      <trkpt lat="40.8071780" lon="0.1449110">
        <ele>765.0</ele>
      </trkpt>
      <trkpt lat="40.8071770" lon="0.1449550">
        <ele>765.2</ele>
      </trkpt>
      <trkpt lat="40.8071790" lon="0.1449960">
        <ele>765.6</ele>
      </trkpt>
      <trkpt lat="40.8071870" lon="0.1450390">
        <ele>766.1</ele>
      </trkpt>
      <trkpt lat="40.8071970" lon="0.1450840">
        <ele>766.7</ele>
      </trkpt>
      <trkpt lat="40.8072120" lon="0.1451220">
        <ele>767.1</ele>
      </trkpt>
      <trkpt lat="40.8072240" lon="0.1451550">
        <ele>767.5</ele>
      </trkpt>
      <trkpt lat="40.8072340" lon="0.1451890">
        <ele>767.7</ele>
      </trkpt>
      <trkpt lat="40.8072520" lon="0.1452260">
        <ele>768.1</ele>
      </trkpt>
      <trkpt lat="40.8072660" lon="0.1452630">
        <ele>768.7</ele>
      </trkpt>
      <trkpt lat="40.8072910" lon="0.1452960">
        <ele>769.3</ele>
      </trkpt>
      <trkpt lat="40.8073190" lon="0.1453320">
        <ele>769.9</ele>
      </trkpt>
      <trkpt lat="40.8073440" lon="0.1453680">
        <ele>770.8</ele>
      </trkpt>
      <trkpt lat="40.8073660" lon="0.1453900">
        <ele>771.3</ele>
      </trkpt>
      <trkpt lat="40.8073980" lon="0.1454190">
        <ele>771.7</ele>
      </trkpt>
      <trkpt lat="40.8074210" lon="0.1454610">
        <ele>772.2</ele>
      </trkpt>
      <trkpt lat="40.8074400" lon="0.1454900">
        <ele>772.7</ele>
      </trkpt>
      <trkpt lat="40.8074670" lon="0.1455290">
        <ele>773.4</ele>
      </trkpt>
      <trkpt lat="40.8074900" lon="0.1455740">
        <ele>774.1</ele>
      </trkpt>
      <trkpt lat="40.8075050" lon="0.1456050">
        <ele>774.4</ele>
      </trkpt>
      <trkpt lat="40.8075160" lon="0.1456390">
        <ele>774.8</ele>
      </trkpt>
      <trkpt lat="40.8075230" lon="0.1456810">
        <ele>775.4</ele>
      </trkpt>
      <trkpt lat="40.8075330" lon="0.1457310">
        <ele>775.9</ele>
      </trkpt>
      <trkpt lat="40.8075380" lon="0.1457730">
        <ele>776.1</ele>
      </trkpt>
      <trkpt lat="40.8075410" lon="0.1458250">
        <ele>776.4</ele>
      </trkpt>
      <trkpt lat="40.8075520" lon="0.1458730">
        <ele>777.0</ele>
      </trkpt>
      <trkpt lat="40.8075660" lon="0.1459230">
        <ele>777.8</ele>
      </trkpt>
      <trkpt lat="40.8075780" lon="0.1459650">
        <ele>778.2</ele>
      </trkpt>
      <trkpt lat="40.8075890" lon="0.1460120">
        <ele>778.5</ele>
      </trkpt>
      <trkpt lat="40.8075930" lon="0.1460620">
        <ele>779.3</ele>
      </trkpt>
      <trkpt lat="40.8075930" lon="0.1460990">
        <ele>779.7</ele>
      </trkpt>
      <trkpt lat="40.8075970" lon="0.1461530">
        <ele>780.2</ele>
      </trkpt>
      <trkpt lat="40.8076020" lon="0.1461890">
        <ele>780.6</ele>
      </trkpt>
      <trkpt lat="40.8076120" lon="0.1462300">
        <ele>781.2</ele>
      </trkpt>
      <trkpt lat="40.8076240" lon="0.1462800">
        <ele>781.9</ele>
      </trkpt>
      <trkpt lat="40.8076330" lon="0.1463140">
        <ele>782.1</ele>
      </trkpt>
      <trkpt lat="40.8076420" lon="0.1463520">
        <ele>782.3</ele>
      </trkpt>
      <trkpt lat="40.8076510" lon="0.1464060">
        <ele>782.8</ele>
      </trkpt>
      <trkpt lat="40.8076580" lon="0.1464430">
        <ele>783.3</ele>
      </trkpt>
      <trkpt lat="40.8076750" lon="0.1464890">
        <ele>784.2</ele>
      </trkpt>
      <trkpt lat="40.8076850" lon="0.1465260">
        <ele>784.5</ele>
      </trkpt>
      <trkpt lat="40.8076970" lon="0.1465650">
        <ele>784.9</ele>
      </trkpt>
      <trkpt lat="40.8077090" lon="0.1466030">
        <ele>785.7</ele>
      </trkpt>
      <trkpt lat="40.8077200" lon="0.1466510">
        <ele>786.4</ele>
      </trkpt>
      <trkpt lat="40.8077250" lon="0.1467010">
        <ele>786.8</ele>
      </trkpt>
      <trkpt lat="40.8077450" lon="0.1467480">
        <ele>787.5</ele>
      </trkpt>
      <trkpt lat="40.8077680" lon="0.1467750">
        <ele>788.1</ele>
      </trkpt>
      <trkpt lat="40.8077860" lon="0.1468120">
        <ele>788.6</ele>
      </trkpt>
      <trkpt lat="40.8077710" lon="0.1468450">
        <ele>788.9</ele>
      </trkpt>
      <trkpt lat="40.8077160" lon="0.1468770">
        <ele>789.4</ele>
      </trkpt>
      <trkpt lat="40.8076870" lon="0.1469040">
        <ele>790.5</ele>
      </trkpt>
      <trkpt lat="40.8076540" lon="0.1469270">
        <ele>791.6</ele>
      </trkpt>
      <trkpt lat="40.8076210" lon="0.1469500">
        <ele>792.8</ele>
      </trkpt>
      <trkpt lat="40.8075880" lon="0.1469750">
        <ele>793.9</ele>
      </trkpt>
      <trkpt lat="40.8075540" lon="0.1470050">
        <ele>795.2</ele>
      </trkpt>
      <trkpt lat="40.8075190" lon="0.1470390">
        <ele>796.6</ele>
      </trkpt>
      <trkpt lat="40.8074820" lon="0.1470820">
        <ele>798.1</ele>
      </trkpt>
      <trkpt lat="40.8074520" lon="0.1471230">
        <ele>799.4</ele>
      </trkpt>
      <trkpt lat="40.8074330" lon="0.1471570">
        <ele>800.4</ele>
      </trkpt>
      <trkpt lat="40.8074100" lon="0.1471920">
        <ele>801.5</ele>
      </trkpt>
      <trkpt lat="40.8073890" lon="0.1472150">
        <ele>802.0</ele>
      </trkpt>
      <trkpt lat="40.8073840" lon="0.1472560">
        <ele>802.0</ele>
      </trkpt>
      <trkpt lat="40.8073930" lon="0.1472910">
        <ele>802.0</ele>
      </trkpt>
      <trkpt lat="40.8074020" lon="0.1473320">
        <ele>802.0</ele>
      </trkpt>
      <trkpt lat="40.8073930" lon="0.1473710">
        <ele>802.0</ele>
      </trkpt>
      <trkpt lat="40.8073780" lon="0.1474130">
        <ele>802.1</ele>
      </trkpt>
      <trkpt lat="40.8073570" lon="0.1474550">
        <ele>802.1</ele>
      </trkpt>
      <trkpt lat="40.8073500" lon="0.1474990">
        <ele>802.2</ele>
      </trkpt>
      <trkpt lat="40.8073420" lon="0.1475340">
        <ele>802.3</ele>
      </trkpt>
      <trkpt lat="40.8073320" lon="0.1475780">
        <ele>802.4</ele>
      </trkpt>
      <trkpt lat="40.8073160" lon="0.1476300">
        <ele>802.6</ele>
      </trkpt>
      <trkpt lat="40.8072930" lon="0.1476880">
        <ele>803.0</ele>
      </trkpt>
      <trkpt lat="40.8072760" lon="0.1477430">
        <ele>803.4</ele>
      </trkpt>
      <trkpt lat="40.8072680" lon="0.1477900">
        <ele>803.6</ele>
      </trkpt>
      <trkpt lat="40.8072620" lon="0.1478450">
        <ele>803.7</ele>
      </trkpt>
      <trkpt lat="40.8072560" lon="0.1478840">
        <ele>803.8</ele>
      </trkpt>
      <trkpt lat="40.8072470" lon="0.1479380">
        <ele>803.9</ele>
      </trkpt>
      <trkpt lat="40.8072300" lon="0.1479870">
        <ele>804.0</ele>
      </trkpt>
      <trkpt lat="40.8072140" lon="0.1480270">
        <ele>804.2</ele>
      </trkpt>
      <trkpt lat="40.8072100" lon="0.1480630">
        <ele>804.3</ele>
      </trkpt>
      <trkpt lat="40.8072130" lon="0.1481110">
        <ele>805.1</ele>
      </trkpt>
      <trkpt lat="40.8072180" lon="0.1481490">
        <ele>805.8</ele>
      </trkpt>
      <trkpt lat="40.8072260" lon="0.1481870">
        <ele>806.4</ele>
      </trkpt>
      <trkpt lat="40.8072290" lon="0.1482260">
        <ele>807.2</ele>
      </trkpt>
      <trkpt lat="40.8072360" lon="0.1482780">
        <ele>807.8</ele>
      </trkpt>
      <trkpt lat="40.8072490" lon="0.1483100">
        <ele>808.4</ele>
      </trkpt>
      <trkpt lat="40.8072680" lon="0.1483450">
        <ele>808.8</ele>
      </trkpt>
      <trkpt lat="40.8072770" lon="0.1483810">
        <ele>809.0</ele>
      </trkpt>
      <trkpt lat="40.8072870" lon="0.1484170">
        <ele>809.3</ele>
      </trkpt>
      <trkpt lat="40.8072990" lon="0.1484670">
        <ele>809.5</ele>
      </trkpt>
      <trkpt lat="40.8073080" lon="0.1485150">
        <ele>809.9</ele>
      </trkpt>
      <trkpt lat="40.8073110" lon="0.1485540">
        <ele>810.4</ele>
      </trkpt>
      <trkpt lat="40.8073060" lon="0.1486020">
        <ele>810.7</ele>
      </trkpt>
      <trkpt lat="40.8072950" lon="0.1486470">
        <ele>811.1</ele>
      </trkpt>
      <trkpt lat="40.8072920" lon="0.1486920">
        <ele>811.7</ele>
      </trkpt>
      <trkpt lat="40.8072840" lon="0.1487430">
        <ele>812.5</ele>
      </trkpt>
      <trkpt lat="40.8072660" lon="0.1487970">
        <ele>813.0</ele>
      </trkpt>
      <trkpt lat="40.8072510" lon="0.1488410">
        <ele>814.2</ele>
      </trkpt>
      <trkpt lat="40.8072480" lon="0.1488870">
        <ele>814.7</ele>
      </trkpt>
      <trkpt lat="40.8072560" lon="0.1489290">
        <ele>815.1</ele>
      </trkpt>
      <trkpt lat="40.8072700" lon="0.1489750">
        <ele>816.1</ele>
      </trkpt>
      <trkpt lat="40.8072890" lon="0.1490140">
        <ele>816.4</ele>
      </trkpt>
      <trkpt lat="40.8073090" lon="0.1490540">
        <ele>816.9</ele>
      </trkpt>
      <trkpt lat="40.8073250" lon="0.1490880">
        <ele>817.7</ele>
      </trkpt>
      <trkpt lat="40.8073340" lon="0.1491240">
        <ele>817.9</ele>
      </trkpt>
      <trkpt lat="40.8073340" lon="0.1491670">
        <ele>818.2</ele>
      </trkpt>
      <trkpt lat="40.8073330" lon="0.1492090">
        <ele>818.6</ele>
      </trkpt>
      <trkpt lat="40.8073330" lon="0.1492480">
        <ele>819.2</ele>
      </trkpt>
      <trkpt lat="40.8073290" lon="0.1492840">
        <ele>819.6</ele>
      </trkpt>
      <trkpt lat="40.8073170" lon="0.1493330">
        <ele>820.0</ele>
      </trkpt>
      <trkpt lat="40.8073070" lon="0.1493740">
        <ele>820.5</ele>
      </trkpt>
      <trkpt lat="40.8073060" lon="0.1494100">
        <ele>821.5</ele>
      </trkpt>
      <trkpt lat="40.8073190" lon="0.1494470">
        <ele>822.2</ele>
      </trkpt>
      <trkpt lat="40.8073280" lon="0.1494820">
        <ele>823.2</ele>
      </trkpt>
      <trkpt lat="40.8073450" lon="0.1495150">
        <ele>823.8</ele>
      </trkpt>
      <trkpt lat="40.8073500" lon="0.1495510">
        <ele>824.7</ele>
      </trkpt>
      <trkpt lat="40.8073610" lon="0.1495910">
        <ele>825.2</ele>
      </trkpt>
      <trkpt lat="40.8073660" lon="0.1496290">
        <ele>825.8</ele>
      </trkpt>
      <trkpt lat="40.8073750" lon="0.1496700">
        <ele>826.5</ele>
      </trkpt>
      <trkpt lat="40.8073840" lon="0.1497080">
        <ele>827.0</ele>
      </trkpt>
      <trkpt lat="40.8073990" lon="0.1497440">
        <ele>827.0</ele>
      </trkpt>
      <trkpt lat="40.8073980" lon="0.1497860">
        <ele>827.0</ele>
      </trkpt>
      <trkpt lat="40.8074060" lon="0.1498310">
        <ele>827.1</ele>
      </trkpt>
      <trkpt lat="40.8074000" lon="0.1498720">
        <ele>827.1</ele>
      </trkpt>
      <trkpt lat="40.8073970" lon="0.1499110">
        <ele>827.2</ele>
      </trkpt>
      <trkpt lat="40.8074000" lon="0.1499530">
        <ele>827.3</ele>
      </trkpt>
      <trkpt lat="40.8074020" lon="0.1499980">
        <ele>827.4</ele>
      </trkpt>
      <trkpt lat="40.8074180" lon="0.1500410">
        <ele>828.0</ele>
      </trkpt>
      <trkpt lat="40.8074290" lon="0.1500770">
        <ele>828.7</ele>
      </trkpt>
      <trkpt lat="40.8074360" lon="0.1501140">
        <ele>829.0</ele>
      </trkpt>
      <trkpt lat="40.8074410" lon="0.1501600">
        <ele>829.4</ele>
      </trkpt>
      <trkpt lat="40.8074520" lon="0.1501980">
        <ele>830.4</ele>
      </trkpt>
      <trkpt lat="40.8074680" lon="0.1502390">
        <ele>830.9</ele>
      </trkpt>
      <trkpt lat="40.8074790" lon="0.1502730">
        <ele>831.6</ele>
      </trkpt>
      <trkpt lat="40.8074880" lon="0.1503140">
        <ele>832.3</ele>
      </trkpt>
      <trkpt lat="40.8075020" lon="0.1503490">
        <ele>832.7</ele>
      </trkpt>
      <trkpt lat="40.8075030" lon="0.1503940">
        <ele>833.4</ele>
      </trkpt>
      <trkpt lat="40.8075040" lon="0.1504300">
        <ele>833.9</ele>
      </trkpt>
      <trkpt lat="40.8075150" lon="0.1504660">
        <ele>834.3</ele>
      </trkpt>
      <trkpt lat="40.8075130" lon="0.1505070">
        <ele>834.9</ele>
      </trkpt>
      <trkpt lat="40.8075060" lon="0.1505420">
        <ele>835.6</ele>
      </trkpt>
      <trkpt lat="40.8074930" lon="0.1505800">
        <ele>836.0</ele>
      </trkpt>
      <trkpt lat="40.8074940" lon="0.1506210">
        <ele>836.3</ele>
      </trkpt>
      <trkpt lat="40.8074820" lon="0.1506570">
        <ele>837.1</ele>
      </trkpt>
      <trkpt lat="40.8074710" lon="0.1506970">
        <ele>837.6</ele>
      </trkpt>
      <trkpt lat="40.8074740" lon="0.1507390">
        <ele>838.1</ele>
      </trkpt>
      <trkpt lat="40.8074920" lon="0.1507780">
        <ele>838.9</ele>
      </trkpt>
      <trkpt lat="40.8074840" lon="0.1508150">
        <ele>840.4</ele>
      </trkpt>
      <trkpt lat="40.8074700" lon="0.1508500">
        <ele>841.3</ele>
      </trkpt>
      <trkpt lat="40.8074670" lon="0.1508900">
        <ele>842.0</ele>
      </trkpt>
      <trkpt lat="40.8074720" lon="0.1509320">
        <ele>842.7</ele>
      </trkpt>
      <trkpt lat="40.8074780" lon="0.1509710">
        <ele>843.4</ele>
      </trkpt>
      <trkpt lat="40.8074780" lon="0.1510120">
        <ele>844.3</ele>
      </trkpt>
      <trkpt lat="40.8074930" lon="0.1510530">
        <ele>844.7</ele>
      </trkpt>
      <trkpt lat="40.8075040" lon="0.1510920">
        <ele>845.5</ele>
      </trkpt>
      <trkpt lat="40.8075180" lon="0.1511350">
        <ele>846.4</ele>
      </trkpt>
      <trkpt lat="40.8075200" lon="0.1511720">
        <ele>846.7</ele>
      </trkpt>
      <trkpt lat="40.8075120" lon="0.1512080">
        <ele>846.9</ele>
      </trkpt>
      <trkpt lat="40.8075060" lon="0.1512550">
        <ele>847.5</ele>
      </trkpt>
      <trkpt lat="40.8074930" lon="0.1513000">
        <ele>847.7</ele>
      </trkpt>
      <trkpt lat="40.8074770" lon="0.1513360">
        <ele>847.8</ele>
      </trkpt>
      <trkpt lat="40.8074640" lon="0.1513690">
        <ele>847.8</ele>
      </trkpt>
      <trkpt lat="40.8074320" lon="0.1513790">
        <ele>847.8</ele>
      </trkpt>
      <trkpt lat="40.8074050" lon="0.1513730">
        <ele>847.7</ele>
      </trkpt>
      <trkpt lat="40.8073770" lon="0.1513640">
        <ele>847.7</ele>
      </trkpt>
      <trkpt lat="40.8073620" lon="0.1514040">
        <ele>847.6</ele>
      </trkpt>
      <trkpt lat="40.8073360" lon="0.1514600">
        <ele>847.5</ele>
      </trkpt>
      <trkpt lat="40.8073220" lon="0.1515040">
        <ele>847.3</ele>
      </trkpt>
      <trkpt lat="40.8073120" lon="0.1515630">
        <ele>847.2</ele>
      </trkpt>
      <trkpt lat="40.8073040" lon="0.1516320">
        <ele>846.8</ele>
      </trkpt>
      <trkpt lat="40.8072990" lon="0.1517100">
        <ele>846.3</ele>
      </trkpt>
      <trkpt lat="40.8072980" lon="0.1517920">
        <ele>845.6</ele>
      </trkpt>
      <trkpt lat="40.8073010" lon="0.1518730">
        <ele>845.2</ele>
      </trkpt>
      <trkpt lat="40.8073050" lon="0.1519540">
        <ele>844.9</ele>
      </trkpt>
      <trkpt lat="40.8073060" lon="0.1520350">
        <ele>844.6</ele>
      </trkpt>
      <trkpt lat="40.8073030" lon="0.1521110">
        <ele>844.2</ele>
      </trkpt>
      <trkpt lat="40.8072930" lon="0.1521810">
        <ele>843.5</ele>
      </trkpt>
      <trkpt lat="40.8072870" lon="0.1522490">
        <ele>843.0</ele>
      </trkpt>
      <trkpt lat="40.8073100" lon="0.1523080">
        <ele>842.7</ele>
      </trkpt>
      <trkpt lat="40.8073190" lon="0.1523660">
        <ele>842.4</ele>
      </trkpt>
      <trkpt lat="40.8073160" lon="0.1524210">
        <ele>842.2</ele>
      </trkpt>
      <trkpt lat="40.8073090" lon="0.1524960">
        <ele>841.9</ele>
      </trkpt>
      <trkpt lat="40.8072900" lon="0.1525580">
        <ele>841.3</ele>
      </trkpt>
      <trkpt lat="40.8072680" lon="0.1526240">
        <ele>840.7</ele>
      </trkpt>
      <trkpt lat="40.8072370" lon="0.1526890">
        <ele>840.1</ele>
      </trkpt>
      <trkpt lat="40.8072010" lon="0.1527450">
        <ele>839.6</ele>
      </trkpt>
      <trkpt lat="40.8071600" lon="0.1528030">
        <ele>838.6</ele>
      </trkpt>
      <trkpt lat="40.8071370" lon="0.1528570">
        <ele>838.1</ele>
      </trkpt>
      <trkpt lat="40.8071470" lon="0.1528990">
        <ele>837.9</ele>
      </trkpt>
      <trkpt lat="40.8071410" lon="0.1529420">
        <ele>837.8</ele>
      </trkpt>
      <trkpt lat="40.8071230" lon="0.1529940">
        <ele>837.7</ele>
      </trkpt>
      <trkpt lat="40.8070960" lon="0.1530530">
        <ele>837.6</ele>
      </trkpt>
      <trkpt lat="40.8070820" lon="0.1530870">
        <ele>837.6</ele>
      </trkpt>
      <trkpt lat="40.8070680" lon="0.1531210">
        <ele>837.6</ele>
      </trkpt>
      <trkpt lat="40.8070520" lon="0.1531770">
        <ele>837.6</ele>
      </trkpt>
      <trkpt lat="40.8070340" lon="0.1532400">
        <ele>837.5</ele>
      </trkpt>
      <trkpt lat="40.8070250" lon="0.1532740">
        <ele>837.5</ele>
      </trkpt>
      <trkpt lat="40.8070150" lon="0.1533120">
        <ele>837.5</ele>
      </trkpt>
      <trkpt lat="40.8070040" lon="0.1533550">
        <ele>837.5</ele>
      </trkpt>
      <trkpt lat="40.8069960" lon="0.1533990">
        <ele>837.5</ele>
      </trkpt>
      <trkpt lat="40.8069890" lon="0.1534450">
        <ele>837.4</ele>
      </trkpt>
      <trkpt lat="40.8069780" lon="0.1534910">
        <ele>837.4</ele>
      </trkpt>
      <trkpt lat="40.8069610" lon="0.1535310">
        <ele>837.4</ele>
      </trkpt>
      <trkpt lat="40.8069360" lon="0.1535650">
        <ele>837.4</ele>
      </trkpt>
      <trkpt lat="40.8069070" lon="0.1535920">
        <ele>837.4</ele>
      </trkpt>
      <trkpt lat="40.8068740" lon="0.1536120">
        <ele>837.3</ele>
      </trkpt>
      <trkpt lat="40.8068380" lon="0.1536290">
        <ele>837.3</ele>
      </trkpt>
      <trkpt lat="40.8067730" lon="0.1536680">
        <ele>837.1</ele>
      </trkpt>
      <trkpt lat="40.8067350" lon="0.1537100">
        <ele>836.9</ele>
      </trkpt>
      <trkpt lat="40.8066860" lon="0.1537570">
        <ele>836.7</ele>
      </trkpt>
      <trkpt lat="40.8066430" lon="0.1538230">
        <ele>836.0</ele>
      </trkpt>
      <trkpt lat="40.8066050" lon="0.1538950">
        <ele>835.2</ele>
      </trkpt>
      <trkpt lat="40.8065540" lon="0.1539860">
        <ele>834.7</ele>
      </trkpt>
      <trkpt lat="40.8065480" lon="0.1540650">
        <ele>834.4</ele>
      </trkpt>
      <trkpt lat="40.8065180" lon="0.1541390">
        <ele>833.5</ele>
      </trkpt>
      <trkpt lat="40.8064980" lon="0.1542330">
        <ele>833.1</ele>
      </trkpt>
      <trkpt lat="40.8064680" lon="0.1543000">
        <ele>832.9</ele>
      </trkpt>
      <trkpt lat="40.8064490" lon="0.1543820">
        <ele>832.8</ele>
      </trkpt>
      <trkpt lat="40.8064090" lon="0.1544460">
        <ele>832.8</ele>
      </trkpt>
      <trkpt lat="40.8063670" lon="0.1545160">
        <ele>832.7</ele>
      </trkpt>
      <trkpt lat="40.8063430" lon="0.1545440">
        <ele>832.7</ele>
      </trkpt>
      <trkpt lat="40.8062970" lon="0.1545840">
        <ele>832.7</ele>
      </trkpt>
      <trkpt lat="40.8062630" lon="0.1546100">
        <ele>832.6</ele>
      </trkpt>
      <trkpt lat="40.8062350" lon="0.1546570">
        <ele>832.6</ele>
      </trkpt>
      <trkpt lat="40.8061990" lon="0.1546970">
        <ele>832.6</ele>
      </trkpt>
      <trkpt lat="40.8061640" lon="0.1547380">
        <ele>832.6</ele>
      </trkpt>
      <trkpt lat="40.8061160" lon="0.1547770">
        <ele>832.6</ele>
      </trkpt>
      <trkpt lat="40.8060810" lon="0.1548070">
        <ele>832.6</ele>
      </trkpt>
      <trkpt lat="40.8060480" lon="0.1548410">
        <ele>832.6</ele>
      </trkpt>
      <trkpt lat="40.8060130" lon="0.1548820">
        <ele>832.6</ele>
      </trkpt>
      <trkpt lat="40.8059910" lon="0.1549150">
        <ele>832.6</ele>
      </trkpt>
      <trkpt lat="40.8059630" lon="0.1549380">
        <ele>832.5</ele>
      </trkpt>
      <trkpt lat="40.8059330" lon="0.1549730">
        <ele>832.5</ele>
      </trkpt>
      <trkpt lat="40.8059020" lon="0.1550050">
        <ele>832.5</ele>
      </trkpt>
      <trkpt lat="40.8058810" lon="0.1550380">
        <ele>832.5</ele>
      </trkpt>
      <trkpt lat="40.8058510" lon="0.1550640">
        <ele>832.5</ele>
      </trkpt>
      <trkpt lat="40.8058100" lon="0.1550990">
        <ele>832.5</ele>
      </trkpt>
      <trkpt lat="40.8057760" lon="0.1551320">
        <ele>832.5</ele>
      </trkpt>
      <trkpt lat="40.8057360" lon="0.1551600">
        <ele>832.5</ele>
      </trkpt>
      <trkpt lat="40.8057060" lon="0.1551960">
        <ele>832.4</ele>
      </trkpt>
      <trkpt lat="40.8056800" lon="0.1552330">
        <ele>832.4</ele>
      </trkpt>
      <trkpt lat="40.8056480" lon="0.1552700">
        <ele>832.4</ele>
      </trkpt>
      <trkpt lat="40.8056140" lon="0.1553060">
        <ele>832.4</ele>
      </trkpt>
      <trkpt lat="40.8055800" lon="0.1553420">
        <ele>832.4</ele>
      </trkpt>
      <trkpt lat="40.8055470" lon="0.1553790">
        <ele>832.4</ele>
      </trkpt>
      <trkpt lat="40.8055140" lon="0.1554160">
        <ele>832.4</ele>
      </trkpt>
      <trkpt lat="40.8054830" lon="0.1554540">
        <ele>832.4</ele>
      </trkpt>
      <trkpt lat="40.8054550" lon="0.1554910">
        <ele>832.3</ele>
      </trkpt>
      <trkpt lat="40.8054290" lon="0.1555270">
        <ele>832.3</ele>
      </trkpt>
      <trkpt lat="40.8054040" lon="0.1555630">
        <ele>832.3</ele>
      </trkpt>
      <trkpt lat="40.8053810" lon="0.1555990">
        <ele>832.3</ele>
      </trkpt>
      <trkpt lat="40.8053610" lon="0.1556340">
        <ele>832.3</ele>
      </trkpt>
      <trkpt lat="40.8053440" lon="0.1556700">
        <ele>832.3</ele>
      </trkpt>
      <trkpt lat="40.8053290" lon="0.1557060">
        <ele>832.3</ele>
      </trkpt>
      <trkpt lat="40.8053160" lon="0.1557450">
        <ele>832.3</ele>
      </trkpt>
      <trkpt lat="40.8053070" lon="0.1557870">
        <ele>832.3</ele>
      </trkpt>
      <trkpt lat="40.8053010" lon="0.1558310">
        <ele>832.3</ele>
      </trkpt>
      <trkpt lat="40.8052970" lon="0.1558740">
        <ele>832.2</ele>
      </trkpt>
      <trkpt lat="40.8052930" lon="0.1559160">
        <ele>832.2</ele>
      </trkpt>
      <trkpt lat="40.8052900" lon="0.1559560">
        <ele>832.2</ele>
      </trkpt>
      <trkpt lat="40.8052900" lon="0.1559970">
        <ele>832.2</ele>
      </trkpt>
      <trkpt lat="40.8052950" lon="0.1560390">
        <ele>832.2</ele>
      </trkpt>
      <trkpt lat="40.8053070" lon="0.1560870">
        <ele>832.2</ele>
      </trkpt>
      <trkpt lat="40.8053250" lon="0.1561370">
        <ele>832.2</ele>
      </trkpt>
      <trkpt lat="40.8053460" lon="0.1561820">
        <ele>832.2</ele>
      </trkpt>
      <trkpt lat="40.8053690" lon="0.1562210">
        <ele>832.1</ele>
      </trkpt>
      <trkpt lat="40.8053940" lon="0.1562600">
        <ele>832.1</ele>
      </trkpt>
      <trkpt lat="40.8054190" lon="0.1562970">
        <ele>832.1</ele>
      </trkpt>
      <trkpt lat="40.8054440" lon="0.1563350">
        <ele>832.1</ele>
      </trkpt>
      <trkpt lat="40.8054690" lon="0.1563740">
        <ele>832.1</ele>
      </trkpt>
      <trkpt lat="40.8054910" lon="0.1564130">
        <ele>832.1</ele>
      </trkpt>
      <trkpt lat="40.8055070" lon="0.1564480">
        <ele>832.0</ele>
      </trkpt>
      <trkpt lat="40.8055210" lon="0.1564820">
        <ele>832.0</ele>
      </trkpt>
      <trkpt lat="40.8055430" lon="0.1565300">
        <ele>832.0</ele>
      </trkpt>
      <trkpt lat="40.8055690" lon="0.1565740">
        <ele>831.9</ele>
      </trkpt>
      <trkpt lat="40.8055870" lon="0.1566090">
        <ele>831.9</ele>
      </trkpt>
      <trkpt lat="40.8056010" lon="0.1566600">
        <ele>831.8</ele>
      </trkpt>
      <trkpt lat="40.8056040" lon="0.1567100">
        <ele>831.7</ele>
      </trkpt>
      <trkpt lat="40.8056250" lon="0.1567680">
        <ele>831.7</ele>
      </trkpt>
      <trkpt lat="40.8056530" lon="0.1568090">
        <ele>831.6</ele>
      </trkpt>
      <trkpt lat="40.8056780" lon="0.1568460">
        <ele>831.6</ele>
      </trkpt>
      <trkpt lat="40.8056990" lon="0.1568720">
        <ele>831.6</ele>
      </trkpt>
      <trkpt lat="40.8057370" lon="0.1568960">
        <ele>831.7</ele>
      </trkpt>
      <trkpt lat="40.8057790" lon="0.1569270">
        <ele>831.9</ele>
      </trkpt>
      <trkpt lat="40.8058060" lon="0.1569640">
        <ele>831.9</ele>
      </trkpt>
      <trkpt lat="40.8058360" lon="0.1570130">
        <ele>832.0</ele>
      </trkpt>
      <trkpt lat="40.8058630" lon="0.1570750">
        <ele>832.0</ele>
      </trkpt>
      <trkpt lat="40.8058800" lon="0.1571350">
        <ele>832.0</ele>
      </trkpt>
      <trkpt lat="40.8058860" lon="0.1572070">
        <ele>832.0</ele>
      </trkpt>
      <trkpt lat="40.8058850" lon="0.1572760">
        <ele>832.0</ele>
      </trkpt>
      <trkpt lat="40.8058750" lon="0.1573410">
        <ele>832.1</ele>
      </trkpt>
      <trkpt lat="40.8058620" lon="0.1574010">
        <ele>832.1</ele>
      </trkpt>
      <trkpt lat="40.8058480" lon="0.1574590">
        <ele>832.2</ele>
      </trkpt>
      <trkpt lat="40.8058340" lon="0.1575250">
        <ele>832.3</ele>
      </trkpt>
      <trkpt lat="40.8058220" lon="0.1575880">
        <ele>832.3</ele>
      </trkpt>
      <trkpt lat="40.8058080" lon="0.1576520">
        <ele>832.3</ele>
      </trkpt>
      <trkpt lat="40.8057980" lon="0.1576900">
        <ele>832.3</ele>
      </trkpt>
      <trkpt lat="40.8057870" lon="0.1577300">
        <ele>832.3</ele>
      </trkpt>
      <trkpt lat="40.8057730" lon="0.1577690">
        <ele>832.2</ele>
      </trkpt>
      <trkpt lat="40.8057560" lon="0.1578090">
        <ele>832.2</ele>
      </trkpt>
      <trkpt lat="40.8057350" lon="0.1578510">
        <ele>832.2</ele>
      </trkpt>
      <trkpt lat="40.8057110" lon="0.1578920">
        <ele>832.1</ele>
      </trkpt>
      <trkpt lat="40.8056830" lon="0.1579330">
        <ele>832.1</ele>
      </trkpt>
      <trkpt lat="40.8056510" lon="0.1579740">
        <ele>832.1</ele>
      </trkpt>
      <trkpt lat="40.8056170" lon="0.1580160">
        <ele>832.0</ele>
      </trkpt>
      <trkpt lat="40.8055820" lon="0.1580580">
        <ele>831.8</ele>
      </trkpt>
      <trkpt lat="40.8055460" lon="0.1581030">
        <ele>831.6</ele>
      </trkpt>
      <trkpt lat="40.8055090" lon="0.1581600">
        <ele>831.4</ele>
      </trkpt>
      <trkpt lat="40.8054720" lon="0.1582100">
        <ele>831.3</ele>
      </trkpt>
      <trkpt lat="40.8054530" lon="0.1582650">
        <ele>831.3</ele>
      </trkpt>
      <trkpt lat="40.8054200" lon="0.1583080">
        <ele>831.3</ele>
      </trkpt>
      <trkpt lat="40.8053840" lon="0.1583370">
        <ele>831.2</ele>
      </trkpt>
      <trkpt lat="40.8053480" lon="0.1583690">
        <ele>831.3</ele>
      </trkpt>
      <trkpt lat="40.8053190" lon="0.1584090">
        <ele>831.3</ele>
      </trkpt>
      <trkpt lat="40.8052990" lon="0.1584500">
        <ele>831.3</ele>
      </trkpt>
      <trkpt lat="40.8052780" lon="0.1584850">
        <ele>831.5</ele>
      </trkpt>
      <trkpt lat="40.8052700" lon="0.1585260">
        <ele>831.7</ele>
      </trkpt>
      <trkpt lat="40.8052490" lon="0.1585590">
        <ele>832.1</ele>
      </trkpt>
      <trkpt lat="40.8052240" lon="0.1585790">
        <ele>832.6</ele>
      </trkpt>
      <trkpt lat="40.8051970" lon="0.1585940">
        <ele>833.2</ele>
      </trkpt>
      <trkpt lat="40.8051520" lon="0.1586220">
        <ele>834.2</ele>
      </trkpt>
      <trkpt lat="40.8051100" lon="0.1586400">
        <ele>835.2</ele>
      </trkpt>
      <trkpt lat="40.8050730" lon="0.1586700">
        <ele>836.4</ele>
      </trkpt>
      <trkpt lat="40.8050270" lon="0.1587010">
        <ele>838.0</ele>
      </trkpt>
      <trkpt lat="40.8049830" lon="0.1587330">
        <ele>838.9</ele>
      </trkpt>
      <trkpt lat="40.8049520" lon="0.1587590">
        <ele>840.1</ele>
      </trkpt>
      <trkpt lat="40.8049190" lon="0.1587840">
        <ele>840.5</ele>
      </trkpt>
      <trkpt lat="40.8048910" lon="0.1588090">
        <ele>840.9</ele>
      </trkpt>
      <trkpt lat="40.8048670" lon="0.1588360">
        <ele>841.4</ele>
      </trkpt>
      <trkpt lat="40.8048390" lon="0.1588610">
        <ele>842.4</ele>
      </trkpt>
      <trkpt lat="40.8048130" lon="0.1588800">
        <ele>842.9</ele>
      </trkpt>
      <trkpt lat="40.8047780" lon="0.1589060">
        <ele>843.3</ele>
      </trkpt>
      <trkpt lat="40.8047540" lon="0.1589240">
        <ele>844.0</ele>
      </trkpt>
      <trkpt lat="40.8047270" lon="0.1589390">
        <ele>844.8</ele>
      </trkpt>
      <trkpt lat="40.8046970" lon="0.1589550">
        <ele>845.3</ele>
      </trkpt>
      <trkpt lat="40.8046710" lon="0.1589820">
        <ele>845.6</ele>
      </trkpt>
      <trkpt lat="40.8046420" lon="0.1590040">
        <ele>846.1</ele>
      </trkpt>
      <trkpt lat="40.8046100" lon="0.1590260">
        <ele>847.4</ele>
      </trkpt>
      <trkpt lat="40.8045860" lon="0.1590440">
        <ele>847.9</ele>
      </trkpt>
      <trkpt lat="40.8045550" lon="0.1590650">
        <ele>848.3</ele>
      </trkpt>
      <trkpt lat="40.8045310" lon="0.1590930">
        <ele>849.0</ele>
      </trkpt>
      <trkpt lat="40.8045060" lon="0.1591230">
        <ele>849.8</ele>
      </trkpt>
      <trkpt lat="40.8044780" lon="0.1591440">
        <ele>850.3</ele>
      </trkpt>
      <trkpt lat="40.8044550" lon="0.1591750">
        <ele>850.7</ele>
      </trkpt>
      <trkpt lat="40.8044290" lon="0.1591990">
        <ele>851.4</ele>
      </trkpt>
      <trkpt lat="40.8044080" lon="0.1592390">
        <ele>852.0</ele>
      </trkpt>
      <trkpt lat="40.8043830" lon="0.1592650">
        <ele>852.3</ele>
      </trkpt>
      <trkpt lat="40.8043470" lon="0.1592810">
        <ele>852.8</ele>
      </trkpt>
      <trkpt lat="40.8043200" lon="0.1592930">
        <ele>853.4</ele>
      </trkpt>
      <trkpt lat="40.8042830" lon="0.1593030">
        <ele>854.3</ele>
      </trkpt>
      <trkpt lat="40.8042470" lon="0.1593050">
        <ele>855.0</ele>
      </trkpt>
      <trkpt lat="40.8042140" lon="0.1593190">
        <ele>855.8</ele>
      </trkpt>
      <trkpt lat="40.8041820" lon="0.1593390">
        <ele>856.8</ele>
      </trkpt>
      <trkpt lat="40.8041560" lon="0.1593520">
        <ele>857.2</ele>
      </trkpt>
      <trkpt lat="40.8041260" lon="0.1593780">
        <ele>857.6</ele>
      </trkpt>
      <trkpt lat="40.8040940" lon="0.1594020">
        <ele>858.2</ele>
      </trkpt>
      <trkpt lat="40.8040620" lon="0.1594330">
        <ele>859.0</ele>
      </trkpt>
      <trkpt lat="40.8040270" lon="0.1594560">
        <ele>859.7</ele>
      </trkpt>
      <trkpt lat="40.8040000" lon="0.1594680">
        <ele>860.1</ele>
      </trkpt>
      <trkpt lat="40.8039730" lon="0.1594760">
        <ele>860.5</ele>
      </trkpt>
      <trkpt lat="40.8039410" lon="0.1594940">
        <ele>861.1</ele>
      </trkpt>
      <trkpt lat="40.8039110" lon="0.1595100">
        <ele>861.8</ele>
      </trkpt>
      <trkpt lat="40.8038830" lon="0.1595210">
        <ele>862.1</ele>
      </trkpt>
      <trkpt lat="40.8038480" lon="0.1595340">
        <ele>862.3</ele>
      </trkpt>
      <trkpt lat="40.8038150" lon="0.1595480">
        <ele>862.5</ele>
      </trkpt>
      <trkpt lat="40.8037800" lon="0.1595710">
        <ele>862.7</ele>
      </trkpt>
      <trkpt lat="40.8037420" lon="0.1596000">
        <ele>863.3</ele>
      </trkpt>
      <trkpt lat="40.8037120" lon="0.1596340">
        <ele>863.9</ele>
      </trkpt>
      <trkpt lat="40.8036850" lon="0.1596610">
        <ele>864.5</ele>
      </trkpt>
      <trkpt lat="40.8036620" lon="0.1596860">
        <ele>865.0</ele>
      </trkpt>
      <trkpt lat="40.8036400" lon="0.1597180">
        <ele>865.3</ele>
      </trkpt>
      <trkpt lat="40.8036120" lon="0.1597420">
        <ele>865.5</ele>
      </trkpt>
      <trkpt lat="40.8035760" lon="0.1597580">
        <ele>866.1</ele>
      </trkpt>
      <trkpt lat="40.8035460" lon="0.1597730">
        <ele>866.7</ele>
      </trkpt>
      <trkpt lat="40.8035200" lon="0.1597970">
        <ele>866.9</ele>
      </trkpt>
      <trkpt lat="40.8034890" lon="0.1598220">
        <ele>867.0</ele>
      </trkpt>
      <trkpt lat="40.8034560" lon="0.1598460">
        <ele>867.1</ele>
      </trkpt>
      <trkpt lat="40.8034260" lon="0.1598680">
        <ele>867.2</ele>
      </trkpt>
      <trkpt lat="40.8033920" lon="0.1598940">
        <ele>867.3</ele>
      </trkpt>
      <trkpt lat="40.8033570" lon="0.1599200">
        <ele>867.3</ele>
      </trkpt>
      <trkpt lat="40.8033230" lon="0.1599480">
        <ele>867.4</ele>
      </trkpt>
      <trkpt lat="40.8032890" lon="0.1599780">
        <ele>867.4</ele>
      </trkpt>
      <trkpt lat="40.8032560" lon="0.1600120">
        <ele>867.5</ele>
      </trkpt>
      <trkpt lat="40.8032200" lon="0.1600590">
        <ele>867.5</ele>
      </trkpt>
      <trkpt lat="40.8031800" lon="0.1601030">
        <ele>867.5</ele>
      </trkpt>
      <trkpt lat="40.8031550" lon="0.1601240">
        <ele>867.6</ele>
      </trkpt>
      <trkpt lat="40.8031280" lon="0.1601470">
        <ele>867.6</ele>
      </trkpt>
      <trkpt lat="40.8031020" lon="0.1601710">
        <ele>867.6</ele>
      </trkpt>
      <trkpt lat="40.8030750" lon="0.1601980">
        <ele>867.6</ele>
      </trkpt>
      <trkpt lat="40.8030490" lon="0.1602270">
        <ele>867.6</ele>
      </trkpt>
      <trkpt lat="40.8030260" lon="0.1602560">
        <ele>867.6</ele>
      </trkpt>
      <trkpt lat="40.8030070" lon="0.1602850">
        <ele>867.6</ele>
      </trkpt>
      <trkpt lat="40.8029910" lon="0.1603140">
        <ele>867.6</ele>
      </trkpt>
      <trkpt lat="40.8029740" lon="0.1603440">
        <ele>867.6</ele>
      </trkpt>
      <trkpt lat="40.8029450" lon="0.1604000">
        <ele>867.6</ele>
      </trkpt>
      <trkpt lat="40.8029060" lon="0.1604490">
        <ele>867.7</ele>
      </trkpt>
      <trkpt lat="40.8028830" lon="0.1604730">
        <ele>867.7</ele>
      </trkpt>
      <trkpt lat="40.8028590" lon="0.1604980">
        <ele>867.7</ele>
      </trkpt>
      <trkpt lat="40.8028350" lon="0.1605240">
        <ele>867.7</ele>
      </trkpt>
      <trkpt lat="40.8028120" lon="0.1605500">
        <ele>867.7</ele>
      </trkpt>
      <trkpt lat="40.8027900" lon="0.1605770">
        <ele>867.7</ele>
      </trkpt>
      <trkpt lat="40.8027660" lon="0.1606050">
        <ele>867.7</ele>
      </trkpt>
      <trkpt lat="40.8027410" lon="0.1606310">
        <ele>867.7</ele>
      </trkpt>
      <trkpt lat="40.8027120" lon="0.1606540">
        <ele>867.7</ele>
      </trkpt>
      <trkpt lat="40.8026820" lon="0.1606810">
        <ele>867.7</ele>
      </trkpt>
      <trkpt lat="40.8026510" lon="0.1607080">
        <ele>867.7</ele>
      </trkpt>
      <trkpt lat="40.8026220" lon="0.1607350">
        <ele>867.7</ele>
      </trkpt>
      <trkpt lat="40.8025910" lon="0.1607620">
        <ele>867.7</ele>
      </trkpt>
      <trkpt lat="40.8025640" lon="0.1607880">
        <ele>867.7</ele>
      </trkpt>
      <trkpt lat="40.8025390" lon="0.1608130">
        <ele>867.8</ele>
      </trkpt>
      <trkpt lat="40.8025160" lon="0.1608400">
        <ele>867.8</ele>
      </trkpt>
      <trkpt lat="40.8024950" lon="0.1608670">
        <ele>867.8</ele>
      </trkpt>
      <trkpt lat="40.8024730" lon="0.1608930">
        <ele>867.8</ele>
      </trkpt>
      <trkpt lat="40.8024520" lon="0.1609200">
        <ele>867.8</ele>
      </trkpt>
      <trkpt lat="40.8024290" lon="0.1609490">
        <ele>867.8</ele>
      </trkpt>
      <trkpt lat="40.8024060" lon="0.1609790">
        <ele>867.8</ele>
      </trkpt>
      <trkpt lat="40.8023840" lon="0.1610100">
        <ele>867.8</ele>
      </trkpt>
      <trkpt lat="40.8023630" lon="0.1610390">
        <ele>867.8</ele>
      </trkpt>
      <trkpt lat="40.8023440" lon="0.1610670">
        <ele>867.8</ele>
      </trkpt>
      <trkpt lat="40.8023240" lon="0.1610970">
        <ele>867.8</ele>
      </trkpt>
      <trkpt lat="40.8023030" lon="0.1611250">
        <ele>867.8</ele>
      </trkpt>
      <trkpt lat="40.8022810" lon="0.1611520">
        <ele>867.8</ele>
      </trkpt>
      <trkpt lat="40.8022570" lon="0.1611770">
        <ele>867.8</ele>
      </trkpt>
      <trkpt lat="40.8022320" lon="0.1611980">
        <ele>867.8</ele>
      </trkpt>
      <trkpt lat="40.8022050" lon="0.1612160">
        <ele>867.8</ele>
      </trkpt>
      <trkpt lat="40.8021760" lon="0.1612300">
        <ele>867.9</ele>
      </trkpt>
      <trkpt lat="40.8021470" lon="0.1612420">
        <ele>867.9</ele>
      </trkpt>
      <trkpt lat="40.8021180" lon="0.1612530">
        <ele>867.9</ele>
      </trkpt>
      <trkpt lat="40.8020880" lon="0.1612630">
        <ele>867.9</ele>
      </trkpt>
      <trkpt lat="40.8020580" lon="0.1612740">
        <ele>867.9</ele>
      </trkpt>
      <trkpt lat="40.8020290" lon="0.1612840">
        <ele>867.9</ele>
      </trkpt>
      <trkpt lat="40.8020030" lon="0.1612970">
        <ele>867.9</ele>
      </trkpt>
      <trkpt lat="40.8019570" lon="0.1613380">
        <ele>867.9</ele>
      </trkpt>
      <trkpt lat="40.8019360" lon="0.1613650">
        <ele>867.9</ele>
      </trkpt>
      <trkpt lat="40.8019130" lon="0.1613930">
        <ele>867.9</ele>
      </trkpt>
      <trkpt lat="40.8018940" lon="0.1614240">
        <ele>868.0</ele>
      </trkpt>
      <trkpt lat="40.8018750" lon="0.1614550">
        <ele>868.0</ele>
      </trkpt>
      <trkpt lat="40.8018540" lon="0.1614850">
        <ele>868.0</ele>
      </trkpt>
      <trkpt lat="40.8018300" lon="0.1615130">
        <ele>868.0</ele>
      </trkpt>
      <trkpt lat="40.8018050" lon="0.1615350">
        <ele>868.2</ele>
      </trkpt>
      <trkpt lat="40.8017780" lon="0.1615530">
        <ele>868.6</ele>
      </trkpt>
      <trkpt lat="40.8017500" lon="0.1615650">
        <ele>868.9</ele>
      </trkpt>
      <trkpt lat="40.8017230" lon="0.1615720">
        <ele>869.3</ele>
      </trkpt>
      <trkpt lat="40.8016750" lon="0.1615800">
        <ele>869.9</ele>
      </trkpt>
      <trkpt lat="40.8016390" lon="0.1615960">
        <ele>869.9</ele>
      </trkpt>
      <trkpt lat="40.8016170" lon="0.1616180">
        <ele>869.9</ele>
      </trkpt>
      <trkpt lat="40.8015970" lon="0.1616460">
        <ele>869.8</ele>
      </trkpt>
      <trkpt lat="40.8015770" lon="0.1617050">
        <ele>869.7</ele>
      </trkpt>
      <trkpt lat="40.8015650" lon="0.1617480">
        <ele>869.6</ele>
      </trkpt>
      <trkpt lat="40.8015440" lon="0.1618020">
        <ele>869.5</ele>
      </trkpt>
      <trkpt lat="40.8015130" lon="0.1618580">
        <ele>869.4</ele>
      </trkpt>
      <trkpt lat="40.8014770" lon="0.1619090">
        <ele>869.2</ele>
      </trkpt>
      <trkpt lat="40.8014360" lon="0.1619570">
        <ele>869.1</ele>
      </trkpt>
      <trkpt lat="40.8013930" lon="0.1620050">
        <ele>868.8</ele>
      </trkpt>
      <trkpt lat="40.8013480" lon="0.1620530">
        <ele>868.4</ele>
      </trkpt>
      <trkpt lat="40.8013040" lon="0.1621070">
        <ele>868.0</ele>
      </trkpt>
      <trkpt lat="40.8012660" lon="0.1621630">
        <ele>867.6</ele>
      </trkpt>
      <trkpt lat="40.8012310" lon="0.1622160">
        <ele>867.4</ele>
      </trkpt>
      <trkpt lat="40.8011910" lon="0.1622570">
        <ele>867.3</ele>
      </trkpt>
      <trkpt lat="40.8011410" lon="0.1623030">
        <ele>867.1</ele>
      </trkpt>
      <trkpt lat="40.8011370" lon="0.1623580">
        <ele>867.0</ele>
      </trkpt>
      <trkpt lat="40.8011140" lon="0.1623990">
        <ele>866.9</ele>
      </trkpt>
      <trkpt lat="40.8010950" lon="0.1624360">
        <ele>866.9</ele>
      </trkpt>
      <trkpt lat="40.8010730" lon="0.1624800">
        <ele>866.8</ele>
      </trkpt>
      <trkpt lat="40.8010560" lon="0.1625390">
        <ele>866.7</ele>
      </trkpt>
      <trkpt lat="40.8010040" lon="0.1625900">
        <ele>866.5</ele>
      </trkpt>
      <trkpt lat="40.8009970" lon="0.1626450">
        <ele>866.4</ele>
      </trkpt>
      <trkpt lat="40.8009850" lon="0.1627230">
        <ele>866.3</ele>
      </trkpt>
      <trkpt lat="40.8009730" lon="0.1627950">
        <ele>866.1</ele>
      </trkpt>
      <trkpt lat="40.8009670" lon="0.1628750">
        <ele>865.7</ele>
      </trkpt>
      <trkpt lat="40.8009710" lon="0.1629730">
        <ele>864.9</ele>
      </trkpt>
      <trkpt lat="40.8009540" lon="0.1630570">
        <ele>863.9</ele>
      </trkpt>
      <trkpt lat="40.8009740" lon="0.1631520">
        <ele>863.3</ele>
      </trkpt>
      <trkpt lat="40.8009700" lon="0.1632630">
        <ele>862.3</ele>
      </trkpt>
      <trkpt lat="40.8009640" lon="0.1633660">
        <ele>860.8</ele>
      </trkpt>
      <trkpt lat="40.8009840" lon="0.1634940">
        <ele>858.9</ele>
      </trkpt>
      <trkpt lat="40.8010210" lon="0.1636080">
        <ele>857.2</ele>
      </trkpt>
      <trkpt lat="40.8010500" lon="0.1636480">
        <ele>856.3</ele>
      </trkpt>
      <trkpt lat="40.8010400" lon="0.1637050">
        <ele>855.4</ele>
      </trkpt>
      <trkpt lat="40.8010380" lon="0.1637410">
        <ele>855.0</ele>
      </trkpt>
      <trkpt lat="40.8009870" lon="0.1637590">
        <ele>854.5</ele>
      </trkpt>
      <trkpt lat="40.8009530" lon="0.1637660">
        <ele>854.3</ele>
      </trkpt>
      <trkpt lat="40.8009030" lon="0.1637760">
        <ele>853.9</ele>
      </trkpt>
      <trkpt lat="40.8008550" lon="0.1637880">
        <ele>853.6</ele>
      </trkpt>
      <trkpt lat="40.8008080" lon="0.1638200">
        <ele>853.0</ele>
      </trkpt>
      <trkpt lat="40.8007600" lon="0.1638440">
        <ele>852.4</ele>
      </trkpt>
      <trkpt lat="40.8006930" lon="0.1638570">
        <ele>851.8</ele>
      </trkpt>
      <trkpt lat="40.8006350" lon="0.1638760">
        <ele>851.4</ele>
      </trkpt>
      <trkpt lat="40.8005840" lon="0.1638990">
        <ele>851.0</ele>
      </trkpt>
      <trkpt lat="40.8005320" lon="0.1639330">
        <ele>850.6</ele>
      </trkpt>
      <trkpt lat="40.8004850" lon="0.1639680">
        <ele>850.1</ele>
      </trkpt>
      <trkpt lat="40.8004330" lon="0.1639740">
        <ele>849.5</ele>
      </trkpt>
      <trkpt lat="40.8003760" lon="0.1640060">
        <ele>848.9</ele>
      </trkpt>
      <trkpt lat="40.8003060" lon="0.1640510">
        <ele>848.2</ele>
      </trkpt>
      <trkpt lat="40.8002440" lon="0.1641140">
        <ele>847.7</ele>
      </trkpt>
      <trkpt lat="40.8001940" lon="0.1641700">
        <ele>847.1</ele>
      </trkpt>
      <trkpt lat="40.8001220" lon="0.1642130">
        <ele>846.2</ele>
      </trkpt>
      <trkpt lat="40.8000700" lon="0.1642720">
        <ele>845.4</ele>
      </trkpt>
      <trkpt lat="40.8000190" lon="0.1643250">
        <ele>845.1</ele>
      </trkpt>
      <trkpt lat="40.7999560" lon="0.1643970">
        <ele>844.7</ele>
      </trkpt>
      <trkpt lat="40.7999000" lon="0.1644540">
        <ele>844.2</ele>
      </trkpt>
      <trkpt lat="40.7998320" lon="0.1645280">
        <ele>842.9</ele>
      </trkpt>
      <trkpt lat="40.7997780" lon="0.1646180">
        <ele>842.0</ele>
      </trkpt>
      <trkpt lat="40.7997080" lon="0.1647020">
        <ele>841.0</ele>
      </trkpt>
      <trkpt lat="40.7996410" lon="0.1647870">
        <ele>839.3</ele>
      </trkpt>
      <trkpt lat="40.7995590" lon="0.1648650">
        <ele>837.5</ele>
      </trkpt>
      <trkpt lat="40.7994520" lon="0.1649110">
        <ele>836.1</ele>
      </trkpt>
      <trkpt lat="40.7993600" lon="0.1649820">
        <ele>834.9</ele>
      </trkpt>
      <trkpt lat="40.7992620" lon="0.1650340">
        <ele>833.8</ele>
      </trkpt>
      <trkpt lat="40.7991700" lon="0.1650890">
        <ele>832.9</ele>
      </trkpt>
      <trkpt lat="40.7990870" lon="0.1651440">
        <ele>832.0</ele>
      </trkpt>
      <trkpt lat="40.7990100" lon="0.1651980">
        <ele>831.1</ele>
      </trkpt>
      <trkpt lat="40.7989360" lon="0.1652390">
        <ele>830.5</ele>
      </trkpt>
      <trkpt lat="40.7988670" lon="0.1652720">
        <ele>830.3</ele>
      </trkpt>
      <trkpt lat="40.7988110" lon="0.1653070">
        <ele>830.2</ele>
      </trkpt>
      <trkpt lat="40.7987610" lon="0.1653280">
        <ele>830.1</ele>
      </trkpt>
      <trkpt lat="40.7987160" lon="0.1653440">
        <ele>830.1</ele>
      </trkpt>
      <trkpt lat="40.7986780" lon="0.1653610">
        <ele>830.1</ele>
      </trkpt>
      <trkpt lat="40.7986460" lon="0.1653810">
        <ele>830.0</ele>
      </trkpt>
      <trkpt lat="40.7986090" lon="0.1653980">
        <ele>830.0</ele>
      </trkpt>
      <trkpt lat="40.7985720" lon="0.1654180">
        <ele>830.1</ele>
      </trkpt>
      <trkpt lat="40.7985380" lon="0.1654360">
        <ele>830.3</ele>
      </trkpt>
      <trkpt lat="40.7985070" lon="0.1654490">
        <ele>830.5</ele>
      </trkpt>
      <trkpt lat="40.7984750" lon="0.1654640">
        <ele>830.7</ele>
      </trkpt>
      <trkpt lat="40.7984530" lon="0.1654910">
        <ele>830.9</ele>
      </trkpt>
      <trkpt lat="40.7984090" lon="0.1655230">
        <ele>831.2</ele>
      </trkpt>
      <trkpt lat="40.7983810" lon="0.1655420">
        <ele>831.4</ele>
      </trkpt>
      <trkpt lat="40.7983510" lon="0.1655550">
        <ele>831.6</ele>
      </trkpt>
      <trkpt lat="40.7983270" lon="0.1655750">
        <ele>831.8</ele>
      </trkpt>
      <trkpt lat="40.7983020" lon="0.1655960">
        <ele>831.9</ele>
      </trkpt>
      <trkpt lat="40.7982730" lon="0.1656130">
        <ele>832.1</ele>
      </trkpt>
      <trkpt lat="40.7982430" lon="0.1656310">
        <ele>832.3</ele>
      </trkpt>
      <trkpt lat="40.7982130" lon="0.1656530">
        <ele>832.5</ele>
      </trkpt>
      <trkpt lat="40.7981810" lon="0.1656750">
        <ele>832.7</ele>
      </trkpt>
      <trkpt lat="40.7981480" lon="0.1656990">
        <ele>833.0</ele>
      </trkpt>
      <trkpt lat="40.7981150" lon="0.1657230">
        <ele>833.2</ele>
      </trkpt>
      <trkpt lat="40.7980820" lon="0.1657470">
        <ele>833.5</ele>
      </trkpt>
      <trkpt lat="40.7980510" lon="0.1657710">
        <ele>833.8</ele>
      </trkpt>
      <trkpt lat="40.7980210" lon="0.1657960">
        <ele>834.0</ele>
      </trkpt>
      <trkpt lat="40.7979930" lon="0.1658250">
        <ele>834.3</ele>
      </trkpt>
      <trkpt lat="40.7979680" lon="0.1658570">
        <ele>834.6</ele>
      </trkpt>
      <trkpt lat="40.7979480" lon="0.1658920">
        <ele>834.8</ele>
      </trkpt>
      <trkpt lat="40.7979290" lon="0.1659310">
        <ele>835.1</ele>
      </trkpt>
      <trkpt lat="40.7979100" lon="0.1659710">
        <ele>835.4</ele>
      </trkpt>
      <trkpt lat="40.7978940" lon="0.1660140">
        <ele>835.7</ele>
      </trkpt>
      <trkpt lat="40.7978780" lon="0.1660590">
        <ele>836.0</ele>
      </trkpt>
      <trkpt lat="40.7978620" lon="0.1661080">
        <ele>836.3</ele>
      </trkpt>
      <trkpt lat="40.7978430" lon="0.1661640">
        <ele>836.6</ele>
      </trkpt>
      <trkpt lat="40.7978260" lon="0.1662140">
        <ele>836.9</ele>
      </trkpt>
      <trkpt lat="40.7978060" lon="0.1662580">
        <ele>837.2</ele>
      </trkpt>
      <trkpt lat="40.7977870" lon="0.1663050">
        <ele>837.9</ele>
      </trkpt>
      <trkpt lat="40.7977690" lon="0.1663510">
        <ele>838.4</ele>
      </trkpt>
      <trkpt lat="40.7977500" lon="0.1663940">
        <ele>838.8</ele>
      </trkpt>
      <trkpt lat="40.7977310" lon="0.1664350">
        <ele>839.2</ele>
      </trkpt>
      <trkpt lat="40.7977120" lon="0.1664720">
        <ele>839.5</ele>
      </trkpt>
      <trkpt lat="40.7976930" lon="0.1665110">
        <ele>839.9</ele>
      </trkpt>
      <trkpt lat="40.7976800" lon="0.1665480">
        <ele>840.2</ele>
      </trkpt>
      <trkpt lat="40.7976660" lon="0.1665870">
        <ele>840.6</ele>
      </trkpt>
      <trkpt lat="40.7976490" lon="0.1666270">
        <ele>840.9</ele>
      </trkpt>
      <trkpt lat="40.7976370" lon="0.1666750">
        <ele>841.3</ele>
      </trkpt>
      <trkpt lat="40.7976250" lon="0.1667300">
        <ele>842.0</ele>
      </trkpt>
      <trkpt lat="40.7976120" lon="0.1667910">
        <ele>842.8</ele>
      </trkpt>
      <trkpt lat="40.7975960" lon="0.1668770">
        <ele>843.7</ele>
      </trkpt>
      <trkpt lat="40.7975730" lon="0.1669330">
        <ele>844.3</ele>
      </trkpt>
      <trkpt lat="40.7975460" lon="0.1669790">
        <ele>844.5</ele>
      </trkpt>
      <trkpt lat="40.7975330" lon="0.1670180">
        <ele>844.4</ele>
      </trkpt>
      <trkpt lat="40.7974990" lon="0.1670320">
        <ele>844.3</ele>
      </trkpt>
      <trkpt lat="40.7974670" lon="0.1670710">
        <ele>844.2</ele>
      </trkpt>
      <trkpt lat="40.7974310" lon="0.1671040">
        <ele>844.2</ele>
      </trkpt>
      <trkpt lat="40.7973960" lon="0.1671350">
        <ele>844.2</ele>
      </trkpt>
      <trkpt lat="40.7973530" lon="0.1671580">
        <ele>844.2</ele>
      </trkpt>
      <trkpt lat="40.7973180" lon="0.1671780">
        <ele>844.2</ele>
      </trkpt>
      <trkpt lat="40.7972810" lon="0.1671950">
        <ele>844.4</ele>
      </trkpt>
      <trkpt lat="40.7972470" lon="0.1672070">
        <ele>844.5</ele>
      </trkpt>
      <trkpt lat="40.7972110" lon="0.1672160">
        <ele>844.6</ele>
      </trkpt>
      <trkpt lat="40.7971840" lon="0.1672220">
        <ele>844.7</ele>
      </trkpt>
      <trkpt lat="40.7971560" lon="0.1672260">
        <ele>844.8</ele>
      </trkpt>
      <trkpt lat="40.7971260" lon="0.1672330">
        <ele>844.9</ele>
      </trkpt>
      <trkpt lat="40.7970890" lon="0.1672540">
        <ele>845.1</ele>
      </trkpt>
      <trkpt lat="40.7970630" lon="0.1672640">
        <ele>845.2</ele>
      </trkpt>
      <trkpt lat="40.7970300" lon="0.1672710">
        <ele>845.4</ele>
      </trkpt>
      <trkpt lat="40.7969940" lon="0.1672770">
        <ele>845.5</ele>
      </trkpt>
      <trkpt lat="40.7969570" lon="0.1672830">
        <ele>845.7</ele>
      </trkpt>
      <trkpt lat="40.7969260" lon="0.1672860">
        <ele>845.9</ele>
      </trkpt>
      <trkpt lat="40.7968900" lon="0.1672750">
        <ele>846.2</ele>
      </trkpt>
      <trkpt lat="40.7968460" lon="0.1672580">
        <ele>846.4</ele>
      </trkpt>
      <trkpt lat="40.7968130" lon="0.1672530">
        <ele>846.6</ele>
      </trkpt>
      <trkpt lat="40.7967830" lon="0.1672510">
        <ele>846.8</ele>
      </trkpt>
      <trkpt lat="40.7967500" lon="0.1672520">
        <ele>847.1</ele>
      </trkpt>
      <trkpt lat="40.7967170" lon="0.1672490">
        <ele>847.3</ele>
      </trkpt>
      <trkpt lat="40.7966770" lon="0.1672430">
        <ele>847.6</ele>
      </trkpt>
      <trkpt lat="40.7966380" lon="0.1672390">
        <ele>847.9</ele>
      </trkpt>
      <trkpt lat="40.7966050" lon="0.1672400">
        <ele>848.1</ele>
      </trkpt>
      <trkpt lat="40.7965760" lon="0.1672410">
        <ele>848.3</ele>
      </trkpt>
      <trkpt lat="40.7965460" lon="0.1672380">
        <ele>848.5</ele>
      </trkpt>
      <trkpt lat="40.7965180" lon="0.1672250">
        <ele>848.7</ele>
      </trkpt>
      <trkpt lat="40.7964880" lon="0.1672080">
        <ele>848.9</ele>
      </trkpt>
      <trkpt lat="40.7964530" lon="0.1671960">
        <ele>849.0</ele>
      </trkpt>
      <trkpt lat="40.7964180" lon="0.1671860">
        <ele>849.1</ele>
      </trkpt>
      <trkpt lat="40.7963840" lon="0.1671710">
        <ele>849.3</ele>
      </trkpt>
      <trkpt lat="40.7963490" lon="0.1671640">
        <ele>849.5</ele>
      </trkpt>
      <trkpt lat="40.7963120" lon="0.1671700">
        <ele>849.6</ele>
      </trkpt>
      <trkpt lat="40.7962750" lon="0.1671800">
        <ele>849.8</ele>
      </trkpt>
      <trkpt lat="40.7962430" lon="0.1671900">
        <ele>850.0</ele>
      </trkpt>
      <trkpt lat="40.7962070" lon="0.1672050">
        <ele>850.2</ele>
      </trkpt>
      <trkpt lat="40.7961800" lon="0.1672010">
        <ele>850.3</ele>
      </trkpt>
      <trkpt lat="40.7961490" lon="0.1671980">
        <ele>850.5</ele>
      </trkpt>
      <trkpt lat="40.7961220" lon="0.1672100">
        <ele>850.6</ele>
      </trkpt>
      <trkpt lat="40.7960880" lon="0.1672230">
        <ele>850.8</ele>
      </trkpt>
      <trkpt lat="40.7960550" lon="0.1672250">
        <ele>851.0</ele>
      </trkpt>
      <trkpt lat="40.7960220" lon="0.1672230">
        <ele>851.1</ele>
      </trkpt>
      <trkpt lat="40.7959890" lon="0.1672250">
        <ele>851.3</ele>
      </trkpt>
      <trkpt lat="40.7959530" lon="0.1672220">
        <ele>851.4</ele>
      </trkpt>
      <trkpt lat="40.7959150" lon="0.1672180">
        <ele>851.6</ele>
      </trkpt>
      <trkpt lat="40.7958780" lon="0.1672110">
        <ele>851.8</ele>
      </trkpt>
      <trkpt lat="40.7958400" lon="0.1672030">
        <ele>851.9</ele>
      </trkpt>
      <trkpt lat="40.7958110" lon="0.1671930">
        <ele>852.0</ele>
      </trkpt>
      <trkpt lat="40.7957760" lon="0.1671720">
        <ele>852.2</ele>
      </trkpt>
      <trkpt lat="40.7957330" lon="0.1671590">
        <ele>852.3</ele>
      </trkpt>
      <trkpt lat="40.7956910" lon="0.1671500">
        <ele>852.5</ele>
      </trkpt>
      <trkpt lat="40.7956480" lon="0.1671360">
        <ele>852.6</ele>
      </trkpt>
      <trkpt lat="40.7956110" lon="0.1671090">
        <ele>852.7</ele>
      </trkpt>
      <trkpt lat="40.7955760" lon="0.1670750">
        <ele>852.8</ele>
      </trkpt>
      <trkpt lat="40.7955400" lon="0.1670350">
        <ele>852.9</ele>
      </trkpt>
      <trkpt lat="40.7955080" lon="0.1669850">
        <ele>853.0</ele>
      </trkpt>
      <trkpt lat="40.7954920" lon="0.1669540">
        <ele>853.1</ele>
      </trkpt>
      <trkpt lat="40.7954750" lon="0.1669190">
        <ele>853.2</ele>
      </trkpt>
      <trkpt lat="40.7954590" lon="0.1668830">
        <ele>853.2</ele>
      </trkpt>
      <trkpt lat="40.7954400" lon="0.1668460">
        <ele>853.3</ele>
      </trkpt>
      <trkpt lat="40.7954220" lon="0.1668100">
        <ele>853.4</ele>
      </trkpt>
      <trkpt lat="40.7954040" lon="0.1667760">
        <ele>853.4</ele>
      </trkpt>
      <trkpt lat="40.7953870" lon="0.1667420">
        <ele>853.5</ele>
      </trkpt>
      <trkpt lat="40.7953690" lon="0.1667060">
        <ele>853.6</ele>
      </trkpt>
      <trkpt lat="40.7953520" lon="0.1666710">
        <ele>853.6</ele>
      </trkpt>
      <trkpt lat="40.7953330" lon="0.1666350">
        <ele>853.7</ele>
      </trkpt>
      <trkpt lat="40.7953110" lon="0.1666010">
        <ele>853.8</ele>
      </trkpt>
      <trkpt lat="40.7952870" lon="0.1665690">
        <ele>853.8</ele>
      </trkpt>
      <trkpt lat="40.7952620" lon="0.1665400">
        <ele>853.9</ele>
      </trkpt>
      <trkpt lat="40.7952390" lon="0.1665140">
        <ele>853.8</ele>
      </trkpt>
      <trkpt lat="40.7951960" lon="0.1664760">
        <ele>853.7</ele>
      </trkpt>
      <trkpt lat="40.7951510" lon="0.1664560">
        <ele>853.5</ele>
      </trkpt>
      <trkpt lat="40.7951240" lon="0.1664530">
        <ele>853.4</ele>
      </trkpt>
      <trkpt lat="40.7950970" lon="0.1664570">
        <ele>853.3</ele>
      </trkpt>
      <trkpt lat="40.7950670" lon="0.1664670">
        <ele>853.2</ele>
      </trkpt>
      <trkpt lat="40.7950360" lon="0.1664840">
        <ele>853.0</ele>
      </trkpt>
      <trkpt lat="40.7950050" lon="0.1665120">
        <ele>852.9</ele>
      </trkpt>
      <trkpt lat="40.7949710" lon="0.1665540">
        <ele>852.5</ele>
      </trkpt>
      <trkpt lat="40.7949340" lon="0.1666550">
        <ele>851.8</ele>
      </trkpt>
      <trkpt lat="40.7949120" lon="0.1667120">
        <ele>851.5</ele>
      </trkpt>
      <trkpt lat="40.7948790" lon="0.1667810">
        <ele>851.1</ele>
      </trkpt>
      <trkpt lat="40.7948200" lon="0.1668510">
        <ele>850.6</ele>
      </trkpt>
      <trkpt lat="40.7947810" lon="0.1669120">
        <ele>850.2</ele>
      </trkpt>
      <trkpt lat="40.7947440" lon="0.1669670">
        <ele>849.7</ele>
      </trkpt>
      <trkpt lat="40.7946870" lon="0.1670050">
        <ele>849.1</ele>
      </trkpt>
      <trkpt lat="40.7946220" lon="0.1670330">
        <ele>848.7</ele>
      </trkpt>
      <trkpt lat="40.7945410" lon="0.1670390">
        <ele>848.3</ele>
      </trkpt>
      <trkpt lat="40.7944630" lon="0.1670400">
        <ele>847.9</ele>
      </trkpt>
      <trkpt lat="40.7943830" lon="0.1670350">
        <ele>847.4</ele>
      </trkpt>
      <trkpt lat="40.7943070" lon="0.1670290">
        <ele>847.0</ele>
      </trkpt>
      <trkpt lat="40.7942200" lon="0.1669910">
        <ele>846.3</ele>
      </trkpt>
      <trkpt lat="40.7941320" lon="0.1669550">
        <ele>845.8</ele>
      </trkpt>
      <trkpt lat="40.7940380" lon="0.1669350">
        <ele>845.4</ele>
      </trkpt>
      <trkpt lat="40.7939570" lon="0.1669390">
        <ele>845.0</ele>
      </trkpt>
      <trkpt lat="40.7938850" lon="0.1669640">
        <ele>844.6</ele>
      </trkpt>
      <trkpt lat="40.7938290" lon="0.1670070">
        <ele>844.3</ele>
      </trkpt>
      <trkpt lat="40.7937900" lon="0.1670620">
        <ele>844.0</ele>
      </trkpt>
      <trkpt lat="40.7937560" lon="0.1671180">
        <ele>843.6</ele>
      </trkpt>
      <trkpt lat="40.7937320" lon="0.1671700">
        <ele>843.2</ele>
      </trkpt>
      <trkpt lat="40.7936840" lon="0.1672170">
        <ele>842.8</ele>
      </trkpt>
      <trkpt lat="40.7936150" lon="0.1672670">
        <ele>842.4</ele>
      </trkpt>
      <trkpt lat="40.7935470" lon="0.1672920">
        <ele>842.0</ele>
      </trkpt>
      <trkpt lat="40.7934550" lon="0.1672780">
        <ele>841.5</ele>
      </trkpt>
      <trkpt lat="40.7933660" lon="0.1672970">
        <ele>841.0</ele>
      </trkpt>
      <trkpt lat="40.7932810" lon="0.1673260">
        <ele>840.5</ele>
      </trkpt>
      <trkpt lat="40.7931870" lon="0.1673410">
        <ele>839.7</ele>
      </trkpt>
      <trkpt lat="40.7930910" lon="0.1673570">
        <ele>838.8</ele>
      </trkpt>
      <trkpt lat="40.7929930" lon="0.1673590">
        <ele>838.1</ele>
      </trkpt>
      <trkpt lat="40.7929030" lon="0.1673720">
        <ele>837.5</ele>
      </trkpt>
      <trkpt lat="40.7928330" lon="0.1673840">
        <ele>837.0</ele>
      </trkpt>
      <trkpt lat="40.7927540" lon="0.1673520">
        <ele>836.3</ele>
      </trkpt>
      <trkpt lat="40.7926810" lon="0.1672950">
        <ele>835.7</ele>
      </trkpt>
      <trkpt lat="40.7926250" lon="0.1672260">
        <ele>835.2</ele>
      </trkpt>
      <trkpt lat="40.7925610" lon="0.1671880">
        <ele>834.8</ele>
      </trkpt>
      <trkpt lat="40.7925010" lon="0.1671260">
        <ele>834.4</ele>
      </trkpt>
      <trkpt lat="40.7924340" lon="0.1670700">
        <ele>833.9</ele>
      </trkpt>
      <trkpt lat="40.7923730" lon="0.1670440">
        <ele>833.6</ele>
      </trkpt>
      <trkpt lat="40.7923010" lon="0.1670460">
        <ele>833.1</ele>
      </trkpt>
      <trkpt lat="40.7922280" lon="0.1670790">
        <ele>832.8</ele>
      </trkpt>
      <trkpt lat="40.7922140" lon="0.1672020">
        <ele>832.4</ele>
      </trkpt>
      <trkpt lat="40.7922120" lon="0.1672940">
        <ele>832.3</ele>
      </trkpt>
      <trkpt lat="40.7921970" lon="0.1673830">
        <ele>832.2</ele>
      </trkpt>
      <trkpt lat="40.7921770" lon="0.1674620">
        <ele>832.1</ele>
      </trkpt>
      <trkpt lat="40.7921510" lon="0.1675390">
        <ele>832.0</ele>
      </trkpt>
      <trkpt lat="40.7921190" lon="0.1676020">
        <ele>831.9</ele>
      </trkpt>
      <trkpt lat="40.7920900" lon="0.1676730">
        <ele>831.8</ele>
      </trkpt>
      <trkpt lat="40.7920610" lon="0.1677250">
        <ele>831.7</ele>
      </trkpt>
      <trkpt lat="40.7920370" lon="0.1677730">
        <ele>831.6</ele>
      </trkpt>
      <trkpt lat="40.7920100" lon="0.1678210">
        <ele>831.6</ele>
      </trkpt>
      <trkpt lat="40.7919830" lon="0.1678660">
        <ele>831.5</ele>
      </trkpt>
      <trkpt lat="40.7919520" lon="0.1678960">
        <ele>831.5</ele>
      </trkpt>
      <trkpt lat="40.7919200" lon="0.1679350">
        <ele>831.4</ele>
      </trkpt>
      <trkpt lat="40.7918950" lon="0.1679600">
        <ele>831.4</ele>
      </trkpt>
      <trkpt lat="40.7918590" lon="0.1679870">
        <ele>831.3</ele>
      </trkpt>
      <trkpt lat="40.7918260" lon="0.1680170">
        <ele>831.3</ele>
      </trkpt>
      <trkpt lat="40.7917950" lon="0.1680490">
        <ele>831.2</ele>
      </trkpt>
      <trkpt lat="40.7917640" lon="0.1680690">
        <ele>831.2</ele>
      </trkpt>
      <trkpt lat="40.7917180" lon="0.1680810">
        <ele>831.0</ele>
      </trkpt>
      <trkpt lat="40.7916750" lon="0.1681020">
        <ele>830.9</ele>
      </trkpt>
      <trkpt lat="40.7916260" lon="0.1681220">
        <ele>830.8</ele>
      </trkpt>
      <trkpt lat="40.7915750" lon="0.1681360">
        <ele>830.7</ele>
      </trkpt>
      <trkpt lat="40.7915150" lon="0.1681510">
        <ele>830.5</ele>
      </trkpt>
      <trkpt lat="40.7914590" lon="0.1681760">
        <ele>830.3</ele>
      </trkpt>
      <trkpt lat="40.7913920" lon="0.1681950">
        <ele>830.1</ele>
      </trkpt>
      <trkpt lat="40.7913280" lon="0.1682110">
        <ele>829.9</ele>
      </trkpt>
      <trkpt lat="40.7912470" lon="0.1682320">
        <ele>829.6</ele>
      </trkpt>
      <trkpt lat="40.7911660" lon="0.1682250">
        <ele>829.2</ele>
      </trkpt>
      <trkpt lat="40.7910820" lon="0.1682120">
        <ele>828.9</ele>
      </trkpt>
      <trkpt lat="40.7909960" lon="0.1682030">
        <ele>828.5</ele>
      </trkpt>
      <trkpt lat="40.7909180" lon="0.1682100">
        <ele>828.2</ele>
      </trkpt>
      <trkpt lat="40.7908410" lon="0.1682220">
        <ele>827.9</ele>
      </trkpt>
      <trkpt lat="40.7907630" lon="0.1682470">
        <ele>827.8</ele>
      </trkpt>
      <trkpt lat="40.7906790" lon="0.1682840">
        <ele>827.7</ele>
      </trkpt>
      <trkpt lat="40.7906130" lon="0.1683170">
        <ele>827.6</ele>
      </trkpt>
      <trkpt lat="40.7905540" lon="0.1683660">
        <ele>827.5</ele>
      </trkpt>
      <trkpt lat="40.7904930" lon="0.1683900">
        <ele>827.5</ele>
      </trkpt>
      <trkpt lat="40.7904350" lon="0.1684030">
        <ele>827.5</ele>
      </trkpt>
      <trkpt lat="40.7903840" lon="0.1684070">
        <ele>827.5</ele>
      </trkpt>
      <trkpt lat="40.7903270" lon="0.1684120">
        <ele>827.5</ele>
      </trkpt>
      <trkpt lat="40.7902680" lon="0.1684320">
        <ele>827.6</ele>
      </trkpt>
      <trkpt lat="40.7902220" lon="0.1684660">
        <ele>827.6</ele>
      </trkpt>
      <trkpt lat="40.7901800" lon="0.1684950">
        <ele>827.7</ele>
      </trkpt>
      <trkpt lat="40.7901390" lon="0.1685370">
        <ele>827.7</ele>
      </trkpt>
      <trkpt lat="40.7901120" lon="0.1685790">
        <ele>827.8</ele>
      </trkpt>
      <trkpt lat="40.7900870" lon="0.1686190">
        <ele>827.8</ele>
      </trkpt>
      <trkpt lat="40.7900590" lon="0.1686700">
        <ele>827.8</ele>
      </trkpt>
      <trkpt lat="40.7900340" lon="0.1687000">
        <ele>827.7</ele>
      </trkpt>
      <trkpt lat="40.7900100" lon="0.1687310">
        <ele>827.7</ele>
      </trkpt>
      <trkpt lat="40.7899800" lon="0.1688010">
        <ele>827.7</ele>
      </trkpt>
      <trkpt lat="40.7899740" lon="0.1688450">
        <ele>827.6</ele>
      </trkpt>
      <trkpt lat="40.7899860" lon="0.1689180">
        <ele>827.5</ele>
      </trkpt>
      <trkpt lat="40.7900070" lon="0.1689990">
        <ele>827.3</ele>
      </trkpt>
      <trkpt lat="40.7900120" lon="0.1690820">
        <ele>827.1</ele>
      </trkpt>
      <trkpt lat="40.7900100" lon="0.1691750">
        <ele>826.8</ele>
      </trkpt>
      <trkpt lat="40.7899890" lon="0.1692480">
        <ele>826.5</ele>
      </trkpt>
      <trkpt lat="40.7899510" lon="0.1693120">
        <ele>826.3</ele>
      </trkpt>
      <trkpt lat="40.7899200" lon="0.1693710">
        <ele>826.1</ele>
      </trkpt>
      <trkpt lat="40.7898960" lon="0.1694200">
        <ele>825.8</ele>
      </trkpt>
      <trkpt lat="40.7898770" lon="0.1694940">
        <ele>825.5</ele>
      </trkpt>
      <trkpt lat="40.7898520" lon="0.1695620">
        <ele>825.1</ele>
      </trkpt>
      <trkpt lat="40.7898310" lon="0.1696380">
        <ele>824.7</ele>
      </trkpt>
      <trkpt lat="40.7898290" lon="0.1697080">
        <ele>824.3</ele>
      </trkpt>
      <trkpt lat="40.7898420" lon="0.1697810">
        <ele>823.5</ele>
      </trkpt>
      <trkpt lat="40.7898790" lon="0.1698670">
        <ele>822.7</ele>
      </trkpt>
      <trkpt lat="40.7899280" lon="0.1699700">
        <ele>822.0</ele>
      </trkpt>
      <trkpt lat="40.7899720" lon="0.1700780">
        <ele>821.2</ele>
      </trkpt>
      <trkpt lat="40.7900210" lon="0.1701830">
        <ele>820.4</ele>
      </trkpt>
      <trkpt lat="40.7900830" lon="0.1702970">
        <ele>819.6</ele>
      </trkpt>
      <trkpt lat="40.7901420" lon="0.1704200">
        <ele>818.8</ele>
      </trkpt>
      <trkpt lat="40.7901850" lon="0.1705380">
        <ele>818.0</ele>
      </trkpt>
      <trkpt lat="40.7902130" lon="0.1706710">
        <ele>817.3</ele>
      </trkpt>
      <trkpt lat="40.7902490" lon="0.1708230">
        <ele>816.4</ele>
      </trkpt>
      <trkpt lat="40.7902700" lon="0.1709490">
        <ele>815.7</ele>
      </trkpt>
      <trkpt lat="40.7902730" lon="0.1710800">
        <ele>814.5</ele>
      </trkpt>
      <trkpt lat="40.7902850" lon="0.1712210">
        <ele>813.6</ele>
      </trkpt>
      <trkpt lat="40.7903050" lon="0.1713580">
        <ele>812.9</ele>
      </trkpt>
      <trkpt lat="40.7902720" lon="0.1713990">
        <ele>812.6</ele>
      </trkpt>
      <trkpt lat="40.7902240" lon="0.1714840">
        <ele>812.1</ele>
      </trkpt>
      <trkpt lat="40.7901710" lon="0.1715620">
        <ele>811.6</ele>
      </trkpt>
      <trkpt lat="40.7900910" lon="0.1716560">
        <ele>811.0</ele>
      </trkpt>
      <trkpt lat="40.7900240" lon="0.1717440">
        <ele>810.4</ele>
      </trkpt>
      <trkpt lat="40.7899570" lon="0.1718190">
        <ele>809.9</ele>
      </trkpt>
      <trkpt lat="40.7898970" lon="0.1718960">
        <ele>809.6</ele>
      </trkpt>
      <trkpt lat="40.7898580" lon="0.1719680">
        <ele>809.5</ele>
      </trkpt>
      <trkpt lat="40.7898250" lon="0.1720060">
        <ele>809.4</ele>
      </trkpt>
      <trkpt lat="40.7898010" lon="0.1720280">
        <ele>809.3</ele>
      </trkpt>
      <trkpt lat="40.7897750" lon="0.1720650">
        <ele>809.2</ele>
      </trkpt>
      <trkpt lat="40.7897570" lon="0.1721010">
        <ele>809.1</ele>
      </trkpt>
      <trkpt lat="40.7897410" lon="0.1721510">
        <ele>809.0</ele>
      </trkpt>
      <trkpt lat="40.7897240" lon="0.1721920">
        <ele>808.9</ele>
      </trkpt>
      <trkpt lat="40.7897040" lon="0.1722300">
        <ele>808.9</ele>
      </trkpt>
      <trkpt lat="40.7896780" lon="0.1722710">
        <ele>808.8</ele>
      </trkpt>
      <trkpt lat="40.7896460" lon="0.1723060">
        <ele>808.7</ele>
      </trkpt>
      <trkpt lat="40.7896160" lon="0.1723370">
        <ele>808.6</ele>
      </trkpt>
      <trkpt lat="40.7895790" lon="0.1723560">
        <ele>808.6</ele>
      </trkpt>
      <trkpt lat="40.7895480" lon="0.1723740">
        <ele>808.6</ele>
      </trkpt>
      <trkpt lat="40.7895180" lon="0.1723880">
        <ele>808.7</ele>
      </trkpt>
      <trkpt lat="40.7894900" lon="0.1723960">
        <ele>808.7</ele>
      </trkpt>
      <trkpt lat="40.7894600" lon="0.1724010">
        <ele>808.8</ele>
      </trkpt>
      <trkpt lat="40.7894310" lon="0.1724040">
        <ele>809.0</ele>
      </trkpt>
      <trkpt lat="40.7893840" lon="0.1723990">
        <ele>809.3</ele>
      </trkpt>
      <trkpt lat="40.7893440" lon="0.1723810">
        <ele>809.5</ele>
      </trkpt>
      <trkpt lat="40.7892990" lon="0.1723650">
        <ele>809.8</ele>
      </trkpt>
      <trkpt lat="40.7892550" lon="0.1723590">
        <ele>810.2</ele>
      </trkpt>
      <trkpt lat="40.7892280" lon="0.1723530">
        <ele>810.5</ele>
      </trkpt>
      <trkpt lat="40.7891940" lon="0.1723470">
        <ele>810.7</ele>
      </trkpt>
      <trkpt lat="40.7891530" lon="0.1723440">
        <ele>810.9</ele>
      </trkpt>
      <trkpt lat="40.7890840" lon="0.1723430">
        <ele>811.3</ele>
      </trkpt>
      <trkpt lat="40.7890320" lon="0.1723320">
        <ele>811.3</ele>
      </trkpt>
      <trkpt lat="40.7889770" lon="0.1723010">
        <ele>811.1</ele>
      </trkpt>
      <trkpt lat="40.7889180" lon="0.1722500">
        <ele>810.9</ele>
      </trkpt>
      <trkpt lat="40.7888650" lon="0.1721940">
        <ele>810.7</ele>
      </trkpt>
      <trkpt lat="40.7888200" lon="0.1721470">
        <ele>810.5</ele>
      </trkpt>
      <trkpt lat="40.7887600" lon="0.1720930">
        <ele>810.3</ele>
      </trkpt>
      <trkpt lat="40.7887020" lon="0.1720320">
        <ele>810.1</ele>
      </trkpt>
      <trkpt lat="40.7886500" lon="0.1719740">
        <ele>809.8</ele>
      </trkpt>
      <trkpt lat="40.7886150" lon="0.1719260">
        <ele>809.6</ele>
      </trkpt>
      <trkpt lat="40.7885760" lon="0.1718740">
        <ele>809.4</ele>
      </trkpt>
      <trkpt lat="40.7885190" lon="0.1718330">
        <ele>809.2</ele>
      </trkpt>
      <trkpt lat="40.7884600" lon="0.1718020">
        <ele>809.0</ele>
      </trkpt>
      <trkpt lat="40.7884010" lon="0.1717690">
        <ele>808.8</ele>
      </trkpt>
      <trkpt lat="40.7883500" lon="0.1717360">
        <ele>808.7</ele>
      </trkpt>
      <trkpt lat="40.7883180" lon="0.1717020">
        <ele>808.6</ele>
      </trkpt>
      <trkpt lat="40.7882860" lon="0.1716590">
        <ele>808.5</ele>
      </trkpt>
      <trkpt lat="40.7882590" lon="0.1716220">
        <ele>808.4</ele>
      </trkpt>
      <trkpt lat="40.7882070" lon="0.1715840">
        <ele>808.2</ele>
      </trkpt>
      <trkpt lat="40.7881780" lon="0.1715490">
        <ele>808.1</ele>
      </trkpt>
      <trkpt lat="40.7881510" lon="0.1715290">
        <ele>808.0</ele>
      </trkpt>
      <trkpt lat="40.7880980" lon="0.1715420">
        <ele>807.8</ele>
      </trkpt>
      <trkpt lat="40.7880580" lon="0.1715720">
        <ele>807.6</ele>
      </trkpt>
      <trkpt lat="40.7880150" lon="0.1716020">
        <ele>807.3</ele>
      </trkpt>
      <trkpt lat="40.7879700" lon="0.1716380">
        <ele>807.0</ele>
      </trkpt>
      <trkpt lat="40.7879070" lon="0.1716900">
        <ele>806.5</ele>
      </trkpt>
      <trkpt lat="40.7878530" lon="0.1717540">
        <ele>805.9</ele>
      </trkpt>
      <trkpt lat="40.7877880" lon="0.1717750">
        <ele>805.3</ele>
      </trkpt>
      <trkpt lat="40.7877180" lon="0.1717890">
        <ele>804.3</ele>
      </trkpt>
      <trkpt lat="40.7876500" lon="0.1717800">
        <ele>803.5</ele>
      </trkpt>
      <trkpt lat="40.7875760" lon="0.1717810">
        <ele>802.8</ele>
      </trkpt>
      <trkpt lat="40.7874860" lon="0.1717830">
        <ele>802.1</ele>
      </trkpt>
      <trkpt lat="40.7873780" lon="0.1717820">
        <ele>801.2</ele>
      </trkpt>
      <trkpt lat="40.7872770" lon="0.1717600">
        <ele>800.3</ele>
      </trkpt>
      <trkpt lat="40.7871700" lon="0.1717340">
        <ele>799.3</ele>
      </trkpt>
      <trkpt lat="40.7870540" lon="0.1717110">
        <ele>798.0</ele>
      </trkpt>
      <trkpt lat="40.7869460" lon="0.1716820">
        <ele>796.5</ele>
      </trkpt>
      <trkpt lat="40.7868450" lon="0.1716610">
        <ele>795.8</ele>
      </trkpt>
      <trkpt lat="40.7867500" lon="0.1716620">
        <ele>795.2</ele>
      </trkpt>
      <trkpt lat="40.7866450" lon="0.1716880">
        <ele>794.5</ele>
      </trkpt>
      <trkpt lat="40.7865630" lon="0.1717190">
        <ele>794.0</ele>
      </trkpt>
      <trkpt lat="40.7865160" lon="0.1717690">
        <ele>793.7</ele>
      </trkpt>
      <trkpt lat="40.7864700" lon="0.1718270">
        <ele>793.4</ele>
      </trkpt>
      <trkpt lat="40.7864120" lon="0.1718500">
        <ele>793.2</ele>
      </trkpt>
      <trkpt lat="40.7863450" lon="0.1718800">
        <ele>792.9</ele>
      </trkpt>
      <trkpt lat="40.7862730" lon="0.1718860">
        <ele>792.8</ele>
      </trkpt>
      <trkpt lat="40.7862020" lon="0.1718840">
        <ele>793.0</ele>
      </trkpt>
      <trkpt lat="40.7861510" lon="0.1718890">
        <ele>793.2</ele>
      </trkpt>
      <trkpt lat="40.7861020" lon="0.1718920">
        <ele>793.3</ele>
      </trkpt>
      <trkpt lat="40.7860550" lon="0.1718910">
        <ele>793.5</ele>
      </trkpt>
      <trkpt lat="40.7860070" lon="0.1718840">
        <ele>793.7</ele>
      </trkpt>
      <trkpt lat="40.7859700" lon="0.1718790">
        <ele>794.0</ele>
      </trkpt>
      <trkpt lat="40.7859360" lon="0.1718590">
        <ele>794.2</ele>
      </trkpt>
      <trkpt lat="40.7859000" lon="0.1718490">
        <ele>794.5</ele>
      </trkpt>
      <trkpt lat="40.7858580" lon="0.1718580">
        <ele>794.7</ele>
      </trkpt>
      <trkpt lat="40.7858350" lon="0.1718790">
        <ele>794.9</ele>
      </trkpt>
      <trkpt lat="40.7857950" lon="0.1719070">
        <ele>795.4</ele>
      </trkpt>
      <trkpt lat="40.7857980" lon="0.1719760">
        <ele>796.0</ele>
      </trkpt>
      <trkpt lat="40.7858160" lon="0.1720120">
        <ele>796.4</ele>
      </trkpt>
      <trkpt lat="40.7858330" lon="0.1720420">
        <ele>796.9</ele>
      </trkpt>
      <trkpt lat="40.7858730" lon="0.1720850">
        <ele>797.8</ele>
      </trkpt>
      <trkpt lat="40.7859190" lon="0.1721150">
        <ele>798.6</ele>
      </trkpt>
      <trkpt lat="40.7859640" lon="0.1721470">
        <ele>799.3</ele>
      </trkpt>
      <trkpt lat="40.7859890" lon="0.1721690">
        <ele>799.7</ele>
      </trkpt>
      <trkpt lat="40.7860140" lon="0.1721940">
        <ele>799.9</ele>
      </trkpt>
      <trkpt lat="40.7860350" lon="0.1722210">
        <ele>800.1</ele>
      </trkpt>
      <trkpt lat="40.7860530" lon="0.1722520">
        <ele>800.3</ele>
      </trkpt>
      <trkpt lat="40.7860740" lon="0.1723190">
        <ele>800.7</ele>
      </trkpt>
      <trkpt lat="40.7860840" lon="0.1723570">
        <ele>800.8</ele>
      </trkpt>
      <trkpt lat="40.7860950" lon="0.1723940">
        <ele>800.9</ele>
      </trkpt>
      <trkpt lat="40.7861060" lon="0.1724290">
        <ele>801.0</ele>
      </trkpt>
      <trkpt lat="40.7861210" lon="0.1724870">
        <ele>801.0</ele>
      </trkpt>
      <trkpt lat="40.7861330" lon="0.1725470">
        <ele>801.0</ele>
      </trkpt>
      <trkpt lat="40.7861410" lon="0.1725850">
        <ele>801.0</ele>
      </trkpt>
      <trkpt lat="40.7861460" lon="0.1726290">
        <ele>801.0</ele>
      </trkpt>
      <trkpt lat="40.7861470" lon="0.1726770">
        <ele>801.0</ele>
      </trkpt>
      <trkpt lat="40.7861420" lon="0.1727280">
        <ele>800.9</ele>
      </trkpt>
      <trkpt lat="40.7861300" lon="0.1727840">
        <ele>800.8</ele>
      </trkpt>
      <trkpt lat="40.7861130" lon="0.1728370">
        <ele>800.8</ele>
      </trkpt>
      <trkpt lat="40.7860900" lon="0.1728870">
        <ele>800.7</ele>
      </trkpt>
      <trkpt lat="40.7860630" lon="0.1729330">
        <ele>800.6</ele>
      </trkpt>
      <trkpt lat="40.7860340" lon="0.1729720">
        <ele>800.6</ele>
      </trkpt>
      <trkpt lat="40.7860010" lon="0.1730070">
        <ele>800.5</ele>
      </trkpt>
      <trkpt lat="40.7859660" lon="0.1730360">
        <ele>800.4</ele>
      </trkpt>
      <trkpt lat="40.7859290" lon="0.1730620">
        <ele>800.4</ele>
      </trkpt>
      <trkpt lat="40.7858920" lon="0.1730870">
        <ele>800.4</ele>
      </trkpt>
      <trkpt lat="40.7858550" lon="0.1731110">
        <ele>800.5</ele>
      </trkpt>
      <trkpt lat="40.7858160" lon="0.1731340">
        <ele>800.5</ele>
      </trkpt>
      <trkpt lat="40.7857740" lon="0.1731510">
        <ele>800.6</ele>
      </trkpt>
      <trkpt lat="40.7857320" lon="0.1731630">
        <ele>800.7</ele>
      </trkpt>
      <trkpt lat="40.7856900" lon="0.1731730">
        <ele>800.7</ele>
      </trkpt>
      <trkpt lat="40.7856490" lon="0.1731820">
        <ele>800.8</ele>
      </trkpt>
      <trkpt lat="40.7856110" lon="0.1731910">
        <ele>800.9</ele>
      </trkpt>
      <trkpt lat="40.7855760" lon="0.1732040">
        <ele>801.1</ele>
      </trkpt>
      <trkpt lat="40.7855460" lon="0.1732190">
        <ele>801.2</ele>
      </trkpt>
      <trkpt lat="40.7855170" lon="0.1732360">
        <ele>801.3</ele>
      </trkpt>
      <trkpt lat="40.7854890" lon="0.1732540">
        <ele>801.4</ele>
      </trkpt>
      <trkpt lat="40.7854600" lon="0.1732720">
        <ele>801.5</ele>
      </trkpt>
      <trkpt lat="40.7854310" lon="0.1732920">
        <ele>801.6</ele>
      </trkpt>
      <trkpt lat="40.7854000" lon="0.1733130">
        <ele>801.7</ele>
      </trkpt>
      <trkpt lat="40.7853680" lon="0.1733340">
        <ele>801.8</ele>
      </trkpt>
      <trkpt lat="40.7853330" lon="0.1733530">
        <ele>801.9</ele>
      </trkpt>
      <trkpt lat="40.7852970" lon="0.1733720">
        <ele>802.0</ele>
      </trkpt>
      <trkpt lat="40.7852590" lon="0.1733880">
        <ele>802.2</ele>
      </trkpt>
      <trkpt lat="40.7852210" lon="0.1733970">
        <ele>802.3</ele>
      </trkpt>
      <trkpt lat="40.7851850" lon="0.1733990">
        <ele>802.4</ele>
      </trkpt>
      <trkpt lat="40.7851470" lon="0.1733920">
        <ele>802.5</ele>
      </trkpt>
      <trkpt lat="40.7851100" lon="0.1733780">
        <ele>802.6</ele>
      </trkpt>
      <trkpt lat="40.7850750" lon="0.1733580">
        <ele>802.7</ele>
      </trkpt>
      <trkpt lat="40.7850430" lon="0.1733360">
        <ele>802.9</ele>
      </trkpt>
      <trkpt lat="40.7850150" lon="0.1733150">
        <ele>802.9</ele>
      </trkpt>
      <trkpt lat="40.7849880" lon="0.1732910">
        <ele>803.0</ele>
      </trkpt>
      <trkpt lat="40.7849590" lon="0.1732660">
        <ele>803.1</ele>
      </trkpt>
      <trkpt lat="40.7849280" lon="0.1732400">
        <ele>803.2</ele>
      </trkpt>
      <trkpt lat="40.7848950" lon="0.1732150">
        <ele>803.3</ele>
      </trkpt>
      <trkpt lat="40.7848640" lon="0.1731950">
        <ele>803.4</ele>
      </trkpt>
      <trkpt lat="40.7848310" lon="0.1731760">
        <ele>803.4</ele>
      </trkpt>
      <trkpt lat="40.7847990" lon="0.1731640">
        <ele>803.5</ele>
      </trkpt>
      <trkpt lat="40.7847640" lon="0.1731620">
        <ele>803.6</ele>
      </trkpt>
      <trkpt lat="40.7847270" lon="0.1731690">
        <ele>803.7</ele>
      </trkpt>
      <trkpt lat="40.7846900" lon="0.1731820">
        <ele>803.8</ele>
      </trkpt>
      <trkpt lat="40.7846560" lon="0.1732000">
        <ele>803.9</ele>
      </trkpt>
      <trkpt lat="40.7846280" lon="0.1732200">
        <ele>804.0</ele>
      </trkpt>
      <trkpt lat="40.7846030" lon="0.1732440">
        <ele>804.1</ele>
      </trkpt>
      <trkpt lat="40.7845830" lon="0.1732720">
        <ele>804.2</ele>
      </trkpt>
      <trkpt lat="40.7845660" lon="0.1733050">
        <ele>804.3</ele>
      </trkpt>
      <trkpt lat="40.7845490" lon="0.1733430">
        <ele>804.4</ele>
      </trkpt>
      <trkpt lat="40.7845320" lon="0.1733820">
        <ele>804.5</ele>
      </trkpt>
      <trkpt lat="40.7845140" lon="0.1734210">
        <ele>804.7</ele>
      </trkpt>
      <trkpt lat="40.7844940" lon="0.1734600">
        <ele>804.8</ele>
      </trkpt>
      <trkpt lat="40.7844730" lon="0.1735000">
        <ele>805.0</ele>
      </trkpt>
      <trkpt lat="40.7844520" lon="0.1735420">
        <ele>805.1</ele>
      </trkpt>
      <trkpt lat="40.7844330" lon="0.1735840">
        <ele>805.2</ele>
      </trkpt>
      <trkpt lat="40.7844160" lon="0.1736270">
        <ele>805.3</ele>
      </trkpt>
      <trkpt lat="40.7844020" lon="0.1736670">
        <ele>805.4</ele>
      </trkpt>
      <trkpt lat="40.7843870" lon="0.1737080">
        <ele>805.5</ele>
      </trkpt>
      <trkpt lat="40.7843710" lon="0.1737460">
        <ele>805.6</ele>
      </trkpt>
      <trkpt lat="40.7843540" lon="0.1737840">
        <ele>805.7</ele>
      </trkpt>
      <trkpt lat="40.7843360" lon="0.1738180">
        <ele>805.8</ele>
      </trkpt>
      <trkpt lat="40.7843160" lon="0.1738510">
        <ele>805.9</ele>
      </trkpt>
      <trkpt lat="40.7842910" lon="0.1738860">
        <ele>806.0</ele>
      </trkpt>
      <trkpt lat="40.7842630" lon="0.1739180">
        <ele>806.1</ele>
      </trkpt>
      <trkpt lat="40.7842350" lon="0.1739490">
        <ele>806.2</ele>
      </trkpt>
      <trkpt lat="40.7842040" lon="0.1739790">
        <ele>806.3</ele>
      </trkpt>
      <trkpt lat="40.7841700" lon="0.1740060">
        <ele>806.5</ele>
      </trkpt>
      <trkpt lat="40.7841360" lon="0.1740320">
        <ele>806.6</ele>
      </trkpt>
      <trkpt lat="40.7840990" lon="0.1740580">
        <ele>806.7</ele>
      </trkpt>
      <trkpt lat="40.7840610" lon="0.1740860">
        <ele>806.8</ele>
      </trkpt>
      <trkpt lat="40.7840260" lon="0.1741130">
        <ele>806.9</ele>
      </trkpt>
      <trkpt lat="40.7839910" lon="0.1741400">
        <ele>807.0</ele>
      </trkpt>
      <trkpt lat="40.7839550" lon="0.1741630">
        <ele>807.1</ele>
      </trkpt>
      <trkpt lat="40.7839190" lon="0.1741830">
        <ele>807.2</ele>
      </trkpt>
      <trkpt lat="40.7838790" lon="0.1742030">
        <ele>807.3</ele>
      </trkpt>
      <trkpt lat="40.7838380" lon="0.1742240">
        <ele>807.4</ele>
      </trkpt>
      <trkpt lat="40.7838010" lon="0.1742450">
        <ele>807.5</ele>
      </trkpt>
      <trkpt lat="40.7837650" lon="0.1742640">
        <ele>807.6</ele>
      </trkpt>
      <trkpt lat="40.7837280" lon="0.1742830">
        <ele>807.7</ele>
      </trkpt>
      <trkpt lat="40.7836910" lon="0.1743010">
        <ele>807.7</ele>
      </trkpt>
      <trkpt lat="40.7836540" lon="0.1743160">
        <ele>807.8</ele>
      </trkpt>
      <trkpt lat="40.7836180" lon="0.1743270">
        <ele>807.9</ele>
      </trkpt>
      <trkpt lat="40.7835820" lon="0.1743340">
        <ele>808.0</ele>
      </trkpt>
      <trkpt lat="40.7835460" lon="0.1743370">
        <ele>808.1</ele>
      </trkpt>
      <trkpt lat="40.7835060" lon="0.1743350">
        <ele>808.2</ele>
      </trkpt>
      <trkpt lat="40.7834660" lon="0.1743320">
        <ele>808.3</ele>
      </trkpt>
      <trkpt lat="40.7834240" lon="0.1743290">
        <ele>808.4</ele>
      </trkpt>
      <trkpt lat="40.7833780" lon="0.1743280">
        <ele>808.5</ele>
      </trkpt>
      <trkpt lat="40.7833350" lon="0.1743280">
        <ele>808.7</ele>
      </trkpt>
      <trkpt lat="40.7832920" lon="0.1743290">
        <ele>808.8</ele>
      </trkpt>
      <trkpt lat="40.7832520" lon="0.1743310">
        <ele>808.9</ele>
      </trkpt>
      <trkpt lat="40.7832120" lon="0.1743320">
        <ele>809.0</ele>
      </trkpt>
      <trkpt lat="40.7831740" lon="0.1743330">
        <ele>809.1</ele>
      </trkpt>
      <trkpt lat="40.7831360" lon="0.1743340">
        <ele>809.2</ele>
      </trkpt>
      <trkpt lat="40.7830980" lon="0.1743360">
        <ele>809.3</ele>
      </trkpt>
      <trkpt lat="40.7830630" lon="0.1743370">
        <ele>809.4</ele>
      </trkpt>
      <trkpt lat="40.7830300" lon="0.1743390">
        <ele>809.5</ele>
      </trkpt>
      <trkpt lat="40.7830000" lon="0.1743400">
        <ele>809.5</ele>
      </trkpt>
      <trkpt lat="40.7829690" lon="0.1743440">
        <ele>809.6</ele>
      </trkpt>
      <trkpt lat="40.7829390" lon="0.1743510">
        <ele>809.7</ele>
      </trkpt>
      <trkpt lat="40.7829070" lon="0.1743590">
        <ele>809.7</ele>
      </trkpt>
      <trkpt lat="40.7828750" lon="0.1743680">
        <ele>809.8</ele>
      </trkpt>
      <trkpt lat="40.7828420" lon="0.1743770">
        <ele>809.9</ele>
      </trkpt>
      <trkpt lat="40.7828100" lon="0.1743880">
        <ele>810.0</ele>
      </trkpt>
      <trkpt lat="40.7827800" lon="0.1744020">
        <ele>810.0</ele>
      </trkpt>
      <trkpt lat="40.7827500" lon="0.1744180">
        <ele>810.1</ele>
      </trkpt>
      <trkpt lat="40.7827200" lon="0.1744370">
        <ele>810.2</ele>
      </trkpt>
      <trkpt lat="40.7826930" lon="0.1744570">
        <ele>810.3</ele>
      </trkpt>
      <trkpt lat="40.7826660" lon="0.1744810">
        <ele>810.3</ele>
      </trkpt>
      <trkpt lat="40.7826410" lon="0.1745090">
        <ele>810.4</ele>
      </trkpt>
      <trkpt lat="40.7826150" lon="0.1745400">
        <ele>810.5</ele>
      </trkpt>
      <trkpt lat="40.7825910" lon="0.1745720">
        <ele>810.5</ele>
      </trkpt>
      <trkpt lat="40.7825680" lon="0.1746040">
        <ele>810.6</ele>
      </trkpt>
      <trkpt lat="40.7825450" lon="0.1746340">
        <ele>810.7</ele>
      </trkpt>
      <trkpt lat="40.7825200" lon="0.1746600">
        <ele>810.8</ele>
      </trkpt>
      <trkpt lat="40.7824970" lon="0.1746820">
        <ele>810.5</ele>
      </trkpt>
      <trkpt lat="40.7824720" lon="0.1747070">
        <ele>810.4</ele>
      </trkpt>
      <trkpt lat="40.7824470" lon="0.1747330">
        <ele>810.0</ele>
      </trkpt>
      <trkpt lat="40.7824230" lon="0.1747570">
        <ele>809.6</ele>
      </trkpt>
      <trkpt lat="40.7823970" lon="0.1747850">
        <ele>809.6</ele>
      </trkpt>
      <trkpt lat="40.7823710" lon="0.1748160">
        <ele>809.3</ele>
      </trkpt>
      <trkpt lat="40.7823440" lon="0.1748510">
        <ele>808.9</ele>
      </trkpt>
      <trkpt lat="40.7823170" lon="0.1748840">
        <ele>808.5</ele>
      </trkpt>
      <trkpt lat="40.7822920" lon="0.1749170">
        <ele>808.4</ele>
      </trkpt>
      <trkpt lat="40.7822700" lon="0.1749490">
        <ele>808.0</ele>
      </trkpt>
      <trkpt lat="40.7822490" lon="0.1749810">
        <ele>807.6</ele>
      </trkpt>
      <trkpt lat="40.7822250" lon="0.1750130">
        <ele>807.3</ele>
      </trkpt>
      <trkpt lat="40.7822010" lon="0.1750400">
        <ele>807.3</ele>
      </trkpt>
      <trkpt lat="40.7821780" lon="0.1750650">
        <ele>807.1</ele>
      </trkpt>
      <trkpt lat="40.7821540" lon="0.1750910">
        <ele>807.1</ele>
      </trkpt>
      <trkpt lat="40.7821280" lon="0.1751200">
        <ele>807.1</ele>
      </trkpt>
      <trkpt lat="40.7821020" lon="0.1751530">
        <ele>807.1</ele>
      </trkpt>
      <trkpt lat="40.7820710" lon="0.1751860">
        <ele>807.3</ele>
      </trkpt>
      <trkpt lat="40.7820400" lon="0.1752180">
        <ele>807.3</ele>
      </trkpt>
      <trkpt lat="40.7820120" lon="0.1752480">
        <ele>807.5</ele>
      </trkpt>
      <trkpt lat="40.7819860" lon="0.1752810">
        <ele>807.7</ele>
      </trkpt>
      <trkpt lat="40.7819630" lon="0.1753160">
        <ele>807.8</ele>
      </trkpt>
      <trkpt lat="40.7819420" lon="0.1753540">
        <ele>808.0</ele>
      </trkpt>
      <trkpt lat="40.7819240" lon="0.1753940">
        <ele>808.0</ele>
      </trkpt>
      <trkpt lat="40.7819060" lon="0.1754350">
        <ele>808.2</ele>
      </trkpt>
      <trkpt lat="40.7818880" lon="0.1754760">
        <ele>808.4</ele>
      </trkpt>
      <trkpt lat="40.7818720" lon="0.1755190">
        <ele>808.6</ele>
      </trkpt>
      <trkpt lat="40.7818560" lon="0.1755650">
        <ele>808.7</ele>
      </trkpt>
      <trkpt lat="40.7818390" lon="0.1756110">
        <ele>809.1</ele>
      </trkpt>
      <trkpt lat="40.7818230" lon="0.1756530">
        <ele>809.2</ele>
      </trkpt>
      <trkpt lat="40.7818070" lon="0.1756930">
        <ele>809.1</ele>
      </trkpt>
      <trkpt lat="40.7817910" lon="0.1757370">
        <ele>809.3</ele>
      </trkpt>
      <trkpt lat="40.7817780" lon="0.1757830">
        <ele>809.8</ele>
      </trkpt>
      <trkpt lat="40.7817660" lon="0.1758290">
        <ele>809.9</ele>
      </trkpt>
      <trkpt lat="40.7817580" lon="0.1758740">
        <ele>810.0</ele>
      </trkpt>
      <trkpt lat="40.7817520" lon="0.1759170">
        <ele>810.1</ele>
      </trkpt>
      <trkpt lat="40.7817480" lon="0.1759600">
        <ele>810.3</ele>
      </trkpt>
      <trkpt lat="40.7817470" lon="0.1760020">
        <ele>810.4</ele>
      </trkpt>
      <trkpt lat="40.7817460" lon="0.1760420">
        <ele>810.5</ele>
      </trkpt>
      <trkpt lat="40.7817430" lon="0.1760820">
        <ele>810.4</ele>
      </trkpt>
      <trkpt lat="40.7817390" lon="0.1761230">
        <ele>810.4</ele>
      </trkpt>
      <trkpt lat="40.7817370" lon="0.1761670">
        <ele>810.5</ele>
      </trkpt>
      <trkpt lat="40.7817350" lon="0.1762130">
        <ele>810.6</ele>
      </trkpt>
      <trkpt lat="40.7817340" lon="0.1762630">
        <ele>810.7</ele>
      </trkpt>
      <trkpt lat="40.7817290" lon="0.1763150">
        <ele>810.7</ele>
      </trkpt>
      <trkpt lat="40.7817250" lon="0.1763670">
        <ele>810.8</ele>
      </trkpt>
      <trkpt lat="40.7817210" lon="0.1764180">
        <ele>810.9</ele>
      </trkpt>
      <trkpt lat="40.7817150" lon="0.1764680">
        <ele>811.0</ele>
      </trkpt>
      <trkpt lat="40.7817090" lon="0.1765170">
        <ele>810.8</ele>
      </trkpt>
      <trkpt lat="40.7817030" lon="0.1765650">
        <ele>810.8</ele>
      </trkpt>
      <trkpt lat="40.7816970" lon="0.1766120">
        <ele>810.9</ele>
      </trkpt>
      <trkpt lat="40.7816900" lon="0.1766540">
        <ele>810.9</ele>
      </trkpt>
      <trkpt lat="40.7816800" lon="0.1766950">
        <ele>811.0</ele>
      </trkpt>
      <trkpt lat="40.7816700" lon="0.1767330">
        <ele>810.8</ele>
      </trkpt>
      <trkpt lat="40.7816570" lon="0.1767670">
        <ele>810.8</ele>
      </trkpt>
      <trkpt lat="40.7816410" lon="0.1767970">
        <ele>810.6</ele>
      </trkpt>
      <trkpt lat="40.7816000" lon="0.1768390">
        <ele>810.5</ele>
      </trkpt>
      <trkpt lat="40.7815750" lon="0.1768570">
        <ele>810.5</ele>
      </trkpt>
      <trkpt lat="40.7815480" lon="0.1768730">
        <ele>810.4</ele>
      </trkpt>
      <trkpt lat="40.7815190" lon="0.1768880">
        <ele>810.4</ele>
      </trkpt>
      <trkpt lat="40.7814900" lon="0.1768990">
        <ele>810.6</ele>
      </trkpt>
      <trkpt lat="40.7814590" lon="0.1769080">
        <ele>810.6</ele>
      </trkpt>
      <trkpt lat="40.7814270" lon="0.1769160">
        <ele>810.7</ele>
      </trkpt>
      <trkpt lat="40.7813970" lon="0.1769270">
        <ele>810.7</ele>
      </trkpt>
      <trkpt lat="40.7813690" lon="0.1769430">
        <ele>811.1</ele>
      </trkpt>
      <trkpt lat="40.7813420" lon="0.1769600">
        <ele>811.3</ele>
      </trkpt>
      <trkpt lat="40.7813160" lon="0.1769780">
        <ele>811.5</ele>
      </trkpt>
      <trkpt lat="40.7812900" lon="0.1769950">
        <ele>811.7</ele>
      </trkpt>
      <trkpt lat="40.7812620" lon="0.1770090">
        <ele>811.9</ele>
      </trkpt>
      <trkpt lat="40.7812340" lon="0.1770220">
        <ele>812.1</ele>
      </trkpt>
      <trkpt lat="40.7812040" lon="0.1770330">
        <ele>812.5</ele>
      </trkpt>
      <trkpt lat="40.7811730" lon="0.1770450">
        <ele>812.7</ele>
      </trkpt>
      <trkpt lat="40.7811420" lon="0.1770560">
        <ele>812.9</ele>
      </trkpt>
      <trkpt lat="40.7811130" lon="0.1770620">
        <ele>813.1</ele>
      </trkpt>
      <trkpt lat="40.7810850" lon="0.1770670">
        <ele>813.3</ele>
      </trkpt>
      <trkpt lat="40.7810310" lon="0.1770780">
        <ele>813.8</ele>
      </trkpt>
      <trkpt lat="40.7810020" lon="0.1770850">
        <ele>814.1</ele>
      </trkpt>
      <trkpt lat="40.7809730" lon="0.1770940">
        <ele>814.4</ele>
      </trkpt>
      <trkpt lat="40.7809440" lon="0.1771040">
        <ele>814.7</ele>
      </trkpt>
      <trkpt lat="40.7809140" lon="0.1771160">
        <ele>815.2</ele>
      </trkpt>
      <trkpt lat="40.7808830" lon="0.1771290">
        <ele>815.5</ele>
      </trkpt>
      <trkpt lat="40.7808530" lon="0.1771440">
        <ele>815.9</ele>
      </trkpt>
      <trkpt lat="40.7808230" lon="0.1771580">
        <ele>816.5</ele>
      </trkpt>
      <trkpt lat="40.7807920" lon="0.1771720">
        <ele>816.9</ele>
      </trkpt>
      <trkpt lat="40.7807620" lon="0.1771860">
        <ele>817.2</ele>
      </trkpt>
      <trkpt lat="40.7807350" lon="0.1772010">
        <ele>817.7</ele>
      </trkpt>
      <trkpt lat="40.7807080" lon="0.1772160">
        <ele>817.7</ele>
      </trkpt>
      <trkpt lat="40.7806800" lon="0.1772320">
        <ele>818.0</ele>
      </trkpt>
      <trkpt lat="40.7806520" lon="0.1772460">
        <ele>818.4</ele>
      </trkpt>
      <trkpt lat="40.7806200" lon="0.1772620">
        <ele>818.7</ele>
      </trkpt>
      <trkpt lat="40.7805840" lon="0.1772770">
        <ele>819.0</ele>
      </trkpt>
      <trkpt lat="40.7805490" lon="0.1772910">
        <ele>819.4</ele>
      </trkpt>
      <trkpt lat="40.7805120" lon="0.1773060">
        <ele>820.0</ele>
      </trkpt>
      <trkpt lat="40.7804770" lon="0.1773200">
        <ele>820.4</ele>
      </trkpt>
      <trkpt lat="40.7804450" lon="0.1773330">
        <ele>820.9</ele>
      </trkpt>
      <trkpt lat="40.7804130" lon="0.1773470">
        <ele>821.2</ele>
      </trkpt>
      <trkpt lat="40.7803840" lon="0.1773610">
        <ele>821.6</ele>
      </trkpt>
      <trkpt lat="40.7803560" lon="0.1773750">
        <ele>822.1</ele>
      </trkpt>
      <trkpt lat="40.7803280" lon="0.1773920">
        <ele>822.5</ele>
      </trkpt>
      <trkpt lat="40.7802990" lon="0.1774100">
        <ele>822.9</ele>
      </trkpt>
      <trkpt lat="40.7802680" lon="0.1774280">
        <ele>823.4</ele>
      </trkpt>
      <trkpt lat="40.7802390" lon="0.1774460">
        <ele>823.7</ele>
      </trkpt>
      <trkpt lat="40.7802120" lon="0.1774640">
        <ele>824.1</ele>
      </trkpt>
      <trkpt lat="40.7801870" lon="0.1774850">
        <ele>824.1</ele>
      </trkpt>
      <trkpt lat="40.7801620" lon="0.1775100">
        <ele>824.5</ele>
      </trkpt>
      <trkpt lat="40.7801380" lon="0.1775320">
        <ele>824.7</ele>
      </trkpt>
      <trkpt lat="40.7800880" lon="0.1775560">
        <ele>825.1</ele>
      </trkpt>
      <trkpt lat="40.7800590" lon="0.1775640">
        <ele>825.3</ele>
      </trkpt>
      <trkpt lat="40.7800280" lon="0.1775740">
        <ele>825.5</ele>
      </trkpt>
      <trkpt lat="40.7799970" lon="0.1775870">
        <ele>825.8</ele>
      </trkpt>
      <trkpt lat="40.7799650" lon="0.1775990">
        <ele>826.0</ele>
      </trkpt>
      <trkpt lat="40.7799310" lon="0.1776110">
        <ele>826.1</ele>
      </trkpt>
      <trkpt lat="40.7798950" lon="0.1776200">
        <ele>826.2</ele>
      </trkpt>
      <trkpt lat="40.7798580" lon="0.1776260">
        <ele>826.4</ele>
      </trkpt>
      <trkpt lat="40.7798200" lon="0.1776300">
        <ele>826.5</ele>
      </trkpt>
      <trkpt lat="40.7797810" lon="0.1776340">
        <ele>826.5</ele>
      </trkpt>
      <trkpt lat="40.7797430" lon="0.1776360">
        <ele>826.5</ele>
      </trkpt>
      <trkpt lat="40.7797060" lon="0.1776360">
        <ele>826.5</ele>
      </trkpt>
      <trkpt lat="40.7796720" lon="0.1776340">
        <ele>826.5</ele>
      </trkpt>
      <trkpt lat="40.7796420" lon="0.1776310">
        <ele>826.5</ele>
      </trkpt>
      <trkpt lat="40.7796140" lon="0.1776300">
        <ele>826.5</ele>
      </trkpt>
      <trkpt lat="40.7795700" lon="0.1776410">
        <ele>826.5</ele>
      </trkpt>
      <trkpt lat="40.7795290" lon="0.1776610">
        <ele>826.6</ele>
      </trkpt>
      <trkpt lat="40.7794830" lon="0.1776950">
        <ele>826.3</ele>
      </trkpt>
      <trkpt lat="40.7794570" lon="0.1777300">
        <ele>826.1</ele>
      </trkpt>
      <trkpt lat="40.7794330" lon="0.1777740">
        <ele>825.9</ele>
      </trkpt>
      <trkpt lat="40.7794150" lon="0.1778240">
        <ele>825.8</ele>
      </trkpt>
      <trkpt lat="40.7794030" lon="0.1778750">
        <ele>825.7</ele>
      </trkpt>
      <trkpt lat="40.7793990" lon="0.1779190">
        <ele>825.6</ele>
      </trkpt>
      <trkpt lat="40.7793980" lon="0.1779620">
        <ele>825.6</ele>
      </trkpt>
      <trkpt lat="40.7793970" lon="0.1780040">
        <ele>825.6</ele>
      </trkpt>
      <trkpt lat="40.7793980" lon="0.1780450">
        <ele>825.7</ele>
      </trkpt>
      <trkpt lat="40.7794000" lon="0.1780890">
        <ele>825.8</ele>
      </trkpt>
      <trkpt lat="40.7793960" lon="0.1781260">
        <ele>826.0</ele>
      </trkpt>
      <trkpt lat="40.7793830" lon="0.1781580">
        <ele>826.2</ele>
      </trkpt>
      <trkpt lat="40.7793580" lon="0.1781870">
        <ele>826.3</ele>
      </trkpt>
      <trkpt lat="40.7793310" lon="0.1782100">
        <ele>826.1</ele>
      </trkpt>
      <trkpt lat="40.7793020" lon="0.1782250">
        <ele>826.0</ele>
      </trkpt>
      <trkpt lat="40.7792730" lon="0.1782340">
        <ele>826.2</ele>
      </trkpt>
      <trkpt lat="40.7792440" lon="0.1782380">
        <ele>826.2</ele>
      </trkpt>
      <trkpt lat="40.7792170" lon="0.1782400">
        <ele>826.1</ele>
      </trkpt>
      <trkpt lat="40.7791650" lon="0.1782410">
        <ele>826.0</ele>
      </trkpt>
      <trkpt lat="40.7791360" lon="0.1782350">
        <ele>826.0</ele>
      </trkpt>
      <trkpt lat="40.7791040" lon="0.1782260">
        <ele>825.6</ele>
      </trkpt>
      <trkpt lat="40.7790710" lon="0.1782150">
        <ele>825.7</ele>
      </trkpt>
      <trkpt lat="40.7790390" lon="0.1782050">
        <ele>825.7</ele>
      </trkpt>
      <trkpt lat="40.7790060" lon="0.1781980">
        <ele>825.8</ele>
      </trkpt>
      <trkpt lat="40.7789730" lon="0.1781930">
        <ele>825.8</ele>
      </trkpt>
      <trkpt lat="40.7789400" lon="0.1781900">
        <ele>825.8</ele>
      </trkpt>
      <trkpt lat="40.7789100" lon="0.1781890">
        <ele>825.9</ele>
      </trkpt>
      <trkpt lat="40.7788760" lon="0.1781890">
        <ele>825.9</ele>
      </trkpt>
      <trkpt lat="40.7788410" lon="0.1781880">
        <ele>826.0</ele>
      </trkpt>
      <trkpt lat="40.7788090" lon="0.1781850">
        <ele>826.0</ele>
      </trkpt>
      <trkpt lat="40.7787770" lon="0.1781840">
        <ele>826.2</ele>
      </trkpt>
      <trkpt lat="40.7787450" lon="0.1781860">
        <ele>826.1</ele>
      </trkpt>
      <trkpt lat="40.7787160" lon="0.1781890">
        <ele>826.2</ele>
      </trkpt>
      <trkpt lat="40.7786890" lon="0.1781970">
        <ele>826.2</ele>
      </trkpt>
      <trkpt lat="40.7786580" lon="0.1782030">
        <ele>826.2</ele>
      </trkpt>
      <trkpt lat="40.7786180" lon="0.1781990">
        <ele>826.3</ele>
      </trkpt>
      <trkpt lat="40.7785790" lon="0.1781850">
        <ele>826.4</ele>
      </trkpt>
      <trkpt lat="40.7785410" lon="0.1781640">
        <ele>826.7</ele>
      </trkpt>
      <trkpt lat="40.7785110" lon="0.1781390">
        <ele>827.1</ele>
      </trkpt>
      <trkpt lat="40.7784860" lon="0.1781160">
        <ele>827.2</ele>
      </trkpt>
      <trkpt lat="40.7784610" lon="0.1780950">
        <ele>827.7</ele>
      </trkpt>
      <trkpt lat="40.7784350" lon="0.1780760">
        <ele>827.7</ele>
      </trkpt>
      <trkpt lat="40.7784090" lon="0.1780630">
        <ele>827.9</ele>
      </trkpt>
      <trkpt lat="40.7783580" lon="0.1780470">
        <ele>828.8</ele>
      </trkpt>
      <trkpt lat="40.7783300" lon="0.1780460">
        <ele>829.1</ele>
      </trkpt>
      <trkpt lat="40.7783030" lon="0.1780510">
        <ele>829.1</ele>
      </trkpt>
      <trkpt lat="40.7782740" lon="0.1780620">
        <ele>828.9</ele>
      </trkpt>
      <trkpt lat="40.7782460" lon="0.1780790">
        <ele>829.1</ele>
      </trkpt>
      <trkpt lat="40.7782200" lon="0.1781000">
        <ele>828.8</ele>
      </trkpt>
      <trkpt lat="40.7781860" lon="0.1781440">
        <ele>828.5</ele>
      </trkpt>
      <trkpt lat="40.7781520" lon="0.1781970">
        <ele>828.2</ele>
      </trkpt>
      <trkpt lat="40.7781260" lon="0.1782520">
        <ele>827.9</ele>
      </trkpt>
      <trkpt lat="40.7781030" lon="0.1783170">
        <ele>827.1</ele>
      </trkpt>
      <trkpt lat="40.7780900" lon="0.1783580">
        <ele>826.7</ele>
      </trkpt>
      <trkpt lat="40.7780790" lon="0.1784040">
        <ele>826.3</ele>
      </trkpt>
      <trkpt lat="40.7780700" lon="0.1784470">
        <ele>826.1</ele>
      </trkpt>
      <trkpt lat="40.7780590" lon="0.1784900">
        <ele>825.8</ele>
      </trkpt>
      <trkpt lat="40.7780480" lon="0.1785380">
        <ele>825.6</ele>
      </trkpt>
      <trkpt lat="40.7780400" lon="0.1785870">
        <ele>825.4</ele>
      </trkpt>
      <trkpt lat="40.7780360" lon="0.1786320">
        <ele>825.4</ele>
      </trkpt>
      <trkpt lat="40.7780370" lon="0.1786720">
        <ele>825.3</ele>
      </trkpt>
      <trkpt lat="40.7780340" lon="0.1787140">
        <ele>825.3</ele>
      </trkpt>
      <trkpt lat="40.7780300" lon="0.1787580">
        <ele>825.3</ele>
      </trkpt>
      <trkpt lat="40.7780240" lon="0.1788030">
        <ele>825.3</ele>
      </trkpt>
      <trkpt lat="40.7780160" lon="0.1788510">
        <ele>825.3</ele>
      </trkpt>
      <trkpt lat="40.7780100" lon="0.1788940">
        <ele>825.4</ele>
      </trkpt>
      <trkpt lat="40.7780060" lon="0.1789340">
        <ele>825.4</ele>
      </trkpt>
      <trkpt lat="40.7780010" lon="0.1789740">
        <ele>825.7</ele>
      </trkpt>
      <trkpt lat="40.7779970" lon="0.1790160">
        <ele>826.0</ele>
      </trkpt>
      <trkpt lat="40.7779940" lon="0.1790600">
        <ele>826.5</ele>
      </trkpt>
      <trkpt lat="40.7779890" lon="0.1791070">
        <ele>827.0</ele>
      </trkpt>
      <trkpt lat="40.7779860" lon="0.1791590">
        <ele>827.6</ele>
      </trkpt>
      <trkpt lat="40.7779810" lon="0.1792090">
        <ele>828.2</ele>
      </trkpt>
      <trkpt lat="40.7779780" lon="0.1792560">
        <ele>828.7</ele>
      </trkpt>
      <trkpt lat="40.7779740" lon="0.1792990">
        <ele>829.1</ele>
      </trkpt>
      <trkpt lat="40.7779700" lon="0.1793410">
        <ele>829.4</ele>
      </trkpt>
      <trkpt lat="40.7779660" lon="0.1793850">
        <ele>829.5</ele>
      </trkpt>
      <trkpt lat="40.7779630" lon="0.1794290">
        <ele>829.5</ele>
      </trkpt>
      <trkpt lat="40.7779600" lon="0.1794690">
        <ele>829.5</ele>
      </trkpt>
      <trkpt lat="40.7779600" lon="0.1795100">
        <ele>829.5</ele>
      </trkpt>
      <trkpt lat="40.7779610" lon="0.1795520">
        <ele>829.5</ele>
      </trkpt>
      <trkpt lat="40.7779610" lon="0.1795960">
        <ele>829.6</ele>
      </trkpt>
      <trkpt lat="40.7779580" lon="0.1796350">
        <ele>829.9</ele>
      </trkpt>
      <trkpt lat="40.7779530" lon="0.1796790">
        <ele>830.3</ele>
      </trkpt>
      <trkpt lat="40.7779430" lon="0.1797250">
        <ele>830.8</ele>
      </trkpt>
      <trkpt lat="40.7779330" lon="0.1797700">
        <ele>831.0</ele>
      </trkpt>
      <trkpt lat="40.7779210" lon="0.1798090">
        <ele>831.5</ele>
      </trkpt>
      <trkpt lat="40.7779070" lon="0.1798460">
        <ele>831.5</ele>
      </trkpt>
      <trkpt lat="40.7778930" lon="0.1798870">
        <ele>831.9</ele>
      </trkpt>
      <trkpt lat="40.7778750" lon="0.1799300">
        <ele>831.7</ele>
      </trkpt>
      <trkpt lat="40.7778570" lon="0.1799700">
        <ele>832.0</ele>
      </trkpt>
      <trkpt lat="40.7778410" lon="0.1800030">
        <ele>831.7</ele>
      </trkpt>
      <trkpt lat="40.7778270" lon="0.1800340">
        <ele>832.0</ele>
      </trkpt>
      <trkpt lat="40.7778120" lon="0.1800660">
        <ele>832.0</ele>
      </trkpt>
      <trkpt lat="40.7777950" lon="0.1800960">
        <ele>831.7</ele>
      </trkpt>
      <trkpt lat="40.7777800" lon="0.1801280">
        <ele>832.1</ele>
      </trkpt>
      <trkpt lat="40.7777560" lon="0.1801780">
        <ele>831.9</ele>
      </trkpt>
      <trkpt lat="40.7777280" lon="0.1802200">
        <ele>831.7</ele>
      </trkpt>
      <trkpt lat="40.7776950" lon="0.1802630">
        <ele>831.6</ele>
      </trkpt>
      <trkpt lat="40.7776590" lon="0.1803080">
        <ele>831.4</ele>
      </trkpt>
      <trkpt lat="40.7776160" lon="0.1803530">
        <ele>830.7</ele>
      </trkpt>
      <trkpt lat="40.7775770" lon="0.1803920">
        <ele>830.5</ele>
      </trkpt>
      <trkpt lat="40.7775410" lon="0.1804240">
        <ele>830.3</ele>
      </trkpt>
      <trkpt lat="40.7775130" lon="0.1804450">
        <ele>830.0</ele>
      </trkpt>
      <trkpt lat="40.7774840" lon="0.1804690">
        <ele>829.9</ele>
      </trkpt>
      <trkpt lat="40.7774730" lon="0.1805020">
        <ele>830.2</ele>
      </trkpt>
      <trkpt lat="40.7774830" lon="0.1805460">
        <ele>830.5</ele>
      </trkpt>
      <trkpt lat="40.7775000" lon="0.1805900">
        <ele>831.2</ele>
      </trkpt>
      <trkpt lat="40.7775070" lon="0.1806250">
        <ele>831.2</ele>
      </trkpt>
      <trkpt lat="40.7775190" lon="0.1806630">
        <ele>831.6</ele>
      </trkpt>
      <trkpt lat="40.7775340" lon="0.1806950">
        <ele>832.4</ele>
      </trkpt>
      <trkpt lat="40.7775510" lon="0.1807340">
        <ele>832.9</ele>
      </trkpt>
      <trkpt lat="40.7775770" lon="0.1807790">
        <ele>833.9</ele>
      </trkpt>
      <trkpt lat="40.7776080" lon="0.1808230">
        <ele>835.0</ele>
      </trkpt>
      <trkpt lat="40.7776280" lon="0.1808630">
        <ele>836.2</ele>
      </trkpt>
      <trkpt lat="40.7776400" lon="0.1809010">
        <ele>836.7</ele>
      </trkpt>
      <trkpt lat="40.7776570" lon="0.1809480">
        <ele>837.9</ele>
      </trkpt>
      <trkpt lat="40.7776700" lon="0.1809920">
        <ele>838.5</ele>
      </trkpt>
      <trkpt lat="40.7776780" lon="0.1810430">
        <ele>839.1</ele>
      </trkpt>
      <trkpt lat="40.7776750" lon="0.1810850">
        <ele>839.7</ele>
      </trkpt>
      <trkpt lat="40.7776750" lon="0.1811270">
        <ele>840.3</ele>
      </trkpt>
      <trkpt lat="40.7776890" lon="0.1811690">
        <ele>841.6</ele>
      </trkpt>
      <trkpt lat="40.7776940" lon="0.1812220">
        <ele>842.2</ele>
      </trkpt>
      <trkpt lat="40.7776920" lon="0.1812610">
        <ele>842.7</ele>
      </trkpt>
      <trkpt lat="40.7776960" lon="0.1813010">
        <ele>843.3</ele>
      </trkpt>
      <trkpt lat="40.7777040" lon="0.1813400">
        <ele>843.8</ele>
      </trkpt>
      <trkpt lat="40.7777110" lon="0.1813780">
        <ele>844.3</ele>
      </trkpt>
      <trkpt lat="40.7777150" lon="0.1814250">
        <ele>845.7</ele>
      </trkpt>
      <trkpt lat="40.7777250" lon="0.1814710">
        <ele>846.3</ele>
      </trkpt>
      <trkpt lat="40.7777370" lon="0.1815210">
        <ele>847.0</ele>
      </trkpt>
      <trkpt lat="40.7777500" lon="0.1815750">
        <ele>849.2</ele>
      </trkpt>
      <trkpt lat="40.7777610" lon="0.1816280">
        <ele>849.9</ele>
      </trkpt>
      <trkpt lat="40.7777690" lon="0.1816730">
        <ele>850.6</ele>
      </trkpt>
      <trkpt lat="40.7777780" lon="0.1817120">
        <ele>851.3</ele>
      </trkpt>
      <trkpt lat="40.7777950" lon="0.1817460">
        <ele>852.0</ele>
      </trkpt>
      <trkpt lat="40.7778240" lon="0.1817870">
        <ele>853.5</ele>
      </trkpt>
      <trkpt lat="40.7778400" lon="0.1818180">
        <ele>854.1</ele>
      </trkpt>
      <trkpt lat="40.7778410" lon="0.1818610">
        <ele>854.8</ele>
      </trkpt>
      <trkpt lat="40.7778430" lon="0.1818970">
        <ele>855.6</ele>
      </trkpt>
      <trkpt lat="40.7778460" lon="0.1819340">
        <ele>857.1</ele>
      </trkpt>
      <trkpt lat="40.7778530" lon="0.1819770">
        <ele>858.0</ele>
      </trkpt>
      <trkpt lat="40.7778570" lon="0.1820230">
        <ele>858.9</ele>
      </trkpt>
      <trkpt lat="40.7778740" lon="0.1820600">
        <ele>859.8</ele>
      </trkpt>
      <trkpt lat="40.7778940" lon="0.1820890">
        <ele>860.4</ele>
      </trkpt>
      <trkpt lat="40.7779160" lon="0.1821360">
        <ele>862.6</ele>
      </trkpt>
      <trkpt lat="40.7779350" lon="0.1821710">
        <ele>862.6</ele>
      </trkpt>
      <trkpt lat="40.7779520" lon="0.1822020">
        <ele>864.0</ele>
      </trkpt>
      <trkpt lat="40.7779600" lon="0.1822410">
        <ele>864.8</ele>
      </trkpt>
      <trkpt lat="40.7779760" lon="0.1822760">
        <ele>866.2</ele>
      </trkpt>
      <trkpt lat="40.7779940" lon="0.1823110">
        <ele>867.1</ele>
      </trkpt>
      <trkpt lat="40.7780150" lon="0.1823410">
        <ele>867.6</ele>
      </trkpt>
      <trkpt lat="40.7780280" lon="0.1823790">
        <ele>868.5</ele>
      </trkpt>
      <trkpt lat="40.7780420" lon="0.1824120">
        <ele>870.0</ele>
      </trkpt>
      <trkpt lat="40.7780620" lon="0.1824460">
        <ele>871.0</ele>
      </trkpt>
      <trkpt lat="40.7780920" lon="0.1824690">
        <ele>871.4</ele>
      </trkpt>
      <trkpt lat="40.7781190" lon="0.1824950">
        <ele>872.8</ele>
      </trkpt>
      <trkpt lat="40.7781390" lon="0.1825220">
        <ele>874.2</ele>
      </trkpt>
      <trkpt lat="40.7781650" lon="0.1825490">
        <ele>874.2</ele>
      </trkpt>
      <trkpt lat="40.7781900" lon="0.1825650">
        <ele>875.4</ele>
      </trkpt>
      <trkpt lat="40.7782180" lon="0.1825880">
        <ele>875.6</ele>
      </trkpt>
      <trkpt lat="40.7782450" lon="0.1826040">
        <ele>875.8</ele>
      </trkpt>
      <trkpt lat="40.7782740" lon="0.1826220">
        <ele>877.0</ele>
      </trkpt>
      <trkpt lat="40.7782980" lon="0.1826400">
        <ele>877.0</ele>
      </trkpt>
      <trkpt lat="40.7783270" lon="0.1826720">
        <ele>878.1</ele>
      </trkpt>
      <trkpt lat="40.7783550" lon="0.1827020">
        <ele>879.3</ele>
      </trkpt>
      <trkpt lat="40.7783760" lon="0.1827300">
        <ele>879.5</ele>
      </trkpt>
      <trkpt lat="40.7784020" lon="0.1827460">
        <ele>880.5</ele>
      </trkpt>
      <trkpt lat="40.7784190" lon="0.1827770">
        <ele>881.4</ele>
      </trkpt>
      <trkpt lat="40.7784130" lon="0.1828250">
        <ele>882.2</ele>
      </trkpt>
      <trkpt lat="40.7784070" lon="0.1828790">
        <ele>883.1</ele>
      </trkpt>
      <trkpt lat="40.7784040" lon="0.1829280">
        <ele>883.9</ele>
      </trkpt>
      <trkpt lat="40.7784130" lon="0.1829730">
        <ele>884.7</ele>
      </trkpt>
      <trkpt lat="40.7784290" lon="0.1830190">
        <ele>885.5</ele>
      </trkpt>
      <trkpt lat="40.7784440" lon="0.1830590">
        <ele>886.2</ele>
      </trkpt>
      <trkpt lat="40.7784520" lon="0.1830990">
        <ele>886.8</ele>
      </trkpt>
      <trkpt lat="40.7784550" lon="0.1831420">
        <ele>887.5</ele>
      </trkpt>
      <trkpt lat="40.7784520" lon="0.1831890">
        <ele>888.2</ele>
      </trkpt>
      <trkpt lat="40.7784530" lon="0.1832350">
        <ele>888.9</ele>
      </trkpt>
      <trkpt lat="40.7784480" lon="0.1832800">
        <ele>889.6</ele>
      </trkpt>
      <trkpt lat="40.7784350" lon="0.1833220">
        <ele>890.4</ele>
      </trkpt>
      <trkpt lat="40.7784200" lon="0.1833720">
        <ele>891.4</ele>
      </trkpt>
      <trkpt lat="40.7784100" lon="0.1834100">
        <ele>892.2</ele>
      </trkpt>
      <trkpt lat="40.7784010" lon="0.1834450">
        <ele>892.9</ele>
      </trkpt>
      <trkpt lat="40.7783950" lon="0.1834820">
        <ele>893.9</ele>
      </trkpt>
      <trkpt lat="40.7783900" lon="0.1835330">
        <ele>894.6</ele>
      </trkpt>
      <trkpt lat="40.7783930" lon="0.1835740">
        <ele>895.3</ele>
      </trkpt>
      <trkpt lat="40.7783950" lon="0.1836120">
        <ele>895.9</ele>
      </trkpt>
      <trkpt lat="40.7783930" lon="0.1836570">
        <ele>896.6</ele>
      </trkpt>
      <trkpt lat="40.7784000" lon="0.1837000">
        <ele>896.9</ele>
      </trkpt>
      <trkpt lat="40.7784130" lon="0.1837440">
        <ele>897.6</ele>
      </trkpt>
      <trkpt lat="40.7784220" lon="0.1837880">
        <ele>898.2</ele>
      </trkpt>
      <trkpt lat="40.7784350" lon="0.1838300">
        <ele>898.5</ele>
      </trkpt>
      <trkpt lat="40.7784500" lon="0.1838630">
        <ele>899.1</ele>
      </trkpt>
      <trkpt lat="40.7784670" lon="0.1839070">
        <ele>899.2</ele>
      </trkpt>
      <trkpt lat="40.7784790" lon="0.1839550">
        <ele>899.7</ele>
      </trkpt>
      <trkpt lat="40.7784890" lon="0.1839990">
        <ele>900.2</ele>
      </trkpt>
      <trkpt lat="40.7784990" lon="0.1840410">
        <ele>900.3</ele>
      </trkpt>
      <trkpt lat="40.7785150" lon="0.1840850">
        <ele>900.7</ele>
      </trkpt>
      <trkpt lat="40.7785190" lon="0.1841330">
        <ele>901.3</ele>
      </trkpt>
      <trkpt lat="40.7785070" lon="0.1841790">
        <ele>901.8</ele>
      </trkpt>
      <trkpt lat="40.7784870" lon="0.1842190">
        <ele>902.9</ele>
      </trkpt>
      <trkpt lat="40.7784550" lon="0.1842300">
        <ele>903.5</ele>
      </trkpt>
      <trkpt lat="40.7784290" lon="0.1842170">
        <ele>904.1</ele>
      </trkpt>
      <trkpt lat="40.7784150" lon="0.1841860">
        <ele>903.5</ele>
      </trkpt>
      <trkpt lat="40.7784070" lon="0.1841460">
        <ele>902.9</ele>
      </trkpt>
      <trkpt lat="40.7783840" lon="0.1841100">
        <ele>903.4</ele>
      </trkpt>
      <trkpt lat="40.7783590" lon="0.1840830">
        <ele>903.4</ele>
      </trkpt>
      <trkpt lat="40.7783350" lon="0.1840470">
        <ele>902.8</ele>
      </trkpt>
      <trkpt lat="40.7783020" lon="0.1840200">
        <ele>902.7</ele>
      </trkpt>
      <trkpt lat="40.7782750" lon="0.1840050">
        <ele>903.2</ele>
      </trkpt>
      <trkpt lat="40.7782440" lon="0.1839950">
        <ele>903.6</ele>
      </trkpt>
      <trkpt lat="40.7782130" lon="0.1840020">
        <ele>904.0</ele>
      </trkpt>
      <trkpt lat="40.7781870" lon="0.1839950">
        <ele>904.3</ele>
      </trkpt>
      <trkpt lat="40.7781530" lon="0.1839950">
        <ele>904.6</ele>
      </trkpt>
      <trkpt lat="40.7781220" lon="0.1839940">
        <ele>904.9</ele>
      </trkpt>
      <trkpt lat="40.7780980" lon="0.1839720">
        <ele>904.3</ele>
      </trkpt>
      <trkpt lat="40.7780690" lon="0.1839540">
        <ele>904.4</ele>
      </trkpt>
      <trkpt lat="40.7780510" lon="0.1839110">
        <ele>903.6</ele>
      </trkpt>
      <trkpt lat="40.7780380" lon="0.1838730">
        <ele>902.8</ele>
      </trkpt>
      <trkpt lat="40.7780080" lon="0.1838420">
        <ele>901.9</ele>
      </trkpt>
      <trkpt lat="40.7779780" lon="0.1838260">
        <ele>901.9</ele>
      </trkpt>
      <trkpt lat="40.7779420" lon="0.1838430">
        <ele>902.0</ele>
      </trkpt>
      <trkpt lat="40.7779200" lon="0.1838690">
        <ele>903.0</ele>
      </trkpt>
      <trkpt lat="40.7779070" lon="0.1839000">
        <ele>903.9</ele>
      </trkpt>
      <trkpt lat="40.7779090" lon="0.1839530">
        <ele>904.8</ele>
      </trkpt>
      <trkpt lat="40.7779130" lon="0.1839990">
        <ele>905.7</ele>
      </trkpt>
      <trkpt lat="40.7779200" lon="0.1840380">
        <ele>906.5</ele>
      </trkpt>
      <trkpt lat="40.7779270" lon="0.1840800">
        <ele>907.4</ele>
      </trkpt>
      <trkpt lat="40.7779280" lon="0.1841240">
        <ele>908.4</ele>
      </trkpt>
      <trkpt lat="40.7779470" lon="0.1841690">
        <ele>909.3</ele>
      </trkpt>
      <trkpt lat="40.7779690" lon="0.1842010">
        <ele>910.2</ele>
      </trkpt>
      <trkpt lat="40.7779980" lon="0.1842350">
        <ele>910.1</ele>
      </trkpt>
      <trkpt lat="40.7780210" lon="0.1842630">
        <ele>910.7</ele>
      </trkpt>
      <trkpt lat="40.7780380" lon="0.1842900">
        <ele>911.6</ele>
      </trkpt>
      <trkpt lat="40.7780560" lon="0.1843390">
        <ele>912.0</ele>
      </trkpt>
      <trkpt lat="40.7780600" lon="0.1843790">
        <ele>912.8</ele>
      </trkpt>
      <trkpt lat="40.7780650" lon="0.1844140">
        <ele>913.5</ele>
      </trkpt>
      <trkpt lat="40.7780670" lon="0.1844520">
        <ele>914.1</ele>
      </trkpt>
      <trkpt lat="40.7780690" lon="0.1845060">
        <ele>914.8</ele>
      </trkpt>
      <trkpt lat="40.7780780" lon="0.1845450">
        <ele>914.8</ele>
      </trkpt>
      <trkpt lat="40.7780940" lon="0.1845850">
        <ele>915.4</ele>
      </trkpt>
      <trkpt lat="40.7781130" lon="0.1846310">
        <ele>915.4</ele>
      </trkpt>
      <trkpt lat="40.7781310" lon="0.1846710">
        <ele>916.1</ele>
      </trkpt>
      <trkpt lat="40.7781480" lon="0.1847010">
        <ele>915.5</ele>
      </trkpt>
      <trkpt lat="40.7781680" lon="0.1847360">
        <ele>916.1</ele>
      </trkpt>
      <trkpt lat="40.7781780" lon="0.1847740">
        <ele>916.1</ele>
      </trkpt>
      <trkpt lat="40.7781900" lon="0.1848210">
        <ele>916.6</ele>
      </trkpt>
      <trkpt lat="40.7782010" lon="0.1848630">
        <ele>917.1</ele>
      </trkpt>
      <trkpt lat="40.7782050" lon="0.1849100">
        <ele>917.0</ele>
      </trkpt>
      <trkpt lat="40.7782070" lon="0.1849510">
        <ele>917.5</ele>
      </trkpt>
      <trkpt lat="40.7782190" lon="0.1850010">
        <ele>918.1</ele>
      </trkpt>
      <trkpt lat="40.7782250" lon="0.1850390">
        <ele>918.7</ele>
      </trkpt>
      <trkpt lat="40.7782300" lon="0.1850760">
        <ele>919.4</ele>
      </trkpt>
      <trkpt lat="40.7782320" lon="0.1851140">
        <ele>920.2</ele>
      </trkpt>
      <trkpt lat="40.7782320" lon="0.1851530">
        <ele>921.0</ele>
      </trkpt>
      <trkpt lat="40.7782400" lon="0.1851970">
        <ele>921.2</ele>
      </trkpt>
      <trkpt lat="40.7782530" lon="0.1852410">
        <ele>922.1</ele>
      </trkpt>
      <trkpt lat="40.7782750" lon="0.1852760">
        <ele>922.3</ele>
      </trkpt>
      <trkpt lat="40.7783010" lon="0.1853010">
        <ele>921.5</ele>
      </trkpt>
      <trkpt lat="40.7783260" lon="0.1853310">
        <ele>922.4</ele>
      </trkpt>
      <trkpt lat="40.7783490" lon="0.1853590">
        <ele>922.5</ele>
      </trkpt>
      <trkpt lat="40.7783730" lon="0.1853780">
        <ele>921.7</ele>
      </trkpt>
      <trkpt lat="40.7784050" lon="0.1854010">
        <ele>921.9</ele>
      </trkpt>
      <trkpt lat="40.7784360" lon="0.1854330">
        <ele>921.1</ele>
      </trkpt>
      <trkpt lat="40.7784580" lon="0.1854610">
        <ele>922.2</ele>
      </trkpt>
      <trkpt lat="40.7784840" lon="0.1854970">
        <ele>922.6</ele>
      </trkpt>
      <trkpt lat="40.7785060" lon="0.1855320">
        <ele>923.2</ele>
      </trkpt>
      <trkpt lat="40.7785300" lon="0.1855610">
        <ele>922.4</ele>
      </trkpt>
      <trkpt lat="40.7785530" lon="0.1855890">
        <ele>923.7</ele>
      </trkpt>
      <trkpt lat="40.7785790" lon="0.1856190">
        <ele>924.3</ele>
      </trkpt>
      <trkpt lat="40.7785930" lon="0.1856610">
        <ele>924.9</ele>
      </trkpt>
      <trkpt lat="40.7786110" lon="0.1857020">
        <ele>926.2</ele>
      </trkpt>
      <trkpt lat="40.7786400" lon="0.1857400">
        <ele>926.7</ele>
      </trkpt>
      <trkpt lat="40.7786620" lon="0.1857700">
        <ele>925.9</ele>
      </trkpt>
      <trkpt lat="40.7786820" lon="0.1858090">
        <ele>927.2</ele>
      </trkpt>
      <trkpt lat="40.7786990" lon="0.1858590">
        <ele>927.7</ele>
      </trkpt>
      <trkpt lat="40.7787180" lon="0.1858870">
        <ele>929.1</ele>
      </trkpt>
      <trkpt lat="40.7787370" lon="0.1859160">
        <ele>929.8</ele>
      </trkpt>
      <trkpt lat="40.7787600" lon="0.1859490">
        <ele>929.1</ele>
      </trkpt>
      <trkpt lat="40.7787800" lon="0.1859860">
        <ele>930.5</ele>
      </trkpt>
      <trkpt lat="40.7787930" lon="0.1860220">
        <ele>931.4</ele>
      </trkpt>
      <trkpt lat="40.7788090" lon="0.1860700">
        <ele>932.9</ele>
      </trkpt>
      <trkpt lat="40.7788290" lon="0.1861220">
        <ele>933.8</ele>
      </trkpt>
      <trkpt lat="40.7788550" lon="0.1861680">
        <ele>936.1</ele>
      </trkpt>
      <trkpt lat="40.7788860" lon="0.1862110">
        <ele>936.8</ele>
      </trkpt>
      <trkpt lat="40.7789220" lon="0.1862480">
        <ele>936.1</ele>
      </trkpt>
      <trkpt lat="40.7789490" lon="0.1862660">
        <ele>937.4</ele>
      </trkpt>
      <trkpt lat="40.7789800" lon="0.1862950">
        <ele>936.7</ele>
      </trkpt>
      <trkpt lat="40.7789890" lon="0.1863420">
        <ele>938.6</ele>
      </trkpt>
      <trkpt lat="40.7789940" lon="0.1863780">
        <ele>938.6</ele>
      </trkpt>
      <trkpt lat="40.7790030" lon="0.1864170">
        <ele>939.9</ele>
      </trkpt>
      <trkpt lat="40.7790130" lon="0.1864690">
        <ele>942.4</ele>
      </trkpt>
      <trkpt lat="40.7790230" lon="0.1865260">
        <ele>943.0</ele>
      </trkpt>
      <trkpt lat="40.7790450" lon="0.1865740">
        <ele>944.2</ele>
      </trkpt>
      <trkpt lat="40.7790710" lon="0.1866150">
        <ele>944.7</ele>
      </trkpt>
      <trkpt lat="40.7790940" lon="0.1866490">
        <ele>945.1</ele>
      </trkpt>
      <trkpt lat="40.7791120" lon="0.1866800">
        <ele>944.5</ele>
      </trkpt>
      <trkpt lat="40.7791260" lon="0.1867220">
        <ele>945.6</ele>
      </trkpt>
      <trkpt lat="40.7791390" lon="0.1867590">
        <ele>946.7</ele>
      </trkpt>
      <trkpt lat="40.7791650" lon="0.1867930">
        <ele>947.7</ele>
      </trkpt>
      <trkpt lat="40.7791960" lon="0.1868140">
        <ele>948.2</ele>
      </trkpt>
      <trkpt lat="40.7792230" lon="0.1868230">
        <ele>947.9</ele>
      </trkpt>
      <trkpt lat="40.7792620" lon="0.1868410">
        <ele>947.6</ele>
      </trkpt>
      <trkpt lat="40.7792930" lon="0.1868610">
        <ele>948.3</ele>
      </trkpt>
      <trkpt lat="40.7793290" lon="0.1868800">
        <ele>948.2</ele>
      </trkpt>
      <trkpt lat="40.7793620" lon="0.1868940">
        <ele>948.0</ele>
      </trkpt>
      <trkpt lat="40.7793870" lon="0.1869070">
        <ele>948.8</ele>
      </trkpt>
      <trkpt lat="40.7794180" lon="0.1869270">
        <ele>948.8</ele>
      </trkpt>
      <trkpt lat="40.7794370" lon="0.1869570">
        <ele>949.5</ele>
      </trkpt>
      <trkpt lat="40.7794670" lon="0.1869790">
        <ele>949.5</ele>
      </trkpt>
      <trkpt lat="40.7794920" lon="0.1869990">
        <ele>950.2</ele>
      </trkpt>
      <trkpt lat="40.7795080" lon="0.1870450">
        <ele>950.7</ele>
      </trkpt>
      <trkpt lat="40.7795020" lon="0.1870880">
        <ele>951.1</ele>
      </trkpt>
      <trkpt lat="40.7794780" lon="0.1871080">
        <ele>951.0</ele>
      </trkpt>
      <trkpt lat="40.7795100" lon="0.1871030">
        <ele>951.1</ele>
      </trkpt>
      <trkpt lat="40.7794780" lon="0.1870840">
        <ele>951.0</ele>
      </trkpt>
      <trkpt lat="40.7794430" lon="0.1870770">
        <ele>951.0</ele>
      </trkpt>
      <trkpt lat="40.7794120" lon="0.1870700">
        <ele>951.1</ele>
      </trkpt>
      <trkpt lat="40.7793750" lon="0.1870630">
        <ele>950.8</ele>
      </trkpt>
      <trkpt lat="40.7793360" lon="0.1870570">
        <ele>951.2</ele>
      </trkpt>
      <trkpt lat="40.7792900" lon="0.1870560">
        <ele>951.4</ele>
      </trkpt>
      <trkpt lat="40.7792480" lon="0.1870610">
        <ele>951.7</ele>
      </trkpt>
      <trkpt lat="40.7792050" lon="0.1870800">
        <ele>952.9</ele>
      </trkpt>
      <trkpt lat="40.7791660" lon="0.1871130">
        <ele>953.9</ele>
      </trkpt>
      <trkpt lat="40.7791330" lon="0.1871490">
        <ele>954.5</ele>
      </trkpt>
      <trkpt lat="40.7791200" lon="0.1871840">
        <ele>955.0</ele>
      </trkpt>
      <trkpt lat="40.7790900" lon="0.1872220">
        <ele>956.2</ele>
      </trkpt>
      <trkpt lat="40.7790640" lon="0.1872450">
        <ele>957.5</ele>
      </trkpt>
      <trkpt lat="40.7790410" lon="0.1872720">
        <ele>958.4</ele>
      </trkpt>
      <trkpt lat="40.7790160" lon="0.1872930">
        <ele>958.9</ele>
      </trkpt>
      <trkpt lat="40.7789730" lon="0.1873200">
        <ele>960.6</ele>
      </trkpt>
      <trkpt lat="40.7789410" lon="0.1873440">
        <ele>961.9</ele>
      </trkpt>
      <trkpt lat="40.7789140" lon="0.1873690">
        <ele>963.2</ele>
      </trkpt>
      <trkpt lat="40.7788810" lon="0.1874030">
        <ele>964.1</ele>
      </trkpt>
      <trkpt lat="40.7788580" lon="0.1874240">
        <ele>964.5</ele>
      </trkpt>
      <trkpt lat="40.7788260" lon="0.1874680">
        <ele>965.7</ele>
      </trkpt>
      <trkpt lat="40.7788050" lon="0.1875130">
        <ele>966.8</ele>
      </trkpt>
      <trkpt lat="40.7787820" lon="0.1875560">
        <ele>967.9</ele>
      </trkpt>
      <trkpt lat="40.7787640" lon="0.1876000">
        <ele>968.1</ele>
      </trkpt>
      <trkpt lat="40.7787380" lon="0.1876470">
        <ele>969.2</ele>
      </trkpt>
      <trkpt lat="40.7787210" lon="0.1876810">
        <ele>970.2</ele>
      </trkpt>
      <trkpt lat="40.7787020" lon="0.1877160">
        <ele>970.3</ele>
      </trkpt>
      <trkpt lat="40.7786710" lon="0.1877540">
        <ele>971.3</ele>
      </trkpt>
      <trkpt lat="40.7786450" lon="0.1877940">
        <ele>972.3</ele>
      </trkpt>
      <trkpt lat="40.7786290" lon="0.1878460">
        <ele>972.3</ele>
      </trkpt>
      <trkpt lat="40.7786240" lon="0.1878860">
        <ele>973.3</ele>
      </trkpt>
      <trkpt lat="40.7786310" lon="0.1879260">
        <ele>972.3</ele>
      </trkpt>
      <trkpt lat="40.7786420" lon="0.1879640">
        <ele>972.1</ele>
      </trkpt>
      <trkpt lat="40.7786540" lon="0.1880000">
        <ele>972.0</ele>
      </trkpt>
      <trkpt lat="40.7786610" lon="0.1880420">
        <ele>970.7</ele>
      </trkpt>
      <trkpt lat="40.7786740" lon="0.1880840">
        <ele>970.5</ele>
      </trkpt>
      <trkpt lat="40.7786860" lon="0.1881170">
        <ele>970.2</ele>
      </trkpt>
      <trkpt lat="40.7787010" lon="0.1881610">
        <ele>968.8</ele>
      </trkpt>
      <trkpt lat="40.7786980" lon="0.1882080">
        <ele>968.5</ele>
      </trkpt>
      <trkpt lat="40.7787050" lon="0.1882590">
        <ele>968.1</ele>
      </trkpt>
      <trkpt lat="40.7787070" lon="0.1882950">
        <ele>967.8</ele>
      </trkpt>
      <trkpt lat="40.7787000" lon="0.1883370">
        <ele>967.4</ele>
      </trkpt>
      <trkpt lat="40.7786740" lon="0.1883650">
        <ele>968.2</ele>
      </trkpt>
      <trkpt lat="40.7786740" lon="0.1884010">
        <ele>967.8</ele>
      </trkpt>
      <trkpt lat="40.7786510" lon="0.1884360">
        <ele>969.1</ele>
      </trkpt>
      <trkpt lat="40.7786280" lon="0.1884740">
        <ele>968.7</ele>
      </trkpt>
      <trkpt lat="40.7786050" lon="0.1885100">
        <ele>969.6</ele>
      </trkpt>
      <trkpt lat="40.7785870" lon="0.1885460">
        <ele>970.6</ele>
      </trkpt>
      <trkpt lat="40.7785780" lon="0.1885880">
        <ele>970.2</ele>
      </trkpt>
      <trkpt lat="40.7785660" lon="0.1886300">
        <ele>969.7</ele>
      </trkpt>
      <trkpt lat="40.7785580" lon="0.1886740">
        <ele>970.7</ele>
      </trkpt>
      <trkpt lat="40.7785450" lon="0.1887080">
        <ele>970.3</ele>
      </trkpt>
      <trkpt lat="40.7785320" lon="0.1887410">
        <ele>970.3</ele>
      </trkpt>
      <trkpt lat="40.7785260" lon="0.1887820">
        <ele>971.4</ele>
      </trkpt>
      <trkpt lat="40.7785170" lon="0.1888300">
        <ele>970.7</ele>
      </trkpt>
      <trkpt lat="40.7784940" lon="0.1888720">
        <ele>971.9</ele>
      </trkpt>
      <trkpt lat="40.7784700" lon="0.1889060">
        <ele>971.9</ele>
      </trkpt>
      <trkpt lat="40.7784440" lon="0.1889300">
        <ele>973.0</ele>
      </trkpt>
      <trkpt lat="40.7784170" lon="0.1889440">
        <ele>974.5</ele>
      </trkpt>
      <trkpt lat="40.7783910" lon="0.1889600">
        <ele>975.8</ele>
      </trkpt>
      <trkpt lat="40.7783620" lon="0.1889830">
        <ele>977.5</ele>
      </trkpt>
      <trkpt lat="40.7783300" lon="0.1890030">
        <ele>979.0</ele>
      </trkpt>
      <trkpt lat="40.7783140" lon="0.1890420">
        <ele>979.0</ele>
      </trkpt>
      <trkpt lat="40.7783010" lon="0.1890810">
        <ele>978.8</ele>
      </trkpt>
      <trkpt lat="40.7782900" lon="0.1891220">
        <ele>980.3</ele>
      </trkpt>
      <trkpt lat="40.7782820" lon="0.1891630">
        <ele>980.1</ele>
      </trkpt>
      <trkpt lat="40.7782760" lon="0.1892060">
        <ele>980.0</ele>
      </trkpt>
      <trkpt lat="40.7782700" lon="0.1892520">
        <ele>980.0</ele>
      </trkpt>
      <trkpt lat="40.7782650" lon="0.1892930">
        <ele>981.5</ele>
      </trkpt>
      <trkpt lat="40.7782660" lon="0.1893350">
        <ele>981.5</ele>
      </trkpt>
      <trkpt lat="40.7782630" lon="0.1893770">
        <ele>981.6</ele>
      </trkpt>
      <trkpt lat="40.7782550" lon="0.1894210">
        <ele>981.7</ele>
      </trkpt>
      <trkpt lat="40.7782570" lon="0.1894690">
        <ele>981.8</ele>
      </trkpt>
      <trkpt lat="40.7782680" lon="0.1895160">
        <ele>980.5</ele>
      </trkpt>
      <trkpt lat="40.7782750" lon="0.1895550">
        <ele>980.5</ele>
      </trkpt>
      <trkpt lat="40.7782810" lon="0.1895950">
        <ele>980.8</ele>
      </trkpt>
      <trkpt lat="40.7782900" lon="0.1896310">
        <ele>981.0</ele>
      </trkpt>
      <trkpt lat="40.7783090" lon="0.1896670">
        <ele>979.5</ele>
      </trkpt>
      <trkpt lat="40.7783280" lon="0.1897020">
        <ele>979.8</ele>
      </trkpt>
      <trkpt lat="40.7783530" lon="0.1897380">
        <ele>978.0</ele>
      </trkpt>
      <trkpt lat="40.7783800" lon="0.1897760">
        <ele>976.2</ele>
      </trkpt>
      <trkpt lat="40.7783660" lon="0.1898200">
        <ele>976.5</ele>
      </trkpt>
      <trkpt lat="40.7783400" lon="0.1898570">
        <ele>978.6</ele>
      </trkpt>
      <trkpt lat="40.7783250" lon="0.1898920">
        <ele>981.1</ele>
      </trkpt>
      <trkpt lat="40.7783000" lon="0.1899330">
        <ele>981.4</ele>
      </trkpt>
      <trkpt lat="40.7782840" lon="0.1899710">
        <ele>984.0</ele>
      </trkpt>
      <trkpt lat="40.7782720" lon="0.1900160">
        <ele>984.4</ele>
      </trkpt>
      <trkpt lat="40.7782580" lon="0.1900610">
        <ele>986.9</ele>
      </trkpt>
      <trkpt lat="40.7782490" lon="0.1901060">
        <ele>987.5</ele>
      </trkpt>
      <trkpt lat="40.7782380" lon="0.1901430">
        <ele>988.1</ele>
      </trkpt>
      <trkpt lat="40.7782320" lon="0.1901800">
        <ele>990.5</ele>
      </trkpt>
      <trkpt lat="40.7782140" lon="0.1902190">
        <ele>991.2</ele>
      </trkpt>
      <trkpt lat="40.7781860" lon="0.1902720">
        <ele>993.6</ele>
      </trkpt>
      <trkpt lat="40.7781590" lon="0.1903250">
        <ele>996.1</ele>
      </trkpt>
      <trkpt lat="40.7781460" lon="0.1903750">
        <ele>997.8</ele>
      </trkpt>
      <trkpt lat="40.7781440" lon="0.1904240">
        <ele>998.8</ele>
      </trkpt>
      <trkpt lat="40.7781430" lon="0.1904680">
        <ele>999.8</ele>
      </trkpt>
      <trkpt lat="40.7781430" lon="0.1905090">
        <ele>1001.0</ele>
      </trkpt>
      <trkpt lat="40.7781420" lon="0.1905540">
        <ele>1002.1</ele>
      </trkpt>
      <trkpt lat="40.7781340" lon="0.1906010">
        <ele>1005.1</ele>
      </trkpt>
      <trkpt lat="40.7781330" lon="0.1906510">
        <ele>1006.3</ele>
      </trkpt>
      <trkpt lat="40.7781420" lon="0.1906990">
        <ele>1005.7</ele>
      </trkpt>
      <trkpt lat="40.7781400" lon="0.1907480">
        <ele>1006.9</ele>
      </trkpt>
      <trkpt lat="40.7781360" lon="0.1907890">
        <ele>1009.9</ele>
      </trkpt>
      <trkpt lat="40.7781290" lon="0.1908320">
        <ele>1011.1</ele>
      </trkpt>
      <trkpt lat="40.7781320" lon="0.1908770">
        <ele>1012.4</ele>
      </trkpt>
      <trkpt lat="40.7781440" lon="0.1909230">
        <ele>1012.0</ele>
      </trkpt>
      <trkpt lat="40.7781550" lon="0.1909640">
        <ele>1013.3</ele>
      </trkpt>
      <trkpt lat="40.7781690" lon="0.1910030">
        <ele>1014.7</ele>
      </trkpt>
      <trkpt lat="40.7781920" lon="0.1910370">
        <ele>1014.3</ele>
      </trkpt>
      <trkpt lat="40.7782050" lon="0.1910730">
        <ele>1013.9</ele>
      </trkpt>
      <trkpt lat="40.7781900" lon="0.1911070">
        <ele>1016.8</ele>
      </trkpt>
      <trkpt lat="40.7781590" lon="0.1911130">
        <ele>1018.5</ele>
      </trkpt>
      <trkpt lat="40.7781330" lon="0.1911290">
        <ele>1020.3</ele>
      </trkpt>
      <trkpt lat="40.7781080" lon="0.1911100">
        <ele>1020.3</ele>
      </trkpt>
      <trkpt lat="40.7780830" lon="0.1910840">
        <ele>1020.9</ele>
      </trkpt>
      <trkpt lat="40.7780620" lon="0.1910470">
        <ele>1021.5</ele>
      </trkpt>
      <trkpt lat="40.7780570" lon="0.1909990">
        <ele>1020.2</ele>
      </trkpt>
      <trkpt lat="40.7780560" lon="0.1909500">
        <ele>1018.8</ele>
      </trkpt>
      <trkpt lat="40.7780540" lon="0.1909060">
        <ele>1017.5</ele>
      </trkpt>
      <trkpt lat="40.7780510" lon="0.1908600">
        <ele>1016.2</ele>
      </trkpt>
      <trkpt lat="40.7780460" lon="0.1908090">
        <ele>1014.9</ele>
      </trkpt>
      <trkpt lat="40.7780370" lon="0.1907720">
        <ele>1015.4</ele>
      </trkpt>
      <trkpt lat="40.7780240" lon="0.1907370">
        <ele>1014.2</ele>
      </trkpt>
      <trkpt lat="40.7780050" lon="0.1906960">
        <ele>1014.6</ele>
      </trkpt>
      <trkpt lat="40.7779810" lon="0.1906640">
        <ele>1013.4</ele>
      </trkpt>
      <trkpt lat="40.7779620" lon="0.1906250">
        <ele>1013.5</ele>
      </trkpt>
      <trkpt lat="40.7779570" lon="0.1905890">
        <ele>1013.5</ele>
      </trkpt>
      <trkpt lat="40.7779600" lon="0.1905440">
        <ele>1011.0</ele>
      </trkpt>
      <trkpt lat="40.7779580" lon="0.1905040">
        <ele>1011.0</ele>
      </trkpt>
      <trkpt lat="40.7779550" lon="0.1904540">
        <ele>1008.6</ele>
      </trkpt>
      <trkpt lat="40.7779440" lon="0.1904160">
        <ele>1008.6</ele>
      </trkpt>
      <trkpt lat="40.7779380" lon="0.1903790">
        <ele>1008.9</ele>
      </trkpt>
      <trkpt lat="40.7779310" lon="0.1903340">
        <ele>1007.9</ele>
      </trkpt>
      <trkpt lat="40.7779320" lon="0.1902930">
        <ele>1007.1</ele>
      </trkpt>
      <trkpt lat="40.7779310" lon="0.1902480">
        <ele>1006.2</ele>
      </trkpt>
      <trkpt lat="40.7779290" lon="0.1901990">
        <ele>1004.7</ele>
      </trkpt>
      <trkpt lat="40.7779350" lon="0.1901510">
        <ele>1004.0</ele>
      </trkpt>
      <trkpt lat="40.7779350" lon="0.1901050">
        <ele>1003.3</ele>
      </trkpt>
      <trkpt lat="40.7779380" lon="0.1900600">
        <ele>1002.6</ele>
      </trkpt>
      <trkpt lat="40.7779360" lon="0.1900200">
        <ele>1002.0</ele>
      </trkpt>
      <trkpt lat="40.7779370" lon="0.1899850">
        <ele>1001.4</ele>
      </trkpt>
      <trkpt lat="40.7779380" lon="0.1899400">
        <ele>1000.8</ele>
      </trkpt>
      <trkpt lat="40.7779310" lon="0.1898970">
        <ele>1000.3</ele>
      </trkpt>
      <trkpt lat="40.7779230" lon="0.1898520">
        <ele>999.9</ele>
      </trkpt>
      <trkpt lat="40.7779080" lon="0.1898040">
        <ele>1000.6</ele>
      </trkpt>
      <trkpt lat="40.7778790" lon="0.1897550">
        <ele>1000.1</ele>
      </trkpt>
      <trkpt lat="40.7778430" lon="0.1897110">
        <ele>1002.0</ele>
      </trkpt>
      <trkpt lat="40.7778010" lon="0.1896690">
        <ele>1002.7</ele>
      </trkpt>
      <trkpt lat="40.7777680" lon="0.1896310">
        <ele>1003.2</ele>
      </trkpt>
      <trkpt lat="40.7777410" lon="0.1896020">
        <ele>1004.2</ele>
      </trkpt>
      <trkpt lat="40.7777170" lon="0.1895820">
        <ele>1003.7</ele>
      </trkpt>
      <trkpt lat="40.7776910" lon="0.1895540">
        <ele>1004.0</ele>
      </trkpt>
      <trkpt lat="40.7776610" lon="0.1895230">
        <ele>1004.7</ele>
      </trkpt>
      <trkpt lat="40.7776460" lon="0.1894850">
        <ele>1004.8</ele>
      </trkpt>
      <trkpt lat="40.7776390" lon="0.1894500">
        <ele>1004.3</ele>
      </trkpt>
      <trkpt lat="40.7776340" lon="0.1893950">
        <ele>1003.9</ele>
      </trkpt>
      <trkpt lat="40.7776290" lon="0.1893500">
        <ele>1003.5</ele>
      </trkpt>
      <trkpt lat="40.7776260" lon="0.1893140">
        <ele>1003.1</ele>
      </trkpt>
      <trkpt lat="40.7776190" lon="0.1892680">
        <ele>1002.8</ele>
      </trkpt>
      <trkpt lat="40.7776060" lon="0.1892210">
        <ele>1002.9</ele>
      </trkpt>
      <trkpt lat="40.7775960" lon="0.1891810">
        <ele>1002.5</ele>
      </trkpt>
      <trkpt lat="40.7775760" lon="0.1891460">
        <ele>1002.5</ele>
      </trkpt>
      <trkpt lat="40.7775510" lon="0.1891130">
        <ele>1002.4</ele>
      </trkpt>
      <trkpt lat="40.7775280" lon="0.1890800">
        <ele>1001.9</ele>
      </trkpt>
      <trkpt lat="40.7775090" lon="0.1890540">
        <ele>1002.2</ele>
      </trkpt>
      <trkpt lat="40.7774910" lon="0.1890160">
        <ele>1001.7</ele>
      </trkpt>
      <trkpt lat="40.7774920" lon="0.1889790">
        <ele>1001.3</ele>
      </trkpt>
      <trkpt lat="40.7774780" lon="0.1889360">
        <ele>1000.9</ele>
      </trkpt>
      <trkpt lat="40.7774550" lon="0.1888940">
        <ele>1000.4</ele>
      </trkpt>
      <trkpt lat="40.7774320" lon="0.1888640">
        <ele>999.9</ele>
      </trkpt>
      <trkpt lat="40.7774060" lon="0.1888420">
        <ele>999.9</ele>
      </trkpt>
      <trkpt lat="40.7773770" lon="0.1888300">
        <ele>999.8</ele>
      </trkpt>
      <trkpt lat="40.7773440" lon="0.1888330">
        <ele>999.8</ele>
      </trkpt>
      <trkpt lat="40.7773130" lon="0.1888430">
        <ele>999.7</ele>
      </trkpt>
      <trkpt lat="40.7772860" lon="0.1888530">
        <ele>999.7</ele>
      </trkpt>
      <trkpt lat="40.7772540" lon="0.1888700">
        <ele>999.6</ele>
      </trkpt>
      <trkpt lat="40.7772290" lon="0.1888850">
        <ele>1000.3</ele>
      </trkpt>
      <trkpt lat="40.7772080" lon="0.1889190">
        <ele>1000.9</ele>
      </trkpt>
      <trkpt lat="40.7772200" lon="0.1889720">
        <ele>1001.6</ele>
      </trkpt>
      <trkpt lat="40.7772290" lon="0.1890090">
        <ele>1002.3</ele>
      </trkpt>
      <trkpt lat="40.7772340" lon="0.1890470">
        <ele>1003.0</ele>
      </trkpt>
      <trkpt lat="40.7772400" lon="0.1890980">
        <ele>1003.7</ele>
      </trkpt>
      <trkpt lat="40.7772540" lon="0.1891430">
        <ele>1004.5</ele>
      </trkpt>
      <trkpt lat="40.7772610" lon="0.1891920">
        <ele>1005.2</ele>
      </trkpt>
      <trkpt lat="40.7772570" lon="0.1892350">
        <ele>1006.2</ele>
      </trkpt>
      <trkpt lat="40.7772600" lon="0.1892790">
        <ele>1006.7</ele>
      </trkpt>
      <trkpt lat="40.7772670" lon="0.1893230">
        <ele>1007.5</ele>
      </trkpt>
      <trkpt lat="40.7772700" lon="0.1893640">
        <ele>1008.2</ele>
      </trkpt>
      <trkpt lat="40.7772720" lon="0.1894060">
        <ele>1009.0</ele>
      </trkpt>
      <trkpt lat="40.7772760" lon="0.1894460">
        <ele>1009.8</ele>
      </trkpt>
      <trkpt lat="40.7772770" lon="0.1894840">
        <ele>1010.6</ele>
      </trkpt>
      <trkpt lat="40.7772840" lon="0.1895210">
        <ele>1011.5</ele>
      </trkpt>
      <trkpt lat="40.7772980" lon="0.1895600">
        <ele>1012.0</ele>
      </trkpt>
      <trkpt lat="40.7773140" lon="0.1895960">
        <ele>1012.0</ele>
      </trkpt>
      <trkpt lat="40.7773280" lon="0.1896310">
        <ele>1012.5</ele>
      </trkpt>
      <trkpt lat="40.7773310" lon="0.1896710">
        <ele>1013.6</ele>
      </trkpt>
      <trkpt lat="40.7773510" lon="0.1897110">
        <ele>1014.6</ele>
      </trkpt>
      <trkpt lat="40.7773730" lon="0.1897500">
        <ele>1015.1</ele>
      </trkpt>
      <trkpt lat="40.7773870" lon="0.1897880">
        <ele>1016.1</ele>
      </trkpt>
      <trkpt lat="40.7773940" lon="0.1898310">
        <ele>1016.4</ele>
      </trkpt>
      <trkpt lat="40.7773960" lon="0.1898720">
        <ele>1017.3</ele>
      </trkpt>
      <trkpt lat="40.7773880" lon="0.1899070">
        <ele>1018.9</ele>
      </trkpt>
      <trkpt lat="40.7773740" lon="0.1899410">
        <ele>1018.9</ele>
      </trkpt>
      <trkpt lat="40.7773590" lon="0.1899910">
        <ele>1021.0</ele>
      </trkpt>
      <trkpt lat="40.7773510" lon="0.1900310">
        <ele>1022.9</ele>
      </trkpt>
      <trkpt lat="40.7773480" lon="0.1900740">
        <ele>1024.0</ele>
      </trkpt>
      <trkpt lat="40.7773420" lon="0.1901100">
        <ele>1024.0</ele>
      </trkpt>
      <trkpt lat="40.7773440" lon="0.1901590">
        <ele>1026.3</ele>
      </trkpt>
      <trkpt lat="40.7773450" lon="0.1902100">
        <ele>1027.4</ele>
      </trkpt>
      <trkpt lat="40.7773460" lon="0.1902490">
        <ele>1028.5</ele>
      </trkpt>
      <trkpt lat="40.7773530" lon="0.1902840">
        <ele>1028.5</ele>
      </trkpt>
      <trkpt lat="40.7773620" lon="0.1903290">
        <ele>1028.7</ele>
      </trkpt>
      <trkpt lat="40.7773650" lon="0.1903760">
        <ele>1030.9</ele>
      </trkpt>
      <trkpt lat="40.7773650" lon="0.1904300">
        <ele>1032.0</ele>
      </trkpt>
      <trkpt lat="40.7773660" lon="0.1904670">
        <ele>1033.1</ele>
      </trkpt>
      <trkpt lat="40.7773690" lon="0.1905170">
        <ele>1034.3</ele>
      </trkpt>
      <trkpt lat="40.7773690" lon="0.1905640">
        <ele>1035.4</ele>
      </trkpt>
      <trkpt lat="40.7773690" lon="0.1906090">
        <ele>1036.5</ele>
      </trkpt>
      <trkpt lat="40.7773650" lon="0.1906530">
        <ele>1037.6</ele>
      </trkpt>
      <trkpt lat="40.7773640" lon="0.1906980">
        <ele>1038.5</ele>
      </trkpt>
      <trkpt lat="40.7773610" lon="0.1907410">
        <ele>1039.4</ele>
      </trkpt>
      <trkpt lat="40.7773570" lon="0.1907800">
        <ele>1040.3</ele>
      </trkpt>
      <trkpt lat="40.7773560" lon="0.1908250">
        <ele>1041.9</ele>
      </trkpt>
      <trkpt lat="40.7773600" lon="0.1908710">
        <ele>1042.0</ele>
      </trkpt>
      <trkpt lat="40.7773700" lon="0.1909180">
        <ele>1042.8</ele>
      </trkpt>
      <trkpt lat="40.7773750" lon="0.1909680">
        <ele>1043.6</ele>
      </trkpt>
      <trkpt lat="40.7773760" lon="0.1910170">
        <ele>1045.0</ele>
      </trkpt>
      <trkpt lat="40.7773800" lon="0.1910670">
        <ele>1045.6</ele>
      </trkpt>
      <trkpt lat="40.7773840" lon="0.1911180">
        <ele>1046.2</ele>
      </trkpt>
      <trkpt lat="40.7773850" lon="0.1911710">
        <ele>1046.7</ele>
      </trkpt>
      <trkpt lat="40.7773890" lon="0.1912250">
        <ele>1047.2</ele>
      </trkpt>
      <trkpt lat="40.7773940" lon="0.1912810">
        <ele>1047.6</ele>
      </trkpt>
      <trkpt lat="40.7774060" lon="0.1913350">
        <ele>1048.1</ele>
      </trkpt>
      <trkpt lat="40.7774170" lon="0.1913820">
        <ele>1048.6</ele>
      </trkpt>
      <trkpt lat="40.7774320" lon="0.1914230">
        <ele>1048.5</ele>
      </trkpt>
      <trkpt lat="40.7774440" lon="0.1914650">
        <ele>1049.0</ele>
      </trkpt>
      <trkpt lat="40.7774570" lon="0.1915180">
        <ele>1048.9</ele>
      </trkpt>
      <trkpt lat="40.7774840" lon="0.1915680">
        <ele>1049.2</ele>
      </trkpt>
      <trkpt lat="40.7775080" lon="0.1916120">
        <ele>1048.9</ele>
      </trkpt>
      <trkpt lat="40.7775220" lon="0.1916590">
        <ele>1048.4</ele>
      </trkpt>
      <trkpt lat="40.7775310" lon="0.1917120">
        <ele>1048.5</ele>
      </trkpt>
      <trkpt lat="40.7775420" lon="0.1917650">
        <ele>1048.4</ele>
      </trkpt>
      <trkpt lat="40.7775450" lon="0.1918210">
        <ele>1048.2</ele>
      </trkpt>
      <trkpt lat="40.7775430" lon="0.1918760">
        <ele>1047.7</ele>
      </trkpt>
      <trkpt lat="40.7775290" lon="0.1919230">
        <ele>1047.3</ele>
      </trkpt>
      <trkpt lat="40.7775060" lon="0.1919510">
        <ele>1048.0</ele>
      </trkpt>
      <trkpt lat="40.7774810" lon="0.1919700">
        <ele>1048.2</ele>
      </trkpt>
      <trkpt lat="40.7774550" lon="0.1919870">
        <ele>1048.2</ele>
      </trkpt>
      <trkpt lat="40.7774290" lon="0.1920020">
        <ele>1048.8</ele>
      </trkpt>
      <trkpt lat="40.7774020" lon="0.1920300">
        <ele>1048.9</ele>
      </trkpt>
      <trkpt lat="40.7773740" lon="0.1920510">
        <ele>1048.9</ele>
      </trkpt>
      <trkpt lat="40.7773480" lon="0.1920710">
        <ele>1049.3</ele>
      </trkpt>
      <trkpt lat="40.7773240" lon="0.1920890">
        <ele>1049.8</ele>
      </trkpt>
      <trkpt lat="40.7772910" lon="0.1921140">
        <ele>1049.8</ele>
      </trkpt>
      <trkpt lat="40.7772580" lon="0.1921500">
        <ele>1049.8</ele>
      </trkpt>
      <trkpt lat="40.7772230" lon="0.1921940">
        <ele>1049.9</ele>
      </trkpt>
      <trkpt lat="40.7772030" lon="0.1922400">
        <ele>1049.5</ele>
      </trkpt>
      <trkpt lat="40.7771900" lon="0.1922880">
        <ele>1049.6</ele>
      </trkpt>
      <trkpt lat="40.7771790" lon="0.1923280">
        <ele>1049.3</ele>
      </trkpt>
      <trkpt lat="40.7771640" lon="0.1923640">
        <ele>1048.9</ele>
      </trkpt>
      <trkpt lat="40.7771450" lon="0.1924100">
        <ele>1049.3</ele>
      </trkpt>
      <trkpt lat="40.7771240" lon="0.1924370">
        <ele>1049.7</ele>
      </trkpt>
      <trkpt lat="40.7770900" lon="0.1924630">
        <ele>1050.3</ele>
      </trkpt>
      <trkpt lat="40.7770640" lon="0.1924980">
        <ele>1050.9</ele>
      </trkpt>
      <trkpt lat="40.7770400" lon="0.1925290">
        <ele>1050.8</ele>
      </trkpt>
      <trkpt lat="40.7770280" lon="0.1925630">
        <ele>1051.5</ele>
      </trkpt>
      <trkpt lat="40.7770070" lon="0.1926080">
        <ele>1051.6</ele>
      </trkpt>
      <trkpt lat="40.7769860" lon="0.1926370">
        <ele>1052.3</ele>
      </trkpt>
      <trkpt lat="40.7769620" lon="0.1926640">
        <ele>1053.1</ele>
      </trkpt>
      <trkpt lat="40.7769370" lon="0.1926890">
        <ele>1053.1</ele>
      </trkpt>
      <trkpt lat="40.7769120" lon="0.1927110">
        <ele>1054.0</ele>
      </trkpt>
      <trkpt lat="40.7768850" lon="0.1927300">
        <ele>1054.8</ele>
      </trkpt>
      <trkpt lat="40.7768500" lon="0.1927500">
        <ele>1055.8</ele>
      </trkpt>
      <trkpt lat="40.7768110" lon="0.1927770">
        <ele>1056.8</ele>
      </trkpt>
      <trkpt lat="40.7767780" lon="0.1928010">
        <ele>1057.4</ele>
      </trkpt>
      <trkpt lat="40.7767510" lon="0.1928250">
        <ele>1058.4</ele>
      </trkpt>
      <trkpt lat="40.7767310" lon="0.1928650">
        <ele>1059.5</ele>
      </trkpt>
      <trkpt lat="40.7767130" lon="0.1929100">
        <ele>1060.1</ele>
      </trkpt>
      <trkpt lat="40.7766910" lon="0.1929580">
        <ele>1061.3</ele>
      </trkpt>
      <trkpt lat="40.7766690" lon="0.1930010">
        <ele>1062.8</ele>
      </trkpt>
      <trkpt lat="40.7766460" lon="0.1930410">
        <ele>1063.5</ele>
      </trkpt>
      <trkpt lat="40.7766290" lon="0.1930790">
        <ele>1065.1</ele>
      </trkpt>
      <trkpt lat="40.7766170" lon="0.1931230">
        <ele>1065.8</ele>
      </trkpt>
      <trkpt lat="40.7766050" lon="0.1931650">
        <ele>1067.5</ele>
      </trkpt>
      <trkpt lat="40.7765900" lon="0.1932000">
        <ele>1067.5</ele>
      </trkpt>
      <trkpt lat="40.7765730" lon="0.1932300">
        <ele>1069.0</ele>
      </trkpt>
      <trkpt lat="40.7765540" lon="0.1932620">
        <ele>1069.8</ele>
      </trkpt>
      <trkpt lat="40.7765290" lon="0.1932980">
        <ele>1071.2</ele>
      </trkpt>
      <trkpt lat="40.7765060" lon="0.1933400">
        <ele>1072.8</ele>
      </trkpt>
      <trkpt lat="40.7764900" lon="0.1933770">
        <ele>1073.6</ele>
      </trkpt>
      <trkpt lat="40.7764650" lon="0.1934300">
        <ele>1075.1</ele>
      </trkpt>
      <trkpt lat="40.7764510" lon="0.1934600">
        <ele>1075.2</ele>
      </trkpt>
      <trkpt lat="40.7764340" lon="0.1934940">
        <ele>1076.8</ele>
      </trkpt>
      <trkpt lat="40.7764170" lon="0.1935280">
        <ele>1077.6</ele>
      </trkpt>
      <trkpt lat="40.7764020" lon="0.1935590">
        <ele>1079.3</ele>
      </trkpt>
      <trkpt lat="40.7763690" lon="0.1936140">
        <ele>1080.9</ele>
      </trkpt>
      <trkpt lat="40.7763470" lon="0.1936370">
        <ele>1082.6</ele>
      </trkpt>
      <trkpt lat="40.7763060" lon="0.1936780">
        <ele>1084.1</ele>
      </trkpt>
      <trkpt lat="40.7762740" lon="0.1937170">
        <ele>1084.8</ele>
      </trkpt>
      <trkpt lat="40.7762440" lon="0.1937600">
        <ele>1086.0</ele>
      </trkpt>
      <trkpt lat="40.7762230" lon="0.1938010">
        <ele>1086.6</ele>
      </trkpt>
      <trkpt lat="40.7762030" lon="0.1938390">
        <ele>1087.7</ele>
      </trkpt>
      <trkpt lat="40.7761730" lon="0.1938740">
        <ele>1088.8</ele>
      </trkpt>
      <trkpt lat="40.7761510" lon="0.1939090">
        <ele>1089.9</ele>
      </trkpt>
      <trkpt lat="40.7761280" lon="0.1939450">
        <ele>1090.2</ele>
      </trkpt>
      <trkpt lat="40.7761090" lon="0.1939940">
        <ele>1091.2</ele>
      </trkpt>
      <trkpt lat="40.7760990" lon="0.1940340">
        <ele>1091.4</ele>
      </trkpt>
      <trkpt lat="40.7760870" lon="0.1940880">
        <ele>1092.2</ele>
      </trkpt>
      <trkpt lat="40.7760820" lon="0.1941360">
        <ele>1092.2</ele>
      </trkpt>
      <trkpt lat="40.7760770" lon="0.1941870">
        <ele>1092.0</ele>
      </trkpt>
      <trkpt lat="40.7760740" lon="0.1942420">
        <ele>1091.2</ele>
      </trkpt>
      <trkpt lat="40.7760730" lon="0.1942960">
        <ele>1090.8</ele>
      </trkpt>
      <trkpt lat="40.7760710" lon="0.1943480">
        <ele>1090.2</ele>
      </trkpt>
      <trkpt lat="40.7760700" lon="0.1944040">
        <ele>1089.5</ele>
      </trkpt>
      <trkpt lat="40.7760760" lon="0.1944560">
        <ele>1087.6</ele>
      </trkpt>
      <trkpt lat="40.7760810" lon="0.1945050">
        <ele>1086.5</ele>
      </trkpt>
      <trkpt lat="40.7760730" lon="0.1945540">
        <ele>1085.3</ele>
      </trkpt>
      <trkpt lat="40.7760650" lon="0.1946000">
        <ele>1084.0</ele>
      </trkpt>
      <trkpt lat="40.7760630" lon="0.1946410">
        <ele>1082.6</ele>
      </trkpt>
      <trkpt lat="40.7760600" lon="0.1946840">
        <ele>1081.2</ele>
      </trkpt>
      <trkpt lat="40.7760490" lon="0.1947250">
        <ele>1081.1</ele>
      </trkpt>
      <trkpt lat="40.7760300" lon="0.1947610">
        <ele>1079.6</ele>
      </trkpt>
      <trkpt lat="40.7760050" lon="0.1947990">
        <ele>1079.4</ele>
      </trkpt>
      <trkpt lat="40.7759660" lon="0.1948440">
        <ele>1079.2</ele>
      </trkpt>
      <trkpt lat="40.7759400" lon="0.1948670">
        <ele>1080.4</ele>
      </trkpt>
      <trkpt lat="40.7759140" lon="0.1948870">
        <ele>1080.1</ele>
      </trkpt>
      <trkpt lat="40.7758900" lon="0.1949050">
        <ele>1081.4</ele>
      </trkpt>
      <trkpt lat="40.7758490" lon="0.1949270">
        <ele>1081.1</ele>
      </trkpt>
      <trkpt lat="40.7758140" lon="0.1949350">
        <ele>1082.4</ele>
      </trkpt>
      <trkpt lat="40.7757790" lon="0.1949420">
        <ele>1083.6</ele>
      </trkpt>
      <trkpt lat="40.7757390" lon="0.1949430">
        <ele>1084.6</ele>
      </trkpt>
      <trkpt lat="40.7757020" lon="0.1949410">
        <ele>1085.6</ele>
      </trkpt>
      <trkpt lat="40.7756650" lon="0.1949480">
        <ele>1087.2</ele>
      </trkpt>
      <trkpt lat="40.7756470" lon="0.1949760">
        <ele>1085.8</ele>
      </trkpt>
      <trkpt lat="40.7756210" lon="0.1950130">
        <ele>1085.2</ele>
      </trkpt>
      <trkpt lat="40.7755930" lon="0.1950280">
        <ele>1086.1</ele>
      </trkpt>
      <trkpt lat="40.7755540" lon="0.1950470">
        <ele>1086.8</ele>
      </trkpt>
      <trkpt lat="40.7755120" lon="0.1950620">
        <ele>1086.1</ele>
      </trkpt>
      <trkpt lat="40.7754830" lon="0.1950780">
        <ele>1086.7</ele>
      </trkpt>
      <trkpt lat="40.7754570" lon="0.1950930">
        <ele>1087.2</ele>
      </trkpt>
      <trkpt lat="40.7754230" lon="0.1951070">
        <ele>1086.3</ele>
      </trkpt>
      <trkpt lat="40.7753820" lon="0.1951210">
        <ele>1086.7</ele>
      </trkpt>
      <trkpt lat="40.7753440" lon="0.1951340">
        <ele>1087.0</ele>
      </trkpt>
      <trkpt lat="40.7753160" lon="0.1951460">
        <ele>1086.1</ele>
      </trkpt>
      <trkpt lat="40.7752910" lon="0.1951670">
        <ele>1086.3</ele>
      </trkpt>
      <trkpt lat="40.7752610" lon="0.1952080">
        <ele>1085.3</ele>
      </trkpt>
      <trkpt lat="40.7752490" lon="0.1952470">
        <ele>1084.4</ele>
      </trkpt>
      <trkpt lat="40.7752610" lon="0.1952860">
        <ele>1083.4</ele>
      </trkpt>
      <trkpt lat="40.7752750" lon="0.1952500">
        <ele>1084.6</ele>
      </trkpt>
      <trkpt lat="40.7752650" lon="0.1952840">
        <ele>1083.6</ele>
      </trkpt>
      <trkpt lat="40.7752760" lon="0.1953190">
        <ele>1082.5</ele>
      </trkpt>
      <trkpt lat="40.7752990" lon="0.1953430">
        <ele>1082.4</ele>
      </trkpt>
      <trkpt lat="40.7752750" lon="0.1952540">
        <ele>1085.0</ele>
      </trkpt>
      <trkpt lat="40.7752420" lon="0.1952350">
        <ele>1085.1</ele>
      </trkpt>
      <trkpt lat="40.7751800" lon="0.1952260">
        <ele>1085.1</ele>
      </trkpt>
      <trkpt lat="40.7751270" lon="0.1952230">
        <ele>1084.8</ele>
      </trkpt>
      <trkpt lat="40.7750680" lon="0.1952230">
        <ele>1084.2</ele>
      </trkpt>
      <trkpt lat="40.7750200" lon="0.1952140">
        <ele>1084.6</ele>
      </trkpt>
      <trkpt lat="40.7749810" lon="0.1951970">
        <ele>1083.5</ele>
      </trkpt>
      <trkpt lat="40.7749430" lon="0.1951410">
        <ele>1083.5</ele>
      </trkpt>
      <trkpt lat="40.7749150" lon="0.1951430">
        <ele>1082.9</ele>
      </trkpt>
      <trkpt lat="40.7748780" lon="0.1951400">
        <ele>1082.3</ele>
      </trkpt>
      <trkpt lat="40.7748440" lon="0.1951460">
        <ele>1081.7</ele>
      </trkpt>
      <trkpt lat="40.7748110" lon="0.1951610">
        <ele>1081.0</ele>
      </trkpt>
      <trkpt lat="40.7747770" lon="0.1951790">
        <ele>1080.1</ele>
      </trkpt>
      <trkpt lat="40.7747370" lon="0.1952390">
        <ele>1079.1</ele>
      </trkpt>
      <trkpt lat="40.7747140" lon="0.1954070">
        <ele>1076.8</ele>
      </trkpt>
      <trkpt lat="40.7746780" lon="0.1954950">
        <ele>1075.1</ele>
      </trkpt>
      <trkpt lat="40.7746430" lon="0.1955780">
        <ele>1073.5</ele>
      </trkpt>
      <trkpt lat="40.7746070" lon="0.1956570">
        <ele>1072.2</ele>
      </trkpt>
      <trkpt lat="40.7745760" lon="0.1955850">
        <ele>1073.0</ele>
      </trkpt>
      <trkpt lat="40.7745580" lon="0.1956270">
        <ele>1072.4</ele>
      </trkpt>
      <trkpt lat="40.7745180" lon="0.1956200">
        <ele>1072.2</ele>
      </trkpt>
      <trkpt lat="40.7744900" lon="0.1956250">
        <ele>1072.0</ele>
      </trkpt>
      <trkpt lat="40.7744350" lon="0.1956320">
        <ele>1071.7</ele>
      </trkpt>
      <trkpt lat="40.7744120" lon="0.1956710">
        <ele>1071.2</ele>
      </trkpt>
      <trkpt lat="40.7743790" lon="0.1957180">
        <ele>1070.7</ele>
      </trkpt>
      <trkpt lat="40.7743670" lon="0.1958070">
        <ele>1070.4</ele>
      </trkpt>
      <trkpt lat="40.7743420" lon="0.1958820">
        <ele>1069.8</ele>
      </trkpt>
      <trkpt lat="40.7743110" lon="0.1959490">
        <ele>1069.6</ele>
      </trkpt>
      <trkpt lat="40.7742570" lon="0.1959930">
        <ele>1069.2</ele>
      </trkpt>
      <trkpt lat="40.7741890" lon="0.1960350">
        <ele>1068.7</ele>
      </trkpt>
      <trkpt lat="40.7741380" lon="0.1960820">
        <ele>1068.2</ele>
      </trkpt>
      <trkpt lat="40.7740910" lon="0.1961280">
        <ele>1068.0</ele>
      </trkpt>
      <trkpt lat="40.7740580" lon="0.1961440">
        <ele>1067.8</ele>
      </trkpt>
      <trkpt lat="40.7740350" lon="0.1962020">
        <ele>1067.6</ele>
      </trkpt>
      <trkpt lat="40.7740160" lon="0.1962350">
        <ele>1067.9</ele>
      </trkpt>
      <trkpt lat="40.7739910" lon="0.1962600">
        <ele>1067.8</ele>
      </trkpt>
      <trkpt lat="40.7739890" lon="0.1963190">
        <ele>1068.0</ele>
      </trkpt>
      <trkpt lat="40.7739690" lon="0.1963500">
        <ele>1068.0</ele>
      </trkpt>
      <trkpt lat="40.7739330" lon="0.1963830">
        <ele>1068.0</ele>
      </trkpt>
      <trkpt lat="40.7739150" lon="0.1964230">
        <ele>1068.0</ele>
      </trkpt>
      <trkpt lat="40.7738990" lon="0.1964720">
        <ele>1068.4</ele>
      </trkpt>
      <trkpt lat="40.7738680" lon="0.1965230">
        <ele>1068.6</ele>
      </trkpt>
      <trkpt lat="40.7738460" lon="0.1965480">
        <ele>1068.4</ele>
      </trkpt>
      <trkpt lat="40.7738190" lon="0.1966060">
        <ele>1069.1</ele>
      </trkpt>
      <trkpt lat="40.7738060" lon="0.1966390">
        <ele>1069.4</ele>
      </trkpt>
      <trkpt lat="40.7737900" lon="0.1966700">
        <ele>1069.4</ele>
      </trkpt>
      <trkpt lat="40.7737710" lon="0.1967070">
        <ele>1069.7</ele>
      </trkpt>
      <trkpt lat="40.7737480" lon="0.1967490">
        <ele>1070.0</ele>
      </trkpt>
      <trkpt lat="40.7737210" lon="0.1968170">
        <ele>1070.7</ele>
      </trkpt>
      <trkpt lat="40.7736870" lon="0.1968590">
        <ele>1071.1</ele>
      </trkpt>
      <trkpt lat="40.7736630" lon="0.1968850">
        <ele>1071.2</ele>
      </trkpt>
      <trkpt lat="40.7736350" lon="0.1969120">
        <ele>1071.7</ele>
      </trkpt>
      <trkpt lat="40.7736020" lon="0.1969610">
        <ele>1072.3</ele>
      </trkpt>
      <trkpt lat="40.7735680" lon="0.1970040">
        <ele>1073.0</ele>
      </trkpt>
      <trkpt lat="40.7735540" lon="0.1970340">
        <ele>1073.7</ele>
      </trkpt>
      <trkpt lat="40.7735410" lon="0.1970660">
        <ele>1073.7</ele>
      </trkpt>
      <trkpt lat="40.7735280" lon="0.1971020">
        <ele>1074.1</ele>
      </trkpt>
      <trkpt lat="40.7735100" lon="0.1971480">
        <ele>1074.8</ele>
      </trkpt>
      <trkpt lat="40.7735060" lon="0.1971870">
        <ele>1075.3</ele>
      </trkpt>
      <trkpt lat="40.7734980" lon="0.1972510">
        <ele>1076.0</ele>
      </trkpt>
      <trkpt lat="40.7734910" lon="0.1973100">
        <ele>1076.3</ele>
      </trkpt>
      <trkpt lat="40.7734880" lon="0.1973770">
        <ele>1077.0</ele>
      </trkpt>
      <trkpt lat="40.7734910" lon="0.1974450">
        <ele>1076.7</ele>
      </trkpt>
      <trkpt lat="40.7734900" lon="0.1974990">
        <ele>1076.7</ele>
      </trkpt>
      <trkpt lat="40.7734780" lon="0.1975490">
        <ele>1077.3</ele>
      </trkpt>
      <trkpt lat="40.7734630" lon="0.1975970">
        <ele>1077.2</ele>
      </trkpt>
      <trkpt lat="40.7734480" lon="0.1976490">
        <ele>1077.8</ele>
      </trkpt>
      <trkpt lat="40.7734310" lon="0.1977050">
        <ele>1077.7</ele>
      </trkpt>
      <trkpt lat="40.7734070" lon="0.1977560">
        <ele>1078.0</ele>
      </trkpt>
      <trkpt lat="40.7733810" lon="0.1978040">
        <ele>1078.5</ele>
      </trkpt>
      <trkpt lat="40.7733590" lon="0.1978490">
        <ele>1078.9</ele>
      </trkpt>
      <trkpt lat="40.7733400" lon="0.1978970">
        <ele>1078.6</ele>
      </trkpt>
      <trkpt lat="40.7733250" lon="0.1979420">
        <ele>1078.9</ele>
      </trkpt>
      <trkpt lat="40.7733110" lon="0.1979860">
        <ele>1078.6</ele>
      </trkpt>
      <trkpt lat="40.7732830" lon="0.1980230">
        <ele>1078.8</ele>
      </trkpt>
      <trkpt lat="40.7732440" lon="0.1980620">
        <ele>1078.9</ele>
      </trkpt>
      <trkpt lat="40.7732180" lon="0.1980890">
        <ele>1079.4</ele>
      </trkpt>
      <trkpt lat="40.7731910" lon="0.1981270">
        <ele>1079.4</ele>
      </trkpt>
      <trkpt lat="40.7731600" lon="0.1981660">
        <ele>1079.3</ele>
      </trkpt>
      <trkpt lat="40.7731250" lon="0.1981990">
        <ele>1079.2</ele>
      </trkpt>
      <trkpt lat="40.7731040" lon="0.1982400">
        <ele>1078.7</ele>
      </trkpt>
      <trkpt lat="40.7730880" lon="0.1982910">
        <ele>1078.5</ele>
      </trkpt>
      <trkpt lat="40.7730700" lon="0.1983400">
        <ele>1078.0</ele>
      </trkpt>
      <trkpt lat="40.7730520" lon="0.1983890">
        <ele>1077.8</ele>
      </trkpt>
      <trkpt lat="40.7730300" lon="0.1984280">
        <ele>1077.5</ele>
      </trkpt>
      <trkpt lat="40.7730090" lon="0.1984770">
        <ele>1077.0</ele>
      </trkpt>
      <trkpt lat="40.7729950" lon="0.1985280">
        <ele>1076.2</ele>
      </trkpt>
      <trkpt lat="40.7729790" lon="0.1985730">
        <ele>1075.6</ele>
      </trkpt>
      <trkpt lat="40.7729640" lon="0.1986170">
        <ele>1075.3</ele>
      </trkpt>
      <trkpt lat="40.7729430" lon="0.1986550">
        <ele>1075.3</ele>
      </trkpt>
      <trkpt lat="40.7729170" lon="0.1986870">
        <ele>1074.9</ele>
      </trkpt>
      <trkpt lat="40.7728880" lon="0.1987170">
        <ele>1074.5</ele>
      </trkpt>
      <trkpt lat="40.7728540" lon="0.1987530">
        <ele>1074.1</ele>
      </trkpt>
      <trkpt lat="40.7728250" lon="0.1987890">
        <ele>1073.6</ele>
      </trkpt>
      <trkpt lat="40.7727970" lon="0.1988220">
        <ele>1073.6</ele>
      </trkpt>
      <trkpt lat="40.7727650" lon="0.1988650">
        <ele>1073.0</ele>
      </trkpt>
      <trkpt lat="40.7727300" lon="0.1989080">
        <ele>1072.4</ele>
      </trkpt>
      <trkpt lat="40.7726880" lon="0.1989580">
        <ele>1071.3</ele>
      </trkpt>
      <trkpt lat="40.7726680" lon="0.1989830">
        <ele>1071.2</ele>
      </trkpt>
      <trkpt lat="40.7726480" lon="0.1990120">
        <ele>1070.7</ele>
      </trkpt>
      <trkpt lat="40.7726310" lon="0.1990440">
        <ele>1070.1</ele>
      </trkpt>
      <trkpt lat="40.7726140" lon="0.1990770">
        <ele>1070.1</ele>
      </trkpt>
      <trkpt lat="40.7725970" lon="0.1991120">
        <ele>1069.5</ele>
      </trkpt>
      <trkpt lat="40.7725840" lon="0.1991490">
        <ele>1069.0</ele>
      </trkpt>
      <trkpt lat="40.7725690" lon="0.1991870">
        <ele>1068.5</ele>
      </trkpt>
      <trkpt lat="40.7725550" lon="0.1992260">
        <ele>1068.3</ele>
      </trkpt>
      <trkpt lat="40.7725380" lon="0.1992630">
        <ele>1068.0</ele>
      </trkpt>
      <trkpt lat="40.7725190" lon="0.1993000">
        <ele>1067.8</ele>
      </trkpt>
      <trkpt lat="40.7725000" lon="0.1993410">
        <ele>1067.7</ele>
      </trkpt>
      <trkpt lat="40.7724850" lon="0.1993910">
        <ele>1067.6</ele>
      </trkpt>
      <trkpt lat="40.7724730" lon="0.1994480">
        <ele>1067.5</ele>
      </trkpt>
      <trkpt lat="40.7724650" lon="0.1995120">
        <ele>1067.5</ele>
      </trkpt>
      <trkpt lat="40.7724570" lon="0.1995770">
        <ele>1067.6</ele>
      </trkpt>
      <trkpt lat="40.7724470" lon="0.1996450">
        <ele>1067.7</ele>
      </trkpt>
      <trkpt lat="40.7724330" lon="0.1997140">
        <ele>1067.8</ele>
      </trkpt>
      <trkpt lat="40.7724150" lon="0.1997790">
        <ele>1067.9</ele>
      </trkpt>
      <trkpt lat="40.7723930" lon="0.1998340">
        <ele>1067.9</ele>
      </trkpt>
      <trkpt lat="40.7723690" lon="0.1998780">
        <ele>1067.9</ele>
      </trkpt>
      <trkpt lat="40.7723460" lon="0.1999160">
        <ele>1067.8</ele>
      </trkpt>
      <trkpt lat="40.7723230" lon="0.1999510">
        <ele>1067.9</ele>
      </trkpt>
      <trkpt lat="40.7723030" lon="0.1999860">
        <ele>1067.8</ele>
      </trkpt>
      <trkpt lat="40.7722830" lon="0.2000200">
        <ele>1067.7</ele>
      </trkpt>
      <trkpt lat="40.7722630" lon="0.2000470">
        <ele>1067.8</ele>
      </trkpt>
      <trkpt lat="40.7722320" lon="0.2000830">
        <ele>1067.7</ele>
      </trkpt>
      <trkpt lat="40.7721950" lon="0.2001150">
        <ele>1067.5</ele>
      </trkpt>
      <trkpt lat="40.7721530" lon="0.2001540">
        <ele>1067.2</ele>
      </trkpt>
      <trkpt lat="40.7721150" lon="0.2001940">
        <ele>1067.1</ele>
      </trkpt>
      <trkpt lat="40.7720780" lon="0.2002350">
        <ele>1067.0</ele>
      </trkpt>
      <trkpt lat="40.7720480" lon="0.2002800">
        <ele>1067.0</ele>
      </trkpt>
      <trkpt lat="40.7720190" lon="0.2003250">
        <ele>1067.0</ele>
      </trkpt>
      <trkpt lat="40.7719890" lon="0.2003710">
        <ele>1067.0</ele>
      </trkpt>
      <trkpt lat="40.7719610" lon="0.2004210">
        <ele>1067.4</ele>
      </trkpt>
      <trkpt lat="40.7719340" lon="0.2004710">
        <ele>1067.6</ele>
      </trkpt>
      <trkpt lat="40.7719140" lon="0.2005150">
        <ele>1067.7</ele>
      </trkpt>
      <trkpt lat="40.7719050" lon="0.2005590">
        <ele>1067.9</ele>
      </trkpt>
      <trkpt lat="40.7718950" lon="0.2006000">
        <ele>1068.1</ele>
      </trkpt>
      <trkpt lat="40.7718720" lon="0.2006330">
        <ele>1068.2</ele>
      </trkpt>
      <trkpt lat="40.7718460" lon="0.2006580">
        <ele>1068.2</ele>
      </trkpt>
      <trkpt lat="40.7718100" lon="0.2006840">
        <ele>1068.4</ele>
      </trkpt>
      <trkpt lat="40.7717870" lon="0.2007130">
        <ele>1068.4</ele>
      </trkpt>
      <trkpt lat="40.7717460" lon="0.2007840">
        <ele>1068.8</ele>
      </trkpt>
      <trkpt lat="40.7717060" lon="0.2008480">
        <ele>1069.2</ele>
      </trkpt>
      <trkpt lat="40.7716630" lon="0.2008920">
        <ele>1069.4</ele>
      </trkpt>
      <trkpt lat="40.7716410" lon="0.2009460">
        <ele>1069.6</ele>
      </trkpt>
      <trkpt lat="40.7716330" lon="0.2010070">
        <ele>1069.8</ele>
      </trkpt>
      <trkpt lat="40.7716320" lon="0.2010630">
        <ele>1070.3</ele>
      </trkpt>
      <trkpt lat="40.7716280" lon="0.2011130">
        <ele>1070.5</ele>
      </trkpt>
      <trkpt lat="40.7716170" lon="0.2011530">
        <ele>1070.7</ele>
      </trkpt>
      <trkpt lat="40.7716150" lon="0.2012050">
        <ele>1070.9</ele>
      </trkpt>
      <trkpt lat="40.7715990" lon="0.2012510">
        <ele>1071.3</ele>
      </trkpt>
      <trkpt lat="40.7715840" lon="0.2013030">
        <ele>1071.6</ele>
      </trkpt>
      <trkpt lat="40.7715720" lon="0.2013460">
        <ele>1071.9</ele>
      </trkpt>
      <trkpt lat="40.7715500" lon="0.2013800">
        <ele>1072.4</ele>
      </trkpt>
      <trkpt lat="40.7715090" lon="0.2014450">
        <ele>1073.2</ele>
      </trkpt>
      <trkpt lat="40.7714860" lon="0.2015350">
        <ele>1074.1</ele>
      </trkpt>
      <trkpt lat="40.7714670" lon="0.2015990">
        <ele>1074.8</ele>
      </trkpt>
      <trkpt lat="40.7714480" lon="0.2016540">
        <ele>1075.2</ele>
      </trkpt>
      <trkpt lat="40.7714290" lon="0.2017030">
        <ele>1076.4</ele>
      </trkpt>
      <trkpt lat="40.7714110" lon="0.2017550">
        <ele>1076.9</ele>
      </trkpt>
      <trkpt lat="40.7713770" lon="0.2017780">
        <ele>1077.4</ele>
      </trkpt>
      <trkpt lat="40.7713530" lon="0.2018030">
        <ele>1078.3</ele>
      </trkpt>
      <trkpt lat="40.7713260" lon="0.2018350">
        <ele>1079.2</ele>
      </trkpt>
      <trkpt lat="40.7713130" lon="0.2018730">
        <ele>1079.2</ele>
      </trkpt>
      <trkpt lat="40.7712820" lon="0.2019270">
        <ele>1080.7</ele>
      </trkpt>
      <trkpt lat="40.7712690" lon="0.2019840">
        <ele>1081.6</ele>
      </trkpt>
      <trkpt lat="40.7712570" lon="0.2020390">
        <ele>1082.2</ele>
      </trkpt>
      <trkpt lat="40.7712450" lon="0.2021030">
        <ele>1083.8</ele>
      </trkpt>
      <trkpt lat="40.7712410" lon="0.2021400">
        <ele>1084.4</ele>
      </trkpt>
      <trkpt lat="40.7712380" lon="0.2021810">
        <ele>1085.0</ele>
      </trkpt>
      <trkpt lat="40.7712310" lon="0.2022240">
        <ele>1085.5</ele>
      </trkpt>
      <trkpt lat="40.7712190" lon="0.2022690">
        <ele>1086.0</ele>
      </trkpt>
      <trkpt lat="40.7712010" lon="0.2023150">
        <ele>1087.1</ele>
      </trkpt>
      <trkpt lat="40.7711790" lon="0.2023590">
        <ele>1088.1</ele>
      </trkpt>
      <trkpt lat="40.7711590" lon="0.2024030">
        <ele>1088.4</ele>
      </trkpt>
      <trkpt lat="40.7711380" lon="0.2024390">
        <ele>1089.4</ele>
      </trkpt>
      <trkpt lat="40.7711180" lon="0.2024740">
        <ele>1089.4</ele>
      </trkpt>
      <trkpt lat="40.7711000" lon="0.2025030">
        <ele>1090.3</ele>
      </trkpt>
      <trkpt lat="40.7710800" lon="0.2025300">
        <ele>1091.4</ele>
      </trkpt>
      <trkpt lat="40.7710450" lon="0.2025770">
        <ele>1092.4</ele>
      </trkpt>
      <trkpt lat="40.7710180" lon="0.2026240">
        <ele>1093.5</ele>
      </trkpt>
      <trkpt lat="40.7709960" lon="0.2026670">
        <ele>1093.9</ele>
      </trkpt>
      <trkpt lat="40.7709750" lon="0.2027150">
        <ele>1095.1</ele>
      </trkpt>
      <trkpt lat="40.7709600" lon="0.2027650">
        <ele>1095.5</ele>
      </trkpt>
      <trkpt lat="40.7709450" lon="0.2028140">
        <ele>1096.8</ele>
      </trkpt>
      <trkpt lat="40.7709360" lon="0.2028720">
        <ele>1097.7</ele>
      </trkpt>
      <trkpt lat="40.7709310" lon="0.2029300">
        <ele>1098.2</ele>
      </trkpt>
      <trkpt lat="40.7709310" lon="0.2029900">
        <ele>1099.1</ele>
      </trkpt>
      <trkpt lat="40.7709340" lon="0.2030590">
        <ele>1099.6</ele>
      </trkpt>
      <trkpt lat="40.7709380" lon="0.2030960">
        <ele>1100.1</ele>
      </trkpt>
      <trkpt lat="40.7709420" lon="0.2031330">
        <ele>1100.6</ele>
      </trkpt>
      <trkpt lat="40.7709450" lon="0.2031690">
        <ele>1101.0</ele>
      </trkpt>
      <trkpt lat="40.7709490" lon="0.2032320">
        <ele>1101.5</ele>
      </trkpt>
      <trkpt lat="40.7709490" lon="0.2032860">
        <ele>1101.9</ele>
      </trkpt>
      <trkpt lat="40.7709460" lon="0.2033370">
        <ele>1102.6</ele>
      </trkpt>
      <trkpt lat="40.7709400" lon="0.2033850">
        <ele>1102.9</ele>
      </trkpt>
      <trkpt lat="40.7709320" lon="0.2034320">
        <ele>1103.3</ele>
      </trkpt>
      <trkpt lat="40.7709180" lon="0.2034630">
        <ele>1105.0</ele>
      </trkpt>
      <trkpt lat="40.7709030" lon="0.2035070">
        <ele>1105.3</ele>
      </trkpt>
      <trkpt lat="40.7708970" lon="0.2035450">
        <ele>1105.3</ele>
      </trkpt>
      <trkpt lat="40.7708830" lon="0.2035880">
        <ele>1107.1</ele>
      </trkpt>
      <trkpt lat="40.7708760" lon="0.2036390">
        <ele>1107.8</ele>
      </trkpt>
      <trkpt lat="40.7708720" lon="0.2036890">
        <ele>1108.2</ele>
      </trkpt>
      <trkpt lat="40.7708630" lon="0.2037400">
        <ele>1108.6</ele>
      </trkpt>
      <trkpt lat="40.7708570" lon="0.2037760">
        <ele>1109.0</ele>
      </trkpt>
      <trkpt lat="40.7708430" lon="0.2038080">
        <ele>1110.9</ele>
      </trkpt>
      <trkpt lat="40.7708260" lon="0.2038370">
        <ele>1110.9</ele>
      </trkpt>
      <trkpt lat="40.7708060" lon="0.2038830">
        <ele>1112.8</ele>
      </trkpt>
      <trkpt lat="40.7707910" lon="0.2039290">
        <ele>1114.8</ele>
      </trkpt>
      <trkpt lat="40.7707810" lon="0.2039730">
        <ele>1115.2</ele>
      </trkpt>
      <trkpt lat="40.7707670" lon="0.2040140">
        <ele>1115.6</ele>
      </trkpt>
      <trkpt lat="40.7707430" lon="0.2040410">
        <ele>1117.4</ele>
      </trkpt>
      <trkpt lat="40.7707210" lon="0.2040790">
        <ele>1119.2</ele>
      </trkpt>
      <trkpt lat="40.7707090" lon="0.2041130">
        <ele>1119.4</ele>
      </trkpt>
      <trkpt lat="40.7706790" lon="0.2041070">
        <ele>1120.8</ele>
      </trkpt>
      <trkpt lat="40.7706630" lon="0.2041380">
        <ele>1120.8</ele>
      </trkpt>
      <trkpt lat="40.7706520" lon="0.2041740">
        <ele>1122.5</ele>
      </trkpt>
      <trkpt lat="40.7706280" lon="0.2041930">
        <ele>1124.1</ele>
      </trkpt>
      <trkpt lat="40.7706270" lon="0.2042380">
        <ele>1124.3</ele>
      </trkpt>
      <trkpt lat="40.7706190" lon="0.2042790">
        <ele>1124.5</ele>
      </trkpt>
      <trkpt lat="40.7706120" lon="0.2043170">
        <ele>1124.5</ele>
      </trkpt>
      <trkpt lat="40.7706080" lon="0.2043570">
        <ele>1124.7</ele>
      </trkpt>
      <trkpt lat="40.7706010" lon="0.2043970">
        <ele>1124.9</ele>
      </trkpt>
      <trkpt lat="40.7705970" lon="0.2044370">
        <ele>1125.1</ele>
      </trkpt>
      <trkpt lat="40.7706070" lon="0.2044780">
        <ele>1125.2</ele>
      </trkpt>
      <trkpt lat="40.7706110" lon="0.2045210">
        <ele>1125.4</ele>
      </trkpt>
      <trkpt lat="40.7706120" lon="0.2045680">
        <ele>1125.5</ele>
      </trkpt>
      <trkpt lat="40.7706120" lon="0.2046110">
        <ele>1125.5</ele>
      </trkpt>
      <trkpt lat="40.7706300" lon="0.2046500">
        <ele>1123.8</ele>
      </trkpt>
      <trkpt lat="40.7706450" lon="0.2047030">
        <ele>1123.8</ele>
      </trkpt>
      <trkpt lat="40.7706580" lon="0.2047500">
        <ele>1123.9</ele>
      </trkpt>
      <trkpt lat="40.7706670" lon="0.2048010">
        <ele>1122.1</ele>
      </trkpt>
      <trkpt lat="40.7706730" lon="0.2048470">
        <ele>1122.1</ele>
      </trkpt>
      <trkpt lat="40.7706830" lon="0.2048880">
        <ele>1122.3</ele>
      </trkpt>
      <trkpt lat="40.7706880" lon="0.2049270">
        <ele>1122.5</ele>
      </trkpt>
      <trkpt lat="40.7706950" lon="0.2049670">
        <ele>1120.7</ele>
      </trkpt>
      <trkpt lat="40.7707080" lon="0.2050160">
        <ele>1121.0</ele>
      </trkpt>
      <trkpt lat="40.7707230" lon="0.2050690">
        <ele>1121.4</ele>
      </trkpt>
      <trkpt lat="40.7707390" lon="0.2051190">
        <ele>1119.6</ele>
      </trkpt>
      <trkpt lat="40.7707570" lon="0.2051690">
        <ele>1120.1</ele>
      </trkpt>
      <trkpt lat="40.7707750" lon="0.2052260">
        <ele>1119.0</ele>
      </trkpt>
      <trkpt lat="40.7707840" lon="0.2052900">
        <ele>1119.8</ele>
      </trkpt>
      <trkpt lat="40.7707870" lon="0.2053530">
        <ele>1121.5</ele>
      </trkpt>
      <trkpt lat="40.7707870" lon="0.2054150">
        <ele>1122.3</ele>
      </trkpt>
      <trkpt lat="40.7707840" lon="0.2054640">
        <ele>1123.1</ele>
      </trkpt>
      <trkpt lat="40.7707820" lon="0.2055180">
        <ele>1123.9</ele>
      </trkpt>
      <trkpt lat="40.7707800" lon="0.2055700">
        <ele>1125.5</ele>
      </trkpt>
      <trkpt lat="40.7707770" lon="0.2056200">
        <ele>1126.3</ele>
      </trkpt>
      <trkpt lat="40.7707690" lon="0.2056570">
        <ele>1127.2</ele>
      </trkpt>
      <trkpt lat="40.7707540" lon="0.2056870">
        <ele>1129.3</ele>
      </trkpt>
      <trkpt lat="40.7707390" lon="0.2057280">
        <ele>1130.1</ele>
      </trkpt>
      <trkpt lat="40.7707290" lon="0.2057670">
        <ele>1131.0</ele>
      </trkpt>
      <trkpt lat="40.7707200" lon="0.2058100">
        <ele>1133.8</ele>
      </trkpt>
      <trkpt lat="40.7707100" lon="0.2058520">
        <ele>1134.7</ele>
      </trkpt>
      <trkpt lat="40.7706980" lon="0.2058950">
        <ele>1135.7</ele>
      </trkpt>
      <trkpt lat="40.7706890" lon="0.2059380">
        <ele>1138.3</ele>
      </trkpt>
      <trkpt lat="40.7706860" lon="0.2059810">
        <ele>1139.1</ele>
      </trkpt>
      <trkpt lat="40.7706640" lon="0.2060070">
        <ele>1139.9</ele>
      </trkpt>
      <trkpt lat="40.7706580" lon="0.2060460">
        <ele>1142.3</ele>
      </trkpt>
      <trkpt lat="40.7706650" lon="0.2060830">
        <ele>1141.4</ele>
      </trkpt>
      <trkpt lat="40.7706590" lon="0.2061240">
        <ele>1143.8</ele>
      </trkpt>
      <trkpt lat="40.7706430" lon="0.2061650">
        <ele>1143.8</ele>
      </trkpt>
      <trkpt lat="40.7706270" lon="0.2061980">
        <ele>1146.1</ele>
      </trkpt>
      <trkpt lat="40.7706110" lon="0.2062300">
        <ele>1146.7</ele>
      </trkpt>
      <trkpt lat="40.7705880" lon="0.2062730">
        <ele>1148.9</ele>
      </trkpt>
      <trkpt lat="40.7705590" lon="0.2063350">
        <ele>1150.9</ele>
      </trkpt>
      <trkpt lat="40.7705440" lon="0.2063690">
        <ele>1151.3</ele>
      </trkpt>
      <trkpt lat="40.7705230" lon="0.2064270">
        <ele>1153.3</ele>
      </trkpt>
      <trkpt lat="40.7705150" lon="0.2064750">
        <ele>1153.5</ele>
      </trkpt>
      <trkpt lat="40.7705120" lon="0.2065290">
        <ele>1153.7</ele>
      </trkpt>
      <trkpt lat="40.7705100" lon="0.2065890">
        <ele>1153.8</ele>
      </trkpt>
      <trkpt lat="40.7705030" lon="0.2066400">
        <ele>1153.9</ele>
      </trkpt>
      <trkpt lat="40.7704970" lon="0.2066950">
        <ele>1155.0</ele>
      </trkpt>
      <trkpt lat="40.7704860" lon="0.2067710">
        <ele>1154.9</ele>
      </trkpt>
      <trkpt lat="40.7704770" lon="0.2068150">
        <ele>1154.9</ele>
      </trkpt>
      <trkpt lat="40.7704640" lon="0.2068550">
        <ele>1155.6</ele>
      </trkpt>
      <trkpt lat="40.7704500" lon="0.2068920">
        <ele>1155.6</ele>
      </trkpt>
      <trkpt lat="40.7704350" lon="0.2069280">
        <ele>1155.5</ele>
      </trkpt>
      <trkpt lat="40.7704190" lon="0.2069620">
        <ele>1155.9</ele>
      </trkpt>
      <trkpt lat="40.7704040" lon="0.2069940">
        <ele>1155.7</ele>
      </trkpt>
      <trkpt lat="40.7703750" lon="0.2070470">
        <ele>1155.9</ele>
      </trkpt>
      <trkpt lat="40.7703440" lon="0.2070930">
        <ele>1156.0</ele>
      </trkpt>
      <trkpt lat="40.7703230" lon="0.2071230">
        <ele>1155.9</ele>
      </trkpt>
      <trkpt lat="40.7702990" lon="0.2071640">
        <ele>1155.9</ele>
      </trkpt>
      <trkpt lat="40.7702740" lon="0.2072170">
        <ele>1155.8</ele>
      </trkpt>
      <trkpt lat="40.7702500" lon="0.2072730">
        <ele>1155.8</ele>
      </trkpt>
      <trkpt lat="40.7702270" lon="0.2073310">
        <ele>1155.7</ele>
      </trkpt>
      <trkpt lat="40.7702100" lon="0.2073840">
        <ele>1155.6</ele>
      </trkpt>
      <trkpt lat="40.7701940" lon="0.2074300">
        <ele>1155.4</ele>
      </trkpt>
      <trkpt lat="40.7701800" lon="0.2074720">
        <ele>1155.2</ele>
      </trkpt>
      <trkpt lat="40.7701680" lon="0.2075080">
        <ele>1155.0</ele>
      </trkpt>
      <trkpt lat="40.7701470" lon="0.2075680">
        <ele>1154.8</ele>
      </trkpt>
      <trkpt lat="40.7701320" lon="0.2076380">
        <ele>1154.3</ele>
      </trkpt>
      <trkpt lat="40.7701220" lon="0.2076910">
        <ele>1154.2</ele>
      </trkpt>
      <trkpt lat="40.7701140" lon="0.2077410">
        <ele>1154.0</ele>
      </trkpt>
      <trkpt lat="40.7701760" lon="0.2078530">
        <ele>1153.4</ele>
      </trkpt>
      <trkpt lat="40.7701680" lon="0.2079730">
        <ele>1153.2</ele>
      </trkpt>
      <trkpt lat="40.7701630" lon="0.2080840">
        <ele>1152.8</ele>
      </trkpt>
      <trkpt lat="40.7701910" lon="0.2082150">
        <ele>1151.9</ele>
      </trkpt>
      <trkpt lat="40.7702010" lon="0.2083210">
        <ele>1151.4</ele>
      </trkpt>
      <trkpt lat="40.7702200" lon="0.2084280">
        <ele>1150.8</ele>
      </trkpt>
      <trkpt lat="40.7702390" lon="0.2085150">
        <ele>1150.6</ele>
      </trkpt>
      <trkpt lat="40.7702400" lon="0.2085890">
        <ele>1150.1</ele>
      </trkpt>
      <trkpt lat="40.7702470" lon="0.2086500">
        <ele>1150.1</ele>
      </trkpt>
      <trkpt lat="40.7702530" lon="0.2087100">
        <ele>1150.1</ele>
      </trkpt>
      <trkpt lat="40.7702710" lon="0.2087700">
        <ele>1150.3</ele>
      </trkpt>
      <trkpt lat="40.7702840" lon="0.2088180">
        <ele>1150.0</ele>
      </trkpt>
      <trkpt lat="40.7702940" lon="0.2088710">
        <ele>1150.4</ele>
      </trkpt>
      <trkpt lat="40.7703120" lon="0.2089190">
        <ele>1150.3</ele>
      </trkpt>
      <trkpt lat="40.7703380" lon="0.2089560">
        <ele>1150.3</ele>
      </trkpt>
      <trkpt lat="40.7703540" lon="0.2089970">
        <ele>1150.3</ele>
      </trkpt>
      <trkpt lat="40.7703630" lon="0.2090390">
        <ele>1150.6</ele>
      </trkpt>
      <trkpt lat="40.7703720" lon="0.2091150">
        <ele>1151.0</ele>
      </trkpt>
      <trkpt lat="40.7703870" lon="0.2091580">
        <ele>1151.4</ele>
      </trkpt>
      <trkpt lat="40.7703880" lon="0.2091990">
        <ele>1151.8</ele>
      </trkpt>
      <trkpt lat="40.7703920" lon="0.2092410">
        <ele>1152.2</ele>
      </trkpt>
      <trkpt lat="40.7703980" lon="0.2092830">
        <ele>1152.6</ele>
      </trkpt>
      <trkpt lat="40.7704030" lon="0.2093280">
        <ele>1152.6</ele>
      </trkpt>
      <trkpt lat="40.7704080" lon="0.2093750">
        <ele>1153.0</ele>
      </trkpt>
      <trkpt lat="40.7704160" lon="0.2094210">
        <ele>1153.3</ele>
      </trkpt>
      <trkpt lat="40.7704280" lon="0.2094600">
        <ele>1153.5</ele>
      </trkpt>
      <trkpt lat="40.7704420" lon="0.2094940">
        <ele>1153.4</ele>
      </trkpt>
      <trkpt lat="40.7704580" lon="0.2095290">
        <ele>1153.6</ele>
      </trkpt>
      <trkpt lat="40.7704760" lon="0.2095660">
        <ele>1153.4</ele>
      </trkpt>
      <trkpt lat="40.7704910" lon="0.2096040">
        <ele>1153.6</ele>
      </trkpt>
      <trkpt lat="40.7705050" lon="0.2096460">
        <ele>1153.3</ele>
      </trkpt>
      <trkpt lat="40.7705170" lon="0.2096900">
        <ele>1153.4</ele>
      </trkpt>
      <trkpt lat="40.7705280" lon="0.2097330">
        <ele>1153.5</ele>
      </trkpt>
      <trkpt lat="40.7705420" lon="0.2097770">
        <ele>1153.2</ele>
      </trkpt>
      <trkpt lat="40.7705550" lon="0.2098210">
        <ele>1153.2</ele>
      </trkpt>
      <trkpt lat="40.7705690" lon="0.2098680">
        <ele>1152.9</ele>
      </trkpt>
      <trkpt lat="40.7705810" lon="0.2099140">
        <ele>1153.0</ele>
      </trkpt>
      <trkpt lat="40.7705920" lon="0.2099580">
        <ele>1153.0</ele>
      </trkpt>
      <trkpt lat="40.7706060" lon="0.2099960">
        <ele>1152.7</ele>
      </trkpt>
      <trkpt lat="40.7706230" lon="0.2100320">
        <ele>1152.8</ele>
      </trkpt>
      <trkpt lat="40.7706390" lon="0.2100620">
        <ele>1152.5</ele>
      </trkpt>
      <trkpt lat="40.7706570" lon="0.2100960">
        <ele>1152.6</ele>
      </trkpt>
      <trkpt lat="40.7706770" lon="0.2101320">
        <ele>1152.4</ele>
      </trkpt>
      <trkpt lat="40.7706950" lon="0.2101600">
        <ele>1152.2</ele>
      </trkpt>
      <trkpt lat="40.7707280" lon="0.2101990">
        <ele>1152.0</ele>
      </trkpt>
      <trkpt lat="40.7707630" lon="0.2102260">
        <ele>1151.8</ele>
      </trkpt>
      <trkpt lat="40.7708050" lon="0.2102460">
        <ele>1151.5</ele>
      </trkpt>
      <trkpt lat="40.7708320" lon="0.2102660">
        <ele>1151.3</ele>
      </trkpt>
      <trkpt lat="40.7708600" lon="0.2102940">
        <ele>1151.0</ele>
      </trkpt>
      <trkpt lat="40.7708850" lon="0.2103160">
        <ele>1151.0</ele>
      </trkpt>
      <trkpt lat="40.7709070" lon="0.2103410">
        <ele>1150.4</ele>
      </trkpt>
      <trkpt lat="40.7709200" lon="0.2103740">
        <ele>1150.0</ele>
      </trkpt>
      <trkpt lat="40.7709650" lon="0.2104150">
        <ele>1148.7</ele>
      </trkpt>
      <trkpt lat="40.7709350" lon="0.2104180">
        <ele>1149.1</ele>
      </trkpt>
      <trkpt lat="40.7709020" lon="0.2104150">
        <ele>1149.5</ele>
      </trkpt>
      <trkpt lat="40.7708590" lon="0.2104420">
        <ele>1149.9</ele>
      </trkpt>
      <trkpt lat="40.7708330" lon="0.2104700">
        <ele>1149.7</ele>
      </trkpt>
      <trkpt lat="40.7707950" lon="0.2104730">
        <ele>1150.1</ele>
      </trkpt>
      <trkpt lat="40.7707650" lon="0.2104770">
        <ele>1150.5</ele>
      </trkpt>
      <trkpt lat="40.7707350" lon="0.2104880">
        <ele>1150.9</ele>
      </trkpt>
      <trkpt lat="40.7707020" lon="0.2105000">
        <ele>1150.8</ele>
      </trkpt>
      <trkpt lat="40.7706720" lon="0.2105070">
        <ele>1151.2</ele>
      </trkpt>
      <trkpt lat="40.7706370" lon="0.2105190">
        <ele>1151.5</ele>
      </trkpt>
      <trkpt lat="40.7705980" lon="0.2105290">
        <ele>1151.9</ele>
      </trkpt>
      <trkpt lat="40.7705570" lon="0.2105540">
        <ele>1152.4</ele>
      </trkpt>
      <trkpt lat="40.7705260" lon="0.2105790">
        <ele>1152.9</ele>
      </trkpt>
      <trkpt lat="40.7704850" lon="0.2105880">
        <ele>1153.0</ele>
      </trkpt>
      <trkpt lat="40.7704380" lon="0.2105830">
        <ele>1153.7</ele>
      </trkpt>
      <trkpt lat="40.7703910" lon="0.2105760">
        <ele>1154.4</ele>
      </trkpt>
      <trkpt lat="40.7703510" lon="0.2105690">
        <ele>1154.8</ele>
      </trkpt>
      <trkpt lat="40.7703230" lon="0.2105680">
        <ele>1155.2</ele>
      </trkpt>
      <trkpt lat="40.7702840" lon="0.2105740">
        <ele>1155.6</ele>
      </trkpt>
      <trkpt lat="40.7702490" lon="0.2105740">
        <ele>1156.1</ele>
      </trkpt>
      <trkpt lat="40.7702080" lon="0.2105730">
        <ele>1156.5</ele>
      </trkpt>
      <trkpt lat="40.7701780" lon="0.2105720">
        <ele>1156.9</ele>
      </trkpt>
      <trkpt lat="40.7701440" lon="0.2105730">
        <ele>1157.3</ele>
      </trkpt>
      <trkpt lat="40.7701090" lon="0.2105790">
        <ele>1158.1</ele>
      </trkpt>
      <trkpt lat="40.7700790" lon="0.2105830">
        <ele>1158.1</ele>
      </trkpt>
      <trkpt lat="40.7700490" lon="0.2105850">
        <ele>1158.5</ele>
      </trkpt>
      <trkpt lat="40.7700210" lon="0.2105910">
        <ele>1158.9</ele>
      </trkpt>
      <trkpt lat="40.7699940" lon="0.2106010">
        <ele>1159.3</ele>
      </trkpt>
      <trkpt lat="40.7699660" lon="0.2106170">
        <ele>1159.7</ele>
      </trkpt>
      <trkpt lat="40.7699350" lon="0.2106300">
        <ele>1160.1</ele>
      </trkpt>
      <trkpt lat="40.7698990" lon="0.2106330">
        <ele>1160.5</ele>
      </trkpt>
      <trkpt lat="40.7698620" lon="0.2106230">
        <ele>1160.7</ele>
      </trkpt>
      <trkpt lat="40.7698250" lon="0.2106100">
        <ele>1161.0</ele>
      </trkpt>
      <trkpt lat="40.7697950" lon="0.2105900">
        <ele>1161.2</ele>
      </trkpt>
      <trkpt lat="40.7697740" lon="0.2105570">
        <ele>1161.3</ele>
      </trkpt>
      <trkpt lat="40.7697540" lon="0.2105150">
        <ele>1161.0</ele>
      </trkpt>
      <trkpt lat="40.7697320" lon="0.2104780">
        <ele>1161.0</ele>
      </trkpt>
      <trkpt lat="40.7697080" lon="0.2104480">
        <ele>1161.0</ele>
      </trkpt>
      <trkpt lat="40.7696840" lon="0.2104140">
        <ele>1161.2</ele>
      </trkpt>
      <trkpt lat="40.7696650" lon="0.2103770">
        <ele>1161.1</ele>
      </trkpt>
      <trkpt lat="40.7696420" lon="0.2103350">
        <ele>1161.2</ele>
      </trkpt>
      <trkpt lat="40.7696180" lon="0.2102940">
        <ele>1161.4</ele>
      </trkpt>
      <trkpt lat="40.7695970" lon="0.2102600">
        <ele>1161.6</ele>
      </trkpt>
      <trkpt lat="40.7695620" lon="0.2102470">
        <ele>1161.8</ele>
      </trkpt>
      <trkpt lat="40.7695310" lon="0.2102510">
        <ele>1162.0</ele>
      </trkpt>
      <trkpt lat="40.7694980" lon="0.2102620">
        <ele>1162.2</ele>
      </trkpt>
      <trkpt lat="40.7694650" lon="0.2102840">
        <ele>1162.4</ele>
      </trkpt>
      <trkpt lat="40.7694380" lon="0.2103100">
        <ele>1162.5</ele>
      </trkpt>
      <trkpt lat="40.7694070" lon="0.2103370">
        <ele>1162.6</ele>
      </trkpt>
      <trkpt lat="40.7693680" lon="0.2103610">
        <ele>1162.7</ele>
      </trkpt>
      <trkpt lat="40.7693330" lon="0.2103830">
        <ele>1162.8</ele>
      </trkpt>
      <trkpt lat="40.7693040" lon="0.2104110">
        <ele>1162.9</ele>
      </trkpt>
      <trkpt lat="40.7692780" lon="0.2104290">
        <ele>1163.1</ele>
      </trkpt>
      <trkpt lat="40.7692440" lon="0.2104580">
        <ele>1163.3</ele>
      </trkpt>
      <trkpt lat="40.7692110" lon="0.2104990">
        <ele>1163.4</ele>
      </trkpt>
      <trkpt lat="40.7691950" lon="0.2105290">
        <ele>1163.7</ele>
      </trkpt>
      <trkpt lat="40.7691920" lon="0.2105750">
        <ele>1163.8</ele>
      </trkpt>
      <trkpt lat="40.7691740" lon="0.2106030">
        <ele>1164.0</ele>
      </trkpt>
      <trkpt lat="40.7691260" lon="0.2106980">
        <ele>1164.8</ele>
      </trkpt>
      <trkpt lat="40.7691020" lon="0.2107190">
        <ele>1165.0</ele>
      </trkpt>
      <trkpt lat="40.7690870" lon="0.2107490">
        <ele>1165.2</ele>
      </trkpt>
      <trkpt lat="40.7690750" lon="0.2107920">
        <ele>1165.4</ele>
      </trkpt>
      <trkpt lat="40.7690620" lon="0.2108410">
        <ele>1165.9</ele>
      </trkpt>
      <trkpt lat="40.7690210" lon="0.2108850">
        <ele>1166.3</ele>
      </trkpt>
      <trkpt lat="40.7689970" lon="0.2108950">
        <ele>1166.7</ele>
      </trkpt>
      <trkpt lat="40.7689730" lon="0.2109040">
        <ele>1166.7</ele>
      </trkpt>
      <trkpt lat="40.7689490" lon="0.2109140">
        <ele>1166.9</ele>
      </trkpt>
      <trkpt lat="40.7689250" lon="0.2109230">
        <ele>1167.0</ele>
      </trkpt>
      <trkpt lat="40.7689010" lon="0.2109330">
        <ele>1167.4</ele>
      </trkpt>
      <trkpt lat="40.7688770" lon="0.2109420">
        <ele>1167.4</ele>
      </trkpt>
      <trkpt lat="40.7688530" lon="0.2109520">
        <ele>1167.6</ele>
      </trkpt>
      <trkpt lat="40.7688290" lon="0.2109610">
        <ele>1167.7</ele>
      </trkpt>
      <trkpt lat="40.7688050" lon="0.2109710">
        <ele>1167.8</ele>
      </trkpt>
      <trkpt lat="40.7687810" lon="0.2109800">
        <ele>1168.0</ele>
      </trkpt>
      <trkpt lat="40.7687570" lon="0.2109900">
        <ele>1168.1</ele>
      </trkpt>
      <trkpt lat="40.7687330" lon="0.2109990">
        <ele>1168.2</ele>
      </trkpt>
      <trkpt lat="40.7687630" lon="0.2110150">
        <ele>1168.3</ele>
      </trkpt>
      <trkpt lat="40.7688000" lon="0.2109960">
        <ele>1168.0</ele>
      </trkpt>
      <trkpt lat="40.7688310" lon="0.2109840">
        <ele>1167.9</ele>
      </trkpt>
      <trkpt lat="40.7690300" lon="0.2109210">
        <ele>1166.5</ele>
      </trkpt>
      <trkpt lat="40.7690180" lon="0.2109670">
        <ele>1166.7</ele>
      </trkpt>
      <trkpt lat="40.7689990" lon="0.2109960">
        <ele>1167.1</ele>
      </trkpt>
      <trkpt lat="40.7689590" lon="0.2110360">
        <ele>1167.4</ele>
      </trkpt>
      <trkpt lat="40.7689280" lon="0.2110540">
        <ele>1167.6</ele>
      </trkpt>
      <trkpt lat="40.7689000" lon="0.2110510">
        <ele>1167.7</ele>
      </trkpt>
      <trkpt lat="40.7688720" lon="0.2110520">
        <ele>1167.9</ele>
      </trkpt>
      <trkpt lat="40.7688770" lon="0.2111070">
        <ele>1168.0</ele>
      </trkpt>
      <trkpt lat="40.7689040" lon="0.2111010">
        <ele>1168.0</ele>
      </trkpt>
      <trkpt lat="40.7689380" lon="0.2110980">
        <ele>1167.7</ele>
      </trkpt>
      <trkpt lat="40.7689670" lon="0.2111000">
        <ele>1167.5</ele>
      </trkpt>
      <trkpt lat="40.7689980" lon="0.2111140">
        <ele>1167.4</ele>
      </trkpt>
      <trkpt lat="40.7690240" lon="0.2111240">
        <ele>1167.2</ele>
      </trkpt>
      <trkpt lat="40.7690520" lon="0.2111260">
        <ele>1167.0</ele>
      </trkpt>
      <trkpt lat="40.7690610" lon="0.2111610">
        <ele>1167.0</ele>
      </trkpt>
      <trkpt lat="40.7690730" lon="0.2111960">
        <ele>1166.6</ele>
      </trkpt>
      <trkpt lat="40.7690410" lon="0.2111750">
        <ele>1167.0</ele>
      </trkpt>
      <trkpt lat="40.7690040" lon="0.2111690">
        <ele>1167.5</ele>
      </trkpt>
      <trkpt lat="40.7689550" lon="0.2111480">
        <ele>1167.7</ele>
      </trkpt>
      <trkpt lat="40.7689360" lon="0.2111220">
        <ele>1167.8</ele>
      </trkpt>
      <trkpt lat="40.7689180" lon="0.2110950">
        <ele>1167.7</ele>
      </trkpt>
      <trkpt lat="40.7688990" lon="0.2110690">
        <ele>1167.9</ele>
      </trkpt>
      <trkpt lat="40.7688810" lon="0.2110430">
        <ele>1167.7</ele>
      </trkpt>
      <trkpt lat="40.7688620" lon="0.2110170">
        <ele>1167.9</ele>
      </trkpt>
      <trkpt lat="40.7688400" lon="0.2109880">
        <ele>1167.9</ele>
      </trkpt>
      <trkpt lat="40.7688000" lon="0.2109950">
        <ele>1168.0</ele>
      </trkpt>
      <trkpt lat="40.7687670" lon="0.2110330">
        <ele>1168.3</ele>
      </trkpt>
      <trkpt lat="40.7687920" lon="0.2110570">
        <ele>1168.2</ele>
      </trkpt>
      <trkpt lat="40.7688620" lon="0.2110830">
        <ele>1168.0</ele>
      </trkpt>
      <trkpt lat="40.7689020" lon="0.2110910">
        <ele>1167.9</ele>
      </trkpt>
      <trkpt lat="40.7689420" lon="0.2110930">
        <ele>1167.5</ele>
      </trkpt>
      <trkpt lat="40.7689740" lon="0.2111020">
        <ele>1167.4</ele>
      </trkpt>
      <trkpt lat="40.7690070" lon="0.2111240">
        <ele>1167.2</ele>
      </trkpt>
      <trkpt lat="40.7689500" lon="0.2111680">
        <ele>1167.7</ele>
      </trkpt>
      <trkpt lat="40.7689690" lon="0.2111970">
        <ele>1167.7</ele>
      </trkpt>
      <trkpt lat="40.7689370" lon="0.2112120">
        <ele>1167.9</ele>
      </trkpt>
      <trkpt lat="40.7689680" lon="0.2112210">
        <ele>1167.7</ele>
      </trkpt>
      <trkpt lat="40.7689600" lon="0.2111870">
        <ele>1167.7</ele>
      </trkpt>
      <trkpt lat="40.7689170" lon="0.2111630">
        <ele>1167.9</ele>
      </trkpt>
      <trkpt lat="40.7688890" lon="0.2111420">
        <ele>1168.0</ele>
      </trkpt>
      <trkpt lat="40.7688570" lon="0.2110970">
        <ele>1168.0</ele>
      </trkpt>
      <trkpt lat="40.7688840" lon="0.2111210">
        <ele>1168.0</ele>
      </trkpt>
      <trkpt lat="40.7689140" lon="0.2111080">
        <ele>1167.8</ele>
      </trkpt>
      <trkpt lat="40.7689260" lon="0.2112030">
        <ele>1167.9</ele>
      </trkpt>
      <trkpt lat="40.7689130" lon="0.2112420">
        <ele>1167.9</ele>
      </trkpt>
      <trkpt lat="40.7689010" lon="0.2112830">
        <ele>1168.2</ele>
      </trkpt>
      <trkpt lat="40.7688940" lon="0.2113180">
        <ele>1168.2</ele>
      </trkpt>
      <trkpt lat="40.7689310" lon="0.2111110">
        <ele>1167.8</ele>
      </trkpt>
      <trkpt lat="40.7689460" lon="0.2110810">
        <ele>1167.5</ele>
      </trkpt>
      <trkpt lat="40.7689660" lon="0.2110540">
        <ele>1167.4</ele>
      </trkpt>
      <trkpt lat="40.7689810" lon="0.2110240">
        <ele>1167.2</ele>
      </trkpt>
      <trkpt lat="40.7690120" lon="0.2110210">
        <ele>1167.0</ele>
      </trkpt>
      <trkpt lat="40.7690270" lon="0.2109770">
        <ele>1166.9</ele>
      </trkpt>
      <trkpt lat="40.7690670" lon="0.2112500">
        <ele>1166.9</ele>
      </trkpt>
      <trkpt lat="40.7690440" lon="0.2112170">
        <ele>1166.9</ele>
      </trkpt>
      <trkpt lat="40.7690360" lon="0.2111730">
        <ele>1167.2</ele>
      </trkpt>
      <trkpt lat="40.7690270" lon="0.2111320">
        <ele>1167.2</ele>
      </trkpt>
      <trkpt lat="40.7689980" lon="0.2111090">
        <ele>1167.4</ele>
      </trkpt>
      <trkpt lat="40.7689710" lon="0.2111020">
        <ele>1167.6</ele>
      </trkpt>
      <trkpt lat="40.7689350" lon="0.2111060">
        <ele>1167.8</ele>
      </trkpt>
      <trkpt lat="40.7689030" lon="0.2111200">
        <ele>1168.0</ele>
      </trkpt>
      <trkpt lat="40.7688510" lon="0.2111100">
        <ele>1168.2</ele>
      </trkpt>
      <trkpt lat="40.7688220" lon="0.2111130">
        <ele>1168.3</ele>
      </trkpt>
      <trkpt lat="40.7688490" lon="0.2111320">
        <ele>1168.2</ele>
      </trkpt>
      <trkpt lat="40.7688440" lon="0.2110830">
        <ele>1168.0</ele>
      </trkpt>
      <trkpt lat="40.7688150" lon="0.2110530">
        <ele>1168.1</ele>
      </trkpt>
      <trkpt lat="40.7688100" lon="0.2110110">
        <ele>1167.9</ele>
      </trkpt>
      <trkpt lat="40.7687870" lon="0.2109790">
        <ele>1168.0</ele>
      </trkpt>
      <trkpt lat="40.7688220" lon="0.2110080">
        <ele>1167.9</ele>
      </trkpt>
      <trkpt lat="40.7688520" lon="0.2110390">
        <ele>1167.9</ele>
      </trkpt>
      <trkpt lat="40.7688840" lon="0.2110700">
        <ele>1167.9</ele>
      </trkpt>
      <trkpt lat="40.7689080" lon="0.2110910">
        <ele>1167.7</ele>
      </trkpt>
      <trkpt lat="40.7689320" lon="0.2111090">
        <ele>1167.8</ele>
      </trkpt>
      <trkpt lat="40.7689700" lon="0.2111360">
        <ele>1167.6</ele>
      </trkpt>
      <trkpt lat="40.7690050" lon="0.2111410">
        <ele>1167.2</ele>
      </trkpt>
      <trkpt lat="40.7690230" lon="0.2111110">
        <ele>1167.2</ele>
      </trkpt>
      <trkpt lat="40.7690560" lon="0.2110890">
        <ele>1166.9</ele>
      </trkpt>
      <trkpt lat="40.7690310" lon="0.2110580">
        <ele>1167.1</ele>
      </trkpt>
      <trkpt lat="40.7689840" lon="0.2110570">
        <ele>1167.2</ele>
      </trkpt>
      <trkpt lat="40.7689360" lon="0.2110560">
        <ele>1167.6</ele>
      </trkpt>
      <trkpt lat="40.7688880" lon="0.2110550">
        <ele>1167.7</ele>
      </trkpt>
      <trkpt lat="40.7689180" lon="0.2110480">
        <ele>1167.6</ele>
      </trkpt>
      <trkpt lat="40.7689560" lon="0.2110330">
        <ele>1167.4</ele>
      </trkpt>
      <trkpt lat="40.7689890" lon="0.2110350">
        <ele>1167.2</ele>
      </trkpt>
      <trkpt lat="40.7690290" lon="0.2110840">
        <ele>1167.1</ele>
      </trkpt>
      <trkpt lat="40.7690620" lon="0.2111430">
        <ele>1167.0</ele>
      </trkpt>
      <trkpt lat="40.7688280" lon="0.2111210">
        <ele>1168.3</ele>
      </trkpt>
      <trkpt lat="40.7688050" lon="0.2110980">
        <ele>1168.4</ele>
      </trkpt>
      <trkpt lat="40.7687850" lon="0.2110670">
        <ele>1168.4</ele>
      </trkpt>
      <trkpt lat="40.7687800" lon="0.2110280">
        <ele>1168.2</ele>
      </trkpt>
      <trkpt lat="40.7688090" lon="0.2109970">
        <ele>1168.0</ele>
      </trkpt>
      <trkpt lat="40.7688450" lon="0.2109820">
        <ele>1167.7</ele>
      </trkpt>
      <trkpt lat="40.7688930" lon="0.2109900">
        <ele>1167.6</ele>
      </trkpt>
      <trkpt lat="40.7689220" lon="0.2110500">
        <ele>1167.6</ele>
      </trkpt>
      <trkpt lat="40.7689090" lon="0.2111000">
        <ele>1167.7</ele>
      </trkpt>
      <trkpt lat="40.7688930" lon="0.2111410">
        <ele>1168.0</ele>
      </trkpt>
      <trkpt lat="40.7688970" lon="0.2111860">
        <ele>1168.1</ele>
      </trkpt>
      <trkpt lat="40.7689200" lon="0.2112050">
        <ele>1167.9</ele>
      </trkpt>
      <trkpt lat="40.7689500" lon="0.2111980">
        <ele>1167.7</ele>
      </trkpt>
      <trkpt lat="40.7689210" lon="0.2112180">
        <ele>1167.9</ele>
      </trkpt>
      <trkpt lat="40.7688910" lon="0.2111970">
        <ele>1168.1</ele>
      </trkpt>
      <trkpt lat="40.7688870" lon="0.2111580">
        <ele>1168.1</ele>
      </trkpt>
      <trkpt lat="40.7688390" lon="0.2111350">
        <ele>1168.3</ele>
      </trkpt>
      <trkpt lat="40.7687980" lon="0.2111400">
        <ele>1168.5</ele>
      </trkpt>
      <trkpt lat="40.7687500" lon="0.2111400">
        <ele>1168.7</ele>
      </trkpt>
      <trkpt lat="40.7687180" lon="0.2111400">
        <ele>1168.9</ele>
      </trkpt>
      <trkpt lat="40.7686800" lon="0.2111440">
        <ele>1169.2</ele>
      </trkpt>
      <trkpt lat="40.7686350" lon="0.2111510">
        <ele>1169.7</ele>
      </trkpt>
      <trkpt lat="40.7685950" lon="0.2111590">
        <ele>1170.0</ele>
      </trkpt>
      <trkpt lat="40.7685650" lon="0.2111630">
        <ele>1170.3</ele>
      </trkpt>
      <trkpt lat="40.7685350" lon="0.2111690">
        <ele>1170.6</ele>
      </trkpt>
      <trkpt lat="40.7684620" lon="0.2111610">
        <ele>1171.0</ele>
      </trkpt>
      <trkpt lat="40.7684350" lon="0.2111130">
        <ele>1170.7</ele>
      </trkpt>
      <trkpt lat="40.7684200" lon="0.2110820">
        <ele>1170.1</ele>
      </trkpt>
      <trkpt lat="40.7683970" lon="0.2110450">
        <ele>1169.7</ele>
      </trkpt>
      <trkpt lat="40.7683590" lon="0.2109980">
        <ele>1169.3</ele>
      </trkpt>
      <trkpt lat="40.7683200" lon="0.2109400">
        <ele>1169.1</ele>
      </trkpt>
      <trkpt lat="40.7682800" lon="0.2108780">
        <ele>1168.0</ele>
      </trkpt>
      <trkpt lat="40.7682430" lon="0.2108180">
        <ele>1167.4</ele>
      </trkpt>
      <trkpt lat="40.7681350" lon="0.2106870">
        <ele>1165.6</ele>
      </trkpt>
      <trkpt lat="40.7680800" lon="0.2105920">
        <ele>1164.4</ele>
      </trkpt>
      <trkpt lat="40.7679880" lon="0.2104950">
        <ele>1162.4</ele>
      </trkpt>
      <trkpt lat="40.7679440" lon="0.2104160">
        <ele>1161.7</ele>
      </trkpt>
      <trkpt lat="40.7678690" lon="0.2103320">
        <ele>1160.3</ele>
      </trkpt>
      <trkpt lat="40.7678140" lon="0.2102650">
        <ele>1158.6</ele>
      </trkpt>
      <trkpt lat="40.7677480" lon="0.2101900">
        <ele>1156.9</ele>
      </trkpt>
      <trkpt lat="40.7676820" lon="0.2101140">
        <ele>1156.2</ele>
      </trkpt>
      <trkpt lat="40.7676230" lon="0.2100570">
        <ele>1154.8</ele>
      </trkpt>
      <trkpt lat="40.7675460" lon="0.2100030">
        <ele>1154.1</ele>
      </trkpt>
      <trkpt lat="40.7674940" lon="0.2099380">
        <ele>1152.5</ele>
      </trkpt>
      <trkpt lat="40.7674410" lon="0.2099110">
        <ele>1152.6</ele>
      </trkpt>
      <trkpt lat="40.7674050" lon="0.2098840">
        <ele>1151.7</ele>
      </trkpt>
      <trkpt lat="40.7673610" lon="0.2098570">
        <ele>1151.7</ele>
      </trkpt>
      <trkpt lat="40.7673290" lon="0.2098410">
        <ele>1150.7</ele>
      </trkpt>
      <trkpt lat="40.7672820" lon="0.2098320">
        <ele>1150.8</ele>
      </trkpt>
      <trkpt lat="40.7672310" lon="0.2098480">
        <ele>1150.9</ele>
      </trkpt>
      <trkpt lat="40.7671910" lon="0.2098490">
        <ele>1150.9</ele>
      </trkpt>
      <trkpt lat="40.7671610" lon="0.2098490">
        <ele>1151.0</ele>
      </trkpt>
      <trkpt lat="40.7671290" lon="0.2098580">
        <ele>1152.2</ele>
      </trkpt>
      <trkpt lat="40.7670750" lon="0.2098770">
        <ele>1152.2</ele>
      </trkpt>
      <trkpt lat="40.7670440" lon="0.2098800">
        <ele>1152.2</ele>
      </trkpt>
      <trkpt lat="40.7670130" lon="0.2098780">
        <ele>1152.2</ele>
      </trkpt>
      <trkpt lat="40.7669840" lon="0.2098770">
        <ele>1152.2</ele>
      </trkpt>
      <trkpt lat="40.7669520" lon="0.2098780">
        <ele>1152.1</ele>
      </trkpt>
      <trkpt lat="40.7669130" lon="0.2098890">
        <ele>1152.1</ele>
      </trkpt>
      <trkpt lat="40.7668690" lon="0.2099070">
        <ele>1153.3</ele>
      </trkpt>
      <trkpt lat="40.7668260" lon="0.2099290">
        <ele>1153.1</ele>
      </trkpt>
      <trkpt lat="40.7667860" lon="0.2099280">
        <ele>1153.1</ele>
      </trkpt>
      <trkpt lat="40.7667460" lon="0.2099110">
        <ele>1153.0</ele>
      </trkpt>
      <trkpt lat="40.7666820" lon="0.2098290">
        <ele>1149.9</ele>
      </trkpt>
      <trkpt lat="40.7666400" lon="0.2097990">
        <ele>1148.3</ele>
      </trkpt>
      <trkpt lat="40.7666060" lon="0.2097830">
        <ele>1148.1</ele>
      </trkpt>
      <trkpt lat="40.7665260" lon="0.2097610">
        <ele>1146.1</ele>
      </trkpt>
      <trkpt lat="40.7664440" lon="0.2097130">
        <ele>1144.3</ele>
      </trkpt>
      <trkpt lat="40.7663740" lon="0.2096870">
        <ele>1144.0</ele>
      </trkpt>
      <trkpt lat="40.7662690" lon="0.2096240">
        <ele>1140.7</ele>
      </trkpt>
      <trkpt lat="40.7662220" lon="0.2096190">
        <ele>1140.6</ele>
      </trkpt>
      <trkpt lat="40.7661860" lon="0.2096000">
        <ele>1140.5</ele>
      </trkpt>
      <trkpt lat="40.7661610" lon="0.2095600">
        <ele>1139.0</ele>
      </trkpt>
      <trkpt lat="40.7661290" lon="0.2095480">
        <ele>1137.5</ele>
      </trkpt>
      <trkpt lat="40.7660800" lon="0.2095140">
        <ele>1137.5</ele>
      </trkpt>
      <trkpt lat="40.7660370" lon="0.2094790">
        <ele>1135.9</ele>
      </trkpt>
      <trkpt lat="40.7659870" lon="0.2094650">
        <ele>1134.2</ele>
      </trkpt>
      <trkpt lat="40.7659260" lon="0.2094320">
        <ele>1134.3</ele>
      </trkpt>
      <trkpt lat="40.7658410" lon="0.2093710">
        <ele>1131.3</ele>
      </trkpt>
      <trkpt lat="40.7657790" lon="0.2092900">
        <ele>1128.5</ele>
      </trkpt>
      <trkpt lat="40.7657410" lon="0.2092410">
        <ele>1127.3</ele>
      </trkpt>
      <trkpt lat="40.7656690" lon="0.2091980">
        <ele>1126.3</ele>
      </trkpt>
      <trkpt lat="40.7656170" lon="0.2091430">
        <ele>1125.6</ele>
      </trkpt>
      <trkpt lat="40.7655690" lon="0.2091050">
        <ele>1124.6</ele>
      </trkpt>
      <trkpt lat="40.7655340" lon="0.2090910">
        <ele>1125.0</ele>
      </trkpt>
      <trkpt lat="40.7654290" lon="0.2089960">
        <ele>1121.7</ele>
      </trkpt>
      <trkpt lat="40.7654700" lon="0.2090590">
        <ele>1124.4</ele>
      </trkpt>
      <trkpt lat="40.7654410" lon="0.2090400">
        <ele>1123.3</ele>
      </trkpt>
      <trkpt lat="40.7653820" lon="0.2089850">
        <ele>1122.6</ele>
      </trkpt>
      <trkpt lat="40.7653470" lon="0.2089680">
        <ele>1123.1</ele>
      </trkpt>
      <trkpt lat="40.7653160" lon="0.2089420">
        <ele>1122.0</ele>
      </trkpt>
      <trkpt lat="40.7652750" lon="0.2089170">
        <ele>1122.6</ele>
      </trkpt>
      <trkpt lat="40.7652340" lon="0.2088760">
        <ele>1121.4</ele>
      </trkpt>
      <trkpt lat="40.7651970" lon="0.2088320">
        <ele>1120.9</ele>
      </trkpt>
      <trkpt lat="40.7651390" lon="0.2087720">
        <ele>1118.4</ele>
      </trkpt>
      <trkpt lat="40.7651070" lon="0.2087240">
        <ele>1116.8</ele>
      </trkpt>
      <trkpt lat="40.7650730" lon="0.2086800">
        <ele>1116.2</ele>
      </trkpt>
      <trkpt lat="40.7650390" lon="0.2086590">
        <ele>1116.9</ele>
      </trkpt>
      <trkpt lat="40.7650010" lon="0.2086420">
        <ele>1117.1</ele>
      </trkpt>
      <trkpt lat="40.7649500" lon="0.2086050">
        <ele>1116.5</ele>
      </trkpt>
      <trkpt lat="40.7649170" lon="0.2085810">
        <ele>1117.4</ele>
      </trkpt>
      <trkpt lat="40.7648800" lon="0.2085570">
        <ele>1116.9</ele>
      </trkpt>
      <trkpt lat="40.7648390" lon="0.2085320">
        <ele>1118.7</ele>
      </trkpt>
      <trkpt lat="40.7648040" lon="0.2085060">
        <ele>1118.2</ele>
      </trkpt>
      <trkpt lat="40.7647660" lon="0.2084780">
        <ele>1117.8</ele>
      </trkpt>
      <trkpt lat="40.7647230" lon="0.2084440">
        <ele>1118.8</ele>
      </trkpt>
      <trkpt lat="40.7646800" lon="0.2084100">
        <ele>1119.8</ele>
      </trkpt>
      <trkpt lat="40.7646360" lon="0.2083760">
        <ele>1119.7</ele>
      </trkpt>
      <trkpt lat="40.7645900" lon="0.2083440">
        <ele>1119.6</ele>
      </trkpt>
      <trkpt lat="40.7645510" lon="0.2083130">
        <ele>1121.7</ele>
      </trkpt>
      <trkpt lat="40.7645170" lon="0.2082740">
        <ele>1121.7</ele>
      </trkpt>
      <trkpt lat="40.7644760" lon="0.2082330">
        <ele>1121.8</ele>
      </trkpt>
      <trkpt lat="40.7644390" lon="0.2081910">
        <ele>1122.1</ele>
      </trkpt>
      <trkpt lat="40.7643210" lon="0.2080640">
        <ele>1124.6</ele>
      </trkpt>
      <trkpt lat="40.7643040" lon="0.2080300">
        <ele>1123.4</ele>
      </trkpt>
      <trkpt lat="40.7642670" lon="0.2079880">
        <ele>1123.7</ele>
      </trkpt>
      <trkpt lat="40.7642100" lon="0.2079430">
        <ele>1125.8</ele>
      </trkpt>
      <trkpt lat="40.7641500" lon="0.2079350">
        <ele>1129.5</ele>
      </trkpt>
      <trkpt lat="40.7640950" lon="0.2078800">
        <ele>1131.2</ele>
      </trkpt>
      <trkpt lat="40.7640570" lon="0.2078080">
        <ele>1131.9</ele>
      </trkpt>
      <trkpt lat="40.7640280" lon="0.2077790">
        <ele>1132.5</ele>
      </trkpt>
      <trkpt lat="40.7640030" lon="0.2077570">
        <ele>1132.5</ele>
      </trkpt>
      <trkpt lat="40.7639280" lon="0.2076700">
        <ele>1135.8</ele>
      </trkpt>
      <trkpt lat="40.7639000" lon="0.2076490">
        <ele>1138.0</ele>
      </trkpt>
      <trkpt lat="40.7638780" lon="0.2075990">
        <ele>1137.0</ele>
      </trkpt>
      <trkpt lat="40.7638620" lon="0.2075330">
        <ele>1136.7</ele>
      </trkpt>
      <trkpt lat="40.7638570" lon="0.2074970">
        <ele>1136.7</ele>
      </trkpt>
      <trkpt lat="40.7638490" lon="0.2074540">
        <ele>1135.7</ele>
      </trkpt>
      <trkpt lat="40.7638370" lon="0.2074080">
        <ele>1133.7</ele>
      </trkpt>
      <trkpt lat="40.7638240" lon="0.2073580">
        <ele>1134.5</ele>
      </trkpt>
      <trkpt lat="40.7638060" lon="0.2073050">
        <ele>1133.5</ele>
      </trkpt>
      <trkpt lat="40.7637860" lon="0.2072480">
        <ele>1134.1</ele>
      </trkpt>
      <trkpt lat="40.7637620" lon="0.2071890">
        <ele>1133.6</ele>
      </trkpt>
      <trkpt lat="40.7637350" lon="0.2071280">
        <ele>1134.3</ele>
      </trkpt>
      <trkpt lat="40.7637060" lon="0.2070650">
        <ele>1134.3</ele>
      </trkpt>
      <trkpt lat="40.7636770" lon="0.2070000">
        <ele>1133.4</ele>
      </trkpt>
      <trkpt lat="40.7636420" lon="0.2069240">
        <ele>1133.5</ele>
      </trkpt>
      <trkpt lat="40.7636200" lon="0.2068440">
        <ele>1133.5</ele>
      </trkpt>
      <trkpt lat="40.7635980" lon="0.2066940">
        <ele>1131.8</ele>
      </trkpt>
      <trkpt lat="40.7635770" lon="0.2066090">
        <ele>1129.1</ele>
      </trkpt>
      <trkpt lat="40.7635380" lon="0.2065960">
        <ele>1132.7</ele>
      </trkpt>
      <trkpt lat="40.7635260" lon="0.2065050">
        <ele>1128.7</ele>
      </trkpt>
      <trkpt lat="40.7635190" lon="0.2064250">
        <ele>1127.3</ele>
      </trkpt>
      <trkpt lat="40.7635290" lon="0.2063540">
        <ele>1124.4</ele>
      </trkpt>
      <trkpt lat="40.7635220" lon="0.2062620">
        <ele>1121.3</ele>
      </trkpt>
      <trkpt lat="40.7635250" lon="0.2061620">
        <ele>1116.9</ele>
      </trkpt>
      <trkpt lat="40.7635180" lon="0.2060150">
        <ele>1113.1</ele>
      </trkpt>
      <trkpt lat="40.7635130" lon="0.2059340">
        <ele>1110.9</ele>
      </trkpt>
      <trkpt lat="40.7634860" lon="0.2058330">
        <ele>1109.9</ele>
      </trkpt>
      <trkpt lat="40.7634530" lon="0.2057320">
        <ele>1107.8</ele>
      </trkpt>
      <trkpt lat="40.7634280" lon="0.2056530">
        <ele>1108.0</ele>
      </trkpt>
      <trkpt lat="40.7634070" lon="0.2055940">
        <ele>1107.2</ele>
      </trkpt>
      <trkpt lat="40.7633840" lon="0.2055070">
        <ele>1105.4</ele>
      </trkpt>
      <trkpt lat="40.7633730" lon="0.2054240">
        <ele>1104.6</ele>
      </trkpt>
      <trkpt lat="40.7633640" lon="0.2053390">
        <ele>1102.8</ele>
      </trkpt>
      <trkpt lat="40.7633610" lon="0.2052600">
        <ele>1101.0</ele>
      </trkpt>
      <trkpt lat="40.7633380" lon="0.2051950">
        <ele>1101.1</ele>
      </trkpt>
      <trkpt lat="40.7632850" lon="0.2051070">
        <ele>1100.2</ele>
      </trkpt>
      <trkpt lat="40.7632290" lon="0.2050390">
        <ele>1099.6</ele>
      </trkpt>
      <trkpt lat="40.7632510" lon="0.2049840">
        <ele>1098.7</ele>
      </trkpt>
      <trkpt lat="40.7632120" lon="0.2049090">
        <ele>1097.4</ele>
      </trkpt>
      <trkpt lat="40.7631910" lon="0.2048480">
        <ele>1096.5</ele>
      </trkpt>
      <trkpt lat="40.7631540" lon="0.2047680">
        <ele>1095.5</ele>
      </trkpt>
      <trkpt lat="40.7631180" lon="0.2047430">
        <ele>1095.7</ele>
      </trkpt>
      <trkpt lat="40.7630680" lon="0.2047240">
        <ele>1096.1</ele>
      </trkpt>
      <trkpt lat="40.7629920" lon="0.2046640">
        <ele>1096.2</ele>
      </trkpt>
      <trkpt lat="40.7629640" lon="0.2046210">
        <ele>1096.0</ele>
      </trkpt>
      <trkpt lat="40.7629390" lon="0.2045550">
        <ele>1095.0</ele>
      </trkpt>
      <trkpt lat="40.7629050" lon="0.2044840">
        <ele>1095.0</ele>
      </trkpt>
      <trkpt lat="40.7628710" lon="0.2044540">
        <ele>1095.0</ele>
      </trkpt>
      <trkpt lat="40.7628500" lon="0.2044200">
        <ele>1095.0</ele>
      </trkpt>
      <trkpt lat="40.7628290" lon="0.2043850">
        <ele>1095.0</ele>
      </trkpt>
      <trkpt lat="40.7627990" lon="0.2043580">
        <ele>1095.1</ele>
      </trkpt>
      <trkpt lat="40.7627650" lon="0.2043310">
        <ele>1095.1</ele>
      </trkpt>
      <trkpt lat="40.7627260" lon="0.2043040">
        <ele>1095.2</ele>
      </trkpt>
      <trkpt lat="40.7626900" lon="0.2042790">
        <ele>1095.3</ele>
      </trkpt>
      <trkpt lat="40.7626560" lon="0.2042590">
        <ele>1095.4</ele>
      </trkpt>
      <trkpt lat="40.7626140" lon="0.2042310">
        <ele>1094.7</ele>
      </trkpt>
      <trkpt lat="40.7625780" lon="0.2042070">
        <ele>1094.9</ele>
      </trkpt>
      <trkpt lat="40.7625520" lon="0.2041840">
        <ele>1094.1</ele>
      </trkpt>
      <trkpt lat="40.7625250" lon="0.2041640">
        <ele>1094.4</ele>
      </trkpt>
      <trkpt lat="40.7624800" lon="0.2041430">
        <ele>1093.6</ele>
      </trkpt>
      <trkpt lat="40.7624280" lon="0.2041240">
        <ele>1094.3</ele>
      </trkpt>
      <trkpt lat="40.7623830" lon="0.2041120">
        <ele>1094.7</ele>
      </trkpt>
      <trkpt lat="40.7622790" lon="0.2040790">
        <ele>1094.5</ele>
      </trkpt>
      <trkpt lat="40.7622140" lon="0.2040610">
        <ele>1094.2</ele>
      </trkpt>
      <trkpt lat="40.7621670" lon="0.2040500">
        <ele>1095.6</ele>
      </trkpt>
      <trkpt lat="40.7621230" lon="0.2040340">
        <ele>1096.3</ele>
      </trkpt>
      <trkpt lat="40.7620860" lon="0.2039930">
        <ele>1095.4</ele>
      </trkpt>
      <trkpt lat="40.7620200" lon="0.2039750">
        <ele>1095.2</ele>
      </trkpt>
      <trkpt lat="40.7619570" lon="0.2039770">
        <ele>1098.8</ele>
      </trkpt>
      <trkpt lat="40.7619040" lon="0.2039660">
        <ele>1099.1</ele>
      </trkpt>
      <trkpt lat="40.7618510" lon="0.2039120">
        <ele>1099.2</ele>
      </trkpt>
      <trkpt lat="40.7618260" lon="0.2038770">
        <ele>1097.5</ele>
      </trkpt>
      <trkpt lat="40.7617830" lon="0.2038720">
        <ele>1099.4</ele>
      </trkpt>
      <trkpt lat="40.7617500" lon="0.2038730">
        <ele>1100.6</ele>
      </trkpt>
      <trkpt lat="40.7616600" lon="0.2038060">
        <ele>1101.4</ele>
      </trkpt>
      <trkpt lat="40.7616260" lon="0.2038360">
        <ele>1102.7</ele>
      </trkpt>
      <trkpt lat="40.7615440" lon="0.2037680">
        <ele>1104.8</ele>
      </trkpt>
      <trkpt lat="40.7614890" lon="0.2036580">
        <ele>1102.4</ele>
      </trkpt>
      <trkpt lat="40.7614420" lon="0.2035880">
        <ele>1100.1</ele>
      </trkpt>
      <trkpt lat="40.7613890" lon="0.2035080">
        <ele>1101.1</ele>
      </trkpt>
      <trkpt lat="40.7613310" lon="0.2034170">
        <ele>1098.0</ele>
      </trkpt>
      <trkpt lat="40.7612820" lon="0.2033480">
        <ele>1097.3</ele>
      </trkpt>
      <trkpt lat="40.7612320" lon="0.2032340">
        <ele>1093.7</ele>
      </trkpt>
      <trkpt lat="40.7611760" lon="0.2031630">
        <ele>1092.9</ele>
      </trkpt>
      <trkpt lat="40.7611140" lon="0.2031070">
        <ele>1091.1</ele>
      </trkpt>
      <trkpt lat="40.7610710" lon="0.2030810">
        <ele>1093.6</ele>
      </trkpt>
      <trkpt lat="40.7610010" lon="0.2030300">
        <ele>1091.6</ele>
      </trkpt>
      <trkpt lat="40.7609390" lon="0.2029570">
        <ele>1091.7</ele>
      </trkpt>
      <trkpt lat="40.7608700" lon="0.2029220">
        <ele>1092.0</ele>
      </trkpt>
      <trkpt lat="40.7608130" lon="0.2028830">
        <ele>1092.4</ele>
      </trkpt>
      <trkpt lat="40.7607530" lon="0.2028110">
        <ele>1089.6</ele>
      </trkpt>
      <trkpt lat="40.7607010" lon="0.2027780">
        <ele>1091.9</ele>
      </trkpt>
      <trkpt lat="40.7606370" lon="0.2027500">
        <ele>1092.0</ele>
      </trkpt>
      <trkpt lat="40.7605850" lon="0.2027220">
        <ele>1092.0</ele>
      </trkpt>
      <trkpt lat="40.7605190" lon="0.2027030">
        <ele>1094.4</ele>
      </trkpt>
      <trkpt lat="40.7604760" lon="0.2027130">
        <ele>1095.6</ele>
      </trkpt>
      <trkpt lat="40.7604200" lon="0.2027130">
        <ele>1097.7</ele>
      </trkpt>
      <trkpt lat="40.7603810" lon="0.2026830">
        <ele>1096.5</ele>
      </trkpt>
      <trkpt lat="40.7603300" lon="0.2026370">
        <ele>1095.4</ele>
      </trkpt>
      <trkpt lat="40.7602820" lon="0.2026200">
        <ele>1097.5</ele>
      </trkpt>
      <trkpt lat="40.7602310" lon="0.2026050">
        <ele>1098.6</ele>
      </trkpt>
      <trkpt lat="40.7601560" lon="0.2025490">
        <ele>1097.5</ele>
      </trkpt>
      <trkpt lat="40.7600970" lon="0.2025170">
        <ele>1097.1</ele>
      </trkpt>
      <trkpt lat="40.7600390" lon="0.2024820">
        <ele>1098.0</ele>
      </trkpt>
      <trkpt lat="40.7599490" lon="0.2024140">
        <ele>1096.9</ele>
      </trkpt>
      <trkpt lat="40.7598070" lon="0.2023050">
        <ele>1095.9</ele>
      </trkpt>
      <trkpt lat="40.7596770" lon="0.2021740">
        <ele>1091.9</ele>
      </trkpt>
      <trkpt lat="40.7595770" lon="0.2021620">
        <ele>1094.4</ele>
      </trkpt>
      <trkpt lat="40.7594750" lon="0.2020880">
        <ele>1093.7</ele>
      </trkpt>
      <trkpt lat="40.7594310" lon="0.2020320">
        <ele>1093.2</ele>
      </trkpt>
      <trkpt lat="40.7593520" lon="0.2019330">
        <ele>1092.2</ele>
      </trkpt>
      <trkpt lat="40.7593100" lon="0.2018840">
        <ele>1092.4</ele>
      </trkpt>
      <trkpt lat="40.7593230" lon="0.2018430">
        <ele>1090.7</ele>
      </trkpt>
      <trkpt lat="40.7593010" lon="0.2017820">
        <ele>1089.5</ele>
      </trkpt>
      <trkpt lat="40.7593020" lon="0.2017370">
        <ele>1088.8</ele>
      </trkpt>
      <trkpt lat="40.7593140" lon="0.2016940">
        <ele>1088.1</ele>
      </trkpt>
      <trkpt lat="40.7593390" lon="0.2016770">
        <ele>1087.4</ele>
      </trkpt>
      <trkpt lat="40.7593720" lon="0.2016470">
        <ele>1086.2</ele>
      </trkpt>
      <trkpt lat="40.7594010" lon="0.2016240">
        <ele>1085.6</ele>
      </trkpt>
      <trkpt lat="40.7594280" lon="0.2015850">
        <ele>1084.4</ele>
      </trkpt>
      <trkpt lat="40.7594610" lon="0.2015430">
        <ele>1083.3</ele>
      </trkpt>
      <trkpt lat="40.7594870" lon="0.2015120">
        <ele>1082.3</ele>
      </trkpt>
      <trkpt lat="40.7595140" lon="0.2014850">
        <ele>1081.3</ele>
      </trkpt>
      <trkpt lat="40.7595470" lon="0.2014630">
        <ele>1080.7</ele>
      </trkpt>
      <trkpt lat="40.7595880" lon="0.2014410">
        <ele>1080.0</ele>
      </trkpt>
      <trkpt lat="40.7596640" lon="0.2013880">
        <ele>1079.0</ele>
      </trkpt>
      <trkpt lat="40.7597120" lon="0.2013550">
        <ele>1078.0</ele>
      </trkpt>
      <trkpt lat="40.7597760" lon="0.2013080">
        <ele>1077.1</ele>
      </trkpt>
      <trkpt lat="40.7598400" lon="0.2012580">
        <ele>1076.4</ele>
      </trkpt>
      <trkpt lat="40.7598760" lon="0.2012290">
        <ele>1076.1</ele>
      </trkpt>
      <trkpt lat="40.7599230" lon="0.2011710">
        <ele>1075.8</ele>
      </trkpt>
      <trkpt lat="40.7599480" lon="0.2011340">
        <ele>1075.5</ele>
      </trkpt>
      <trkpt lat="40.7599860" lon="0.2010600">
        <ele>1075.2</ele>
      </trkpt>
      <trkpt lat="40.7600170" lon="0.2010020">
        <ele>1075.3</ele>
      </trkpt>
      <trkpt lat="40.7600520" lon="0.2009190">
        <ele>1075.9</ele>
      </trkpt>
      <trkpt lat="40.7600640" lon="0.2008810">
        <ele>1076.6</ele>
      </trkpt>
      <trkpt lat="40.7600960" lon="0.2008620">
        <ele>1076.1</ele>
      </trkpt>
      <trkpt lat="40.7601170" lon="0.2008040">
        <ele>1076.4</ele>
      </trkpt>
      <trkpt lat="40.7601390" lon="0.2007550">
        <ele>1077.6</ele>
      </trkpt>
      <trkpt lat="40.7601650" lon="0.2007100">
        <ele>1078.0</ele>
      </trkpt>
      <trkpt lat="40.7602010" lon="0.2006540">
        <ele>1078.2</ele>
      </trkpt>
      <trkpt lat="40.7602320" lon="0.2006310">
        <ele>1077.6</ele>
      </trkpt>
      <trkpt lat="40.7602650" lon="0.2006110">
        <ele>1077.8</ele>
      </trkpt>
      <trkpt lat="40.7602940" lon="0.2005840">
        <ele>1077.9</ele>
      </trkpt>
      <trkpt lat="40.7603210" lon="0.2005560">
        <ele>1077.9</ele>
      </trkpt>
      <trkpt lat="40.7603440" lon="0.2005230">
        <ele>1078.0</ele>
      </trkpt>
      <trkpt lat="40.7603650" lon="0.2004900">
        <ele>1078.3</ele>
      </trkpt>
      <trkpt lat="40.7603980" lon="0.2004390">
        <ele>1078.5</ele>
      </trkpt>
      <trkpt lat="40.7604260" lon="0.2003980">
        <ele>1078.7</ele>
      </trkpt>
      <trkpt lat="40.7604620" lon="0.2003470">
        <ele>1078.9</ele>
      </trkpt>
      <trkpt lat="40.7604830" lon="0.2003230">
        <ele>1079.8</ele>
      </trkpt>
      <trkpt lat="40.7605210" lon="0.2002920">
        <ele>1078.4</ele>
      </trkpt>
      <trkpt lat="40.7605520" lon="0.2002670">
        <ele>1079.3</ele>
      </trkpt>
      <trkpt lat="40.7605690" lon="0.2002340">
        <ele>1079.4</ele>
      </trkpt>
      <trkpt lat="40.7605930" lon="0.2002110">
        <ele>1078.8</ele>
      </trkpt>
      <trkpt lat="40.7606240" lon="0.2001850">
        <ele>1079.0</ele>
      </trkpt>
      <trkpt lat="40.7606540" lon="0.2001620">
        <ele>1078.5</ele>
      </trkpt>
      <trkpt lat="40.7606840" lon="0.2001340">
        <ele>1078.7</ele>
      </trkpt>
      <trkpt lat="40.7607170" lon="0.2001010">
        <ele>1079.0</ele>
      </trkpt>
      <trkpt lat="40.7607480" lon="0.2000790">
        <ele>1079.0</ele>
      </trkpt>
      <trkpt lat="40.7607800" lon="0.2000630">
        <ele>1079.2</ele>
      </trkpt>
      <trkpt lat="40.7608070" lon="0.2000450">
        <ele>1078.7</ele>
      </trkpt>
      <trkpt lat="40.7608310" lon="0.2000240">
        <ele>1079.0</ele>
      </trkpt>
      <trkpt lat="40.7608440" lon="0.1999900">
        <ele>1079.0</ele>
      </trkpt>
      <trkpt lat="40.7608590" lon="0.1999460">
        <ele>1079.4</ele>
      </trkpt>
      <trkpt lat="40.7608740" lon="0.1998780">
        <ele>1081.0</ele>
      </trkpt>
      <trkpt lat="40.7608830" lon="0.1998430">
        <ele>1081.3</ele>
      </trkpt>
      <trkpt lat="40.7608940" lon="0.1998070">
        <ele>1082.0</ele>
      </trkpt>
      <trkpt lat="40.7609070" lon="0.1997710">
        <ele>1082.0</ele>
      </trkpt>
      <trkpt lat="40.7609210" lon="0.1997360">
        <ele>1082.2</ele>
      </trkpt>
      <trkpt lat="40.7609350" lon="0.1997000">
        <ele>1082.9</ele>
      </trkpt>
      <trkpt lat="40.7609490" lon="0.1996690">
        <ele>1083.1</ele>
      </trkpt>
      <trkpt lat="40.7609720" lon="0.1996270">
        <ele>1083.8</ele>
      </trkpt>
      <trkpt lat="40.7610070" lon="0.1995930">
        <ele>1084.0</ele>
      </trkpt>
      <trkpt lat="40.7610520" lon="0.1995560">
        <ele>1083.8</ele>
      </trkpt>
      <trkpt lat="40.7610890" lon="0.1995280">
        <ele>1083.4</ele>
      </trkpt>
      <trkpt lat="40.7611290" lon="0.1994990">
        <ele>1083.6</ele>
      </trkpt>
      <trkpt lat="40.7611740" lon="0.1994650">
        <ele>1083.5</ele>
      </trkpt>
      <trkpt lat="40.7612090" lon="0.1994420">
        <ele>1083.2</ele>
      </trkpt>
      <trkpt lat="40.7612450" lon="0.1994200">
        <ele>1083.5</ele>
      </trkpt>
      <trkpt lat="40.7612780" lon="0.1993950">
        <ele>1083.2</ele>
      </trkpt>
      <trkpt lat="40.7613080" lon="0.1993720">
        <ele>1083.5</ele>
      </trkpt>
      <trkpt lat="40.7613320" lon="0.1993530">
        <ele>1083.5</ele>
      </trkpt>
      <trkpt lat="40.7613560" lon="0.1993310">
        <ele>1083.8</ele>
      </trkpt>
      <trkpt lat="40.7613920" lon="0.1993040">
        <ele>1083.6</ele>
      </trkpt>
      <trkpt lat="40.7614240" lon="0.1992870">
        <ele>1083.8</ele>
      </trkpt>
      <trkpt lat="40.7614610" lon="0.1992650">
        <ele>1083.5</ele>
      </trkpt>
      <trkpt lat="40.7614960" lon="0.1992490">
        <ele>1083.4</ele>
      </trkpt>
      <trkpt lat="40.7615260" lon="0.1992370">
        <ele>1083.4</ele>
      </trkpt>
      <trkpt lat="40.7615630" lon="0.1992240">
        <ele>1082.9</ele>
      </trkpt>
      <trkpt lat="40.7616000" lon="0.1992040">
        <ele>1083.0</ele>
      </trkpt>
      <trkpt lat="40.7616310" lon="0.1991870">
        <ele>1082.7</ele>
      </trkpt>
      <trkpt lat="40.7616570" lon="0.1991740">
        <ele>1082.7</ele>
      </trkpt>
      <trkpt lat="40.7616810" lon="0.1991520">
        <ele>1082.8</ele>
      </trkpt>
      <trkpt lat="40.7617030" lon="0.1991290">
        <ele>1082.4</ele>
      </trkpt>
      <trkpt lat="40.7617220" lon="0.1990830">
        <ele>1083.6</ele>
      </trkpt>
      <trkpt lat="40.7617420" lon="0.1990490">
        <ele>1083.2</ele>
      </trkpt>
      <trkpt lat="40.7617620" lon="0.1990120">
        <ele>1083.6</ele>
      </trkpt>
      <trkpt lat="40.7617770" lon="0.1989710">
        <ele>1084.2</ele>
      </trkpt>
      <trkpt lat="40.7617930" lon="0.1989130">
        <ele>1084.6</ele>
      </trkpt>
      <trkpt lat="40.7618060" lon="0.1988600">
        <ele>1085.8</ele>
      </trkpt>
      <trkpt lat="40.7618270" lon="0.1988170">
        <ele>1086.1</ele>
      </trkpt>
      <trkpt lat="40.7618440" lon="0.1987880">
        <ele>1086.1</ele>
      </trkpt>
      <trkpt lat="40.7618560" lon="0.1987490">
        <ele>1086.4</ele>
      </trkpt>
      <trkpt lat="40.7618670" lon="0.1987030">
        <ele>1086.9</ele>
      </trkpt>
      <trkpt lat="40.7618830" lon="0.1986670">
        <ele>1087.5</ele>
      </trkpt>
      <trkpt lat="40.7619060" lon="0.1986410">
        <ele>1087.7</ele>
      </trkpt>
      <trkpt lat="40.7619160" lon="0.1986060">
        <ele>1088.3</ele>
      </trkpt>
      <trkpt lat="40.7619250" lon="0.1985700">
        <ele>1087.9</ele>
      </trkpt>
      <trkpt lat="40.7619530" lon="0.1985380">
        <ele>1088.1</ele>
      </trkpt>
      <trkpt lat="40.7619840" lon="0.1985180">
        <ele>1088.3</ele>
      </trkpt>
      <trkpt lat="40.7620170" lon="0.1984890">
        <ele>1087.9</ele>
      </trkpt>
      <trkpt lat="40.7620490" lon="0.1984640">
        <ele>1088.2</ele>
      </trkpt>
      <trkpt lat="40.7620760" lon="0.1984360">
        <ele>1088.7</ele>
      </trkpt>
      <trkpt lat="40.7620950" lon="0.1984040">
        <ele>1088.5</ele>
      </trkpt>
      <trkpt lat="40.7621160" lon="0.1983720">
        <ele>1088.7</ele>
      </trkpt>
      <trkpt lat="40.7621380" lon="0.1983480">
        <ele>1089.3</ele>
      </trkpt>
      <trkpt lat="40.7621700" lon="0.1983260">
        <ele>1089.0</ele>
      </trkpt>
      <trkpt lat="40.7621900" lon="0.1982980">
        <ele>1089.2</ele>
      </trkpt>
      <trkpt lat="40.7622230" lon="0.1982610">
        <ele>1089.4</ele>
      </trkpt>
      <trkpt lat="40.7622470" lon="0.1982380">
        <ele>1089.0</ele>
      </trkpt>
      <trkpt lat="40.7622800" lon="0.1982120">
        <ele>1089.2</ele>
      </trkpt>
      <trkpt lat="40.7623110" lon="0.1981840">
        <ele>1088.9</ele>
      </trkpt>
      <trkpt lat="40.7623420" lon="0.1981560">
        <ele>1089.1</ele>
      </trkpt>
      <trkpt lat="40.7623780" lon="0.1981350">
        <ele>1089.4</ele>
      </trkpt>
      <trkpt lat="40.7624200" lon="0.1981210">
        <ele>1089.1</ele>
      </trkpt>
      <trkpt lat="40.7624570" lon="0.1980990">
        <ele>1088.7</ele>
      </trkpt>
      <trkpt lat="40.7625020" lon="0.1980670">
        <ele>1088.8</ele>
      </trkpt>
      <trkpt lat="40.7625310" lon="0.1980500">
        <ele>1088.9</ele>
      </trkpt>
      <trkpt lat="40.7625620" lon="0.1980280">
        <ele>1088.6</ele>
      </trkpt>
      <trkpt lat="40.7625920" lon="0.1980100">
        <ele>1088.6</ele>
      </trkpt>
      <trkpt lat="40.7626200" lon="0.1979950">
        <ele>1088.3</ele>
      </trkpt>
      <trkpt lat="40.7626530" lon="0.1979770">
        <ele>1088.0</ele>
      </trkpt>
      <trkpt lat="40.7626880" lon="0.1979570">
        <ele>1088.0</ele>
      </trkpt>
      <trkpt lat="40.7627170" lon="0.1979330">
        <ele>1087.6</ele>
      </trkpt>
      <trkpt lat="40.7627540" lon="0.1978950">
        <ele>1087.4</ele>
      </trkpt>
      <trkpt lat="40.7627800" lon="0.1978590">
        <ele>1087.2</ele>
      </trkpt>
      <trkpt lat="40.7627990" lon="0.1978310">
        <ele>1086.9</ele>
      </trkpt>
      <trkpt lat="40.7628130" lon="0.1977960">
        <ele>1087.1</ele>
      </trkpt>
      <trkpt lat="40.7628240" lon="0.1977500">
        <ele>1087.4</ele>
      </trkpt>
      <trkpt lat="40.7628260" lon="0.1977120">
        <ele>1087.4</ele>
      </trkpt>
      <trkpt lat="40.7628260" lon="0.1976680">
        <ele>1087.7</ele>
      </trkpt>
      <trkpt lat="40.7628270" lon="0.1976150">
        <ele>1087.8</ele>
      </trkpt>
      <trkpt lat="40.7628330" lon="0.1975350">
        <ele>1087.3</ele>
      </trkpt>
      <trkpt lat="40.7628440" lon="0.1974780">
        <ele>1087.3</ele>
      </trkpt>
      <trkpt lat="40.7628690" lon="0.1974110">
        <ele>1086.6</ele>
      </trkpt>
      <trkpt lat="40.7629020" lon="0.1973440">
        <ele>1085.9</ele>
      </trkpt>
      <trkpt lat="40.7629460" lon="0.1972830">
        <ele>1085.1</ele>
      </trkpt>
      <trkpt lat="40.7630040" lon="0.1972190">
        <ele>1083.3</ele>
      </trkpt>
      <trkpt lat="40.7630620" lon="0.1971550">
        <ele>1081.5</ele>
      </trkpt>
      <trkpt lat="40.7631190" lon="0.1970940">
        <ele>1080.4</ele>
      </trkpt>
      <trkpt lat="40.7631710" lon="0.1970290">
        <ele>1078.6</ele>
      </trkpt>
      <trkpt lat="40.7632070" lon="0.1969690">
        <ele>1077.8</ele>
      </trkpt>
      <trkpt lat="40.7632180" lon="0.1968610">
        <ele>1077.7</ele>
      </trkpt>
      <trkpt lat="40.7632250" lon="0.1967710">
        <ele>1076.8</ele>
      </trkpt>
      <trkpt lat="40.7632270" lon="0.1966840">
        <ele>1076.6</ele>
      </trkpt>
      <trkpt lat="40.7632280" lon="0.1965920">
        <ele>1076.2</ele>
      </trkpt>
      <trkpt lat="40.7632130" lon="0.1965220">
        <ele>1076.7</ele>
      </trkpt>
      <trkpt lat="40.7632210" lon="0.1964440">
        <ele>1075.6</ele>
      </trkpt>
      <trkpt lat="40.7632290" lon="0.1963730">
        <ele>1075.0</ele>
      </trkpt>
      <trkpt lat="40.7632980" lon="0.1963270">
        <ele>1073.4</ele>
      </trkpt>
      <trkpt lat="40.7633230" lon="0.1962220">
        <ele>1072.3</ele>
      </trkpt>
      <trkpt lat="40.7633570" lon="0.1961270">
        <ele>1071.1</ele>
      </trkpt>
      <trkpt lat="40.7634000" lon="0.1960340">
        <ele>1069.5</ele>
      </trkpt>
      <trkpt lat="40.7634350" lon="0.1959230">
        <ele>1068.2</ele>
      </trkpt>
      <trkpt lat="40.7634770" lon="0.1958340">
        <ele>1066.8</ele>
      </trkpt>
      <trkpt lat="40.7635260" lon="0.1957790">
        <ele>1065.2</ele>
      </trkpt>
      <trkpt lat="40.7635390" lon="0.1957360">
        <ele>1064.9</ele>
      </trkpt>
      <trkpt lat="40.7635560" lon="0.1956850">
        <ele>1064.2</ele>
      </trkpt>
      <trkpt lat="40.7635800" lon="0.1956570">
        <ele>1063.8</ele>
      </trkpt>
      <trkpt lat="40.7636000" lon="0.1956300">
        <ele>1063.5</ele>
      </trkpt>
      <trkpt lat="40.7636260" lon="0.1956030">
        <ele>1062.9</ele>
      </trkpt>
      <trkpt lat="40.7636430" lon="0.1955740">
        <ele>1062.5</ele>
      </trkpt>
      <trkpt lat="40.7636680" lon="0.1955390">
        <ele>1062.2</ele>
      </trkpt>
      <trkpt lat="40.7637100" lon="0.1955020">
        <ele>1061.3</ele>
      </trkpt>
      <trkpt lat="40.7637340" lon="0.1954820">
        <ele>1061.3</ele>
      </trkpt>
      <trkpt lat="40.7637580" lon="0.1954590">
        <ele>1060.8</ele>
      </trkpt>
      <trkpt lat="40.7637950" lon="0.1954140">
        <ele>1060.2</ele>
      </trkpt>
      <trkpt lat="40.7638330" lon="0.1953650">
        <ele>1059.7</ele>
      </trkpt>
      <trkpt lat="40.7638540" lon="0.1953400">
        <ele>1059.1</ele>
      </trkpt>
      <trkpt lat="40.7638890" lon="0.1952980">
        <ele>1058.4</ele>
      </trkpt>
      <trkpt lat="40.7639120" lon="0.1952630">
        <ele>1057.7</ele>
      </trkpt>
      <trkpt lat="40.7639300" lon="0.1952160">
        <ele>1057.4</ele>
      </trkpt>
      <trkpt lat="40.7639440" lon="0.1951650">
        <ele>1056.9</ele>
      </trkpt>
      <trkpt lat="40.7639650" lon="0.1951130">
        <ele>1056.6</ele>
      </trkpt>
      <trkpt lat="40.7639890" lon="0.1950820">
        <ele>1056.1</ele>
      </trkpt>
      <trkpt lat="40.7640710" lon="0.1950370">
        <ele>1055.5</ele>
      </trkpt>
      <trkpt lat="40.7641000" lon="0.1950160">
        <ele>1055.4</ele>
      </trkpt>
      <trkpt lat="40.7641290" lon="0.1949910">
        <ele>1054.9</ele>
      </trkpt>
      <trkpt lat="40.7641560" lon="0.1949690">
        <ele>1054.9</ele>
      </trkpt>
      <trkpt lat="40.7641890" lon="0.1949490">
        <ele>1054.5</ele>
      </trkpt>
      <trkpt lat="40.7642180" lon="0.1949510">
        <ele>1054.3</ele>
      </trkpt>
      <trkpt lat="40.7642560" lon="0.1949610">
        <ele>1054.2</ele>
      </trkpt>
      <trkpt lat="40.7643070" lon="0.1949800">
        <ele>1054.1</ele>
      </trkpt>
      <trkpt lat="40.7643360" lon="0.1949880">
        <ele>1054.0</ele>
      </trkpt>
      <trkpt lat="40.7643800" lon="0.1949790">
        <ele>1053.8</ele>
      </trkpt>
      <trkpt lat="40.7644220" lon="0.1949420">
        <ele>1053.2</ele>
      </trkpt>
      <trkpt lat="40.7644390" lon="0.1949120">
        <ele>1053.1</ele>
      </trkpt>
      <trkpt lat="40.7644760" lon="0.1948650">
        <ele>1052.6</ele>
      </trkpt>
      <trkpt lat="40.7645110" lon="0.1948540">
        <ele>1052.4</ele>
      </trkpt>
      <trkpt lat="40.7645510" lon="0.1948570">
        <ele>1052.1</ele>
      </trkpt>
      <trkpt lat="40.7645890" lon="0.1948620">
        <ele>1051.5</ele>
      </trkpt>
      <trkpt lat="40.7646160" lon="0.1948680">
        <ele>1051.5</ele>
      </trkpt>
      <trkpt lat="40.7646550" lon="0.1948790">
        <ele>1050.7</ele>
      </trkpt>
      <trkpt lat="40.7647000" lon="0.1948970">
        <ele>1050.2</ele>
      </trkpt>
      <trkpt lat="40.7647330" lon="0.1949030">
        <ele>1049.7</ele>
      </trkpt>
      <trkpt lat="40.7647690" lon="0.1949060">
        <ele>1049.1</ele>
      </trkpt>
      <trkpt lat="40.7648070" lon="0.1949050">
        <ele>1048.5</ele>
      </trkpt>
      <trkpt lat="40.7648470" lon="0.1948950">
        <ele>1047.4</ele>
      </trkpt>
      <trkpt lat="40.7648860" lon="0.1948820">
        <ele>1046.8</ele>
      </trkpt>
      <trkpt lat="40.7649190" lon="0.1948720">
        <ele>1046.1</ele>
      </trkpt>
      <trkpt lat="40.7649550" lon="0.1948670">
        <ele>1045.4</ele>
      </trkpt>
      <trkpt lat="40.7649950" lon="0.1948660">
        <ele>1044.8</ele>
      </trkpt>
      <trkpt lat="40.7650350" lon="0.1948660">
        <ele>1044.1</ele>
      </trkpt>
      <trkpt lat="40.7650760" lon="0.1948640">
        <ele>1042.7</ele>
      </trkpt>
      <trkpt lat="40.7651080" lon="0.1948570">
        <ele>1042.0</ele>
      </trkpt>
      <trkpt lat="40.7651350" lon="0.1948450">
        <ele>1042.0</ele>
      </trkpt>
      <trkpt lat="40.7651690" lon="0.1948270">
        <ele>1040.4</ele>
      </trkpt>
      <trkpt lat="40.7652030" lon="0.1948110">
        <ele>1039.6</ele>
      </trkpt>
      <trkpt lat="40.7652410" lon="0.1948000">
        <ele>1038.7</ele>
      </trkpt>
      <trkpt lat="40.7652790" lon="0.1947940">
        <ele>1037.8</ele>
      </trkpt>
      <trkpt lat="40.7653140" lon="0.1947880">
        <ele>1037.0</ele>
      </trkpt>
      <trkpt lat="40.7653460" lon="0.1947810">
        <ele>1036.0</ele>
      </trkpt>
      <trkpt lat="40.7653860" lon="0.1947650">
        <ele>1035.2</ele>
      </trkpt>
      <trkpt lat="40.7654130" lon="0.1947350">
        <ele>1034.5</ele>
      </trkpt>
      <trkpt lat="40.7654590" lon="0.1946880">
        <ele>1034.0</ele>
      </trkpt>
      <trkpt lat="40.7654890" lon="0.1946650">
        <ele>1033.3</ele>
      </trkpt>
      <trkpt lat="40.7655180" lon="0.1946420">
        <ele>1032.7</ele>
      </trkpt>
      <trkpt lat="40.7655590" lon="0.1946110">
        <ele>1031.4</ele>
      </trkpt>
      <trkpt lat="40.7656070" lon="0.1945810">
        <ele>1030.7</ele>
      </trkpt>
      <trkpt lat="40.7656560" lon="0.1945520">
        <ele>1030.1</ele>
      </trkpt>
      <trkpt lat="40.7656920" lon="0.1945260">
        <ele>1029.0</ele>
      </trkpt>
      <trkpt lat="40.7657190" lon="0.1944980">
        <ele>1029.0</ele>
      </trkpt>
      <trkpt lat="40.7657410" lon="0.1944600">
        <ele>1028.5</ele>
      </trkpt>
      <trkpt lat="40.7657580" lon="0.1944220">
        <ele>1028.0</ele>
      </trkpt>
      <trkpt lat="40.7657740" lon="0.1943900">
        <ele>1028.2</ele>
      </trkpt>
      <trkpt lat="40.7658010" lon="0.1943540">
        <ele>1027.6</ele>
      </trkpt>
      <trkpt lat="40.7658290" lon="0.1943260">
        <ele>1026.9</ele>
      </trkpt>
      <trkpt lat="40.7658550" lon="0.1943130">
        <ele>1026.2</ele>
      </trkpt>
      <trkpt lat="40.7658870" lon="0.1943060">
        <ele>1025.5</ele>
      </trkpt>
      <trkpt lat="40.7659400" lon="0.1942730">
        <ele>1025.1</ele>
      </trkpt>
      <trkpt lat="40.7659510" lon="0.1942350">
        <ele>1024.5</ele>
      </trkpt>
      <trkpt lat="40.7659610" lon="0.1941230">
        <ele>1024.7</ele>
      </trkpt>
      <trkpt lat="40.7659760" lon="0.1940880">
        <ele>1024.6</ele>
      </trkpt>
      <trkpt lat="40.7659930" lon="0.1940530">
        <ele>1024.2</ele>
      </trkpt>
      <trkpt lat="40.7660160" lon="0.1940150">
        <ele>1023.7</ele>
      </trkpt>
      <trkpt lat="40.7660470" lon="0.1939680">
        <ele>1023.2</ele>
      </trkpt>
      <trkpt lat="40.7660810" lon="0.1939250">
        <ele>1022.6</ele>
      </trkpt>
      <trkpt lat="40.7661150" lon="0.1938870">
        <ele>1022.0</ele>
      </trkpt>
      <trkpt lat="40.7661400" lon="0.1938590">
        <ele>1022.0</ele>
      </trkpt>
      <trkpt lat="40.7661770" lon="0.1938110">
        <ele>1021.1</ele>
      </trkpt>
      <trkpt lat="40.7662050" lon="0.1937610">
        <ele>1020.5</ele>
      </trkpt>
      <trkpt lat="40.7662460" lon="0.1937200">
        <ele>1020.2</ele>
      </trkpt>
      <trkpt lat="40.7662930" lon="0.1936880">
        <ele>1019.9</ele>
      </trkpt>
      <trkpt lat="40.7663210" lon="0.1936680">
        <ele>1019.7</ele>
      </trkpt>
      <trkpt lat="40.7663520" lon="0.1936460">
        <ele>1019.7</ele>
      </trkpt>
      <trkpt lat="40.7663850" lon="0.1936290">
        <ele>1019.6</ele>
      </trkpt>
      <trkpt lat="40.7664200" lon="0.1936170">
        <ele>1019.7</ele>
      </trkpt>
      <trkpt lat="40.7664490" lon="0.1936120">
        <ele>1019.8</ele>
      </trkpt>
      <trkpt lat="40.7665060" lon="0.1935980">
        <ele>1019.9</ele>
      </trkpt>
      <trkpt lat="40.7665380" lon="0.1935850">
        <ele>1019.9</ele>
      </trkpt>
      <trkpt lat="40.7665640" lon="0.1935730">
        <ele>1019.9</ele>
      </trkpt>
      <trkpt lat="40.7666110" lon="0.1935520">
        <ele>1019.9</ele>
      </trkpt>
      <trkpt lat="40.7666420" lon="0.1935350">
        <ele>1019.9</ele>
      </trkpt>
      <trkpt lat="40.7667160" lon="0.1935020">
        <ele>1020.0</ele>
      </trkpt>
      <trkpt lat="40.7667450" lon="0.1934870">
        <ele>1020.1</ele>
      </trkpt>
      <trkpt lat="40.7667870" lon="0.1934630">
        <ele>1020.1</ele>
      </trkpt>
      <trkpt lat="40.7668230" lon="0.1934380">
        <ele>1020.3</ele>
      </trkpt>
      <trkpt lat="40.7668680" lon="0.1934010">
        <ele>1020.5</ele>
      </trkpt>
      <trkpt lat="40.7669670" lon="0.1933220">
        <ele>1021.1</ele>
      </trkpt>
      <trkpt lat="40.7670320" lon="0.1933090">
        <ele>1021.3</ele>
      </trkpt>
      <trkpt lat="40.7670890" lon="0.1932760">
        <ele>1021.6</ele>
      </trkpt>
      <trkpt lat="40.7671550" lon="0.1932510">
        <ele>1021.7</ele>
      </trkpt>
      <trkpt lat="40.7672020" lon="0.1932730">
        <ele>1021.7</ele>
      </trkpt>
      <trkpt lat="40.7672440" lon="0.1932880">
        <ele>1021.6</ele>
      </trkpt>
      <trkpt lat="40.7672870" lon="0.1933060">
        <ele>1021.1</ele>
      </trkpt>
      <trkpt lat="40.7673440" lon="0.1933190">
        <ele>1021.0</ele>
      </trkpt>
      <trkpt lat="40.7673920" lon="0.1932890">
        <ele>1021.0</ele>
      </trkpt>
      <trkpt lat="40.7674430" lon="0.1932680">
        <ele>1020.8</ele>
      </trkpt>
      <trkpt lat="40.7674730" lon="0.1932510">
        <ele>1020.5</ele>
      </trkpt>
      <trkpt lat="40.7674970" lon="0.1932250">
        <ele>1020.5</ele>
      </trkpt>
      <trkpt lat="40.7675210" lon="0.1932020">
        <ele>1020.4</ele>
      </trkpt>
      <trkpt lat="40.7675460" lon="0.1931820">
        <ele>1019.9</ele>
      </trkpt>
      <trkpt lat="40.7675690" lon="0.1931610">
        <ele>1020.1</ele>
      </trkpt>
      <trkpt lat="40.7676100" lon="0.1931340">
        <ele>1019.2</ele>
      </trkpt>
      <trkpt lat="40.7676400" lon="0.1931100">
        <ele>1018.8</ele>
      </trkpt>
      <trkpt lat="40.7676620" lon="0.1930670">
        <ele>1018.9</ele>
      </trkpt>
      <trkpt lat="40.7676720" lon="0.1930170">
        <ele>1018.4</ele>
      </trkpt>
      <trkpt lat="40.7676830" lon="0.1929740">
        <ele>1018.4</ele>
      </trkpt>
      <trkpt lat="40.7676920" lon="0.1929380">
        <ele>1018.4</ele>
      </trkpt>
      <trkpt lat="40.7676970" lon="0.1928720">
        <ele>1018.3</ele>
      </trkpt>
      <trkpt lat="40.7676950" lon="0.1928090">
        <ele>1017.9</ele>
      </trkpt>
      <trkpt lat="40.7676940" lon="0.1927710">
        <ele>1017.6</ele>
      </trkpt>
      <trkpt lat="40.7677050" lon="0.1927210">
        <ele>1016.7</ele>
      </trkpt>
      <trkpt lat="40.7677190" lon="0.1926800">
        <ele>1016.3</ele>
      </trkpt>
      <trkpt lat="40.7677520" lon="0.1926380">
        <ele>1015.4</ele>
      </trkpt>
      <trkpt lat="40.7677870" lon="0.1926060">
        <ele>1014.8</ele>
      </trkpt>
      <trkpt lat="40.7678090" lon="0.1925820">
        <ele>1013.8</ele>
      </trkpt>
      <trkpt lat="40.7678390" lon="0.1925640">
        <ele>1013.3</ele>
      </trkpt>
      <trkpt lat="40.7678760" lon="0.1925510">
        <ele>1012.3</ele>
      </trkpt>
      <trkpt lat="40.7679160" lon="0.1925360">
        <ele>1011.7</ele>
      </trkpt>
      <trkpt lat="40.7679570" lon="0.1925270">
        <ele>1011.2</ele>
      </trkpt>
      <trkpt lat="40.7680000" lon="0.1925230">
        <ele>1010.1</ele>
      </trkpt>
      <trkpt lat="40.7680360" lon="0.1925230">
        <ele>1009.5</ele>
      </trkpt>
      <trkpt lat="40.7680720" lon="0.1925250">
        <ele>1008.9</ele>
      </trkpt>
      <trkpt lat="40.7681050" lon="0.1925360">
        <ele>1008.4</ele>
      </trkpt>
      <trkpt lat="40.7681400" lon="0.1925550">
        <ele>1007.8</ele>
      </trkpt>
      <trkpt lat="40.7681760" lon="0.1925590">
        <ele>1007.3</ele>
      </trkpt>
      <trkpt lat="40.7682020" lon="0.1925460">
        <ele>1006.8</ele>
      </trkpt>
      <trkpt lat="40.7682330" lon="0.1925200">
        <ele>1006.2</ele>
      </trkpt>
      <trkpt lat="40.7682630" lon="0.1924930">
        <ele>1005.3</ele>
      </trkpt>
      <trkpt lat="40.7682940" lon="0.1924700">
        <ele>1004.4</ele>
      </trkpt>
      <trkpt lat="40.7683420" lon="0.1924640">
        <ele>1003.9</ele>
      </trkpt>
      <trkpt lat="40.7683710" lon="0.1924680">
        <ele>1003.3</ele>
      </trkpt>
      <trkpt lat="40.7684200" lon="0.1924700">
        <ele>1002.5</ele>
      </trkpt>
      <trkpt lat="40.7684590" lon="0.1924590">
        <ele>1002.2</ele>
      </trkpt>
      <trkpt lat="40.7685120" lon="0.1924330">
        <ele>1001.9</ele>
      </trkpt>
      <trkpt lat="40.7685390" lon="0.1924200">
        <ele>1001.3</ele>
      </trkpt>
      <trkpt lat="40.7685770" lon="0.1924090">
        <ele>1001.0</ele>
      </trkpt>
      <trkpt lat="40.7686200" lon="0.1923960">
        <ele>1000.3</ele>
      </trkpt>
      <trkpt lat="40.7686600" lon="0.1923850">
        <ele>999.8</ele>
      </trkpt>
      <trkpt lat="40.7687010" lon="0.1923680">
        <ele>999.6</ele>
      </trkpt>
      <trkpt lat="40.7687430" lon="0.1923490">
        <ele>999.3</ele>
      </trkpt>
      <trkpt lat="40.7687860" lon="0.1923200">
        <ele>998.5</ele>
      </trkpt>
      <trkpt lat="40.7688290" lon="0.1922840">
        <ele>997.9</ele>
      </trkpt>
      <trkpt lat="40.7688680" lon="0.1922440">
        <ele>997.2</ele>
      </trkpt>
      <trkpt lat="40.7689100" lon="0.1921990">
        <ele>996.1</ele>
      </trkpt>
      <trkpt lat="40.7689400" lon="0.1921630">
        <ele>995.4</ele>
      </trkpt>
      <trkpt lat="40.7689670" lon="0.1921310">
        <ele>995.2</ele>
      </trkpt>
      <trkpt lat="40.7690040" lon="0.1920910">
        <ele>994.7</ele>
      </trkpt>
      <trkpt lat="40.7691040" lon="0.1919660">
        <ele>992.0</ele>
      </trkpt>
      <trkpt lat="40.7691500" lon="0.1919080">
        <ele>991.0</ele>
      </trkpt>
      <trkpt lat="40.7691700" lon="0.1918800">
        <ele>990.4</ele>
      </trkpt>
      <trkpt lat="40.7691940" lon="0.1918240">
        <ele>989.8</ele>
      </trkpt>
      <trkpt lat="40.7692090" lon="0.1917800">
        <ele>988.8</ele>
      </trkpt>
      <trkpt lat="40.7692310" lon="0.1917070">
        <ele>988.3</ele>
      </trkpt>
      <trkpt lat="40.7692430" lon="0.1916440">
        <ele>986.7</ele>
      </trkpt>
      <trkpt lat="40.7692500" lon="0.1915930">
        <ele>986.0</ele>
      </trkpt>
      <trkpt lat="40.7692540" lon="0.1915430">
        <ele>985.1</ele>
      </trkpt>
      <trkpt lat="40.7692920" lon="0.1915400">
        <ele>984.7</ele>
      </trkpt>
      <trkpt lat="40.7693270" lon="0.1915030">
        <ele>983.4</ele>
      </trkpt>
      <trkpt lat="40.7693580" lon="0.1914890">
        <ele>983.0</ele>
      </trkpt>
      <trkpt lat="40.7693930" lon="0.1915160">
        <ele>982.5</ele>
      </trkpt>
      <trkpt lat="40.7694260" lon="0.1915290">
        <ele>981.9</ele>
      </trkpt>
      <trkpt lat="40.7694730" lon="0.1915150">
        <ele>980.4</ele>
      </trkpt>
      <trkpt lat="40.7695010" lon="0.1915270">
        <ele>979.5</ele>
      </trkpt>
      <trkpt lat="40.7695490" lon="0.1915470">
        <ele>979.3</ele>
      </trkpt>
      <trkpt lat="40.7695880" lon="0.1915750">
        <ele>978.9</ele>
      </trkpt>
      <trkpt lat="40.7696200" lon="0.1915960">
        <ele>977.9</ele>
      </trkpt>
      <trkpt lat="40.7696470" lon="0.1916050">
        <ele>976.9</ele>
      </trkpt>
      <trkpt lat="40.7696850" lon="0.1916060">
        <ele>975.7</ele>
      </trkpt>
      <trkpt lat="40.7697210" lon="0.1915970">
        <ele>972.9</ele>
      </trkpt>
      <trkpt lat="40.7697470" lon="0.1915890">
        <ele>972.9</ele>
      </trkpt>
      <trkpt lat="40.7697620" lon="0.1915520">
        <ele>970.7</ele>
      </trkpt>
      <trkpt lat="40.7697820" lon="0.1915210">
        <ele>969.9</ele>
      </trkpt>
      <trkpt lat="40.7698080" lon="0.1915000">
        <ele>968.3</ele>
      </trkpt>
      <trkpt lat="40.7698190" lon="0.1914630">
        <ele>965.8</ele>
      </trkpt>
      <trkpt lat="40.7698540" lon="0.1914320">
        <ele>963.3</ele>
      </trkpt>
      <trkpt lat="40.7699070" lon="0.1914270">
        <ele>961.7</ele>
      </trkpt>
      <trkpt lat="40.7699530" lon="0.1914280">
        <ele>958.3</ele>
      </trkpt>
      <trkpt lat="40.7699890" lon="0.1914260">
        <ele>956.3</ele>
      </trkpt>
      <trkpt lat="40.7700340" lon="0.1914310">
        <ele>954.2</ele>
      </trkpt>
      <trkpt lat="40.7700810" lon="0.1914460">
        <ele>950.9</ele>
      </trkpt>
      <trkpt lat="40.7701040" lon="0.1914720">
        <ele>950.9</ele>
      </trkpt>
      <trkpt lat="40.7701300" lon="0.1915000">
        <ele>949.7</ele>
      </trkpt>
      <trkpt lat="40.7701600" lon="0.1914910">
        <ele>947.7</ele>
      </trkpt>
      <trkpt lat="40.7701900" lon="0.1914680">
        <ele>944.9</ele>
      </trkpt>
      <trkpt lat="40.7702100" lon="0.1914330">
        <ele>941.8</ele>
      </trkpt>
      <trkpt lat="40.7702070" lon="0.1913940">
        <ele>940.9</ele>
      </trkpt>
      <trkpt lat="40.7701920" lon="0.1913500">
        <ele>942.1</ele>
      </trkpt>
      <trkpt lat="40.7701720" lon="0.1912900">
        <ele>943.0</ele>
      </trkpt>
      <trkpt lat="40.7701560" lon="0.1912610">
        <ele>941.9</ele>
      </trkpt>
      <trkpt lat="40.7701280" lon="0.1912190">
        <ele>942.6</ele>
      </trkpt>
      <trkpt lat="40.7701190" lon="0.1911690">
        <ele>941.3</ele>
      </trkpt>
      <trkpt lat="40.7701220" lon="0.1911300">
        <ele>939.9</ele>
      </trkpt>
      <trkpt lat="40.7701440" lon="0.1911040">
        <ele>938.1</ele>
      </trkpt>
      <trkpt lat="40.7701740" lon="0.1910770">
        <ele>936.6</ele>
      </trkpt>
      <trkpt lat="40.7702120" lon="0.1910480">
        <ele>931.3</ele>
      </trkpt>
      <trkpt lat="40.7702540" lon="0.1910470">
        <ele>929.1</ele>
      </trkpt>
      <trkpt lat="40.7702950" lon="0.1910600">
        <ele>928.3</ele>
      </trkpt>
      <trkpt lat="40.7703210" lon="0.1910770">
        <ele>926.1</ele>
      </trkpt>
      <trkpt lat="40.7703570" lon="0.1910830">
        <ele>923.9</ele>
      </trkpt>
      <trkpt lat="40.7703970" lon="0.1910650">
        <ele>922.0</ele>
      </trkpt>
      <trkpt lat="40.7704260" lon="0.1910710">
        <ele>920.1</ele>
      </trkpt>
      <trkpt lat="40.7704620" lon="0.1910480">
        <ele>917.1</ele>
      </trkpt>
      <trkpt lat="40.7705200" lon="0.1910510">
        <ele>913.3</ele>
      </trkpt>
      <trkpt lat="40.7705490" lon="0.1910480">
        <ele>911.4</ele>
      </trkpt>
      <trkpt lat="40.7705800" lon="0.1910450">
        <ele>909.5</ele>
      </trkpt>
      <trkpt lat="40.7706090" lon="0.1910390">
        <ele>907.8</ele>
      </trkpt>
      <trkpt lat="40.7706380" lon="0.1910460">
        <ele>906.3</ele>
      </trkpt>
      <trkpt lat="40.7706530" lon="0.1910910">
        <ele>906.9</ele>
      </trkpt>
      <trkpt lat="40.7706590" lon="0.1911270">
        <ele>907.5</ele>
      </trkpt>
      <trkpt lat="40.7706710" lon="0.1911660">
        <ele>906.5</ele>
      </trkpt>
      <trkpt lat="40.7706820" lon="0.1912170">
        <ele>907.0</ele>
      </trkpt>
      <trkpt lat="40.7706890" lon="0.1912590">
        <ele>907.4</ele>
      </trkpt>
      <trkpt lat="40.7706860" lon="0.1913030">
        <ele>907.8</ele>
      </trkpt>
      <trkpt lat="40.7706770" lon="0.1913440">
        <ele>908.3</ele>
      </trkpt>
      <trkpt lat="40.7706630" lon="0.1913950">
        <ele>908.7</ele>
      </trkpt>
      <trkpt lat="40.7706630" lon="0.1914370">
        <ele>909.1</ele>
      </trkpt>
      <trkpt lat="40.7706870" lon="0.1914770">
        <ele>909.6</ele>
      </trkpt>
      <trkpt lat="40.7706920" lon="0.1915140">
        <ele>909.9</ele>
      </trkpt>
      <trkpt lat="40.7706800" lon="0.1915640">
        <ele>910.3</ele>
      </trkpt>
      <trkpt lat="40.7706740" lon="0.1916090">
        <ele>910.6</ele>
      </trkpt>
      <trkpt lat="40.7706750" lon="0.1916490">
        <ele>910.9</ele>
      </trkpt>
      <trkpt lat="40.7707010" lon="0.1916870">
        <ele>909.1</ele>
      </trkpt>
      <trkpt lat="40.7707260" lon="0.1917250">
        <ele>909.3</ele>
      </trkpt>
      <trkpt lat="40.7707440" lon="0.1917560">
        <ele>907.4</ele>
      </trkpt>
      <trkpt lat="40.7707580" lon="0.1917890">
        <ele>907.5</ele>
      </trkpt>
      <trkpt lat="40.7707660" lon="0.1918340">
        <ele>905.4</ele>
      </trkpt>
      <trkpt lat="40.7707800" lon="0.1918800">
        <ele>905.5</ele>
      </trkpt>
      <trkpt lat="40.7707760" lon="0.1919230">
        <ele>905.5</ele>
      </trkpt>
      <trkpt lat="40.7707990" lon="0.1919520">
        <ele>903.4</ele>
      </trkpt>
      <trkpt lat="40.7708200" lon="0.1919740">
        <ele>903.4</ele>
      </trkpt>
      <trkpt lat="40.7708310" lon="0.1920170">
        <ele>901.4</ele>
      </trkpt>
      <trkpt lat="40.7708270" lon="0.1920550">
        <ele>901.5</ele>
      </trkpt>
      <trkpt lat="40.7708570" lon="0.1920580">
        <ele>899.6</ele>
      </trkpt>
      <trkpt lat="40.7708940" lon="0.1920580">
        <ele>898.0</ele>
      </trkpt>
      <trkpt lat="40.7709280" lon="0.1920620">
        <ele>896.6</ele>
      </trkpt>
      <trkpt lat="40.7709600" lon="0.1920930">
        <ele>895.4</ele>
      </trkpt>
      <trkpt lat="40.7709810" lon="0.1921430">
        <ele>895.5</ele>
      </trkpt>
      <trkpt lat="40.7710020" lon="0.1922030">
        <ele>894.6</ele>
      </trkpt>
      <trkpt lat="40.7710230" lon="0.1922370">
        <ele>893.7</ele>
      </trkpt>
      <trkpt lat="40.7710360" lon="0.1922760">
        <ele>894.0</ele>
      </trkpt>
      <trkpt lat="40.7710480" lon="0.1923110">
        <ele>894.3</ele>
      </trkpt>
      <trkpt lat="40.7710530" lon="0.1923510">
        <ele>893.7</ele>
      </trkpt>
      <trkpt lat="40.7710890" lon="0.1923450">
        <ele>892.7</ele>
      </trkpt>
      <trkpt lat="40.7711160" lon="0.1923360">
        <ele>892.7</ele>
      </trkpt>
      <trkpt lat="40.7711440" lon="0.1923450">
        <ele>892.1</ele>
      </trkpt>
      <trkpt lat="40.7711770" lon="0.1923800">
        <ele>892.1</ele>
      </trkpt>
      <trkpt lat="40.7712010" lon="0.1924020">
        <ele>892.3</ele>
      </trkpt>
      <trkpt lat="40.7712310" lon="0.1924410">
        <ele>892.7</ele>
      </trkpt>
      <trkpt lat="40.7712720" lon="0.1924830">
        <ele>893.3</ele>
      </trkpt>
      <trkpt lat="40.7712990" lon="0.1925000">
        <ele>893.4</ele>
      </trkpt>
      <trkpt lat="40.7713080" lon="0.1925360">
        <ele>894.0</ele>
      </trkpt>
      <trkpt lat="40.7713020" lon="0.1925730">
        <ele>894.6</ele>
      </trkpt>
      <trkpt lat="40.7712820" lon="0.1926010">
        <ele>894.6</ele>
      </trkpt>
      <trkpt lat="40.7712520" lon="0.1925920">
        <ele>894.4</ele>
      </trkpt>
      <trkpt lat="40.7712360" lon="0.1926260">
        <ele>894.8</ele>
      </trkpt>
      <trkpt lat="40.7712520" lon="0.1928230">
        <ele>898.3</ele>
      </trkpt>
      <trkpt lat="40.7712430" lon="0.1927890">
        <ele>897.4</ele>
      </trkpt>
      <trkpt lat="40.7712370" lon="0.1928310">
        <ele>898.1</ele>
      </trkpt>
      <trkpt lat="40.7712490" lon="0.1928690">
        <ele>899.0</ele>
      </trkpt>
      <trkpt lat="40.7712380" lon="0.1929130">
        <ele>899.4</ele>
      </trkpt>
      <trkpt lat="40.7712530" lon="0.1928680">
        <ele>899.0</ele>
      </trkpt>
      <trkpt lat="40.7712230" lon="0.1928500">
        <ele>898.1</ele>
      </trkpt>
      <trkpt lat="40.7712120" lon="0.1928000">
        <ele>897.2</ele>
      </trkpt>
      <trkpt lat="40.7712010" lon="0.1927610">
        <ele>896.5</ele>
      </trkpt>
      <trkpt lat="40.7712180" lon="0.1927320">
        <ele>896.0</ele>
      </trkpt>
      <trkpt lat="40.7711880" lon="0.1927570">
        <ele>896.5</ele>
      </trkpt>
      <trkpt lat="40.7712160" lon="0.1927450">
        <ele>896.6</ele>
      </trkpt>
      <trkpt lat="40.7711870" lon="0.1927230">
        <ele>895.8</ele>
      </trkpt>
      <trkpt lat="40.7711650" lon="0.1926930">
        <ele>895.6</ele>
      </trkpt>
      <trkpt lat="40.7711610" lon="0.1926510">
        <ele>894.9</ele>
      </trkpt>
      <trkpt lat="40.7711820" lon="0.1926240">
        <ele>894.2</ele>
      </trkpt>
      <trkpt lat="40.7711620" lon="0.1926510">
        <ele>894.6</ele>
      </trkpt>
      <trkpt lat="40.7711460" lon="0.1926820">
        <ele>894.7</ele>
      </trkpt>
      <trkpt lat="40.7711260" lon="0.1927180">
        <ele>895.0</ele>
      </trkpt>
      <trkpt lat="40.7710960" lon="0.1926830">
        <ele>894.7</ele>
      </trkpt>
      <trkpt lat="40.7710980" lon="0.1926130">
        <ele>894.1</ele>
      </trkpt>
      <trkpt lat="40.7711010" lon="0.1925650">
        <ele>893.6</ele>
      </trkpt>
      <trkpt lat="40.7711050" lon="0.1925170">
        <ele>892.6</ele>
      </trkpt>
      <trkpt lat="40.7711020" lon="0.1924700">
        <ele>892.2</ele>
      </trkpt>
      <trkpt lat="40.7711040" lon="0.1924280">
        <ele>891.6</ele>
      </trkpt>
      <trkpt lat="40.7710970" lon="0.1923880">
        <ele>891.1</ele>
      </trkpt>
      <trkpt lat="40.7710870" lon="0.1923460">
        <ele>890.7</ele>
      </trkpt>
      <trkpt lat="40.7710880" lon="0.1922750">
        <ele>890.1</ele>
      </trkpt>
      <trkpt lat="40.7710990" lon="0.1922180">
        <ele>889.7</ele>
      </trkpt>
      <trkpt lat="40.7711120" lon="0.1921620">
        <ele>889.0</ele>
      </trkpt>
      <trkpt lat="40.7711210" lon="0.1921200">
        <ele>887.9</ele>
      </trkpt>
      <trkpt lat="40.7711330" lon="0.1920800">
        <ele>887.6</ele>
      </trkpt>
      <trkpt lat="40.7711030" lon="0.1920580">
        <ele>888.1</ele>
      </trkpt>
      <trkpt lat="40.7711090" lon="0.1920060">
        <ele>887.8</ele>
      </trkpt>
      <trkpt lat="40.7711340" lon="0.1919580">
        <ele>886.6</ele>
      </trkpt>
      <trkpt lat="40.7711540" lon="0.1919280">
        <ele>885.8</ele>
      </trkpt>
      <trkpt lat="40.7711750" lon="0.1918970">
        <ele>885.4</ele>
      </trkpt>
      <trkpt lat="40.7711920" lon="0.1918690">
        <ele>884.7</ele>
      </trkpt>
      <trkpt lat="40.7712290" lon="0.1918230">
        <ele>884.0</ele>
      </trkpt>
      <trkpt lat="40.7712490" lon="0.1917940">
        <ele>883.6</ele>
      </trkpt>
      <trkpt lat="40.7712700" lon="0.1917570">
        <ele>883.3</ele>
      </trkpt>
      <trkpt lat="40.7713020" lon="0.1917070">
        <ele>882.9</ele>
      </trkpt>
      <trkpt lat="40.7713210" lon="0.1916780">
        <ele>882.5</ele>
      </trkpt>
      <trkpt lat="40.7713370" lon="0.1916470">
        <ele>882.3</ele>
      </trkpt>
      <trkpt lat="40.7713580" lon="0.1916140">
        <ele>882.0</ele>
      </trkpt>
      <trkpt lat="40.7713770" lon="0.1915810">
        <ele>882.0</ele>
      </trkpt>
      <trkpt lat="40.7714030" lon="0.1915470">
        <ele>881.7</ele>
      </trkpt>
      <trkpt lat="40.7714230" lon="0.1915180">
        <ele>881.6</ele>
      </trkpt>
      <trkpt lat="40.7714440" lon="0.1914940">
        <ele>881.8</ele>
      </trkpt>
      <trkpt lat="40.7714650" lon="0.1914670">
        <ele>881.4</ele>
      </trkpt>
      <trkpt lat="40.7714840" lon="0.1914400">
        <ele>881.4</ele>
      </trkpt>
      <trkpt lat="40.7715070" lon="0.1914150">
        <ele>881.7</ele>
      </trkpt>
      <trkpt lat="40.7715330" lon="0.1913910">
        <ele>881.3</ele>
      </trkpt>
      <trkpt lat="40.7715620" lon="0.1913610">
        <ele>881.5</ele>
      </trkpt>
      <trkpt lat="40.7715870" lon="0.1913350">
        <ele>881.7</ele>
      </trkpt>
      <trkpt lat="40.7716070" lon="0.1913050">
        <ele>881.8</ele>
      </trkpt>
      <trkpt lat="40.7716270" lon="0.1912770">
        <ele>881.6</ele>
      </trkpt>
      <trkpt lat="40.7716470" lon="0.1912490">
        <ele>881.9</ele>
      </trkpt>
      <trkpt lat="40.7716690" lon="0.1912180">
        <ele>881.7</ele>
      </trkpt>
      <trkpt lat="40.7716940" lon="0.1911810">
        <ele>882.0</ele>
      </trkpt>
      <trkpt lat="40.7717220" lon="0.1911440">
        <ele>882.4</ele>
      </trkpt>
      <trkpt lat="40.7717510" lon="0.1911100">
        <ele>883.0</ele>
      </trkpt>
      <trkpt lat="40.7717790" lon="0.1910840">
        <ele>883.4</ele>
      </trkpt>
      <trkpt lat="40.7718030" lon="0.1910570">
        <ele>883.8</ele>
      </trkpt>
      <trkpt lat="40.7718280" lon="0.1910240">
        <ele>883.6</ele>
      </trkpt>
      <trkpt lat="40.7718580" lon="0.1909930">
        <ele>884.0</ele>
      </trkpt>
      <trkpt lat="40.7718820" lon="0.1909670">
        <ele>884.1</ele>
      </trkpt>
      <trkpt lat="40.7719080" lon="0.1909420">
        <ele>884.4</ele>
      </trkpt>
      <trkpt lat="40.7719400" lon="0.1909130">
        <ele>884.3</ele>
      </trkpt>
      <trkpt lat="40.7719670" lon="0.1908810">
        <ele>884.2</ele>
      </trkpt>
      <trkpt lat="40.7719950" lon="0.1908570">
        <ele>884.3</ele>
      </trkpt>
      <trkpt lat="40.7720180" lon="0.1908270">
        <ele>883.7</ele>
      </trkpt>
      <trkpt lat="40.7720360" lon="0.1907940">
        <ele>883.3</ele>
      </trkpt>
      <trkpt lat="40.7720640" lon="0.1907440">
        <ele>882.9</ele>
      </trkpt>
      <trkpt lat="40.7720860" lon="0.1906900">
        <ele>882.4</ele>
      </trkpt>
      <trkpt lat="40.7720940" lon="0.1906530">
        <ele>882.1</ele>
      </trkpt>
      <trkpt lat="40.7721050" lon="0.1906110">
        <ele>881.6</ele>
      </trkpt>
      <trkpt lat="40.7721190" lon="0.1905670">
        <ele>881.2</ele>
      </trkpt>
      <trkpt lat="40.7721360" lon="0.1905220">
        <ele>880.9</ele>
      </trkpt>
      <trkpt lat="40.7721520" lon="0.1904770">
        <ele>880.5</ele>
      </trkpt>
      <trkpt lat="40.7721670" lon="0.1904420">
        <ele>880.0</ele>
      </trkpt>
      <trkpt lat="40.7721820" lon="0.1904080">
        <ele>879.6</ele>
      </trkpt>
      <trkpt lat="40.7722130" lon="0.1903530">
        <ele>879.0</ele>
      </trkpt>
      <trkpt lat="40.7722380" lon="0.1903160">
        <ele>878.2</ele>
      </trkpt>
      <trkpt lat="40.7722570" lon="0.1902810">
        <ele>877.3</ele>
      </trkpt>
      <trkpt lat="40.7722790" lon="0.1902330">
        <ele>876.8</ele>
      </trkpt>
      <trkpt lat="40.7722990" lon="0.1902050">
        <ele>876.3</ele>
      </trkpt>
      <trkpt lat="40.7723230" lon="0.1901660">
        <ele>875.3</ele>
      </trkpt>
      <trkpt lat="40.7723420" lon="0.1901280">
        <ele>874.7</ele>
      </trkpt>
      <trkpt lat="40.7723610" lon="0.1900870">
        <ele>873.7</ele>
      </trkpt>
      <trkpt lat="40.7723780" lon="0.1900400">
        <ele>873.1</ele>
      </trkpt>
      <trkpt lat="40.7724060" lon="0.1899920">
        <ele>872.2</ele>
      </trkpt>
      <trkpt lat="40.7724370" lon="0.1899440">
        <ele>871.4</ele>
      </trkpt>
      <trkpt lat="40.7724720" lon="0.1898990">
        <ele>870.3</ele>
      </trkpt>
      <trkpt lat="40.7725050" lon="0.1898540">
        <ele>869.5</ele>
      </trkpt>
      <trkpt lat="40.7725350" lon="0.1898090">
        <ele>868.6</ele>
      </trkpt>
      <trkpt lat="40.7725720" lon="0.1897660">
        <ele>867.4</ele>
      </trkpt>
      <trkpt lat="40.7726060" lon="0.1897240">
        <ele>866.3</ele>
      </trkpt>
      <trkpt lat="40.7726640" lon="0.1896970">
        <ele>865.6</ele>
      </trkpt>
      <trkpt lat="40.7727260" lon="0.1896840">
        <ele>864.8</ele>
      </trkpt>
      <trkpt lat="40.7727780" lon="0.1896830">
        <ele>865.4</ele>
      </trkpt>
      <trkpt lat="40.7728210" lon="0.1896850">
        <ele>865.7</ele>
      </trkpt>
      <trkpt lat="40.7728600" lon="0.1896820">
        <ele>866.1</ele>
      </trkpt>
      <trkpt lat="40.7729040" lon="0.1896790">
        <ele>866.6</ele>
      </trkpt>
      <trkpt lat="40.7729460" lon="0.1896700">
        <ele>867.8</ele>
      </trkpt>
      <trkpt lat="40.7729900" lon="0.1896650">
        <ele>868.4</ele>
      </trkpt>
      <trkpt lat="40.7730260" lon="0.1896540">
        <ele>869.1</ele>
      </trkpt>
      <trkpt lat="40.7730800" lon="0.1896200">
        <ele>870.0</ele>
      </trkpt>
      <trkpt lat="40.7731110" lon="0.1896020">
        <ele>870.9</ele>
      </trkpt>
      <trkpt lat="40.7731430" lon="0.1895960">
        <ele>871.3</ele>
      </trkpt>
      <trkpt lat="40.7731120" lon="0.1895850">
        <ele>870.0</ele>
      </trkpt>
      <trkpt lat="40.7730770" lon="0.1895740">
        <ele>868.9</ele>
      </trkpt>
      <trkpt lat="40.7730450" lon="0.1895600">
        <ele>868.0</ele>
      </trkpt>
      <trkpt lat="40.7730190" lon="0.1895430">
        <ele>866.5</ele>
      </trkpt>
      <trkpt lat="40.7729930" lon="0.1895240">
        <ele>865.7</ele>
      </trkpt>
      <trkpt lat="40.7729450" lon="0.1894950">
        <ele>864.4</ele>
      </trkpt>
      <trkpt lat="40.7728980" lon="0.1894610">
        <ele>863.0</ele>
      </trkpt>
      <trkpt lat="40.7728570" lon="0.1894240">
        <ele>862.7</ele>
      </trkpt>
      <trkpt lat="40.7728290" lon="0.1893880">
        <ele>862.8</ele>
      </trkpt>
      <trkpt lat="40.7728110" lon="0.1893460">
        <ele>862.8</ele>
      </trkpt>
      <trkpt lat="40.7727980" lon="0.1893040">
        <ele>863.6</ele>
      </trkpt>
      <trkpt lat="40.7727910" lon="0.1892480">
        <ele>864.0</ele>
      </trkpt>
      <trkpt lat="40.7727860" lon="0.1891970">
        <ele>864.2</ele>
      </trkpt>
      <trkpt lat="40.7727870" lon="0.1891490">
        <ele>864.2</ele>
      </trkpt>
      <trkpt lat="40.7727900" lon="0.1890940">
        <ele>864.2</ele>
      </trkpt>
      <trkpt lat="40.7727930" lon="0.1890380">
        <ele>864.2</ele>
      </trkpt>
      <trkpt lat="40.7727910" lon="0.1889710">
        <ele>864.1</ele>
      </trkpt>
      <trkpt lat="40.7727840" lon="0.1888940">
        <ele>863.8</ele>
      </trkpt>
      <trkpt lat="40.7727300" lon="0.1887020">
        <ele>864.7</ele>
      </trkpt>
      <trkpt lat="40.7726920" lon="0.1885960">
        <ele>863.1</ele>
      </trkpt>
      <trkpt lat="40.7726620" lon="0.1885110">
        <ele>861.6</ele>
      </trkpt>
      <trkpt lat="40.7726430" lon="0.1884230">
        <ele>859.7</ele>
      </trkpt>
      <trkpt lat="40.7726140" lon="0.1883420">
        <ele>857.6</ele>
      </trkpt>
      <trkpt lat="40.7726160" lon="0.1882740">
        <ele>856.7</ele>
      </trkpt>
      <trkpt lat="40.7726110" lon="0.1882160">
        <ele>855.5</ele>
      </trkpt>
      <trkpt lat="40.7725900" lon="0.1881380">
        <ele>854.7</ele>
      </trkpt>
      <trkpt lat="40.7725770" lon="0.1880690">
        <ele>854.9</ele>
      </trkpt>
      <trkpt lat="40.7725640" lon="0.1880130">
        <ele>854.7</ele>
      </trkpt>
      <trkpt lat="40.7725740" lon="0.1879530">
        <ele>854.6</ele>
      </trkpt>
      <trkpt lat="40.7725730" lon="0.1878740">
        <ele>854.4</ele>
      </trkpt>
      <trkpt lat="40.7725810" lon="0.1878380">
        <ele>853.9</ele>
      </trkpt>
      <trkpt lat="40.7726210" lon="0.1877800">
        <ele>853.4</ele>
      </trkpt>
      <trkpt lat="40.7726180" lon="0.1877170">
        <ele>853.2</ele>
      </trkpt>
      <trkpt lat="40.7726080" lon="0.1876810">
        <ele>853.2</ele>
      </trkpt>
      <trkpt lat="40.7726100" lon="0.1876200">
        <ele>852.9</ele>
      </trkpt>
      <trkpt lat="40.7726130" lon="0.1875520">
        <ele>852.6</ele>
      </trkpt>
      <trkpt lat="40.7726160" lon="0.1874990">
        <ele>852.6</ele>
      </trkpt>
      <trkpt lat="40.7726200" lon="0.1874340">
        <ele>852.4</ele>
      </trkpt>
      <trkpt lat="40.7726260" lon="0.1873680">
        <ele>852.4</ele>
      </trkpt>
      <trkpt lat="40.7726580" lon="0.1871890">
        <ele>852.4</ele>
      </trkpt>
      <trkpt lat="40.7726860" lon="0.1870760">
        <ele>852.6</ele>
      </trkpt>
      <trkpt lat="40.7727190" lon="0.1870050">
        <ele>853.0</ele>
      </trkpt>
      <trkpt lat="40.7726840" lon="0.1869790">
        <ele>852.8</ele>
      </trkpt>
      <trkpt lat="40.7726730" lon="0.1869260">
        <ele>852.6</ele>
      </trkpt>
      <trkpt lat="40.7726460" lon="0.1868670">
        <ele>852.6</ele>
      </trkpt>
      <trkpt lat="40.7726300" lon="0.1868220">
        <ele>852.4</ele>
      </trkpt>
      <trkpt lat="40.7726120" lon="0.1867650">
        <ele>852.3</ele>
      </trkpt>
      <trkpt lat="40.7726040" lon="0.1866740">
        <ele>852.0</ele>
      </trkpt>
      <trkpt lat="40.7725840" lon="0.1866130">
        <ele>851.9</ele>
      </trkpt>
      <trkpt lat="40.7725940" lon="0.1865060">
        <ele>851.7</ele>
      </trkpt>
      <trkpt lat="40.7725630" lon="0.1864710">
        <ele>851.6</ele>
      </trkpt>
      <trkpt lat="40.7725430" lon="0.1864180">
        <ele>851.5</ele>
      </trkpt>
      <trkpt lat="40.7725070" lon="0.1861860">
        <ele>851.3</ele>
      </trkpt>
      <trkpt lat="40.7724590" lon="0.1861270">
        <ele>851.3</ele>
      </trkpt>
      <trkpt lat="40.7724350" lon="0.1860370">
        <ele>851.6</ele>
      </trkpt>
      <trkpt lat="40.7724030" lon="0.1859660">
        <ele>851.8</ele>
      </trkpt>
      <trkpt lat="40.7723940" lon="0.1858790">
        <ele>852.3</ele>
      </trkpt>
      <trkpt lat="40.7723750" lon="0.1857830">
        <ele>853.0</ele>
      </trkpt>
      <trkpt lat="40.7723760" lon="0.1857170">
        <ele>853.8</ele>
      </trkpt>
      <trkpt lat="40.7724660" lon="0.1856530">
        <ele>853.9</ele>
      </trkpt>
      <trkpt lat="40.7725060" lon="0.1856020">
        <ele>854.8</ele>
      </trkpt>
      <trkpt lat="40.7725590" lon="0.1854770">
        <ele>856.3</ele>
      </trkpt>
      <trkpt lat="40.7725930" lon="0.1853950">
        <ele>856.9</ele>
      </trkpt>
      <trkpt lat="40.7726270" lon="0.1853250">
        <ele>858.0</ele>
      </trkpt>
      <trkpt lat="40.7726440" lon="0.1852150">
        <ele>860.1</ele>
      </trkpt>
      <trkpt lat="40.7727040" lon="0.1851300">
        <ele>861.5</ele>
      </trkpt>
      <trkpt lat="40.7727850" lon="0.1850700">
        <ele>861.7</ele>
      </trkpt>
      <trkpt lat="40.7727230" lon="0.1850080">
        <ele>863.7</ele>
      </trkpt>
      <trkpt lat="40.7727590" lon="0.1849800">
        <ele>863.4</ele>
      </trkpt>
      <trkpt lat="40.7728870" lon="0.1849980">
        <ele>862.0</ele>
      </trkpt>
      <trkpt lat="40.7729290" lon="0.1849760">
        <ele>861.7</ele>
      </trkpt>
      <trkpt lat="40.7729840" lon="0.1849720">
        <ele>860.8</ele>
      </trkpt>
      <trkpt lat="40.7730160" lon="0.1849610">
        <ele>860.7</ele>
      </trkpt>
      <trkpt lat="40.7730800" lon="0.1849170">
        <ele>860.1</ele>
      </trkpt>
      <trkpt lat="40.7731460" lon="0.1848810">
        <ele>859.1</ele>
      </trkpt>
      <trkpt lat="40.7731800" lon="0.1848820">
        <ele>858.6</ele>
      </trkpt>
      <trkpt lat="40.7732220" lon="0.1848870">
        <ele>858.1</ele>
      </trkpt>
      <trkpt lat="40.7732740" lon="0.1848900">
        <ele>857.2</ele>
      </trkpt>
      <trkpt lat="40.7733200" lon="0.1848960">
        <ele>856.7</ele>
      </trkpt>
      <trkpt lat="40.7733730" lon="0.1849000">
        <ele>855.9</ele>
      </trkpt>
      <trkpt lat="40.7734270" lon="0.1849000">
        <ele>855.2</ele>
      </trkpt>
      <trkpt lat="40.7734850" lon="0.1848880">
        <ele>854.8</ele>
      </trkpt>
      <trkpt lat="40.7735400" lon="0.1848690">
        <ele>854.1</ele>
      </trkpt>
      <trkpt lat="40.7737820" lon="0.1846620">
        <ele>852.5</ele>
      </trkpt>
      <trkpt lat="40.7738130" lon="0.1846370">
        <ele>852.5</ele>
      </trkpt>
      <trkpt lat="40.7738440" lon="0.1845550">
        <ele>852.2</ele>
      </trkpt>
      <trkpt lat="40.7739280" lon="0.1844810">
        <ele>852.4</ele>
      </trkpt>
      <trkpt lat="40.7739630" lon="0.1843690">
        <ele>852.3</ele>
      </trkpt>
      <trkpt lat="40.7739820" lon="0.1842660">
        <ele>852.0</ele>
      </trkpt>
      <trkpt lat="40.7740360" lon="0.1841610">
        <ele>851.9</ele>
      </trkpt>
      <trkpt lat="40.7740560" lon="0.1840680">
        <ele>851.7</ele>
      </trkpt>
      <trkpt lat="40.7740570" lon="0.1839910">
        <ele>851.2</ele>
      </trkpt>
      <trkpt lat="40.7740930" lon="0.1839060">
        <ele>851.0</ele>
      </trkpt>
      <trkpt lat="40.7741110" lon="0.1838160">
        <ele>850.8</ele>
      </trkpt>
      <trkpt lat="40.7741500" lon="0.1837290">
        <ele>850.6</ele>
      </trkpt>
      <trkpt lat="40.7741900" lon="0.1836680">
        <ele>850.3</ele>
      </trkpt>
      <trkpt lat="40.7742400" lon="0.1835790">
        <ele>850.5</ele>
      </trkpt>
      <trkpt lat="40.7742810" lon="0.1834480">
        <ele>849.4</ele>
      </trkpt>
      <trkpt lat="40.7743280" lon="0.1833580">
        <ele>848.6</ele>
      </trkpt>
      <trkpt lat="40.7743680" lon="0.1832660">
        <ele>848.1</ele>
      </trkpt>
      <trkpt lat="40.7743960" lon="0.1831850">
        <ele>846.9</ele>
      </trkpt>
      <trkpt lat="40.7744840" lon="0.1831070">
        <ele>846.7</ele>
      </trkpt>
      <trkpt lat="40.7745320" lon="0.1830270">
        <ele>846.2</ele>
      </trkpt>
      <trkpt lat="40.7745490" lon="0.1828290">
        <ele>844.7</ele>
      </trkpt>
      <trkpt lat="40.7745620" lon="0.1827410">
        <ele>844.5</ele>
      </trkpt>
      <trkpt lat="40.7745770" lon="0.1826550">
        <ele>844.3</ele>
      </trkpt>
      <trkpt lat="40.7746080" lon="0.1825810">
        <ele>844.3</ele>
      </trkpt>
      <trkpt lat="40.7746460" lon="0.1825360">
        <ele>844.3</ele>
      </trkpt>
      <trkpt lat="40.7746610" lon="0.1824820">
        <ele>844.2</ele>
      </trkpt>
      <trkpt lat="40.7747260" lon="0.1824280">
        <ele>843.8</ele>
      </trkpt>
      <trkpt lat="40.7747460" lon="0.1823730">
        <ele>843.9</ele>
      </trkpt>
      <trkpt lat="40.7747840" lon="0.1823610">
        <ele>843.6</ele>
      </trkpt>
      <trkpt lat="40.7748040" lon="0.1823210">
        <ele>843.5</ele>
      </trkpt>
      <trkpt lat="40.7748620" lon="0.1822900">
        <ele>843.1</ele>
      </trkpt>
      <trkpt lat="40.7749250" lon="0.1822440">
        <ele>842.6</ele>
      </trkpt>
      <trkpt lat="40.7749710" lon="0.1822210">
        <ele>842.3</ele>
      </trkpt>
      <trkpt lat="40.7750640" lon="0.1821650">
        <ele>841.7</ele>
      </trkpt>
      <trkpt lat="40.7751870" lon="0.1821510">
        <ele>840.3</ele>
      </trkpt>
      <trkpt lat="40.7752410" lon="0.1821210">
        <ele>839.9</ele>
      </trkpt>
      <trkpt lat="40.7753040" lon="0.1820880">
        <ele>839.0</ele>
      </trkpt>
      <trkpt lat="40.7753430" lon="0.1820610">
        <ele>838.1</ele>
      </trkpt>
      <trkpt lat="40.7754020" lon="0.1820530">
        <ele>837.7</ele>
      </trkpt>
      <trkpt lat="40.7754520" lon="0.1820440">
        <ele>836.8</ele>
      </trkpt>
      <trkpt lat="40.7754740" lon="0.1820170">
        <ele>836.5</ele>
      </trkpt>
      <trkpt lat="40.7755060" lon="0.1819960">
        <ele>836.0</ele>
      </trkpt>
      <trkpt lat="40.7755510" lon="0.1819700">
        <ele>835.7</ele>
      </trkpt>
      <trkpt lat="40.7755850" lon="0.1819560">
        <ele>835.4</ele>
      </trkpt>
      <trkpt lat="40.7756230" lon="0.1819510">
        <ele>835.1</ele>
      </trkpt>
      <trkpt lat="40.7756600" lon="0.1819470">
        <ele>834.9</ele>
      </trkpt>
      <trkpt lat="40.7757060" lon="0.1819340">
        <ele>834.7</ele>
      </trkpt>
      <trkpt lat="40.7757500" lon="0.1818990">
        <ele>834.5</ele>
      </trkpt>
      <trkpt lat="40.7757780" lon="0.1818860">
        <ele>834.4</ele>
      </trkpt>
      <trkpt lat="40.7758060" lon="0.1818820">
        <ele>834.4</ele>
      </trkpt>
      <trkpt lat="40.7758470" lon="0.1818770">
        <ele>834.3</ele>
      </trkpt>
      <trkpt lat="40.7758870" lon="0.1818490">
        <ele>834.1</ele>
      </trkpt>
      <trkpt lat="40.7759220" lon="0.1818120">
        <ele>833.9</ele>
      </trkpt>
      <trkpt lat="40.7759490" lon="0.1817560">
        <ele>833.7</ele>
      </trkpt>
      <trkpt lat="40.7759820" lon="0.1817400">
        <ele>833.6</ele>
      </trkpt>
      <trkpt lat="40.7760070" lon="0.1817220">
        <ele>833.7</ele>
      </trkpt>
      <trkpt lat="40.7760380" lon="0.1817080">
        <ele>833.8</ele>
      </trkpt>
      <trkpt lat="40.7760790" lon="0.1816880">
        <ele>833.7</ele>
      </trkpt>
      <trkpt lat="40.7761530" lon="0.1816100">
        <ele>833.6</ele>
      </trkpt>
      <trkpt lat="40.7761720" lon="0.1815790">
        <ele>833.7</ele>
      </trkpt>
      <trkpt lat="40.7761760" lon="0.1815380">
        <ele>833.5</ele>
      </trkpt>
      <trkpt lat="40.7761470" lon="0.1815080">
        <ele>833.3</ele>
      </trkpt>
      <trkpt lat="40.7761250" lon="0.1814710">
        <ele>833.3</ele>
      </trkpt>
      <trkpt lat="40.7761710" lon="0.1814730">
        <ele>833.3</ele>
      </trkpt>
      <trkpt lat="40.7762010" lon="0.1814800">
        <ele>833.4</ele>
      </trkpt>
      <trkpt lat="40.7761800" lon="0.1814320">
        <ele>833.3</ele>
      </trkpt>
      <trkpt lat="40.7761660" lon="0.1814010">
        <ele>833.3</ele>
      </trkpt>
      <trkpt lat="40.7761740" lon="0.1813510">
        <ele>833.4</ele>
      </trkpt>
      <trkpt lat="40.7762050" lon="0.1813270">
        <ele>833.4</ele>
      </trkpt>
      <trkpt lat="40.7762310" lon="0.1813130">
        <ele>833.5</ele>
      </trkpt>
      <trkpt lat="40.7762620" lon="0.1812970">
        <ele>833.4</ele>
      </trkpt>
      <trkpt lat="40.7762970" lon="0.1812760">
        <ele>833.4</ele>
      </trkpt>
      <trkpt lat="40.7763300" lon="0.1812470">
        <ele>833.5</ele>
      </trkpt>
      <trkpt lat="40.7763620" lon="0.1812120">
        <ele>833.5</ele>
      </trkpt>
      <trkpt lat="40.7763940" lon="0.1811700">
        <ele>833.4</ele>
      </trkpt>
      <trkpt lat="40.7764280" lon="0.1811290">
        <ele>833.4</ele>
      </trkpt>
      <trkpt lat="40.7764680" lon="0.1810780">
        <ele>833.3</ele>
      </trkpt>
      <trkpt lat="40.7765690" lon="0.1810640">
        <ele>832.7</ele>
      </trkpt>
      <trkpt lat="40.7766490" lon="0.1810260">
        <ele>832.2</ele>
      </trkpt>
      <trkpt lat="40.7767180" lon="0.1809920">
        <ele>831.9</ele>
      </trkpt>
      <trkpt lat="40.7768160" lon="0.1809470">
        <ele>831.6</ele>
      </trkpt>
      <trkpt lat="40.7768170" lon="0.1808790">
        <ele>831.8</ele>
      </trkpt>
      <trkpt lat="40.7768900" lon="0.1808440">
        <ele>831.7</ele>
      </trkpt>
      <trkpt lat="40.7770160" lon="0.1808090">
        <ele>831.4</ele>
      </trkpt>
      <trkpt lat="40.7770870" lon="0.1807600">
        <ele>831.4</ele>
      </trkpt>
      <trkpt lat="40.7771790" lon="0.1807100">
        <ele>831.2</ele>
      </trkpt>
      <trkpt lat="40.7772890" lon="0.1806630">
        <ele>830.9</ele>
      </trkpt>
      <trkpt lat="40.7773220" lon="0.1806390">
        <ele>830.8</ele>
      </trkpt>
      <trkpt lat="40.7774050" lon="0.1806440">
        <ele>831.0</ele>
      </trkpt>
      <trkpt lat="40.7774440" lon="0.1806520">
        <ele>831.1</ele>
      </trkpt>
      <trkpt lat="40.7774770" lon="0.1806400">
        <ele>831.4</ele>
      </trkpt>
      <trkpt lat="40.7775190" lon="0.1806160">
        <ele>831.3</ele>
      </trkpt>
      <trkpt lat="40.7775550" lon="0.1805930">
        <ele>832.1</ele>
      </trkpt>
      <trkpt lat="40.7775850" lon="0.1805410">
        <ele>831.9</ele>
      </trkpt>
      <trkpt lat="40.7776140" lon="0.1805090">
        <ele>831.9</ele>
      </trkpt>
      <trkpt lat="40.7776770" lon="0.1804300">
        <ele>832.3</ele>
      </trkpt>
      <trkpt lat="40.7777110" lon="0.1803550">
        <ele>832.3</ele>
      </trkpt>
      <trkpt lat="40.7777470" lon="0.1803240">
        <ele>833.1</ele>
      </trkpt>
      <trkpt lat="40.7777690" lon="0.1802930">
        <ele>833.1</ele>
      </trkpt>
      <trkpt lat="40.7777990" lon="0.1802420">
        <ele>833.1</ele>
      </trkpt>
      <trkpt lat="40.7778230" lon="0.1801990">
        <ele>833.3</ele>
      </trkpt>
      <trkpt lat="40.7778510" lon="0.1801590">
        <ele>834.0</ele>
      </trkpt>
      <trkpt lat="40.7778690" lon="0.1801320">
        <ele>833.6</ele>
      </trkpt>
      <trkpt lat="40.7778900" lon="0.1800990">
        <ele>833.9</ele>
      </trkpt>
      <trkpt lat="40.7779070" lon="0.1800370">
        <ele>833.5</ele>
      </trkpt>
      <trkpt lat="40.7779120" lon="0.1799950">
        <ele>833.8</ele>
      </trkpt>
      <trkpt lat="40.7779200" lon="0.1799410">
        <ele>833.0</ele>
      </trkpt>
      <trkpt lat="40.7779290" lon="0.1798840">
        <ele>832.6</ele>
      </trkpt>
      <trkpt lat="40.7779380" lon="0.1798280">
        <ele>832.1</ele>
      </trkpt>
      <trkpt lat="40.7779470" lon="0.1797750">
        <ele>832.1</ele>
      </trkpt>
      <trkpt lat="40.7779560" lon="0.1797240">
        <ele>830.9</ele>
      </trkpt>
      <trkpt lat="40.7779640" lon="0.1796770">
        <ele>830.4</ele>
      </trkpt>
      <trkpt lat="40.7779700" lon="0.1796220">
        <ele>830.0</ele>
      </trkpt>
      <trkpt lat="40.7779720" lon="0.1795740">
        <ele>829.8</ele>
      </trkpt>
      <trkpt lat="40.7779740" lon="0.1795260">
        <ele>829.7</ele>
      </trkpt>
      <trkpt lat="40.7779760" lon="0.1794810">
        <ele>829.8</ele>
      </trkpt>
      <trkpt lat="40.7779770" lon="0.1794400">
        <ele>829.8</ele>
      </trkpt>
      <trkpt lat="40.7779790" lon="0.1793980">
        <ele>829.7</ele>
      </trkpt>
      <trkpt lat="40.7779780" lon="0.1793600">
        <ele>829.7</ele>
      </trkpt>
      <trkpt lat="40.7779760" lon="0.1793220">
        <ele>829.5</ele>
      </trkpt>
      <trkpt lat="40.7779730" lon="0.1792810">
        <ele>829.2</ele>
      </trkpt>
      <trkpt lat="40.7779700" lon="0.1792410">
        <ele>828.7</ele>
      </trkpt>
      <trkpt lat="40.7779670" lon="0.1791980">
        <ele>828.2</ele>
      </trkpt>
      <trkpt lat="40.7779640" lon="0.1791590">
        <ele>827.6</ele>
      </trkpt>
      <trkpt lat="40.7779600" lon="0.1790840">
        <ele>826.5</ele>
      </trkpt>
      <trkpt lat="40.7779590" lon="0.1790390">
        <ele>826.0</ele>
      </trkpt>
      <trkpt lat="40.7779590" lon="0.1789940">
        <ele>825.7</ele>
      </trkpt>
      <trkpt lat="40.7779600" lon="0.1789580">
        <ele>825.7</ele>
      </trkpt>
      <trkpt lat="40.7779650" lon="0.1789130">
        <ele>825.4</ele>
      </trkpt>
      <trkpt lat="40.7779750" lon="0.1788370">
        <ele>825.4</ele>
      </trkpt>
      <trkpt lat="40.7779850" lon="0.1787760">
        <ele>825.4</ele>
      </trkpt>
      <trkpt lat="40.7779990" lon="0.1787160">
        <ele>825.5</ele>
      </trkpt>
      <trkpt lat="40.7780100" lon="0.1786630">
        <ele>825.4</ele>
      </trkpt>
      <trkpt lat="40.7780180" lon="0.1786170">
        <ele>825.5</ele>
      </trkpt>
      <trkpt lat="40.7780240" lon="0.1785790">
        <ele>825.6</ele>
      </trkpt>
      <trkpt lat="40.7780370" lon="0.1785190">
        <ele>826.0</ele>
      </trkpt>
      <trkpt lat="40.7780490" lon="0.1784710">
        <ele>826.2</ele>
      </trkpt>
      <trkpt lat="40.7780570" lon="0.1784260">
        <ele>826.5</ele>
      </trkpt>
      <trkpt lat="40.7780690" lon="0.1783900">
        <ele>826.9</ele>
      </trkpt>
      <trkpt lat="40.7780760" lon="0.1783470">
        <ele>827.2</ele>
      </trkpt>
      <trkpt lat="40.7780890" lon="0.1783110">
        <ele>827.7</ele>
      </trkpt>
      <trkpt lat="40.7781050" lon="0.1782700">
        <ele>828.0</ele>
      </trkpt>
      <trkpt lat="40.7781250" lon="0.1782260">
        <ele>828.5</ele>
      </trkpt>
      <trkpt lat="40.7781480" lon="0.1781900">
        <ele>828.3</ele>
      </trkpt>
      <trkpt lat="40.7781790" lon="0.1781650">
        <ele>828.6</ele>
      </trkpt>
      <trkpt lat="40.7782170" lon="0.1781470">
        <ele>828.4</ele>
      </trkpt>
      <trkpt lat="40.7782610" lon="0.1781410">
        <ele>828.7</ele>
      </trkpt>
      <trkpt lat="40.7783070" lon="0.1781360">
        <ele>828.2</ele>
      </trkpt>
      <trkpt lat="40.7783500" lon="0.1781330">
        <ele>828.0</ele>
      </trkpt>
      <trkpt lat="40.7783870" lon="0.1781310">
        <ele>827.7</ele>
      </trkpt>
      <trkpt lat="40.7784140" lon="0.1781270">
        <ele>827.6</ele>
      </trkpt>
      <trkpt lat="40.7784710" lon="0.1781260">
        <ele>827.3</ele>
      </trkpt>
      <trkpt lat="40.7785020" lon="0.1781270">
        <ele>827.2</ele>
      </trkpt>
      <trkpt lat="40.7785450" lon="0.1781310">
        <ele>827.1</ele>
      </trkpt>
      <trkpt lat="40.7785930" lon="0.1781200">
        <ele>826.9</ele>
      </trkpt>
      <trkpt lat="40.7786370" lon="0.1781090">
        <ele>826.8</ele>
      </trkpt>
      <trkpt lat="40.7786780" lon="0.1780940">
        <ele>827.0</ele>
      </trkpt>
      <trkpt lat="40.7787170" lon="0.1780800">
        <ele>826.9</ele>
      </trkpt>
      <trkpt lat="40.7787550" lon="0.1780730">
        <ele>826.7</ele>
      </trkpt>
      <trkpt lat="40.7787980" lon="0.1780650">
        <ele>826.5</ele>
      </trkpt>
      <trkpt lat="40.7788440" lon="0.1780610">
        <ele>826.4</ele>
      </trkpt>
      <trkpt lat="40.7788880" lon="0.1780580">
        <ele>826.1</ele>
      </trkpt>
      <trkpt lat="40.7789320" lon="0.1780550">
        <ele>826.0</ele>
      </trkpt>
      <trkpt lat="40.7789760" lon="0.1780550">
        <ele>825.8</ele>
      </trkpt>
      <trkpt lat="40.7790190" lon="0.1780550">
        <ele>825.6</ele>
      </trkpt>
      <trkpt lat="40.7790580" lon="0.1780610">
        <ele>825.4</ele>
      </trkpt>
      <trkpt lat="40.7790900" lon="0.1780580">
        <ele>825.4</ele>
      </trkpt>
      <trkpt lat="40.7791180" lon="0.1780500">
        <ele>825.4</ele>
      </trkpt>
      <trkpt lat="40.7791510" lon="0.1780390">
        <ele>825.3</ele>
      </trkpt>
      <trkpt lat="40.7791900" lon="0.1780300">
        <ele>825.3</ele>
      </trkpt>
      <trkpt lat="40.7792190" lon="0.1780110">
        <ele>825.4</ele>
      </trkpt>
      <trkpt lat="40.7792470" lon="0.1779550">
        <ele>825.6</ele>
      </trkpt>
      <trkpt lat="40.7792520" lon="0.1779100">
        <ele>825.7</ele>
      </trkpt>
      <trkpt lat="40.7792590" lon="0.1778600">
        <ele>825.9</ele>
      </trkpt>
      <trkpt lat="40.7792710" lon="0.1778080">
        <ele>826.1</ele>
      </trkpt>
      <trkpt lat="40.7792950" lon="0.1777640">
        <ele>826.3</ele>
      </trkpt>
      <trkpt lat="40.7793210" lon="0.1777250">
        <ele>826.5</ele>
      </trkpt>
      <trkpt lat="40.7793480" lon="0.1776960">
        <ele>826.7</ele>
      </trkpt>
      <trkpt lat="40.7793780" lon="0.1776630">
        <ele>827.0</ele>
      </trkpt>
      <trkpt lat="40.7794110" lon="0.1776340">
        <ele>826.9</ele>
      </trkpt>
      <trkpt lat="40.7794530" lon="0.1776040">
        <ele>827.2</ele>
      </trkpt>
      <trkpt lat="40.7794970" lon="0.1775820">
        <ele>827.7</ele>
      </trkpt>
      <trkpt lat="40.7795350" lon="0.1775600">
        <ele>827.5</ele>
      </trkpt>
      <trkpt lat="40.7795680" lon="0.1775370">
        <ele>827.9</ele>
      </trkpt>
      <trkpt lat="40.7795980" lon="0.1775170">
        <ele>827.9</ele>
      </trkpt>
      <trkpt lat="40.7796290" lon="0.1775020">
        <ele>827.8</ele>
      </trkpt>
      <trkpt lat="40.7796700" lon="0.1774870">
        <ele>827.9</ele>
      </trkpt>
      <trkpt lat="40.7797170" lon="0.1774730">
        <ele>827.7</ele>
      </trkpt>
      <trkpt lat="40.7797680" lon="0.1774570">
        <ele>827.3</ele>
      </trkpt>
      <trkpt lat="40.7798330" lon="0.1774390">
        <ele>827.1</ele>
      </trkpt>
      <trkpt lat="40.7798990" lon="0.1774250">
        <ele>826.6</ele>
      </trkpt>
      <trkpt lat="40.7799570" lon="0.1774240">
        <ele>826.1</ele>
      </trkpt>
      <trkpt lat="40.7800230" lon="0.1774280">
        <ele>825.6</ele>
      </trkpt>
      <trkpt lat="40.7800800" lon="0.1774280">
        <ele>825.3</ele>
      </trkpt>
      <trkpt lat="40.7801310" lon="0.1774220">
        <ele>824.7</ele>
      </trkpt>
      <trkpt lat="40.7801770" lon="0.1774060">
        <ele>824.5</ele>
      </trkpt>
      <trkpt lat="40.7802280" lon="0.1773940">
        <ele>823.8</ele>
      </trkpt>
      <trkpt lat="40.7802730" lon="0.1773960">
        <ele>823.4</ele>
      </trkpt>
      <trkpt lat="40.7803110" lon="0.1773860">
        <ele>823.0</ele>
      </trkpt>
      <trkpt lat="40.7803450" lon="0.1773740">
        <ele>822.6</ele>
      </trkpt>
      <trkpt lat="40.7803790" lon="0.1773550">
        <ele>821.7</ele>
      </trkpt>
      <trkpt lat="40.7804170" lon="0.1773300">
        <ele>821.3</ele>
      </trkpt>
      <trkpt lat="40.7804580" lon="0.1773050">
        <ele>820.9</ele>
      </trkpt>
      <trkpt lat="40.7805000" lon="0.1772800">
        <ele>820.5</ele>
      </trkpt>
      <trkpt lat="40.7805370" lon="0.1772540">
        <ele>820.1</ele>
      </trkpt>
      <trkpt lat="40.7805770" lon="0.1772310">
        <ele>819.1</ele>
      </trkpt>
      <trkpt lat="40.7806180" lon="0.1772090">
        <ele>818.7</ele>
      </trkpt>
      <trkpt lat="40.7806580" lon="0.1771900">
        <ele>818.4</ele>
      </trkpt>
      <trkpt lat="40.7806940" lon="0.1771740">
        <ele>818.1</ele>
      </trkpt>
      <trkpt lat="40.7807350" lon="0.1771550">
        <ele>817.7</ele>
      </trkpt>
      <trkpt lat="40.7807740" lon="0.1771370">
        <ele>816.8</ele>
      </trkpt>
      <trkpt lat="40.7808080" lon="0.1771160">
        <ele>816.4</ele>
      </trkpt>
      <trkpt lat="40.7808440" lon="0.1770960">
        <ele>815.9</ele>
      </trkpt>
      <trkpt lat="40.7808840" lon="0.1770720">
        <ele>815.5</ele>
      </trkpt>
      <trkpt lat="40.7809290" lon="0.1770510">
        <ele>815.0</ele>
      </trkpt>
      <trkpt lat="40.7809720" lon="0.1770290">
        <ele>814.3</ele>
      </trkpt>
      <trkpt lat="40.7810210" lon="0.1770120">
        <ele>813.9</ele>
      </trkpt>
      <trkpt lat="40.7810630" lon="0.1770010">
        <ele>813.3</ele>
      </trkpt>
      <trkpt lat="40.7811020" lon="0.1769940">
        <ele>813.0</ele>
      </trkpt>
      <trkpt lat="40.7811420" lon="0.1769860">
        <ele>812.8</ele>
      </trkpt>
      <trkpt lat="40.7811780" lon="0.1769800">
        <ele>812.4</ele>
      </trkpt>
      <trkpt lat="40.7812160" lon="0.1769730">
        <ele>812.2</ele>
      </trkpt>
      <trkpt lat="40.7812540" lon="0.1769680">
        <ele>812.0</ele>
      </trkpt>
      <trkpt lat="40.7812880" lon="0.1769640">
        <ele>811.8</ele>
      </trkpt>
      <trkpt lat="40.7813210" lon="0.1769580">
        <ele>811.6</ele>
      </trkpt>
      <trkpt lat="40.7813540" lon="0.1769450">
        <ele>811.2</ele>
      </trkpt>
      <trkpt lat="40.7813860" lon="0.1769280">
        <ele>811.0</ele>
      </trkpt>
      <trkpt lat="40.7814180" lon="0.1769070">
        <ele>810.9</ele>
      </trkpt>
      <trkpt lat="40.7814540" lon="0.1768810">
        <ele>810.5</ele>
      </trkpt>
      <trkpt lat="40.7814890" lon="0.1768560">
        <ele>810.5</ele>
      </trkpt>
      <trkpt lat="40.7815260" lon="0.1768330">
        <ele>810.4</ele>
      </trkpt>
      <trkpt lat="40.7815670" lon="0.1768070">
        <ele>810.3</ele>
      </trkpt>
      <trkpt lat="40.7816090" lon="0.1767780">
        <ele>810.5</ele>
      </trkpt>
      <trkpt lat="40.7816480" lon="0.1767460">
        <ele>810.9</ele>
      </trkpt>
      <trkpt lat="40.7816800" lon="0.1767070">
        <ele>811.1</ele>
      </trkpt>
      <trkpt lat="40.7817040" lon="0.1766560">
        <ele>811.0</ele>
      </trkpt>
      <trkpt lat="40.7817050" lon="0.1765630">
        <ele>810.9</ele>
      </trkpt>
      <trkpt lat="40.7817220" lon="0.1765030">
        <ele>811.1</ele>
      </trkpt>
      <trkpt lat="40.7817220" lon="0.1764480">
        <ele>811.0</ele>
      </trkpt>
      <trkpt lat="40.7817280" lon="0.1763860">
        <ele>811.0</ele>
      </trkpt>
      <trkpt lat="40.7817330" lon="0.1763290">
        <ele>810.8</ele>
      </trkpt>
      <trkpt lat="40.7817410" lon="0.1762480">
        <ele>810.7</ele>
      </trkpt>
      <trkpt lat="40.7817570" lon="0.1762190">
        <ele>810.9</ele>
      </trkpt>
      <trkpt lat="40.7817670" lon="0.1761310">
        <ele>810.8</ele>
      </trkpt>
      <trkpt lat="40.7817620" lon="0.1760770">
        <ele>810.6</ele>
      </trkpt>
      <trkpt lat="40.7817920" lon="0.1759970">
        <ele>810.6</ele>
      </trkpt>
      <trkpt lat="40.7817980" lon="0.1759330">
        <ele>810.4</ele>
      </trkpt>
      <trkpt lat="40.7817860" lon="0.1758700">
        <ele>810.2</ele>
      </trkpt>
      <trkpt lat="40.7818100" lon="0.1757990">
        <ele>810.0</ele>
      </trkpt>
      <trkpt lat="40.7818240" lon="0.1757180">
        <ele>809.5</ele>
      </trkpt>
      <trkpt lat="40.7818560" lon="0.1756400">
        <ele>809.2</ele>
      </trkpt>
      <trkpt lat="40.7818830" lon="0.1755650">
        <ele>808.9</ele>
      </trkpt>
      <trkpt lat="40.7819120" lon="0.1754980">
        <ele>808.7</ele>
      </trkpt>
      <trkpt lat="40.7819260" lon="0.1754530">
        <ele>808.5</ele>
      </trkpt>
      <trkpt lat="40.7819270" lon="0.1753840">
        <ele>808.1</ele>
      </trkpt>
      <trkpt lat="40.7819890" lon="0.1753440">
        <ele>808.0</ele>
      </trkpt>
      <trkpt lat="40.7820270" lon="0.1752740">
        <ele>807.8</ele>
      </trkpt>
      <trkpt lat="40.7820620" lon="0.1752330">
        <ele>807.6</ele>
      </trkpt>
      <trkpt lat="40.7820890" lon="0.1751820">
        <ele>807.4</ele>
      </trkpt>
      <trkpt lat="40.7821530" lon="0.1751300">
        <ele>807.2</ele>
      </trkpt>
      <trkpt lat="40.7821940" lon="0.1750770">
        <ele>807.2</ele>
      </trkpt>
      <trkpt lat="40.7822460" lon="0.1750280">
        <ele>807.4</ele>
      </trkpt>
      <trkpt lat="40.7822830" lon="0.1749870">
        <ele>807.8</ele>
      </trkpt>
      <trkpt lat="40.7823040" lon="0.1749390">
        <ele>808.2</ele>
      </trkpt>
      <trkpt lat="40.7823670" lon="0.1749010">
        <ele>808.8</ele>
      </trkpt>
      <trkpt lat="40.7824150" lon="0.1748800">
        <ele>809.2</ele>
      </trkpt>
      <trkpt lat="40.7824400" lon="0.1748440">
        <ele>809.4</ele>
      </trkpt>
      <trkpt lat="40.7824770" lon="0.1747960">
        <ele>809.7</ele>
      </trkpt>
      <trkpt lat="40.7825240" lon="0.1747090">
        <ele>810.5</ele>
      </trkpt>
      <trkpt lat="40.7825480" lon="0.1746680">
        <ele>810.7</ele>
      </trkpt>
      <trkpt lat="40.7825760" lon="0.1746230">
        <ele>810.6</ele>
      </trkpt>
      <trkpt lat="40.7826120" lon="0.1745620">
        <ele>810.5</ele>
      </trkpt>
      <trkpt lat="40.7826530" lon="0.1745100">
        <ele>810.4</ele>
      </trkpt>
      <trkpt lat="40.7826810" lon="0.1744930">
        <ele>810.3</ele>
      </trkpt>
      <trkpt lat="40.7827150" lon="0.1744780">
        <ele>810.2</ele>
      </trkpt>
      <trkpt lat="40.7827490" lon="0.1744610">
        <ele>810.2</ele>
      </trkpt>
      <trkpt lat="40.7827880" lon="0.1744480">
        <ele>810.1</ele>
      </trkpt>
      <trkpt lat="40.7828290" lon="0.1744360">
        <ele>810.0</ele>
      </trkpt>
      <trkpt lat="40.7828700" lon="0.1744240">
        <ele>809.9</ele>
      </trkpt>
      <trkpt lat="40.7829120" lon="0.1744150">
        <ele>809.8</ele>
      </trkpt>
      <trkpt lat="40.7829480" lon="0.1744080">
        <ele>809.7</ele>
      </trkpt>
      <trkpt lat="40.7829800" lon="0.1743990">
        <ele>809.6</ele>
      </trkpt>
      <trkpt lat="40.7830120" lon="0.1743870">
        <ele>809.6</ele>
      </trkpt>
      <trkpt lat="40.7830500" lon="0.1743790">
        <ele>809.5</ele>
      </trkpt>
      <trkpt lat="40.7830980" lon="0.1743720">
        <ele>809.4</ele>
      </trkpt>
      <trkpt lat="40.7831510" lon="0.1743720">
        <ele>809.2</ele>
      </trkpt>
      <trkpt lat="40.7832020" lon="0.1743750">
        <ele>809.1</ele>
      </trkpt>
      <trkpt lat="40.7833070" lon="0.1743720">
        <ele>808.8</ele>
      </trkpt>
      <trkpt lat="40.7833410" lon="0.1743690">
        <ele>808.7</ele>
      </trkpt>
      <trkpt lat="40.7833880" lon="0.1743690">
        <ele>808.6</ele>
      </trkpt>
      <trkpt lat="40.7834580" lon="0.1743540">
        <ele>808.4</ele>
      </trkpt>
      <trkpt lat="40.7835130" lon="0.1743260">
        <ele>808.3</ele>
      </trkpt>
      <trkpt lat="40.7835610" lon="0.1743080">
        <ele>808.1</ele>
      </trkpt>
      <trkpt lat="40.7835990" lon="0.1742660">
        <ele>808.0</ele>
      </trkpt>
      <trkpt lat="40.7836300" lon="0.1742370">
        <ele>807.9</ele>
      </trkpt>
      <trkpt lat="40.7837020" lon="0.1741970">
        <ele>807.7</ele>
      </trkpt>
      <trkpt lat="40.7837480" lon="0.1741450">
        <ele>807.6</ele>
      </trkpt>
      <trkpt lat="40.7837810" lon="0.1741080">
        <ele>807.5</ele>
      </trkpt>
      <trkpt lat="40.7838300" lon="0.1740680">
        <ele>807.4</ele>
      </trkpt>
      <trkpt lat="40.7838950" lon="0.1740120">
        <ele>807.2</ele>
      </trkpt>
      <trkpt lat="40.7839510" lon="0.1739730">
        <ele>807.1</ele>
      </trkpt>
      <trkpt lat="40.7840010" lon="0.1739630">
        <ele>807.0</ele>
      </trkpt>
      <trkpt lat="40.7840610" lon="0.1739460">
        <ele>806.8</ele>
      </trkpt>
      <trkpt lat="40.7840870" lon="0.1739300">
        <ele>806.7</ele>
      </trkpt>
      <trkpt lat="40.7841270" lon="0.1739100">
        <ele>806.6</ele>
      </trkpt>
      <trkpt lat="40.7841650" lon="0.1738990">
        <ele>806.5</ele>
      </trkpt>
      <trkpt lat="40.7842200" lon="0.1738820">
        <ele>806.3</ele>
      </trkpt>
      <trkpt lat="40.7842480" lon="0.1738360">
        <ele>806.2</ele>
      </trkpt>
      <trkpt lat="40.7842750" lon="0.1737570">
        <ele>806.0</ele>
      </trkpt>
      <trkpt lat="40.7843370" lon="0.1737380">
        <ele>805.8</ele>
      </trkpt>
      <trkpt lat="40.7844190" lon="0.1736930">
        <ele>805.6</ele>
      </trkpt>
      <trkpt lat="40.7844980" lon="0.1736480">
        <ele>805.3</ele>
      </trkpt>
      <trkpt lat="40.7845300" lon="0.1736050">
        <ele>805.2</ele>
      </trkpt>
      <trkpt lat="40.7845340" lon="0.1735540">
        <ele>805.0</ele>
      </trkpt>
      <trkpt lat="40.7845110" lon="0.1735160">
        <ele>804.9</ele>
      </trkpt>
      <trkpt lat="40.7845200" lon="0.1734420">
        <ele>804.7</ele>
      </trkpt>
      <trkpt lat="40.7845380" lon="0.1733680">
        <ele>804.5</ele>
      </trkpt>
      <trkpt lat="40.7845560" lon="0.1732720">
        <ele>804.2</ele>
      </trkpt>
      <trkpt lat="40.7846430" lon="0.1732140">
        <ele>803.9</ele>
      </trkpt>
      <trkpt lat="40.7846870" lon="0.1731560">
        <ele>803.7</ele>
      </trkpt>
      <trkpt lat="40.7847240" lon="0.1731520">
        <ele>803.6</ele>
      </trkpt>
      <trkpt lat="40.7847850" lon="0.1731310">
        <ele>803.5</ele>
      </trkpt>
      <trkpt lat="40.7848360" lon="0.1731190">
        <ele>803.4</ele>
      </trkpt>
      <trkpt lat="40.7848820" lon="0.1730910">
        <ele>803.2</ele>
      </trkpt>
      <trkpt lat="40.7849410" lon="0.1731010">
        <ele>803.1</ele>
      </trkpt>
      <trkpt lat="40.7850170" lon="0.1731180">
        <ele>802.9</ele>
      </trkpt>
      <trkpt lat="40.7850690" lon="0.1731310">
        <ele>802.8</ele>
      </trkpt>
      <trkpt lat="40.7851000" lon="0.1731700">
        <ele>802.7</ele>
      </trkpt>
      <trkpt lat="40.7851450" lon="0.1731760">
        <ele>802.5</ele>
      </trkpt>
      <trkpt lat="40.7851600" lon="0.1732230">
        <ele>802.4</ele>
      </trkpt>
      <trkpt lat="40.7852010" lon="0.1732320">
        <ele>802.3</ele>
      </trkpt>
      <trkpt lat="40.7852470" lon="0.1731790">
        <ele>802.1</ele>
      </trkpt>
      <trkpt lat="40.7852930" lon="0.1731560">
        <ele>801.9</ele>
      </trkpt>
      <trkpt lat="40.7853300" lon="0.1731150">
        <ele>801.8</ele>
      </trkpt>
      <trkpt lat="40.7853810" lon="0.1730600">
        <ele>801.6</ele>
      </trkpt>
      <trkpt lat="40.7854410" lon="0.1730380">
        <ele>801.4</ele>
      </trkpt>
      <trkpt lat="40.7854750" lon="0.1730090">
        <ele>801.3</ele>
      </trkpt>
      <trkpt lat="40.7855080" lon="0.1729780">
        <ele>801.1</ele>
      </trkpt>
      <trkpt lat="40.7855470" lon="0.1729540">
        <ele>801.0</ele>
      </trkpt>
      <trkpt lat="40.7856060" lon="0.1729420">
        <ele>800.8</ele>
      </trkpt>
      <trkpt lat="40.7856700" lon="0.1729360">
        <ele>800.7</ele>
      </trkpt>
      <trkpt lat="40.7857190" lon="0.1728980">
        <ele>800.6</ele>
      </trkpt>
      <trkpt lat="40.7857640" lon="0.1728670">
        <ele>800.5</ele>
      </trkpt>
      <trkpt lat="40.7858140" lon="0.1728520">
        <ele>800.4</ele>
      </trkpt>
      <trkpt lat="40.7858820" lon="0.1728280">
        <ele>800.4</ele>
      </trkpt>
      <trkpt lat="40.7859400" lon="0.1728200">
        <ele>800.4</ele>
      </trkpt>
      <trkpt lat="40.7859170" lon="0.1727100">
        <ele>800.6</ele>
      </trkpt>
      <trkpt lat="40.7859550" lon="0.1726540">
        <ele>800.7</ele>
      </trkpt>
      <trkpt lat="40.7860210" lon="0.1726250">
        <ele>800.8</ele>
      </trkpt>
      <trkpt lat="40.7861090" lon="0.1726140">
        <ele>800.9</ele>
      </trkpt>
      <trkpt lat="40.7860960" lon="0.1724630">
        <ele>801.0</ele>
      </trkpt>
      <trkpt lat="40.7861150" lon="0.1723850">
        <ele>801.0</ele>
      </trkpt>
      <trkpt lat="40.7860690" lon="0.1723280">
        <ele>800.9</ele>
      </trkpt>
      <trkpt lat="40.7860560" lon="0.1722060">
        <ele>800.6</ele>
      </trkpt>
      <trkpt lat="40.7860240" lon="0.1721910">
        <ele>800.4</ele>
      </trkpt>
      <trkpt lat="40.7859930" lon="0.1721490">
        <ele>800.1</ele>
      </trkpt>
      <trkpt lat="40.7859620" lon="0.1720640">
        <ele>799.4</ele>
      </trkpt>
      <trkpt lat="40.7859160" lon="0.1720800">
        <ele>798.8</ele>
      </trkpt>
      <trkpt lat="40.7858860" lon="0.1720590">
        <ele>798.3</ele>
      </trkpt>
      <trkpt lat="40.7858540" lon="0.1720520">
        <ele>797.8</ele>
      </trkpt>
      <trkpt lat="40.7858250" lon="0.1720090">
        <ele>797.0</ele>
      </trkpt>
      <trkpt lat="40.7858010" lon="0.1719380">
        <ele>796.1</ele>
      </trkpt>
      <trkpt lat="40.7858210" lon="0.1719000">
        <ele>795.7</ele>
      </trkpt>
      <trkpt lat="40.7858480" lon="0.1718370">
        <ele>795.1</ele>
      </trkpt>
      <trkpt lat="40.7859050" lon="0.1718210">
        <ele>794.7</ele>
      </trkpt>
      <trkpt lat="40.7859360" lon="0.1718250">
        <ele>794.5</ele>
      </trkpt>
      <trkpt lat="40.7859730" lon="0.1718300">
        <ele>794.2</ele>
      </trkpt>
      <trkpt lat="40.7860140" lon="0.1718340">
        <ele>793.9</ele>
      </trkpt>
      <trkpt lat="40.7860550" lon="0.1718300">
        <ele>793.7</ele>
      </trkpt>
      <trkpt lat="40.7860950" lon="0.1718230">
        <ele>793.5</ele>
      </trkpt>
      <trkpt lat="40.7861310" lon="0.1718090">
        <ele>793.4</ele>
      </trkpt>
      <trkpt lat="40.7861620" lon="0.1717900">
        <ele>793.3</ele>
      </trkpt>
      <trkpt lat="40.7861940" lon="0.1717670">
        <ele>793.2</ele>
      </trkpt>
      <trkpt lat="40.7862270" lon="0.1717420">
        <ele>793.0</ele>
      </trkpt>
      <trkpt lat="40.7862660" lon="0.1717140">
        <ele>792.9</ele>
      </trkpt>
      <trkpt lat="40.7863070" lon="0.1716900">
        <ele>792.9</ele>
      </trkpt>
      <trkpt lat="40.7863550" lon="0.1716630">
        <ele>792.9</ele>
      </trkpt>
      <trkpt lat="40.7863840" lon="0.1716300">
        <ele>793.0</ele>
      </trkpt>
      <trkpt lat="40.7864020" lon="0.1715900">
        <ele>794.3</ele>
      </trkpt>
      <trkpt lat="40.7864090" lon="0.1715430">
        <ele>795.4</ele>
      </trkpt>
      <trkpt lat="40.7864090" lon="0.1714940">
        <ele>796.7</ele>
      </trkpt>
      <trkpt lat="40.7864130" lon="0.1714420">
        <ele>799.1</ele>
      </trkpt>
      <trkpt lat="40.7864220" lon="0.1713990">
        <ele>800.7</ele>
      </trkpt>
      <trkpt lat="40.7864360" lon="0.1713610">
        <ele>801.1</ele>
      </trkpt>
      <trkpt lat="40.7864600" lon="0.1713260">
        <ele>802.7</ele>
      </trkpt>
      <trkpt lat="40.7864910" lon="0.1713020">
        <ele>804.5</ele>
      </trkpt>
      <trkpt lat="40.7865280" lon="0.1712880">
        <ele>804.9</ele>
      </trkpt>
      <trkpt lat="40.7865620" lon="0.1712840">
        <ele>805.3</ele>
      </trkpt>
      <trkpt lat="40.7865930" lon="0.1712890">
        <ele>805.8</ele>
      </trkpt>
      <trkpt lat="40.7866260" lon="0.1712990">
        <ele>806.2</ele>
      </trkpt>
      <trkpt lat="40.7866670" lon="0.1713050">
        <ele>806.6</ele>
      </trkpt>
      <trkpt lat="40.7867010" lon="0.1713130">
        <ele>807.1</ele>
      </trkpt>
      <trkpt lat="40.7867340" lon="0.1713220">
        <ele>806.5</ele>
      </trkpt>
      <trkpt lat="40.7867640" lon="0.1713380">
        <ele>807.1</ele>
      </trkpt>
      <trkpt lat="40.7867960" lon="0.1713530">
        <ele>807.6</ele>
      </trkpt>
      <trkpt lat="40.7868260" lon="0.1713630">
        <ele>807.3</ele>
      </trkpt>
      <trkpt lat="40.7868570" lon="0.1713710">
        <ele>807.9</ele>
      </trkpt>
      <trkpt lat="40.7868880" lon="0.1713770">
        <ele>808.5</ele>
      </trkpt>
      <trkpt lat="40.7869160" lon="0.1713850">
        <ele>809.1</ele>
      </trkpt>
      <trkpt lat="40.7869510" lon="0.1713840">
        <ele>809.6</ele>
      </trkpt>
      <trkpt lat="40.7869920" lon="0.1713800">
        <ele>810.1</ele>
      </trkpt>
      <trkpt lat="40.7870360" lon="0.1713830">
        <ele>810.6</ele>
      </trkpt>
      <trkpt lat="40.7870630" lon="0.1713890">
        <ele>811.1</ele>
      </trkpt>
      <trkpt lat="40.7871090" lon="0.1714090">
        <ele>811.1</ele>
      </trkpt>
      <trkpt lat="40.7871540" lon="0.1714220">
        <ele>811.5</ele>
      </trkpt>
      <trkpt lat="40.7871850" lon="0.1714290">
        <ele>811.8</ele>
      </trkpt>
      <trkpt lat="40.7872150" lon="0.1714370">
        <ele>812.1</ele>
      </trkpt>
      <trkpt lat="40.7872420" lon="0.1714420">
        <ele>812.3</ele>
      </trkpt>
      <trkpt lat="40.7872910" lon="0.1714540">
        <ele>812.3</ele>
      </trkpt>
      <trkpt lat="40.7873380" lon="0.1714630">
        <ele>812.4</ele>
      </trkpt>
      <trkpt lat="40.7873780" lon="0.1714700">
        <ele>812.6</ele>
      </trkpt>
      <trkpt lat="40.7874170" lon="0.1714780">
        <ele>812.7</ele>
      </trkpt>
      <trkpt lat="40.7874560" lon="0.1714870">
        <ele>812.9</ele>
      </trkpt>
      <trkpt lat="40.7875010" lon="0.1715070">
        <ele>812.7</ele>
      </trkpt>
      <trkpt lat="40.7875340" lon="0.1715220">
        <ele>812.8</ele>
      </trkpt>
      <trkpt lat="40.7875660" lon="0.1715300">
        <ele>812.8</ele>
      </trkpt>
      <trkpt lat="40.7875990" lon="0.1715360">
        <ele>812.9</ele>
      </trkpt>
      <trkpt lat="40.7876250" lon="0.1715310">
        <ele>813.1</ele>
      </trkpt>
      <trkpt lat="40.7876690" lon="0.1715400">
        <ele>812.7</ele>
      </trkpt>
      <trkpt lat="40.7877160" lon="0.1715440">
        <ele>812.5</ele>
      </trkpt>
      <trkpt lat="40.7877610" lon="0.1715580">
        <ele>811.6</ele>
      </trkpt>
      <trkpt lat="40.7877920" lon="0.1715610">
        <ele>811.3</ele>
      </trkpt>
      <trkpt lat="40.7878000" lon="0.1715190">
        <ele>811.3</ele>
      </trkpt>
      <trkpt lat="40.7878250" lon="0.1714730">
        <ele>810.6</ele>
      </trkpt>
      <trkpt lat="40.7878580" lon="0.1714420">
        <ele>809.9</ele>
      </trkpt>
      <trkpt lat="40.7878890" lon="0.1714130">
        <ele>809.4</ele>
      </trkpt>
      <trkpt lat="40.7879090" lon="0.1713810">
        <ele>809.6</ele>
      </trkpt>
      <trkpt lat="40.7879320" lon="0.1713620">
        <ele>809.2</ele>
      </trkpt>
      <trkpt lat="40.7879750" lon="0.1713630">
        <ele>808.8</ele>
      </trkpt>
      <trkpt lat="40.7880260" lon="0.1713980">
        <ele>807.6</ele>
      </trkpt>
      <trkpt lat="40.7880590" lon="0.1714240">
        <ele>807.8</ele>
      </trkpt>
      <trkpt lat="40.7880900" lon="0.1714520">
        <ele>807.9</ele>
      </trkpt>
      <trkpt lat="40.7881190" lon="0.1714780">
        <ele>808.1</ele>
      </trkpt>
      <trkpt lat="40.7881500" lon="0.1715020">
        <ele>808.2</ele>
      </trkpt>
      <trkpt lat="40.7881770" lon="0.1715250">
        <ele>808.3</ele>
      </trkpt>
      <trkpt lat="40.7882040" lon="0.1715350">
        <ele>808.3</ele>
      </trkpt>
      <trkpt lat="40.7882330" lon="0.1715410">
        <ele>808.4</ele>
      </trkpt>
      <trkpt lat="40.7882620" lon="0.1715480">
        <ele>808.5</ele>
      </trkpt>
      <trkpt lat="40.7882910" lon="0.1715550">
        <ele>808.6</ele>
      </trkpt>
      <trkpt lat="40.7883200" lon="0.1715620">
        <ele>808.6</ele>
      </trkpt>
      <trkpt lat="40.7883720" lon="0.1715840">
        <ele>808.8</ele>
      </trkpt>
      <trkpt lat="40.7883980" lon="0.1715960">
        <ele>808.8</ele>
      </trkpt>
      <trkpt lat="40.7884230" lon="0.1716230">
        <ele>808.9</ele>
      </trkpt>
      <trkpt lat="40.7884490" lon="0.1716500">
        <ele>809.0</ele>
      </trkpt>
      <trkpt lat="40.7884780" lon="0.1716860">
        <ele>809.1</ele>
      </trkpt>
      <trkpt lat="40.7885070" lon="0.1717350">
        <ele>809.2</ele>
      </trkpt>
      <trkpt lat="40.7885360" lon="0.1717800">
        <ele>809.4</ele>
      </trkpt>
      <trkpt lat="40.7885650" lon="0.1718280">
        <ele>809.6</ele>
      </trkpt>
      <trkpt lat="40.7885930" lon="0.1718690">
        <ele>809.8</ele>
      </trkpt>
      <trkpt lat="40.7886160" lon="0.1718900">
        <ele>809.9</ele>
      </trkpt>
      <trkpt lat="40.7886560" lon="0.1719240">
        <ele>810.0</ele>
      </trkpt>
      <trkpt lat="40.7887010" lon="0.1719680">
        <ele>810.2</ele>
      </trkpt>
      <trkpt lat="40.7887280" lon="0.1719910">
        <ele>810.3</ele>
      </trkpt>
      <trkpt lat="40.7887530" lon="0.1720030">
        <ele>810.4</ele>
      </trkpt>
      <trkpt lat="40.7888040" lon="0.1720230">
        <ele>810.6</ele>
      </trkpt>
      <trkpt lat="40.7888290" lon="0.1720420">
        <ele>810.7</ele>
      </trkpt>
      <trkpt lat="40.7888570" lon="0.1720620">
        <ele>810.8</ele>
      </trkpt>
      <trkpt lat="40.7888850" lon="0.1720870">
        <ele>810.9</ele>
      </trkpt>
      <trkpt lat="40.7889140" lon="0.1721030">
        <ele>810.9</ele>
      </trkpt>
      <trkpt lat="40.7889400" lon="0.1721110">
        <ele>811.0</ele>
      </trkpt>
      <trkpt lat="40.7889690" lon="0.1721170">
        <ele>811.1</ele>
      </trkpt>
      <trkpt lat="40.7890140" lon="0.1721190">
        <ele>811.2</ele>
      </trkpt>
      <trkpt lat="40.7890550" lon="0.1721070">
        <ele>811.3</ele>
      </trkpt>
      <trkpt lat="40.7891040" lon="0.1720950">
        <ele>811.2</ele>
      </trkpt>
      <trkpt lat="40.7891460" lon="0.1720850">
        <ele>811.0</ele>
      </trkpt>
      <trkpt lat="40.7891980" lon="0.1720850">
        <ele>810.7</ele>
      </trkpt>
      <trkpt lat="40.7892490" lon="0.1720950">
        <ele>810.4</ele>
      </trkpt>
      <trkpt lat="40.7892760" lon="0.1720970">
        <ele>810.1</ele>
      </trkpt>
      <trkpt lat="40.7893070" lon="0.1721050">
        <ele>809.8</ele>
      </trkpt>
      <trkpt lat="40.7893400" lon="0.1721200">
        <ele>809.6</ele>
      </trkpt>
      <trkpt lat="40.7893770" lon="0.1721350">
        <ele>809.4</ele>
      </trkpt>
      <trkpt lat="40.7894160" lon="0.1721460">
        <ele>809.1</ele>
      </trkpt>
      <trkpt lat="40.7894580" lon="0.1721520">
        <ele>808.9</ele>
      </trkpt>
      <trkpt lat="40.7894990" lon="0.1721500">
        <ele>808.7</ele>
      </trkpt>
      <trkpt lat="40.7895360" lon="0.1721380">
        <ele>808.7</ele>
      </trkpt>
      <trkpt lat="40.7895960" lon="0.1721310">
        <ele>808.6</ele>
      </trkpt>
      <trkpt lat="40.7896320" lon="0.1721050">
        <ele>808.6</ele>
      </trkpt>
      <trkpt lat="40.7897020" lon="0.1720990">
        <ele>808.7</ele>
      </trkpt>
      <trkpt lat="40.7897040" lon="0.1720080">
        <ele>808.9</ele>
      </trkpt>
      <trkpt lat="40.7897400" lon="0.1719550">
        <ele>809.0</ele>
      </trkpt>
      <trkpt lat="40.7897770" lon="0.1719170">
        <ele>809.1</ele>
      </trkpt>
      <trkpt lat="40.7898250" lon="0.1718670">
        <ele>809.3</ele>
      </trkpt>
      <trkpt lat="40.7898890" lon="0.1718410">
        <ele>809.4</ele>
      </trkpt>
      <trkpt lat="40.7899160" lon="0.1718320">
        <ele>809.5</ele>
      </trkpt>
      <trkpt lat="40.7898760" lon="0.1718040">
        <ele>809.6</ele>
      </trkpt>
      <trkpt lat="40.7898550" lon="0.1717820">
        <ele>809.7</ele>
      </trkpt>
      <trkpt lat="40.7898360" lon="0.1717040">
        <ele>809.9</ele>
      </trkpt>
      <trkpt lat="40.7898840" lon="0.1716880">
        <ele>810.2</ele>
      </trkpt>
      <trkpt lat="40.7899280" lon="0.1716820">
        <ele>810.5</ele>
      </trkpt>
      <trkpt lat="40.7899610" lon="0.1716550">
        <ele>810.7</ele>
      </trkpt>
      <trkpt lat="40.7899880" lon="0.1716540">
        <ele>810.8</ele>
      </trkpt>
      <trkpt lat="40.7900170" lon="0.1716080">
        <ele>811.1</ele>
      </trkpt>
      <trkpt lat="40.7900450" lon="0.1715870">
        <ele>811.3</ele>
      </trkpt>
      <trkpt lat="40.7900690" lon="0.1715670">
        <ele>811.5</ele>
      </trkpt>
      <trkpt lat="40.7900910" lon="0.1715230">
        <ele>811.7</ele>
      </trkpt>
      <trkpt lat="40.7901260" lon="0.1715040">
        <ele>811.9</ele>
      </trkpt>
      <trkpt lat="40.7901590" lon="0.1714890">
        <ele>812.1</ele>
      </trkpt>
      <trkpt lat="40.7901870" lon="0.1714770">
        <ele>812.3</ele>
      </trkpt>
      <trkpt lat="40.7902130" lon="0.1714640">
        <ele>812.5</ele>
      </trkpt>
      <trkpt lat="40.7902260" lon="0.1714280">
        <ele>812.7</ele>
      </trkpt>
      <trkpt lat="40.7902610" lon="0.1713800">
        <ele>813.0</ele>
      </trkpt>
      <trkpt lat="40.7902830" lon="0.1713580">
        <ele>813.2</ele>
      </trkpt>
      <trkpt lat="40.7902830" lon="0.1713150">
        <ele>813.4</ele>
      </trkpt>
      <trkpt lat="40.7902810" lon="0.1712320">
        <ele>813.8</ele>
      </trkpt>
      <trkpt lat="40.7902800" lon="0.1711690">
        <ele>814.1</ele>
      </trkpt>
      <trkpt lat="40.7902780" lon="0.1710980">
        <ele>814.8</ele>
      </trkpt>
      <trkpt lat="40.7902730" lon="0.1710450">
        <ele>815.3</ele>
      </trkpt>
      <trkpt lat="40.7902650" lon="0.1709870">
        <ele>815.8</ele>
      </trkpt>
      <trkpt lat="40.7902560" lon="0.1709330">
        <ele>816.1</ele>
      </trkpt>
      <trkpt lat="40.7902530" lon="0.1708590">
        <ele>816.5</ele>
      </trkpt>
      <trkpt lat="40.7902510" lon="0.1707850">
        <ele>816.9</ele>
      </trkpt>
      <trkpt lat="40.7902490" lon="0.1707270">
        <ele>817.2</ele>
      </trkpt>
      <trkpt lat="40.7902470" lon="0.1706820">
        <ele>817.4</ele>
      </trkpt>
      <trkpt lat="40.7902350" lon="0.1706190">
        <ele>817.8</ele>
      </trkpt>
      <trkpt lat="40.7902120" lon="0.1705880">
        <ele>818.0</ele>
      </trkpt>
      <trkpt lat="40.7901800" lon="0.1705780">
        <ele>818.3</ele>
      </trkpt>
      <trkpt lat="40.7901480" lon="0.1705710">
        <ele>818.5</ele>
      </trkpt>
      <trkpt lat="40.7901150" lon="0.1705600">
        <ele>818.7</ele>
      </trkpt>
      <trkpt lat="40.7900910" lon="0.1705420">
        <ele>818.9</ele>
      </trkpt>
      <trkpt lat="40.7900740" lon="0.1705140">
        <ele>819.1</ele>
      </trkpt>
      <trkpt lat="40.7900550" lon="0.1704740">
        <ele>819.4</ele>
      </trkpt>
      <trkpt lat="40.7900370" lon="0.1704240">
        <ele>819.7</ele>
      </trkpt>
      <trkpt lat="40.7900310" lon="0.1703890">
        <ele>819.9</ele>
      </trkpt>
      <trkpt lat="40.7900170" lon="0.1703430">
        <ele>820.2</ele>
      </trkpt>
      <trkpt lat="40.7899970" lon="0.1703140">
        <ele>820.5</ele>
      </trkpt>
      <trkpt lat="40.7899720" lon="0.1702660">
        <ele>820.8</ele>
      </trkpt>
      <trkpt lat="40.7899570" lon="0.1702050">
        <ele>821.2</ele>
      </trkpt>
      <trkpt lat="40.7899440" lon="0.1701550">
        <ele>821.6</ele>
      </trkpt>
      <trkpt lat="40.7899250" lon="0.1701110">
        <ele>821.9</ele>
      </trkpt>
      <trkpt lat="40.7899030" lon="0.1700810">
        <ele>822.1</ele>
      </trkpt>
      <trkpt lat="40.7898750" lon="0.1700790">
        <ele>822.4</ele>
      </trkpt>
      <trkpt lat="40.7898590" lon="0.1700490">
        <ele>822.6</ele>
      </trkpt>
      <trkpt lat="40.7898500" lon="0.1699840">
        <ele>823.0</ele>
      </trkpt>
      <trkpt lat="40.7898350" lon="0.1699360">
        <ele>823.5</ele>
      </trkpt>
      <trkpt lat="40.7898200" lon="0.1698950">
        <ele>824.0</ele>
      </trkpt>
      <trkpt lat="40.7898140" lon="0.1698480">
        <ele>824.4</ele>
      </trkpt>
      <trkpt lat="40.7898170" lon="0.1698030">
        <ele>824.6</ele>
      </trkpt>
      <trkpt lat="40.7898280" lon="0.1697580">
        <ele>824.9</ele>
      </trkpt>
      <trkpt lat="40.7898380" lon="0.1697130">
        <ele>825.1</ele>
      </trkpt>
      <trkpt lat="40.7898520" lon="0.1696670">
        <ele>825.3</ele>
      </trkpt>
      <trkpt lat="40.7898710" lon="0.1696110">
        <ele>825.6</ele>
      </trkpt>
      <trkpt lat="40.7898870" lon="0.1695560">
        <ele>825.9</ele>
      </trkpt>
      <trkpt lat="40.7898940" lon="0.1695060">
        <ele>826.1</ele>
      </trkpt>
      <trkpt lat="40.7899010" lon="0.1694530">
        <ele>826.2</ele>
      </trkpt>
      <trkpt lat="40.7899080" lon="0.1693890">
        <ele>826.4</ele>
      </trkpt>
      <trkpt lat="40.7899100" lon="0.1693530">
        <ele>826.6</ele>
      </trkpt>
      <trkpt lat="40.7899110" lon="0.1693150">
        <ele>826.7</ele>
      </trkpt>
      <trkpt lat="40.7899090" lon="0.1692740">
        <ele>826.8</ele>
      </trkpt>
      <trkpt lat="40.7899070" lon="0.1692250">
        <ele>827.0</ele>
      </trkpt>
      <trkpt lat="40.7899020" lon="0.1691800">
        <ele>827.1</ele>
      </trkpt>
      <trkpt lat="40.7899040" lon="0.1691260">
        <ele>827.2</ele>
      </trkpt>
      <trkpt lat="40.7899350" lon="0.1691010">
        <ele>827.3</ele>
      </trkpt>
      <trkpt lat="40.7899830" lon="0.1690830">
        <ele>827.5</ele>
      </trkpt>
      <trkpt lat="40.7900070" lon="0.1690460">
        <ele>827.6</ele>
      </trkpt>
      <trkpt lat="40.7900050" lon="0.1689860">
        <ele>827.7</ele>
      </trkpt>
      <trkpt lat="40.7900070" lon="0.1689170">
        <ele>827.7</ele>
      </trkpt>
      <trkpt lat="40.7900240" lon="0.1688480">
        <ele>827.7</ele>
      </trkpt>
      <trkpt lat="40.7900390" lon="0.1687880">
        <ele>827.8</ele>
      </trkpt>
      <trkpt lat="40.7900470" lon="0.1687340">
        <ele>827.8</ele>
      </trkpt>
      <trkpt lat="40.7900470" lon="0.1686750">
        <ele>827.7</ele>
      </trkpt>
      <trkpt lat="40.7900470" lon="0.1686380">
        <ele>827.7</ele>
      </trkpt>
      <trkpt lat="40.7900480" lon="0.1686010">
        <ele>827.7</ele>
      </trkpt>
      <trkpt lat="40.7900740" lon="0.1685700">
        <ele>827.7</ele>
      </trkpt>
      <trkpt lat="40.7901030" lon="0.1685340">
        <ele>827.6</ele>
      </trkpt>
      <trkpt lat="40.7901350" lon="0.1685040">
        <ele>827.6</ele>
      </trkpt>
      <trkpt lat="40.7901660" lon="0.1684790">
        <ele>827.6</ele>
      </trkpt>
      <trkpt lat="40.7901940" lon="0.1684570">
        <ele>827.5</ele>
      </trkpt>
      <trkpt lat="40.7902290" lon="0.1684390">
        <ele>827.5</ele>
      </trkpt>
      <trkpt lat="40.7902570" lon="0.1684250">
        <ele>827.5</ele>
      </trkpt>
      <trkpt lat="40.7902900" lon="0.1684160">
        <ele>827.5</ele>
      </trkpt>
      <trkpt lat="40.7903270" lon="0.1684100">
        <ele>827.5</ele>
      </trkpt>
      <trkpt lat="40.7903620" lon="0.1684060">
        <ele>827.4</ele>
      </trkpt>
      <trkpt lat="40.7904000" lon="0.1683990">
        <ele>827.5</ele>
      </trkpt>
      <trkpt lat="40.7904490" lon="0.1683940">
        <ele>827.5</ele>
      </trkpt>
      <trkpt lat="40.7904850" lon="0.1683850">
        <ele>827.6</ele>
      </trkpt>
      <trkpt lat="40.7905240" lon="0.1683660">
        <ele>827.6</ele>
      </trkpt>
      <trkpt lat="40.7905640" lon="0.1683410">
        <ele>827.7</ele>
      </trkpt>
      <trkpt lat="40.7906020" lon="0.1683130">
        <ele>827.7</ele>
      </trkpt>
      <trkpt lat="40.7906400" lon="0.1682840">
        <ele>827.8</ele>
      </trkpt>
      <trkpt lat="40.7906780" lon="0.1682610">
        <ele>827.8</ele>
      </trkpt>
      <trkpt lat="40.7907210" lon="0.1682440">
        <ele>827.9</ele>
      </trkpt>
      <trkpt lat="40.7907620" lon="0.1682330">
        <ele>828.1</ele>
      </trkpt>
      <trkpt lat="40.7908030" lon="0.1682220">
        <ele>828.2</ele>
      </trkpt>
      <trkpt lat="40.7908470" lon="0.1682110">
        <ele>828.4</ele>
      </trkpt>
      <trkpt lat="40.7908920" lon="0.1682050">
        <ele>828.6</ele>
      </trkpt>
      <trkpt lat="40.7909370" lon="0.1681980">
        <ele>828.8</ele>
      </trkpt>
      <trkpt lat="40.7909830" lon="0.1681910">
        <ele>829.0</ele>
      </trkpt>
      <trkpt lat="40.7910280" lon="0.1681860">
        <ele>829.2</ele>
      </trkpt>
      <trkpt lat="40.7910740" lon="0.1681880">
        <ele>829.4</ele>
      </trkpt>
      <trkpt lat="40.7911200" lon="0.1681870">
        <ele>829.6</ele>
      </trkpt>
      <trkpt lat="40.7911630" lon="0.1681880">
        <ele>829.7</ele>
      </trkpt>
      <trkpt lat="40.7911950" lon="0.1681900">
        <ele>829.9</ele>
      </trkpt>
      <trkpt lat="40.7912250" lon="0.1681950">
        <ele>830.0</ele>
      </trkpt>
      <trkpt lat="40.7912960" lon="0.1682060">
        <ele>830.2</ele>
      </trkpt>
      <trkpt lat="40.7913340" lon="0.1682070">
        <ele>830.3</ele>
      </trkpt>
      <trkpt lat="40.7913700" lon="0.1682110">
        <ele>830.4</ele>
      </trkpt>
      <trkpt lat="40.7914050" lon="0.1682140">
        <ele>830.5</ele>
      </trkpt>
      <trkpt lat="40.7914530" lon="0.1682030">
        <ele>830.6</ele>
      </trkpt>
      <trkpt lat="40.7914840" lon="0.1681740">
        <ele>830.7</ele>
      </trkpt>
      <trkpt lat="40.7915330" lon="0.1681580">
        <ele>830.9</ele>
      </trkpt>
      <trkpt lat="40.7915760" lon="0.1681440">
        <ele>831.0</ele>
      </trkpt>
      <trkpt lat="40.7916030" lon="0.1681260">
        <ele>831.1</ele>
      </trkpt>
      <trkpt lat="40.7916410" lon="0.1681040">
        <ele>831.2</ele>
      </trkpt>
      <trkpt lat="40.7916910" lon="0.1680800">
        <ele>831.3</ele>
      </trkpt>
      <trkpt lat="40.7917250" lon="0.1680500">
        <ele>831.3</ele>
      </trkpt>
      <trkpt lat="40.7917460" lon="0.1680150">
        <ele>831.4</ele>
      </trkpt>
      <trkpt lat="40.7917940" lon="0.1679750">
        <ele>831.4</ele>
      </trkpt>
      <trkpt lat="40.7918220" lon="0.1679510">
        <ele>831.5</ele>
      </trkpt>
      <trkpt lat="40.7918580" lon="0.1679270">
        <ele>831.5</ele>
      </trkpt>
      <trkpt lat="40.7919030" lon="0.1679050">
        <ele>831.6</ele>
      </trkpt>
      <trkpt lat="40.7919460" lon="0.1678840">
        <ele>831.6</ele>
      </trkpt>
      <trkpt lat="40.7919830" lon="0.1678550">
        <ele>831.7</ele>
      </trkpt>
      <trkpt lat="40.7920130" lon="0.1678130">
        <ele>831.8</ele>
      </trkpt>
      <trkpt lat="40.7920390" lon="0.1677720">
        <ele>831.9</ele>
      </trkpt>
      <trkpt lat="40.7920880" lon="0.1677390">
        <ele>832.0</ele>
      </trkpt>
      <trkpt lat="40.7921350" lon="0.1677030">
        <ele>832.0</ele>
      </trkpt>
      <trkpt lat="40.7921700" lon="0.1676630">
        <ele>832.1</ele>
      </trkpt>
      <trkpt lat="40.7921880" lon="0.1676250">
        <ele>832.2</ele>
      </trkpt>
      <trkpt lat="40.7921950" lon="0.1675800">
        <ele>832.2</ele>
      </trkpt>
      <trkpt lat="40.7922060" lon="0.1675390">
        <ele>832.3</ele>
      </trkpt>
      <trkpt lat="40.7922200" lon="0.1675050">
        <ele>832.3</ele>
      </trkpt>
      <trkpt lat="40.7922360" lon="0.1674690">
        <ele>832.4</ele>
      </trkpt>
      <trkpt lat="40.7922510" lon="0.1674310">
        <ele>832.4</ele>
      </trkpt>
      <trkpt lat="40.7922810" lon="0.1673830">
        <ele>832.5</ele>
      </trkpt>
      <trkpt lat="40.7922990" lon="0.1673140">
        <ele>832.8</ele>
      </trkpt>
      <trkpt lat="40.7923000" lon="0.1672680">
        <ele>832.9</ele>
      </trkpt>
      <trkpt lat="40.7922980" lon="0.1672210">
        <ele>833.1</ele>
      </trkpt>
      <trkpt lat="40.7923060" lon="0.1671750">
        <ele>833.3</ele>
      </trkpt>
      <trkpt lat="40.7923220" lon="0.1671330">
        <ele>833.5</ele>
      </trkpt>
      <trkpt lat="40.7923470" lon="0.1671040">
        <ele>833.7</ele>
      </trkpt>
      <trkpt lat="40.7923890" lon="0.1670900">
        <ele>833.9</ele>
      </trkpt>
      <trkpt lat="40.7924370" lon="0.1670920">
        <ele>834.2</ele>
      </trkpt>
      <trkpt lat="40.7924830" lon="0.1671090">
        <ele>834.4</ele>
      </trkpt>
      <trkpt lat="40.7925270" lon="0.1671350">
        <ele>834.7</ele>
      </trkpt>
      <trkpt lat="40.7925640" lon="0.1671660">
        <ele>834.9</ele>
      </trkpt>
      <trkpt lat="40.7926000" lon="0.1672030">
        <ele>835.2</ele>
      </trkpt>
      <trkpt lat="40.7926300" lon="0.1672390">
        <ele>835.5</ele>
      </trkpt>
      <trkpt lat="40.7926600" lon="0.1672720">
        <ele>835.7</ele>
      </trkpt>
      <trkpt lat="40.7926890" lon="0.1672990">
        <ele>835.9</ele>
      </trkpt>
      <trkpt lat="40.7927180" lon="0.1673270">
        <ele>836.2</ele>
      </trkpt>
      <trkpt lat="40.7927460" lon="0.1673550">
        <ele>836.5</ele>
      </trkpt>
      <trkpt lat="40.7927720" lon="0.1673860">
        <ele>836.8</ele>
      </trkpt>
      <trkpt lat="40.7927940" lon="0.1674120">
        <ele>837.1</ele>
      </trkpt>
      <trkpt lat="40.7928260" lon="0.1674380">
        <ele>837.3</ele>
      </trkpt>
      <trkpt lat="40.7928670" lon="0.1674410">
        <ele>837.6</ele>
      </trkpt>
      <trkpt lat="40.7929190" lon="0.1674350">
        <ele>838.0</ele>
      </trkpt>
      <trkpt lat="40.7929470" lon="0.1674240">
        <ele>838.2</ele>
      </trkpt>
      <trkpt lat="40.7929910" lon="0.1673960">
        <ele>838.5</ele>
      </trkpt>
      <trkpt lat="40.7930330" lon="0.1673660">
        <ele>838.8</ele>
      </trkpt>
      <trkpt lat="40.7930620" lon="0.1673550">
        <ele>839.1</ele>
      </trkpt>
      <trkpt lat="40.7930890" lon="0.1673480">
        <ele>839.3</ele>
      </trkpt>
      <trkpt lat="40.7931170" lon="0.1673450">
        <ele>839.6</ele>
      </trkpt>
      <trkpt lat="40.7931600" lon="0.1673390">
        <ele>839.9</ele>
      </trkpt>
      <trkpt lat="40.7932040" lon="0.1673280">
        <ele>840.3</ele>
      </trkpt>
      <trkpt lat="40.7932490" lon="0.1673110">
        <ele>840.6</ele>
      </trkpt>
      <trkpt lat="40.7932940" lon="0.1672870">
        <ele>840.9</ele>
      </trkpt>
      <trkpt lat="40.7933440" lon="0.1672690">
        <ele>841.2</ele>
      </trkpt>
      <trkpt lat="40.7933720" lon="0.1672600">
        <ele>841.3</ele>
      </trkpt>
      <trkpt lat="40.7934010" lon="0.1672520">
        <ele>841.5</ele>
      </trkpt>
      <trkpt lat="40.7934480" lon="0.1672420">
        <ele>841.7</ele>
      </trkpt>
      <trkpt lat="40.7934940" lon="0.1672320">
        <ele>842.0</ele>
      </trkpt>
      <trkpt lat="40.7935260" lon="0.1672280">
        <ele>842.2</ele>
      </trkpt>
      <trkpt lat="40.7935540" lon="0.1672260">
        <ele>842.3</ele>
      </trkpt>
      <trkpt lat="40.7935830" lon="0.1672290">
        <ele>842.5</ele>
      </trkpt>
      <trkpt lat="40.7936130" lon="0.1672260">
        <ele>842.7</ele>
      </trkpt>
      <trkpt lat="40.7936430" lon="0.1672160">
        <ele>842.8</ele>
      </trkpt>
      <trkpt lat="40.7936700" lon="0.1671950">
        <ele>843.0</ele>
      </trkpt>
      <trkpt lat="40.7936810" lon="0.1671560">
        <ele>843.3</ele>
      </trkpt>
      <trkpt lat="40.7937130" lon="0.1671110">
        <ele>843.6</ele>
      </trkpt>
      <trkpt lat="40.7937480" lon="0.1670620">
        <ele>844.0</ele>
      </trkpt>
      <trkpt lat="40.7937730" lon="0.1670070">
        <ele>844.2</ele>
      </trkpt>
      <trkpt lat="40.7937960" lon="0.1669840">
        <ele>844.4</ele>
      </trkpt>
      <trkpt lat="40.7938310" lon="0.1669630">
        <ele>844.6</ele>
      </trkpt>
      <trkpt lat="40.7938660" lon="0.1669470">
        <ele>844.8</ele>
      </trkpt>
      <trkpt lat="40.7939110" lon="0.1669380">
        <ele>845.0</ele>
      </trkpt>
      <trkpt lat="40.7939510" lon="0.1669320">
        <ele>845.2</ele>
      </trkpt>
      <trkpt lat="40.7939880" lon="0.1669270">
        <ele>845.4</ele>
      </trkpt>
      <trkpt lat="40.7940220" lon="0.1669250">
        <ele>845.5</ele>
      </trkpt>
      <trkpt lat="40.7940520" lon="0.1669260">
        <ele>845.7</ele>
      </trkpt>
      <trkpt lat="40.7940860" lon="0.1669280">
        <ele>845.8</ele>
      </trkpt>
      <trkpt lat="40.7941140" lon="0.1669330">
        <ele>846.0</ele>
      </trkpt>
      <trkpt lat="40.7941610" lon="0.1669440">
        <ele>846.2</ele>
      </trkpt>
      <trkpt lat="40.7941880" lon="0.1669490">
        <ele>846.4</ele>
      </trkpt>
      <trkpt lat="40.7942200" lon="0.1669580">
        <ele>846.6</ele>
      </trkpt>
      <trkpt lat="40.7942490" lon="0.1669690">
        <ele>846.8</ele>
      </trkpt>
      <trkpt lat="40.7942770" lon="0.1669840">
        <ele>847.0</ele>
      </trkpt>
      <trkpt lat="40.7943060" lon="0.1669940">
        <ele>847.2</ele>
      </trkpt>
      <trkpt lat="40.7943360" lon="0.1669970">
        <ele>847.4</ele>
      </trkpt>
      <trkpt lat="40.7943890" lon="0.1669920">
        <ele>847.7</ele>
      </trkpt>
      <trkpt lat="40.7944160" lon="0.1669900">
        <ele>847.8</ele>
      </trkpt>
      <trkpt lat="40.7944440" lon="0.1669910">
        <ele>848.0</ele>
      </trkpt>
      <trkpt lat="40.7944930" lon="0.1669900">
        <ele>848.3</ele>
      </trkpt>
      <trkpt lat="40.7945320" lon="0.1669660">
        <ele>848.5</ele>
      </trkpt>
      <trkpt lat="40.7945690" lon="0.1669450">
        <ele>848.7</ele>
      </trkpt>
      <trkpt lat="40.7946160" lon="0.1669290">
        <ele>849.0</ele>
      </trkpt>
      <trkpt lat="40.7946500" lon="0.1669010">
        <ele>849.3</ele>
      </trkpt>
      <trkpt lat="40.7946740" lon="0.1668620">
        <ele>849.6</ele>
      </trkpt>
      <trkpt lat="40.7946930" lon="0.1668270">
        <ele>849.9</ele>
      </trkpt>
      <trkpt lat="40.7947150" lon="0.1667910">
        <ele>850.2</ele>
      </trkpt>
      <trkpt lat="40.7947520" lon="0.1667540">
        <ele>850.5</ele>
      </trkpt>
      <trkpt lat="40.7947860" lon="0.1667110">
        <ele>850.8</ele>
      </trkpt>
      <trkpt lat="40.7948070" lon="0.1666870">
        <ele>851.0</ele>
      </trkpt>
      <trkpt lat="40.7948260" lon="0.1666460">
        <ele>851.2</ele>
      </trkpt>
      <trkpt lat="40.7948160" lon="0.1665830">
        <ele>851.5</ele>
      </trkpt>
      <trkpt lat="40.7948050" lon="0.1665300">
        <ele>851.8</ele>
      </trkpt>
      <trkpt lat="40.7948310" lon="0.1664940">
        <ele>852.0</ele>
      </trkpt>
      <trkpt lat="40.7948610" lon="0.1664790">
        <ele>852.3</ele>
      </trkpt>
      <trkpt lat="40.7948940" lon="0.1664660">
        <ele>852.6</ele>
      </trkpt>
      <trkpt lat="40.7949350" lon="0.1664550">
        <ele>852.9</ele>
      </trkpt>
      <trkpt lat="40.7949690" lon="0.1664470">
        <ele>853.1</ele>
      </trkpt>
      <trkpt lat="40.7950260" lon="0.1664440">
        <ele>853.3</ele>
      </trkpt>
      <trkpt lat="40.7950650" lon="0.1664460">
        <ele>853.4</ele>
      </trkpt>
      <trkpt lat="40.7951010" lon="0.1664530">
        <ele>853.6</ele>
      </trkpt>
      <trkpt lat="40.7951370" lon="0.1664660">
        <ele>853.7</ele>
      </trkpt>
      <trkpt lat="40.7951730" lon="0.1664840">
        <ele>853.8</ele>
      </trkpt>
      <trkpt lat="40.7952080" lon="0.1665090">
        <ele>853.9</ele>
      </trkpt>
      <trkpt lat="40.7952470" lon="0.1665470">
        <ele>853.8</ele>
      </trkpt>
      <trkpt lat="40.7952820" lon="0.1665900">
        <ele>853.7</ele>
      </trkpt>
      <trkpt lat="40.7953130" lon="0.1666360">
        <ele>853.6</ele>
      </trkpt>
      <trkpt lat="40.7953430" lon="0.1666830">
        <ele>853.5</ele>
      </trkpt>
      <trkpt lat="40.7953710" lon="0.1667250">
        <ele>853.4</ele>
      </trkpt>
      <trkpt lat="40.7953940" lon="0.1667620">
        <ele>853.4</ele>
      </trkpt>
      <trkpt lat="40.7954160" lon="0.1667930">
        <ele>853.3</ele>
      </trkpt>
      <trkpt lat="40.7954370" lon="0.1668160">
        <ele>853.2</ele>
      </trkpt>
      <trkpt lat="40.7954590" lon="0.1668390">
        <ele>853.2</ele>
      </trkpt>
      <trkpt lat="40.7954990" lon="0.1668760">
        <ele>853.1</ele>
      </trkpt>
      <trkpt lat="40.7955360" lon="0.1669110">
        <ele>853.0</ele>
      </trkpt>
      <trkpt lat="40.7955550" lon="0.1669370">
        <ele>852.9</ele>
      </trkpt>
      <trkpt lat="40.7955750" lon="0.1669630">
        <ele>852.9</ele>
      </trkpt>
      <trkpt lat="40.7956000" lon="0.1669900">
        <ele>852.8</ele>
      </trkpt>
      <trkpt lat="40.7956290" lon="0.1670170">
        <ele>852.7</ele>
      </trkpt>
      <trkpt lat="40.7956570" lon="0.1670380">
        <ele>852.6</ele>
      </trkpt>
      <trkpt lat="40.7956850" lon="0.1670570">
        <ele>852.5</ele>
      </trkpt>
      <trkpt lat="40.7957130" lon="0.1670740">
        <ele>852.4</ele>
      </trkpt>
      <trkpt lat="40.7957410" lon="0.1670890">
        <ele>852.3</ele>
      </trkpt>
      <trkpt lat="40.7957750" lon="0.1671030">
        <ele>852.2</ele>
      </trkpt>
      <trkpt lat="40.7958130" lon="0.1671200">
        <ele>852.0</ele>
      </trkpt>
      <trkpt lat="40.7958530" lon="0.1671340">
        <ele>851.9</ele>
      </trkpt>
      <trkpt lat="40.7958920" lon="0.1671490">
        <ele>851.7</ele>
      </trkpt>
      <trkpt lat="40.7959330" lon="0.1671630">
        <ele>851.5</ele>
      </trkpt>
      <trkpt lat="40.7959810" lon="0.1671730">
        <ele>851.3</ele>
      </trkpt>
      <trkpt lat="40.7960260" lon="0.1671740">
        <ele>851.1</ele>
      </trkpt>
      <trkpt lat="40.7960690" lon="0.1671670">
        <ele>850.9</ele>
      </trkpt>
      <trkpt lat="40.7961080" lon="0.1671600">
        <ele>850.7</ele>
      </trkpt>
      <trkpt lat="40.7961480" lon="0.1671570">
        <ele>850.5</ele>
      </trkpt>
      <trkpt lat="40.7961840" lon="0.1671580">
        <ele>850.4</ele>
      </trkpt>
      <trkpt lat="40.7962180" lon="0.1671600">
        <ele>850.2</ele>
      </trkpt>
      <trkpt lat="40.7962460" lon="0.1671620">
        <ele>850.0</ele>
      </trkpt>
      <trkpt lat="40.7962910" lon="0.1671600">
        <ele>849.8</ele>
      </trkpt>
      <trkpt lat="40.7963340" lon="0.1671530">
        <ele>849.6</ele>
      </trkpt>
      <trkpt lat="40.7963680" lon="0.1671490">
        <ele>849.4</ele>
      </trkpt>
      <trkpt lat="40.7963870" lon="0.1671930">
        <ele>849.3</ele>
      </trkpt>
      <trkpt lat="40.7963700" lon="0.1672340">
        <ele>849.0</ele>
      </trkpt>
      <trkpt lat="40.7963410" lon="0.1672600">
        <ele>849.9</ele>
      </trkpt>
      <trkpt lat="40.7963170" lon="0.1672770">
        <ele>850.4</ele>
      </trkpt>
      <trkpt lat="40.7962910" lon="0.1672960">
        <ele>850.9</ele>
      </trkpt>
      <trkpt lat="40.7962620" lon="0.1673340">
        <ele>851.6</ele>
      </trkpt>
      <trkpt lat="40.7962480" lon="0.1673720">
        <ele>852.2</ele>
      </trkpt>
      <trkpt lat="40.7962310" lon="0.1674180">
        <ele>852.9</ele>
      </trkpt>
      <trkpt lat="40.7962060" lon="0.1674670">
        <ele>853.6</ele>
      </trkpt>
      <trkpt lat="40.7961810" lon="0.1675150">
        <ele>854.2</ele>
      </trkpt>
      <trkpt lat="40.7961660" lon="0.1675440">
        <ele>854.4</ele>
      </trkpt>
      <trkpt lat="40.7961550" lon="0.1676080">
        <ele>855.1</ele>
      </trkpt>
      <trkpt lat="40.7961580" lon="0.1676550">
        <ele>856.0</ele>
      </trkpt>
      <trkpt lat="40.7961600" lon="0.1676960">
        <ele>856.7</ele>
      </trkpt>
      <trkpt lat="40.7961580" lon="0.1677410">
        <ele>857.4</ele>
      </trkpt>
      <trkpt lat="40.7961520" lon="0.1677880">
        <ele>858.3</ele>
      </trkpt>
      <trkpt lat="40.7961490" lon="0.1678280">
        <ele>859.1</ele>
      </trkpt>
      <trkpt lat="40.7961650" lon="0.1678630">
        <ele>859.7</ele>
      </trkpt>
      <trkpt lat="40.7962070" lon="0.1678830">
        <ele>860.5</ele>
      </trkpt>
      <trkpt lat="40.7962410" lon="0.1679090">
        <ele>860.9</ele>
      </trkpt>
      <trkpt lat="40.7962760" lon="0.1679280">
        <ele>860.8</ele>
      </trkpt>
      <trkpt lat="40.7963170" lon="0.1679310">
        <ele>861.1</ele>
      </trkpt>
      <trkpt lat="40.7963600" lon="0.1679500">
        <ele>861.6</ele>
      </trkpt>
      <trkpt lat="40.7963920" lon="0.1679750">
        <ele>861.1</ele>
      </trkpt>
      <trkpt lat="40.7964200" lon="0.1679990">
        <ele>860.7</ele>
      </trkpt>
      <trkpt lat="40.7964460" lon="0.1680200">
        <ele>860.3</ele>
      </trkpt>
      <trkpt lat="40.7964820" lon="0.1680330">
        <ele>860.0</ele>
      </trkpt>
      <trkpt lat="40.7965110" lon="0.1680400">
        <ele>859.9</ele>
      </trkpt>
      <trkpt lat="40.7965470" lon="0.1680540">
        <ele>859.9</ele>
      </trkpt>
      <trkpt lat="40.7965760" lon="0.1680760">
        <ele>860.0</ele>
      </trkpt>
      <trkpt lat="40.7966100" lon="0.1681010">
        <ele>859.9</ele>
      </trkpt>
      <trkpt lat="40.7966310" lon="0.1681240">
        <ele>859.7</ele>
      </trkpt>
      <trkpt lat="40.7966540" lon="0.1681600">
        <ele>859.6</ele>
      </trkpt>
      <trkpt lat="40.7966830" lon="0.1681900">
        <ele>859.4</ele>
      </trkpt>
      <trkpt lat="40.7967080" lon="0.1682130">
        <ele>859.5</ele>
      </trkpt>
      <trkpt lat="40.7967320" lon="0.1682560">
        <ele>859.7</ele>
      </trkpt>
      <trkpt lat="40.7967440" lon="0.1682880">
        <ele>859.6</ele>
      </trkpt>
      <trkpt lat="40.7967660" lon="0.1683340">
        <ele>859.3</ele>
      </trkpt>
      <trkpt lat="40.7967860" lon="0.1683700">
        <ele>859.6</ele>
      </trkpt>
      <trkpt lat="40.7967990" lon="0.1684250">
        <ele>860.2</ele>
      </trkpt>
      <trkpt lat="40.7968160" lon="0.1684790">
        <ele>861.0</ele>
      </trkpt>
      <trkpt lat="40.7968520" lon="0.1685160">
        <ele>861.2</ele>
      </trkpt>
      <trkpt lat="40.7968810" lon="0.1685460">
        <ele>861.1</ele>
      </trkpt>
      <trkpt lat="40.7969090" lon="0.1685650">
        <ele>861.4</ele>
      </trkpt>
      <trkpt lat="40.7969440" lon="0.1685750">
        <ele>862.0</ele>
      </trkpt>
      <trkpt lat="40.7969870" lon="0.1685820">
        <ele>862.7</ele>
      </trkpt>
      <trkpt lat="40.7970170" lon="0.1685820">
        <ele>863.2</ele>
      </trkpt>
      <trkpt lat="40.7970470" lon="0.1685880">
        <ele>862.7</ele>
      </trkpt>
      <trkpt lat="40.7970830" lon="0.1686040">
        <ele>861.9</ele>
      </trkpt>
      <trkpt lat="40.7971220" lon="0.1686210">
        <ele>861.5</ele>
      </trkpt>
      <trkpt lat="40.7971540" lon="0.1686280">
        <ele>861.1</ele>
      </trkpt>
      <trkpt lat="40.7971870" lon="0.1686160">
        <ele>860.5</ele>
      </trkpt>
      <trkpt lat="40.7972130" lon="0.1686010">
        <ele>859.9</ele>
      </trkpt>
      <trkpt lat="40.7972560" lon="0.1685880">
        <ele>858.8</ele>
      </trkpt>
      <trkpt lat="40.7972890" lon="0.1685950">
        <ele>858.0</ele>
      </trkpt>
      <trkpt lat="40.7973250" lon="0.1685900">
        <ele>856.8</ele>
      </trkpt>
      <trkpt lat="40.7973920" lon="0.1685940">
        <ele>854.8</ele>
      </trkpt>
      <trkpt lat="40.7974460" lon="0.1686070">
        <ele>853.4</ele>
      </trkpt>
      <trkpt lat="40.7974980" lon="0.1686290">
        <ele>852.1</ele>
      </trkpt>
      <trkpt lat="40.7975380" lon="0.1686510">
        <ele>851.4</ele>
      </trkpt>
      <trkpt lat="40.7975690" lon="0.1686750">
        <ele>851.1</ele>
      </trkpt>
      <trkpt lat="40.7975990" lon="0.1687020">
        <ele>850.7</ele>
      </trkpt>
      <trkpt lat="40.7976210" lon="0.1687300">
        <ele>850.2</ele>
      </trkpt>
      <trkpt lat="40.7976410" lon="0.1687550">
        <ele>850.0</ele>
      </trkpt>
      <trkpt lat="40.7976630" lon="0.1687770">
        <ele>850.0</ele>
      </trkpt>
      <trkpt lat="40.7976900" lon="0.1687980">
        <ele>850.1</ele>
      </trkpt>
      <trkpt lat="40.7977200" lon="0.1688250">
        <ele>850.2</ele>
      </trkpt>
      <trkpt lat="40.7977520" lon="0.1688620">
        <ele>850.4</ele>
      </trkpt>
      <trkpt lat="40.7977770" lon="0.1689010">
        <ele>851.2</ele>
      </trkpt>
      <trkpt lat="40.7977930" lon="0.1689410">
        <ele>851.8</ele>
      </trkpt>
      <trkpt lat="40.7978090" lon="0.1689820">
        <ele>852.5</ele>
      </trkpt>
      <trkpt lat="40.7978290" lon="0.1690240">
        <ele>853.3</ele>
      </trkpt>
      <trkpt lat="40.7978480" lon="0.1690610">
        <ele>854.0</ele>
      </trkpt>
      <trkpt lat="40.7978630" lon="0.1691050">
        <ele>854.8</ele>
      </trkpt>
      <trkpt lat="40.7978780" lon="0.1691530">
        <ele>855.5</ele>
      </trkpt>
      <trkpt lat="40.7978890" lon="0.1691940">
        <ele>856.1</ele>
      </trkpt>
      <trkpt lat="40.7979020" lon="0.1692620">
        <ele>857.5</ele>
      </trkpt>
      <trkpt lat="40.7979060" lon="0.1693020">
        <ele>858.4</ele>
      </trkpt>
      <trkpt lat="40.7979140" lon="0.1693550">
        <ele>859.2</ele>
      </trkpt>
      <trkpt lat="40.7979150" lon="0.1694140">
        <ele>860.1</ele>
      </trkpt>
      <trkpt lat="40.7979140" lon="0.1694660">
        <ele>861.1</ele>
      </trkpt>
      <trkpt lat="40.7979080" lon="0.1695140">
        <ele>862.1</ele>
      </trkpt>
      <trkpt lat="40.7979050" lon="0.1695590">
        <ele>863.0</ele>
      </trkpt>
      <trkpt lat="40.7979050" lon="0.1696090">
        <ele>863.9</ele>
      </trkpt>
      <trkpt lat="40.7979090" lon="0.1696520">
        <ele>864.4</ele>
      </trkpt>
      <trkpt lat="40.7979140" lon="0.1696880">
        <ele>864.6</ele>
      </trkpt>
      <trkpt lat="40.7979410" lon="0.1697230">
        <ele>864.7</ele>
      </trkpt>
      <trkpt lat="40.7979760" lon="0.1697140">
        <ele>865.1</ele>
      </trkpt>
      <trkpt lat="40.7980120" lon="0.1696880">
        <ele>865.6</ele>
      </trkpt>
      <trkpt lat="40.7980500" lon="0.1696710">
        <ele>865.4</ele>
      </trkpt>
      <trkpt lat="40.7980950" lon="0.1696630">
        <ele>864.5</ele>
      </trkpt>
      <trkpt lat="40.7981370" lon="0.1696530">
        <ele>863.9</ele>
      </trkpt>
      <trkpt lat="40.7981800" lon="0.1696310">
        <ele>863.3</ele>
      </trkpt>
      <trkpt lat="40.7982310" lon="0.1696280">
        <ele>862.8</ele>
      </trkpt>
      <trkpt lat="40.7982580" lon="0.1696330">
        <ele>862.6</ele>
      </trkpt>
      <trkpt lat="40.7982850" lon="0.1696420">
        <ele>862.4</ele>
      </trkpt>
      <trkpt lat="40.7983110" lon="0.1696540">
        <ele>862.2</ele>
      </trkpt>
      <trkpt lat="40.7983400" lon="0.1696690">
        <ele>862.0</ele>
      </trkpt>
      <trkpt lat="40.7983670" lon="0.1696860">
        <ele>862.0</ele>
      </trkpt>
      <trkpt lat="40.7984020" lon="0.1697190">
        <ele>862.1</ele>
      </trkpt>
      <trkpt lat="40.7984190" lon="0.1697620">
        <ele>862.2</ele>
      </trkpt>
      <trkpt lat="40.7984410" lon="0.1698120">
        <ele>862.2</ele>
      </trkpt>
      <trkpt lat="40.7984610" lon="0.1698410">
        <ele>862.0</ele>
      </trkpt>
      <trkpt lat="40.7984820" lon="0.1698840">
        <ele>862.0</ele>
      </trkpt>
      <trkpt lat="40.7984560" lon="0.1699220">
        <ele>862.0</ele>
      </trkpt>
      <trkpt lat="40.7984600" lon="0.1698790">
        <ele>862.0</ele>
      </trkpt>
      <trkpt lat="40.7984480" lon="0.1699250">
        <ele>862.3</ele>
      </trkpt>
      <trkpt lat="40.7984280" lon="0.1699690">
        <ele>862.5</ele>
      </trkpt>
      <trkpt lat="40.7984140" lon="0.1700040">
        <ele>862.6</ele>
      </trkpt>
      <trkpt lat="40.7984170" lon="0.1700470">
        <ele>862.7</ele>
      </trkpt>
      <trkpt lat="40.7984230" lon="0.1700860">
        <ele>862.6</ele>
      </trkpt>
      <trkpt lat="40.7984260" lon="0.1701260">
        <ele>862.5</ele>
      </trkpt>
      <trkpt lat="40.7984310" lon="0.1701650">
        <ele>862.3</ele>
      </trkpt>
      <trkpt lat="40.7984270" lon="0.1702080">
        <ele>862.1</ele>
      </trkpt>
      <trkpt lat="40.7984170" lon="0.1702520">
        <ele>861.9</ele>
      </trkpt>
      <trkpt lat="40.7984120" lon="0.1702950">
        <ele>861.6</ele>
      </trkpt>
      <trkpt lat="40.7984120" lon="0.1703340">
        <ele>861.4</ele>
      </trkpt>
      <trkpt lat="40.7984180" lon="0.1703840">
        <ele>861.0</ele>
      </trkpt>
      <trkpt lat="40.7984160" lon="0.1704440">
        <ele>860.6</ele>
      </trkpt>
      <trkpt lat="40.7984150" lon="0.1704840">
        <ele>860.4</ele>
      </trkpt>
      <trkpt lat="40.7984100" lon="0.1705190">
        <ele>860.4</ele>
      </trkpt>
      <trkpt lat="40.7984010" lon="0.1705610">
        <ele>860.5</ele>
      </trkpt>
      <trkpt lat="40.7983880" lon="0.1706080">
        <ele>860.8</ele>
      </trkpt>
      <trkpt lat="40.7983640" lon="0.1706380">
        <ele>861.2</ele>
      </trkpt>
      <trkpt lat="40.7983240" lon="0.1706440">
        <ele>861.9</ele>
      </trkpt>
      <trkpt lat="40.7982920" lon="0.1706350">
        <ele>862.4</ele>
      </trkpt>
      <trkpt lat="40.7982580" lon="0.1706400">
        <ele>863.0</ele>
      </trkpt>
      <trkpt lat="40.7982240" lon="0.1706300">
        <ele>863.6</ele>
      </trkpt>
      <trkpt lat="40.7981900" lon="0.1706070">
        <ele>864.2</ele>
      </trkpt>
      <trkpt lat="40.7981620" lon="0.1706060">
        <ele>864.7</ele>
      </trkpt>
      <trkpt lat="40.7981250" lon="0.1706090">
        <ele>865.4</ele>
      </trkpt>
      <trkpt lat="40.7980850" lon="0.1706170">
        <ele>866.5</ele>
      </trkpt>
      <trkpt lat="40.7980460" lon="0.1706160">
        <ele>867.6</ele>
      </trkpt>
      <trkpt lat="40.7980190" lon="0.1706090">
        <ele>868.3</ele>
      </trkpt>
      <trkpt lat="40.7979790" lon="0.1706020">
        <ele>869.4</ele>
      </trkpt>
      <trkpt lat="40.7979420" lon="0.1706150">
        <ele>870.4</ele>
      </trkpt>
      <trkpt lat="40.7979080" lon="0.1706240">
        <ele>871.2</ele>
      </trkpt>
      <trkpt lat="40.7978790" lon="0.1706380">
        <ele>872.0</ele>
      </trkpt>
      <trkpt lat="40.7978430" lon="0.1706380">
        <ele>873.2</ele>
      </trkpt>
      <trkpt lat="40.7978110" lon="0.1706310">
        <ele>874.4</ele>
      </trkpt>
      <trkpt lat="40.7977770" lon="0.1706200">
        <ele>875.4</ele>
      </trkpt>
      <trkpt lat="40.7977430" lon="0.1705980">
        <ele>876.4</ele>
      </trkpt>
      <trkpt lat="40.7977070" lon="0.1706070">
        <ele>877.4</ele>
      </trkpt>
      <trkpt lat="40.7976820" lon="0.1706230">
        <ele>878.1</ele>
      </trkpt>
      <trkpt lat="40.7976590" lon="0.1706490">
        <ele>878.9</ele>
      </trkpt>
      <trkpt lat="40.7976280" lon="0.1706800">
        <ele>879.9</ele>
      </trkpt>
      <trkpt lat="40.7976020" lon="0.1707000">
        <ele>880.7</ele>
      </trkpt>
      <trkpt lat="40.7975750" lon="0.1707210">
        <ele>881.6</ele>
      </trkpt>
      <trkpt lat="40.7975420" lon="0.1707420">
        <ele>882.6</ele>
      </trkpt>
      <trkpt lat="40.7975120" lon="0.1707640">
        <ele>883.5</ele>
      </trkpt>
      <trkpt lat="40.7974810" lon="0.1707900">
        <ele>884.5</ele>
      </trkpt>
      <trkpt lat="40.7974480" lon="0.1708080">
        <ele>885.5</ele>
      </trkpt>
      <trkpt lat="40.7974230" lon="0.1708400">
        <ele>886.6</ele>
      </trkpt>
      <trkpt lat="40.7974010" lon="0.1708610">
        <ele>887.2</ele>
      </trkpt>
      <trkpt lat="40.7973770" lon="0.1708830">
        <ele>887.7</ele>
      </trkpt>
      <trkpt lat="40.7973530" lon="0.1709150">
        <ele>888.2</ele>
      </trkpt>
      <trkpt lat="40.7973280" lon="0.1709590">
        <ele>888.6</ele>
      </trkpt>
      <trkpt lat="40.7973080" lon="0.1710060">
        <ele>888.9</ele>
      </trkpt>
      <trkpt lat="40.7972880" lon="0.1710450">
        <ele>888.7</ele>
      </trkpt>
      <trkpt lat="40.7972680" lon="0.1710960">
        <ele>888.4</ele>
      </trkpt>
      <trkpt lat="40.7972560" lon="0.1711390">
        <ele>888.2</ele>
      </trkpt>
      <trkpt lat="40.7972680" lon="0.1711710">
        <ele>888.0</ele>
      </trkpt>
      <trkpt lat="40.7972930" lon="0.1712080">
        <ele>887.8</ele>
      </trkpt>
      <trkpt lat="40.7973080" lon="0.1712610">
        <ele>887.5</ele>
      </trkpt>
      <trkpt lat="40.7973230" lon="0.1713260">
        <ele>886.5</ele>
      </trkpt>
      <trkpt lat="40.7973340" lon="0.1713890">
        <ele>885.1</ele>
      </trkpt>
      <trkpt lat="40.7973410" lon="0.1714530">
        <ele>884.6</ele>
      </trkpt>
      <trkpt lat="40.7973400" lon="0.1714900">
        <ele>884.4</ele>
      </trkpt>
      <trkpt lat="40.7973370" lon="0.1715270">
        <ele>884.2</ele>
      </trkpt>
      <trkpt lat="40.7973320" lon="0.1715640">
        <ele>883.9</ele>
      </trkpt>
      <trkpt lat="40.7973260" lon="0.1716020">
        <ele>883.6</ele>
      </trkpt>
      <trkpt lat="40.7973150" lon="0.1716480">
        <ele>883.3</ele>
      </trkpt>
      <trkpt lat="40.7973030" lon="0.1716880">
        <ele>883.5</ele>
      </trkpt>
      <trkpt lat="40.7972910" lon="0.1717220">
        <ele>883.9</ele>
      </trkpt>
      <trkpt lat="40.7972740" lon="0.1717810">
        <ele>885.4</ele>
      </trkpt>
      <trkpt lat="40.7972510" lon="0.1718470">
        <ele>887.7</ele>
      </trkpt>
      <trkpt lat="40.7972340" lon="0.1718810">
        <ele>888.8</ele>
      </trkpt>
      <trkpt lat="40.7972150" lon="0.1719090">
        <ele>889.8</ele>
      </trkpt>
      <trkpt lat="40.7971940" lon="0.1719340">
        <ele>890.4</ele>
      </trkpt>
      <trkpt lat="40.7971680" lon="0.1719530">
        <ele>890.9</ele>
      </trkpt>
      <trkpt lat="40.7971500" lon="0.1719800">
        <ele>891.4</ele>
      </trkpt>
      <trkpt lat="40.7971370" lon="0.1720430">
        <ele>892.3</ele>
      </trkpt>
      <trkpt lat="40.7971470" lon="0.1721020">
        <ele>893.9</ele>
      </trkpt>
      <trkpt lat="40.7971520" lon="0.1721520">
        <ele>895.5</ele>
      </trkpt>
      <trkpt lat="40.7971460" lon="0.1721910">
        <ele>896.3</ele>
      </trkpt>
      <trkpt lat="40.7971270" lon="0.1722250">
        <ele>897.1</ele>
      </trkpt>
      <trkpt lat="40.7971060" lon="0.1722520">
        <ele>898.0</ele>
      </trkpt>
      <trkpt lat="40.7970960" lon="0.1722880">
        <ele>899.5</ele>
      </trkpt>
      <trkpt lat="40.7970800" lon="0.1723280">
        <ele>901.3</ele>
      </trkpt>
      <trkpt lat="40.7970570" lon="0.1723620">
        <ele>901.3</ele>
      </trkpt>
      <trkpt lat="40.7970350" lon="0.1723970">
        <ele>901.0</ele>
      </trkpt>
      <trkpt lat="40.7970170" lon="0.1724310">
        <ele>900.7</ele>
      </trkpt>
      <trkpt lat="40.7969930" lon="0.1724670">
        <ele>900.4</ele>
      </trkpt>
      <trkpt lat="40.7969880" lon="0.1725030">
        <ele>900.2</ele>
      </trkpt>
      <trkpt lat="40.7969830" lon="0.1725490">
        <ele>899.9</ele>
      </trkpt>
      <trkpt lat="40.7969740" lon="0.1726020">
        <ele>900.0</ele>
      </trkpt>
      <trkpt lat="40.7969710" lon="0.1726560">
        <ele>901.9</ele>
      </trkpt>
      <trkpt lat="40.7969670" lon="0.1726930">
        <ele>903.1</ele>
      </trkpt>
      <trkpt lat="40.7969590" lon="0.1727310">
        <ele>904.2</ele>
      </trkpt>
      <trkpt lat="40.7969440" lon="0.1727650">
        <ele>905.3</ele>
      </trkpt>
      <trkpt lat="40.7969190" lon="0.1727960">
        <ele>906.4</ele>
      </trkpt>
      <trkpt lat="40.7968980" lon="0.1728240">
        <ele>906.7</ele>
      </trkpt>
      <trkpt lat="40.7968800" lon="0.1728700">
        <ele>907.0</ele>
      </trkpt>
      <trkpt lat="40.7968650" lon="0.1729160">
        <ele>907.3</ele>
      </trkpt>
      <trkpt lat="40.7968550" lon="0.1729500">
        <ele>907.5</ele>
      </trkpt>
      <trkpt lat="40.7968430" lon="0.1729910">
        <ele>907.7</ele>
      </trkpt>
      <trkpt lat="40.7968280" lon="0.1730280">
        <ele>907.9</ele>
      </trkpt>
      <trkpt lat="40.7968120" lon="0.1730680">
        <ele>908.6</ele>
      </trkpt>
      <trkpt lat="40.7967940" lon="0.1731020">
        <ele>909.4</ele>
      </trkpt>
      <trkpt lat="40.7967610" lon="0.1731320">
        <ele>910.5</ele>
      </trkpt>
      <trkpt lat="40.7967320" lon="0.1731500">
        <ele>912.4</ele>
      </trkpt>
      <trkpt lat="40.7967040" lon="0.1731620">
        <ele>914.2</ele>
      </trkpt>
      <trkpt lat="40.7966710" lon="0.1731800">
        <ele>916.0</ele>
      </trkpt>
      <trkpt lat="40.7966450" lon="0.1732000">
        <ele>916.8</ele>
      </trkpt>
      <trkpt lat="40.7966090" lon="0.1732100">
        <ele>917.8</ele>
      </trkpt>
      <trkpt lat="40.7965780" lon="0.1732300">
        <ele>918.5</ele>
      </trkpt>
      <trkpt lat="40.7965570" lon="0.1732540">
        <ele>919.1</ele>
      </trkpt>
      <trkpt lat="40.7965320" lon="0.1732740">
        <ele>919.7</ele>
      </trkpt>
      <trkpt lat="40.7965090" lon="0.1732960">
        <ele>919.8</ele>
      </trkpt>
      <trkpt lat="40.7964850" lon="0.1733230">
        <ele>919.8</ele>
      </trkpt>
      <trkpt lat="40.7964670" lon="0.1733520">
        <ele>919.8</ele>
      </trkpt>
      <trkpt lat="40.7964510" lon="0.1733810">
        <ele>920.1</ele>
      </trkpt>
      <trkpt lat="40.7964430" lon="0.1734180">
        <ele>920.6</ele>
      </trkpt>
      <trkpt lat="40.7964200" lon="0.1734450">
        <ele>921.1</ele>
      </trkpt>
      <trkpt lat="40.7963940" lon="0.1734660">
        <ele>920.6</ele>
      </trkpt>
      <trkpt lat="40.7964040" lon="0.1735120">
        <ele>919.8</ele>
      </trkpt>
      <trkpt lat="40.7963970" lon="0.1735470">
        <ele>919.4</ele>
      </trkpt>
      <trkpt lat="40.7963730" lon="0.1735700">
        <ele>919.2</ele>
      </trkpt>
      <trkpt lat="40.7963500" lon="0.1735940">
        <ele>919.0</ele>
      </trkpt>
      <trkpt lat="40.7963340" lon="0.1736280">
        <ele>918.3</ele>
      </trkpt>
      <trkpt lat="40.7963440" lon="0.1736770">
        <ele>917.2</ele>
      </trkpt>
      <trkpt lat="40.7963500" lon="0.1737260">
        <ele>916.8</ele>
      </trkpt>
      <trkpt lat="40.7963390" lon="0.1737700">
        <ele>916.5</ele>
      </trkpt>
      <trkpt lat="40.7963250" lon="0.1738220">
        <ele>916.3</ele>
      </trkpt>
      <trkpt lat="40.7963210" lon="0.1738600">
        <ele>916.1</ele>
      </trkpt>
      <trkpt lat="40.7963150" lon="0.1738950">
        <ele>916.1</ele>
      </trkpt>
      <trkpt lat="40.7962990" lon="0.1739270">
        <ele>916.1</ele>
      </trkpt>
      <trkpt lat="40.7962870" lon="0.1739620">
        <ele>916.2</ele>
      </trkpt>
      <trkpt lat="40.7962750" lon="0.1739980">
        <ele>916.4</ele>
      </trkpt>
      <trkpt lat="40.7962600" lon="0.1740310">
        <ele>916.6</ele>
      </trkpt>
      <trkpt lat="40.7962430" lon="0.1740620">
        <ele>917.6</ele>
      </trkpt>
      <trkpt lat="40.7962230" lon="0.1740930">
        <ele>918.8</ele>
      </trkpt>
      <trkpt lat="40.7962040" lon="0.1741240">
        <ele>919.8</ele>
      </trkpt>
      <trkpt lat="40.7961770" lon="0.1741650">
        <ele>920.9</ele>
      </trkpt>
      <trkpt lat="40.7961580" lon="0.1742040">
        <ele>921.8</ele>
      </trkpt>
      <trkpt lat="40.7961290" lon="0.1742280">
        <ele>923.3</ele>
      </trkpt>
      <trkpt lat="40.7961010" lon="0.1742390">
        <ele>924.6</ele>
      </trkpt>
      <trkpt lat="40.7960720" lon="0.1742720">
        <ele>925.4</ele>
      </trkpt>
      <trkpt lat="40.7960300" lon="0.1743260">
        <ele>926.8</ele>
      </trkpt>
      <trkpt lat="40.7959990" lon="0.1743580">
        <ele>928.7</ele>
      </trkpt>
      <trkpt lat="40.7959650" lon="0.1743980">
        <ele>930.5</ele>
      </trkpt>
      <trkpt lat="40.7959300" lon="0.1744440">
        <ele>932.3</ele>
      </trkpt>
      <trkpt lat="40.7958930" lon="0.1744930">
        <ele>933.1</ele>
      </trkpt>
      <trkpt lat="40.7958610" lon="0.1745330">
        <ele>934.7</ele>
      </trkpt>
      <trkpt lat="40.7958320" lon="0.1745690">
        <ele>936.7</ele>
      </trkpt>
      <trkpt lat="40.7958150" lon="0.1745970">
        <ele>938.0</ele>
      </trkpt>
      <trkpt lat="40.7957940" lon="0.1746320">
        <ele>939.6</ele>
      </trkpt>
      <trkpt lat="40.7957700" lon="0.1746580">
        <ele>941.0</ele>
      </trkpt>
      <trkpt lat="40.7957370" lon="0.1746760">
        <ele>942.6</ele>
      </trkpt>
      <trkpt lat="40.7957060" lon="0.1746910">
        <ele>944.2</ele>
      </trkpt>
      <trkpt lat="40.7956750" lon="0.1747080">
        <ele>945.9</ele>
      </trkpt>
      <trkpt lat="40.7956420" lon="0.1747030">
        <ele>947.6</ele>
      </trkpt>
      <trkpt lat="40.7956080" lon="0.1747010">
        <ele>949.1</ele>
      </trkpt>
      <trkpt lat="40.7955770" lon="0.1747030">
        <ele>950.4</ele>
      </trkpt>
      <trkpt lat="40.7955460" lon="0.1747090">
        <ele>951.6</ele>
      </trkpt>
      <trkpt lat="40.7955090" lon="0.1747170">
        <ele>952.6</ele>
      </trkpt>
      <trkpt lat="40.7954740" lon="0.1747190">
        <ele>953.5</ele>
      </trkpt>
      <trkpt lat="40.7954450" lon="0.1747240">
        <ele>954.6</ele>
      </trkpt>
      <trkpt lat="40.7954080" lon="0.1747360">
        <ele>956.0</ele>
      </trkpt>
      <trkpt lat="40.7953790" lon="0.1747520">
        <ele>957.0</ele>
      </trkpt>
      <trkpt lat="40.7953460" lon="0.1747620">
        <ele>957.8</ele>
      </trkpt>
      <trkpt lat="40.7953150" lon="0.1747670">
        <ele>958.5</ele>
      </trkpt>
      <trkpt lat="40.7952840" lon="0.1747790">
        <ele>959.5</ele>
      </trkpt>
      <trkpt lat="40.7952530" lon="0.1747930">
        <ele>960.5</ele>
      </trkpt>
      <trkpt lat="40.7952220" lon="0.1748070">
        <ele>961.6</ele>
      </trkpt>
      <trkpt lat="40.7951930" lon="0.1748080">
        <ele>962.7</ele>
      </trkpt>
      <trkpt lat="40.7951590" lon="0.1748030">
        <ele>963.7</ele>
      </trkpt>
      <trkpt lat="40.7951280" lon="0.1747980">
        <ele>963.9</ele>
      </trkpt>
      <trkpt lat="40.7950950" lon="0.1747900">
        <ele>964.2</ele>
      </trkpt>
      <trkpt lat="40.7950580" lon="0.1748080">
        <ele>963.5</ele>
      </trkpt>
      <trkpt lat="40.7950370" lon="0.1748380">
        <ele>962.6</ele>
      </trkpt>
      <trkpt lat="40.7950250" lon="0.1748720">
        <ele>962.0</ele>
      </trkpt>
      <trkpt lat="40.7950100" lon="0.1749140">
        <ele>961.3</ele>
      </trkpt>
      <trkpt lat="40.7949930" lon="0.1749450">
        <ele>960.7</ele>
      </trkpt>
      <trkpt lat="40.7949990" lon="0.1750120">
        <ele>959.5</ele>
      </trkpt>
      <trkpt lat="40.7949960" lon="0.1750570">
        <ele>958.9</ele>
      </trkpt>
      <trkpt lat="40.7949890" lon="0.1750970">
        <ele>958.4</ele>
      </trkpt>
      <trkpt lat="40.7949800" lon="0.1751370">
        <ele>958.0</ele>
      </trkpt>
      <trkpt lat="40.7949570" lon="0.1751980">
        <ele>957.1</ele>
      </trkpt>
      <trkpt lat="40.7949440" lon="0.1752320">
        <ele>956.6</ele>
      </trkpt>
      <trkpt lat="40.7949170" lon="0.1752790">
        <ele>956.0</ele>
      </trkpt>
      <trkpt lat="40.7948930" lon="0.1753190">
        <ele>955.6</ele>
      </trkpt>
      <trkpt lat="40.7948780" lon="0.1753660">
        <ele>955.2</ele>
      </trkpt>
      <trkpt lat="40.7948620" lon="0.1754110">
        <ele>954.9</ele>
      </trkpt>
      <trkpt lat="40.7948430" lon="0.1754480">
        <ele>954.8</ele>
      </trkpt>
      <trkpt lat="40.7948250" lon="0.1754920">
        <ele>954.7</ele>
      </trkpt>
      <trkpt lat="40.7948060" lon="0.1755310">
        <ele>954.9</ele>
      </trkpt>
      <trkpt lat="40.7947810" lon="0.1755720">
        <ele>955.2</ele>
      </trkpt>
      <trkpt lat="40.7947590" lon="0.1756040">
        <ele>955.3</ele>
      </trkpt>
      <trkpt lat="40.7947360" lon="0.1756600">
        <ele>955.6</ele>
      </trkpt>
      <trkpt lat="40.7947170" lon="0.1757020">
        <ele>955.8</ele>
      </trkpt>
      <trkpt lat="40.7946990" lon="0.1757480">
        <ele>956.0</ele>
      </trkpt>
      <trkpt lat="40.7946830" lon="0.1757880">
        <ele>956.3</ele>
      </trkpt>
      <trkpt lat="40.7946570" lon="0.1758310">
        <ele>956.8</ele>
      </trkpt>
      <trkpt lat="40.7946350" lon="0.1758720">
        <ele>957.2</ele>
      </trkpt>
      <trkpt lat="40.7946140" lon="0.1759140">
        <ele>957.7</ele>
      </trkpt>
      <trkpt lat="40.7945900" lon="0.1759610">
        <ele>958.2</ele>
      </trkpt>
      <trkpt lat="40.7945550" lon="0.1760150">
        <ele>959.0</ele>
      </trkpt>
      <trkpt lat="40.7945320" lon="0.1760360">
        <ele>959.4</ele>
      </trkpt>
      <trkpt lat="40.7944940" lon="0.1760710">
        <ele>960.3</ele>
      </trkpt>
      <trkpt lat="40.7944660" lon="0.1761030">
        <ele>961.0</ele>
      </trkpt>
      <trkpt lat="40.7944400" lon="0.1761310">
        <ele>961.6</ele>
      </trkpt>
      <trkpt lat="40.7944110" lon="0.1761640">
        <ele>962.2</ele>
      </trkpt>
      <trkpt lat="40.7943830" lon="0.1761810">
        <ele>962.6</ele>
      </trkpt>
      <trkpt lat="40.7943470" lon="0.1761970">
        <ele>963.1</ele>
      </trkpt>
      <trkpt lat="40.7943090" lon="0.1762130">
        <ele>963.4</ele>
      </trkpt>
      <trkpt lat="40.7942810" lon="0.1762370">
        <ele>963.6</ele>
      </trkpt>
      <trkpt lat="40.7942660" lon="0.1762700">
        <ele>964.0</ele>
      </trkpt>
      <trkpt lat="40.7942500" lon="0.1763150">
        <ele>964.5</ele>
      </trkpt>
      <trkpt lat="40.7942230" lon="0.1763450">
        <ele>964.9</ele>
      </trkpt>
      <trkpt lat="40.7941830" lon="0.1763750">
        <ele>965.4</ele>
      </trkpt>
      <trkpt lat="40.7941580" lon="0.1763910">
        <ele>965.6</ele>
      </trkpt>
      <trkpt lat="40.7941310" lon="0.1764170">
        <ele>965.8</ele>
      </trkpt>
      <trkpt lat="40.7941040" lon="0.1764430">
        <ele>966.0</ele>
      </trkpt>
      <trkpt lat="40.7940720" lon="0.1764630">
        <ele>966.4</ele>
      </trkpt>
      <trkpt lat="40.7940390" lon="0.1764840">
        <ele>966.7</ele>
      </trkpt>
      <trkpt lat="40.7940050" lon="0.1765100">
        <ele>967.0</ele>
      </trkpt>
      <trkpt lat="40.7939720" lon="0.1765310">
        <ele>967.3</ele>
      </trkpt>
      <trkpt lat="40.7939510" lon="0.1765690">
        <ele>967.5</ele>
      </trkpt>
      <trkpt lat="40.7939370" lon="0.1766200">
        <ele>967.6</ele>
      </trkpt>
      <trkpt lat="40.7939190" lon="0.1766600">
        <ele>967.7</ele>
      </trkpt>
      <trkpt lat="40.7939010" lon="0.1767020">
        <ele>967.7</ele>
      </trkpt>
      <trkpt lat="40.7938720" lon="0.1767350">
        <ele>967.8</ele>
      </trkpt>
      <trkpt lat="40.7938410" lon="0.1767560">
        <ele>967.8</ele>
      </trkpt>
      <trkpt lat="40.7938150" lon="0.1767730">
        <ele>967.8</ele>
      </trkpt>
      <trkpt lat="40.7938070" lon="0.1768100">
        <ele>967.8</ele>
      </trkpt>
      <trkpt lat="40.7937970" lon="0.1768520">
        <ele>967.8</ele>
      </trkpt>
      <trkpt lat="40.7937790" lon="0.1768820">
        <ele>967.9</ele>
      </trkpt>
      <trkpt lat="40.7937500" lon="0.1769110">
        <ele>968.0</ele>
      </trkpt>
      <trkpt lat="40.7937270" lon="0.1769390">
        <ele>968.0</ele>
      </trkpt>
      <trkpt lat="40.7937160" lon="0.1769720">
        <ele>968.2</ele>
      </trkpt>
      <trkpt lat="40.7937090" lon="0.1770090">
        <ele>968.3</ele>
      </trkpt>
      <trkpt lat="40.7936850" lon="0.1770490">
        <ele>968.5</ele>
      </trkpt>
      <trkpt lat="40.7936500" lon="0.1770750">
        <ele>968.8</ele>
      </trkpt>
      <trkpt lat="40.7936180" lon="0.1771090">
        <ele>969.0</ele>
      </trkpt>
      <trkpt lat="40.7935990" lon="0.1771350">
        <ele>969.3</ele>
      </trkpt>
      <trkpt lat="40.7935710" lon="0.1771410">
        <ele>969.7</ele>
      </trkpt>
      <trkpt lat="40.7935510" lon="0.1771820">
        <ele>970.3</ele>
      </trkpt>
      <trkpt lat="40.7935380" lon="0.1772260">
        <ele>970.9</ele>
      </trkpt>
      <trkpt lat="40.7935260" lon="0.1772750">
        <ele>971.5</ele>
      </trkpt>
      <trkpt lat="40.7935110" lon="0.1773290">
        <ele>972.4</ele>
      </trkpt>
      <trkpt lat="40.7934930" lon="0.1773840">
        <ele>973.2</ele>
      </trkpt>
      <trkpt lat="40.7934760" lon="0.1774360">
        <ele>973.8</ele>
      </trkpt>
      <trkpt lat="40.7934610" lon="0.1774780">
        <ele>974.4</ele>
      </trkpt>
      <trkpt lat="40.7934450" lon="0.1775210">
        <ele>975.0</ele>
      </trkpt>
      <trkpt lat="40.7934320" lon="0.1775660">
        <ele>975.5</ele>
      </trkpt>
      <trkpt lat="40.7934110" lon="0.1776010">
        <ele>975.9</ele>
      </trkpt>
      <trkpt lat="40.7933930" lon="0.1776410">
        <ele>976.5</ele>
      </trkpt>
      <trkpt lat="40.7934000" lon="0.1776790">
        <ele>976.8</ele>
      </trkpt>
      <trkpt lat="40.7934250" lon="0.1777160">
        <ele>977.3</ele>
      </trkpt>
      <trkpt lat="40.7934280" lon="0.1777530">
        <ele>977.7</ele>
      </trkpt>
      <trkpt lat="40.7934370" lon="0.1777880">
        <ele>978.1</ele>
      </trkpt>
      <trkpt lat="40.7934550" lon="0.1778290">
        <ele>978.6</ele>
      </trkpt>
      <trkpt lat="40.7934500" lon="0.1778790">
        <ele>979.1</ele>
      </trkpt>
      <trkpt lat="40.7934480" lon="0.1779180">
        <ele>979.4</ele>
      </trkpt>
      <trkpt lat="40.7934470" lon="0.1779540">
        <ele>979.8</ele>
      </trkpt>
      <trkpt lat="40.7934440" lon="0.1779910">
        <ele>980.1</ele>
      </trkpt>
      <trkpt lat="40.7934430" lon="0.1780360">
        <ele>980.4</ele>
      </trkpt>
      <trkpt lat="40.7934430" lon="0.1780890">
        <ele>980.8</ele>
      </trkpt>
      <trkpt lat="40.7934430" lon="0.1781270">
        <ele>981.1</ele>
      </trkpt>
      <trkpt lat="40.7934550" lon="0.1781630">
        <ele>981.4</ele>
      </trkpt>
      <trkpt lat="40.7934660" lon="0.1782070">
        <ele>981.9</ele>
      </trkpt>
      <trkpt lat="40.7934830" lon="0.1782360">
        <ele>982.2</ele>
      </trkpt>
      <trkpt lat="40.7935010" lon="0.1782630">
        <ele>982.5</ele>
      </trkpt>
      <trkpt lat="40.7935160" lon="0.1782990">
        <ele>982.9</ele>
      </trkpt>
      <trkpt lat="40.7935360" lon="0.1783320">
        <ele>983.4</ele>
      </trkpt>
      <trkpt lat="40.7935530" lon="0.1783600">
        <ele>983.8</ele>
      </trkpt>
      <trkpt lat="40.7935710" lon="0.1783920">
        <ele>984.2</ele>
      </trkpt>
      <trkpt lat="40.7935880" lon="0.1784210">
        <ele>984.6</ele>
      </trkpt>
      <trkpt lat="40.7936080" lon="0.1784560">
        <ele>985.2</ele>
      </trkpt>
      <trkpt lat="40.7936220" lon="0.1784910">
        <ele>985.7</ele>
      </trkpt>
      <trkpt lat="40.7936410" lon="0.1785190">
        <ele>986.2</ele>
      </trkpt>
      <trkpt lat="40.7936670" lon="0.1785300">
        <ele>986.8</ele>
      </trkpt>
      <trkpt lat="40.7936870" lon="0.1785590">
        <ele>987.4</ele>
      </trkpt>
      <trkpt lat="40.7937100" lon="0.1785850">
        <ele>988.0</ele>
      </trkpt>
      <trkpt lat="40.7937240" lon="0.1786250">
        <ele>988.5</ele>
      </trkpt>
      <trkpt lat="40.7937500" lon="0.1786630">
        <ele>989.0</ele>
      </trkpt>
      <trkpt lat="40.7937770" lon="0.1786900">
        <ele>989.5</ele>
      </trkpt>
      <trkpt lat="40.7938040" lon="0.1787130">
        <ele>989.8</ele>
      </trkpt>
      <trkpt lat="40.7938280" lon="0.1787340">
        <ele>990.1</ele>
      </trkpt>
      <trkpt lat="40.7938500" lon="0.1787550">
        <ele>990.4</ele>
      </trkpt>
      <trkpt lat="40.7938780" lon="0.1787720">
        <ele>990.7</ele>
      </trkpt>
      <trkpt lat="40.7939030" lon="0.1787970">
        <ele>991.1</ele>
      </trkpt>
      <trkpt lat="40.7939360" lon="0.1788010">
        <ele>991.4</ele>
      </trkpt>
      <trkpt lat="40.7939630" lon="0.1787810">
        <ele>991.7</ele>
      </trkpt>
      <trkpt lat="40.7939930" lon="0.1787660">
        <ele>992.0</ele>
      </trkpt>
      <trkpt lat="40.7940220" lon="0.1787420">
        <ele>992.0</ele>
      </trkpt>
      <trkpt lat="40.7940490" lon="0.1787170">
        <ele>992.1</ele>
      </trkpt>
      <trkpt lat="40.7940750" lon="0.1786910">
        <ele>992.3</ele>
      </trkpt>
      <trkpt lat="40.7941020" lon="0.1786700">
        <ele>992.5</ele>
      </trkpt>
      <trkpt lat="40.7941350" lon="0.1786470">
        <ele>992.7</ele>
      </trkpt>
      <trkpt lat="40.7941670" lon="0.1786340">
        <ele>993.0</ele>
      </trkpt>
      <trkpt lat="40.7942020" lon="0.1786460">
        <ele>993.2</ele>
      </trkpt>
      <trkpt lat="40.7942370" lon="0.1786680">
        <ele>993.4</ele>
      </trkpt>
      <trkpt lat="40.7942740" lon="0.1786820">
        <ele>993.6</ele>
      </trkpt>
      <trkpt lat="40.7943100" lon="0.1786970">
        <ele>993.6</ele>
      </trkpt>
      <trkpt lat="40.7943620" lon="0.1787190">
        <ele>993.9</ele>
      </trkpt>
      <trkpt lat="40.7944090" lon="0.1787380">
        <ele>994.0</ele>
      </trkpt>
      <trkpt lat="40.7944520" lon="0.1787550">
        <ele>994.0</ele>
      </trkpt>
      <trkpt lat="40.7944970" lon="0.1787730">
        <ele>993.9</ele>
      </trkpt>
      <trkpt lat="40.7945330" lon="0.1787960">
        <ele>993.6</ele>
      </trkpt>
      <trkpt lat="40.7945580" lon="0.1788100">
        <ele>993.2</ele>
      </trkpt>
      <trkpt lat="40.7945890" lon="0.1788220">
        <ele>992.8</ele>
      </trkpt>
      <trkpt lat="40.7946070" lon="0.1788490">
        <ele>992.5</ele>
      </trkpt>
      <trkpt lat="40.7946300" lon="0.1788820">
        <ele>992.2</ele>
      </trkpt>
      <trkpt lat="40.7946500" lon="0.1789100">
        <ele>991.9</ele>
      </trkpt>
      <trkpt lat="40.7946530" lon="0.1789470">
        <ele>991.6</ele>
      </trkpt>
      <trkpt lat="40.7946600" lon="0.1789910">
        <ele>991.1</ele>
      </trkpt>
      <trkpt lat="40.7946790" lon="0.1790500">
        <ele>990.5</ele>
      </trkpt>
      <trkpt lat="40.7946920" lon="0.1791110">
        <ele>990.0</ele>
      </trkpt>
      <trkpt lat="40.7947040" lon="0.1791430">
        <ele>989.8</ele>
      </trkpt>
      <trkpt lat="40.7947200" lon="0.1791800">
        <ele>989.5</ele>
      </trkpt>
      <trkpt lat="40.7947350" lon="0.1792210">
        <ele>989.4</ele>
      </trkpt>
      <trkpt lat="40.7947460" lon="0.1792630">
        <ele>989.3</ele>
      </trkpt>
      <trkpt lat="40.7947520" lon="0.1793150">
        <ele>989.0</ele>
      </trkpt>
      <trkpt lat="40.7947560" lon="0.1793700">
        <ele>988.4</ele>
      </trkpt>
      <trkpt lat="40.7947610" lon="0.1794190">
        <ele>987.9</ele>
      </trkpt>
      <trkpt lat="40.7947650" lon="0.1794660">
        <ele>987.7</ele>
      </trkpt>
      <trkpt lat="40.7947700" lon="0.1795080">
        <ele>987.5</ele>
      </trkpt>
      <trkpt lat="40.7947740" lon="0.1795470">
        <ele>987.1</ele>
      </trkpt>
      <trkpt lat="40.7947790" lon="0.1795930">
        <ele>986.7</ele>
      </trkpt>
      <trkpt lat="40.7947830" lon="0.1796360">
        <ele>986.3</ele>
      </trkpt>
      <trkpt lat="40.7947860" lon="0.1796770">
        <ele>986.0</ele>
      </trkpt>
      <trkpt lat="40.7947850" lon="0.1797210">
        <ele>985.6</ele>
      </trkpt>
      <trkpt lat="40.7947800" lon="0.1797710">
        <ele>985.2</ele>
      </trkpt>
      <trkpt lat="40.7947760" lon="0.1798940">
        <ele>983.6</ele>
      </trkpt>
      <trkpt lat="40.7947760" lon="0.1799680">
        <ele>982.8</ele>
      </trkpt>
      <trkpt lat="40.7947760" lon="0.1800340">
        <ele>982.3</ele>
      </trkpt>
      <trkpt lat="40.7947660" lon="0.1800970">
        <ele>981.9</ele>
      </trkpt>
      <trkpt lat="40.7947630" lon="0.1801480">
        <ele>981.6</ele>
      </trkpt>
      <trkpt lat="40.7947440" lon="0.1802180">
        <ele>980.8</ele>
      </trkpt>
      <trkpt lat="40.7947160" lon="0.1802620">
        <ele>980.4</ele>
      </trkpt>
      <trkpt lat="40.7946890" lon="0.1803150">
        <ele>980.0</ele>
      </trkpt>
      <trkpt lat="40.7946600" lon="0.1803780">
        <ele>980.9</ele>
      </trkpt>
      <trkpt lat="40.7946350" lon="0.1804260">
        <ele>981.7</ele>
      </trkpt>
      <trkpt lat="40.7945990" lon="0.1804870">
        <ele>982.7</ele>
      </trkpt>
      <trkpt lat="40.7946150" lon="0.1805290">
        <ele>982.7</ele>
      </trkpt>
      <trkpt lat="40.7945920" lon="0.1805680">
        <ele>982.5</ele>
      </trkpt>
      <trkpt lat="40.7945930" lon="0.1806170">
        <ele>982.5</ele>
      </trkpt>
      <trkpt lat="40.7945700" lon="0.1806620">
        <ele>982.7</ele>
      </trkpt>
      <trkpt lat="40.7945560" lon="0.1807170">
        <ele>982.5</ele>
      </trkpt>
      <trkpt lat="40.7946340" lon="0.1807980">
        <ele>979.5</ele>
      </trkpt>
      <trkpt lat="40.7946510" lon="0.1808700">
        <ele>977.8</ele>
      </trkpt>
      <trkpt lat="40.7946820" lon="0.1809610">
        <ele>975.9</ele>
      </trkpt>
      <trkpt lat="40.7947140" lon="0.1810270">
        <ele>974.2</ele>
      </trkpt>
      <trkpt lat="40.7947180" lon="0.1810990">
        <ele>972.4</ele>
      </trkpt>
      <trkpt lat="40.7947140" lon="0.1811640">
        <ele>970.9</ele>
      </trkpt>
      <trkpt lat="40.7946990" lon="0.1812260">
        <ele>971.5</ele>
      </trkpt>
      <trkpt lat="40.7946810" lon="0.1812680">
        <ele>971.7</ele>
      </trkpt>
      <trkpt lat="40.7946750" lon="0.1813340">
        <ele>971.5</ele>
      </trkpt>
      <trkpt lat="40.7946740" lon="0.1814310">
        <ele>972.8</ele>
      </trkpt>
      <trkpt lat="40.7946920" lon="0.1814860">
        <ele>973.6</ele>
      </trkpt>
      <trkpt lat="40.7947160" lon="0.1815360">
        <ele>974.3</ele>
      </trkpt>
      <trkpt lat="40.7947310" lon="0.1815820">
        <ele>973.6</ele>
      </trkpt>
      <trkpt lat="40.7947620" lon="0.1816200">
        <ele>973.4</ele>
      </trkpt>
      <trkpt lat="40.7947920" lon="0.1816700">
        <ele>973.4</ele>
      </trkpt>
      <trkpt lat="40.7948260" lon="0.1816910">
        <ele>971.6</ele>
      </trkpt>
      <trkpt lat="40.7948640" lon="0.1816990">
        <ele>970.4</ele>
      </trkpt>
      <trkpt lat="40.7949130" lon="0.1817090">
        <ele>969.0</ele>
      </trkpt>
      <trkpt lat="40.7949440" lon="0.1816870">
        <ele>967.4</ele>
      </trkpt>
      <trkpt lat="40.7949840" lon="0.1817120">
        <ele>965.7</ele>
      </trkpt>
      <trkpt lat="40.7950160" lon="0.1817230">
        <ele>964.6</ele>
      </trkpt>
      <trkpt lat="40.7950650" lon="0.1817260">
        <ele>963.5</ele>
      </trkpt>
      <trkpt lat="40.7951140" lon="0.1817460">
        <ele>962.3</ele>
      </trkpt>
      <trkpt lat="40.7951440" lon="0.1817640">
        <ele>961.5</ele>
      </trkpt>
      <trkpt lat="40.7951700" lon="0.1817850">
        <ele>960.7</ele>
      </trkpt>
      <trkpt lat="40.7951930" lon="0.1818120">
        <ele>959.7</ele>
      </trkpt>
      <trkpt lat="40.7952140" lon="0.1818440">
        <ele>958.6</ele>
      </trkpt>
      <trkpt lat="40.7952310" lon="0.1818780">
        <ele>958.1</ele>
      </trkpt>
      <trkpt lat="40.7952470" lon="0.1819130">
        <ele>957.7</ele>
      </trkpt>
      <trkpt lat="40.7952620" lon="0.1819490">
        <ele>957.3</ele>
      </trkpt>
      <trkpt lat="40.7952830" lon="0.1819990">
        <ele>956.8</ele>
      </trkpt>
      <trkpt lat="40.7953100" lon="0.1820530">
        <ele>956.6</ele>
      </trkpt>
      <trkpt lat="40.7953300" lon="0.1821040">
        <ele>956.8</ele>
      </trkpt>
      <trkpt lat="40.7953430" lon="0.1821500">
        <ele>957.0</ele>
      </trkpt>
      <trkpt lat="40.7953460" lon="0.1822050">
        <ele>957.5</ele>
      </trkpt>
      <trkpt lat="40.7953380" lon="0.1822720">
        <ele>958.0</ele>
      </trkpt>
      <trkpt lat="40.7953020" lon="0.1824200">
        <ele>958.8</ele>
      </trkpt>
      <trkpt lat="40.7952350" lon="0.1824960">
        <ele>960.1</ele>
      </trkpt>
      <trkpt lat="40.7951840" lon="0.1825800">
        <ele>961.7</ele>
      </trkpt>
      <trkpt lat="40.7951300" lon="0.1826630">
        <ele>963.0</ele>
      </trkpt>
      <trkpt lat="40.7950760" lon="0.1827390">
        <ele>964.2</ele>
      </trkpt>
      <trkpt lat="40.7950520" lon="0.1828190">
        <ele>965.3</ele>
      </trkpt>
      <trkpt lat="40.7950690" lon="0.1828640">
        <ele>965.9</ele>
      </trkpt>
      <trkpt lat="40.7950990" lon="0.1829030">
        <ele>966.3</ele>
      </trkpt>
      <trkpt lat="40.7951130" lon="0.1829400">
        <ele>966.7</ele>
      </trkpt>
      <trkpt lat="40.7951450" lon="0.1829770">
        <ele>967.3</ele>
      </trkpt>
      <trkpt lat="40.7951530" lon="0.1830380">
        <ele>967.7</ele>
      </trkpt>
      <trkpt lat="40.7951680" lon="0.1831040">
        <ele>967.3</ele>
      </trkpt>
      <trkpt lat="40.7951790" lon="0.1831460">
        <ele>967.1</ele>
      </trkpt>
      <trkpt lat="40.7952020" lon="0.1832010">
        <ele>966.7</ele>
      </trkpt>
      <trkpt lat="40.7952330" lon="0.1832530">
        <ele>966.4</ele>
      </trkpt>
      <trkpt lat="40.7952630" lon="0.1833220">
        <ele>965.9</ele>
      </trkpt>
      <trkpt lat="40.7952850" lon="0.1833970">
        <ele>965.2</ele>
      </trkpt>
      <trkpt lat="40.7953030" lon="0.1834770">
        <ele>964.8</ele>
      </trkpt>
      <trkpt lat="40.7953060" lon="0.1835540">
        <ele>964.4</ele>
      </trkpt>
      <trkpt lat="40.7953120" lon="0.1836330">
        <ele>964.1</ele>
      </trkpt>
      <trkpt lat="40.7953240" lon="0.1837020">
        <ele>963.9</ele>
      </trkpt>
      <trkpt lat="40.7953310" lon="0.1838500">
        <ele>963.5</ele>
      </trkpt>
      <trkpt lat="40.7953420" lon="0.1839430">
        <ele>963.2</ele>
      </trkpt>
      <trkpt lat="40.7953470" lon="0.1840350">
        <ele>963.1</ele>
      </trkpt>
      <trkpt lat="40.7953600" lon="0.1841180">
        <ele>962.9</ele>
      </trkpt>
      <trkpt lat="40.7953450" lon="0.1842870">
        <ele>962.8</ele>
      </trkpt>
      <trkpt lat="40.7953550" lon="0.1843680">
        <ele>962.7</ele>
      </trkpt>
      <trkpt lat="40.7953670" lon="0.1844390">
        <ele>962.4</ele>
      </trkpt>
      <trkpt lat="40.7953520" lon="0.1845610">
        <ele>962.1</ele>
      </trkpt>
      <trkpt lat="40.7953140" lon="0.1846440">
        <ele>961.8</ele>
      </trkpt>
      <trkpt lat="40.7953050" lon="0.1846890">
        <ele>961.7</ele>
      </trkpt>
      <trkpt lat="40.7952830" lon="0.1847650">
        <ele>961.5</ele>
      </trkpt>
      <trkpt lat="40.7952490" lon="0.1848110">
        <ele>961.4</ele>
      </trkpt>
      <trkpt lat="40.7952050" lon="0.1848380">
        <ele>961.3</ele>
      </trkpt>
      <trkpt lat="40.7951780" lon="0.1848600">
        <ele>961.2</ele>
      </trkpt>
      <trkpt lat="40.7951690" lon="0.1849020">
        <ele>961.1</ele>
      </trkpt>
      <trkpt lat="40.7951360" lon="0.1849290">
        <ele>960.9</ele>
      </trkpt>
      <trkpt lat="40.7951090" lon="0.1849510">
        <ele>960.8</ele>
      </trkpt>
      <trkpt lat="40.7950710" lon="0.1849860">
        <ele>960.6</ele>
      </trkpt>
      <trkpt lat="40.7950290" lon="0.1850330">
        <ele>960.4</ele>
      </trkpt>
      <trkpt lat="40.7949970" lon="0.1850740">
        <ele>960.2</ele>
      </trkpt>
      <trkpt lat="40.7949780" lon="0.1851100">
        <ele>960.1</ele>
      </trkpt>
      <trkpt lat="40.7949570" lon="0.1851340">
        <ele>960.0</ele>
      </trkpt>
      <trkpt lat="40.7949370" lon="0.1851750">
        <ele>960.0</ele>
      </trkpt>
      <trkpt lat="40.7949160" lon="0.1852060">
        <ele>959.9</ele>
      </trkpt>
      <trkpt lat="40.7948950" lon="0.1852330">
        <ele>959.8</ele>
      </trkpt>
      <trkpt lat="40.7948740" lon="0.1852710">
        <ele>959.7</ele>
      </trkpt>
      <trkpt lat="40.7948600" lon="0.1853010">
        <ele>959.7</ele>
      </trkpt>
      <trkpt lat="40.7948310" lon="0.1853260">
        <ele>959.6</ele>
      </trkpt>
      <trkpt lat="40.7948160" lon="0.1853730">
        <ele>959.6</ele>
      </trkpt>
      <trkpt lat="40.7948070" lon="0.1854160">
        <ele>959.7</ele>
      </trkpt>
      <trkpt lat="40.7947950" lon="0.1854510">
        <ele>959.7</ele>
      </trkpt>
      <trkpt lat="40.7947650" lon="0.1854810">
        <ele>959.8</ele>
      </trkpt>
      <trkpt lat="40.7947480" lon="0.1855160">
        <ele>959.9</ele>
      </trkpt>
      <trkpt lat="40.7947320" lon="0.1855490">
        <ele>960.0</ele>
      </trkpt>
      <trkpt lat="40.7947240" lon="0.1855850">
        <ele>960.1</ele>
      </trkpt>
      <trkpt lat="40.7947140" lon="0.1856200">
        <ele>960.2</ele>
      </trkpt>
      <trkpt lat="40.7947020" lon="0.1856580">
        <ele>960.5</ele>
      </trkpt>
      <trkpt lat="40.7947070" lon="0.1857050">
        <ele>960.8</ele>
      </trkpt>
      <trkpt lat="40.7947210" lon="0.1857400">
        <ele>961.2</ele>
      </trkpt>
      <trkpt lat="40.7947280" lon="0.1857920">
        <ele>961.7</ele>
      </trkpt>
      <trkpt lat="40.7947240" lon="0.1858430">
        <ele>962.3</ele>
      </trkpt>
      <trkpt lat="40.7947130" lon="0.1858850">
        <ele>963.0</ele>
      </trkpt>
      <trkpt lat="40.7947020" lon="0.1859250">
        <ele>963.5</ele>
      </trkpt>
      <trkpt lat="40.7947000" lon="0.1859710">
        <ele>964.1</ele>
      </trkpt>
      <trkpt lat="40.7946860" lon="0.1860020">
        <ele>964.5</ele>
      </trkpt>
      <trkpt lat="40.7946750" lon="0.1860400">
        <ele>965.0</ele>
      </trkpt>
      <trkpt lat="40.7946660" lon="0.1860840">
        <ele>965.7</ele>
      </trkpt>
      <trkpt lat="40.7946510" lon="0.1861350">
        <ele>966.7</ele>
      </trkpt>
      <trkpt lat="40.7946450" lon="0.1861710">
        <ele>967.5</ele>
      </trkpt>
      <trkpt lat="40.7946400" lon="0.1862100">
        <ele>968.4</ele>
      </trkpt>
      <trkpt lat="40.7946360" lon="0.1862590">
        <ele>969.7</ele>
      </trkpt>
      <trkpt lat="40.7946360" lon="0.1863010">
        <ele>970.7</ele>
      </trkpt>
      <trkpt lat="40.7946330" lon="0.1863410">
        <ele>971.4</ele>
      </trkpt>
      <trkpt lat="40.7946250" lon="0.1863910">
        <ele>972.4</ele>
      </trkpt>
      <trkpt lat="40.7946240" lon="0.1864320">
        <ele>973.5</ele>
      </trkpt>
      <trkpt lat="40.7946210" lon="0.1864740">
        <ele>974.9</ele>
      </trkpt>
      <trkpt lat="40.7946150" lon="0.1865110">
        <ele>976.0</ele>
      </trkpt>
      <trkpt lat="40.7946050" lon="0.1865660">
        <ele>976.0</ele>
      </trkpt>
      <trkpt lat="40.7945930" lon="0.1866090">
        <ele>976.0</ele>
      </trkpt>
      <trkpt lat="40.7945890" lon="0.1866580">
        <ele>977.2</ele>
      </trkpt>
      <trkpt lat="40.7945860" lon="0.1867020">
        <ele>978.4</ele>
      </trkpt>
      <trkpt lat="40.7945720" lon="0.1867380">
        <ele>979.7</ele>
      </trkpt>
      <trkpt lat="40.7945580" lon="0.1867730">
        <ele>981.6</ele>
      </trkpt>
      <trkpt lat="40.7945410" lon="0.1868150">
        <ele>982.9</ele>
      </trkpt>
      <trkpt lat="40.7945070" lon="0.1868310">
        <ele>983.0</ele>
      </trkpt>
      <trkpt lat="40.7944820" lon="0.1868440">
        <ele>983.1</ele>
      </trkpt>
      <trkpt lat="40.7944510" lon="0.1868620">
        <ele>984.5</ele>
      </trkpt>
      <trkpt lat="40.7944290" lon="0.1868920">
        <ele>984.7</ele>
      </trkpt>
      <trkpt lat="40.7944070" lon="0.1869280">
        <ele>986.1</ele>
      </trkpt>
      <trkpt lat="40.7943660" lon="0.1869510">
        <ele>987.4</ele>
      </trkpt>
      <trkpt lat="40.7943240" lon="0.1869640">
        <ele>987.5</ele>
      </trkpt>
      <trkpt lat="40.7942890" lon="0.1869800">
        <ele>987.7</ele>
      </trkpt>
      <trkpt lat="40.7942610" lon="0.1870030">
        <ele>988.8</ele>
      </trkpt>
      <trkpt lat="40.7942380" lon="0.1870240">
        <ele>989.0</ele>
      </trkpt>
      <trkpt lat="40.7942090" lon="0.1870460">
        <ele>990.2</ele>
      </trkpt>
      <trkpt lat="40.7941760" lon="0.1870560">
        <ele>990.4</ele>
      </trkpt>
      <trkpt lat="40.7941410" lon="0.1870560">
        <ele>990.7</ele>
      </trkpt>
      <trkpt lat="40.7941020" lon="0.1870620">
        <ele>991.0</ele>
      </trkpt>
      <trkpt lat="40.7940770" lon="0.1870780">
        <ele>992.1</ele>
      </trkpt>
      <trkpt lat="40.7940490" lon="0.1870930">
        <ele>992.5</ele>
      </trkpt>
      <trkpt lat="40.7940280" lon="0.1871260">
        <ele>993.3</ele>
      </trkpt>
      <trkpt lat="40.7939980" lon="0.1871350">
        <ele>993.6</ele>
      </trkpt>
      <trkpt lat="40.7939660" lon="0.1871190">
        <ele>994.0</ele>
      </trkpt>
      <trkpt lat="40.7939300" lon="0.1871330">
        <ele>994.5</ele>
      </trkpt>
      <trkpt lat="40.7938910" lon="0.1871390">
        <ele>995.5</ele>
      </trkpt>
      <trkpt lat="40.7938560" lon="0.1871350">
        <ele>996.0</ele>
      </trkpt>
      <trkpt lat="40.7938210" lon="0.1871320">
        <ele>996.6</ele>
      </trkpt>
      <trkpt lat="40.7937950" lon="0.1871610">
        <ele>997.7</ele>
      </trkpt>
      <trkpt lat="40.7937730" lon="0.1871960">
        <ele>997.7</ele>
      </trkpt>
      <trkpt lat="40.7937430" lon="0.1872210">
        <ele>998.8</ele>
      </trkpt>
      <trkpt lat="40.7937190" lon="0.1872470">
        <ele>999.9</ele>
      </trkpt>
      <trkpt lat="40.7937090" lon="0.1872900">
        <ele>1000.5</ele>
      </trkpt>
      <trkpt lat="40.7936990" lon="0.1873300">
        <ele>1001.5</ele>
      </trkpt>
      <trkpt lat="40.7936850" lon="0.1873680">
        <ele>1001.5</ele>
      </trkpt>
      <trkpt lat="40.7936660" lon="0.1874010">
        <ele>1002.5</ele>
      </trkpt>
      <trkpt lat="40.7936500" lon="0.1874450">
        <ele>1003.0</ele>
      </trkpt>
      <trkpt lat="40.7936410" lon="0.1874880">
        <ele>1003.4</ele>
      </trkpt>
      <trkpt lat="40.7936270" lon="0.1875210">
        <ele>1004.2</ele>
      </trkpt>
      <trkpt lat="40.7936080" lon="0.1875490">
        <ele>1004.6</ele>
      </trkpt>
      <trkpt lat="40.7935970" lon="0.1875890">
        <ele>1005.4</ele>
      </trkpt>
      <trkpt lat="40.7935920" lon="0.1876280">
        <ele>1005.8</ele>
      </trkpt>
      <trkpt lat="40.7935710" lon="0.1876730">
        <ele>1006.6</ele>
      </trkpt>
      <trkpt lat="40.7935520" lon="0.1877200">
        <ele>1007.0</ele>
      </trkpt>
      <trkpt lat="40.7935340" lon="0.1877600">
        <ele>1007.8</ele>
      </trkpt>
      <trkpt lat="40.7935240" lon="0.1877980">
        <ele>1008.2</ele>
      </trkpt>
      <trkpt lat="40.7935200" lon="0.1878350">
        <ele>1008.2</ele>
      </trkpt>
      <trkpt lat="40.7935010" lon="0.1878800">
        <ele>1008.9</ele>
      </trkpt>
      <trkpt lat="40.7934800" lon="0.1879210">
        <ele>1009.3</ele>
      </trkpt>
      <trkpt lat="40.7934740" lon="0.1879660">
        <ele>1009.6</ele>
      </trkpt>
      <trkpt lat="40.7934750" lon="0.1880110">
        <ele>1009.8</ele>
      </trkpt>
      <trkpt lat="40.7934550" lon="0.1880450">
        <ele>1010.2</ele>
      </trkpt>
      <trkpt lat="40.7934260" lon="0.1880810">
        <ele>1010.3</ele>
      </trkpt>
      <trkpt lat="40.7934150" lon="0.1881190">
        <ele>1010.3</ele>
      </trkpt>
      <trkpt lat="40.7933980" lon="0.1881640">
        <ele>1010.2</ele>
      </trkpt>
      <trkpt lat="40.7933810" lon="0.1881960">
        <ele>1010.0</ele>
      </trkpt>
      <trkpt lat="40.7933660" lon="0.1882270">
        <ele>1009.6</ele>
      </trkpt>
      <trkpt lat="40.7933450" lon="0.1882640">
        <ele>1009.6</ele>
      </trkpt>
      <trkpt lat="40.7933280" lon="0.1883040">
        <ele>1009.1</ele>
      </trkpt>
      <trkpt lat="40.7933080" lon="0.1883480">
        <ele>1008.6</ele>
      </trkpt>
      <trkpt lat="40.7932740" lon="0.1883680">
        <ele>1008.1</ele>
      </trkpt>
      <trkpt lat="40.7932520" lon="0.1883900">
        <ele>1008.2</ele>
      </trkpt>
      <trkpt lat="40.7932250" lon="0.1884100">
        <ele>1007.8</ele>
      </trkpt>
      <trkpt lat="40.7931980" lon="0.1884250">
        <ele>1007.8</ele>
      </trkpt>
      <trkpt lat="40.7931730" lon="0.1884510">
        <ele>1007.6</ele>
      </trkpt>
      <trkpt lat="40.7931510" lon="0.1884790">
        <ele>1007.6</ele>
      </trkpt>
      <trkpt lat="40.7931270" lon="0.1885160">
        <ele>1007.4</ele>
      </trkpt>
      <trkpt lat="40.7930970" lon="0.1885500">
        <ele>1007.3</ele>
      </trkpt>
      <trkpt lat="40.7930660" lon="0.1885810">
        <ele>1007.1</ele>
      </trkpt>
      <trkpt lat="40.7930420" lon="0.1886030">
        <ele>1007.2</ele>
      </trkpt>
      <trkpt lat="40.7930230" lon="0.1886300">
        <ele>1006.9</ele>
      </trkpt>
      <trkpt lat="40.7929980" lon="0.1886540">
        <ele>1006.9</ele>
      </trkpt>
      <trkpt lat="40.7929700" lon="0.1886710">
        <ele>1006.5</ele>
      </trkpt>
      <trkpt lat="40.7929230" lon="0.1886600">
        <ele>1006.5</ele>
      </trkpt>
      <trkpt lat="40.7930150" lon="0.1886630">
        <ele>1006.5</ele>
      </trkpt>
      <trkpt lat="40.7930450" lon="0.1886790">
        <ele>1006.6</ele>
      </trkpt>
      <trkpt lat="40.7930680" lon="0.1887060">
        <ele>1006.2</ele>
      </trkpt>
      <trkpt lat="40.7930800" lon="0.1887460">
        <ele>1005.6</ele>
      </trkpt>
      <trkpt lat="40.7931010" lon="0.1887870">
        <ele>1005.2</ele>
      </trkpt>
      <trkpt lat="40.7931240" lon="0.1888440">
        <ele>1004.8</ele>
      </trkpt>
      <trkpt lat="40.7931390" lon="0.1888890">
        <ele>1004.1</ele>
      </trkpt>
      <trkpt lat="40.7931550" lon="0.1889420">
        <ele>1003.7</ele>
      </trkpt>
      <trkpt lat="40.7931700" lon="0.1889900">
        <ele>1003.0</ele>
      </trkpt>
      <trkpt lat="40.7931820" lon="0.1890280">
        <ele>1002.5</ele>
      </trkpt>
      <trkpt lat="40.7931920" lon="0.1890710">
        <ele>1001.8</ele>
      </trkpt>
      <trkpt lat="40.7932040" lon="0.1891260">
        <ele>1000.9</ele>
      </trkpt>
      <trkpt lat="40.7932210" lon="0.1891870">
        <ele>999.6</ele>
      </trkpt>
      <trkpt lat="40.7932370" lon="0.1892450">
        <ele>998.7</ele>
      </trkpt>
      <trkpt lat="40.7932540" lon="0.1892910">
        <ele>998.4</ele>
      </trkpt>
      <trkpt lat="40.7932630" lon="0.1893380">
        <ele>997.6</ele>
      </trkpt>
      <trkpt lat="40.7932710" lon="0.1893830">
        <ele>996.9</ele>
      </trkpt>
      <trkpt lat="40.7932790" lon="0.1894250">
        <ele>996.7</ele>
      </trkpt>
      <trkpt lat="40.7932940" lon="0.1894690">
        <ele>996.0</ele>
      </trkpt>
      <trkpt lat="40.7933200" lon="0.1895190">
        <ele>995.0</ele>
      </trkpt>
      <trkpt lat="40.7933510" lon="0.1895640">
        <ele>994.7</ele>
      </trkpt>
      <trkpt lat="40.7933790" lon="0.1896140">
        <ele>994.4</ele>
      </trkpt>
      <trkpt lat="40.7934060" lon="0.1896660">
        <ele>993.5</ele>
      </trkpt>
      <trkpt lat="40.7934320" lon="0.1897140">
        <ele>993.2</ele>
      </trkpt>
      <trkpt lat="40.7934590" lon="0.1897650">
        <ele>993.0</ele>
      </trkpt>
      <trkpt lat="40.7934910" lon="0.1898210">
        <ele>992.0</ele>
      </trkpt>
      <trkpt lat="40.7935230" lon="0.1898720">
        <ele>991.7</ele>
      </trkpt>
      <trkpt lat="40.7935410" lon="0.1899140">
        <ele>991.4</ele>
      </trkpt>
      <trkpt lat="40.7935510" lon="0.1899500">
        <ele>990.5</ele>
      </trkpt>
      <trkpt lat="40.7935570" lon="0.1899970">
        <ele>989.5</ele>
      </trkpt>
      <trkpt lat="40.7935640" lon="0.1900510">
        <ele>988.5</ele>
      </trkpt>
      <trkpt lat="40.7935760" lon="0.1901120">
        <ele>988.0</ele>
      </trkpt>
      <trkpt lat="40.7935880" lon="0.1901730">
        <ele>985.9</ele>
      </trkpt>
      <trkpt lat="40.7935980" lon="0.1902400">
        <ele>984.9</ele>
      </trkpt>
      <trkpt lat="40.7936060" lon="0.1903650">
        <ele>982.5</ele>
      </trkpt>
      <trkpt lat="40.7936340" lon="0.1904070">
        <ele>981.6</ele>
      </trkpt>
      <trkpt lat="40.7936690" lon="0.1904350">
        <ele>981.9</ele>
      </trkpt>
      <trkpt lat="40.7936810" lon="0.1904690">
        <ele>981.0</ele>
      </trkpt>
      <trkpt lat="40.7936840" lon="0.1905120">
        <ele>980.0</ele>
      </trkpt>
      <trkpt lat="40.7936730" lon="0.1905680">
        <ele>979.0</ele>
      </trkpt>
      <trkpt lat="40.7936540" lon="0.1906250">
        <ele>977.3</ele>
      </trkpt>
      <trkpt lat="40.7936300" lon="0.1906730">
        <ele>974.8</ele>
      </trkpt>
      <trkpt lat="40.7935980" lon="0.1907180">
        <ele>973.3</ele>
      </trkpt>
      <trkpt lat="40.7935630" lon="0.1907560">
        <ele>972.7</ele>
      </trkpt>
      <trkpt lat="40.7935300" lon="0.1907810">
        <ele>971.2</ele>
      </trkpt>
      <trkpt lat="40.7934970" lon="0.1907920">
        <ele>970.7</ele>
      </trkpt>
      <trkpt lat="40.7934620" lon="0.1907990">
        <ele>970.2</ele>
      </trkpt>
      <trkpt lat="40.7934250" lon="0.1908010">
        <ele>969.7</ele>
      </trkpt>
      <trkpt lat="40.7933940" lon="0.1907950">
        <ele>969.3</ele>
      </trkpt>
      <trkpt lat="40.7933690" lon="0.1907830">
        <ele>968.8</ele>
      </trkpt>
      <trkpt lat="40.7933410" lon="0.1907620">
        <ele>968.4</ele>
      </trkpt>
      <trkpt lat="40.7933030" lon="0.1907360">
        <ele>969.2</ele>
      </trkpt>
      <trkpt lat="40.7932620" lon="0.1907050">
        <ele>969.9</ele>
      </trkpt>
      <trkpt lat="40.7932250" lon="0.1906790">
        <ele>969.6</ele>
      </trkpt>
      <trkpt lat="40.7931840" lon="0.1906630">
        <ele>970.4</ele>
      </trkpt>
      <trkpt lat="40.7931440" lon="0.1906600">
        <ele>969.9</ele>
      </trkpt>
      <trkpt lat="40.7931070" lon="0.1906720">
        <ele>969.7</ele>
      </trkpt>
      <trkpt lat="40.7930270" lon="0.1907550">
        <ele>967.1</ele>
      </trkpt>
      <trkpt lat="40.7929890" lon="0.1907780">
        <ele>965.8</ele>
      </trkpt>
      <trkpt lat="40.7929610" lon="0.1907700">
        <ele>965.8</ele>
      </trkpt>
      <trkpt lat="40.7929350" lon="0.1907830">
        <ele>965.7</ele>
      </trkpt>
      <trkpt lat="40.7929440" lon="0.1909700">
        <ele>960.7</ele>
      </trkpt>
      <trkpt lat="40.7929500" lon="0.1910100">
        <ele>959.4</ele>
      </trkpt>
      <trkpt lat="40.7929050" lon="0.1910660">
        <ele>956.8</ele>
      </trkpt>
      <trkpt lat="40.7928850" lon="0.1911230">
        <ele>955.6</ele>
      </trkpt>
      <trkpt lat="40.7928700" lon="0.1912270">
        <ele>953.1</ele>
      </trkpt>
      <trkpt lat="40.7928460" lon="0.1913050">
        <ele>950.9</ele>
      </trkpt>
      <trkpt lat="40.7928390" lon="0.1913970">
        <ele>948.3</ele>
      </trkpt>
      <trkpt lat="40.7928280" lon="0.1914600">
        <ele>945.5</ele>
      </trkpt>
      <trkpt lat="40.7927970" lon="0.1915110">
        <ele>944.6</ele>
      </trkpt>
      <trkpt lat="40.7927820" lon="0.1915690">
        <ele>944.0</ele>
      </trkpt>
      <trkpt lat="40.7927590" lon="0.1916230">
        <ele>941.5</ele>
      </trkpt>
      <trkpt lat="40.7927580" lon="0.1916590">
        <ele>942.3</ele>
      </trkpt>
      <trkpt lat="40.7927550" lon="0.1917320">
        <ele>939.7</ele>
      </trkpt>
      <trkpt lat="40.7927040" lon="0.1918180">
        <ele>937.9</ele>
      </trkpt>
      <trkpt lat="40.7926850" lon="0.1918680">
        <ele>937.3</ele>
      </trkpt>
      <trkpt lat="40.7926990" lon="0.1919170">
        <ele>935.0</ele>
      </trkpt>
      <trkpt lat="40.7927030" lon="0.1919720">
        <ele>932.1</ele>
      </trkpt>
      <trkpt lat="40.7927080" lon="0.1920520">
        <ele>929.5</ele>
      </trkpt>
      <trkpt lat="40.7927070" lon="0.1920960">
        <ele>928.3</ele>
      </trkpt>
      <trkpt lat="40.7926900" lon="0.1921450">
        <ele>927.9</ele>
      </trkpt>
      <trkpt lat="40.7926530" lon="0.1922020">
        <ele>927.5</ele>
      </trkpt>
      <trkpt lat="40.7926280" lon="0.1922210">
        <ele>927.1</ele>
      </trkpt>
      <trkpt lat="40.7926050" lon="0.1922700">
        <ele>925.8</ele>
      </trkpt>
      <trkpt lat="40.7925770" lon="0.1923010">
        <ele>926.8</ele>
      </trkpt>
      <trkpt lat="40.7925600" lon="0.1923300">
        <ele>926.6</ele>
      </trkpt>
      <trkpt lat="40.7925480" lon="0.1923630">
        <ele>925.3</ele>
      </trkpt>
      <trkpt lat="40.7925230" lon="0.1924020">
        <ele>925.2</ele>
      </trkpt>
      <trkpt lat="40.7924970" lon="0.1924290">
        <ele>926.6</ele>
      </trkpt>
      <trkpt lat="40.7924730" lon="0.1924480">
        <ele>925.3</ele>
      </trkpt>
      <trkpt lat="40.7924430" lon="0.1924700">
        <ele>926.6</ele>
      </trkpt>
      <trkpt lat="40.7924160" lon="0.1924940">
        <ele>926.6</ele>
      </trkpt>
      <trkpt lat="40.7923770" lon="0.1925230">
        <ele>926.5</ele>
      </trkpt>
      <trkpt lat="40.7923460" lon="0.1925400">
        <ele>927.8</ele>
      </trkpt>
      <trkpt lat="40.7923140" lon="0.1925630">
        <ele>927.8</ele>
      </trkpt>
      <trkpt lat="40.7922870" lon="0.1925740">
        <ele>929.3</ele>
      </trkpt>
      <trkpt lat="40.7922690" lon="0.1926200">
        <ele>929.5</ele>
      </trkpt>
      <trkpt lat="40.7922480" lon="0.1926500">
        <ele>928.1</ele>
      </trkpt>
      <trkpt lat="40.7922280" lon="0.1926930">
        <ele>928.3</ele>
      </trkpt>
      <trkpt lat="40.7922120" lon="0.1927300">
        <ele>928.3</ele>
      </trkpt>
      <trkpt lat="40.7921830" lon="0.1927600">
        <ele>928.4</ele>
      </trkpt>
      <trkpt lat="40.7921480" lon="0.1928060">
        <ele>928.5</ele>
      </trkpt>
      <trkpt lat="40.7921300" lon="0.1928360">
        <ele>928.7</ele>
      </trkpt>
      <trkpt lat="40.7921090" lon="0.1928670">
        <ele>928.9</ele>
      </trkpt>
      <trkpt lat="40.7920910" lon="0.1929030">
        <ele>928.9</ele>
      </trkpt>
      <trkpt lat="40.7920760" lon="0.1929430">
        <ele>929.4</ele>
      </trkpt>
      <trkpt lat="40.7920660" lon="0.1929830">
        <ele>928.1</ele>
      </trkpt>
      <trkpt lat="40.7920600" lon="0.1930280">
        <ele>926.9</ele>
      </trkpt>
      <trkpt lat="40.7920560" lon="0.1930730">
        <ele>925.7</ele>
      </trkpt>
      <trkpt lat="40.7920540" lon="0.1931170">
        <ele>924.4</ele>
      </trkpt>
      <trkpt lat="40.7920520" lon="0.1931610">
        <ele>923.1</ele>
      </trkpt>
      <trkpt lat="40.7920510" lon="0.1931970">
        <ele>921.8</ele>
      </trkpt>
      <trkpt lat="40.7920610" lon="0.1932410">
        <ele>920.4</ele>
      </trkpt>
      <trkpt lat="40.7920860" lon="0.1932680">
        <ele>917.1</ele>
      </trkpt>
      <trkpt lat="40.7921120" lon="0.1932930">
        <ele>913.7</ele>
      </trkpt>
      <trkpt lat="40.7921160" lon="0.1933490">
        <ele>912.2</ele>
      </trkpt>
      <trkpt lat="40.7921190" lon="0.1934080">
        <ele>910.7</ele>
      </trkpt>
      <trkpt lat="40.7921170" lon="0.1934470">
        <ele>909.3</ele>
      </trkpt>
      <trkpt lat="40.7921200" lon="0.1934850">
        <ele>907.9</ele>
      </trkpt>
      <trkpt lat="40.7920930" lon="0.1934890">
        <ele>910.0</ele>
      </trkpt>
      <trkpt lat="40.7920620" lon="0.1934930">
        <ele>912.2</ele>
      </trkpt>
      <trkpt lat="40.7920480" lon="0.1934590">
        <ele>913.6</ele>
      </trkpt>
      <trkpt lat="40.7920310" lon="0.1934300">
        <ele>916.0</ele>
      </trkpt>
      <trkpt lat="40.7920020" lon="0.1934450">
        <ele>918.5</ele>
      </trkpt>
      <trkpt lat="40.7919760" lon="0.1934800">
        <ele>919.8</ele>
      </trkpt>
      <trkpt lat="40.7919740" lon="0.1935370">
        <ele>918.4</ele>
      </trkpt>
      <trkpt lat="40.7919770" lon="0.1936000">
        <ele>914.8</ele>
      </trkpt>
      <trkpt lat="40.7919900" lon="0.1936370">
        <ele>910.4</ele>
      </trkpt>
      <trkpt lat="40.7920220" lon="0.1936540">
        <ele>908.1</ele>
      </trkpt>
      <trkpt lat="40.7920630" lon="0.1936750">
        <ele>905.8</ele>
      </trkpt>
      <trkpt lat="40.7921000" lon="0.1936800">
        <ele>901.9</ele>
      </trkpt>
      <trkpt lat="40.7923250" lon="0.1937260">
        <ele>886.2</ele>
      </trkpt>
      <trkpt lat="40.7923300" lon="0.1937640">
        <ele>884.6</ele>
      </trkpt>
      <trkpt lat="40.7923190" lon="0.1938150">
        <ele>883.0</ele>
      </trkpt>
      <trkpt lat="40.7923000" lon="0.1938440">
        <ele>884.6</ele>
      </trkpt>
      <trkpt lat="40.7922690" lon="0.1938750">
        <ele>884.9</ele>
      </trkpt>
      <trkpt lat="40.7922270" lon="0.1939120">
        <ele>885.3</ele>
      </trkpt>
      <trkpt lat="40.7921890" lon="0.1939520">
        <ele>885.8</ele>
      </trkpt>
      <trkpt lat="40.7921550" lon="0.1939910">
        <ele>886.2</ele>
      </trkpt>
      <trkpt lat="40.7921280" lon="0.1940300">
        <ele>886.5</ele>
      </trkpt>
      <trkpt lat="40.7921100" lon="0.1940610">
        <ele>886.6</ele>
      </trkpt>
      <trkpt lat="40.7920970" lon="0.1940920">
        <ele>886.8</ele>
      </trkpt>
      <trkpt lat="40.7920940" lon="0.1941530">
        <ele>883.2</ele>
      </trkpt>
      <trkpt lat="40.7921080" lon="0.1942140">
        <ele>881.6</ele>
      </trkpt>
      <trkpt lat="40.7921230" lon="0.1942520">
        <ele>878.2</ele>
      </trkpt>
      <trkpt lat="40.7921350" lon="0.1942990">
        <ele>876.7</ele>
      </trkpt>
      <trkpt lat="40.7921330" lon="0.1943540">
        <ele>875.3</ele>
      </trkpt>
      <trkpt lat="40.7921200" lon="0.1944120">
        <ele>872.5</ele>
      </trkpt>
      <trkpt lat="40.7921100" lon="0.1944700">
        <ele>871.0</ele>
      </trkpt>
      <trkpt lat="40.7920980" lon="0.1945350">
        <ele>871.3</ele>
      </trkpt>
      <trkpt lat="40.7920970" lon="0.1945930">
        <ele>868.4</ele>
      </trkpt>
      <trkpt lat="40.7920940" lon="0.1946490">
        <ele>867.0</ele>
      </trkpt>
      <trkpt lat="40.7920930" lon="0.1947010">
        <ele>865.6</ele>
      </trkpt>
      <trkpt lat="40.7920960" lon="0.1947490">
        <ele>864.3</ele>
      </trkpt>
      <trkpt lat="40.7920990" lon="0.1947940">
        <ele>861.8</ele>
      </trkpt>
      <trkpt lat="40.7921030" lon="0.1948410">
        <ele>860.6</ele>
      </trkpt>
      <trkpt lat="40.7921150" lon="0.1948960">
        <ele>857.7</ele>
      </trkpt>
      <trkpt lat="40.7921270" lon="0.1949580">
        <ele>856.5</ele>
      </trkpt>
      <trkpt lat="40.7921400" lon="0.1950040">
        <ele>855.3</ele>
      </trkpt>
      <trkpt lat="40.7921550" lon="0.1950460">
        <ele>852.2</ele>
      </trkpt>
      <trkpt lat="40.7921700" lon="0.1950940">
        <ele>849.9</ele>
      </trkpt>
      <trkpt lat="40.7921810" lon="0.1951330">
        <ele>848.0</ele>
      </trkpt>
      <trkpt lat="40.7921980" lon="0.1951990">
        <ele>846.1</ele>
      </trkpt>
      <trkpt lat="40.7922030" lon="0.1952440">
        <ele>845.2</ele>
      </trkpt>
      <trkpt lat="40.7922060" lon="0.1952990">
        <ele>844.4</ele>
      </trkpt>
      <trkpt lat="40.7922110" lon="0.1953650">
        <ele>841.1</ele>
      </trkpt>
      <trkpt lat="40.7922250" lon="0.1954460">
        <ele>839.5</ele>
      </trkpt>
      <trkpt lat="40.7922350" lon="0.1955230">
        <ele>837.9</ele>
      </trkpt>
      <trkpt lat="40.7922430" lon="0.1955900">
        <ele>835.6</ele>
      </trkpt>
      <trkpt lat="40.7922500" lon="0.1956520">
        <ele>834.2</ele>
      </trkpt>
      <trkpt lat="40.7922570" lon="0.1957120">
        <ele>833.6</ele>
      </trkpt>
      <trkpt lat="40.7922680" lon="0.1957830">
        <ele>832.3</ele>
      </trkpt>
      <trkpt lat="40.7922780" lon="0.1958720">
        <ele>829.5</ele>
      </trkpt>
      <trkpt lat="40.7922880" lon="0.1959630">
        <ele>828.2</ele>
      </trkpt>
      <trkpt lat="40.7922980" lon="0.1960540">
        <ele>827.1</ele>
      </trkpt>
      <trkpt lat="40.7923060" lon="0.1961440">
        <ele>824.9</ele>
      </trkpt>
      <trkpt lat="40.7923140" lon="0.1962280">
        <ele>823.9</ele>
      </trkpt>
      <trkpt lat="40.7923210" lon="0.1963070">
        <ele>823.0</ele>
      </trkpt>
      <trkpt lat="40.7923230" lon="0.1963780">
        <ele>822.5</ele>
      </trkpt>
      <trkpt lat="40.7923230" lon="0.1964320">
        <ele>821.5</ele>
      </trkpt>
      <trkpt lat="40.7923200" lon="0.1964810">
        <ele>821.2</ele>
      </trkpt>
      <trkpt lat="40.7923130" lon="0.1965330">
        <ele>820.9</ele>
      </trkpt>
      <trkpt lat="40.7923020" lon="0.1965770">
        <ele>823.2</ele>
      </trkpt>
      <trkpt lat="40.7922940" lon="0.1966220">
        <ele>823.3</ele>
      </trkpt>
      <trkpt lat="40.7922870" lon="0.1966870">
        <ele>823.4</ele>
      </trkpt>
      <trkpt lat="40.7922900" lon="0.1967700">
        <ele>823.0</ele>
      </trkpt>
      <trkpt lat="40.7922990" lon="0.1968600">
        <ele>821.8</ele>
      </trkpt>
      <trkpt lat="40.7923140" lon="0.1969530">
        <ele>817.4</ele>
      </trkpt>
      <trkpt lat="40.7923260" lon="0.1970260">
        <ele>815.8</ele>
      </trkpt>
      <trkpt lat="40.7923580" lon="0.1971780">
        <ele>812.0</ele>
      </trkpt>
      <trkpt lat="40.7923520" lon="0.1972270">
        <ele>811.1</ele>
      </trkpt>
      <trkpt lat="40.7923430" lon="0.1972810">
        <ele>810.1</ele>
      </trkpt>
      <trkpt lat="40.7923410" lon="0.1973610">
        <ele>807.7</ele>
      </trkpt>
      <trkpt lat="40.7923570" lon="0.1974460">
        <ele>805.3</ele>
      </trkpt>
      <trkpt lat="40.7923900" lon="0.1975260">
        <ele>801.8</ele>
      </trkpt>
      <trkpt lat="40.7923990" lon="0.1975950">
        <ele>799.3</ele>
      </trkpt>
      <trkpt lat="40.7924250" lon="0.1976750">
        <ele>795.6</ele>
      </trkpt>
      <trkpt lat="40.7924500" lon="0.1976950">
        <ele>794.4</ele>
      </trkpt>
      <trkpt lat="40.7924590" lon="0.1978090">
        <ele>789.5</ele>
      </trkpt>
      <trkpt lat="40.7924490" lon="0.1978760">
        <ele>788.3</ele>
      </trkpt>
      <trkpt lat="40.7924420" lon="0.1979380">
        <ele>786.1</ele>
      </trkpt>
      <trkpt lat="40.7924130" lon="0.1979990">
        <ele>786.2</ele>
      </trkpt>
      <trkpt lat="40.7924200" lon="0.1980810">
        <ele>783.9</ele>
      </trkpt>
      <trkpt lat="40.7924040" lon="0.1981410">
        <ele>781.6</ele>
      </trkpt>
      <trkpt lat="40.7924050" lon="0.1981980">
        <ele>780.4</ele>
      </trkpt>
      <trkpt lat="40.7923900" lon="0.1982690">
        <ele>778.9</ele>
      </trkpt>
      <trkpt lat="40.7923850" lon="0.1983110">
        <ele>778.9</ele>
      </trkpt>
      <trkpt lat="40.7923470" lon="0.1983580">
        <ele>777.5</ele>
      </trkpt>
      <trkpt lat="40.7923340" lon="0.1984260">
        <ele>777.4</ele>
      </trkpt>
      <trkpt lat="40.7923170" lon="0.1985030">
        <ele>774.8</ele>
      </trkpt>
      <trkpt lat="40.7922900" lon="0.1985760">
        <ele>773.1</ele>
      </trkpt>
      <trkpt lat="40.7922570" lon="0.1986510">
        <ele>772.6</ele>
      </trkpt>
      <trkpt lat="40.7922190" lon="0.1987260">
        <ele>770.8</ele>
      </trkpt>
      <trkpt lat="40.7922040" lon="0.1987750">
        <ele>770.7</ele>
      </trkpt>
      <trkpt lat="40.7921960" lon="0.1988390">
        <ele>768.9</ele>
      </trkpt>
      <trkpt lat="40.7921710" lon="0.1988680">
        <ele>770.1</ele>
      </trkpt>
      <trkpt lat="40.7921230" lon="0.1989170">
        <ele>770.0</ele>
      </trkpt>
      <trkpt lat="40.7921000" lon="0.1989630">
        <ele>770.8</ele>
      </trkpt>
      <trkpt lat="40.7921010" lon="0.1990090">
        <ele>769.9</ele>
      </trkpt>
      <trkpt lat="40.7920950" lon="0.1990510">
        <ele>769.0</ele>
      </trkpt>
      <trkpt lat="40.7921310" lon="0.1991960">
        <ele>764.8</ele>
      </trkpt>
      <trkpt lat="40.7921350" lon="0.1992800">
        <ele>763.1</ele>
      </trkpt>
      <trkpt lat="40.7921510" lon="0.1993430">
        <ele>760.4</ele>
      </trkpt>
      <trkpt lat="40.7921600" lon="0.1994000">
        <ele>759.5</ele>
      </trkpt>
      <trkpt lat="40.7921520" lon="0.1994950">
        <ele>757.2</ele>
      </trkpt>
      <trkpt lat="40.7921330" lon="0.1995540">
        <ele>756.8</ele>
      </trkpt>
      <trkpt lat="40.7921480" lon="0.1996390">
        <ele>753.3</ele>
      </trkpt>
      <trkpt lat="40.7921750" lon="0.1997710">
        <ele>746.8</ele>
      </trkpt>
      <trkpt lat="40.7921380" lon="0.1998950">
        <ele>745.0</ele>
      </trkpt>
      <trkpt lat="40.7921280" lon="0.2000140">
        <ele>739.4</ele>
      </trkpt>
      <trkpt lat="40.7921130" lon="0.2001190">
        <ele>733.9</ele>
      </trkpt>
      <trkpt lat="40.7920330" lon="0.2002140">
        <ele>732.9</ele>
      </trkpt>
      <trkpt lat="40.7919920" lon="0.2002910">
        <ele>730.0</ele>
      </trkpt>
      <trkpt lat="40.7920160" lon="0.2003450">
        <ele>727.1</ele>
      </trkpt>
      <trkpt lat="40.7920510" lon="0.2004090">
        <ele>724.2</ele>
      </trkpt>
      <trkpt lat="40.7920420" lon="0.2004640">
        <ele>721.0</ele>
      </trkpt>
      <trkpt lat="40.7920710" lon="0.2005350">
        <ele>718.3</ele>
      </trkpt>
      <trkpt lat="40.7920450" lon="0.2005990">
        <ele>714.6</ele>
      </trkpt>
      <trkpt lat="40.7920120" lon="0.2006640">
        <ele>713.6</ele>
      </trkpt>
      <trkpt lat="40.7919600" lon="0.2007030">
        <ele>713.4</ele>
      </trkpt>
      <trkpt lat="40.7919330" lon="0.2007630">
        <ele>710.6</ele>
      </trkpt>
      <trkpt lat="40.7918830" lon="0.2008310">
        <ele>709.5</ele>
      </trkpt>
      <trkpt lat="40.7918600" lon="0.2008850">
        <ele>708.3</ele>
      </trkpt>
      <trkpt lat="40.7918430" lon="0.2009480">
        <ele>705.5</ele>
      </trkpt>
      <trkpt lat="40.7918010" lon="0.2009970">
        <ele>704.5</ele>
      </trkpt>
      <trkpt lat="40.7917880" lon="0.2010600">
        <ele>701.3</ele>
      </trkpt>
      <trkpt lat="40.7917920" lon="0.2011210">
        <ele>699.8</ele>
      </trkpt>
      <trkpt lat="40.7917940" lon="0.2011690">
        <ele>698.3</ele>
      </trkpt>
      <trkpt lat="40.7918090" lon="0.2012590">
        <ele>695.3</ele>
      </trkpt>
      <trkpt lat="40.7918060" lon="0.2013070">
        <ele>693.9</ele>
      </trkpt>
      <trkpt lat="40.7918080" lon="0.2013900">
        <ele>691.1</ele>
      </trkpt>
      <trkpt lat="40.7918210" lon="0.2014730">
        <ele>688.5</ele>
      </trkpt>
      <trkpt lat="40.7918390" lon="0.2015240">
        <ele>687.6</ele>
      </trkpt>
      <trkpt lat="40.7918490" lon="0.2015670">
        <ele>686.7</ele>
      </trkpt>
      <trkpt lat="40.7918630" lon="0.2016540">
        <ele>685.0</ele>
      </trkpt>
      <trkpt lat="40.7918580" lon="0.2017320">
        <ele>683.6</ele>
      </trkpt>
      <trkpt lat="40.7918170" lon="0.2017830">
        <ele>683.0</ele>
      </trkpt>
      <trkpt lat="40.7918460" lon="0.2018730">
        <ele>681.9</ele>
      </trkpt>
      <trkpt lat="40.7915040" lon="0.2019280">
        <ele>682.4</ele>
      </trkpt>
      <trkpt lat="40.7913300" lon="0.2019620">
        <ele>684.6</ele>
      </trkpt>
      <trkpt lat="40.7912960" lon="0.2019770">
        <ele>686.4</ele>
      </trkpt>
      <trkpt lat="40.7912580" lon="0.2019800">
        <ele>687.3</ele>
      </trkpt>
      <trkpt lat="40.7912270" lon="0.2019940">
        <ele>688.2</ele>
      </trkpt>
      <trkpt lat="40.7911990" lon="0.2020160">
        <ele>688.1</ele>
      </trkpt>
      <trkpt lat="40.7911560" lon="0.2020380">
        <ele>689.1</ele>
      </trkpt>
      <trkpt lat="40.7911060" lon="0.2020510">
        <ele>689.1</ele>
      </trkpt>
      <trkpt lat="40.7910790" lon="0.2020590">
        <ele>690.2</ele>
      </trkpt>
      <trkpt lat="40.7911010" lon="0.2021170">
        <ele>689.1</ele>
      </trkpt>
      <trkpt lat="40.7911300" lon="0.2021450">
        <ele>686.9</ele>
      </trkpt>
      <trkpt lat="40.7911620" lon="0.2021420">
        <ele>685.9</ele>
      </trkpt>
      <trkpt lat="40.7911980" lon="0.2021380">
        <ele>685.0</ele>
      </trkpt>
      <trkpt lat="40.7912440" lon="0.2021330">
        <ele>683.4</ele>
      </trkpt>
      <trkpt lat="40.7913040" lon="0.2021260">
        <ele>682.9</ele>
      </trkpt>
      <trkpt lat="40.7913640" lon="0.2021280">
        <ele>681.6</ele>
      </trkpt>
      <trkpt lat="40.7913920" lon="0.2021360">
        <ele>680.8</ele>
      </trkpt>
      <trkpt lat="40.7913990" lon="0.2021820">
        <ele>679.7</ele>
      </trkpt>
      <trkpt lat="40.7913950" lon="0.2022270">
        <ele>679.1</ele>
      </trkpt>
      <trkpt lat="40.7913960" lon="0.2022820">
        <ele>678.6</ele>
      </trkpt>
      <trkpt lat="40.7913950" lon="0.2023240">
        <ele>678.3</ele>
      </trkpt>
      <trkpt lat="40.7913660" lon="0.2023510">
        <ele>678.4</ele>
      </trkpt>
      <trkpt lat="40.7913470" lon="0.2023900">
        <ele>678.7</ele>
      </trkpt>
      <trkpt lat="40.7913410" lon="0.2024330">
        <ele>678.7</ele>
      </trkpt>
      <trkpt lat="40.7913180" lon="0.2024630">
        <ele>679.1</ele>
      </trkpt>
      <trkpt lat="40.7912910" lon="0.2024390">
        <ele>679.6</ele>
      </trkpt>
      <trkpt lat="40.7912950" lon="0.2024790">
        <ele>679.6</ele>
      </trkpt>
      <trkpt lat="40.7912810" lon="0.2025200">
        <ele>679.7</ele>
      </trkpt>
      <trkpt lat="40.7912920" lon="0.2025560">
        <ele>679.7</ele>
      </trkpt>
      <trkpt lat="40.7913250" lon="0.2025490">
        <ele>679.4</ele>
      </trkpt>
      <trkpt lat="40.7913490" lon="0.2025690">
        <ele>679.1</ele>
      </trkpt>
      <trkpt lat="40.7913790" lon="0.2025640">
        <ele>678.7</ele>
      </trkpt>
      <trkpt lat="40.7914090" lon="0.2025600">
        <ele>678.4</ele>
      </trkpt>
      <trkpt lat="40.7914380" lon="0.2025600">
        <ele>678.2</ele>
      </trkpt>
      <trkpt lat="40.7914740" lon="0.2025530">
        <ele>678.0</ele>
      </trkpt>
      <trkpt lat="40.7914450" lon="0.2025500">
        <ele>678.2</ele>
      </trkpt>
      <trkpt lat="40.7914410" lon="0.2025110">
        <ele>678.2</ele>
      </trkpt>
      <trkpt lat="40.7914160" lon="0.2025340">
        <ele>678.5</ele>
      </trkpt>
      <trkpt lat="40.7913850" lon="0.2025500">
        <ele>678.8</ele>
      </trkpt>
      <trkpt lat="40.7913590" lon="0.2025620">
        <ele>679.3</ele>
      </trkpt>
      <trkpt lat="40.7913400" lon="0.2025940">
        <ele>679.3</ele>
      </trkpt>
      <trkpt lat="40.7913170" lon="0.2026230">
        <ele>679.7</ele>
      </trkpt>
      <trkpt lat="40.7913270" lon="0.2026630">
        <ele>679.7</ele>
      </trkpt>
      <trkpt lat="40.7913090" lon="0.2026900">
        <ele>679.6</ele>
      </trkpt>
      <trkpt lat="40.7912810" lon="0.2027200">
        <ele>680.0</ele>
      </trkpt>
      <trkpt lat="40.7912520" lon="0.2027520">
        <ele>680.2</ele>
      </trkpt>
      <trkpt lat="40.7912220" lon="0.2027890">
        <ele>680.5</ele>
      </trkpt>
      <trkpt lat="40.7911780" lon="0.2028270">
        <ele>681.0</ele>
      </trkpt>
      <trkpt lat="40.7911540" lon="0.2028550">
        <ele>681.2</ele>
      </trkpt>
      <trkpt lat="40.7911290" lon="0.2028880">
        <ele>681.3</ele>
      </trkpt>
      <trkpt lat="40.7910970" lon="0.2029210">
        <ele>681.5</ele>
      </trkpt>
      <trkpt lat="40.7910670" lon="0.2029470">
        <ele>681.6</ele>
      </trkpt>
      <trkpt lat="40.7910170" lon="0.2029630">
        <ele>681.8</ele>
      </trkpt>
      <trkpt lat="40.7909810" lon="0.2029750">
        <ele>682.0</ele>
      </trkpt>
      <trkpt lat="40.7909470" lon="0.2029890">
        <ele>682.1</ele>
      </trkpt>
      <trkpt lat="40.7909200" lon="0.2029960">
        <ele>682.2</ele>
      </trkpt>
      <trkpt lat="40.7908910" lon="0.2029960">
        <ele>682.3</ele>
      </trkpt>
      <trkpt lat="40.7908640" lon="0.2029950">
        <ele>682.4</ele>
      </trkpt>
      <trkpt lat="40.7908330" lon="0.2029850">
        <ele>682.6</ele>
      </trkpt>
      <trkpt lat="40.7908010" lon="0.2029830">
        <ele>682.8</ele>
      </trkpt>
      <trkpt lat="40.7907690" lon="0.2029900">
        <ele>682.9</ele>
      </trkpt>
      <trkpt lat="40.7907420" lon="0.2030000">
        <ele>683.0</ele>
      </trkpt>
      <trkpt lat="40.7907160" lon="0.2030120">
        <ele>683.1</ele>
      </trkpt>
      <trkpt lat="40.7906680" lon="0.2030410">
        <ele>683.3</ele>
      </trkpt>
      <trkpt lat="40.7906250" lon="0.2030540">
        <ele>683.5</ele>
      </trkpt>
      <trkpt lat="40.7905850" lon="0.2030630">
        <ele>683.6</ele>
      </trkpt>
      <trkpt lat="40.7905580" lon="0.2030720">
        <ele>683.7</ele>
      </trkpt>
      <trkpt lat="40.7905160" lon="0.2030860">
        <ele>683.9</ele>
      </trkpt>
      <trkpt lat="40.7904510" lon="0.2030870">
        <ele>684.3</ele>
      </trkpt>
      <trkpt lat="40.7904060" lon="0.2030870">
        <ele>684.5</ele>
      </trkpt>
      <trkpt lat="40.7903710" lon="0.2030890">
        <ele>684.7</ele>
      </trkpt>
      <trkpt lat="40.7903350" lon="0.2030920">
        <ele>684.9</ele>
      </trkpt>
      <trkpt lat="40.7903060" lon="0.2030970">
        <ele>685.1</ele>
      </trkpt>
      <trkpt lat="40.7902660" lon="0.2031160">
        <ele>685.4</ele>
      </trkpt>
      <trkpt lat="40.7902270" lon="0.2031520">
        <ele>685.7</ele>
      </trkpt>
      <trkpt lat="40.7901980" lon="0.2031690">
        <ele>685.9</ele>
      </trkpt>
      <trkpt lat="40.7901680" lon="0.2031860">
        <ele>686.2</ele>
      </trkpt>
      <trkpt lat="40.7901380" lon="0.2032010">
        <ele>686.5</ele>
      </trkpt>
      <trkpt lat="40.7901040" lon="0.2032330">
        <ele>686.7</ele>
      </trkpt>
      <trkpt lat="40.7900860" lon="0.2032770">
        <ele>686.9</ele>
      </trkpt>
      <trkpt lat="40.7900700" lon="0.2033150">
        <ele>687.0</ele>
      </trkpt>
      <trkpt lat="40.7900550" lon="0.2033550">
        <ele>687.1</ele>
      </trkpt>
      <trkpt lat="40.7900270" lon="0.2033680">
        <ele>687.2</ele>
      </trkpt>
      <trkpt lat="40.7899930" lon="0.2033560">
        <ele>687.4</ele>
      </trkpt>
      <trkpt lat="40.7899510" lon="0.2033530">
        <ele>687.7</ele>
      </trkpt>
      <trkpt lat="40.7899200" lon="0.2033260">
        <ele>687.9</ele>
      </trkpt>
      <trkpt lat="40.7899020" lon="0.2033630">
        <ele>688.2</ele>
      </trkpt>
      <trkpt lat="40.7899380" lon="0.2034660">
        <ele>688.9</ele>
      </trkpt>
      <trkpt lat="40.7899080" lon="0.2034380">
        <ele>689.2</ele>
      </trkpt>
      <trkpt lat="40.7899180" lon="0.2035080">
        <ele>689.6</ele>
      </trkpt>
      <trkpt lat="40.7899250" lon="0.2035550">
        <ele>689.8</ele>
      </trkpt>
      <trkpt lat="40.7899260" lon="0.2036220">
        <ele>690.5</ele>
      </trkpt>
      <trkpt lat="40.7899210" lon="0.2036970">
        <ele>690.9</ele>
      </trkpt>
      <trkpt lat="40.7899140" lon="0.2037530">
        <ele>691.3</ele>
      </trkpt>
      <trkpt lat="40.7899410" lon="0.2036530">
        <ele>692.0</ele>
      </trkpt>
      <trkpt lat="40.7899810" lon="0.2035940">
        <ele>691.5</ele>
      </trkpt>
      <trkpt lat="40.7899890" lon="0.2035500">
        <ele>691.1</ele>
      </trkpt>
      <trkpt lat="40.7899870" lon="0.2035010">
        <ele>690.8</ele>
      </trkpt>
      <trkpt lat="40.7899740" lon="0.2034220">
        <ele>690.1</ele>
      </trkpt>
      <trkpt lat="40.7899680" lon="0.2033710">
        <ele>689.7</ele>
      </trkpt>
      <trkpt lat="40.7899780" lon="0.2033300">
        <ele>689.5</ele>
      </trkpt>
      <trkpt lat="40.7900040" lon="0.2033150">
        <ele>689.2</ele>
      </trkpt>
      <trkpt lat="40.7900330" lon="0.2033090">
        <ele>689.0</ele>
      </trkpt>
      <trkpt lat="40.7900350" lon="0.2032560">
        <ele>688.7</ele>
      </trkpt>
      <trkpt lat="40.7900400" lon="0.2032030">
        <ele>688.4</ele>
      </trkpt>
      <trkpt lat="40.7900760" lon="0.2031460">
        <ele>687.8</ele>
      </trkpt>
      <trkpt lat="40.7901020" lon="0.2031170">
        <ele>687.6</ele>
      </trkpt>
      <trkpt lat="40.7901300" lon="0.2030920">
        <ele>687.3</ele>
      </trkpt>
      <trkpt lat="40.7901560" lon="0.2030680">
        <ele>687.2</ele>
      </trkpt>
      <trkpt lat="40.7902030" lon="0.2030260">
        <ele>687.0</ele>
      </trkpt>
      <trkpt lat="40.7902270" lon="0.2030020">
        <ele>686.9</ele>
      </trkpt>
      <trkpt lat="40.7902480" lon="0.2029780">
        <ele>686.7</ele>
      </trkpt>
      <trkpt lat="40.7902760" lon="0.2029460">
        <ele>686.5</ele>
      </trkpt>
      <trkpt lat="40.7903100" lon="0.2029290">
        <ele>686.2</ele>
      </trkpt>
      <trkpt lat="40.7903400" lon="0.2029210">
        <ele>685.9</ele>
      </trkpt>
      <trkpt lat="40.7903710" lon="0.2029150">
        <ele>685.7</ele>
      </trkpt>
      <trkpt lat="40.7904110" lon="0.2029140">
        <ele>685.4</ele>
      </trkpt>
      <trkpt lat="40.7904490" lon="0.2029230">
        <ele>685.1</ele>
      </trkpt>
      <trkpt lat="40.7904860" lon="0.2029370">
        <ele>684.9</ele>
      </trkpt>
      <trkpt lat="40.7905230" lon="0.2029570">
        <ele>684.6</ele>
      </trkpt>
      <trkpt lat="40.7905750" lon="0.2029730">
        <ele>684.3</ele>
      </trkpt>
      <trkpt lat="40.7906270" lon="0.2029890">
        <ele>683.9</ele>
      </trkpt>
      <trkpt lat="40.7906740" lon="0.2029970">
        <ele>683.8</ele>
      </trkpt>
      <trkpt lat="40.7907120" lon="0.2030000">
        <ele>683.6</ele>
      </trkpt>
      <trkpt lat="40.7907420" lon="0.2030040">
        <ele>683.5</ele>
      </trkpt>
      <trkpt lat="40.7907730" lon="0.2030100">
        <ele>683.4</ele>
      </trkpt>
      <trkpt lat="40.7908050" lon="0.2030220">
        <ele>683.2</ele>
      </trkpt>
      <trkpt lat="40.7908370" lon="0.2030460">
        <ele>683.1</ele>
      </trkpt>
      <trkpt lat="40.7908590" lon="0.2030690">
        <ele>683.0</ele>
      </trkpt>
      <trkpt lat="40.7909000" lon="0.2031060">
        <ele>682.8</ele>
      </trkpt>
      <trkpt lat="40.7909480" lon="0.2031220">
        <ele>682.5</ele>
      </trkpt>
      <trkpt lat="40.7909760" lon="0.2031220">
        <ele>682.4</ele>
      </trkpt>
      <trkpt lat="40.7910070" lon="0.2031250">
        <ele>682.3</ele>
      </trkpt>
      <trkpt lat="40.7910440" lon="0.2031330">
        <ele>682.1</ele>
      </trkpt>
      <trkpt lat="40.7910830" lon="0.2031470">
        <ele>681.9</ele>
      </trkpt>
      <trkpt lat="40.7911180" lon="0.2031610">
        <ele>681.8</ele>
      </trkpt>
      <trkpt lat="40.7911490" lon="0.2031650">
        <ele>681.6</ele>
      </trkpt>
      <trkpt lat="40.7911900" lon="0.2031640">
        <ele>681.5</ele>
      </trkpt>
      <trkpt lat="40.7912340" lon="0.2031770">
        <ele>681.3</ele>
      </trkpt>
      <trkpt lat="40.7912850" lon="0.2031630">
        <ele>681.1</ele>
      </trkpt>
      <trkpt lat="40.7913370" lon="0.2031290">
        <ele>680.8</ele>
      </trkpt>
      <trkpt lat="40.7913640" lon="0.2031070">
        <ele>680.6</ele>
      </trkpt>
      <trkpt lat="40.7914020" lon="0.2030680">
        <ele>680.4</ele>
      </trkpt>
      <trkpt lat="40.7914380" lon="0.2030210">
        <ele>680.1</ele>
      </trkpt>
      <trkpt lat="40.7914640" lon="0.2029870">
        <ele>679.9</ele>
      </trkpt>
      <trkpt lat="40.7914800" lon="0.2029540">
        <ele>679.8</ele>
      </trkpt>
      <trkpt lat="40.7914980" lon="0.2028970">
        <ele>679.4</ele>
      </trkpt>
      <trkpt lat="40.7915170" lon="0.2028310">
        <ele>679.1</ele>
      </trkpt>
      <trkpt lat="40.7915280" lon="0.2027890">
        <ele>679.0</ele>
      </trkpt>
      <trkpt lat="40.7915400" lon="0.2027490">
        <ele>679.0</ele>
      </trkpt>
      <trkpt lat="40.7915590" lon="0.2026950">
        <ele>678.9</ele>
      </trkpt>
      <trkpt lat="40.7915710" lon="0.2026600">
        <ele>678.8</ele>
      </trkpt>
      <trkpt lat="40.7915880" lon="0.2026140">
        <ele>678.8</ele>
      </trkpt>
      <trkpt lat="40.7916110" lon="0.2025630">
        <ele>678.7</ele>
      </trkpt>
      <trkpt lat="40.7916390" lon="0.2025150">
        <ele>678.7</ele>
      </trkpt>
      <trkpt lat="40.7916730" lon="0.2024620">
        <ele>678.6</ele>
      </trkpt>
      <trkpt lat="40.7917020" lon="0.2024190">
        <ele>678.5</ele>
      </trkpt>
      <trkpt lat="40.7917290" lon="0.2023810">
        <ele>678.4</ele>
      </trkpt>
      <trkpt lat="40.7917630" lon="0.2023420">
        <ele>678.3</ele>
      </trkpt>
      <trkpt lat="40.7918050" lon="0.2023010">
        <ele>678.2</ele>
      </trkpt>
      <trkpt lat="40.7918480" lon="0.2022630">
        <ele>678.0</ele>
      </trkpt>
      <trkpt lat="40.7919010" lon="0.2021990">
        <ele>677.8</ele>
      </trkpt>
      <trkpt lat="40.7919550" lon="0.2021450">
        <ele>677.6</ele>
      </trkpt>
      <trkpt lat="40.7920070" lon="0.2020960">
        <ele>677.5</ele>
      </trkpt>
      <trkpt lat="40.7920670" lon="0.2020450">
        <ele>677.4</ele>
      </trkpt>
      <trkpt lat="40.7921130" lon="0.2020090">
        <ele>677.3</ele>
      </trkpt>
      <trkpt lat="40.7921600" lon="0.2019750">
        <ele>677.2</ele>
      </trkpt>
      <trkpt lat="40.7921950" lon="0.2019390">
        <ele>677.1</ele>
      </trkpt>
      <trkpt lat="40.7922510" lon="0.2019090">
        <ele>677.0</ele>
      </trkpt>
      <trkpt lat="40.7923230" lon="0.2018870">
        <ele>676.9</ele>
      </trkpt>
      <trkpt lat="40.7924210" lon="0.2019420">
        <ele>676.7</ele>
      </trkpt>
      <trkpt lat="40.7924710" lon="0.2019680">
        <ele>676.6</ele>
      </trkpt>
      <trkpt lat="40.7925230" lon="0.2019710">
        <ele>676.4</ele>
      </trkpt>
      <trkpt lat="40.7927610" lon="0.2019420">
        <ele>676.0</ele>
      </trkpt>
      <trkpt lat="40.7927900" lon="0.2019710">
        <ele>676.0</ele>
      </trkpt>
      <trkpt lat="40.7927260" lon="0.2020970">
        <ele>675.8</ele>
      </trkpt>
      <trkpt lat="40.7927800" lon="0.2020720">
        <ele>675.7</ele>
      </trkpt>
      <trkpt lat="40.7928210" lon="0.2020390">
        <ele>675.6</ele>
      </trkpt>
      <trkpt lat="40.7928800" lon="0.2020490">
        <ele>675.6</ele>
      </trkpt>
      <trkpt lat="40.7928830" lon="0.2020970">
        <ele>675.5</ele>
      </trkpt>
      <trkpt lat="40.7929440" lon="0.2021190">
        <ele>675.5</ele>
      </trkpt>
      <trkpt lat="40.7929850" lon="0.2021240">
        <ele>675.4</ele>
      </trkpt>
      <trkpt lat="40.7930150" lon="0.2021450">
        <ele>675.4</ele>
      </trkpt>
      <trkpt lat="40.7930550" lon="0.2021530">
        <ele>675.4</ele>
      </trkpt>
      <trkpt lat="40.7930990" lon="0.2021520">
        <ele>675.4</ele>
      </trkpt>
      <trkpt lat="40.7931390" lon="0.2021520">
        <ele>675.4</ele>
      </trkpt>
      <trkpt lat="40.7931800" lon="0.2021450">
        <ele>675.4</ele>
      </trkpt>
      <trkpt lat="40.7932120" lon="0.2021310">
        <ele>675.4</ele>
      </trkpt>
      <trkpt lat="40.7932400" lon="0.2021140">
        <ele>675.4</ele>
      </trkpt>
      <trkpt lat="40.7932720" lon="0.2020980">
        <ele>675.3</ele>
      </trkpt>
      <trkpt lat="40.7933150" lon="0.2020830">
        <ele>675.3</ele>
      </trkpt>
      <trkpt lat="40.7933450" lon="0.2020830">
        <ele>675.3</ele>
      </trkpt>
      <trkpt lat="40.7933870" lon="0.2021060">
        <ele>675.2</ele>
      </trkpt>
      <trkpt lat="40.7934080" lon="0.2021750">
        <ele>675.2</ele>
      </trkpt>
      <trkpt lat="40.7934390" lon="0.2022280">
        <ele>675.1</ele>
      </trkpt>
      <trkpt lat="40.7934870" lon="0.2022710">
        <ele>674.9</ele>
      </trkpt>
      <trkpt lat="40.7935250" lon="0.2023020">
        <ele>674.8</ele>
      </trkpt>
      <trkpt lat="40.7935530" lon="0.2023450">
        <ele>674.7</ele>
      </trkpt>
      <trkpt lat="40.7935700" lon="0.2023910">
        <ele>674.6</ele>
      </trkpt>
      <trkpt lat="40.7935840" lon="0.2024290">
        <ele>674.5</ele>
      </trkpt>
      <trkpt lat="40.7935920" lon="0.2024670">
        <ele>674.4</ele>
      </trkpt>
      <trkpt lat="40.7936010" lon="0.2025080">
        <ele>674.4</ele>
      </trkpt>
      <trkpt lat="40.7936220" lon="0.2025490">
        <ele>674.3</ele>
      </trkpt>
      <trkpt lat="40.7938140" lon="0.2024540">
        <ele>674.1</ele>
      </trkpt>
      <trkpt lat="40.7938630" lon="0.2024310">
        <ele>674.0</ele>
      </trkpt>
      <trkpt lat="40.7938910" lon="0.2024280">
        <ele>673.9</ele>
      </trkpt>
      <trkpt lat="40.7939360" lon="0.2024620">
        <ele>673.8</ele>
      </trkpt>
      <trkpt lat="40.7939600" lon="0.2024930">
        <ele>673.8</ele>
      </trkpt>
      <trkpt lat="40.7939760" lon="0.2025220">
        <ele>673.7</ele>
      </trkpt>
      <trkpt lat="40.7939960" lon="0.2025610">
        <ele>673.7</ele>
      </trkpt>
      <trkpt lat="40.7940170" lon="0.2026030">
        <ele>673.6</ele>
      </trkpt>
      <trkpt lat="40.7940340" lon="0.2026370">
        <ele>673.6</ele>
      </trkpt>
      <trkpt lat="40.7940580" lon="0.2026570">
        <ele>673.5</ele>
      </trkpt>
      <trkpt lat="40.7940850" lon="0.2026830">
        <ele>673.4</ele>
      </trkpt>
      <trkpt lat="40.7941080" lon="0.2027100">
        <ele>673.4</ele>
      </trkpt>
      <trkpt lat="40.7941420" lon="0.2027250">
        <ele>673.3</ele>
      </trkpt>
      <trkpt lat="40.7941720" lon="0.2027300">
        <ele>673.2</ele>
      </trkpt>
      <trkpt lat="40.7942030" lon="0.2027330">
        <ele>673.2</ele>
      </trkpt>
      <trkpt lat="40.7942420" lon="0.2027340">
        <ele>673.1</ele>
      </trkpt>
      <trkpt lat="40.7942940" lon="0.2027430">
        <ele>673.0</ele>
      </trkpt>
      <trkpt lat="40.7943430" lon="0.2027590">
        <ele>673.0</ele>
      </trkpt>
      <trkpt lat="40.7943860" lon="0.2027780">
        <ele>673.0</ele>
      </trkpt>
      <trkpt lat="40.7944290" lon="0.2027920">
        <ele>673.0</ele>
      </trkpt>
      <trkpt lat="40.7944710" lon="0.2028010">
        <ele>673.0</ele>
      </trkpt>
      <trkpt lat="40.7945120" lon="0.2028090">
        <ele>673.0</ele>
      </trkpt>
      <trkpt lat="40.7945490" lon="0.2028070">
        <ele>673.0</ele>
      </trkpt>
      <trkpt lat="40.7945810" lon="0.2028040">
        <ele>672.9</ele>
      </trkpt>
      <trkpt lat="40.7946120" lon="0.2027980">
        <ele>672.9</ele>
      </trkpt>
      <trkpt lat="40.7946480" lon="0.2027930">
        <ele>672.9</ele>
      </trkpt>
      <trkpt lat="40.7947000" lon="0.2027890">
        <ele>672.9</ele>
      </trkpt>
      <trkpt lat="40.7947390" lon="0.2027880">
        <ele>672.9</ele>
      </trkpt>
      <trkpt lat="40.7947700" lon="0.2027840">
        <ele>672.9</ele>
      </trkpt>
      <trkpt lat="40.7948010" lon="0.2028010">
        <ele>672.9</ele>
      </trkpt>
      <trkpt lat="40.7948340" lon="0.2028120">
        <ele>672.9</ele>
      </trkpt>
      <trkpt lat="40.7948640" lon="0.2028200">
        <ele>672.9</ele>
      </trkpt>
      <trkpt lat="40.7948950" lon="0.2028250">
        <ele>672.9</ele>
      </trkpt>
      <trkpt lat="40.7949320" lon="0.2028330">
        <ele>672.9</ele>
      </trkpt>
      <trkpt lat="40.7949810" lon="0.2028340">
        <ele>672.9</ele>
      </trkpt>
      <trkpt lat="40.7950290" lon="0.2028380">
        <ele>672.9</ele>
      </trkpt>
      <trkpt lat="40.7950820" lon="0.2028410">
        <ele>672.9</ele>
      </trkpt>
      <trkpt lat="40.7951430" lon="0.2028400">
        <ele>672.9</ele>
      </trkpt>
      <trkpt lat="40.7952040" lon="0.2028430">
        <ele>672.9</ele>
      </trkpt>
      <trkpt lat="40.7955850" lon="0.2028390">
        <ele>672.7</ele>
      </trkpt>
      <trkpt lat="40.7956970" lon="0.2028030">
        <ele>672.6</ele>
      </trkpt>
      <trkpt lat="40.7958140" lon="0.2027490">
        <ele>670.1</ele>
      </trkpt>
      <trkpt lat="40.7958660" lon="0.2027570">
        <ele>669.6</ele>
      </trkpt>
      <trkpt lat="40.7959300" lon="0.2028260">
        <ele>669.1</ele>
      </trkpt>
      <trkpt lat="40.7959470" lon="0.2028740">
        <ele>669.3</ele>
      </trkpt>
      <trkpt lat="40.7959850" lon="0.2028910">
        <ele>669.1</ele>
      </trkpt>
      <trkpt lat="40.7960260" lon="0.2029130">
        <ele>669.5</ele>
      </trkpt>
      <trkpt lat="40.7960550" lon="0.2029310">
        <ele>669.4</ele>
      </trkpt>
      <trkpt lat="40.7961010" lon="0.2029390">
        <ele>669.3</ele>
      </trkpt>
      <trkpt lat="40.7961290" lon="0.2029410">
        <ele>669.2</ele>
      </trkpt>
      <trkpt lat="40.7961650" lon="0.2029200">
        <ele>669.2</ele>
      </trkpt>
      <trkpt lat="40.7962080" lon="0.2029030">
        <ele>668.5</ele>
      </trkpt>
      <trkpt lat="40.7962530" lon="0.2028900">
        <ele>668.7</ele>
      </trkpt>
      <trkpt lat="40.7962840" lon="0.2028990">
        <ele>669.0</ele>
      </trkpt>
      <trkpt lat="40.7963150" lon="0.2029170">
        <ele>669.9</ele>
      </trkpt>
      <trkpt lat="40.7963510" lon="0.2029560">
        <ele>670.7</ele>
      </trkpt>
      <trkpt lat="40.7963840" lon="0.2030020">
        <ele>671.5</ele>
      </trkpt>
      <trkpt lat="40.7964080" lon="0.2030410">
        <ele>672.2</ele>
      </trkpt>
      <trkpt lat="40.7964300" lon="0.2030700">
        <ele>672.5</ele>
      </trkpt>
      <trkpt lat="40.7964530" lon="0.2030940">
        <ele>672.4</ele>
      </trkpt>
      <trkpt lat="40.7964730" lon="0.2031210">
        <ele>672.3</ele>
      </trkpt>
      <trkpt lat="40.7964890" lon="0.2031490">
        <ele>672.2</ele>
      </trkpt>
      <trkpt lat="40.7965180" lon="0.2031650">
        <ele>672.1</ele>
      </trkpt>
      <trkpt lat="40.7965590" lon="0.2031770">
        <ele>672.0</ele>
      </trkpt>
      <trkpt lat="40.7965940" lon="0.2032110">
        <ele>671.8</ele>
      </trkpt>
      <trkpt lat="40.7966330" lon="0.2032560">
        <ele>671.6</ele>
      </trkpt>
      <trkpt lat="40.7966680" lon="0.2032870">
        <ele>671.5</ele>
      </trkpt>
      <trkpt lat="40.7966980" lon="0.2033020">
        <ele>671.5</ele>
      </trkpt>
      <trkpt lat="40.7967340" lon="0.2033090">
        <ele>671.4</ele>
      </trkpt>
      <trkpt lat="40.7967750" lon="0.2033020">
        <ele>671.3</ele>
      </trkpt>
      <trkpt lat="40.7968110" lon="0.2033040">
        <ele>671.2</ele>
      </trkpt>
      <trkpt lat="40.7968450" lon="0.2033270">
        <ele>671.2</ele>
      </trkpt>
      <trkpt lat="40.7968750" lon="0.2033520">
        <ele>671.1</ele>
      </trkpt>
      <trkpt lat="40.7969070" lon="0.2033750">
        <ele>671.0</ele>
      </trkpt>
      <trkpt lat="40.7969430" lon="0.2033990">
        <ele>671.0</ele>
      </trkpt>
      <trkpt lat="40.7969920" lon="0.2034110">
        <ele>670.9</ele>
      </trkpt>
      <trkpt lat="40.7970420" lon="0.2034170">
        <ele>670.9</ele>
      </trkpt>
      <trkpt lat="40.7970930" lon="0.2034200">
        <ele>670.9</ele>
      </trkpt>
      <trkpt lat="40.7971400" lon="0.2034160">
        <ele>670.9</ele>
      </trkpt>
      <trkpt lat="40.7971810" lon="0.2034000">
        <ele>671.0</ele>
      </trkpt>
      <trkpt lat="40.7972190" lon="0.2033820">
        <ele>671.0</ele>
      </trkpt>
      <trkpt lat="40.7972540" lon="0.2033710">
        <ele>671.0</ele>
      </trkpt>
      <trkpt lat="40.7972850" lon="0.2033670">
        <ele>670.8</ele>
      </trkpt>
      <trkpt lat="40.7973210" lon="0.2033640">
        <ele>670.5</ele>
      </trkpt>
      <trkpt lat="40.7973610" lon="0.2033450">
        <ele>670.3</ele>
      </trkpt>
      <trkpt lat="40.7975980" lon="0.2031020">
        <ele>668.5</ele>
      </trkpt>
      <trkpt lat="40.7976130" lon="0.2030650">
        <ele>668.3</ele>
      </trkpt>
      <trkpt lat="40.7976590" lon="0.2030220">
        <ele>667.9</ele>
      </trkpt>
      <trkpt lat="40.7976850" lon="0.2029920">
        <ele>667.6</ele>
      </trkpt>
      <trkpt lat="40.7977130" lon="0.2029640">
        <ele>667.4</ele>
      </trkpt>
      <trkpt lat="40.7977530" lon="0.2029330">
        <ele>667.0</ele>
      </trkpt>
      <trkpt lat="40.7977860" lon="0.2028960">
        <ele>666.7</ele>
      </trkpt>
      <trkpt lat="40.7978230" lon="0.2028570">
        <ele>666.5</ele>
      </trkpt>
      <trkpt lat="40.7978560" lon="0.2027860">
        <ele>666.2</ele>
      </trkpt>
      <trkpt lat="40.7979140" lon="0.2027830">
        <ele>665.8</ele>
      </trkpt>
      <trkpt lat="40.7979670" lon="0.2027600">
        <ele>665.4</ele>
      </trkpt>
      <trkpt lat="40.7980090" lon="0.2027440">
        <ele>665.3</ele>
      </trkpt>
      <trkpt lat="40.7980410" lon="0.2027200">
        <ele>665.1</ele>
      </trkpt>
      <trkpt lat="40.7980680" lon="0.2026850">
        <ele>665.0</ele>
      </trkpt>
      <trkpt lat="40.7980840" lon="0.2026390">
        <ele>664.8</ele>
      </trkpt>
      <trkpt lat="40.7980930" lon="0.2025590">
        <ele>664.5</ele>
      </trkpt>
      <trkpt lat="40.7980980" lon="0.2024780">
        <ele>664.1</ele>
      </trkpt>
      <trkpt lat="40.7980900" lon="0.2024090">
        <ele>663.9</ele>
      </trkpt>
      <trkpt lat="40.7980770" lon="0.2023530">
        <ele>663.7</ele>
      </trkpt>
      <trkpt lat="40.7980640" lon="0.2022850">
        <ele>663.5</ele>
      </trkpt>
      <trkpt lat="40.7980560" lon="0.2022290">
        <ele>663.3</ele>
      </trkpt>
      <trkpt lat="40.7980870" lon="0.2022240">
        <ele>663.2</ele>
      </trkpt>
      <trkpt lat="40.7981340" lon="0.2022510">
        <ele>663.0</ele>
      </trkpt>
      <trkpt lat="40.7981780" lon="0.2022380">
        <ele>662.9</ele>
      </trkpt>
      <trkpt lat="40.7982190" lon="0.2022050">
        <ele>662.5</ele>
      </trkpt>
      <trkpt lat="40.7982570" lon="0.2021980">
        <ele>662.2</ele>
      </trkpt>
      <trkpt lat="40.7982910" lon="0.2021880">
        <ele>661.9</ele>
      </trkpt>
      <trkpt lat="40.7983380" lon="0.2022020">
        <ele>661.4</ele>
      </trkpt>
      <trkpt lat="40.7983750" lon="0.2021830">
        <ele>661.1</ele>
      </trkpt>
      <trkpt lat="40.7984040" lon="0.2021600">
        <ele>660.7</ele>
      </trkpt>
      <trkpt lat="40.7984320" lon="0.2021340">
        <ele>660.4</ele>
      </trkpt>
      <trkpt lat="40.7984720" lon="0.2021270">
        <ele>659.9</ele>
      </trkpt>
      <trkpt lat="40.7985010" lon="0.2021170">
        <ele>659.6</ele>
      </trkpt>
      <trkpt lat="40.7985150" lon="0.2020550">
        <ele>659.1</ele>
      </trkpt>
      <trkpt lat="40.7985240" lon="0.2020180">
        <ele>658.8</ele>
      </trkpt>
      <trkpt lat="40.7985420" lon="0.2019770">
        <ele>658.4</ele>
      </trkpt>
      <trkpt lat="40.7985580" lon="0.2019330">
        <ele>658.1</ele>
      </trkpt>
      <trkpt lat="40.7985700" lon="0.2018800">
        <ele>657.6</ele>
      </trkpt>
      <trkpt lat="40.7986630" lon="0.2016380">
        <ele>655.6</ele>
      </trkpt>
      <trkpt lat="40.7987520" lon="0.2016060">
        <ele>654.9</ele>
      </trkpt>
      <trkpt lat="40.7988100" lon="0.2015830">
        <ele>654.5</ele>
      </trkpt>
      <trkpt lat="40.7988220" lon="0.2014120">
        <ele>654.1</ele>
      </trkpt>
      <trkpt lat="40.7988960" lon="0.2013270">
        <ele>653.8</ele>
      </trkpt>
      <trkpt lat="40.7989110" lon="0.2012270">
        <ele>653.5</ele>
      </trkpt>
      <trkpt lat="40.7989490" lon="0.2011120">
        <ele>653.2</ele>
      </trkpt>
      <trkpt lat="40.7989880" lon="0.2010690">
        <ele>653.0</ele>
      </trkpt>
      <trkpt lat="40.7990090" lon="0.2010360">
        <ele>652.9</ele>
      </trkpt>
      <trkpt lat="40.7990330" lon="0.2010080">
        <ele>652.7</ele>
      </trkpt>
      <trkpt lat="40.7991280" lon="0.2011170">
        <ele>652.1</ele>
      </trkpt>
      <trkpt lat="40.7992160" lon="0.2011650">
        <ele>651.7</ele>
      </trkpt>
      <trkpt lat="40.7992420" lon="0.2011480">
        <ele>651.6</ele>
      </trkpt>
      <trkpt lat="40.7992710" lon="0.2011470">
        <ele>651.5</ele>
      </trkpt>
      <trkpt lat="40.7992440" lon="0.2010710">
        <ele>651.3</ele>
      </trkpt>
      <trkpt lat="40.7992970" lon="0.2010390">
        <ele>651.2</ele>
      </trkpt>
      <trkpt lat="40.7993390" lon="0.2010170">
        <ele>651.0</ele>
      </trkpt>
      <trkpt lat="40.7993620" lon="0.2009790">
        <ele>650.8</ele>
      </trkpt>
      <trkpt lat="40.7993810" lon="0.2009230">
        <ele>650.6</ele>
      </trkpt>
      <trkpt lat="40.7993880" lon="0.2008710">
        <ele>650.4</ele>
      </trkpt>
      <trkpt lat="40.7993870" lon="0.2008280">
        <ele>650.2</ele>
      </trkpt>
      <trkpt lat="40.7993820" lon="0.2007910">
        <ele>650.0</ele>
      </trkpt>
      <trkpt lat="40.7993840" lon="0.2007410">
        <ele>649.8</ele>
      </trkpt>
      <trkpt lat="40.7994020" lon="0.2006900">
        <ele>649.6</ele>
      </trkpt>
      <trkpt lat="40.7994200" lon="0.2006620">
        <ele>649.4</ele>
      </trkpt>
      <trkpt lat="40.7993940" lon="0.2006130">
        <ele>649.2</ele>
      </trkpt>
      <trkpt lat="40.7994060" lon="0.2006500">
        <ele>649.1</ele>
      </trkpt>
      <trkpt lat="40.7994320" lon="0.2006410">
        <ele>648.9</ele>
      </trkpt>
      <trkpt lat="40.7994540" lon="0.2006190">
        <ele>648.8</ele>
      </trkpt>
      <trkpt lat="40.7994640" lon="0.2005830">
        <ele>648.6</ele>
      </trkpt>
      <trkpt lat="40.7994770" lon="0.2005400">
        <ele>648.3</ele>
      </trkpt>
      <trkpt lat="40.7994880" lon="0.2005040">
        <ele>648.1</ele>
      </trkpt>
      <trkpt lat="40.7994950" lon="0.2004680">
        <ele>647.9</ele>
      </trkpt>
      <trkpt lat="40.7995020" lon="0.2004220">
        <ele>647.6</ele>
      </trkpt>
      <trkpt lat="40.7995130" lon="0.2003650">
        <ele>647.3</ele>
      </trkpt>
      <trkpt lat="40.7995240" lon="0.2003270">
        <ele>647.1</ele>
      </trkpt>
      <trkpt lat="40.7995360" lon="0.2002870">
        <ele>646.9</ele>
      </trkpt>
      <trkpt lat="40.7995500" lon="0.2002500">
        <ele>646.7</ele>
      </trkpt>
      <trkpt lat="40.7995680" lon="0.2002150">
        <ele>646.5</ele>
      </trkpt>
      <trkpt lat="40.7995870" lon="0.2001830">
        <ele>646.3</ele>
      </trkpt>
      <trkpt lat="40.7996100" lon="0.2001500">
        <ele>645.9</ele>
      </trkpt>
      <trkpt lat="40.7996450" lon="0.2001000">
        <ele>645.4</ele>
      </trkpt>
      <trkpt lat="40.7996940" lon="0.2000510">
        <ele>644.8</ele>
      </trkpt>
      <trkpt lat="40.7997440" lon="0.2000050">
        <ele>644.2</ele>
      </trkpt>
      <trkpt lat="40.7997900" lon="0.1999610">
        <ele>643.7</ele>
      </trkpt>
      <trkpt lat="40.7998200" lon="0.1999070">
        <ele>643.4</ele>
      </trkpt>
      <trkpt lat="40.7998420" lon="0.1998070">
        <ele>642.8</ele>
      </trkpt>
      <trkpt lat="40.7998640" lon="0.1996780">
        <ele>641.9</ele>
      </trkpt>
      <trkpt lat="40.7997880" lon="0.1992440">
        <ele>639.7</ele>
      </trkpt>
      <trkpt lat="40.7999980" lon="0.1991950">
        <ele>638.8</ele>
      </trkpt>
      <trkpt lat="40.8001350" lon="0.1991080">
        <ele>638.2</ele>
      </trkpt>
      <trkpt lat="40.8003320" lon="0.1990680">
        <ele>637.5</ele>
      </trkpt>
      <trkpt lat="40.8003430" lon="0.1989980">
        <ele>637.3</ele>
      </trkpt>
      <trkpt lat="40.8004020" lon="0.1989020">
        <ele>637.1</ele>
      </trkpt>
      <trkpt lat="40.8004740" lon="0.1988210">
        <ele>636.8</ele>
      </trkpt>
      <trkpt lat="40.8006220" lon="0.1986690">
        <ele>636.2</ele>
      </trkpt>
      <trkpt lat="40.8006760" lon="0.1986000">
        <ele>635.9</ele>
      </trkpt>
      <trkpt lat="40.8007540" lon="0.1985360">
        <ele>635.6</ele>
      </trkpt>
      <trkpt lat="40.8007710" lon="0.1984410">
        <ele>635.3</ele>
      </trkpt>
      <trkpt lat="40.8008340" lon="0.1983950">
        <ele>635.0</ele>
      </trkpt>
      <trkpt lat="40.8009120" lon="0.1983250">
        <ele>634.6</ele>
      </trkpt>
      <trkpt lat="40.8009290" lon="0.1982870">
        <ele>634.5</ele>
      </trkpt>
      <trkpt lat="40.8009740" lon="0.1981490">
        <ele>634.2</ele>
      </trkpt>
      <trkpt lat="40.8011370" lon="0.1981210">
        <ele>633.7</ele>
      </trkpt>
      <trkpt lat="40.8011320" lon="0.1980740">
        <ele>633.7</ele>
      </trkpt>
      <trkpt lat="40.8011730" lon="0.1980250">
        <ele>633.6</ele>
      </trkpt>
      <trkpt lat="40.8012430" lon="0.1979820">
        <ele>633.5</ele>
      </trkpt>
      <trkpt lat="40.8013210" lon="0.1978910">
        <ele>633.3</ele>
      </trkpt>
      <trkpt lat="40.8013600" lon="0.1978450">
        <ele>633.3</ele>
      </trkpt>
      <trkpt lat="40.8014210" lon="0.1976590">
        <ele>633.0</ele>
      </trkpt>
      <trkpt lat="40.8014670" lon="0.1975770">
        <ele>632.9</ele>
      </trkpt>
      <trkpt lat="40.8015290" lon="0.1974630">
        <ele>632.6</ele>
      </trkpt>
      <trkpt lat="40.8015720" lon="0.1973540">
        <ele>632.3</ele>
      </trkpt>
      <trkpt lat="40.8015780" lon="0.1972640">
        <ele>632.1</ele>
      </trkpt>
      <trkpt lat="40.8015760" lon="0.1971460">
        <ele>631.9</ele>
      </trkpt>
      <trkpt lat="40.8015730" lon="0.1970570">
        <ele>631.8</ele>
      </trkpt>
      <trkpt lat="40.8015900" lon="0.1970170">
        <ele>631.7</ele>
      </trkpt>
      <trkpt lat="40.8016020" lon="0.1969560">
        <ele>631.7</ele>
      </trkpt>
      <trkpt lat="40.8016390" lon="0.1969510">
        <ele>631.6</ele>
      </trkpt>
      <trkpt lat="40.8016460" lon="0.1969100">
        <ele>631.6</ele>
      </trkpt>
      <trkpt lat="40.8016620" lon="0.1968300">
        <ele>631.5</ele>
      </trkpt>
      <trkpt lat="40.8016590" lon="0.1967790">
        <ele>631.5</ele>
      </trkpt>
      <trkpt lat="40.8016550" lon="0.1967290">
        <ele>631.4</ele>
      </trkpt>
      <trkpt lat="40.8017120" lon="0.1967290">
        <ele>631.4</ele>
      </trkpt>
      <trkpt lat="40.8017430" lon="0.1967090">
        <ele>631.4</ele>
      </trkpt>
      <trkpt lat="40.8017820" lon="0.1966830">
        <ele>631.3</ele>
      </trkpt>
      <trkpt lat="40.8018260" lon="0.1966560">
        <ele>631.3</ele>
      </trkpt>
      <trkpt lat="40.8018620" lon="0.1966320">
        <ele>631.2</ele>
      </trkpt>
      <trkpt lat="40.8019120" lon="0.1965940">
        <ele>631.1</ele>
      </trkpt>
      <trkpt lat="40.8019470" lon="0.1965480">
        <ele>631.1</ele>
      </trkpt>
      <trkpt lat="40.8019850" lon="0.1964850">
        <ele>631.0</ele>
      </trkpt>
      <trkpt lat="40.8020180" lon="0.1964240">
        <ele>630.9</ele>
      </trkpt>
      <trkpt lat="40.8020440" lon="0.1963740">
        <ele>630.8</ele>
      </trkpt>
      <trkpt lat="40.8020660" lon="0.1963250">
        <ele>630.8</ele>
      </trkpt>
      <trkpt lat="40.8020870" lon="0.1962800">
        <ele>630.7</ele>
      </trkpt>
      <trkpt lat="40.8021120" lon="0.1962290">
        <ele>630.7</ele>
      </trkpt>
      <trkpt lat="40.8021390" lon="0.1961670">
        <ele>630.6</ele>
      </trkpt>
      <trkpt lat="40.8021680" lon="0.1961090">
        <ele>630.5</ele>
      </trkpt>
      <trkpt lat="40.8021860" lon="0.1960630">
        <ele>630.5</ele>
      </trkpt>
      <trkpt lat="40.8022000" lon="0.1960220">
        <ele>630.4</ele>
      </trkpt>
      <trkpt lat="40.8022160" lon="0.1959820">
        <ele>630.4</ele>
      </trkpt>
      <trkpt lat="40.8022200" lon="0.1959450">
        <ele>630.3</ele>
      </trkpt>
      <trkpt lat="40.8022160" lon="0.1959040">
        <ele>630.3</ele>
      </trkpt>
      <trkpt lat="40.8022150" lon="0.1958550">
        <ele>630.2</ele>
      </trkpt>
      <trkpt lat="40.8022250" lon="0.1957970">
        <ele>630.2</ele>
      </trkpt>
      <trkpt lat="40.8022450" lon="0.1957400">
        <ele>630.1</ele>
      </trkpt>
      <trkpt lat="40.8022750" lon="0.1956850">
        <ele>630.0</ele>
      </trkpt>
      <trkpt lat="40.8023090" lon="0.1956360">
        <ele>630.0</ele>
      </trkpt>
      <trkpt lat="40.8024140" lon="0.1954300">
        <ele>629.6</ele>
      </trkpt>
      <trkpt lat="40.8025040" lon="0.1953810">
        <ele>629.4</ele>
      </trkpt>
      <trkpt lat="40.8025630" lon="0.1953340">
        <ele>629.3</ele>
      </trkpt>
      <trkpt lat="40.8026450" lon="0.1952720">
        <ele>629.1</ele>
      </trkpt>
      <trkpt lat="40.8027140" lon="0.1952040">
        <ele>628.9</ele>
      </trkpt>
      <trkpt lat="40.8028150" lon="0.1951220">
        <ele>628.7</ele>
      </trkpt>
      <trkpt lat="40.8031140" lon="0.1948430">
        <ele>628.1</ele>
      </trkpt>
      <trkpt lat="40.8031970" lon="0.1948100">
        <ele>627.9</ele>
      </trkpt>
      <trkpt lat="40.8032640" lon="0.1947680">
        <ele>627.7</ele>
      </trkpt>
      <trkpt lat="40.8033520" lon="0.1947490">
        <ele>627.6</ele>
      </trkpt>
      <trkpt lat="40.8034390" lon="0.1947610">
        <ele>627.4</ele>
      </trkpt>
      <trkpt lat="40.8035100" lon="0.1947460">
        <ele>627.2</ele>
      </trkpt>
      <trkpt lat="40.8035940" lon="0.1947350">
        <ele>627.1</ele>
      </trkpt>
      <trkpt lat="40.8036830" lon="0.1947520">
        <ele>627.0</ele>
      </trkpt>
      <trkpt lat="40.8038040" lon="0.1948040">
        <ele>626.8</ele>
      </trkpt>
      <trkpt lat="40.8038950" lon="0.1948550">
        <ele>626.6</ele>
      </trkpt>
      <trkpt lat="40.8039550" lon="0.1947770">
        <ele>626.5</ele>
      </trkpt>
      <trkpt lat="40.8040040" lon="0.1947980">
        <ele>626.5</ele>
      </trkpt>
      <trkpt lat="40.8040610" lon="0.1947900">
        <ele>626.4</ele>
      </trkpt>
      <trkpt lat="40.8041200" lon="0.1947410">
        <ele>626.3</ele>
      </trkpt>
      <trkpt lat="40.8042090" lon="0.1946450">
        <ele>626.2</ele>
      </trkpt>
      <trkpt lat="40.8042470" lon="0.1945240">
        <ele>626.1</ele>
      </trkpt>
      <trkpt lat="40.8042000" lon="0.1943880">
        <ele>625.9</ele>
      </trkpt>
      <trkpt lat="40.8042170" lon="0.1943200">
        <ele>625.8</ele>
      </trkpt>
      <trkpt lat="40.8042290" lon="0.1943850">
        <ele>625.8</ele>
      </trkpt>
      <trkpt lat="40.8042270" lon="0.1942470">
        <ele>625.8</ele>
      </trkpt>
      <trkpt lat="40.8042110" lon="0.1941660">
        <ele>625.8</ele>
      </trkpt>
      <trkpt lat="40.8042430" lon="0.1940710">
        <ele>625.8</ele>
      </trkpt>
      <trkpt lat="40.8042250" lon="0.1940020">
        <ele>625.8</ele>
      </trkpt>
      <trkpt lat="40.8042100" lon="0.1939190">
        <ele>625.8</ele>
      </trkpt>
      <trkpt lat="40.8042080" lon="0.1938010">
        <ele>625.8</ele>
      </trkpt>
      <trkpt lat="40.8041970" lon="0.1937540">
        <ele>625.9</ele>
      </trkpt>
      <trkpt lat="40.8042410" lon="0.1936810">
        <ele>625.9</ele>
      </trkpt>
      <trkpt lat="40.8042310" lon="0.1936240">
        <ele>625.9</ele>
      </trkpt>
      <trkpt lat="40.8042440" lon="0.1935650">
        <ele>625.9</ele>
      </trkpt>
      <trkpt lat="40.8042430" lon="0.1934940">
        <ele>625.9</ele>
      </trkpt>
      <trkpt lat="40.8042620" lon="0.1934550">
        <ele>625.9</ele>
      </trkpt>
      <trkpt lat="40.8042540" lon="0.1933710">
        <ele>625.9</ele>
      </trkpt>
      <trkpt lat="40.8042470" lon="0.1932810">
        <ele>625.9</ele>
      </trkpt>
      <trkpt lat="40.8042030" lon="0.1932410">
        <ele>625.9</ele>
      </trkpt>
      <trkpt lat="40.8042250" lon="0.1930500">
        <ele>626.0</ele>
      </trkpt>
      <trkpt lat="40.8042360" lon="0.1929730">
        <ele>626.0</ele>
      </trkpt>
      <trkpt lat="40.8042450" lon="0.1928950">
        <ele>626.0</ele>
      </trkpt>
      <trkpt lat="40.8042990" lon="0.1928540">
        <ele>626.0</ele>
      </trkpt>
      <trkpt lat="40.8043340" lon="0.1928490">
        <ele>626.0</ele>
      </trkpt>
      <trkpt lat="40.8043140" lon="0.1928060">
        <ele>626.0</ele>
      </trkpt>
      <trkpt lat="40.8043240" lon="0.1927620">
        <ele>626.0</ele>
      </trkpt>
      <trkpt lat="40.8043500" lon="0.1927240">
        <ele>626.0</ele>
      </trkpt>
      <trkpt lat="40.8043440" lon="0.1926440">
        <ele>625.9</ele>
      </trkpt>
      <trkpt lat="40.8043520" lon="0.1925880">
        <ele>625.8</ele>
      </trkpt>
      <trkpt lat="40.8043490" lon="0.1925420">
        <ele>625.8</ele>
      </trkpt>
      <trkpt lat="40.8043830" lon="0.1925250">
        <ele>625.7</ele>
      </trkpt>
      <trkpt lat="40.8044090" lon="0.1924820">
        <ele>625.7</ele>
      </trkpt>
      <trkpt lat="40.8044380" lon="0.1924390">
        <ele>625.6</ele>
      </trkpt>
      <trkpt lat="40.8044600" lon="0.1923940">
        <ele>625.6</ele>
      </trkpt>
      <trkpt lat="40.8044870" lon="0.1923450">
        <ele>625.5</ele>
      </trkpt>
      <trkpt lat="40.8045090" lon="0.1922930">
        <ele>625.5</ele>
      </trkpt>
      <trkpt lat="40.8045320" lon="0.1922350">
        <ele>625.4</ele>
      </trkpt>
      <trkpt lat="40.8045560" lon="0.1921710">
        <ele>625.4</ele>
      </trkpt>
      <trkpt lat="40.8045750" lon="0.1921130">
        <ele>625.3</ele>
      </trkpt>
      <trkpt lat="40.8045950" lon="0.1920650">
        <ele>625.2</ele>
      </trkpt>
      <trkpt lat="40.8046340" lon="0.1919810">
        <ele>625.0</ele>
      </trkpt>
      <trkpt lat="40.8046770" lon="0.1919180">
        <ele>624.8</ele>
      </trkpt>
      <trkpt lat="40.8047120" lon="0.1918490">
        <ele>624.7</ele>
      </trkpt>
      <trkpt lat="40.8047220" lon="0.1917850">
        <ele>624.6</ele>
      </trkpt>
      <trkpt lat="40.8047430" lon="0.1917410">
        <ele>624.5</ele>
      </trkpt>
      <trkpt lat="40.8047460" lon="0.1917000">
        <ele>624.4</ele>
      </trkpt>
      <trkpt lat="40.8047800" lon="0.1916600">
        <ele>624.2</ele>
      </trkpt>
      <trkpt lat="40.8048440" lon="0.1915970">
        <ele>623.9</ele>
      </trkpt>
      <trkpt lat="40.8049100" lon="0.1915040">
        <ele>623.5</ele>
      </trkpt>
      <trkpt lat="40.8049360" lon="0.1914580">
        <ele>623.3</ele>
      </trkpt>
      <trkpt lat="40.8049390" lon="0.1914090">
        <ele>623.1</ele>
      </trkpt>
      <trkpt lat="40.8049810" lon="0.1913810">
        <ele>622.7</ele>
      </trkpt>
      <trkpt lat="40.8050040" lon="0.1913570">
        <ele>622.5</ele>
      </trkpt>
      <trkpt lat="40.8050130" lon="0.1913150">
        <ele>622.3</ele>
      </trkpt>
      <trkpt lat="40.8050270" lon="0.1912450">
        <ele>621.9</ele>
      </trkpt>
      <trkpt lat="40.8050480" lon="0.1911830">
        <ele>621.6</ele>
      </trkpt>
      <trkpt lat="40.8051040" lon="0.1910730">
        <ele>621.2</ele>
      </trkpt>
      <trkpt lat="40.8051320" lon="0.1910860">
        <ele>621.1</ele>
      </trkpt>
      <trkpt lat="40.8051700" lon="0.1910340">
        <ele>620.9</ele>
      </trkpt>
      <trkpt lat="40.8052280" lon="0.1909690">
        <ele>620.7</ele>
      </trkpt>
      <trkpt lat="40.8052860" lon="0.1909040">
        <ele>620.5</ele>
      </trkpt>
      <trkpt lat="40.8053440" lon="0.1908190">
        <ele>620.3</ele>
      </trkpt>
      <trkpt lat="40.8054170" lon="0.1907220">
        <ele>620.0</ele>
      </trkpt>
      <trkpt lat="40.8055070" lon="0.1906450">
        <ele>619.7</ele>
      </trkpt>
      <trkpt lat="40.8055700" lon="0.1906620">
        <ele>619.5</ele>
      </trkpt>
      <trkpt lat="40.8055940" lon="0.1905880">
        <ele>619.5</ele>
      </trkpt>
      <trkpt lat="40.8056430" lon="0.1906390">
        <ele>619.4</ele>
      </trkpt>
      <trkpt lat="40.8057040" lon="0.1906260">
        <ele>619.3</ele>
      </trkpt>
      <trkpt lat="40.8057740" lon="0.1906030">
        <ele>619.2</ele>
      </trkpt>
      <trkpt lat="40.8058570" lon="0.1906380">
        <ele>619.2</ele>
      </trkpt>
      <trkpt lat="40.8059250" lon="0.1906330">
        <ele>619.1</ele>
      </trkpt>
      <trkpt lat="40.8060020" lon="0.1906430">
        <ele>619.1</ele>
      </trkpt>
      <trkpt lat="40.8060530" lon="0.1906640">
        <ele>619.1</ele>
      </trkpt>
      <trkpt lat="40.8061150" lon="0.1906570">
        <ele>619.0</ele>
      </trkpt>
      <trkpt lat="40.8061580" lon="0.1906530">
        <ele>619.0</ele>
      </trkpt>
      <trkpt lat="40.8062450" lon="0.1906350">
        <ele>618.9</ele>
      </trkpt>
      <trkpt lat="40.8063170" lon="0.1906120">
        <ele>618.9</ele>
      </trkpt>
      <trkpt lat="40.8063730" lon="0.1905970">
        <ele>618.8</ele>
      </trkpt>
      <trkpt lat="40.8064360" lon="0.1906420">
        <ele>618.8</ele>
      </trkpt>
      <trkpt lat="40.8064660" lon="0.1906230">
        <ele>618.7</ele>
      </trkpt>
      <trkpt lat="40.8064970" lon="0.1906160">
        <ele>618.7</ele>
      </trkpt>
      <trkpt lat="40.8065640" lon="0.1906410">
        <ele>618.6</ele>
      </trkpt>
      <trkpt lat="40.8066400" lon="0.1906770">
        <ele>618.6</ele>
      </trkpt>
      <trkpt lat="40.8066970" lon="0.1906880">
        <ele>618.5</ele>
      </trkpt>
      <trkpt lat="40.8067330" lon="0.1906740">
        <ele>618.5</ele>
      </trkpt>
      <trkpt lat="40.8067660" lon="0.1906690">
        <ele>618.5</ele>
      </trkpt>
      <trkpt lat="40.8068280" lon="0.1906600">
        <ele>618.4</ele>
      </trkpt>
      <trkpt lat="40.8068760" lon="0.1906760">
        <ele>618.4</ele>
      </trkpt>
      <trkpt lat="40.8069470" lon="0.1906900">
        <ele>618.3</ele>
      </trkpt>
      <trkpt lat="40.8069790" lon="0.1907080">
        <ele>618.3</ele>
      </trkpt>
      <trkpt lat="40.8069940" lon="0.1906680">
        <ele>618.2</ele>
      </trkpt>
      <trkpt lat="40.8070350" lon="0.1906430">
        <ele>618.2</ele>
      </trkpt>
      <trkpt lat="40.8070710" lon="0.1906160">
        <ele>618.1</ele>
      </trkpt>
      <trkpt lat="40.8071450" lon="0.1905940">
        <ele>618.0</ele>
      </trkpt>
      <trkpt lat="40.8071940" lon="0.1905900">
        <ele>618.0</ele>
      </trkpt>
      <trkpt lat="40.8072470" lon="0.1905870">
        <ele>617.9</ele>
      </trkpt>
      <trkpt lat="40.8072890" lon="0.1906090">
        <ele>617.9</ele>
      </trkpt>
      <trkpt lat="40.8073580" lon="0.1906330">
        <ele>617.8</ele>
      </trkpt>
      <trkpt lat="40.8074530" lon="0.1906200">
        <ele>617.8</ele>
      </trkpt>
      <trkpt lat="40.8074950" lon="0.1906210">
        <ele>617.7</ele>
      </trkpt>
      <trkpt lat="40.8075300" lon="0.1906430">
        <ele>617.7</ele>
      </trkpt>
      <trkpt lat="40.8075870" lon="0.1906660">
        <ele>617.7</ele>
      </trkpt>
      <trkpt lat="40.8076380" lon="0.1906690">
        <ele>617.6</ele>
      </trkpt>
      <trkpt lat="40.8076960" lon="0.1906610">
        <ele>617.6</ele>
      </trkpt>
      <trkpt lat="40.8077430" lon="0.1906620">
        <ele>617.6</ele>
      </trkpt>
      <trkpt lat="40.8078060" lon="0.1906360">
        <ele>617.5</ele>
      </trkpt>
      <trkpt lat="40.8078380" lon="0.1906320">
        <ele>617.5</ele>
      </trkpt>
      <trkpt lat="40.8078800" lon="0.1906160">
        <ele>617.4</ele>
      </trkpt>
      <trkpt lat="40.8079400" lon="0.1906330">
        <ele>617.4</ele>
      </trkpt>
      <trkpt lat="40.8079810" lon="0.1906080">
        <ele>617.4</ele>
      </trkpt>
      <trkpt lat="40.8080120" lon="0.1906030">
        <ele>617.3</ele>
      </trkpt>
      <trkpt lat="40.8080600" lon="0.1905940">
        <ele>617.3</ele>
      </trkpt>
      <trkpt lat="40.8080960" lon="0.1905950">
        <ele>617.3</ele>
      </trkpt>
      <trkpt lat="40.8081470" lon="0.1905950">
        <ele>617.3</ele>
      </trkpt>
      <trkpt lat="40.8082180" lon="0.1906090">
        <ele>617.3</ele>
      </trkpt>
      <trkpt lat="40.8082610" lon="0.1905970">
        <ele>617.3</ele>
      </trkpt>
      <trkpt lat="40.8083090" lon="0.1905770">
        <ele>617.3</ele>
      </trkpt>
      <trkpt lat="40.8083470" lon="0.1905700">
        <ele>617.3</ele>
      </trkpt>
      <trkpt lat="40.8083850" lon="0.1905590">
        <ele>617.2</ele>
      </trkpt>
      <trkpt lat="40.8084170" lon="0.1905370">
        <ele>617.2</ele>
      </trkpt>
      <trkpt lat="40.8084430" lon="0.1905080">
        <ele>617.2</ele>
      </trkpt>
      <trkpt lat="40.8084670" lon="0.1904790">
        <ele>617.2</ele>
      </trkpt>
      <trkpt lat="40.8084860" lon="0.1904480">
        <ele>617.2</ele>
      </trkpt>
      <trkpt lat="40.8085070" lon="0.1904210">
        <ele>617.2</ele>
      </trkpt>
      <trkpt lat="40.8085240" lon="0.1903930">
        <ele>617.2</ele>
      </trkpt>
      <trkpt lat="40.8085430" lon="0.1903570">
        <ele>617.2</ele>
      </trkpt>
      <trkpt lat="40.8085640" lon="0.1903050">
        <ele>617.2</ele>
      </trkpt>
      <trkpt lat="40.8085830" lon="0.1902510">
        <ele>617.1</ele>
      </trkpt>
      <trkpt lat="40.8085980" lon="0.1901960">
        <ele>617.1</ele>
      </trkpt>
      <trkpt lat="40.8086110" lon="0.1901410">
        <ele>617.1</ele>
      </trkpt>
      <trkpt lat="40.8086220" lon="0.1900860">
        <ele>617.1</ele>
      </trkpt>
      <trkpt lat="40.8086280" lon="0.1900340">
        <ele>617.1</ele>
      </trkpt>
      <trkpt lat="40.8086280" lon="0.1899840">
        <ele>617.0</ele>
      </trkpt>
      <trkpt lat="40.8086260" lon="0.1899290">
        <ele>617.0</ele>
      </trkpt>
      <trkpt lat="40.8086240" lon="0.1898760">
        <ele>617.0</ele>
      </trkpt>
      <trkpt lat="40.8086260" lon="0.1898310">
        <ele>617.0</ele>
      </trkpt>
      <trkpt lat="40.8086250" lon="0.1897860">
        <ele>616.9</ele>
      </trkpt>
      <trkpt lat="40.8086160" lon="0.1897410">
        <ele>616.9</ele>
      </trkpt>
      <trkpt lat="40.8086030" lon="0.1896960">
        <ele>616.9</ele>
      </trkpt>
      <trkpt lat="40.8085860" lon="0.1896510">
        <ele>616.9</ele>
      </trkpt>
      <trkpt lat="40.8085650" lon="0.1896060">
        <ele>616.8</ele>
      </trkpt>
      <trkpt lat="40.8085360" lon="0.1895630">
        <ele>616.8</ele>
      </trkpt>
      <trkpt lat="40.8085000" lon="0.1895180">
        <ele>616.7</ele>
      </trkpt>
      <trkpt lat="40.8084620" lon="0.1894650">
        <ele>616.7</ele>
      </trkpt>
      <trkpt lat="40.8084270" lon="0.1894150">
        <ele>616.6</ele>
      </trkpt>
      <trkpt lat="40.8083940" lon="0.1893680">
        <ele>616.6</ele>
      </trkpt>
      <trkpt lat="40.8083640" lon="0.1893230">
        <ele>616.5</ele>
      </trkpt>
      <trkpt lat="40.8083410" lon="0.1892720">
        <ele>616.5</ele>
      </trkpt>
      <trkpt lat="40.8083150" lon="0.1892210">
        <ele>616.4</ele>
      </trkpt>
      <trkpt lat="40.8082940" lon="0.1891680">
        <ele>616.4</ele>
      </trkpt>
      <trkpt lat="40.8082600" lon="0.1891230">
        <ele>616.3</ele>
      </trkpt>
      <trkpt lat="40.8082200" lon="0.1890850">
        <ele>616.3</ele>
      </trkpt>
      <trkpt lat="40.8081810" lon="0.1890490">
        <ele>616.2</ele>
      </trkpt>
      <trkpt lat="40.8081420" lon="0.1890180">
        <ele>616.1</ele>
      </trkpt>
      <trkpt lat="40.8081110" lon="0.1889860">
        <ele>616.1</ele>
      </trkpt>
      <trkpt lat="40.8080780" lon="0.1889610">
        <ele>616.0</ele>
      </trkpt>
      <trkpt lat="40.8080360" lon="0.1889330">
        <ele>615.9</ele>
      </trkpt>
      <trkpt lat="40.8079920" lon="0.1889050">
        <ele>615.9</ele>
      </trkpt>
      <trkpt lat="40.8079510" lon="0.1888750">
        <ele>615.8</ele>
      </trkpt>
      <trkpt lat="40.8079080" lon="0.1888450">
        <ele>615.7</ele>
      </trkpt>
      <trkpt lat="40.8078630" lon="0.1888140">
        <ele>615.6</ele>
      </trkpt>
      <trkpt lat="40.8078240" lon="0.1887830">
        <ele>615.6</ele>
      </trkpt>
      <trkpt lat="40.8077910" lon="0.1887450">
        <ele>615.5</ele>
      </trkpt>
      <trkpt lat="40.8077650" lon="0.1886970">
        <ele>615.5</ele>
      </trkpt>
      <trkpt lat="40.8077470" lon="0.1886550">
        <ele>615.4</ele>
      </trkpt>
      <trkpt lat="40.8077330" lon="0.1886180">
        <ele>615.4</ele>
      </trkpt>
      <trkpt lat="40.8077250" lon="0.1885820">
        <ele>615.4</ele>
      </trkpt>
      <trkpt lat="40.8077180" lon="0.1885410">
        <ele>615.3</ele>
      </trkpt>
      <trkpt lat="40.8077160" lon="0.1884830">
        <ele>615.3</ele>
      </trkpt>
      <trkpt lat="40.8077180" lon="0.1883670">
        <ele>615.2</ele>
      </trkpt>
      <trkpt lat="40.8077660" lon="0.1883460">
        <ele>615.2</ele>
      </trkpt>
      <trkpt lat="40.8077950" lon="0.1883030">
        <ele>615.1</ele>
      </trkpt>
      <trkpt lat="40.8078430" lon="0.1882310">
        <ele>615.1</ele>
      </trkpt>
      <trkpt lat="40.8078680" lon="0.1881840">
        <ele>615.0</ele>
      </trkpt>
      <trkpt lat="40.8079340" lon="0.1881410">
        <ele>615.0</ele>
      </trkpt>
      <trkpt lat="40.8079870" lon="0.1880840">
        <ele>614.9</ele>
      </trkpt>
      <trkpt lat="40.8080170" lon="0.1880650">
        <ele>614.9</ele>
      </trkpt>
      <trkpt lat="40.8080380" lon="0.1880090">
        <ele>614.9</ele>
      </trkpt>
      <trkpt lat="40.8081090" lon="0.1879600">
        <ele>614.8</ele>
      </trkpt>
      <trkpt lat="40.8081660" lon="0.1879870">
        <ele>614.8</ele>
      </trkpt>
      <trkpt lat="40.8082470" lon="0.1879290">
        <ele>614.7</ele>
      </trkpt>
      <trkpt lat="40.8083110" lon="0.1879550">
        <ele>614.7</ele>
      </trkpt>
      <trkpt lat="40.8083650" lon="0.1879910">
        <ele>614.7</ele>
      </trkpt>
      <trkpt lat="40.8084050" lon="0.1880220">
        <ele>614.6</ele>
      </trkpt>
      <trkpt lat="40.8084490" lon="0.1880470">
        <ele>614.6</ele>
      </trkpt>
      <trkpt lat="40.8084780" lon="0.1880470">
        <ele>614.6</ele>
      </trkpt>
      <trkpt lat="40.8085030" lon="0.1880740">
        <ele>614.6</ele>
      </trkpt>
      <trkpt lat="40.8085300" lon="0.1881190">
        <ele>614.6</ele>
      </trkpt>
      <trkpt lat="40.8086150" lon="0.1881480">
        <ele>614.5</ele>
      </trkpt>
      <trkpt lat="40.8086650" lon="0.1881730">
        <ele>614.5</ele>
      </trkpt>
      <trkpt lat="40.8087070" lon="0.1881970">
        <ele>614.5</ele>
      </trkpt>
      <trkpt lat="40.8087550" lon="0.1882150">
        <ele>614.5</ele>
      </trkpt>
      <trkpt lat="40.8087870" lon="0.1882240">
        <ele>614.5</ele>
      </trkpt>
      <trkpt lat="40.8088390" lon="0.1882430">
        <ele>614.4</ele>
      </trkpt>
      <trkpt lat="40.8088910" lon="0.1882500">
        <ele>614.4</ele>
      </trkpt>
      <trkpt lat="40.8089450" lon="0.1882600">
        <ele>614.4</ele>
      </trkpt>
      <trkpt lat="40.8090380" lon="0.1882760">
        <ele>614.4</ele>
      </trkpt>
      <trkpt lat="40.8091300" lon="0.1882050">
        <ele>614.6</ele>
      </trkpt>
      <trkpt lat="40.8091810" lon="0.1881410">
        <ele>614.8</ele>
      </trkpt>
      <trkpt lat="40.8092150" lon="0.1881220">
        <ele>614.9</ele>
      </trkpt>
      <trkpt lat="40.8092750" lon="0.1880780">
        <ele>615.1</ele>
      </trkpt>
      <trkpt lat="40.8093060" lon="0.1880450">
        <ele>615.3</ele>
      </trkpt>
      <trkpt lat="40.8093370" lon="0.1880440">
        <ele>615.5</ele>
      </trkpt>
      <trkpt lat="40.8093710" lon="0.1880390">
        <ele>615.7</ele>
      </trkpt>
      <trkpt lat="40.8094040" lon="0.1880450">
        <ele>615.9</ele>
      </trkpt>
      <trkpt lat="40.8094150" lon="0.1879980">
        <ele>616.1</ele>
      </trkpt>
      <trkpt lat="40.8094420" lon="0.1880550">
        <ele>616.4</ele>
      </trkpt>
      <trkpt lat="40.8094680" lon="0.1880250">
        <ele>616.7</ele>
      </trkpt>
      <trkpt lat="40.8094980" lon="0.1880200">
        <ele>616.9</ele>
      </trkpt>
      <trkpt lat="40.8095620" lon="0.1879880">
        <ele>617.2</ele>
      </trkpt>
      <trkpt lat="40.8095990" lon="0.1879540">
        <ele>617.5</ele>
      </trkpt>
      <trkpt lat="40.8096120" lon="0.1879190">
        <ele>617.7</ele>
      </trkpt>
      <trkpt lat="40.8096090" lon="0.1878740">
        <ele>617.9</ele>
      </trkpt>
      <trkpt lat="40.8096050" lon="0.1878370">
        <ele>618.0</ele>
      </trkpt>
      <trkpt lat="40.8095990" lon="0.1878020">
        <ele>618.2</ele>
      </trkpt>
      <trkpt lat="40.8096130" lon="0.1877570">
        <ele>618.3</ele>
      </trkpt>
      <trkpt lat="40.8096570" lon="0.1877940">
        <ele>618.5</ele>
      </trkpt>
      <trkpt lat="40.8096850" lon="0.1878120">
        <ele>618.7</ele>
      </trkpt>
      <trkpt lat="40.8096510" lon="0.1877800">
        <ele>618.8</ele>
      </trkpt>
      <trkpt lat="40.8096200" lon="0.1877620">
        <ele>618.8</ele>
      </trkpt>
      <trkpt lat="40.8095950" lon="0.1877220">
        <ele>618.9</ele>
      </trkpt>
      <trkpt lat="40.8095910" lon="0.1876800">
        <ele>618.9</ele>
      </trkpt>
      <trkpt lat="40.8095940" lon="0.1876320">
        <ele>619.0</ele>
      </trkpt>
      <trkpt lat="40.8096000" lon="0.1875790">
        <ele>619.0</ele>
      </trkpt>
      <trkpt lat="40.8096070" lon="0.1875180">
        <ele>619.0</ele>
      </trkpt>
      <trkpt lat="40.8096150" lon="0.1874470">
        <ele>618.9</ele>
      </trkpt>
      <trkpt lat="40.8096210" lon="0.1873910">
        <ele>618.9</ele>
      </trkpt>
      <trkpt lat="40.8096270" lon="0.1873430">
        <ele>618.8</ele>
      </trkpt>
      <trkpt lat="40.8096290" lon="0.1872990">
        <ele>618.7</ele>
      </trkpt>
      <trkpt lat="40.8096280" lon="0.1872560">
        <ele>618.6</ele>
      </trkpt>
      <trkpt lat="40.8096200" lon="0.1872150">
        <ele>618.5</ele>
      </trkpt>
      <trkpt lat="40.8096130" lon="0.1871600">
        <ele>618.3</ele>
      </trkpt>
      <trkpt lat="40.8096080" lon="0.1870840">
        <ele>618.1</ele>
      </trkpt>
      <trkpt lat="40.8096070" lon="0.1870150">
        <ele>617.9</ele>
      </trkpt>
      <trkpt lat="40.8096170" lon="0.1869650">
        <ele>617.7</ele>
      </trkpt>
      <trkpt lat="40.8096280" lon="0.1869110">
        <ele>617.4</ele>
      </trkpt>
      <trkpt lat="40.8096410" lon="0.1868570">
        <ele>617.1</ele>
      </trkpt>
      <trkpt lat="40.8096560" lon="0.1867910">
        <ele>616.7</ele>
      </trkpt>
      <trkpt lat="40.8096760" lon="0.1866950">
        <ele>616.1</ele>
      </trkpt>
      <trkpt lat="40.8097010" lon="0.1865860">
        <ele>615.4</ele>
      </trkpt>
      <trkpt lat="40.8097290" lon="0.1864910">
        <ele>614.8</ele>
      </trkpt>
      <trkpt lat="40.8097550" lon="0.1864040">
        <ele>614.4</ele>
      </trkpt>
      <trkpt lat="40.8097770" lon="0.1863210">
        <ele>614.1</ele>
      </trkpt>
      <trkpt lat="40.8098070" lon="0.1861930">
        <ele>613.6</ele>
      </trkpt>
      <trkpt lat="40.8099830" lon="0.1857690">
        <ele>612.3</ele>
      </trkpt>
      <trkpt lat="40.8100140" lon="0.1857350">
        <ele>612.2</ele>
      </trkpt>
      <trkpt lat="40.8100730" lon="0.1856890">
        <ele>611.9</ele>
      </trkpt>
      <trkpt lat="40.8101470" lon="0.1857340">
        <ele>611.6</ele>
      </trkpt>
      <trkpt lat="40.8101910" lon="0.1857880">
        <ele>611.5</ele>
      </trkpt>
      <trkpt lat="40.8102410" lon="0.1858590">
        <ele>611.3</ele>
      </trkpt>
      <trkpt lat="40.8102850" lon="0.1858860">
        <ele>611.2</ele>
      </trkpt>
      <trkpt lat="40.8103110" lon="0.1859320">
        <ele>611.1</ele>
      </trkpt>
      <trkpt lat="40.8103670" lon="0.1859510">
        <ele>611.1</ele>
      </trkpt>
      <trkpt lat="40.8104090" lon="0.1859480">
        <ele>611.1</ele>
      </trkpt>
      <trkpt lat="40.8104560" lon="0.1859470">
        <ele>611.0</ele>
      </trkpt>
      <trkpt lat="40.8105040" lon="0.1859330">
        <ele>611.0</ele>
      </trkpt>
      <trkpt lat="40.8105520" lon="0.1859260">
        <ele>611.0</ele>
      </trkpt>
      <trkpt lat="40.8105970" lon="0.1859320">
        <ele>610.9</ele>
      </trkpt>
      <trkpt lat="40.8106410" lon="0.1859400">
        <ele>610.9</ele>
      </trkpt>
      <trkpt lat="40.8106810" lon="0.1859650">
        <ele>610.9</ele>
      </trkpt>
      <trkpt lat="40.8107220" lon="0.1859970">
        <ele>610.8</ele>
      </trkpt>
      <trkpt lat="40.8107520" lon="0.1860310">
        <ele>610.8</ele>
      </trkpt>
      <trkpt lat="40.8107760" lon="0.1860610">
        <ele>610.7</ele>
      </trkpt>
      <trkpt lat="40.8108050" lon="0.1860800">
        <ele>610.6</ele>
      </trkpt>
      <trkpt lat="40.8108430" lon="0.1861000">
        <ele>610.5</ele>
      </trkpt>
      <trkpt lat="40.8108910" lon="0.1861100">
        <ele>610.5</ele>
      </trkpt>
      <trkpt lat="40.8109990" lon="0.1861810">
        <ele>610.3</ele>
      </trkpt>
      <trkpt lat="40.8110430" lon="0.1861800">
        <ele>610.2</ele>
      </trkpt>
      <trkpt lat="40.8110840" lon="0.1861580">
        <ele>610.1</ele>
      </trkpt>
      <trkpt lat="40.8111560" lon="0.1862170">
        <ele>609.8</ele>
      </trkpt>
      <trkpt lat="40.8111850" lon="0.1861700">
        <ele>609.7</ele>
      </trkpt>
      <trkpt lat="40.8112010" lon="0.1861310">
        <ele>609.6</ele>
      </trkpt>
      <trkpt lat="40.8112630" lon="0.1861460">
        <ele>609.4</ele>
      </trkpt>
      <trkpt lat="40.8112830" lon="0.1861130">
        <ele>609.4</ele>
      </trkpt>
      <trkpt lat="40.8113130" lon="0.1860060">
        <ele>609.1</ele>
      </trkpt>
      <trkpt lat="40.8113460" lon="0.1859380">
        <ele>609.0</ele>
      </trkpt>
      <trkpt lat="40.8113600" lon="0.1858700">
        <ele>608.4</ele>
      </trkpt>
      <trkpt lat="40.8113780" lon="0.1858300">
        <ele>608.0</ele>
      </trkpt>
      <trkpt lat="40.8113930" lon="0.1857690">
        <ele>607.7</ele>
      </trkpt>
      <trkpt lat="40.8114050" lon="0.1857340">
        <ele>607.8</ele>
      </trkpt>
      <trkpt lat="40.8114180" lon="0.1856680">
        <ele>607.9</ele>
      </trkpt>
      <trkpt lat="40.8114390" lon="0.1855630">
        <ele>607.9</ele>
      </trkpt>
      <trkpt lat="40.8114370" lon="0.1855070">
        <ele>608.0</ele>
      </trkpt>
      <trkpt lat="40.8114430" lon="0.1854710">
        <ele>608.0</ele>
      </trkpt>
      <trkpt lat="40.8114420" lon="0.1854290">
        <ele>608.0</ele>
      </trkpt>
      <trkpt lat="40.8114460" lon="0.1853780">
        <ele>608.0</ele>
      </trkpt>
      <trkpt lat="40.8114330" lon="0.1853370">
        <ele>608.0</ele>
      </trkpt>
      <trkpt lat="40.8114130" lon="0.1852940">
        <ele>608.0</ele>
      </trkpt>
      <trkpt lat="40.8114240" lon="0.1852230">
        <ele>608.0</ele>
      </trkpt>
      <trkpt lat="40.8114470" lon="0.1851540">
        <ele>608.0</ele>
      </trkpt>
      <trkpt lat="40.8114640" lon="0.1851140">
        <ele>608.0</ele>
      </trkpt>
      <trkpt lat="40.8114800" lon="0.1850710">
        <ele>608.0</ele>
      </trkpt>
      <trkpt lat="40.8114940" lon="0.1850280">
        <ele>608.1</ele>
      </trkpt>
      <trkpt lat="40.8115080" lon="0.1849750">
        <ele>608.1</ele>
      </trkpt>
      <trkpt lat="40.8115200" lon="0.1849180">
        <ele>608.1</ele>
      </trkpt>
      <trkpt lat="40.8115340" lon="0.1848600">
        <ele>608.1</ele>
      </trkpt>
      <trkpt lat="40.8115480" lon="0.1848020">
        <ele>608.1</ele>
      </trkpt>
      <trkpt lat="40.8115620" lon="0.1847430">
        <ele>608.2</ele>
      </trkpt>
      <trkpt lat="40.8115720" lon="0.1846870">
        <ele>608.2</ele>
      </trkpt>
      <trkpt lat="40.8115840" lon="0.1846350">
        <ele>608.2</ele>
      </trkpt>
      <trkpt lat="40.8115910" lon="0.1845840">
        <ele>608.2</ele>
      </trkpt>
      <trkpt lat="40.8115950" lon="0.1845420">
        <ele>608.2</ele>
      </trkpt>
      <trkpt lat="40.8115980" lon="0.1845010">
        <ele>608.3</ele>
      </trkpt>
      <trkpt lat="40.8115970" lon="0.1844520">
        <ele>608.3</ele>
      </trkpt>
      <trkpt lat="40.8116110" lon="0.1844190">
        <ele>608.3</ele>
      </trkpt>
      <trkpt lat="40.8116310" lon="0.1843780">
        <ele>608.4</ele>
      </trkpt>
      <trkpt lat="40.8116560" lon="0.1843310">
        <ele>608.4</ele>
      </trkpt>
      <trkpt lat="40.8116910" lon="0.1842790">
        <ele>608.4</ele>
      </trkpt>
      <trkpt lat="40.8117180" lon="0.1842080">
        <ele>608.4</ele>
      </trkpt>
      <trkpt lat="40.8117270" lon="0.1841700">
        <ele>608.4</ele>
      </trkpt>
      <trkpt lat="40.8117370" lon="0.1841270">
        <ele>608.4</ele>
      </trkpt>
      <trkpt lat="40.8117450" lon="0.1840880">
        <ele>608.4</ele>
      </trkpt>
      <trkpt lat="40.8117580" lon="0.1840180">
        <ele>608.4</ele>
      </trkpt>
      <trkpt lat="40.8117680" lon="0.1839780">
        <ele>608.4</ele>
      </trkpt>
      <trkpt lat="40.8117820" lon="0.1839370">
        <ele>608.4</ele>
      </trkpt>
      <trkpt lat="40.8117970" lon="0.1838950">
        <ele>608.4</ele>
      </trkpt>
      <trkpt lat="40.8118100" lon="0.1838510">
        <ele>608.4</ele>
      </trkpt>
      <trkpt lat="40.8118230" lon="0.1838030">
        <ele>608.4</ele>
      </trkpt>
      <trkpt lat="40.8118340" lon="0.1837520">
        <ele>608.4</ele>
      </trkpt>
      <trkpt lat="40.8118520" lon="0.1836750">
        <ele>608.3</ele>
      </trkpt>
      <trkpt lat="40.8118750" lon="0.1835900">
        <ele>608.3</ele>
      </trkpt>
      <trkpt lat="40.8118990" lon="0.1834980">
        <ele>608.2</ele>
      </trkpt>
      <trkpt lat="40.8119210" lon="0.1834180">
        <ele>608.2</ele>
      </trkpt>
      <trkpt lat="40.8119450" lon="0.1833370">
        <ele>608.1</ele>
      </trkpt>
      <trkpt lat="40.8119710" lon="0.1832560">
        <ele>608.0</ele>
      </trkpt>
      <trkpt lat="40.8120330" lon="0.1830620">
        <ele>607.8</ele>
      </trkpt>
      <trkpt lat="40.8120420" lon="0.1829840">
        <ele>607.7</ele>
      </trkpt>
      <trkpt lat="40.8120570" lon="0.1829360">
        <ele>607.7</ele>
      </trkpt>
      <trkpt lat="40.8120810" lon="0.1828540">
        <ele>607.6</ele>
      </trkpt>
      <trkpt lat="40.8121040" lon="0.1828060">
        <ele>607.6</ele>
      </trkpt>
      <trkpt lat="40.8121340" lon="0.1827320">
        <ele>607.5</ele>
      </trkpt>
      <trkpt lat="40.8121530" lon="0.1826760">
        <ele>607.5</ele>
      </trkpt>
      <trkpt lat="40.8121770" lon="0.1825440">
        <ele>607.4</ele>
      </trkpt>
      <trkpt lat="40.8122040" lon="0.1824570">
        <ele>607.4</ele>
      </trkpt>
      <trkpt lat="40.8121970" lon="0.1823920">
        <ele>607.4</ele>
      </trkpt>
      <trkpt lat="40.8122270" lon="0.1823400">
        <ele>607.4</ele>
      </trkpt>
      <trkpt lat="40.8122420" lon="0.1823080">
        <ele>607.4</ele>
      </trkpt>
      <trkpt lat="40.8122550" lon="0.1822460">
        <ele>607.4</ele>
      </trkpt>
      <trkpt lat="40.8122650" lon="0.1821990">
        <ele>607.4</ele>
      </trkpt>
      <trkpt lat="40.8122670" lon="0.1821620">
        <ele>607.5</ele>
      </trkpt>
      <trkpt lat="40.8122980" lon="0.1820960">
        <ele>607.5</ele>
      </trkpt>
      <trkpt lat="40.8123200" lon="0.1820560">
        <ele>607.5</ele>
      </trkpt>
      <trkpt lat="40.8123310" lon="0.1820170">
        <ele>607.5</ele>
      </trkpt>
      <trkpt lat="40.8123540" lon="0.1819590">
        <ele>607.5</ele>
      </trkpt>
      <trkpt lat="40.8123790" lon="0.1819140">
        <ele>607.4</ele>
      </trkpt>
      <trkpt lat="40.8123990" lon="0.1818690">
        <ele>607.4</ele>
      </trkpt>
      <trkpt lat="40.8124220" lon="0.1818230">
        <ele>607.4</ele>
      </trkpt>
      <trkpt lat="40.8124510" lon="0.1817750">
        <ele>607.4</ele>
      </trkpt>
      <trkpt lat="40.8124810" lon="0.1817280">
        <ele>607.3</ele>
      </trkpt>
      <trkpt lat="40.8125090" lon="0.1816800">
        <ele>607.3</ele>
      </trkpt>
      <trkpt lat="40.8125300" lon="0.1815840">
        <ele>607.2</ele>
      </trkpt>
      <trkpt lat="40.8125670" lon="0.1815510">
        <ele>607.2</ele>
      </trkpt>
      <trkpt lat="40.8126040" lon="0.1815330">
        <ele>607.1</ele>
      </trkpt>
      <trkpt lat="40.8126250" lon="0.1815050">
        <ele>607.1</ele>
      </trkpt>
      <trkpt lat="40.8126710" lon="0.1814840">
        <ele>607.1</ele>
      </trkpt>
      <trkpt lat="40.8127280" lon="0.1814740">
        <ele>607.0</ele>
      </trkpt>
      <trkpt lat="40.8127910" lon="0.1814300">
        <ele>607.0</ele>
      </trkpt>
      <trkpt lat="40.8127550" lon="0.1813980">
        <ele>606.9</ele>
      </trkpt>
      <trkpt lat="40.8127780" lon="0.1813780">
        <ele>606.9</ele>
      </trkpt>
      <trkpt lat="40.8128310" lon="0.1813770">
        <ele>606.9</ele>
      </trkpt>
      <trkpt lat="40.8128850" lon="0.1813750">
        <ele>606.9</ele>
      </trkpt>
      <trkpt lat="40.8129520" lon="0.1813750">
        <ele>606.9</ele>
      </trkpt>
      <trkpt lat="40.8130090" lon="0.1813970">
        <ele>606.9</ele>
      </trkpt>
      <trkpt lat="40.8130530" lon="0.1814030">
        <ele>606.9</ele>
      </trkpt>
      <trkpt lat="40.8130960" lon="0.1814200">
        <ele>607.0</ele>
      </trkpt>
      <trkpt lat="40.8131180" lon="0.1813890">
        <ele>607.0</ele>
      </trkpt>
      <trkpt lat="40.8131420" lon="0.1813460">
        <ele>607.1</ele>
      </trkpt>
      <trkpt lat="40.8131570" lon="0.1812910">
        <ele>607.2</ele>
      </trkpt>
      <trkpt lat="40.8131610" lon="0.1812530">
        <ele>607.2</ele>
      </trkpt>
      <trkpt lat="40.8131590" lon="0.1812060">
        <ele>607.3</ele>
      </trkpt>
      <trkpt lat="40.8131520" lon="0.1811610">
        <ele>607.3</ele>
      </trkpt>
      <trkpt lat="40.8131420" lon="0.1811200">
        <ele>607.4</ele>
      </trkpt>
      <trkpt lat="40.8131300" lon="0.1810710">
        <ele>607.5</ele>
      </trkpt>
      <trkpt lat="40.8131160" lon="0.1810180">
        <ele>607.6</ele>
      </trkpt>
      <trkpt lat="40.8131030" lon="0.1809640">
        <ele>607.6</ele>
      </trkpt>
      <trkpt lat="40.8130920" lon="0.1809090">
        <ele>607.7</ele>
      </trkpt>
      <trkpt lat="40.8130820" lon="0.1808530">
        <ele>607.8</ele>
      </trkpt>
      <trkpt lat="40.8130690" lon="0.1807910">
        <ele>607.9</ele>
      </trkpt>
      <trkpt lat="40.8130550" lon="0.1807300">
        <ele>608.0</ele>
      </trkpt>
      <trkpt lat="40.8130400" lon="0.1806730">
        <ele>608.1</ele>
      </trkpt>
      <trkpt lat="40.8130240" lon="0.1806230">
        <ele>608.2</ele>
      </trkpt>
      <trkpt lat="40.8130110" lon="0.1805750">
        <ele>608.3</ele>
      </trkpt>
      <trkpt lat="40.8129960" lon="0.1805250">
        <ele>608.3</ele>
      </trkpt>
      <trkpt lat="40.8129780" lon="0.1804780">
        <ele>608.4</ele>
      </trkpt>
      <trkpt lat="40.8129610" lon="0.1804310">
        <ele>608.5</ele>
      </trkpt>
      <trkpt lat="40.8129420" lon="0.1803820">
        <ele>608.6</ele>
      </trkpt>
      <trkpt lat="40.8129240" lon="0.1803340">
        <ele>608.6</ele>
      </trkpt>
      <trkpt lat="40.8129060" lon="0.1802860">
        <ele>608.7</ele>
      </trkpt>
      <trkpt lat="40.8128870" lon="0.1802380">
        <ele>608.8</ele>
      </trkpt>
      <trkpt lat="40.8128680" lon="0.1801890">
        <ele>608.9</ele>
      </trkpt>
      <trkpt lat="40.8128500" lon="0.1801450">
        <ele>609.0</ele>
      </trkpt>
      <trkpt lat="40.8128340" lon="0.1801020">
        <ele>609.1</ele>
      </trkpt>
      <trkpt lat="40.8128190" lon="0.1800660">
        <ele>609.2</ele>
      </trkpt>
      <trkpt lat="40.8128020" lon="0.1800280">
        <ele>609.3</ele>
      </trkpt>
      <trkpt lat="40.8127830" lon="0.1799920">
        <ele>609.4</ele>
      </trkpt>
      <trkpt lat="40.8127650" lon="0.1799560">
        <ele>609.4</ele>
      </trkpt>
      <trkpt lat="40.8127480" lon="0.1799190">
        <ele>609.5</ele>
      </trkpt>
      <trkpt lat="40.8127300" lon="0.1798820">
        <ele>609.6</ele>
      </trkpt>
      <trkpt lat="40.8127130" lon="0.1798420">
        <ele>609.7</ele>
      </trkpt>
      <trkpt lat="40.8126970" lon="0.1798050">
        <ele>609.7</ele>
      </trkpt>
      <trkpt lat="40.8126850" lon="0.1797600">
        <ele>609.8</ele>
      </trkpt>
      <trkpt lat="40.8126750" lon="0.1797100">
        <ele>609.9</ele>
      </trkpt>
      <trkpt lat="40.8126650" lon="0.1796590">
        <ele>609.9</ele>
      </trkpt>
      <trkpt lat="40.8126580" lon="0.1796170">
        <ele>610.0</ele>
      </trkpt>
      <trkpt lat="40.8126470" lon="0.1795470">
        <ele>610.0</ele>
      </trkpt>
      <trkpt lat="40.8126420" lon="0.1795060">
        <ele>610.1</ele>
      </trkpt>
      <trkpt lat="40.8126340" lon="0.1794610">
        <ele>610.1</ele>
      </trkpt>
      <trkpt lat="40.8126260" lon="0.1794210">
        <ele>610.2</ele>
      </trkpt>
      <trkpt lat="40.8126110" lon="0.1793790">
        <ele>610.2</ele>
      </trkpt>
      <trkpt lat="40.8125940" lon="0.1793390">
        <ele>610.2</ele>
      </trkpt>
      <trkpt lat="40.8125760" lon="0.1793040">
        <ele>610.3</ele>
      </trkpt>
      <trkpt lat="40.8125600" lon="0.1792730">
        <ele>610.3</ele>
      </trkpt>
      <trkpt lat="40.8125420" lon="0.1792360">
        <ele>610.4</ele>
      </trkpt>
      <trkpt lat="40.8125250" lon="0.1792080">
        <ele>610.4</ele>
      </trkpt>
      <trkpt lat="40.8125070" lon="0.1791660">
        <ele>610.4</ele>
      </trkpt>
      <trkpt lat="40.8124900" lon="0.1791220">
        <ele>610.5</ele>
      </trkpt>
      <trkpt lat="40.8124730" lon="0.1790820">
        <ele>610.5</ele>
      </trkpt>
      <trkpt lat="40.8124580" lon="0.1790460">
        <ele>610.6</ele>
      </trkpt>
      <trkpt lat="40.8124440" lon="0.1790080">
        <ele>610.6</ele>
      </trkpt>
      <trkpt lat="40.8124320" lon="0.1789690">
        <ele>610.7</ele>
      </trkpt>
      <trkpt lat="40.8124210" lon="0.1789350">
        <ele>610.8</ele>
      </trkpt>
      <trkpt lat="40.8124110" lon="0.1788980">
        <ele>611.0</ele>
      </trkpt>
      <trkpt lat="40.8124020" lon="0.1788530">
        <ele>611.1</ele>
      </trkpt>
      <trkpt lat="40.8123910" lon="0.1788130">
        <ele>611.2</ele>
      </trkpt>
      <trkpt lat="40.8123820" lon="0.1787740">
        <ele>611.2</ele>
      </trkpt>
      <trkpt lat="40.8123730" lon="0.1787360">
        <ele>611.4</ele>
      </trkpt>
      <trkpt lat="40.8123630" lon="0.1786870">
        <ele>611.5</ele>
      </trkpt>
      <trkpt lat="40.8123500" lon="0.1786360">
        <ele>611.6</ele>
      </trkpt>
      <trkpt lat="40.8123380" lon="0.1785940">
        <ele>611.6</ele>
      </trkpt>
      <trkpt lat="40.8123240" lon="0.1785540">
        <ele>611.5</ele>
      </trkpt>
      <trkpt lat="40.8123110" lon="0.1785130">
        <ele>611.5</ele>
      </trkpt>
      <trkpt lat="40.8122960" lon="0.1784750">
        <ele>611.5</ele>
      </trkpt>
      <trkpt lat="40.8122810" lon="0.1784370">
        <ele>611.4</ele>
      </trkpt>
      <trkpt lat="40.8122700" lon="0.1783990">
        <ele>611.4</ele>
      </trkpt>
      <trkpt lat="40.8122540" lon="0.1783580">
        <ele>611.4</ele>
      </trkpt>
      <trkpt lat="40.8122420" lon="0.1783240">
        <ele>611.4</ele>
      </trkpt>
      <trkpt lat="40.8122230" lon="0.1782700">
        <ele>611.4</ele>
      </trkpt>
      <trkpt lat="40.8122030" lon="0.1782310">
        <ele>611.3</ele>
      </trkpt>
      <trkpt lat="40.8121770" lon="0.1781870">
        <ele>611.3</ele>
      </trkpt>
      <trkpt lat="40.8121500" lon="0.1781350">
        <ele>611.3</ele>
      </trkpt>
      <trkpt lat="40.8121240" lon="0.1780850">
        <ele>611.3</ele>
      </trkpt>
      <trkpt lat="40.8120990" lon="0.1780390">
        <ele>611.3</ele>
      </trkpt>
      <trkpt lat="40.8120760" lon="0.1779950">
        <ele>611.4</ele>
      </trkpt>
      <trkpt lat="40.8120560" lon="0.1779500">
        <ele>611.4</ele>
      </trkpt>
      <trkpt lat="40.8120350" lon="0.1779060">
        <ele>611.4</ele>
      </trkpt>
      <trkpt lat="40.8120160" lon="0.1778610">
        <ele>611.5</ele>
      </trkpt>
      <trkpt lat="40.8119990" lon="0.1778200">
        <ele>611.5</ele>
      </trkpt>
      <trkpt lat="40.8119830" lon="0.1777640">
        <ele>611.6</ele>
      </trkpt>
      <trkpt lat="40.8119690" lon="0.1777060">
        <ele>611.7</ele>
      </trkpt>
      <trkpt lat="40.8119600" lon="0.1776450">
        <ele>611.8</ele>
      </trkpt>
      <trkpt lat="40.8119510" lon="0.1775860">
        <ele>611.9</ele>
      </trkpt>
      <trkpt lat="40.8119440" lon="0.1775360">
        <ele>612.0</ele>
      </trkpt>
      <trkpt lat="40.8119370" lon="0.1774940">
        <ele>612.1</ele>
      </trkpt>
      <trkpt lat="40.8119270" lon="0.1774500">
        <ele>612.2</ele>
      </trkpt>
      <trkpt lat="40.8119180" lon="0.1774070">
        <ele>612.3</ele>
      </trkpt>
      <trkpt lat="40.8119110" lon="0.1773620">
        <ele>612.4</ele>
      </trkpt>
      <trkpt lat="40.8119030" lon="0.1773210">
        <ele>612.5</ele>
      </trkpt>
      <trkpt lat="40.8118950" lon="0.1772870">
        <ele>612.6</ele>
      </trkpt>
      <trkpt lat="40.8118710" lon="0.1772330">
        <ele>612.8</ele>
      </trkpt>
      <trkpt lat="40.8118460" lon="0.1771930">
        <ele>613.0</ele>
      </trkpt>
      <trkpt lat="40.8118260" lon="0.1771680">
        <ele>613.1</ele>
      </trkpt>
      <trkpt lat="40.8118080" lon="0.1771400">
        <ele>613.2</ele>
      </trkpt>
      <trkpt lat="40.8117900" lon="0.1770910">
        <ele>613.4</ele>
      </trkpt>
      <trkpt lat="40.8117810" lon="0.1770550">
        <ele>613.5</ele>
      </trkpt>
      <trkpt lat="40.8117730" lon="0.1769920">
        <ele>613.6</ele>
      </trkpt>
      <trkpt lat="40.8117670" lon="0.1769140">
        <ele>613.8</ele>
      </trkpt>
      <trkpt lat="40.8117600" lon="0.1768400">
        <ele>614.0</ele>
      </trkpt>
      <trkpt lat="40.8117510" lon="0.1767700">
        <ele>614.2</ele>
      </trkpt>
      <trkpt lat="40.8117400" lon="0.1766980">
        <ele>614.3</ele>
      </trkpt>
      <trkpt lat="40.8117230" lon="0.1766380">
        <ele>614.4</ele>
      </trkpt>
      <trkpt lat="40.8117070" lon="0.1765890">
        <ele>614.4</ele>
      </trkpt>
      <trkpt lat="40.8116930" lon="0.1765390">
        <ele>614.5</ele>
      </trkpt>
      <trkpt lat="40.8116800" lon="0.1764850">
        <ele>614.6</ele>
      </trkpt>
      <trkpt lat="40.8116700" lon="0.1764310">
        <ele>614.7</ele>
      </trkpt>
      <trkpt lat="40.8116620" lon="0.1763740">
        <ele>614.7</ele>
      </trkpt>
      <trkpt lat="40.8116520" lon="0.1763200">
        <ele>614.7</ele>
      </trkpt>
      <trkpt lat="40.8116410" lon="0.1762670">
        <ele>614.8</ele>
      </trkpt>
      <trkpt lat="40.8116330" lon="0.1762250">
        <ele>614.8</ele>
      </trkpt>
      <trkpt lat="40.8116270" lon="0.1761820">
        <ele>614.8</ele>
      </trkpt>
      <trkpt lat="40.8116240" lon="0.1761360">
        <ele>614.9</ele>
      </trkpt>
      <trkpt lat="40.8116210" lon="0.1760860">
        <ele>614.9</ele>
      </trkpt>
      <trkpt lat="40.8116180" lon="0.1760320">
        <ele>614.9</ele>
      </trkpt>
      <trkpt lat="40.8116100" lon="0.1759690">
        <ele>615.0</ele>
      </trkpt>
      <trkpt lat="40.8115890" lon="0.1759160">
        <ele>615.0</ele>
      </trkpt>
      <trkpt lat="40.8115660" lon="0.1758720">
        <ele>615.0</ele>
      </trkpt>
      <trkpt lat="40.8115360" lon="0.1758390">
        <ele>615.1</ele>
      </trkpt>
      <trkpt lat="40.8115140" lon="0.1757880">
        <ele>615.1</ele>
      </trkpt>
      <trkpt lat="40.8115090" lon="0.1757280">
        <ele>615.1</ele>
      </trkpt>
      <trkpt lat="40.8115060" lon="0.1756700">
        <ele>615.1</ele>
      </trkpt>
      <trkpt lat="40.8115040" lon="0.1756120">
        <ele>615.2</ele>
      </trkpt>
      <trkpt lat="40.8115080" lon="0.1755720">
        <ele>615.2</ele>
      </trkpt>
      <trkpt lat="40.8115130" lon="0.1755130">
        <ele>615.2</ele>
      </trkpt>
      <trkpt lat="40.8115230" lon="0.1754470">
        <ele>615.3</ele>
      </trkpt>
      <trkpt lat="40.8115350" lon="0.1753890">
        <ele>615.3</ele>
      </trkpt>
      <trkpt lat="40.8115390" lon="0.1753280">
        <ele>615.4</ele>
      </trkpt>
      <trkpt lat="40.8115400" lon="0.1752720">
        <ele>615.4</ele>
      </trkpt>
      <trkpt lat="40.8115310" lon="0.1752200">
        <ele>615.4</ele>
      </trkpt>
      <trkpt lat="40.8115210" lon="0.1751720">
        <ele>615.5</ele>
      </trkpt>
      <trkpt lat="40.8115290" lon="0.1751310">
        <ele>615.5</ele>
      </trkpt>
      <trkpt lat="40.8115380" lon="0.1750840">
        <ele>615.5</ele>
      </trkpt>
      <trkpt lat="40.8115370" lon="0.1750480">
        <ele>615.6</ele>
      </trkpt>
      <trkpt lat="40.8115310" lon="0.1749880">
        <ele>615.6</ele>
      </trkpt>
      <trkpt lat="40.8115320" lon="0.1749420">
        <ele>615.7</ele>
      </trkpt>
      <trkpt lat="40.8115180" lon="0.1748660">
        <ele>615.8</ele>
      </trkpt>
      <trkpt lat="40.8115120" lon="0.1748200">
        <ele>615.8</ele>
      </trkpt>
      <trkpt lat="40.8115130" lon="0.1747830">
        <ele>615.8</ele>
      </trkpt>
      <trkpt lat="40.8115140" lon="0.1747240">
        <ele>615.9</ele>
      </trkpt>
      <trkpt lat="40.8115030" lon="0.1746700">
        <ele>616.0</ele>
      </trkpt>
      <trkpt lat="40.8114940" lon="0.1746150">
        <ele>616.0</ele>
      </trkpt>
      <trkpt lat="40.8114820" lon="0.1745660">
        <ele>616.1</ele>
      </trkpt>
      <trkpt lat="40.8114740" lon="0.1745130">
        <ele>616.1</ele>
      </trkpt>
      <trkpt lat="40.8114760" lon="0.1744650">
        <ele>616.2</ele>
      </trkpt>
      <trkpt lat="40.8114750" lon="0.1744130">
        <ele>616.2</ele>
      </trkpt>
      <trkpt lat="40.8114770" lon="0.1743690">
        <ele>616.3</ele>
      </trkpt>
      <trkpt lat="40.8114750" lon="0.1743160">
        <ele>616.4</ele>
      </trkpt>
      <trkpt lat="40.8114540" lon="0.1742680">
        <ele>616.4</ele>
      </trkpt>
      <trkpt lat="40.8114360" lon="0.1742060">
        <ele>616.5</ele>
      </trkpt>
      <trkpt lat="40.8114270" lon="0.1741610">
        <ele>616.6</ele>
      </trkpt>
      <trkpt lat="40.8114170" lon="0.1741150">
        <ele>616.7</ele>
      </trkpt>
      <trkpt lat="40.8114050" lon="0.1740650">
        <ele>616.7</ele>
      </trkpt>
      <trkpt lat="40.8113930" lon="0.1740230">
        <ele>616.8</ele>
      </trkpt>
      <trkpt lat="40.8113810" lon="0.1739540">
        <ele>616.9</ele>
      </trkpt>
      <trkpt lat="40.8113680" lon="0.1739230">
        <ele>616.9</ele>
      </trkpt>
      <trkpt lat="40.8113500" lon="0.1738850">
        <ele>617.0</ele>
      </trkpt>
      <trkpt lat="40.8113320" lon="0.1738390">
        <ele>617.1</ele>
      </trkpt>
      <trkpt lat="40.8113170" lon="0.1738000">
        <ele>617.2</ele>
      </trkpt>
      <trkpt lat="40.8113060" lon="0.1737300">
        <ele>617.3</ele>
      </trkpt>
      <trkpt lat="40.8112930" lon="0.1736650">
        <ele>617.4</ele>
      </trkpt>
      <trkpt lat="40.8112820" lon="0.1736040">
        <ele>617.4</ele>
      </trkpt>
      <trkpt lat="40.8112710" lon="0.1735420">
        <ele>617.5</ele>
      </trkpt>
      <trkpt lat="40.8112650" lon="0.1734800">
        <ele>617.6</ele>
      </trkpt>
      <trkpt lat="40.8112620" lon="0.1734120">
        <ele>617.7</ele>
      </trkpt>
      <trkpt lat="40.8112620" lon="0.1733740">
        <ele>617.8</ele>
      </trkpt>
      <trkpt lat="40.8112660" lon="0.1733090">
        <ele>617.9</ele>
      </trkpt>
      <trkpt lat="40.8112660" lon="0.1732410">
        <ele>618.0</ele>
      </trkpt>
      <trkpt lat="40.8112660" lon="0.1732000">
        <ele>618.1</ele>
      </trkpt>
      <trkpt lat="40.8112700" lon="0.1731580">
        <ele>618.2</ele>
      </trkpt>
      <trkpt lat="40.8112750" lon="0.1731140">
        <ele>618.2</ele>
      </trkpt>
      <trkpt lat="40.8112740" lon="0.1730750">
        <ele>618.3</ele>
      </trkpt>
      <trkpt lat="40.8112690" lon="0.1730380">
        <ele>618.4</ele>
      </trkpt>
      <trkpt lat="40.8112630" lon="0.1730020">
        <ele>618.5</ele>
      </trkpt>
      <trkpt lat="40.8112550" lon="0.1729300">
        <ele>618.7</ele>
      </trkpt>
      <trkpt lat="40.8112450" lon="0.1728580">
        <ele>618.9</ele>
      </trkpt>
      <trkpt lat="40.8112370" lon="0.1728170">
        <ele>619.0</ele>
      </trkpt>
      <trkpt lat="40.8112260" lon="0.1727790">
        <ele>619.1</ele>
      </trkpt>
      <trkpt lat="40.8112160" lon="0.1727350">
        <ele>619.2</ele>
      </trkpt>
      <trkpt lat="40.8112050" lon="0.1726980">
        <ele>619.4</ele>
      </trkpt>
      <trkpt lat="40.8111980" lon="0.1726640">
        <ele>619.5</ele>
      </trkpt>
      <trkpt lat="40.8111890" lon="0.1726300">
        <ele>619.6</ele>
      </trkpt>
      <trkpt lat="40.8111800" lon="0.1725930">
        <ele>619.8</ele>
      </trkpt>
      <trkpt lat="40.8111700" lon="0.1725520">
        <ele>620.0</ele>
      </trkpt>
      <trkpt lat="40.8111510" lon="0.1725130">
        <ele>620.2</ele>
      </trkpt>
      <trkpt lat="40.8111260" lon="0.1724670">
        <ele>619.9</ele>
      </trkpt>
      <trkpt lat="40.8111000" lon="0.1724260">
        <ele>619.5</ele>
      </trkpt>
      <trkpt lat="40.8110730" lon="0.1723860">
        <ele>619.2</ele>
      </trkpt>
      <trkpt lat="40.8110450" lon="0.1723490">
        <ele>618.3</ele>
      </trkpt>
      <trkpt lat="40.8110200" lon="0.1723160">
        <ele>618.9</ele>
      </trkpt>
      <trkpt lat="40.8110070" lon="0.1722680">
        <ele>618.7</ele>
      </trkpt>
      <trkpt lat="40.8110120" lon="0.1721960">
        <ele>620.1</ele>
      </trkpt>
      <trkpt lat="40.8110170" lon="0.1721370">
        <ele>621.9</ele>
      </trkpt>
      <trkpt lat="40.8110190" lon="0.1720930">
        <ele>622.8</ele>
      </trkpt>
      <trkpt lat="40.8110160" lon="0.1720540">
        <ele>623.7</ele>
      </trkpt>
      <trkpt lat="40.8110100" lon="0.1720190">
        <ele>623.4</ele>
      </trkpt>
      <trkpt lat="40.8109980" lon="0.1719530">
        <ele>625.1</ele>
      </trkpt>
      <trkpt lat="40.8109820" lon="0.1718870">
        <ele>624.7</ele>
      </trkpt>
      <trkpt lat="40.8109650" lon="0.1718340">
        <ele>625.6</ele>
      </trkpt>
      <trkpt lat="40.8109470" lon="0.1717850">
        <ele>626.1</ele>
      </trkpt>
      <trkpt lat="40.8109260" lon="0.1717390">
        <ele>627.1</ele>
      </trkpt>
      <trkpt lat="40.8109180" lon="0.1716850">
        <ele>626.9</ele>
      </trkpt>
      <trkpt lat="40.8109170" lon="0.1716280">
        <ele>628.0</ele>
      </trkpt>
      <trkpt lat="40.8109110" lon="0.1715860">
        <ele>629.1</ele>
      </trkpt>
      <trkpt lat="40.8108940" lon="0.1715420">
        <ele>630.2</ele>
      </trkpt>
      <trkpt lat="40.8108870" lon="0.1714940">
        <ele>631.3</ele>
      </trkpt>
      <trkpt lat="40.8108740" lon="0.1714290">
        <ele>631.9</ele>
      </trkpt>
      <trkpt lat="40.8108540" lon="0.1713780">
        <ele>633.0</ele>
      </trkpt>
      <trkpt lat="40.8108330" lon="0.1713270">
        <ele>632.5</ele>
      </trkpt>
      <trkpt lat="40.8108050" lon="0.1712830">
        <ele>632.0</ele>
      </trkpt>
      <trkpt lat="40.8107730" lon="0.1712510">
        <ele>631.6</ele>
      </trkpt>
      <trkpt lat="40.8107450" lon="0.1712260">
        <ele>631.4</ele>
      </trkpt>
      <trkpt lat="40.8107230" lon="0.1711970">
        <ele>630.1</ele>
      </trkpt>
      <trkpt lat="40.8107080" lon="0.1711630">
        <ele>631.3</ele>
      </trkpt>
      <trkpt lat="40.8106920" lon="0.1711250">
        <ele>632.4</ele>
      </trkpt>
      <trkpt lat="40.8106730" lon="0.1710890">
        <ele>632.3</ele>
      </trkpt>
      <trkpt lat="40.8106720" lon="0.1710480">
        <ele>633.3</ele>
      </trkpt>
      <trkpt lat="40.8106690" lon="0.1710110">
        <ele>634.4</ele>
      </trkpt>
      <trkpt lat="40.8106740" lon="0.1709670">
        <ele>635.4</ele>
      </trkpt>
      <trkpt lat="40.8106860" lon="0.1709310">
        <ele>635.8</ele>
      </trkpt>
      <trkpt lat="40.8107000" lon="0.1708910">
        <ele>636.2</ele>
      </trkpt>
      <trkpt lat="40.8107090" lon="0.1708480">
        <ele>636.7</ele>
      </trkpt>
      <trkpt lat="40.8107210" lon="0.1708040">
        <ele>637.1</ele>
      </trkpt>
      <trkpt lat="40.8107370" lon="0.1707530">
        <ele>637.8</ele>
      </trkpt>
      <trkpt lat="40.8107540" lon="0.1706860">
        <ele>638.6</ele>
      </trkpt>
      <trkpt lat="40.8107710" lon="0.1706320">
        <ele>639.4</ele>
      </trkpt>
      <trkpt lat="40.8107990" lon="0.1706030">
        <ele>639.9</ele>
      </trkpt>
      <trkpt lat="40.8108460" lon="0.1705950">
        <ele>640.7</ele>
      </trkpt>
      <trkpt lat="40.8108850" lon="0.1705980">
        <ele>641.3</ele>
      </trkpt>
      <trkpt lat="40.8109110" lon="0.1706160">
        <ele>641.7</ele>
      </trkpt>
      <trkpt lat="40.8109430" lon="0.1706350">
        <ele>642.1</ele>
      </trkpt>
      <trkpt lat="40.8109650" lon="0.1706560">
        <ele>642.4</ele>
      </trkpt>
      <trkpt lat="40.8110000" lon="0.1706900">
        <ele>642.9</ele>
      </trkpt>
      <trkpt lat="40.8110230" lon="0.1707130">
        <ele>643.3</ele>
      </trkpt>
      <trkpt lat="40.8110510" lon="0.1707350">
        <ele>643.6</ele>
      </trkpt>
      <trkpt lat="40.8110830" lon="0.1707730">
        <ele>644.1</ele>
      </trkpt>
      <trkpt lat="40.8111150" lon="0.1707970">
        <ele>644.5</ele>
      </trkpt>
      <trkpt lat="40.8111490" lon="0.1708060">
        <ele>644.9</ele>
      </trkpt>
      <trkpt lat="40.8111950" lon="0.1708180">
        <ele>645.6</ele>
      </trkpt>
      <trkpt lat="40.8112320" lon="0.1708350">
        <ele>646.1</ele>
      </trkpt>
      <trkpt lat="40.8112540" lon="0.1708090">
        <ele>646.5</ele>
      </trkpt>
      <trkpt lat="40.8112380" lon="0.1707650">
        <ele>647.1</ele>
      </trkpt>
      <trkpt lat="40.8112300" lon="0.1707260">
        <ele>647.8</ele>
      </trkpt>
      <trkpt lat="40.8112030" lon="0.1706900">
        <ele>648.5</ele>
      </trkpt>
      <trkpt lat="40.8111810" lon="0.1706500">
        <ele>649.0</ele>
      </trkpt>
      <trkpt lat="40.8111650" lon="0.1706150">
        <ele>649.4</ele>
      </trkpt>
      <trkpt lat="40.8111410" lon="0.1705880">
        <ele>649.8</ele>
      </trkpt>
      <trkpt lat="40.8111060" lon="0.1705610">
        <ele>650.3</ele>
      </trkpt>
      <trkpt lat="40.8110740" lon="0.1705340">
        <ele>650.7</ele>
      </trkpt>
      <trkpt lat="40.8110460" lon="0.1705190">
        <ele>651.1</ele>
      </trkpt>
      <trkpt lat="40.8110070" lon="0.1704980">
        <ele>651.6</ele>
      </trkpt>
      <trkpt lat="40.8109650" lon="0.1704630">
        <ele>651.5</ele>
      </trkpt>
      <trkpt lat="40.8109310" lon="0.1704310">
        <ele>652.2</ele>
      </trkpt>
      <trkpt lat="40.8109070" lon="0.1704060">
        <ele>652.9</ele>
      </trkpt>
      <trkpt lat="40.8108850" lon="0.1703820">
        <ele>653.1</ele>
      </trkpt>
      <trkpt lat="40.8108580" lon="0.1703630">
        <ele>653.4</ele>
      </trkpt>
      <trkpt lat="40.8108310" lon="0.1703320">
        <ele>653.7</ele>
      </trkpt>
      <trkpt lat="40.8108170" lon="0.1702790">
        <ele>654.0</ele>
      </trkpt>
      <trkpt lat="40.8107940" lon="0.1702270">
        <ele>654.4</ele>
      </trkpt>
      <trkpt lat="40.8107620" lon="0.1701950">
        <ele>654.7</ele>
      </trkpt>
      <trkpt lat="40.8107170" lon="0.1701720">
        <ele>655.2</ele>
      </trkpt>
      <trkpt lat="40.8106920" lon="0.1701400">
        <ele>655.5</ele>
      </trkpt>
      <trkpt lat="40.8106730" lon="0.1701000">
        <ele>655.8</ele>
      </trkpt>
      <trkpt lat="40.8106530" lon="0.1700660">
        <ele>656.1</ele>
      </trkpt>
      <trkpt lat="40.8106330" lon="0.1700320">
        <ele>656.3</ele>
      </trkpt>
      <trkpt lat="40.8106030" lon="0.1700040">
        <ele>656.7</ele>
      </trkpt>
      <trkpt lat="40.8105750" lon="0.1699700">
        <ele>657.1</ele>
      </trkpt>
      <trkpt lat="40.8105570" lon="0.1699170">
        <ele>657.5</ele>
      </trkpt>
      <trkpt lat="40.8105550" lon="0.1698750">
        <ele>657.8</ele>
      </trkpt>
      <trkpt lat="40.8105530" lon="0.1698280">
        <ele>658.1</ele>
      </trkpt>
      <trkpt lat="40.8105480" lon="0.1697790">
        <ele>658.5</ele>
      </trkpt>
      <trkpt lat="40.8105440" lon="0.1697380">
        <ele>658.8</ele>
      </trkpt>
      <trkpt lat="40.8105390" lon="0.1697010">
        <ele>659.1</ele>
      </trkpt>
      <trkpt lat="40.8105180" lon="0.1696450">
        <ele>659.6</ele>
      </trkpt>
      <trkpt lat="40.8104960" lon="0.1695860">
        <ele>660.1</ele>
      </trkpt>
      <trkpt lat="40.8104850" lon="0.1695520">
        <ele>660.4</ele>
      </trkpt>
      <trkpt lat="40.8104650" lon="0.1694920">
        <ele>660.8</ele>
      </trkpt>
      <trkpt lat="40.8104550" lon="0.1694570">
        <ele>661.1</ele>
      </trkpt>
      <trkpt lat="40.8104470" lon="0.1694170">
        <ele>661.4</ele>
      </trkpt>
      <trkpt lat="40.8104400" lon="0.1693810">
        <ele>661.6</ele>
      </trkpt>
      <trkpt lat="40.8104290" lon="0.1693190">
        <ele>662.1</ele>
      </trkpt>
      <trkpt lat="40.8104180" lon="0.1692760">
        <ele>662.4</ele>
      </trkpt>
      <trkpt lat="40.8104180" lon="0.1692360">
        <ele>662.7</ele>
      </trkpt>
      <trkpt lat="40.8104210" lon="0.1691930">
        <ele>663.0</ele>
      </trkpt>
      <trkpt lat="40.8104230" lon="0.1691350">
        <ele>663.4</ele>
      </trkpt>
      <trkpt lat="40.8104240" lon="0.1690760">
        <ele>663.9</ele>
      </trkpt>
      <trkpt lat="40.8104280" lon="0.1690380">
        <ele>664.1</ele>
      </trkpt>
      <trkpt lat="40.8104650" lon="0.1690140">
        <ele>664.6</ele>
      </trkpt>
      <trkpt lat="40.8104370" lon="0.1689940">
        <ele>665.0</ele>
      </trkpt>
      <trkpt lat="40.8103980" lon="0.1689630">
        <ele>665.5</ele>
      </trkpt>
      <trkpt lat="40.8103630" lon="0.1689280">
        <ele>666.0</ele>
      </trkpt>
      <trkpt lat="40.8103370" lon="0.1689090">
        <ele>666.2</ele>
      </trkpt>
      <trkpt lat="40.8103560" lon="0.1689480">
        <ele>666.9</ele>
      </trkpt>
      <trkpt lat="40.8103750" lon="0.1689810">
        <ele>667.5</ele>
      </trkpt>
      <trkpt lat="40.8103880" lon="0.1690160">
        <ele>668.0</ele>
      </trkpt>
      <trkpt lat="40.8104100" lon="0.1690650">
        <ele>668.9</ele>
      </trkpt>
      <trkpt lat="40.8104330" lon="0.1690830">
        <ele>669.7</ele>
      </trkpt>
      <trkpt lat="40.8104710" lon="0.1690430">
        <ele>671.1</ele>
      </trkpt>
      <trkpt lat="40.8105070" lon="0.1690210">
        <ele>672.1</ele>
      </trkpt>
      <trkpt lat="40.8105440" lon="0.1689910">
        <ele>673.3</ele>
      </trkpt>
      <trkpt lat="40.8105760" lon="0.1689590">
        <ele>674.1</ele>
      </trkpt>
      <trkpt lat="40.8106040" lon="0.1689180">
        <ele>674.8</ele>
      </trkpt>
      <trkpt lat="40.8106380" lon="0.1688790">
        <ele>675.6</ele>
      </trkpt>
      <trkpt lat="40.8106700" lon="0.1688620">
        <ele>676.1</ele>
      </trkpt>
      <trkpt lat="40.8107000" lon="0.1688410">
        <ele>676.8</ele>
      </trkpt>
      <trkpt lat="40.8107350" lon="0.1688120">
        <ele>677.7</ele>
      </trkpt>
      <trkpt lat="40.8107700" lon="0.1687770">
        <ele>678.6</ele>
      </trkpt>
      <trkpt lat="40.8108010" lon="0.1687600">
        <ele>679.1</ele>
      </trkpt>
      <trkpt lat="40.8108420" lon="0.1687520">
        <ele>679.7</ele>
      </trkpt>
      <trkpt lat="40.8108780" lon="0.1687390">
        <ele>680.1</ele>
      </trkpt>
      <trkpt lat="40.8109110" lon="0.1687120">
        <ele>680.5</ele>
      </trkpt>
      <trkpt lat="40.8109390" lon="0.1686860">
        <ele>680.7</ele>
      </trkpt>
      <trkpt lat="40.8109730" lon="0.1686650">
        <ele>681.0</ele>
      </trkpt>
      <trkpt lat="40.8110070" lon="0.1686470">
        <ele>680.9</ele>
      </trkpt>
      <trkpt lat="40.8110360" lon="0.1686150">
        <ele>680.9</ele>
      </trkpt>
      <trkpt lat="40.8110690" lon="0.1685850">
        <ele>681.0</ele>
      </trkpt>
      <trkpt lat="40.8111030" lon="0.1685630">
        <ele>681.0</ele>
      </trkpt>
      <trkpt lat="40.8111380" lon="0.1685540">
        <ele>681.0</ele>
      </trkpt>
      <trkpt lat="40.8111750" lon="0.1685550">
        <ele>681.1</ele>
      </trkpt>
      <trkpt lat="40.8112080" lon="0.1685590">
        <ele>681.2</ele>
      </trkpt>
      <trkpt lat="40.8112470" lon="0.1685570">
        <ele>681.2</ele>
      </trkpt>
      <trkpt lat="40.8112780" lon="0.1685560">
        <ele>681.3</ele>
      </trkpt>
      <trkpt lat="40.8113140" lon="0.1685230">
        <ele>681.2</ele>
      </trkpt>
      <trkpt lat="40.8113530" lon="0.1684860">
        <ele>681.1</ele>
      </trkpt>
      <trkpt lat="40.8113780" lon="0.1684710">
        <ele>681.1</ele>
      </trkpt>
      <trkpt lat="40.8114070" lon="0.1684660">
        <ele>681.2</ele>
      </trkpt>
      <trkpt lat="40.8114360" lon="0.1684620">
        <ele>681.3</ele>
      </trkpt>
      <trkpt lat="40.8114650" lon="0.1684590">
        <ele>681.2</ele>
      </trkpt>
      <trkpt lat="40.8114990" lon="0.1684600">
        <ele>681.1</ele>
      </trkpt>
      <trkpt lat="40.8115370" lon="0.1684630">
        <ele>680.9</ele>
      </trkpt>
      <trkpt lat="40.8115740" lon="0.1684650">
        <ele>680.7</ele>
      </trkpt>
      <trkpt lat="40.8116140" lon="0.1684710">
        <ele>680.4</ele>
      </trkpt>
      <trkpt lat="40.8116550" lon="0.1684800">
        <ele>680.1</ele>
      </trkpt>
      <trkpt lat="40.8116960" lon="0.1684890">
        <ele>679.7</ele>
      </trkpt>
      <trkpt lat="40.8117410" lon="0.1685040">
        <ele>679.2</ele>
      </trkpt>
      <trkpt lat="40.8117890" lon="0.1685140">
        <ele>678.9</ele>
      </trkpt>
      <trkpt lat="40.8118390" lon="0.1685210">
        <ele>678.5</ele>
      </trkpt>
      <trkpt lat="40.8118920" lon="0.1685240">
        <ele>677.7</ele>
      </trkpt>
      <trkpt lat="40.8119560" lon="0.1685360">
        <ele>676.7</ele>
      </trkpt>
      <trkpt lat="40.8120190" lon="0.1685580">
        <ele>676.0</ele>
      </trkpt>
      <trkpt lat="40.8120810" lon="0.1685840">
        <ele>675.3</ele>
      </trkpt>
      <trkpt lat="40.8121410" lon="0.1686080">
        <ele>674.4</ele>
      </trkpt>
      <trkpt lat="40.8121960" lon="0.1686200">
        <ele>673.8</ele>
      </trkpt>
      <trkpt lat="40.8122600" lon="0.1686300">
        <ele>673.1</ele>
      </trkpt>
      <trkpt lat="40.8123350" lon="0.1686470">
        <ele>671.6</ele>
      </trkpt>
      <trkpt lat="40.8124790" lon="0.1687050">
        <ele>669.1</ele>
      </trkpt>
      <trkpt lat="40.8125440" lon="0.1687170">
        <ele>668.0</ele>
      </trkpt>
      <trkpt lat="40.8126430" lon="0.1687550">
        <ele>666.8</ele>
      </trkpt>
      <trkpt lat="40.8127030" lon="0.1687370">
        <ele>666.2</ele>
      </trkpt>
      <trkpt lat="40.8127940" lon="0.1687220">
        <ele>665.2</ele>
      </trkpt>
      <trkpt lat="40.8128620" lon="0.1687310">
        <ele>664.8</ele>
      </trkpt>
      <trkpt lat="40.8129250" lon="0.1687140">
        <ele>664.6</ele>
      </trkpt>
      <trkpt lat="40.8129820" lon="0.1687080">
        <ele>664.3</ele>
      </trkpt>
      <trkpt lat="40.8130370" lon="0.1687540">
        <ele>663.9</ele>
      </trkpt>
      <trkpt lat="40.8130870" lon="0.1687310">
        <ele>663.9</ele>
      </trkpt>
      <trkpt lat="40.8131440" lon="0.1687170">
        <ele>663.6</ele>
      </trkpt>
      <trkpt lat="40.8132070" lon="0.1686740">
        <ele>663.4</ele>
      </trkpt>
      <trkpt lat="40.8132740" lon="0.1686710">
        <ele>663.2</ele>
      </trkpt>
      <trkpt lat="40.8133330" lon="0.1686560">
        <ele>663.3</ele>
      </trkpt>
      <trkpt lat="40.8134270" lon="0.1685880">
        <ele>662.9</ele>
      </trkpt>
      <trkpt lat="40.8133910" lon="0.1686260">
        <ele>662.6</ele>
      </trkpt>
      <trkpt lat="40.8134190" lon="0.1686240">
        <ele>662.6</ele>
      </trkpt>
      <trkpt lat="40.8134670" lon="0.1686540">
        <ele>662.6</ele>
      </trkpt>
      <trkpt lat="40.8135190" lon="0.1686520">
        <ele>662.2</ele>
      </trkpt>
      <trkpt lat="40.8135780" lon="0.1686420">
        <ele>662.2</ele>
      </trkpt>
      <trkpt lat="40.8136110" lon="0.1686240">
        <ele>662.1</ele>
      </trkpt>
      <trkpt lat="40.8136620" lon="0.1685920">
        <ele>661.7</ele>
      </trkpt>
      <trkpt lat="40.8136930" lon="0.1685700">
        <ele>661.6</ele>
      </trkpt>
      <trkpt lat="40.8137290" lon="0.1685530">
        <ele>661.6</ele>
      </trkpt>
      <trkpt lat="40.8137770" lon="0.1685280">
        <ele>661.1</ele>
      </trkpt>
      <trkpt lat="40.8138200" lon="0.1685040">
        <ele>660.8</ele>
      </trkpt>
      <trkpt lat="40.8138650" lon="0.1684880">
        <ele>660.6</ele>
      </trkpt>
      <trkpt lat="40.8139010" lon="0.1684790">
        <ele>660.3</ele>
      </trkpt>
      <trkpt lat="40.8139330" lon="0.1684660">
        <ele>659.8</ele>
      </trkpt>
      <trkpt lat="40.8139660" lon="0.1684470">
        <ele>659.5</ele>
      </trkpt>
      <trkpt lat="40.8140040" lon="0.1684240">
        <ele>659.2</ele>
      </trkpt>
      <trkpt lat="40.8140400" lon="0.1684020">
        <ele>658.8</ele>
      </trkpt>
      <trkpt lat="40.8140720" lon="0.1683850">
        <ele>658.1</ele>
      </trkpt>
      <trkpt lat="40.8141030" lon="0.1683740">
        <ele>657.6</ele>
      </trkpt>
      <trkpt lat="40.8141310" lon="0.1683680">
        <ele>657.4</ele>
      </trkpt>
      <trkpt lat="40.8141590" lon="0.1683590">
        <ele>657.2</ele>
      </trkpt>
      <trkpt lat="40.8141890" lon="0.1683460">
        <ele>657.0</ele>
      </trkpt>
      <trkpt lat="40.8142250" lon="0.1683280">
        <ele>656.7</ele>
      </trkpt>
      <trkpt lat="40.8142650" lon="0.1683160">
        <ele>656.5</ele>
      </trkpt>
      <trkpt lat="40.8143120" lon="0.1682960">
        <ele>656.3</ele>
      </trkpt>
      <trkpt lat="40.8143510" lon="0.1682820">
        <ele>656.1</ele>
      </trkpt>
      <trkpt lat="40.8143860" lon="0.1682720">
        <ele>655.9</ele>
      </trkpt>
      <trkpt lat="40.8144250" lon="0.1682610">
        <ele>655.8</ele>
      </trkpt>
      <trkpt lat="40.8144660" lon="0.1682550">
        <ele>655.7</ele>
      </trkpt>
      <trkpt lat="40.8145000" lon="0.1682540">
        <ele>655.6</ele>
      </trkpt>
      <trkpt lat="40.8145320" lon="0.1682570">
        <ele>655.6</ele>
      </trkpt>
      <trkpt lat="40.8145610" lon="0.1682620">
        <ele>655.5</ele>
      </trkpt>
      <trkpt lat="40.8146120" lon="0.1682820">
        <ele>655.4</ele>
      </trkpt>
      <trkpt lat="40.8146460" lon="0.1682870">
        <ele>655.4</ele>
      </trkpt>
      <trkpt lat="40.8146820" lon="0.1682930">
        <ele>655.3</ele>
      </trkpt>
      <trkpt lat="40.8147210" lon="0.1682950">
        <ele>655.3</ele>
      </trkpt>
      <trkpt lat="40.8147570" lon="0.1683030">
        <ele>655.2</ele>
      </trkpt>
      <trkpt lat="40.8148080" lon="0.1683150">
        <ele>655.2</ele>
      </trkpt>
      <trkpt lat="40.8148440" lon="0.1683270">
        <ele>655.2</ele>
      </trkpt>
      <trkpt lat="40.8148850" lon="0.1683380">
        <ele>655.2</ele>
      </trkpt>
      <trkpt lat="40.8149210" lon="0.1683510">
        <ele>655.2</ele>
      </trkpt>
      <trkpt lat="40.8149560" lon="0.1683530">
        <ele>655.2</ele>
      </trkpt>
      <trkpt lat="40.8149900" lon="0.1683450">
        <ele>655.2</ele>
      </trkpt>
      <trkpt lat="40.8150250" lon="0.1683330">
        <ele>655.5</ele>
      </trkpt>
      <trkpt lat="40.8150590" lon="0.1683190">
        <ele>655.9</ele>
      </trkpt>
      <trkpt lat="40.8151010" lon="0.1683040">
        <ele>656.0</ele>
      </trkpt>
      <trkpt lat="40.8151300" lon="0.1683030">
        <ele>656.0</ele>
      </trkpt>
      <trkpt lat="40.8151670" lon="0.1683060">
        <ele>656.0</ele>
      </trkpt>
      <trkpt lat="40.8152010" lon="0.1683050">
        <ele>656.0</ele>
      </trkpt>
      <trkpt lat="40.8152370" lon="0.1682960">
        <ele>655.9</ele>
      </trkpt>
      <trkpt lat="40.8152980" lon="0.1682930">
        <ele>655.3</ele>
      </trkpt>
      <trkpt lat="40.8153340" lon="0.1683010">
        <ele>655.0</ele>
      </trkpt>
      <trkpt lat="40.8153640" lon="0.1683110">
        <ele>655.0</ele>
      </trkpt>
      <trkpt lat="40.8154040" lon="0.1683030">
        <ele>655.0</ele>
      </trkpt>
      <trkpt lat="40.8154380" lon="0.1682830">
        <ele>655.1</ele>
      </trkpt>
      <trkpt lat="40.8154850" lon="0.1682370">
        <ele>654.5</ele>
      </trkpt>
      <trkpt lat="40.8155080" lon="0.1682100">
        <ele>654.0</ele>
      </trkpt>
      <trkpt lat="40.8155530" lon="0.1681860">
        <ele>654.0</ele>
      </trkpt>
      <trkpt lat="40.8155820" lon="0.1681700">
        <ele>654.0</ele>
      </trkpt>
      <trkpt lat="40.8156110" lon="0.1681530">
        <ele>653.7</ele>
      </trkpt>
      <trkpt lat="40.8156590" lon="0.1681340">
        <ele>653.3</ele>
      </trkpt>
      <trkpt lat="40.8157050" lon="0.1681160">
        <ele>653.1</ele>
      </trkpt>
      <trkpt lat="40.8157340" lon="0.1681080">
        <ele>652.9</ele>
      </trkpt>
      <trkpt lat="40.8157660" lon="0.1680950">
        <ele>652.8</ele>
      </trkpt>
      <trkpt lat="40.8158020" lon="0.1680780">
        <ele>652.3</ele>
      </trkpt>
      <trkpt lat="40.8158420" lon="0.1680650">
        <ele>651.6</ele>
      </trkpt>
      <trkpt lat="40.8158810" lon="0.1680600">
        <ele>651.3</ele>
      </trkpt>
      <trkpt lat="40.8159130" lon="0.1680600">
        <ele>651.0</ele>
      </trkpt>
      <trkpt lat="40.8159670" lon="0.1680700">
        <ele>650.7</ele>
      </trkpt>
      <trkpt lat="40.8159970" lon="0.1680670">
        <ele>650.5</ele>
      </trkpt>
      <trkpt lat="40.8160350" lon="0.1680640">
        <ele>650.2</ele>
      </trkpt>
      <trkpt lat="40.8160740" lon="0.1680660">
        <ele>650.0</ele>
      </trkpt>
      <trkpt lat="40.8161150" lon="0.1680740">
        <ele>649.6</ele>
      </trkpt>
      <trkpt lat="40.8161550" lon="0.1680840">
        <ele>649.5</ele>
      </trkpt>
      <trkpt lat="40.8161990" lon="0.1681030">
        <ele>649.6</ele>
      </trkpt>
      <trkpt lat="40.8162370" lon="0.1681180">
        <ele>649.7</ele>
      </trkpt>
      <trkpt lat="40.8162740" lon="0.1681270">
        <ele>649.2</ele>
      </trkpt>
      <trkpt lat="40.8163080" lon="0.1681220">
        <ele>648.8</ele>
      </trkpt>
      <trkpt lat="40.8163380" lon="0.1681110">
        <ele>648.6</ele>
      </trkpt>
      <trkpt lat="40.8163660" lon="0.1680950">
        <ele>648.5</ele>
      </trkpt>
      <trkpt lat="40.8163930" lon="0.1680790">
        <ele>648.2</ele>
      </trkpt>
      <trkpt lat="40.8164250" lon="0.1680500">
        <ele>647.5</ele>
      </trkpt>
      <trkpt lat="40.8164640" lon="0.1680230">
        <ele>646.8</ele>
      </trkpt>
      <trkpt lat="40.8165060" lon="0.1680050">
        <ele>646.2</ele>
      </trkpt>
      <trkpt lat="40.8165520" lon="0.1679920">
        <ele>645.7</ele>
      </trkpt>
      <trkpt lat="40.8165940" lon="0.1679910">
        <ele>645.4</ele>
      </trkpt>
      <trkpt lat="40.8166380" lon="0.1679990">
        <ele>644.8</ele>
      </trkpt>
      <trkpt lat="40.8166810" lon="0.1680080">
        <ele>645.0</ele>
      </trkpt>
      <trkpt lat="40.8167220" lon="0.1680180">
        <ele>645.0</ele>
      </trkpt>
      <trkpt lat="40.8167660" lon="0.1680320">
        <ele>645.1</ele>
      </trkpt>
      <trkpt lat="40.8168090" lon="0.1680550">
        <ele>645.4</ele>
      </trkpt>
      <trkpt lat="40.8168400" lon="0.1680790">
        <ele>645.8</ele>
      </trkpt>
      <trkpt lat="40.8168800" lon="0.1681330">
        <ele>646.7</ele>
      </trkpt>
      <trkpt lat="40.8168970" lon="0.1681600">
        <ele>647.1</ele>
      </trkpt>
      <trkpt lat="40.8169480" lon="0.1681900">
        <ele>647.9</ele>
      </trkpt>
      <trkpt lat="40.8169810" lon="0.1681990">
        <ele>648.0</ele>
      </trkpt>
      <trkpt lat="40.8170180" lon="0.1682120">
        <ele>648.0</ele>
      </trkpt>
      <trkpt lat="40.8170510" lon="0.1682230">
        <ele>648.2</ele>
      </trkpt>
      <trkpt lat="40.8170830" lon="0.1682340">
        <ele>648.3</ele>
      </trkpt>
      <trkpt lat="40.8171130" lon="0.1682360">
        <ele>648.4</ele>
      </trkpt>
      <trkpt lat="40.8171420" lon="0.1682360">
        <ele>648.5</ele>
      </trkpt>
      <trkpt lat="40.8171720" lon="0.1682390">
        <ele>648.4</ele>
      </trkpt>
      <trkpt lat="40.8172100" lon="0.1682340">
        <ele>648.3</ele>
      </trkpt>
      <trkpt lat="40.8172620" lon="0.1682400">
        <ele>648.1</ele>
      </trkpt>
      <trkpt lat="40.8173150" lon="0.1682520">
        <ele>647.9</ele>
      </trkpt>
      <trkpt lat="40.8173570" lon="0.1682620">
        <ele>647.8</ele>
      </trkpt>
      <trkpt lat="40.8173980" lon="0.1682780">
        <ele>647.7</ele>
      </trkpt>
      <trkpt lat="40.8174460" lon="0.1682950">
        <ele>647.5</ele>
      </trkpt>
      <trkpt lat="40.8174910" lon="0.1683080">
        <ele>647.1</ele>
      </trkpt>
      <trkpt lat="40.8175300" lon="0.1683180">
        <ele>646.8</ele>
      </trkpt>
      <trkpt lat="40.8175650" lon="0.1683230">
        <ele>646.4</ele>
      </trkpt>
      <trkpt lat="40.8175930" lon="0.1683260">
        <ele>646.2</ele>
      </trkpt>
      <trkpt lat="40.8176260" lon="0.1683390">
        <ele>645.9</ele>
      </trkpt>
      <trkpt lat="40.8176570" lon="0.1683510">
        <ele>645.5</ele>
      </trkpt>
      <trkpt lat="40.8176850" lon="0.1683620">
        <ele>645.2</ele>
      </trkpt>
      <trkpt lat="40.8177380" lon="0.1683690">
        <ele>644.9</ele>
      </trkpt>
      <trkpt lat="40.8177740" lon="0.1683720">
        <ele>644.6</ele>
      </trkpt>
      <trkpt lat="40.8178090" lon="0.1683710">
        <ele>644.2</ele>
      </trkpt>
      <trkpt lat="40.8178370" lon="0.1683780">
        <ele>643.9</ele>
      </trkpt>
      <trkpt lat="40.8178800" lon="0.1684050">
        <ele>643.1</ele>
      </trkpt>
      <trkpt lat="40.8178960" lon="0.1684420">
        <ele>642.9</ele>
      </trkpt>
      <trkpt lat="40.8179060" lon="0.1684760">
        <ele>643.0</ele>
      </trkpt>
      <trkpt lat="40.8179070" lon="0.1685330">
        <ele>643.2</ele>
      </trkpt>
      <trkpt lat="40.8179080" lon="0.1685930">
        <ele>643.4</ele>
      </trkpt>
      <trkpt lat="40.8179180" lon="0.1686330">
        <ele>643.3</ele>
      </trkpt>
      <trkpt lat="40.8179290" lon="0.1686650">
        <ele>643.0</ele>
      </trkpt>
      <trkpt lat="40.8179590" lon="0.1686770">
        <ele>642.6</ele>
      </trkpt>
      <trkpt lat="40.8179710" lon="0.1687110">
        <ele>642.1</ele>
      </trkpt>
      <trkpt lat="40.8179500" lon="0.1687430">
        <ele>641.4</ele>
      </trkpt>
      <trkpt lat="40.8179300" lon="0.1687830">
        <ele>640.5</ele>
      </trkpt>
      <trkpt lat="40.8179160" lon="0.1688540">
        <ele>640.0</ele>
      </trkpt>
      <trkpt lat="40.8179080" lon="0.1688920">
        <ele>640.2</ele>
      </trkpt>
      <trkpt lat="40.8178900" lon="0.1689480">
        <ele>641.1</ele>
      </trkpt>
      <trkpt lat="40.8178780" lon="0.1689930">
        <ele>641.3</ele>
      </trkpt>
      <trkpt lat="40.8178560" lon="0.1690240">
        <ele>641.6</ele>
      </trkpt>
      <trkpt lat="40.8178420" lon="0.1690560">
        <ele>641.5</ele>
      </trkpt>
      <trkpt lat="40.8178170" lon="0.1690740">
        <ele>641.5</ele>
      </trkpt>
      <trkpt lat="40.8178890" lon="0.1690540">
        <ele>641.6</ele>
      </trkpt>
      <trkpt lat="40.8178730" lon="0.1690850">
        <ele>641.7</ele>
      </trkpt>
      <trkpt lat="40.8178610" lon="0.1691390">
        <ele>641.8</ele>
      </trkpt>
      <trkpt lat="40.8178500" lon="0.1691830">
        <ele>641.9</ele>
      </trkpt>
      <trkpt lat="40.8178400" lon="0.1692270">
        <ele>641.8</ele>
      </trkpt>
      <trkpt lat="40.8178380" lon="0.1692640">
        <ele>641.8</ele>
      </trkpt>
      <trkpt lat="40.8178410" lon="0.1693070">
        <ele>641.6</ele>
      </trkpt>
      <trkpt lat="40.8178490" lon="0.1693580">
        <ele>641.3</ele>
      </trkpt>
      <trkpt lat="40.8178610" lon="0.1694080">
        <ele>641.0</ele>
      </trkpt>
      <trkpt lat="40.8178690" lon="0.1694660">
        <ele>640.7</ele>
      </trkpt>
      <trkpt lat="40.8178800" lon="0.1695150">
        <ele>640.5</ele>
      </trkpt>
      <trkpt lat="40.8178930" lon="0.1695600">
        <ele>640.3</ele>
      </trkpt>
      <trkpt lat="40.8179010" lon="0.1695980">
        <ele>639.8</ele>
      </trkpt>
      <trkpt lat="40.8179130" lon="0.1696430">
        <ele>639.3</ele>
      </trkpt>
      <trkpt lat="40.8179240" lon="0.1696790">
        <ele>638.8</ele>
      </trkpt>
      <trkpt lat="40.8179480" lon="0.1697070">
        <ele>638.3</ele>
      </trkpt>
      <trkpt lat="40.8179660" lon="0.1697490">
        <ele>637.8</ele>
      </trkpt>
      <trkpt lat="40.8179690" lon="0.1698000">
        <ele>637.3</ele>
      </trkpt>
      <trkpt lat="40.8180000" lon="0.1698620">
        <ele>635.9</ele>
      </trkpt>
      <trkpt lat="40.8180200" lon="0.1698880">
        <ele>635.2</ele>
      </trkpt>
      <trkpt lat="40.8180470" lon="0.1699010">
        <ele>634.5</ele>
      </trkpt>
      <trkpt lat="40.8180800" lon="0.1699100">
        <ele>633.7</ele>
      </trkpt>
      <trkpt lat="40.8181110" lon="0.1699190">
        <ele>632.9</ele>
      </trkpt>
      <trkpt lat="40.8181580" lon="0.1699430">
        <ele>631.0</ele>
      </trkpt>
      <trkpt lat="40.8181780" lon="0.1699670">
        <ele>630.0</ele>
      </trkpt>
      <trkpt lat="40.8181990" lon="0.1700020">
        <ele>629.2</ele>
      </trkpt>
      <trkpt lat="40.8182140" lon="0.1700360">
        <ele>628.4</ele>
      </trkpt>
      <trkpt lat="40.8182390" lon="0.1700960">
        <ele>627.3</ele>
      </trkpt>
      <trkpt lat="40.8182550" lon="0.1701260">
        <ele>626.7</ele>
      </trkpt>
      <trkpt lat="40.8182720" lon="0.1701610">
        <ele>625.9</ele>
      </trkpt>
      <trkpt lat="40.8182900" lon="0.1702010">
        <ele>625.0</ele>
      </trkpt>
      <trkpt lat="40.8183070" lon="0.1702380">
        <ele>624.8</ele>
      </trkpt>
      <trkpt lat="40.8183260" lon="0.1702760">
        <ele>624.5</ele>
      </trkpt>
      <trkpt lat="40.8183430" lon="0.1703120">
        <ele>624.1</ele>
      </trkpt>
      <trkpt lat="40.8183630" lon="0.1703490">
        <ele>623.9</ele>
      </trkpt>
      <trkpt lat="40.8183830" lon="0.1703860">
        <ele>623.8</ele>
      </trkpt>
      <trkpt lat="40.8184020" lon="0.1704240">
        <ele>623.7</ele>
      </trkpt>
      <trkpt lat="40.8184230" lon="0.1704680">
        <ele>624.0</ele>
      </trkpt>
      <trkpt lat="40.8184520" lon="0.1705220">
        <ele>624.3</ele>
      </trkpt>
      <trkpt lat="40.8184840" lon="0.1705730">
        <ele>624.0</ele>
      </trkpt>
      <trkpt lat="40.8185170" lon="0.1706190">
        <ele>624.0</ele>
      </trkpt>
      <trkpt lat="40.8185530" lon="0.1706630">
        <ele>624.4</ele>
      </trkpt>
      <trkpt lat="40.8185920" lon="0.1707070">
        <ele>625.3</ele>
      </trkpt>
      <trkpt lat="40.8186320" lon="0.1707500">
        <ele>626.3</ele>
      </trkpt>
      <trkpt lat="40.8186720" lon="0.1707960">
        <ele>627.0</ele>
      </trkpt>
      <trkpt lat="40.8187190" lon="0.1708430">
        <ele>626.9</ele>
      </trkpt>
      <trkpt lat="40.8187670" lon="0.1708810">
        <ele>626.4</ele>
      </trkpt>
      <trkpt lat="40.8188360" lon="0.1709310">
        <ele>626.2</ele>
      </trkpt>
      <trkpt lat="40.8188870" lon="0.1709750">
        <ele>626.0</ele>
      </trkpt>
      <trkpt lat="40.8189480" lon="0.1710160">
        <ele>625.8</ele>
      </trkpt>
      <trkpt lat="40.8189810" lon="0.1710540">
        <ele>625.3</ele>
      </trkpt>
      <trkpt lat="40.8190230" lon="0.1710860">
        <ele>624.7</ele>
      </trkpt>
      <trkpt lat="40.8190450" lon="0.1711200">
        <ele>624.4</ele>
      </trkpt>
      <trkpt lat="40.8190770" lon="0.1711260">
        <ele>624.2</ele>
      </trkpt>
      <trkpt lat="40.8191080" lon="0.1711440">
        <ele>623.7</ele>
      </trkpt>
      <trkpt lat="40.8191450" lon="0.1711530">
        <ele>622.8</ele>
      </trkpt>
      <trkpt lat="40.8191780" lon="0.1711610">
        <ele>622.2</ele>
      </trkpt>
      <trkpt lat="40.8192160" lon="0.1711700">
        <ele>622.1</ele>
      </trkpt>
      <trkpt lat="40.8193180" lon="0.1711680">
        <ele>621.4</ele>
      </trkpt>
      <trkpt lat="40.8193580" lon="0.1711590">
        <ele>620.9</ele>
      </trkpt>
      <trkpt lat="40.8193890" lon="0.1711510">
        <ele>620.4</ele>
      </trkpt>
      <trkpt lat="40.8194300" lon="0.1711550">
        <ele>619.8</ele>
      </trkpt>
      <trkpt lat="40.8194970" lon="0.1711580">
        <ele>618.7</ele>
      </trkpt>
      <trkpt lat="40.8195240" lon="0.1711380">
        <ele>618.2</ele>
      </trkpt>
      <trkpt lat="40.8195520" lon="0.1711290">
        <ele>617.7</ele>
      </trkpt>
      <trkpt lat="40.8195940" lon="0.1711250">
        <ele>616.6</ele>
      </trkpt>
      <trkpt lat="40.8196650" lon="0.1710920">
        <ele>615.2</ele>
      </trkpt>
      <trkpt lat="40.8197230" lon="0.1710640">
        <ele>614.6</ele>
      </trkpt>
      <trkpt lat="40.8197520" lon="0.1711110">
        <ele>614.3</ele>
      </trkpt>
      <trkpt lat="40.8197960" lon="0.1710960">
        <ele>614.3</ele>
      </trkpt>
      <trkpt lat="40.8198300" lon="0.1711000">
        <ele>614.2</ele>
      </trkpt>
      <trkpt lat="40.8198780" lon="0.1711560">
        <ele>614.2</ele>
      </trkpt>
      <trkpt lat="40.8199150" lon="0.1711530">
        <ele>614.2</ele>
      </trkpt>
      <trkpt lat="40.8199590" lon="0.1711480">
        <ele>614.1</ele>
      </trkpt>
      <trkpt lat="40.8200090" lon="0.1711580">
        <ele>614.0</ele>
      </trkpt>
      <trkpt lat="40.8200520" lon="0.1711440">
        <ele>613.8</ele>
      </trkpt>
      <trkpt lat="40.8200790" lon="0.1711690">
        <ele>613.8</ele>
      </trkpt>
      <trkpt lat="40.8201260" lon="0.1711730">
        <ele>613.6</ele>
      </trkpt>
      <trkpt lat="40.8201550" lon="0.1711990">
        <ele>613.5</ele>
      </trkpt>
      <trkpt lat="40.8201850" lon="0.1712440">
        <ele>613.5</ele>
      </trkpt>
      <trkpt lat="40.8202040" lon="0.1712730">
        <ele>613.5</ele>
      </trkpt>
      <trkpt lat="40.8202270" lon="0.1713050">
        <ele>613.7</ele>
      </trkpt>
      <trkpt lat="40.8202470" lon="0.1713340">
        <ele>613.8</ele>
      </trkpt>
      <trkpt lat="40.8202670" lon="0.1713600">
        <ele>613.9</ele>
      </trkpt>
      <trkpt lat="40.8203110" lon="0.1713970">
        <ele>614.1</ele>
      </trkpt>
      <trkpt lat="40.8203420" lon="0.1714100">
        <ele>614.2</ele>
      </trkpt>
      <trkpt lat="40.8203770" lon="0.1714160">
        <ele>614.3</ele>
      </trkpt>
      <trkpt lat="40.8204150" lon="0.1714210">
        <ele>614.4</ele>
      </trkpt>
      <trkpt lat="40.8204600" lon="0.1714270">
        <ele>614.0</ele>
      </trkpt>
      <trkpt lat="40.8205060" lon="0.1714340">
        <ele>613.6</ele>
      </trkpt>
      <trkpt lat="40.8205470" lon="0.1714520">
        <ele>613.3</ele>
      </trkpt>
      <trkpt lat="40.8205840" lon="0.1714720">
        <ele>613.0</ele>
      </trkpt>
      <trkpt lat="40.8206170" lon="0.1714990">
        <ele>612.8</ele>
      </trkpt>
      <trkpt lat="40.8206440" lon="0.1715280">
        <ele>612.6</ele>
      </trkpt>
      <trkpt lat="40.8206710" lon="0.1715500">
        <ele>612.3</ele>
      </trkpt>
      <trkpt lat="40.8206960" lon="0.1715680">
        <ele>612.1</ele>
      </trkpt>
      <trkpt lat="40.8207280" lon="0.1715910">
        <ele>611.9</ele>
      </trkpt>
      <trkpt lat="40.8208230" lon="0.1716940">
        <ele>611.2</ele>
      </trkpt>
      <trkpt lat="40.8208500" lon="0.1716430">
        <ele>610.5</ele>
      </trkpt>
      <trkpt lat="40.8208910" lon="0.1715940">
        <ele>609.2</ele>
      </trkpt>
      <trkpt lat="40.8209280" lon="0.1715730">
        <ele>608.2</ele>
      </trkpt>
      <trkpt lat="40.8209530" lon="0.1715520">
        <ele>607.8</ele>
      </trkpt>
      <trkpt lat="40.8209740" lon="0.1715280">
        <ele>607.3</ele>
      </trkpt>
      <trkpt lat="40.8210490" lon="0.1714850">
        <ele>606.2</ele>
      </trkpt>
      <trkpt lat="40.8211130" lon="0.1714860">
        <ele>605.6</ele>
      </trkpt>
      <trkpt lat="40.8211840" lon="0.1714270">
        <ele>605.2</ele>
      </trkpt>
      <trkpt lat="40.8212180" lon="0.1714100">
        <ele>605.1</ele>
      </trkpt>
      <trkpt lat="40.8212550" lon="0.1713940">
        <ele>605.0</ele>
      </trkpt>
      <trkpt lat="40.8212860" lon="0.1713800">
        <ele>605.0</ele>
      </trkpt>
      <trkpt lat="40.8213220" lon="0.1713850">
        <ele>604.9</ele>
      </trkpt>
      <trkpt lat="40.8213580" lon="0.1713880">
        <ele>604.8</ele>
      </trkpt>
      <trkpt lat="40.8213870" lon="0.1713900">
        <ele>604.7</ele>
      </trkpt>
      <trkpt lat="40.8214400" lon="0.1714150">
        <ele>604.4</ele>
      </trkpt>
      <trkpt lat="40.8214940" lon="0.1714240">
        <ele>604.2</ele>
      </trkpt>
      <trkpt lat="40.8215180" lon="0.1714400">
        <ele>604.0</ele>
      </trkpt>
      <trkpt lat="40.8215420" lon="0.1714640">
        <ele>603.9</ele>
      </trkpt>
      <trkpt lat="40.8215670" lon="0.1714930">
        <ele>603.8</ele>
      </trkpt>
      <trkpt lat="40.8215880" lon="0.1715330">
        <ele>603.6</ele>
      </trkpt>
      <trkpt lat="40.8216080" lon="0.1715800">
        <ele>603.3</ele>
      </trkpt>
      <trkpt lat="40.8216260" lon="0.1716330">
        <ele>603.0</ele>
      </trkpt>
      <trkpt lat="40.8216450" lon="0.1716930">
        <ele>602.8</ele>
      </trkpt>
      <trkpt lat="40.8216640" lon="0.1717480">
        <ele>602.7</ele>
      </trkpt>
      <trkpt lat="40.8216850" lon="0.1718070">
        <ele>602.5</ele>
      </trkpt>
      <trkpt lat="40.8217010" lon="0.1718520">
        <ele>602.5</ele>
      </trkpt>
      <trkpt lat="40.8217170" lon="0.1718920">
        <ele>602.4</ele>
      </trkpt>
      <trkpt lat="40.8217350" lon="0.1719300">
        <ele>602.4</ele>
      </trkpt>
      <trkpt lat="40.8217540" lon="0.1719680">
        <ele>602.3</ele>
      </trkpt>
      <trkpt lat="40.8217790" lon="0.1720270">
        <ele>602.1</ele>
      </trkpt>
      <trkpt lat="40.8217890" lon="0.1720620">
        <ele>602.0</ele>
      </trkpt>
      <trkpt lat="40.8218000" lon="0.1720980">
        <ele>601.8</ele>
      </trkpt>
      <trkpt lat="40.8218140" lon="0.1721350">
        <ele>601.7</ele>
      </trkpt>
      <trkpt lat="40.8218290" lon="0.1721750">
        <ele>601.5</ele>
      </trkpt>
      <trkpt lat="40.8218440" lon="0.1722240">
        <ele>601.3</ele>
      </trkpt>
      <trkpt lat="40.8218570" lon="0.1722760">
        <ele>601.1</ele>
      </trkpt>
      <trkpt lat="40.8218730" lon="0.1723310">
        <ele>600.9</ele>
      </trkpt>
      <trkpt lat="40.8218900" lon="0.1723820">
        <ele>600.8</ele>
      </trkpt>
      <trkpt lat="40.8219070" lon="0.1724320">
        <ele>600.7</ele>
      </trkpt>
      <trkpt lat="40.8219280" lon="0.1724850">
        <ele>600.6</ele>
      </trkpt>
      <trkpt lat="40.8219510" lon="0.1725450">
        <ele>600.7</ele>
      </trkpt>
      <trkpt lat="40.8219750" lon="0.1726090">
        <ele>600.7</ele>
      </trkpt>
      <trkpt lat="40.8220000" lon="0.1726790">
        <ele>600.6</ele>
      </trkpt>
      <trkpt lat="40.8220480" lon="0.1728180">
        <ele>600.5</ele>
      </trkpt>
      <trkpt lat="40.8220660" lon="0.1728740">
        <ele>600.5</ele>
      </trkpt>
      <trkpt lat="40.8221050" lon="0.1729580">
        <ele>600.9</ele>
      </trkpt>
      <trkpt lat="40.8221050" lon="0.1730320">
        <ele>600.8</ele>
      </trkpt>
      <trkpt lat="40.8221570" lon="0.1731340">
        <ele>600.5</ele>
      </trkpt>
      <trkpt lat="40.8222050" lon="0.1731870">
        <ele>600.7</ele>
      </trkpt>
      <trkpt lat="40.8222640" lon="0.1732270">
        <ele>600.7</ele>
      </trkpt>
      <trkpt lat="40.8222940" lon="0.1732770">
        <ele>600.5</ele>
      </trkpt>
      <trkpt lat="40.8223230" lon="0.1733630">
        <ele>600.4</ele>
      </trkpt>
      <trkpt lat="40.8223150" lon="0.1734630">
        <ele>600.2</ele>
      </trkpt>
      <trkpt lat="40.8223330" lon="0.1735280">
        <ele>599.9</ele>
      </trkpt>
      <trkpt lat="40.8223450" lon="0.1736070">
        <ele>599.5</ele>
      </trkpt>
      <trkpt lat="40.8223670" lon="0.1736770">
        <ele>599.1</ele>
      </trkpt>
      <trkpt lat="40.8223680" lon="0.1737560">
        <ele>598.6</ele>
      </trkpt>
      <trkpt lat="40.8223780" lon="0.1738020">
        <ele>598.1</ele>
      </trkpt>
      <trkpt lat="40.8224280" lon="0.1738650">
        <ele>597.2</ele>
      </trkpt>
      <trkpt lat="40.8224720" lon="0.1738960">
        <ele>596.6</ele>
      </trkpt>
      <trkpt lat="40.8224970" lon="0.1739290">
        <ele>596.1</ele>
      </trkpt>
      <trkpt lat="40.8225170" lon="0.1739560">
        <ele>595.7</ele>
      </trkpt>
      <trkpt lat="40.8225390" lon="0.1739830">
        <ele>595.3</ele>
      </trkpt>
      <trkpt lat="40.8225660" lon="0.1740090">
        <ele>594.9</ele>
      </trkpt>
      <trkpt lat="40.8225980" lon="0.1740350">
        <ele>594.4</ele>
      </trkpt>
      <trkpt lat="40.8226330" lon="0.1740610">
        <ele>593.8</ele>
      </trkpt>
      <trkpt lat="40.8226730" lon="0.1740840">
        <ele>593.1</ele>
      </trkpt>
      <trkpt lat="40.8227230" lon="0.1741150">
        <ele>592.5</ele>
      </trkpt>
      <trkpt lat="40.8228120" lon="0.1742260">
        <ele>591.2</ele>
      </trkpt>
      <trkpt lat="40.8228430" lon="0.1742510">
        <ele>590.7</ele>
      </trkpt>
      <trkpt lat="40.8228730" lon="0.1742780">
        <ele>590.1</ele>
      </trkpt>
      <trkpt lat="40.8229190" lon="0.1743330">
        <ele>589.4</ele>
      </trkpt>
      <trkpt lat="40.8229730" lon="0.1743780">
        <ele>588.7</ele>
      </trkpt>
      <trkpt lat="40.8230240" lon="0.1744230">
        <ele>587.7</ele>
      </trkpt>
      <trkpt lat="40.8230550" lon="0.1744750">
        <ele>587.2</ele>
      </trkpt>
      <trkpt lat="40.8230850" lon="0.1745490">
        <ele>586.8</ele>
      </trkpt>
      <trkpt lat="40.8231030" lon="0.1746040">
        <ele>586.7</ele>
      </trkpt>
      <trkpt lat="40.8231070" lon="0.1746550">
        <ele>586.6</ele>
      </trkpt>
      <trkpt lat="40.8231100" lon="0.1747140">
        <ele>586.6</ele>
      </trkpt>
      <trkpt lat="40.8231060" lon="0.1747690">
        <ele>586.6</ele>
      </trkpt>
      <trkpt lat="40.8231460" lon="0.1748460">
        <ele>586.5</ele>
      </trkpt>
      <trkpt lat="40.8231640" lon="0.1749020">
        <ele>586.3</ele>
      </trkpt>
      <trkpt lat="40.8232090" lon="0.1749540">
        <ele>586.3</ele>
      </trkpt>
      <trkpt lat="40.8232550" lon="0.1750400">
        <ele>586.4</ele>
      </trkpt>
      <trkpt lat="40.8232740" lon="0.1751220">
        <ele>586.6</ele>
      </trkpt>
      <trkpt lat="40.8232840" lon="0.1752070">
        <ele>586.7</ele>
      </trkpt>
      <trkpt lat="40.8233130" lon="0.1752870">
        <ele>586.6</ele>
      </trkpt>
      <trkpt lat="40.8233510" lon="0.1753050">
        <ele>586.4</ele>
      </trkpt>
      <trkpt lat="40.8233950" lon="0.1753850">
        <ele>585.8</ele>
      </trkpt>
      <trkpt lat="40.8234500" lon="0.1754340">
        <ele>585.6</ele>
      </trkpt>
      <trkpt lat="40.8234900" lon="0.1754720">
        <ele>585.5</ele>
      </trkpt>
      <trkpt lat="40.8235510" lon="0.1755010">
        <ele>585.6</ele>
      </trkpt>
      <trkpt lat="40.8235910" lon="0.1755210">
        <ele>585.8</ele>
      </trkpt>
      <trkpt lat="40.8236320" lon="0.1755540">
        <ele>585.8</ele>
      </trkpt>
      <trkpt lat="40.8236920" lon="0.1755800">
        <ele>585.9</ele>
      </trkpt>
      <trkpt lat="40.8237120" lon="0.1756200">
        <ele>586.0</ele>
      </trkpt>
      <trkpt lat="40.8237310" lon="0.1756470">
        <ele>586.0</ele>
      </trkpt>
      <trkpt lat="40.8237590" lon="0.1756490">
        <ele>586.0</ele>
      </trkpt>
      <trkpt lat="40.8237880" lon="0.1756560">
        <ele>586.1</ele>
      </trkpt>
      <trkpt lat="40.8238150" lon="0.1756770">
        <ele>586.1</ele>
      </trkpt>
      <trkpt lat="40.8238450" lon="0.1757020">
        <ele>586.1</ele>
      </trkpt>
      <trkpt lat="40.8238820" lon="0.1757170">
        <ele>586.1</ele>
      </trkpt>
      <trkpt lat="40.8239110" lon="0.1757470">
        <ele>586.0</ele>
      </trkpt>
      <trkpt lat="40.8239290" lon="0.1758070">
        <ele>585.7</ele>
      </trkpt>
      <trkpt lat="40.8239720" lon="0.1758570">
        <ele>585.4</ele>
      </trkpt>
      <trkpt lat="40.8239880" lon="0.1758860">
        <ele>585.3</ele>
      </trkpt>
      <trkpt lat="40.8240190" lon="0.1758910">
        <ele>585.2</ele>
      </trkpt>
      <trkpt lat="40.8240310" lon="0.1759340">
        <ele>585.1</ele>
      </trkpt>
      <trkpt lat="40.8240090" lon="0.1759660">
        <ele>585.0</ele>
      </trkpt>
      <trkpt lat="40.8240180" lon="0.1760200">
        <ele>584.8</ele>
      </trkpt>
      <trkpt lat="40.8240390" lon="0.1760530">
        <ele>584.7</ele>
      </trkpt>
      <trkpt lat="40.8240590" lon="0.1760790">
        <ele>584.7</ele>
      </trkpt>
      <trkpt lat="40.8240870" lon="0.1761080">
        <ele>584.6</ele>
      </trkpt>
      <trkpt lat="40.8241100" lon="0.1761280">
        <ele>584.5</ele>
      </trkpt>
      <trkpt lat="40.8241310" lon="0.1761510">
        <ele>584.5</ele>
      </trkpt>
      <trkpt lat="40.8241510" lon="0.1761830">
        <ele>584.5</ele>
      </trkpt>
      <trkpt lat="40.8241650" lon="0.1762230">
        <ele>584.5</ele>
      </trkpt>
      <trkpt lat="40.8241730" lon="0.1762630">
        <ele>584.5</ele>
      </trkpt>
      <trkpt lat="40.8241840" lon="0.1763150">
        <ele>584.5</ele>
      </trkpt>
      <trkpt lat="40.8241960" lon="0.1763640">
        <ele>584.5</ele>
      </trkpt>
      <trkpt lat="40.8242130" lon="0.1764070">
        <ele>584.6</ele>
      </trkpt>
      <trkpt lat="40.8242170" lon="0.1764540">
        <ele>584.7</ele>
      </trkpt>
      <trkpt lat="40.8242340" lon="0.1765010">
        <ele>584.7</ele>
      </trkpt>
      <trkpt lat="40.8242650" lon="0.1765180">
        <ele>584.7</ele>
      </trkpt>
      <trkpt lat="40.8242880" lon="0.1765510">
        <ele>584.8</ele>
      </trkpt>
      <trkpt lat="40.8243120" lon="0.1765680">
        <ele>584.8</ele>
      </trkpt>
      <trkpt lat="40.8243370" lon="0.1766040">
        <ele>584.8</ele>
      </trkpt>
      <trkpt lat="40.8243520" lon="0.1766450">
        <ele>584.8</ele>
      </trkpt>
      <trkpt lat="40.8243770" lon="0.1766620">
        <ele>584.8</ele>
      </trkpt>
      <trkpt lat="40.8243750" lon="0.1767000">
        <ele>584.8</ele>
      </trkpt>
      <trkpt lat="40.8244070" lon="0.1767320">
        <ele>584.7</ele>
      </trkpt>
      <trkpt lat="40.8244280" lon="0.1767630">
        <ele>584.6</ele>
      </trkpt>
      <trkpt lat="40.8244570" lon="0.1767990">
        <ele>584.3</ele>
      </trkpt>
      <trkpt lat="40.8244850" lon="0.1768280">
        <ele>584.1</ele>
      </trkpt>
      <trkpt lat="40.8245180" lon="0.1768690">
        <ele>583.9</ele>
      </trkpt>
      <trkpt lat="40.8245600" lon="0.1769160">
        <ele>583.7</ele>
      </trkpt>
      <trkpt lat="40.8245830" lon="0.1769360">
        <ele>583.7</ele>
      </trkpt>
      <trkpt lat="40.8246260" lon="0.1769770">
        <ele>583.7</ele>
      </trkpt>
      <trkpt lat="40.8246640" lon="0.1770180">
        <ele>583.9</ele>
      </trkpt>
      <trkpt lat="40.8246900" lon="0.1770490">
        <ele>584.0</ele>
      </trkpt>
      <trkpt lat="40.8247110" lon="0.1770800">
        <ele>584.0</ele>
      </trkpt>
      <trkpt lat="40.8247310" lon="0.1771220">
        <ele>584.0</ele>
      </trkpt>
      <trkpt lat="40.8247640" lon="0.1771730">
        <ele>584.1</ele>
      </trkpt>
      <trkpt lat="40.8247820" lon="0.1772010">
        <ele>584.2</ele>
      </trkpt>
      <trkpt lat="40.8248040" lon="0.1772420">
        <ele>584.4</ele>
      </trkpt>
      <trkpt lat="40.8248270" lon="0.1772810">
        <ele>584.6</ele>
      </trkpt>
      <trkpt lat="40.8248470" lon="0.1773180">
        <ele>584.7</ele>
      </trkpt>
      <trkpt lat="40.8248710" lon="0.1773600">
        <ele>584.9</ele>
      </trkpt>
      <trkpt lat="40.8248980" lon="0.1773990">
        <ele>585.1</ele>
      </trkpt>
      <trkpt lat="40.8249310" lon="0.1774330">
        <ele>585.3</ele>
      </trkpt>
      <trkpt lat="40.8249650" lon="0.1774690">
        <ele>585.5</ele>
      </trkpt>
      <trkpt lat="40.8249950" lon="0.1774890">
        <ele>585.6</ele>
      </trkpt>
      <trkpt lat="40.8250120" lon="0.1775180">
        <ele>585.8</ele>
      </trkpt>
      <trkpt lat="40.8250240" lon="0.1775520">
        <ele>585.9</ele>
      </trkpt>
      <trkpt lat="40.8250420" lon="0.1775780">
        <ele>586.0</ele>
      </trkpt>
      <trkpt lat="40.8250670" lon="0.1776040">
        <ele>586.0</ele>
      </trkpt>
      <trkpt lat="40.8250800" lon="0.1776370">
        <ele>586.0</ele>
      </trkpt>
      <trkpt lat="40.8251030" lon="0.1776990">
        <ele>585.8</ele>
      </trkpt>
      <trkpt lat="40.8251160" lon="0.1777450">
        <ele>585.5</ele>
      </trkpt>
      <trkpt lat="40.8251340" lon="0.1777820">
        <ele>585.3</ele>
      </trkpt>
      <trkpt lat="40.8251520" lon="0.1778240">
        <ele>585.3</ele>
      </trkpt>
      <trkpt lat="40.8251660" lon="0.1778580">
        <ele>585.3</ele>
      </trkpt>
      <trkpt lat="40.8251790" lon="0.1778910">
        <ele>585.3</ele>
      </trkpt>
      <trkpt lat="40.8251890" lon="0.1779290">
        <ele>585.4</ele>
      </trkpt>
      <trkpt lat="40.8251980" lon="0.1779710">
        <ele>585.4</ele>
      </trkpt>
      <trkpt lat="40.8252050" lon="0.1780100">
        <ele>585.4</ele>
      </trkpt>
      <trkpt lat="40.8252080" lon="0.1780510">
        <ele>585.5</ele>
      </trkpt>
      <trkpt lat="40.8252140" lon="0.1780970">
        <ele>585.0</ele>
      </trkpt>
      <trkpt lat="40.8252200" lon="0.1781510">
        <ele>584.5</ele>
      </trkpt>
      <trkpt lat="40.8252210" lon="0.1782120">
        <ele>584.1</ele>
      </trkpt>
      <trkpt lat="40.8252160" lon="0.1782730">
        <ele>583.4</ele>
      </trkpt>
      <trkpt lat="40.8252020" lon="0.1783370">
        <ele>582.6</ele>
      </trkpt>
      <trkpt lat="40.8251860" lon="0.1784150">
        <ele>581.3</ele>
      </trkpt>
      <trkpt lat="40.8251740" lon="0.1784980">
        <ele>580.8</ele>
      </trkpt>
      <trkpt lat="40.8251750" lon="0.1785860">
        <ele>580.4</ele>
      </trkpt>
      <trkpt lat="40.8251900" lon="0.1786780">
        <ele>580.3</ele>
      </trkpt>
      <trkpt lat="40.8252150" lon="0.1787560">
        <ele>581.0</ele>
      </trkpt>
      <trkpt lat="40.8252830" lon="0.1788470">
        <ele>581.3</ele>
      </trkpt>
      <trkpt lat="40.8253300" lon="0.1789550">
        <ele>581.4</ele>
      </trkpt>
      <trkpt lat="40.8253620" lon="0.1790620">
        <ele>582.4</ele>
      </trkpt>
      <trkpt lat="40.8254230" lon="0.1791260">
        <ele>583.5</ele>
      </trkpt>
      <trkpt lat="40.8254510" lon="0.1791390">
        <ele>583.8</ele>
      </trkpt>
      <trkpt lat="40.8254930" lon="0.1791850">
        <ele>584.1</ele>
      </trkpt>
      <trkpt lat="40.8255410" lon="0.1792610">
        <ele>584.6</ele>
      </trkpt>
      <trkpt lat="40.8255880" lon="0.1793080">
        <ele>584.9</ele>
      </trkpt>
      <trkpt lat="40.8256310" lon="0.1793350">
        <ele>585.2</ele>
      </trkpt>
      <trkpt lat="40.8256980" lon="0.1793590">
        <ele>586.8</ele>
      </trkpt>
      <trkpt lat="40.8257510" lon="0.1793800">
        <ele>587.3</ele>
      </trkpt>
      <trkpt lat="40.8258010" lon="0.1794120">
        <ele>588.3</ele>
      </trkpt>
      <trkpt lat="40.8258390" lon="0.1794440">
        <ele>589.2</ele>
      </trkpt>
      <trkpt lat="40.8258730" lon="0.1794680">
        <ele>589.5</ele>
      </trkpt>
      <trkpt lat="40.8259260" lon="0.1795010">
        <ele>589.8</ele>
      </trkpt>
      <trkpt lat="40.8259610" lon="0.1795250">
        <ele>589.8</ele>
      </trkpt>
      <trkpt lat="40.8260110" lon="0.1795300">
        <ele>590.0</ele>
      </trkpt>
      <trkpt lat="40.8260420" lon="0.1795480">
        <ele>590.3</ele>
      </trkpt>
      <trkpt lat="40.8260910" lon="0.1795720">
        <ele>590.6</ele>
      </trkpt>
      <trkpt lat="40.8261280" lon="0.1795810">
        <ele>590.7</ele>
      </trkpt>
      <trkpt lat="40.8261550" lon="0.1795910">
        <ele>590.8</ele>
      </trkpt>
      <trkpt lat="40.8261850" lon="0.1796050">
        <ele>590.6</ele>
      </trkpt>
      <trkpt lat="40.8262200" lon="0.1796150">
        <ele>590.6</ele>
      </trkpt>
      <trkpt lat="40.8262570" lon="0.1796330">
        <ele>590.6</ele>
      </trkpt>
      <trkpt lat="40.8262900" lon="0.1796510">
        <ele>590.7</ele>
      </trkpt>
      <trkpt lat="40.8263370" lon="0.1796880">
        <ele>590.1</ele>
      </trkpt>
      <trkpt lat="40.8263890" lon="0.1797020">
        <ele>589.4</ele>
      </trkpt>
      <trkpt lat="40.8264480" lon="0.1797260">
        <ele>589.1</ele>
      </trkpt>
      <trkpt lat="40.8264990" lon="0.1797500">
        <ele>588.4</ele>
      </trkpt>
      <trkpt lat="40.8265470" lon="0.1797880">
        <ele>587.5</ele>
      </trkpt>
      <trkpt lat="40.8265890" lon="0.1798150">
        <ele>586.8</ele>
      </trkpt>
      <trkpt lat="40.8266250" lon="0.1798610">
        <ele>585.9</ele>
      </trkpt>
      <trkpt lat="40.8266610" lon="0.1798920">
        <ele>585.1</ele>
      </trkpt>
      <trkpt lat="40.8267010" lon="0.1799460">
        <ele>584.3</ele>
      </trkpt>
      <trkpt lat="40.8267520" lon="0.1799730">
        <ele>583.6</ele>
      </trkpt>
      <trkpt lat="40.8267800" lon="0.1800120">
        <ele>583.1</ele>
      </trkpt>
      <trkpt lat="40.8268060" lon="0.1800420">
        <ele>582.6</ele>
      </trkpt>
      <trkpt lat="40.8268360" lon="0.1800580">
        <ele>582.2</ele>
      </trkpt>
      <trkpt lat="40.8268760" lon="0.1800900">
        <ele>581.6</ele>
      </trkpt>
      <trkpt lat="40.8269190" lon="0.1800860">
        <ele>581.1</ele>
      </trkpt>
      <trkpt lat="40.8269600" lon="0.1800860">
        <ele>581.2</ele>
      </trkpt>
      <trkpt lat="40.8269860" lon="0.1800520">
        <ele>581.2</ele>
      </trkpt>
      <trkpt lat="40.8270040" lon="0.1800160">
        <ele>581.2</ele>
      </trkpt>
      <trkpt lat="40.8270220" lon="0.1799760">
        <ele>581.4</ele>
      </trkpt>
      <trkpt lat="40.8270370" lon="0.1799390">
        <ele>581.6</ele>
      </trkpt>
      <trkpt lat="40.8270520" lon="0.1798990">
        <ele>581.8</ele>
      </trkpt>
      <trkpt lat="40.8270630" lon="0.1798570">
        <ele>582.0</ele>
      </trkpt>
      <trkpt lat="40.8270720" lon="0.1798180">
        <ele>582.2</ele>
      </trkpt>
      <trkpt lat="40.8270780" lon="0.1797830">
        <ele>582.5</ele>
      </trkpt>
      <trkpt lat="40.8270860" lon="0.1797440">
        <ele>582.8</ele>
      </trkpt>
      <trkpt lat="40.8270980" lon="0.1797020">
        <ele>583.2</ele>
      </trkpt>
      <trkpt lat="40.8271130" lon="0.1796510">
        <ele>583.4</ele>
      </trkpt>
      <trkpt lat="40.8271290" lon="0.1796080">
        <ele>583.6</ele>
      </trkpt>
      <trkpt lat="40.8271420" lon="0.1795730">
        <ele>583.9</ele>
      </trkpt>
      <trkpt lat="40.8271570" lon="0.1795370">
        <ele>584.1</ele>
      </trkpt>
      <trkpt lat="40.8271720" lon="0.1795060">
        <ele>584.3</ele>
      </trkpt>
      <trkpt lat="40.8271970" lon="0.1794590">
        <ele>584.0</ele>
      </trkpt>
      <trkpt lat="40.8272250" lon="0.1794160">
        <ele>583.9</ele>
      </trkpt>
      <trkpt lat="40.8272530" lon="0.1793740">
        <ele>584.0</ele>
      </trkpt>
      <trkpt lat="40.8272830" lon="0.1793300">
        <ele>584.0</ele>
      </trkpt>
      <trkpt lat="40.8273180" lon="0.1792730">
        <ele>583.8</ele>
      </trkpt>
      <trkpt lat="40.8273380" lon="0.1792430">
        <ele>583.8</ele>
      </trkpt>
      <trkpt lat="40.8273560" lon="0.1792130">
        <ele>584.0</ele>
      </trkpt>
      <trkpt lat="40.8273730" lon="0.1791810">
        <ele>584.1</ele>
      </trkpt>
      <trkpt lat="40.8273920" lon="0.1791480">
        <ele>584.1</ele>
      </trkpt>
      <trkpt lat="40.8274110" lon="0.1791120">
        <ele>584.0</ele>
      </trkpt>
      <trkpt lat="40.8274320" lon="0.1790740">
        <ele>584.0</ele>
      </trkpt>
      <trkpt lat="40.8274560" lon="0.1790310">
        <ele>584.2</ele>
      </trkpt>
      <trkpt lat="40.8274850" lon="0.1789890">
        <ele>584.3</ele>
      </trkpt>
      <trkpt lat="40.8275190" lon="0.1789460">
        <ele>584.2</ele>
      </trkpt>
      <trkpt lat="40.8275710" lon="0.1788780">
        <ele>584.1</ele>
      </trkpt>
      <trkpt lat="40.8276100" lon="0.1788330">
        <ele>584.2</ele>
      </trkpt>
      <trkpt lat="40.8276460" lon="0.1787790">
        <ele>584.2</ele>
      </trkpt>
      <trkpt lat="40.8276890" lon="0.1787510">
        <ele>583.8</ele>
      </trkpt>
      <trkpt lat="40.8277290" lon="0.1787090">
        <ele>583.4</ele>
      </trkpt>
      <trkpt lat="40.8277590" lon="0.1786780">
        <ele>583.2</ele>
      </trkpt>
      <trkpt lat="40.8278170" lon="0.1786460">
        <ele>582.6</ele>
      </trkpt>
      <trkpt lat="40.8278620" lon="0.1786380">
        <ele>582.2</ele>
      </trkpt>
      <trkpt lat="40.8279090" lon="0.1786030">
        <ele>581.7</ele>
      </trkpt>
      <trkpt lat="40.8279280" lon="0.1785320">
        <ele>581.5</ele>
      </trkpt>
      <trkpt lat="40.8279860" lon="0.1785040">
        <ele>581.0</ele>
      </trkpt>
      <trkpt lat="40.8280330" lon="0.1784740">
        <ele>580.5</ele>
      </trkpt>
      <trkpt lat="40.8280940" lon="0.1784550">
        <ele>579.9</ele>
      </trkpt>
      <trkpt lat="40.8281540" lon="0.1784450">
        <ele>579.5</ele>
      </trkpt>
      <trkpt lat="40.8282250" lon="0.1784250">
        <ele>578.7</ele>
      </trkpt>
      <trkpt lat="40.8282760" lon="0.1783980">
        <ele>578.5</ele>
      </trkpt>
      <trkpt lat="40.8283450" lon="0.1783650">
        <ele>577.9</ele>
      </trkpt>
      <trkpt lat="40.8284070" lon="0.1783200">
        <ele>577.7</ele>
      </trkpt>
      <trkpt lat="40.8284660" lon="0.1782700">
        <ele>577.3</ele>
      </trkpt>
      <trkpt lat="40.8285260" lon="0.1782170">
        <ele>577.0</ele>
      </trkpt>
      <trkpt lat="40.8285820" lon="0.1781490">
        <ele>577.0</ele>
      </trkpt>
      <trkpt lat="40.8286370" lon="0.1780900">
        <ele>576.8</ele>
      </trkpt>
      <trkpt lat="40.8286980" lon="0.1780450">
        <ele>576.5</ele>
      </trkpt>
      <trkpt lat="40.8287710" lon="0.1780200">
        <ele>576.0</ele>
      </trkpt>
      <trkpt lat="40.8288310" lon="0.1780140">
        <ele>575.6</ele>
      </trkpt>
      <trkpt lat="40.8289030" lon="0.1780140">
        <ele>575.0</ele>
      </trkpt>
      <trkpt lat="40.8289640" lon="0.1780250">
        <ele>574.5</ele>
      </trkpt>
      <trkpt lat="40.8290240" lon="0.1780380">
        <ele>574.1</ele>
      </trkpt>
      <trkpt lat="40.8290790" lon="0.1780570">
        <ele>573.9</ele>
      </trkpt>
      <trkpt lat="40.8291330" lon="0.1780790">
        <ele>573.6</ele>
      </trkpt>
      <trkpt lat="40.8291910" lon="0.1780780">
        <ele>573.3</ele>
      </trkpt>
      <trkpt lat="40.8292290" lon="0.1780930">
        <ele>573.1</ele>
      </trkpt>
      <trkpt lat="40.8292720" lon="0.1781070">
        <ele>573.0</ele>
      </trkpt>
      <trkpt lat="40.8293120" lon="0.1781110">
        <ele>573.0</ele>
      </trkpt>
      <trkpt lat="40.8293400" lon="0.1781100">
        <ele>573.0</ele>
      </trkpt>
      <trkpt lat="40.8293740" lon="0.1780950">
        <ele>573.0</ele>
      </trkpt>
      <trkpt lat="40.8294150" lon="0.1781020">
        <ele>572.8</ele>
      </trkpt>
      <trkpt lat="40.8294470" lon="0.1781070">
        <ele>572.5</ele>
      </trkpt>
      <trkpt lat="40.8294740" lon="0.1781190">
        <ele>572.2</ele>
      </trkpt>
      <trkpt lat="40.8295000" lon="0.1781340">
        <ele>571.8</ele>
      </trkpt>
      <trkpt lat="40.8295320" lon="0.1781550">
        <ele>571.4</ele>
      </trkpt>
      <trkpt lat="40.8295590" lon="0.1781700">
        <ele>571.1</ele>
      </trkpt>
      <trkpt lat="40.8295930" lon="0.1781830">
        <ele>570.7</ele>
      </trkpt>
      <trkpt lat="40.8296240" lon="0.1781990">
        <ele>570.4</ele>
      </trkpt>
      <trkpt lat="40.8296530" lon="0.1782130">
        <ele>570.2</ele>
      </trkpt>
      <trkpt lat="40.8296870" lon="0.1782260">
        <ele>569.9</ele>
      </trkpt>
      <trkpt lat="40.8297220" lon="0.1782420">
        <ele>569.5</ele>
      </trkpt>
      <trkpt lat="40.8297570" lon="0.1782570">
        <ele>569.3</ele>
      </trkpt>
      <trkpt lat="40.8297900" lon="0.1782690">
        <ele>569.0</ele>
      </trkpt>
      <trkpt lat="40.8298250" lon="0.1782820">
        <ele>568.7</ele>
      </trkpt>
      <trkpt lat="40.8298640" lon="0.1783010">
        <ele>568.3</ele>
      </trkpt>
      <trkpt lat="40.8299030" lon="0.1783170">
        <ele>568.0</ele>
      </trkpt>
      <trkpt lat="40.8299430" lon="0.1783310">
        <ele>567.6</ele>
      </trkpt>
      <trkpt lat="40.8299830" lon="0.1783440">
        <ele>567.3</ele>
      </trkpt>
      <trkpt lat="40.8300220" lon="0.1783540">
        <ele>566.9</ele>
      </trkpt>
      <trkpt lat="40.8300610" lon="0.1783660">
        <ele>566.5</ele>
      </trkpt>
      <trkpt lat="40.8300990" lon="0.1783800">
        <ele>566.1</ele>
      </trkpt>
      <trkpt lat="40.8301380" lon="0.1783920">
        <ele>565.7</ele>
      </trkpt>
      <trkpt lat="40.8301770" lon="0.1784040">
        <ele>565.4</ele>
      </trkpt>
      <trkpt lat="40.8302150" lon="0.1784180">
        <ele>565.0</ele>
      </trkpt>
      <trkpt lat="40.8302550" lon="0.1784340">
        <ele>564.6</ele>
      </trkpt>
      <trkpt lat="40.8302940" lon="0.1784530">
        <ele>564.1</ele>
      </trkpt>
      <trkpt lat="40.8303300" lon="0.1784750">
        <ele>563.7</ele>
      </trkpt>
      <trkpt lat="40.8303630" lon="0.1785010">
        <ele>563.3</ele>
      </trkpt>
      <trkpt lat="40.8303950" lon="0.1785290">
        <ele>563.0</ele>
      </trkpt>
      <trkpt lat="40.8304270" lon="0.1785590">
        <ele>563.0</ele>
      </trkpt>
      <trkpt lat="40.8304840" lon="0.1785950">
        <ele>562.7</ele>
      </trkpt>
      <trkpt lat="40.8305220" lon="0.1786420">
        <ele>562.3</ele>
      </trkpt>
      <trkpt lat="40.8305800" lon="0.1786780">
        <ele>561.8</ele>
      </trkpt>
      <trkpt lat="40.8306240" lon="0.1787200">
        <ele>561.5</ele>
      </trkpt>
      <trkpt lat="40.8306680" lon="0.1787620">
        <ele>561.2</ele>
      </trkpt>
      <trkpt lat="40.8307100" lon="0.1788030">
        <ele>560.8</ele>
      </trkpt>
      <trkpt lat="40.8307560" lon="0.1788310">
        <ele>560.5</ele>
      </trkpt>
      <trkpt lat="40.8308040" lon="0.1788410">
        <ele>560.2</ele>
      </trkpt>
      <trkpt lat="40.8308390" lon="0.1788880">
        <ele>560.0</ele>
      </trkpt>
      <trkpt lat="40.8308830" lon="0.1789610">
        <ele>559.6</ele>
      </trkpt>
      <trkpt lat="40.8309360" lon="0.1790220">
        <ele>559.4</ele>
      </trkpt>
      <trkpt lat="40.8309750" lon="0.1791020">
        <ele>559.2</ele>
      </trkpt>
      <trkpt lat="40.8309980" lon="0.1791570">
        <ele>559.0</ele>
      </trkpt>
      <trkpt lat="40.8310160" lon="0.1792130">
        <ele>558.7</ele>
      </trkpt>
      <trkpt lat="40.8310270" lon="0.1792630">
        <ele>558.4</ele>
      </trkpt>
      <trkpt lat="40.8310520" lon="0.1793210">
        <ele>558.0</ele>
      </trkpt>
      <trkpt lat="40.8310590" lon="0.1793720">
        <ele>558.0</ele>
      </trkpt>
      <trkpt lat="40.8310630" lon="0.1794430">
        <ele>558.0</ele>
      </trkpt>
      <trkpt lat="40.8310770" lon="0.1794860">
        <ele>558.0</ele>
      </trkpt>
      <trkpt lat="40.8310820" lon="0.1795260">
        <ele>558.0</ele>
      </trkpt>
      <trkpt lat="40.8310720" lon="0.1795930">
        <ele>558.0</ele>
      </trkpt>
      <trkpt lat="40.8310640" lon="0.1796310">
        <ele>558.0</ele>
      </trkpt>
      <trkpt lat="40.8310610" lon="0.1796680">
        <ele>558.0</ele>
      </trkpt>
      <trkpt lat="40.8310520" lon="0.1797020">
        <ele>558.0</ele>
      </trkpt>
      <trkpt lat="40.8310390" lon="0.1797370">
        <ele>558.0</ele>
      </trkpt>
      <trkpt lat="40.8310380" lon="0.1798060">
        <ele>558.0</ele>
      </trkpt>
      <trkpt lat="40.8310400" lon="0.1798440">
        <ele>557.7</ele>
      </trkpt>
      <trkpt lat="40.8310450" lon="0.1798850">
        <ele>557.3</ele>
      </trkpt>
      <trkpt lat="40.8310510" lon="0.1799240">
        <ele>557.0</ele>
      </trkpt>
      <trkpt lat="40.8310550" lon="0.1799610">
        <ele>556.6</ele>
      </trkpt>
      <trkpt lat="40.8310670" lon="0.1800370">
        <ele>555.9</ele>
      </trkpt>
      <trkpt lat="40.8310770" lon="0.1800900">
        <ele>555.4</ele>
      </trkpt>
      <trkpt lat="40.8310890" lon="0.1801380">
        <ele>555.0</ele>
      </trkpt>
      <trkpt lat="40.8310980" lon="0.1801850">
        <ele>555.0</ele>
      </trkpt>
      <trkpt lat="40.8311080" lon="0.1802280">
        <ele>555.0</ele>
      </trkpt>
      <trkpt lat="40.8311230" lon="0.1802760">
        <ele>555.0</ele>
      </trkpt>
      <trkpt lat="40.8311320" lon="0.1803230">
        <ele>555.1</ele>
      </trkpt>
      <trkpt lat="40.8311440" lon="0.1803720">
        <ele>555.1</ele>
      </trkpt>
      <trkpt lat="40.8311590" lon="0.1804350">
        <ele>555.1</ele>
      </trkpt>
      <trkpt lat="40.8311610" lon="0.1804960">
        <ele>555.1</ele>
      </trkpt>
      <trkpt lat="40.8311610" lon="0.1805510">
        <ele>555.1</ele>
      </trkpt>
      <trkpt lat="40.8311630" lon="0.1806050">
        <ele>555.1</ele>
      </trkpt>
      <trkpt lat="40.8311700" lon="0.1806680">
        <ele>555.1</ele>
      </trkpt>
      <trkpt lat="40.8311800" lon="0.1807240">
        <ele>555.1</ele>
      </trkpt>
      <trkpt lat="40.8311900" lon="0.1807740">
        <ele>555.1</ele>
      </trkpt>
      <trkpt lat="40.8312060" lon="0.1808350">
        <ele>555.1</ele>
      </trkpt>
      <trkpt lat="40.8312220" lon="0.1808970">
        <ele>555.1</ele>
      </trkpt>
      <trkpt lat="40.8312340" lon="0.1809480">
        <ele>555.1</ele>
      </trkpt>
      <trkpt lat="40.8312450" lon="0.1809840">
        <ele>555.0</ele>
      </trkpt>
      <trkpt lat="40.8312630" lon="0.1810470">
        <ele>555.0</ele>
      </trkpt>
      <trkpt lat="40.8312660" lon="0.1810890">
        <ele>555.0</ele>
      </trkpt>
      <trkpt lat="40.8312600" lon="0.1811280">
        <ele>555.2</ele>
      </trkpt>
      <trkpt lat="40.8312450" lon="0.1811620">
        <ele>555.4</ele>
      </trkpt>
      <trkpt lat="40.8312230" lon="0.1812000">
        <ele>555.6</ele>
      </trkpt>
      <trkpt lat="40.8312000" lon="0.1812300">
        <ele>555.6</ele>
      </trkpt>
      <trkpt lat="40.8311780" lon="0.1812560">
        <ele>555.6</ele>
      </trkpt>
      <trkpt lat="40.8311590" lon="0.1812850">
        <ele>555.5</ele>
      </trkpt>
      <trkpt lat="40.8311400" lon="0.1813120">
        <ele>555.5</ele>
      </trkpt>
      <trkpt lat="40.8311170" lon="0.1813320">
        <ele>555.6</ele>
      </trkpt>
      <trkpt lat="40.8310720" lon="0.1813830">
        <ele>555.8</ele>
      </trkpt>
      <trkpt lat="40.8310380" lon="0.1814190">
        <ele>555.8</ele>
      </trkpt>
      <trkpt lat="40.8310050" lon="0.1814530">
        <ele>555.6</ele>
      </trkpt>
      <trkpt lat="40.8309660" lon="0.1814740">
        <ele>555.3</ele>
      </trkpt>
      <trkpt lat="40.8309230" lon="0.1814900">
        <ele>555.0</ele>
      </trkpt>
      <trkpt lat="40.8308850" lon="0.1814980">
        <ele>555.0</ele>
      </trkpt>
      <trkpt lat="40.8308440" lon="0.1815060">
        <ele>555.3</ele>
      </trkpt>
      <trkpt lat="40.8308040" lon="0.1815150">
        <ele>555.5</ele>
      </trkpt>
      <trkpt lat="40.8307600" lon="0.1815230">
        <ele>555.8</ele>
      </trkpt>
      <trkpt lat="40.8307160" lon="0.1815350">
        <ele>556.1</ele>
      </trkpt>
      <trkpt lat="40.8306710" lon="0.1815530">
        <ele>556.4</ele>
      </trkpt>
      <trkpt lat="40.8306300" lon="0.1815760">
        <ele>556.8</ele>
      </trkpt>
      <trkpt lat="40.8305910" lon="0.1816060">
        <ele>557.2</ele>
      </trkpt>
      <trkpt lat="40.8305560" lon="0.1816410">
        <ele>557.4</ele>
      </trkpt>
      <trkpt lat="40.8305220" lon="0.1816810">
        <ele>557.7</ele>
      </trkpt>
      <trkpt lat="40.8304860" lon="0.1817220">
        <ele>558.1</ele>
      </trkpt>
      <trkpt lat="40.8304510" lon="0.1817650">
        <ele>558.4</ele>
      </trkpt>
      <trkpt lat="40.8304170" lon="0.1818120">
        <ele>558.7</ele>
      </trkpt>
      <trkpt lat="40.8303830" lon="0.1818630">
        <ele>559.2</ele>
      </trkpt>
      <trkpt lat="40.8303510" lon="0.1819150">
        <ele>559.7</ele>
      </trkpt>
      <trkpt lat="40.8303240" lon="0.1819600">
        <ele>560.0</ele>
      </trkpt>
      <trkpt lat="40.8303040" lon="0.1820020">
        <ele>560.2</ele>
      </trkpt>
      <trkpt lat="40.8302830" lon="0.1820450">
        <ele>560.3</ele>
      </trkpt>
      <trkpt lat="40.8302640" lon="0.1820880">
        <ele>560.5</ele>
      </trkpt>
      <trkpt lat="40.8302460" lon="0.1821270">
        <ele>560.6</ele>
      </trkpt>
      <trkpt lat="40.8302320" lon="0.1821640">
        <ele>560.8</ele>
      </trkpt>
      <trkpt lat="40.8302210" lon="0.1822000">
        <ele>560.9</ele>
      </trkpt>
      <trkpt lat="40.8302110" lon="0.1822390">
        <ele>561.1</ele>
      </trkpt>
      <trkpt lat="40.8302020" lon="0.1822740">
        <ele>561.3</ele>
      </trkpt>
      <trkpt lat="40.8301870" lon="0.1823290">
        <ele>561.6</ele>
      </trkpt>
      <trkpt lat="40.8301950" lon="0.1823880">
        <ele>561.9</ele>
      </trkpt>
      <trkpt lat="40.8301760" lon="0.1824480">
        <ele>562.2</ele>
      </trkpt>
      <trkpt lat="40.8301670" lon="0.1824980">
        <ele>562.3</ele>
      </trkpt>
      <trkpt lat="40.8301560" lon="0.1825430">
        <ele>562.4</ele>
      </trkpt>
      <trkpt lat="40.8301480" lon="0.1826030">
        <ele>562.5</ele>
      </trkpt>
      <trkpt lat="40.8301390" lon="0.1826580">
        <ele>562.6</ele>
      </trkpt>
      <trkpt lat="40.8301340" lon="0.1827100">
        <ele>564.6</ele>
      </trkpt>
      <trkpt lat="40.8301320" lon="0.1827620">
        <ele>565.0</ele>
      </trkpt>
      <trkpt lat="40.8301320" lon="0.1828040">
        <ele>565.3</ele>
      </trkpt>
      <trkpt lat="40.8301380" lon="0.1828410">
        <ele>565.6</ele>
      </trkpt>
      <trkpt lat="40.8301610" lon="0.1828860">
        <ele>566.0</ele>
      </trkpt>
      <trkpt lat="40.8301960" lon="0.1829060">
        <ele>566.3</ele>
      </trkpt>
      <trkpt lat="40.8302410" lon="0.1829060">
        <ele>566.7</ele>
      </trkpt>
      <trkpt lat="40.8302770" lon="0.1828980">
        <ele>567.1</ele>
      </trkpt>
      <trkpt lat="40.8303100" lon="0.1828850">
        <ele>567.6</ele>
      </trkpt>
      <trkpt lat="40.8303510" lon="0.1828830">
        <ele>568.2</ele>
      </trkpt>
      <trkpt lat="40.8303940" lon="0.1828900">
        <ele>568.9</ele>
      </trkpt>
      <trkpt lat="40.8304320" lon="0.1829090">
        <ele>569.5</ele>
      </trkpt>
      <trkpt lat="40.8304600" lon="0.1829110">
        <ele>570.0</ele>
      </trkpt>
      <trkpt lat="40.8304860" lon="0.1828880">
        <ele>570.6</ele>
      </trkpt>
      <trkpt lat="40.8304950" lon="0.1828500">
        <ele>571.0</ele>
      </trkpt>
      <trkpt lat="40.8305230" lon="0.1828660">
        <ele>571.3</ele>
      </trkpt>
      <trkpt lat="40.8305350" lon="0.1829080">
        <ele>571.7</ele>
      </trkpt>
      <trkpt lat="40.8305380" lon="0.1829510">
        <ele>572.0</ele>
      </trkpt>
      <trkpt lat="40.8305360" lon="0.1830000">
        <ele>572.2</ele>
      </trkpt>
      <trkpt lat="40.8305340" lon="0.1830510">
        <ele>572.4</ele>
      </trkpt>
      <trkpt lat="40.8305330" lon="0.1831160">
        <ele>572.7</ele>
      </trkpt>
      <trkpt lat="40.8305080" lon="0.1831720">
        <ele>573.0</ele>
      </trkpt>
      <trkpt lat="40.8305000" lon="0.1832100">
        <ele>573.2</ele>
      </trkpt>
      <trkpt lat="40.8305050" lon="0.1832490">
        <ele>573.3</ele>
      </trkpt>
      <trkpt lat="40.8305150" lon="0.1832990">
        <ele>573.6</ele>
      </trkpt>
      <trkpt lat="40.8305330" lon="0.1833480">
        <ele>573.8</ele>
      </trkpt>
      <trkpt lat="40.8305420" lon="0.1833830">
        <ele>574.0</ele>
      </trkpt>
      <trkpt lat="40.8305570" lon="0.1834240">
        <ele>574.4</ele>
      </trkpt>
      <trkpt lat="40.8305850" lon="0.1834620">
        <ele>575.0</ele>
      </trkpt>
      <trkpt lat="40.8306230" lon="0.1834940">
        <ele>575.0</ele>
      </trkpt>
      <trkpt lat="40.8306480" lon="0.1835110">
        <ele>575.0</ele>
      </trkpt>
      <trkpt lat="40.8306900" lon="0.1835510">
        <ele>575.0</ele>
      </trkpt>
      <trkpt lat="40.8307310" lon="0.1835840">
        <ele>575.0</ele>
      </trkpt>
      <trkpt lat="40.8307650" lon="0.1836020">
        <ele>575.0</ele>
      </trkpt>
      <trkpt lat="40.8308030" lon="0.1836250">
        <ele>575.0</ele>
      </trkpt>
      <trkpt lat="40.8308260" lon="0.1836470">
        <ele>575.0</ele>
      </trkpt>
      <trkpt lat="40.8308470" lon="0.1836740">
        <ele>575.0</ele>
      </trkpt>
      <trkpt lat="40.8308670" lon="0.1837010">
        <ele>575.0</ele>
      </trkpt>
      <trkpt lat="40.8309030" lon="0.1837480">
        <ele>575.0</ele>
      </trkpt>
      <trkpt lat="40.8309260" lon="0.1837860">
        <ele>575.0</ele>
      </trkpt>
      <trkpt lat="40.8309460" lon="0.1838210">
        <ele>575.0</ele>
      </trkpt>
      <trkpt lat="40.8309670" lon="0.1838450">
        <ele>575.0</ele>
      </trkpt>
      <trkpt lat="40.8309380" lon="0.1838570">
        <ele>575.0</ele>
      </trkpt>
      <trkpt lat="40.8309340" lon="0.1839170">
        <ele>575.7</ele>
      </trkpt>
      <trkpt lat="40.8309310" lon="0.1839830">
        <ele>576.4</ele>
      </trkpt>
      <trkpt lat="40.8309340" lon="0.1840220">
        <ele>576.9</ele>
      </trkpt>
      <trkpt lat="40.8309430" lon="0.1840600">
        <ele>577.3</ele>
      </trkpt>
      <trkpt lat="40.8309620" lon="0.1840950">
        <ele>577.8</ele>
      </trkpt>
      <trkpt lat="40.8309890" lon="0.1841240">
        <ele>581.0</ele>
      </trkpt>
      <trkpt lat="40.8310200" lon="0.1841290">
        <ele>581.0</ele>
      </trkpt>
      <trkpt lat="40.8310400" lon="0.1841710">
        <ele>581.0</ele>
      </trkpt>
      <trkpt lat="40.8310480" lon="0.1842080">
        <ele>581.0</ele>
      </trkpt>
      <trkpt lat="40.8310550" lon="0.1842430">
        <ele>581.0</ele>
      </trkpt>
      <trkpt lat="40.8310710" lon="0.1842730">
        <ele>581.0</ele>
      </trkpt>
      <trkpt lat="40.8311030" lon="0.1842990">
        <ele>581.0</ele>
      </trkpt>
      <trkpt lat="40.8311420" lon="0.1843030">
        <ele>581.0</ele>
      </trkpt>
      <trkpt lat="40.8311840" lon="0.1843100">
        <ele>581.0</ele>
      </trkpt>
      <trkpt lat="40.8312240" lon="0.1843030">
        <ele>581.0</ele>
      </trkpt>
      <trkpt lat="40.8312650" lon="0.1842980">
        <ele>581.0</ele>
      </trkpt>
      <trkpt lat="40.8313070" lon="0.1842750">
        <ele>581.0</ele>
      </trkpt>
      <trkpt lat="40.8313470" lon="0.1842460">
        <ele>581.0</ele>
      </trkpt>
      <trkpt lat="40.8313840" lon="0.1842250">
        <ele>580.3</ele>
      </trkpt>
      <trkpt lat="40.8314160" lon="0.1842030">
        <ele>579.6</ele>
      </trkpt>
      <trkpt lat="40.8314470" lon="0.1841910">
        <ele>579.0</ele>
      </trkpt>
      <trkpt lat="40.8314740" lon="0.1841730">
        <ele>578.5</ele>
      </trkpt>
      <trkpt lat="40.8314990" lon="0.1841570">
        <ele>577.9</ele>
      </trkpt>
      <trkpt lat="40.8315400" lon="0.1841410">
        <ele>577.1</ele>
      </trkpt>
      <trkpt lat="40.8315700" lon="0.1841020">
        <ele>576.3</ele>
      </trkpt>
      <trkpt lat="40.8315850" lon="0.1840610">
        <ele>575.7</ele>
      </trkpt>
      <trkpt lat="40.8316140" lon="0.1840650">
        <ele>575.2</ele>
      </trkpt>
      <trkpt lat="40.8316410" lon="0.1840300">
        <ele>577.0</ele>
      </trkpt>
      <trkpt lat="40.8316690" lon="0.1839920">
        <ele>579.9</ele>
      </trkpt>
      <trkpt lat="40.8316940" lon="0.1839530">
        <ele>582.8</ele>
      </trkpt>
      <trkpt lat="40.8317210" lon="0.1839150">
        <ele>586.0</ele>
      </trkpt>
      <trkpt lat="40.8317450" lon="0.1838730">
        <ele>586.0</ele>
      </trkpt>
      <trkpt lat="40.8317750" lon="0.1838220">
        <ele>586.0</ele>
      </trkpt>
      <trkpt lat="40.8317940" lon="0.1837830">
        <ele>586.0</ele>
      </trkpt>
      <trkpt lat="40.8318090" lon="0.1837530">
        <ele>586.0</ele>
      </trkpt>
      <trkpt lat="40.8318340" lon="0.1837360">
        <ele>586.0</ele>
      </trkpt>
      <trkpt lat="40.8318590" lon="0.1837220">
        <ele>586.0</ele>
      </trkpt>
      <trkpt lat="40.8318410" lon="0.1836830">
        <ele>586.0</ele>
      </trkpt>
      <trkpt lat="40.8318210" lon="0.1836390">
        <ele>586.0</ele>
      </trkpt>
      <trkpt lat="40.8318640" lon="0.1836390">
        <ele>586.0</ele>
      </trkpt>
      <trkpt lat="40.8319050" lon="0.1836870">
        <ele>586.0</ele>
      </trkpt>
      <trkpt lat="40.8319140" lon="0.1837220">
        <ele>586.0</ele>
      </trkpt>
      <trkpt lat="40.8318910" lon="0.1836970">
        <ele>586.0</ele>
      </trkpt>
      <trkpt lat="40.8318710" lon="0.1836550">
        <ele>586.0</ele>
      </trkpt>
      <trkpt lat="40.8318780" lon="0.1836200">
        <ele>586.0</ele>
      </trkpt>
      <trkpt lat="40.8319000" lon="0.1835830">
        <ele>586.0</ele>
      </trkpt>
      <trkpt lat="40.830617" lon="0.177516">
        <ele>665.056</ele>
        <time>2010-10-03T09:18:27Z</time>
      </trkpt>
      <trkpt lat="40.830229" lon="0.176965">
        <ele>603.059</ele>
        <time>2010-10-03T09:18:37Z</time>
      </trkpt>
      <trkpt lat="40.830098" lon="0.176374">
        <ele>574.014</ele>
        <time>2010-10-03T09:18:54Z</time>
      </trkpt>
      <trkpt lat="40.830067" lon="0.175778">
        <ele>570.007</ele>
        <time>2010-10-03T09:19:09Z</time>
      </trkpt>
      <trkpt lat="40.830244" lon="0.175233">
        <ele>571.046</ele>
        <time>2010-10-03T09:19:25Z</time>
      </trkpt>
      <trkpt lat="40.829925" lon="0.171673">
        <ele>578.097</ele>
        <time>2010-10-03T09:21:03Z</time>
      </trkpt>
      <trkpt lat="40.829147" lon="0.168222">
        <ele>592.056</ele>
        <time>2010-10-03T09:22:55Z</time>
      </trkpt>
      <trkpt lat="40.828230" lon="0.166130">
        <ele>600.051</ele>
        <time>2010-10-03T09:24:06Z</time>
      </trkpt>
      <trkpt lat="40.827661" lon="0.163811">
        <ele>610.074</ele>
        <time>2010-10-03T09:25:25Z</time>
      </trkpt>
      <trkpt lat="40.827380" lon="0.163315">
        <ele>612.098</ele>
        <time>2010-10-03T09:25:40Z</time>
      </trkpt>
      <trkpt lat="40.826315" lon="0.162226">
        <ele>616.070</ele>
        <time>2010-10-03T09:26:21Z</time>
      </trkpt>
      <trkpt lat="40.825327" lon="0.159548">
        <ele>625.087</ele>
        <time>2010-10-03T09:28:02Z</time>
      </trkpt>
      <trkpt lat="40.824732" lon="0.157300">
        <ele>633.042</ele>
        <time>2010-10-03T09:29:14Z</time>
      </trkpt>
      <trkpt lat="40.824608" lon="0.155516">
        <ele>637.026</ele>
        <time>2010-10-03T09:30:03Z</time>
      </trkpt>
      <trkpt lat="40.823582" lon="0.152201">
        <ele>647.007</ele>
        <time>2010-10-03T09:31:56Z</time>
      </trkpt>
      <trkpt lat="40.823355" lon="0.151663">
        <ele>649.029</ele>
        <time>2010-10-03T09:32:16Z</time>
      </trkpt>
      <trkpt lat="40.822331" lon="0.150415">
        <ele>654.040</ele>
        <time>2010-10-03T09:33:02Z</time>
      </trkpt>
      <trkpt lat="40.820946" lon="0.147609">
        <ele>657.069</ele>
        <time>2010-10-03T09:33:43Z</time>
      </trkpt>
      <trkpt lat="40.819665" lon="0.144594">
        <ele>652.014</ele>
        <time>2010-10-03T09:34:23Z</time>
      </trkpt>
      <trkpt lat="40.819310" lon="0.144142">
        <ele>650.067</ele>
        <time>2010-10-03T09:34:35Z</time>
      </trkpt>
      <trkpt lat="40.818732" lon="0.144291">
        <ele>648.041</ele>
        <time>2010-10-03T09:34:45Z</time>
      </trkpt>
      <trkpt lat="40.817855" lon="0.144265">
        <ele>645.033</ele>
        <time>2010-10-03T09:39:42Z</time>
      </trkpt>
      <trkpt lat="40.817520" lon="0.143875">
        <ele>644.061</ele>
        <time>2010-10-03T09:39:58Z</time>
      </trkpt>
      <trkpt lat="40.817330" lon="0.143342">
        <ele>643.021</ele>
        <time>2010-10-03T09:40:13Z</time>
      </trkpt>
      <trkpt lat="40.817260" lon="0.142135">
        <ele>642.013</ele>
        <time>2010-10-03T09:40:33Z</time>
      </trkpt>
      <trkpt lat="40.816862" lon="0.140866">
        <ele>641.007</ele>
        <time>2010-10-03T09:40:53Z</time>
      </trkpt>
      <trkpt lat="40.816868" lon="0.140220">
        <ele>641.017</ele>
        <time>2010-10-03T09:41:03Z</time>
      </trkpt>
      <trkpt lat="40.816176" lon="0.139234">
        <ele>639.068</ele>
        <time>2010-10-03T09:41:23Z</time>
      </trkpt>
      <trkpt lat="40.815447" lon="0.138490">
        <ele>639.057</ele>
        <time>2010-10-03T09:41:50Z</time>
      </trkpt>
      <trkpt lat="40.815319" lon="0.137882">
        <ele>639.052</ele>
        <time>2010-10-03T09:42:41Z</time>
      </trkpt>
      <trkpt lat="40.814605" lon="0.136959">
        <ele>639.065</ele>
        <time>2010-10-03T09:43:03Z</time>
      </trkpt>
      <trkpt lat="40.813807" lon="0.135297">
        <ele>640.089</ele>
        <time>2010-10-03T09:43:33Z</time>
      </trkpt>
      <trkpt lat="40.813099" lon="0.134446">
        <ele>641.041</ele>
        <time>2010-10-03T09:43:53Z</time>
      </trkpt>
      <trkpt lat="40.812618" lon="0.134586">
        <ele>641.076</ele>
        <time>2010-10-03T09:44:03Z</time>
      </trkpt>
      <trkpt lat="40.812318" lon="0.134151">
        <ele>643.090</ele>
        <time>2010-10-03T09:44:16Z</time>
      </trkpt>
      <trkpt lat="40.812238" lon="0.133547">
        <ele>643.019</ele>
        <time>2010-10-03T09:44:31Z</time>
      </trkpt>
      <trkpt lat="40.811873" lon="0.133137">
        <ele>645.007</ele>
        <time>2010-10-03T09:44:41Z</time>
      </trkpt>
      <trkpt lat="40.811376" lon="0.133023">
        <ele>646.098</ele>
        <time>2010-10-03T09:44:51Z</time>
      </trkpt>
      <trkpt lat="40.810936" lon="0.132622">
        <ele>647.029</ele>
        <time>2010-10-03T09:45:01Z</time>
      </trkpt>
      <trkpt lat="40.810665" lon="0.132112">
        <ele>646.028</ele>
        <time>2010-10-03T09:45:13Z</time>
      </trkpt>
      <trkpt lat="40.810193" lon="0.132056">
        <ele>646.083</ele>
        <time>2010-10-03T09:45:24Z</time>
      </trkpt>
      <trkpt lat="40.809703" lon="0.131022">
        <ele>645.096</ele>
        <time>2010-10-03T09:45:44Z</time>
      </trkpt>
      <trkpt lat="40.808535" lon="0.129985">
        <ele>647.050</ele>
        <time>2010-10-03T09:46:15Z</time>
      </trkpt>
      <trkpt lat="40.807618" lon="0.128630">
        <ele>650.092</ele>
        <time>2010-10-03T09:46:50Z</time>
      </trkpt>
      <trkpt lat="40.806856" lon="0.127867">
        <ele>651.083</ele>
        <time>2010-10-03T09:47:13Z</time>
      </trkpt>
      <trkpt lat="40.806403" lon="0.127758">
        <ele>650.025</ele>
        <time>2010-10-03T09:47:23Z</time>
      </trkpt>
      <trkpt lat="40.806760" lon="0.129044">
        <ele>650.017</ele>
        <time>2010-10-03T09:47:46Z</time>
      </trkpt>
      <trkpt lat="40.806638" lon="0.130405">
        <ele>651.007</ele>
        <time>2010-10-03T09:48:06Z</time>
      </trkpt>
      <trkpt lat="40.806903" lon="0.130946">
        <ele>652.069</ele>
        <time>2010-10-03T09:48:16Z</time>
      </trkpt>
      <trkpt lat="40.807000" lon="0.131675">
        <ele>653.040</ele>
        <time>2010-10-03T09:48:26Z</time>
      </trkpt>
      <trkpt lat="40.806728" lon="0.132286">
        <ele>654.029</ele>
        <time>2010-10-03T09:48:36Z</time>
      </trkpt>
      <trkpt lat="40.805761" lon="0.132323">
        <ele>654.044</ele>
        <time>2010-10-03T09:48:56Z</time>
      </trkpt>
      <trkpt lat="40.804274" lon="0.131906">
        <ele>651.077</ele>
        <time>2010-10-03T09:49:26Z</time>
      </trkpt>
      <trkpt lat="40.804068" lon="0.131358">
        <ele>649.071</ele>
        <time>2010-10-03T09:49:36Z</time>
      </trkpt>
      <trkpt lat="40.803592" lon="0.131071">
        <ele>648.013</ele>
        <time>2010-10-03T09:49:46Z</time>
      </trkpt>
      <trkpt lat="40.802877" lon="0.129498">
        <ele>646.012</ele>
        <time>2010-10-03T09:50:16Z</time>
      </trkpt>
      <trkpt lat="40.803676" lon="0.128181">
        <ele>643.032</ele>
        <time>2010-10-03T09:50:36Z</time>
      </trkpt>
      <trkpt lat="40.803366" lon="0.126885">
        <ele>639.005</ele>
        <time>2010-10-03T09:51:56Z</time>
      </trkpt>
      <trkpt lat="40.801312" lon="0.128503">
        <ele>639.007</ele>
        <time>2010-10-03T09:53:48Z</time>
      </trkpt>
      <trkpt lat="40.800756" lon="0.129443">
        <ele>641.092</ele>
        <time>2010-10-03T09:54:24Z</time>
      </trkpt>
      <trkpt lat="40.799844" lon="0.129484">
        <ele>641.083</ele>
        <time>2010-10-03T09:54:49Z</time>
      </trkpt>
      <trkpt lat="40.799406" lon="0.129684">
        <ele>641.062</ele>
        <time>2010-10-03T09:55:01Z</time>
      </trkpt>
      <trkpt lat="40.798134" lon="0.129028">
        <ele>643.087</ele>
        <time>2010-10-03T09:55:36Z</time>
      </trkpt>
      <trkpt lat="40.797675" lon="0.129063">
        <ele>644.030</ele>
        <time>2010-10-03T09:55:48Z</time>
      </trkpt>
      <trkpt lat="40.797253" lon="0.129283">
        <ele>645.064</ele>
        <time>2010-10-03T09:56:00Z</time>
      </trkpt>
      <trkpt lat="40.797462" lon="0.129977">
        <ele>645.016</ele>
        <time>2010-10-03T09:56:10Z</time>
      </trkpt>
      <trkpt lat="40.797316" lon="0.130757">
        <ele>645.076</ele>
        <time>2010-10-03T09:56:20Z</time>
      </trkpt>
      <trkpt lat="40.795855" lon="0.132242">
        <ele>644.090</ele>
        <time>2010-10-03T09:57:04Z</time>
      </trkpt>
      <trkpt lat="40.795409" lon="0.132318">
        <ele>644.019</ele>
        <time>2010-10-03T09:57:22Z</time>
      </trkpt>
      <trkpt lat="40.794124" lon="0.131693">
        <ele>647.007</ele>
        <time>2010-10-03T09:58:41Z</time>
      </trkpt>
      <trkpt lat="40.793018" lon="0.132171">
        <ele>652.018</ele>
        <time>2010-10-03T09:59:06Z</time>
      </trkpt>
      <trkpt lat="40.792465" lon="0.132584">
        <ele>653.029</ele>
        <time>2010-10-03T09:59:16Z</time>
      </trkpt>
      <trkpt lat="40.792519" lon="0.133436">
        <ele>653.078</ele>
        <time>2010-10-03T09:59:26Z</time>
      </trkpt>
      <trkpt lat="40.792039" lon="0.135265">
        <ele>650.033</ele>
        <time>2010-10-03T10:00:10Z</time>
      </trkpt>
      <trkpt lat="40.791810" lon="0.135792">
        <ele>651.046</ele>
        <time>2010-10-03T10:00:32Z</time>
      </trkpt>
      <trkpt lat="40.791162" lon="0.136609">
        <ele>659.030</ele>
        <time>2010-10-03T10:01:04Z</time>
      </trkpt>
      <trkpt lat="40.789950" lon="0.136400">
        <ele>661.042</ele>
        <time>2010-10-03T10:01:24Z</time>
      </trkpt>
      <trkpt lat="40.789076" lon="0.134774">
        <ele>660.075</ele>
        <time>2010-10-03T10:02:04Z</time>
      </trkpt>
      <trkpt lat="40.788280" lon="0.134201">
        <ele>662.028</ele>
        <time>2010-10-03T10:02:36Z</time>
      </trkpt>
      <trkpt lat="40.787432" lon="0.132767">
        <ele>663.020</ele>
        <time>2010-10-03T10:03:15Z</time>
      </trkpt>
      <trkpt lat="40.786035" lon="0.132675">
        <ele>665.007</ele>
        <time>2010-10-03T10:04:24Z</time>
      </trkpt>
      <trkpt lat="40.785663" lon="0.132284">
        <ele>667.078</ele>
        <time>2010-10-03T10:04:38Z</time>
      </trkpt>
      <trkpt lat="40.785549" lon="0.131681">
        <ele>667.089</ele>
        <time>2010-10-03T10:04:52Z</time>
      </trkpt>
      <trkpt lat="40.785214" lon="0.131261">
        <ele>666.078</ele>
        <time>2010-10-03T10:05:08Z</time>
      </trkpt>
      <trkpt lat="40.784753" lon="0.131377">
        <ele>666.013</ele>
        <time>2010-10-03T10:05:22Z</time>
      </trkpt>
      <trkpt lat="40.784128" lon="0.132280">
        <ele>666.056</ele>
        <time>2010-10-03T10:05:51Z</time>
      </trkpt>
      <trkpt lat="40.783669" lon="0.132508">
        <ele>667.020</ele>
        <time>2010-10-03T10:06:03Z</time>
      </trkpt>
      <trkpt lat="40.783208" lon="0.132683">
        <ele>671.052</ele>
        <time>2010-10-03T10:06:16Z</time>
      </trkpt>
      <trkpt lat="40.782743" lon="0.132560">
        <ele>672.077</ele>
        <time>2010-10-03T10:06:32Z</time>
      </trkpt>
      <trkpt lat="40.780979" lon="0.133276">
        <ele>676.061</ele>
        <time>2010-10-03T10:07:39Z</time>
      </trkpt>
      <trkpt lat="40.780299" lon="0.134307">
        <ele>677.027</ele>
        <time>2010-10-03T10:08:16Z</time>
      </trkpt>
      <trkpt lat="40.780089" lon="0.134858">
        <ele>681.007</ele>
        <time>2010-10-03T10:08:32Z</time>
      </trkpt>
      <trkpt lat="40.780100" lon="0.135483">
        <ele>682.068</ele>
        <time>2010-10-03T10:08:48Z</time>
      </trkpt>
      <trkpt lat="40.779724" lon="0.135811">
        <ele>685.049</ele>
        <time>2010-10-03T10:09:08Z</time>
      </trkpt>
      <trkpt lat="40.778783" lon="0.136013">
        <ele>685.038</ele>
        <time>2010-10-03T10:09:39Z</time>
      </trkpt>
      <trkpt lat="40.778807" lon="0.136606">
        <ele>686.063</ele>
        <time>2010-10-03T10:09:51Z</time>
      </trkpt>
      <trkpt lat="40.779220" lon="0.137707">
        <ele>690.016</ele>
        <time>2010-10-03T10:10:24Z</time>
      </trkpt>
      <trkpt lat="40.779069" lon="0.138293">
        <ele>691.070</ele>
        <time>2010-10-03T10:10:41Z</time>
      </trkpt>
      <trkpt lat="40.778770" lon="0.138765">
        <ele>692.022</ele>
        <time>2010-10-03T10:10:57Z</time>
      </trkpt>
      <trkpt lat="40.778068" lon="0.139523">
        <ele>700.023</ele>
        <time>2010-10-03T10:11:37Z</time>
      </trkpt>
      <trkpt lat="40.777687" lon="0.140586">
        <ele>707.083</ele>
        <time>2010-10-03T10:12:16Z</time>
      </trkpt>
      <trkpt lat="40.777231" lon="0.140666">
        <ele>708.011</ele>
        <time>2010-10-03T10:12:33Z</time>
      </trkpt>
      <trkpt lat="40.776784" lon="0.140466">
        <ele>708.007</ele>
        <time>2010-10-03T10:12:54Z</time>
      </trkpt>
      <trkpt lat="40.775348" lon="0.138498">
        <ele>742.053</ele>
        <time>2010-10-03T10:14:45Z</time>
      </trkpt>
      <trkpt lat="40.774917" lon="0.138308">
        <ele>743.054</ele>
        <time>2010-10-03T10:15:13Z</time>
      </trkpt>
      <trkpt lat="40.774030" lon="0.138727">
        <ele>743.033</ele>
        <time>2010-10-03T10:15:43Z</time>
      </trkpt>
      <trkpt lat="40.773032" lon="0.138599">
        <ele>744.058</ele>
        <time>2010-10-03T10:16:25Z</time>
      </trkpt>
      <trkpt lat="40.772100" lon="0.138899">
        <ele>741.011</ele>
        <time>2010-10-03T10:17:02Z</time>
      </trkpt>
      <trkpt lat="40.771194" lon="0.138752">
        <ele>742.025</ele>
        <time>2010-10-03T10:17:56Z</time>
      </trkpt>
      <trkpt lat="40.770952" lon="0.138249">
        <ele>744.027</ele>
        <time>2010-10-03T10:18:10Z</time>
      </trkpt>
      <trkpt lat="40.770535" lon="0.138026">
        <ele>744.087</ele>
        <time>2010-10-03T10:18:34Z</time>
      </trkpt>
      <trkpt lat="40.770043" lon="0.137971">
        <ele>736.042</ele>
        <time>2010-10-03T10:19:32Z</time>
      </trkpt>
      <trkpt lat="40.768633" lon="0.138226">
        <ele>750.026</ele>
        <time>2010-10-03T10:20:48Z</time>
      </trkpt>
      <trkpt lat="40.767483" lon="0.139234">
        <ele>766.007</ele>
        <time>2010-10-03T10:21:46Z</time>
      </trkpt>
      <trkpt lat="40.765856" lon="0.139526">
        <ele>772.019</ele>
        <time>2010-10-03T10:22:36Z</time>
      </trkpt>
      <trkpt lat="40.765005" lon="0.139134">
        <ele>778.060</ele>
        <time>2010-10-03T10:23:31Z</time>
      </trkpt>
      <trkpt lat="40.764104" lon="0.139380">
        <ele>783.079</ele>
        <time>2010-10-03T10:24:34Z</time>
      </trkpt>
      <trkpt lat="40.764179" lon="0.139600">
        <ele>784.084</ele>
        <time>2010-10-03T10:27:34Z</time>
      </trkpt>
      <trkpt lat="40.764021" lon="0.139854">
        <ele>786.037</ele>
        <time>2010-10-03T10:28:34Z</time>
      </trkpt>
      <trkpt lat="40.764194" lon="0.139815">
        <ele>787.091</ele>
        <time>2010-10-03T10:30:34Z</time>
      </trkpt>
      <trkpt lat="40.764193" lon="0.139691">
        <ele>788.093</ele>
        <time>2010-10-03T10:31:34Z</time>
      </trkpt>
      <trkpt lat="40.764196" lon="0.139861">
        <ele>790.031</ele>
        <time>2010-10-03T10:32:34Z</time>
      </trkpt>
      <trkpt lat="40.764919" lon="0.140288">
        <ele>793.061</ele>
        <time>2010-10-03T10:35:07Z</time>
      </trkpt>
      <trkpt lat="40.765539" lon="0.140279">
        <ele>809.007</ele>
        <time>2010-10-03T10:38:46Z</time>
      </trkpt>
      <trkpt lat="40.765427" lon="0.140303">
        <ele>816.007</ele>
        <time>2010-10-03T10:42:46Z</time>
      </trkpt>
      <trkpt lat="40.765008" lon="0.142330">
        <ele>827.014</ele>
        <time>2010-10-03T10:46:01Z</time>
      </trkpt>
      <trkpt lat="40.764668" lon="0.142712">
        <ele>828.075</ele>
        <time>2010-10-03T10:47:01Z</time>
      </trkpt>
      <trkpt lat="40.764546" lon="0.143911">
        <ele>832.064</ele>
        <time>2010-10-03T10:48:38Z</time>
      </trkpt>
      <trkpt lat="40.764663" lon="0.144294">
        <ele>836.079</ele>
        <time>2010-10-03T10:49:38Z</time>
      </trkpt>
      <trkpt lat="40.764099" lon="0.144193">
        <ele>847.012</ele>
        <time>2010-10-03T10:51:06Z</time>
      </trkpt>
      <trkpt lat="40.763117" lon="0.145256">
        <ele>870.086</ele>
        <time>2010-10-03T10:53:54Z</time>
      </trkpt>
      <trkpt lat="40.762612" lon="0.146122">
        <ele>881.078</ele>
        <time>2010-10-03T10:55:54Z</time>
      </trkpt>
      <trkpt lat="40.762253" lon="0.146413">
        <ele>887.056</ele>
        <time>2010-10-03T10:56:54Z</time>
      </trkpt>
      <trkpt lat="40.761246" lon="0.145820">
        <ele>896.059</ele>
        <time>2010-10-03T10:59:54Z</time>
      </trkpt>
      <trkpt lat="40.760947" lon="0.145253">
        <ele>902.014</ele>
        <time>2010-10-03T11:01:54Z</time>
      </trkpt>
      <trkpt lat="40.760583" lon="0.145181">
        <ele>906.007</ele>
        <time>2010-10-03T11:02:54Z</time>
      </trkpt>
      <trkpt lat="40.760233" lon="0.145557">
        <ele>908.066</ele>
        <time>2010-10-03T11:03:20Z</time>
      </trkpt>
      <trkpt lat="40.759320" lon="0.148011">
        <ele>959.027</ele>
        <time>2010-10-03T11:07:25Z</time>
      </trkpt>
      <trkpt lat="40.759093" lon="0.149163">
        <ele>966.086</ele>
        <time>2010-10-03T11:08:12Z</time>
      </trkpt>
      <trkpt lat="40.758829" lon="0.149658">
        <ele>969.031</ele>
        <time>2010-10-03T11:08:45Z</time>
      </trkpt>
      <trkpt lat="40.758441" lon="0.149981">
        <ele>972.054</ele>
        <time>2010-10-03T11:09:22Z</time>
      </trkpt>
      <trkpt lat="40.758221" lon="0.150512">
        <ele>976.028</ele>
        <time>2010-10-03T11:10:00Z</time>
      </trkpt>
      <trkpt lat="40.757856" lon="0.152189">
        <ele>989.010</ele>
        <time>2010-10-03T11:11:47Z</time>
      </trkpt>
      <trkpt lat="40.757912" lon="0.152772">
        <ele>992.017</ele>
        <time>2010-10-03T11:12:15Z</time>
      </trkpt>
      <trkpt lat="40.758904" lon="0.152844">
        <ele>994.087</ele>
        <time>2010-10-03T11:12:47Z</time>
      </trkpt>
      <trkpt lat="40.759297" lon="0.153145">
        <ele>995.015</ele>
        <time>2010-10-03T11:13:28Z</time>
      </trkpt>
      <trkpt lat="40.760194" lon="0.152973">
        <ele>997.007</ele>
        <time>2010-10-03T11:14:13Z</time>
      </trkpt>
      <trkpt lat="40.760613" lon="0.153221">
        <ele>999.052</ele>
        <time>2010-10-03T11:14:38Z</time>
      </trkpt>
      <trkpt lat="40.761713" lon="0.155100">
        <ele>1016.093</ele>
        <time>2010-10-03T11:17:05Z</time>
      </trkpt>
      <trkpt lat="40.762707" lon="0.154322">
        <ele>1020.082</ele>
        <time>2010-10-03T11:17:25Z</time>
      </trkpt>
      <trkpt lat="40.763150" lon="0.154396">
        <ele>1025.087</ele>
        <time>2010-10-03T11:17:46Z</time>
      </trkpt>
      <trkpt lat="40.763091" lon="0.154989">
        <ele>1033.040</ele>
        <time>2010-10-03T11:18:27Z</time>
      </trkpt>
      <trkpt lat="40.762812" lon="0.155455">
        <ele>1039.054</ele>
        <time>2010-10-03T11:19:04Z</time>
      </trkpt>
      <trkpt lat="40.761654" lon="0.156352">
        <ele>1057.086</ele>
        <time>2010-10-03T11:21:09Z</time>
      </trkpt>
      <trkpt lat="40.761203" lon="0.156470">
        <ele>1061.045</ele>
        <time>2010-10-03T11:21:38Z</time>
      </trkpt>
      <trkpt lat="40.760308" lon="0.156421">
        <ele>1065.047</ele>
        <time>2010-10-03T11:22:27Z</time>
      </trkpt>
      <trkpt lat="40.759431" lon="0.156126">
        <ele>1071.011</ele>
        <time>2010-10-03T11:23:24Z</time>
      </trkpt>
      <trkpt lat="40.758984" lon="0.156120">
        <ele>1074.007</ele>
        <time>2010-10-03T11:24:07Z</time>
      </trkpt>
      <trkpt lat="40.758536" lon="0.156242">
        <ele>1076.045</ele>
        <time>2010-10-03T11:24:35Z</time>
      </trkpt>
      <trkpt lat="40.758161" lon="0.156582">
        <ele>1083.056</ele>
        <time>2010-10-03T11:25:07Z</time>
      </trkpt>
      <trkpt lat="40.757718" lon="0.156487">
        <ele>1088.055</ele>
        <time>2010-10-03T11:25:40Z</time>
      </trkpt>
      <trkpt lat="40.757491" lon="0.155957">
        <ele>1092.060</ele>
        <time>2010-10-03T11:25:58Z</time>
      </trkpt>
      <trkpt lat="40.756780" lon="0.155235">
        <ele>1096.053</ele>
        <time>2010-10-03T11:26:31Z</time>
      </trkpt>
      <trkpt lat="40.756365" lon="0.155010">
        <ele>1097.057</ele>
        <time>2010-10-03T11:26:49Z</time>
      </trkpt>
      <trkpt lat="40.755947" lon="0.155214">
        <ele>1097.049</ele>
        <time>2010-10-03T11:27:13Z</time>
      </trkpt>
      <trkpt lat="40.755063" lon="0.154900">
        <ele>1099.021</ele>
        <time>2010-10-03T11:27:46Z</time>
      </trkpt>
      <trkpt lat="40.754684" lon="0.154579">
        <ele>1101.041</ele>
        <time>2010-10-03T11:28:08Z</time>
      </trkpt>
      <trkpt lat="40.754356" lon="0.153469">
        <ele>1114.005</ele>
        <time>2010-10-03T11:29:03Z</time>
      </trkpt>
      <trkpt lat="40.753681" lon="0.154235">
        <ele>1121.007</ele>
        <time>2010-10-03T11:29:42Z</time>
      </trkpt>
      <trkpt lat="40.753854" lon="0.154781">
        <ele>1124.043</ele>
        <time>2010-10-03T11:30:03Z</time>
      </trkpt>
      <trkpt lat="40.754731" lon="0.156291">
        <ele>1141.084</ele>
        <time>2010-10-03T11:37:15Z</time>
      </trkpt>
      <trkpt lat="40.754286" lon="0.155925">
        <ele>1143.043</ele>
        <time>2010-10-03T11:38:54Z</time>
      </trkpt>
      <trkpt lat="40.754779" lon="0.156343">
        <ele>1144.058</ele>
        <time>2010-10-03T11:45:09Z</time>
      </trkpt>
      <trkpt lat="40.754418" lon="0.156693">
        <ele>1144.031</ele>
        <time>2010-10-03T11:45:47Z</time>
      </trkpt>
      <trkpt lat="40.753545" lon="0.156969">
        <ele>1147.095</ele>
        <time>2010-10-03T11:47:19Z</time>
      </trkpt>
      <trkpt lat="40.752656" lon="0.157159">
        <ele>1151.077</ele>
        <time>2010-10-03T11:48:37Z</time>
      </trkpt>
      <trkpt lat="40.751778" lon="0.156940">
        <ele>1155.075</ele>
        <time>2010-10-03T11:50:34Z</time>
      </trkpt>
      <trkpt lat="40.751332" lon="0.157022">
        <ele>1157.028</ele>
        <time>2010-10-03T11:51:16Z</time>
      </trkpt>
      <trkpt lat="40.750948" lon="0.157356">
        <ele>1160.020</ele>
        <time>2010-10-03T11:51:46Z</time>
      </trkpt>
      <trkpt lat="40.750107" lon="0.160071">
        <ele>1174.007</ele>
        <time>2010-10-03T11:54:24Z</time>
      </trkpt>
      <trkpt lat="40.749672" lon="0.160322">
        <ele>1177.018</ele>
        <time>2010-10-03T11:54:51Z</time>
      </trkpt>
      <trkpt lat="40.749500" lon="0.160879">
        <ele>1193.089</ele>
        <time>2010-10-03T11:55:18Z</time>
      </trkpt>
      <trkpt lat="40.749070" lon="0.161106">
        <ele>1205.058</ele>
        <time>2010-10-03T11:55:51Z</time>
      </trkpt>
      <trkpt lat="40.748426" lon="0.162574">
        <ele>1207.013</ele>
        <time>2010-10-03T11:57:13Z</time>
      </trkpt>
      <trkpt lat="40.747613" lon="0.163674">
        <ele>1210.026</ele>
        <time>2010-10-03T11:57:47Z</time>
      </trkpt>
      <trkpt lat="40.747153" lon="0.163633">
        <ele>1186.050</ele>
        <time>2010-10-03T11:57:58Z</time>
      </trkpt>
      <trkpt lat="40.745167" lon="0.165082">
        <ele>1168.092</ele>
        <time>2010-10-03T11:59:45Z</time>
      </trkpt>
      <trkpt lat="40.744159" lon="0.167171">
        <ele>1170.078</ele>
        <time>2010-10-03T12:00:49Z</time>
      </trkpt>
      <trkpt lat="40.743844" lon="0.167603">
        <ele>1170.033</ele>
        <time>2010-10-03T12:01:05Z</time>
      </trkpt>
      <trkpt lat="40.743426" lon="0.167860">
        <ele>1171.026</ele>
        <time>2010-10-03T12:01:34Z</time>
      </trkpt>
      <trkpt lat="40.743697" lon="0.167773">
        <ele>1169.007</ele>
        <time>2010-10-03T12:02:34Z</time>
      </trkpt>
      <trkpt lat="40.742898" lon="0.169308">
        <ele>1165.078</ele>
        <time>2010-10-03T12:03:19Z</time>
      </trkpt>
      <trkpt lat="40.742209" lon="0.170124">
        <ele>1162.029</ele>
        <time>2010-10-03T12:03:52Z</time>
      </trkpt>
      <trkpt lat="40.741377" lon="0.170686">
        <ele>1159.078</ele>
        <time>2010-10-03T12:04:39Z</time>
      </trkpt>
      <trkpt lat="40.741606" lon="0.172038">
        <ele>1155.053</ele>
        <time>2010-10-03T12:05:21Z</time>
      </trkpt>
      <trkpt lat="40.741099" lon="0.172498">
        <ele>1153.016</ele>
        <time>2010-10-03T12:05:31Z</time>
      </trkpt>
      <trkpt lat="40.740948" lon="0.173055">
        <ele>1146.090</ele>
        <time>2010-10-03T12:05:44Z</time>
      </trkpt>
      <trkpt lat="40.739554" lon="0.174432">
        <ele>1129.062</ele>
        <time>2010-10-03T12:08:01Z</time>
      </trkpt>
      <trkpt lat="40.739408" lon="0.173824">
        <ele>1129.041</ele>
        <time>2010-10-03T12:08:38Z</time>
      </trkpt>
      <trkpt lat="40.739075" lon="0.174232">
        <ele>1129.081</ele>
        <time>2010-10-03T12:09:17Z</time>
      </trkpt>
      <trkpt lat="40.738673" lon="0.174403">
        <ele>1130.009</ele>
        <time>2010-10-03T12:10:17Z</time>
      </trkpt>
      <trkpt lat="40.738099" lon="0.174354">
        <ele>1137.007</ele>
        <time>2010-10-03T12:14:17Z</time>
      </trkpt>
      <trkpt lat="40.738368" lon="0.174406">
        <ele>1151.045</ele>
        <time>2010-10-03T12:16:17Z</time>
      </trkpt>
      <trkpt lat="40.737510" lon="0.175140">
        <ele>1151.056</ele>
        <time>2010-10-03T12:18:15Z</time>
      </trkpt>
      <trkpt lat="40.736717" lon="0.176654">
        <ele>1154.025</ele>
        <time>2010-10-03T12:19:40Z</time>
      </trkpt>
      <trkpt lat="40.736818" lon="0.177237">
        <ele>1157.070</ele>
        <time>2010-10-03T12:20:15Z</time>
      </trkpt>
      <trkpt lat="40.736373" lon="0.178289">
        <ele>1162.053</ele>
        <time>2010-10-03T12:21:37Z</time>
      </trkpt>
      <trkpt lat="40.735538" lon="0.178762">
        <ele>1163.037</ele>
        <time>2010-10-03T12:22:07Z</time>
      </trkpt>
      <trkpt lat="40.735257" lon="0.179251">
        <ele>1164.039</ele>
        <time>2010-10-03T12:22:21Z</time>
      </trkpt>
      <trkpt lat="40.734466" lon="0.179773">
        <ele>1165.083</ele>
        <time>2010-10-03T12:23:10Z</time>
      </trkpt>
      <trkpt lat="40.733566" lon="0.179912">
        <ele>1169.025</ele>
        <time>2010-10-03T12:24:01Z</time>
      </trkpt>
      <trkpt lat="40.732644" lon="0.180268">
        <ele>1171.017</ele>
        <time>2010-10-03T12:24:31Z</time>
      </trkpt>
      <trkpt lat="40.732182" lon="0.180262">
        <ele>1172.007</ele>
        <time>2010-10-03T12:24:42Z</time>
      </trkpt>
      <trkpt lat="40.731830" lon="0.179836">
        <ele>1173.019</ele>
        <time>2010-10-03T12:24:52Z</time>
      </trkpt>
      <trkpt lat="40.730977" lon="0.179228">
        <ele>1172.050</ele>
        <time>2010-10-03T12:25:13Z</time>
      </trkpt>
      <trkpt lat="40.730536" lon="0.179088">
        <ele>1171.049</ele>
        <time>2010-10-03T12:25:27Z</time>
      </trkpt>
      <trkpt lat="40.730097" lon="0.179206">
        <ele>1171.064</ele>
        <time>2010-10-03T12:25:42Z</time>
      </trkpt>
      <trkpt lat="40.729832" lon="0.179616">
        <ele>1174.057</ele>
        <time>2010-10-03T12:26:42Z</time>
      </trkpt>
      <trkpt lat="40.728958" lon="0.179613">
        <ele>1179.031</ele>
        <time>2010-10-03T12:29:42Z</time>
      </trkpt>
      <trkpt lat="40.728501" lon="0.179289">
        <ele>1178.043</ele>
        <time>2010-10-03T12:32:00Z</time>
      </trkpt>
      <trkpt lat="40.727816" lon="0.178436">
        <ele>1178.091</ele>
        <time>2010-10-03T12:32:24Z</time>
      </trkpt>
      <trkpt lat="40.727389" lon="0.178522">
        <ele>1174.081</ele>
        <time>2010-10-03T12:33:24Z</time>
      </trkpt>
      <trkpt lat="40.727044" lon="0.179594">
        <ele>1172.019</ele>
        <time>2010-10-03T12:34:24Z</time>
      </trkpt>
      <trkpt lat="40.726511" lon="0.175905">
        <ele>1176.007</ele>
        <time>2010-10-03T12:38:05Z</time>
      </trkpt>
      <trkpt lat="40.725507" lon="0.174466">
        <ele>1180.080</ele>
        <time>2010-10-03T12:38:36Z</time>
      </trkpt>
      <trkpt lat="40.725043" lon="0.174132">
        <ele>1181.071</ele>
        <time>2010-10-03T12:38:46Z</time>
      </trkpt>
      <trkpt lat="40.724577" lon="0.174009">
        <ele>1183.080</ele>
        <time>2010-10-03T12:38:58Z</time>
      </trkpt>
      <trkpt lat="40.723717" lon="0.174406">
        <ele>1186.045</ele>
        <time>2010-10-03T12:39:30Z</time>
      </trkpt>
      <trkpt lat="40.722800" lon="0.174471">
        <ele>1189.018</ele>
        <time>2010-10-03T12:40:06Z</time>
      </trkpt>
      <trkpt lat="40.722407" lon="0.174799">
        <ele>1191.062</ele>
        <time>2010-10-03T12:40:23Z</time>
      </trkpt>
      <trkpt lat="40.721974" lon="0.174650">
        <ele>1193.014</ele>
        <time>2010-10-03T12:40:45Z</time>
      </trkpt>
      <trkpt lat="40.721084" lon="0.174708">
        <ele>1197.056</ele>
        <time>2010-10-03T12:41:31Z</time>
      </trkpt>
      <trkpt lat="40.720763" lon="0.173589">
        <ele>1205.059</ele>
        <time>2010-10-03T12:42:14Z</time>
      </trkpt>
      <trkpt lat="40.720435" lon="0.173165">
        <ele>1208.014</ele>
        <time>2010-10-03T12:42:36Z</time>
      </trkpt>
      <trkpt lat="40.720013" lon="0.172928">
        <ele>1210.007</ele>
        <time>2010-10-03T12:42:57Z</time>
      </trkpt>
      <trkpt lat="40.719709" lon="0.172495">
        <ele>1213.066</ele>
        <time>2010-10-03T12:43:19Z</time>
      </trkpt>
      <trkpt lat="40.719262" lon="0.172468">
        <ele>1215.077</ele>
        <time>2010-10-03T12:43:39Z</time>
      </trkpt>
      <trkpt lat="40.718963" lon="0.172009">
        <ele>1217.076</ele>
        <time>2010-10-03T12:44:00Z</time>
      </trkpt>
      <trkpt lat="40.719295" lon="0.170924">
        <ele>1221.081</ele>
        <time>2010-10-03T12:44:45Z</time>
      </trkpt>
      <trkpt lat="40.719297" lon="0.169690">
        <ele>1222.014</ele>
        <time>2010-10-03T12:45:13Z</time>
      </trkpt>
      <trkpt lat="40.718814" lon="0.170679">
        <ele>1227.068</ele>
        <time>2010-10-03T12:45:52Z</time>
      </trkpt>
      <trkpt lat="40.718364" lon="0.170682">
        <ele>1229.060</ele>
        <time>2010-10-03T12:46:15Z</time>
      </trkpt>
      <trkpt lat="40.718015" lon="0.168976">
        <ele>1237.025</ele>
        <time>2010-10-03T12:47:24Z</time>
      </trkpt>
      <trkpt lat="40.717582" lon="0.167934">
        <ele>1243.026</ele>
        <time>2010-10-03T12:48:04Z</time>
      </trkpt>
      <trkpt lat="40.716007" lon="0.166666">
        <ele>1249.008</ele>
        <time>2010-10-03T12:49:21Z</time>
      </trkpt>
      <trkpt lat="40.714055" lon="0.165444">
        <ele>1251.007</ele>
        <time>2010-10-03T12:49:51Z</time>
      </trkpt>
      <trkpt lat="40.713339" lon="0.164617">
        <ele>1250.033</ele>
        <time>2010-10-03T12:50:01Z</time>
      </trkpt>
      <trkpt lat="40.712862" lon="0.163761">
        <ele>1249.074</ele>
        <time>2010-10-03T12:50:11Z</time>
      </trkpt>
      <trkpt lat="40.712510" lon="0.161308">
        <ele>1239.023</ele>
        <time>2010-10-03T12:50:41Z</time>
      </trkpt>
      <trkpt lat="40.712151" lon="0.160374">
        <ele>1229.058</ele>
        <time>2010-10-03T12:50:51Z</time>
      </trkpt>
      <trkpt lat="40.711686" lon="0.160911">
        <ele>1225.061</ele>
        <time>2010-10-03T12:51:01Z</time>
      </trkpt>
      <trkpt lat="40.711311" lon="0.161959">
        <ele>1212.075</ele>
        <time>2010-10-03T12:51:11Z</time>
      </trkpt>
      <trkpt lat="40.710447" lon="0.161561">
        <ele>1205.057</ele>
        <time>2010-10-03T12:51:22Z</time>
      </trkpt>
      <trkpt lat="40.709804" lon="0.161029">
        <ele>1199.029</ele>
        <time>2010-10-03T12:51:32Z</time>
      </trkpt>
      <trkpt lat="40.709559" lon="0.161705">
        <ele>1194.000</ele>
        <time>2010-10-03T12:51:42Z</time>
      </trkpt>
      <trkpt lat="40.709525" lon="0.162421">
        <ele>1186.020</ele>
        <time>2010-10-03T12:51:52Z</time>
      </trkpt>
      <trkpt lat="40.709071" lon="0.162459">
        <ele>1178.007</ele>
        <time>2010-10-03T12:52:05Z</time>
      </trkpt>
      <trkpt lat="40.708774" lon="0.162950">
        <ele>1169.073</ele>
        <time>2010-10-03T12:52:28Z</time>
      </trkpt>
      <trkpt lat="40.708657" lon="0.163958">
        <ele>1164.074</ele>
        <time>2010-10-03T12:52:38Z</time>
      </trkpt>
      <trkpt lat="40.707816" lon="0.164492">
        <ele>1160.053</ele>
        <time>2010-10-03T12:52:48Z</time>
      </trkpt>
      <trkpt lat="40.707223" lon="0.164721">
        <ele>1157.018</ele>
        <time>2010-10-03T12:52:58Z</time>
      </trkpt>
      <trkpt lat="40.706156" lon="0.164147">
        <ele>1153.091</ele>
        <time>2010-10-03T12:53:18Z</time>
      </trkpt>
      <trkpt lat="40.705984" lon="0.164711">
        <ele>1149.085</ele>
        <time>2010-10-03T12:53:38Z</time>
      </trkpt>
      <trkpt lat="40.705998" lon="0.165792">
        <ele>1147.087</ele>
        <time>2010-10-03T12:53:48Z</time>
      </trkpt>
      <trkpt lat="40.706378" lon="0.166877">
        <ele>1145.077</ele>
        <time>2010-10-03T12:53:58Z</time>
      </trkpt>
      <trkpt lat="40.707004" lon="0.167801">
        <ele>1135.061</ele>
        <time>2010-10-03T12:54:08Z</time>
      </trkpt>
      <trkpt lat="40.707036" lon="0.168928">
        <ele>1132.027</ele>
        <time>2010-10-03T12:54:18Z</time>
      </trkpt>
      <trkpt lat="40.705824" lon="0.170279">
        <ele>1114.007</ele>
        <time>2010-10-03T12:54:38Z</time>
      </trkpt>
      <trkpt lat="40.705738" lon="0.170800">
        <ele>1099.088</ele>
        <time>2010-10-03T12:55:38Z</time>
      </trkpt>
      <trkpt lat="40.706133" lon="0.171093">
        <ele>1099.079</ele>
        <time>2010-10-03T12:55:57Z</time>
      </trkpt>
      <trkpt lat="40.705725" lon="0.171392">
        <ele>1097.088</ele>
        <time>2010-10-03T12:56:15Z</time>
      </trkpt>
      <trkpt lat="40.705405" lon="0.171415">
        <ele>1095.063</ele>
        <time>2010-10-03T12:57:15Z</time>
      </trkpt>
      <trkpt lat="40.705280" lon="0.170822">
        <ele>1095.046</ele>
        <time>2010-10-03T13:22:46Z</time>
      </trkpt>
      <trkpt lat="40.705388" lon="0.171334">
        <ele>1093.080</ele>
        <time>2010-10-03T13:23:46Z</time>
      </trkpt>
      <trkpt lat="40.705865" lon="0.171447">
        <ele>1093.082</ele>
        <time>2010-10-03T13:24:02Z</time>
      </trkpt>
      <trkpt lat="40.704081" lon="0.171464">
        <ele>1098.092</ele>
        <time>2010-10-03T13:27:14Z</time>
      </trkpt>
      <trkpt lat="40.704179" lon="0.171308">
        <ele>1126.073</ele>
        <time>2010-10-03T13:28:14Z</time>
      </trkpt>
      <trkpt lat="40.705768" lon="0.171454">
        <ele>1130.020</ele>
        <time>2010-10-03T13:28:28Z</time>
      </trkpt>
      <trkpt lat="40.704933" lon="0.170965">
        <ele>1152.007</ele>
        <time>2010-10-03T13:29:17Z</time>
      </trkpt>
      <trkpt lat="40.705330" lon="0.170687">
        <ele>1144.020</ele>
        <time>2010-10-03T13:30:07Z</time>
      </trkpt>
      <trkpt lat="40.705532" lon="0.170140">
        <ele>1079.061</ele>
        <time>2010-10-03T13:31:07Z</time>
      </trkpt>
      <trkpt lat="40.705518" lon="0.169505">
        <ele>1079.020</ele>
        <time>2010-10-03T13:31:17Z</time>
      </trkpt>
      <trkpt lat="40.703532" lon="0.166872">
        <ele>1088.095</ele>
        <time>2010-10-03T13:32:42Z</time>
      </trkpt>
      <trkpt lat="40.702365" lon="0.165942">
        <ele>1093.028</ele>
        <time>2010-10-03T13:33:32Z</time>
      </trkpt>
      <trkpt lat="40.701475" lon="0.165727">
        <ele>1097.012</ele>
        <time>2010-10-03T13:34:04Z</time>
      </trkpt>
      <trkpt lat="40.700562" lon="0.165921">
        <ele>1099.014</ele>
        <time>2010-10-03T13:34:38Z</time>
      </trkpt>
      <trkpt lat="40.698566" lon="0.167321">
        <ele>1103.076</ele>
        <time>2010-10-03T13:36:04Z</time>
      </trkpt>
      <trkpt lat="40.697194" lon="0.167331">
        <ele>1108.090</ele>
        <time>2010-10-03T13:36:57Z</time>
      </trkpt>
      <trkpt lat="40.696879" lon="0.166900">
        <ele>1109.019</ele>
        <time>2010-10-03T13:37:20Z</time>
      </trkpt>
      <trkpt lat="40.696784" lon="0.166301">
        <ele>1112.007</ele>
        <time>2010-10-03T13:37:38Z</time>
      </trkpt>
      <trkpt lat="40.696446" lon="0.165909">
        <ele>1117.048</ele>
        <time>2010-10-03T13:37:59Z</time>
      </trkpt>
      <trkpt lat="40.695569" lon="0.166124">
        <ele>1127.019</ele>
        <time>2010-10-03T13:38:33Z</time>
      </trkpt>
      <trkpt lat="40.693423" lon="0.166121">
        <ele>1143.038</ele>
        <time>2010-10-03T13:40:51Z</time>
      </trkpt>
      <trkpt lat="40.691743" lon="0.164423">
        <ele>1142.063</ele>
        <time>2010-10-03T13:41:29Z</time>
      </trkpt>
      <trkpt lat="40.691919" lon="0.165846">
        <ele>1139.086</ele>
        <time>2010-10-03T13:41:54Z</time>
      </trkpt>
      <trkpt lat="40.691443" lon="0.165030">
        <ele>1136.020</ele>
        <time>2010-10-03T13:42:04Z</time>
      </trkpt>
      <trkpt lat="40.690511" lon="0.165375">
        <ele>1132.062</ele>
        <time>2010-10-03T13:42:14Z</time>
      </trkpt>
      <trkpt lat="40.689016" lon="0.167648">
        <ele>1119.075</ele>
        <time>2010-10-03T13:42:34Z</time>
      </trkpt>
      <trkpt lat="40.689077" lon="0.163967">
        <ele>1112.028</ele>
        <time>2010-10-03T13:43:04Z</time>
      </trkpt>
      <trkpt lat="40.688338" lon="0.163448">
        <ele>1110.020</ele>
        <time>2010-10-03T13:43:14Z</time>
      </trkpt>
      <trkpt lat="40.687822" lon="0.162866">
        <ele>1107.007</ele>
        <time>2010-10-03T13:43:24Z</time>
      </trkpt>
      <trkpt lat="40.687259" lon="0.163073">
        <ele>1105.088</ele>
        <time>2010-10-03T13:43:34Z</time>
      </trkpt>
      <trkpt lat="40.686580" lon="0.164168">
        <ele>1096.039</ele>
        <time>2010-10-03T13:43:44Z</time>
      </trkpt>
      <trkpt lat="40.685833" lon="0.164611">
        <ele>1091.038</ele>
        <time>2010-10-03T13:43:54Z</time>
      </trkpt>
      <trkpt lat="40.685088" lon="0.165401">
        <ele>1088.053</ele>
        <time>2010-10-03T13:44:04Z</time>
      </trkpt>
      <trkpt lat="40.684754" lon="0.166402">
        <ele>1080.056</ele>
        <time>2010-10-03T13:44:14Z</time>
      </trkpt>
      <trkpt lat="40.684831" lon="0.167486">
        <ele>1074.020</ele>
        <time>2010-10-03T13:44:24Z</time>
      </trkpt>
      <trkpt lat="40.684292" lon="0.168233">
        <ele>1069.062</ele>
        <time>2010-10-03T13:44:34Z</time>
      </trkpt>
      <trkpt lat="40.683997" lon="0.169077">
        <ele>1064.049</ele>
        <time>2010-10-03T13:44:44Z</time>
      </trkpt>
      <trkpt lat="40.683699" lon="0.169591">
        <ele>1061.002</ele>
        <time>2010-10-03T13:44:58Z</time>
      </trkpt>
      <trkpt lat="40.682561" lon="0.170142">
        <ele>1057.022</ele>
        <time>2010-10-03T13:45:18Z</time>
      </trkpt>
      <trkpt lat="40.681542" lon="0.172069">
        <ele>1049.007</ele>
        <time>2010-10-03T13:45:38Z</time>
      </trkpt>
      <trkpt lat="40.681531" lon="0.173467">
        <ele>1042.095</ele>
        <time>2010-10-03T13:45:48Z</time>
      </trkpt>
      <trkpt lat="40.681066" lon="0.174672">
        <ele>1038.066</ele>
        <time>2010-10-03T13:45:58Z</time>
      </trkpt>
      <trkpt lat="40.680912" lon="0.175888">
        <ele>1031.085</ele>
        <time>2010-10-03T13:46:08Z</time>
      </trkpt>
      <trkpt lat="40.680270" lon="0.178118">
        <ele>1016.070</ele>
        <time>2010-10-03T13:46:28Z</time>
      </trkpt>
      <trkpt lat="40.680355" lon="0.179308">
        <ele>1011.043</ele>
        <time>2010-10-03T13:46:38Z</time>
      </trkpt>
      <trkpt lat="40.680830" lon="0.180297">
        <ele>1007.057</ele>
        <time>2010-10-03T13:46:48Z</time>
      </trkpt>
      <trkpt lat="40.681347" lon="0.182602">
        <ele>1001.079</ele>
        <time>2010-10-03T13:47:08Z</time>
      </trkpt>
      <trkpt lat="40.681339" lon="0.183312">
        <ele>997.082</ele>
        <time>2010-10-03T13:47:18Z</time>
      </trkpt>
      <trkpt lat="40.680634" lon="0.180461">
        <ele>986.043</ele>
        <time>2010-10-03T13:47:48Z</time>
      </trkpt>
      <trkpt lat="40.680051" lon="0.179808">
        <ele>982.017</ele>
        <time>2010-10-03T13:47:58Z</time>
      </trkpt>
      <trkpt lat="40.679378" lon="0.177767">
        <ele>974.007</ele>
        <time>2010-10-03T13:48:18Z</time>
      </trkpt>
      <trkpt lat="40.679214" lon="0.178359">
        <ele>969.019</ele>
        <time>2010-10-03T13:48:31Z</time>
      </trkpt>
      <trkpt lat="40.679225" lon="0.179627">
        <ele>966.090</ele>
        <time>2010-10-03T13:48:41Z</time>
      </trkpt>
      <trkpt lat="40.679889" lon="0.182140">
        <ele>947.039</ele>
        <time>2010-10-03T13:49:01Z</time>
      </trkpt>
      <trkpt lat="40.679657" lon="0.185103">
        <ele>938.034</ele>
        <time>2010-10-03T13:49:24Z</time>
      </trkpt>
      <trkpt lat="40.679941" lon="0.186257">
        <ele>933.077</ele>
        <time>2010-10-03T13:49:34Z</time>
      </trkpt>
      <trkpt lat="40.681362" lon="0.188671">
        <ele>920.061</ele>
        <time>2010-10-03T13:49:54Z</time>
      </trkpt>
      <trkpt lat="40.681889" lon="0.190155">
        <ele>914.053</ele>
        <time>2010-10-03T13:50:04Z</time>
      </trkpt>
      <trkpt lat="40.681651" lon="0.194169">
        <ele>892.035</ele>
        <time>2010-10-03T13:50:34Z</time>
      </trkpt>
      <trkpt lat="40.682287" lon="0.196661">
        <ele>877.086</ele>
        <time>2010-10-03T13:50:54Z</time>
      </trkpt>
      <trkpt lat="40.681917" lon="0.195784">
        <ele>874.014</ele>
        <time>2010-10-03T13:51:04Z</time>
      </trkpt>
      <trkpt lat="40.681343" lon="0.195034">
        <ele>872.007</ele>
        <time>2010-10-03T13:51:14Z</time>
      </trkpt>
      <trkpt lat="40.681543" lon="0.194501">
        <ele>851.014</ele>
        <time>2010-10-03T13:51:53Z</time>
      </trkpt>
      <trkpt lat="40.681096" lon="0.192399">
        <ele>841.025</ele>
        <time>2010-10-03T13:52:13Z</time>
      </trkpt>
      <trkpt lat="40.679951" lon="0.191456">
        <ele>835.094</ele>
        <time>2010-10-03T13:52:35Z</time>
      </trkpt>
      <trkpt lat="40.679842" lon="0.192073">
        <ele>827.039</ele>
        <time>2010-10-03T13:52:47Z</time>
      </trkpt>
      <trkpt lat="40.680411" lon="0.192841">
        <ele>822.092</ele>
        <time>2010-10-03T13:52:57Z</time>
      </trkpt>
      <trkpt lat="40.680354" lon="0.193642">
        <ele>817.036</ele>
        <time>2010-10-03T13:53:07Z</time>
      </trkpt>
      <trkpt lat="40.680158" lon="0.192818">
        <ele>812.058</ele>
        <time>2010-10-03T13:53:17Z</time>
      </trkpt>
      <trkpt lat="40.679559" lon="0.191930">
        <ele>807.063</ele>
        <time>2010-10-03T13:53:27Z</time>
      </trkpt>
      <trkpt lat="40.679510" lon="0.190713">
        <ele>804.044</ele>
        <time>2010-10-03T13:53:37Z</time>
      </trkpt>
      <trkpt lat="40.679269" lon="0.189912">
        <ele>801.018</ele>
        <time>2010-10-03T13:53:47Z</time>
      </trkpt>
      <trkpt lat="40.678349" lon="0.189769">
        <ele>798.007</ele>
        <time>2010-10-03T13:53:57Z</time>
      </trkpt>
      <trkpt lat="40.677810" lon="0.189184">
        <ele>795.037</ele>
        <time>2010-10-03T13:54:07Z</time>
      </trkpt>
      <trkpt lat="40.677046" lon="0.189257">
        <ele>791.058</ele>
        <time>2010-10-03T13:54:17Z</time>
      </trkpt>
      <trkpt lat="40.676032" lon="0.189025">
        <ele>787.017</ele>
        <time>2010-10-03T13:54:27Z</time>
      </trkpt>
      <trkpt lat="40.675579" lon="0.188022">
        <ele>786.092</ele>
        <time>2010-10-03T13:54:37Z</time>
      </trkpt>
      <trkpt lat="40.675317" lon="0.186726">
        <ele>786.045</ele>
        <time>2010-10-03T13:54:47Z</time>
      </trkpt>
      <trkpt lat="40.674855" lon="0.186792">
        <ele>788.079</ele>
        <time>2010-10-03T13:55:06Z</time>
      </trkpt>
      <trkpt lat="40.674259" lon="0.189123">
        <ele>787.041</ele>
        <time>2010-10-03T13:55:26Z</time>
      </trkpt>
      <trkpt lat="40.673833" lon="0.190176">
        <ele>774.025</ele>
        <time>2010-10-03T13:55:36Z</time>
      </trkpt>
      <trkpt lat="40.673177" lon="0.190133">
        <ele>772.026</ele>
        <time>2010-10-03T13:55:46Z</time>
      </trkpt>
      <trkpt lat="40.672759" lon="0.189902">
        <ele>769.008</ele>
        <time>2010-10-03T13:55:58Z</time>
      </trkpt>
      <trkpt lat="40.670259" lon="0.191439">
        <ele>756.007</ele>
        <time>2010-10-03T13:56:38Z</time>
      </trkpt>
      <trkpt lat="40.669753" lon="0.192087">
        <ele>748.093</ele>
        <time>2010-10-03T13:56:48Z</time>
      </trkpt>
      <trkpt lat="40.669827" lon="0.193457">
        <ele>741.024</ele>
        <time>2010-10-03T13:56:58Z</time>
      </trkpt>
      <trkpt lat="40.669657" lon="0.194786">
        <ele>727.043</ele>
        <time>2010-10-03T13:57:08Z</time>
      </trkpt>
      <trkpt lat="40.669830" lon="0.195707">
        <ele>716.028</ele>
        <time>2010-10-03T13:57:18Z</time>
      </trkpt>
      <trkpt lat="40.671007" lon="0.197289">
        <ele>711.021</ele>
        <time>2010-10-03T13:57:38Z</time>
      </trkpt>
      <trkpt lat="40.672041" lon="0.197228">
        <ele>710.035</ele>
        <time>2010-10-03T13:57:48Z</time>
      </trkpt>
      <trkpt lat="40.673551" lon="0.197853">
        <ele>709.047</ele>
        <time>2010-10-03T13:58:08Z</time>
      </trkpt>
      <trkpt lat="40.672186" lon="0.198347">
        <ele>707.029</ele>
        <time>2010-10-03T13:58:18Z</time>
      </trkpt>
      <trkpt lat="40.671554" lon="0.199254">
        <ele>698.000</ele>
        <time>2010-10-03T13:58:28Z</time>
      </trkpt>
      <trkpt lat="40.672235" lon="0.201868">
        <ele>687.020</ele>
        <time>2010-10-03T13:58:48Z</time>
      </trkpt>
      <trkpt lat="40.672220" lon="0.203091">
        <ele>670.007</ele>
        <time>2010-10-03T13:58:58Z</time>
      </trkpt>
      <trkpt lat="40.671409" lon="0.202989">
        <ele>657.063</ele>
        <time>2010-10-03T13:59:08Z</time>
      </trkpt>
      <trkpt lat="40.670652" lon="0.203141">
        <ele>650.094</ele>
        <time>2010-10-03T13:59:18Z</time>
      </trkpt>
      <trkpt lat="40.671227" lon="0.203658">
        <ele>650.083</ele>
        <time>2010-10-03T13:59:28Z</time>
      </trkpt>
      <trkpt lat="40.672521" lon="0.205899">
        <ele>648.018</ele>
        <time>2010-10-03T13:59:48Z</time>
      </trkpt>
      <trkpt lat="40.673386" lon="0.206762">
        <ele>648.041</ele>
        <time>2010-10-03T13:59:58Z</time>
      </trkpt>
      <trkpt lat="40.674532" lon="0.206888">
        <ele>648.075</ele>
        <time>2010-10-03T14:00:08Z</time>
      </trkpt>
      <trkpt lat="40.675111" lon="0.207675">
        <ele>648.067</ele>
        <time>2010-10-03T14:00:18Z</time>
      </trkpt>
      <trkpt lat="40.675460" lon="0.208530">
        <ele>648.099</ele>
        <time>2010-10-03T14:00:28Z</time>
      </trkpt>
      <trkpt lat="40.675617" lon="0.210031">
        <ele>649.007</ele>
        <time>2010-10-03T14:00:38Z</time>
      </trkpt>
      <trkpt lat="40.675532" lon="0.210807">
        <ele>649.027</ele>
        <time>2010-10-03T14:00:48Z</time>
      </trkpt>
      <trkpt lat="40.675970" lon="0.210023">
        <ele>648.007</ele>
        <time>2010-10-03T14:00:58Z</time>
      </trkpt>
      <trkpt lat="40.676004" lon="0.211127">
        <ele>647.020</ele>
        <time>2010-10-03T14:01:08Z</time>
      </trkpt>
      <trkpt lat="40.675464" lon="0.211137">
        <ele>647.021</ele>
        <time>2010-10-03T14:01:18Z</time>
      </trkpt>
      <trkpt lat="40.675146" lon="0.211598">
        <ele>645.060</ele>
        <time>2010-10-03T14:01:28Z</time>
      </trkpt>
      <trkpt lat="40.674856" lon="0.212703">
        <ele>644.065</ele>
        <time>2010-10-03T14:01:38Z</time>
      </trkpt>
      <trkpt lat="40.674157" lon="0.213470">
        <ele>642.018</ele>
        <time>2010-10-03T14:01:48Z</time>
      </trkpt>
      <trkpt lat="40.670613" lon="0.212814">
        <ele>642.062</ele>
        <time>2010-10-03T14:02:28Z</time>
      </trkpt>
      <trkpt lat="40.669155" lon="0.213703">
        <ele>637.044</ele>
        <time>2010-10-03T14:02:48Z</time>
      </trkpt>
      <trkpt lat="40.668633" lon="0.214273">
        <ele>634.091</ele>
        <time>2010-10-03T14:02:58Z</time>
      </trkpt>
      <trkpt lat="40.668669" lon="0.215198">
        <ele>631.081</ele>
        <time>2010-10-03T14:03:08Z</time>
      </trkpt>
      <trkpt lat="40.669264" lon="0.216856">
        <ele>628.019</ele>
        <time>2010-10-03T14:03:28Z</time>
      </trkpt>
      <trkpt lat="40.669358" lon="0.217781">
        <ele>626.007</ele>
        <time>2010-10-03T14:03:38Z</time>
      </trkpt>
      <trkpt lat="40.670346" lon="0.221569">
        <ele>607.020</ele>
        <time>2010-10-03T14:04:18Z</time>
      </trkpt>
      <trkpt lat="40.669750" lon="0.224473">
        <ele>594.041</ele>
        <time>2010-10-03T14:04:48Z</time>
      </trkpt>
      <trkpt lat="40.669914" lon="0.226487">
        <ele>581.040</ele>
        <time>2010-10-03T14:05:08Z</time>
      </trkpt>
      <trkpt lat="40.669620" lon="0.228612">
        <ele>576.035</ele>
        <time>2010-10-03T14:05:28Z</time>
      </trkpt>
      <trkpt lat="40.670892" lon="0.231129">
        <ele>543.048</ele>
        <time>2010-10-03T14:06:37Z</time>
      </trkpt>
      <trkpt lat="40.671203" lon="0.232278">
        <ele>512.052</ele>
        <time>2010-10-03T14:07:00Z</time>
      </trkpt>
      <trkpt lat="40.671096" lon="0.232427">
        <ele>495.054</ele>
        <time>2010-10-03T14:08:00Z</time>
      </trkpt>
    </trkseg>
  </trk>
</gpx>
